
Distance (Route):
Temperature : 19.2°C
Humidity : 75.8%
Pressure : 1001.1hPa| Receiver | Frames | First received | Last received |
|---|---|---|---|
| DL1XH-west | 716 | 2026-09-03 22:48:23 | 2026-09-04 00:59:45 |
| AA1-15 | 621 | 2026-09-03 22:51:21 | 2026-09-04 01:01:14 |
| DF8AY | 602 | 2026-09-03 22:49:48 | 2026-09-04 01:03:59 |
| DL1XH1-15 | 503 | 2026-09-03 22:48:55 | 2026-09-04 00:59:55 |
| DO2SHX-10 | 501 | 2026-09-03 22:56:31 | 2026-09-04 00:59:01 |
| DL1XH-15 | 414 | 2026-09-03 22:48:17 | 2026-09-04 00:57:58 |
| HSKMA3-T | 404 | 2026-09-03 23:25:44 | 2026-09-04 00:51:52 |
| DM0DOS-11 | 385 | 2026-09-03 22:47:13 | 2026-09-04 01:01:53 |
| DB0DAN | 343 | 2026-09-03 22:45:55 | 2026-09-04 01:05:10 |
| BIOWL1-15 | 241 | 2026-09-03 22:50:35 | 2026-09-04 00:27:12 |
| DL1NUX | 193 | 2026-09-03 23:35:42 | 2026-09-04 00:49:57 |
| DD8BA-10 | 185 | 2026-09-03 22:50:58 | 2026-09-04 00:49:23 |
| GOEST3-10 | 143 | 2026-09-03 22:57:12 | 2026-09-04 00:49:48 |
| DF7ER-10 | 80 | 2026-09-03 22:58:56 | 2026-09-04 00:59:53 |
| TFSTFS | 77 | 2026-09-03 23:09:45 | 2026-09-04 01:04:32 |
| AM1SDL-15 | 69 | 2026-09-03 22:51:51 | 2026-09-04 01:05:50 |
| DF8AY-15 | 58 | 2026-09-03 22:50:19 | 2026-09-04 01:03:16 |
| DB0UT-7 | 52 | 2026-09-03 23:04:05 | 2026-09-04 00:49:25 |
| DL4XJ-10 | 48 | 2026-09-03 22:48:10 | 2026-09-04 00:49:15 |
| S3001 | 45 | 2026-09-03 22:56:45 | 2026-09-04 01:01:27 |
| SONCRA | 44 | 2026-09-03 22:55:24 | 2026-09-04 01:00:39 |
| SMARD9-15 | 42 | 2026-09-03 22:54:43 | 2026-09-04 00:51:46 |
| DB0NH | 42 | 2026-09-03 23:06:58 | 2026-09-04 00:48:11 |
| EDDB2-11 | 39 | 2026-09-03 23:13:44 | 2026-09-04 01:04:28 |
| DO3MHA-11 | 39 | 2026-09-03 23:41:16 | 2026-09-04 00:45:32 |
| SONDE2-11 | 38 | 2026-09-03 22:58:13 | 2026-09-04 01:05:01 |
| DL4BBY-15 | 37 | 2026-09-03 22:51:02 | 2026-09-04 00:48:08 |
| DL1ZP-14 | 33 | 2026-09-03 23:07:24 | 2026-09-04 00:48:54 |
| EDDB2-12 | 31 | 2026-09-03 23:06:47 | 2026-09-04 01:04:47 |
| BUE01 | 27 | 2026-09-03 23:03:34 | 2026-09-04 00:39:24 |
| DL3AQ-11 | 24 | 2026-09-03 22:55:47 | 2026-09-03 23:45:32 |
| DF2AP-13 | 24 | 2026-09-03 23:04:51 | 2026-09-04 00:57:58 |
| SMARD9-10 | 22 | 2026-09-03 22:48:22 | 2026-09-04 00:52:10 |
| DJ2DS-15 | 22 | 2026-09-03 22:52:34 | 2026-09-04 00:56:24 |
| HTAHTA | 20 | 2026-09-03 23:18:13 | 2026-09-04 00:45:42 |
| DJ8HS-15 | 20 | 2026-09-03 23:57:54 | 2026-09-04 00:41:18 |
| SO1NDE-10 | 20 | 2026-09-03 23:59:10 | 2026-09-04 00:46:22 |
| BIOWL9-15 | 15 | 2026-09-03 22:50:56 | 2026-09-03 23:57:47 |
| 13BRC | 15 | 2026-09-04 00:30:39 | 2026-09-04 00:49:28 |
| AP2371 | 14 | 2026-09-03 23:19:39 | 2026-09-04 00:34:53 |
| DL1LOL-11 | 13 | 2026-09-03 22:52:04 | 2026-09-04 00:32:48 |
| SP3BTT-10 | 13 | 2026-09-03 23:27:16 | 2026-09-04 00:53:13 |
| DO2JMG | 9 | 2026-09-03 23:21:24 | 2026-09-03 23:27:43 |
| DL1CLM-18 | 9 | 2026-09-03 23:50:07 | 2026-09-04 00:46:43 |
| SP3WXH-11 | 9 | 2026-09-04 00:19:22 | 2026-09-04 00:42:08 |
| DL2RXE-15 | 7 | 2026-09-03 23:15:53 | 2026-09-04 01:01:20 |
| OE5DRO-10 | 7 | 2026-09-04 00:28:07 | 2026-09-04 00:39:14 |
| NBG1-10 | 6 | 2026-09-03 23:11:44 | 2026-09-04 00:48:02 |
| DO9LL-15 | 6 | 2026-09-03 23:39:23 | 2026-09-04 00:40:02 |
| DF7PN | 6 | 2026-09-04 00:00:27 | 2026-09-04 00:42:21 |
| DL3OBA | 6 | 2026-09-04 00:32:55 | 2026-09-04 00:37:45 |
| DL8OAI-8 | 5 | 2026-09-03 22:53:14 | 2026-09-03 23:06:57 |
| MECKS9 | 5 | 2026-09-03 23:21:11 | 2026-09-03 23:58:36 |
| DB0ND-19 | 3 | 2026-09-03 23:08:45 | 2026-09-04 00:22:12 |
| DK1YY | 2 | 2026-09-03 23:12:04 | 2026-09-03 23:18:47 |
| OE5DXL-15 | 2 | 2026-09-04 00:30:38 | 2026-09-04 00:38:40 |
| DO2LYB-13 | 1 | 2026-09-03 22:59:38 | 2026-09-03 22:59:38 |
| BIOWL7-15 | 1 | 2026-09-03 23:09:02 | 2026-09-03 23:09:02 |
| DH0BRO-15 | 1 | 2026-09-04 00:16:32 | 2026-09-04 00:16:32 |
| Receiver | Date | Latitude | Longitude | Direction | Speed | Altitude | Climb | Temperature | Humidity | Pressure | Voltage | Killtimer | Uptime | BKT | XDATA |
|---|---|---|---|---|---|---|---|---|---|---|---|---|---|---|---|
| AM1SDL-15 | 2026-09-04 01:05:50 | 52.25856 | 11.92095 | 77° | 24km/h | 152m | -12.8m/s | 19.2°C | 75.8% | 1001.1hPa | 2.7V | 00:00:00 | 03:11:05 | 00:00:00 | |
| AM1SDL-15 | 2026-09-04 01:05:48 | 52.25854 | 11.92074 | 79° | 27km/h | 177m | -13.2m/s | 19.0°C | 76.3% | 998.4hPa | 2.7V | 02:41:00 | 03:11:03 | 00:00:00 | |
| AM1SDL-15 | 2026-09-04 01:05:46 | 52.25851 | 11.92053 | 73° | 26km/h | 202m | -12.8m/s | 18.8°C | 76.7% | 995.4hPa | 2.6V | 00:00:00 | 03:11:01 | 00:00:00 | |
| AM1SDL-15 | 2026-09-04 01:05:44 | 52.25849 | 11.92032 | 80° | 26km/h | 226m | -13.9m/s | 18.6°C | 77.4% | 992.6hPa | 2.6V | 00:00:00 | 03:10:59 | 00:00:00 | |
| AM1SDL-15 | 2026-09-04 01:05:42 | 52.25847 | 11.92009 | 81° | 29km/h | 252m | -12.5m/s | 18.4°C | 78.3% | 989.6hPa | 2.6V | 02:41:00 | 03:10:57 | 00:00:00 | |
| AM1SDL-15 | 2026-09-04 01:05:40 | 52.25845 | 11.91982 | 82° | 35km/h | 275m | -12.1m/s | 18.2°C | 79.1% | 986.6hPa | 2.7V | 00:00:00 | 03:10:55 | 00:00:00 | |
| AM1SDL-15 | 2026-09-04 01:05:38 | 52.25843 | 11.91954 | 83° | 31km/h | 299m | -13.8m/s | 17.9°C | 80.0% | 984.0hPa | 2.7V | 00:00:00 | 03:10:53 | 00:00:00 | |
| AM1SDL-15 | 2026-09-04 01:05:36 | 52.25842 | 11.91926 | 86° | 37km/h | 326m | -12.9m/s | 17.8°C | 80.1% | 981.3hPa | 2.7V | 02:41:00 | 03:10:51 | 00:00:00 | |
| AM1SDL-15 | 2026-09-04 01:05:34 | 52.25842 | 11.91893 | 89° | 40km/h | 351m | -14.0m/s | 17.7°C | 79.8% | 978.2hPa | 2.7V | 00:00:00 | 03:10:49 | 00:00:00 | |
| AM1SDL-15 | 2026-09-04 01:05:32 | 52.25841 | 11.91860 | 84° | 40km/h | 378m | -13.4m/s | 17.4°C | 80.8% | 975.4hPa | 2.7V | 00:00:00 | 03:10:47 | 00:00:00 | |
| AM1SDL-15 | 2026-09-04 01:05:30 | 52.25840 | 11.91824 | 86° | 46km/h | 404m | -12.6m/s | 17.2°C | 81.7% | 972.5hPa | 2.7V | 02:41:00 | 03:10:45 | 00:00:00 | |
| AM1SDL-15 | 2026-09-04 01:05:28 | 52.25840 | 11.91786 | 90° | 44km/h | 428m | -13.3m/s | 17.2°C | 80.4% | 969.7hPa | 2.7V | 00:00:00 | 03:10:43 | 00:00:00 | |
| AM1SDL-15 | 2026-09-04 01:05:26 | 52.25839 | 11.91750 | 83° | 46km/h | 452m | -12.6m/s | 16.9°C | 81.9% | 967.0hPa | 2.7V | 00:00:00 | 03:10:41 | 00:00:00 | |
| AM1SDL-15 | 2026-09-04 01:05:24 | 52.25837 | 11.91713 | 83° | 49km/h | 475m | -12.5m/s | 16.6°C | 83.0% | 963.9hPa | 2.7V | 02:41:00 | 03:10:39 | 00:00:00 | |
| AM1SDL-15 | 2026-09-04 01:05:22 | 52.25835 | 11.91670 | 88° | 53km/h | 499m | -12.7m/s | 16.6°C | 81.3% | 961.0hPa | 2.7V | 00:00:00 | 03:10:37 | 00:00:00 | |
| AM1SDL-15 | 2026-09-04 01:05:20 | 52.25836 | 11.91627 | 92° | 51km/h | 523m | -13.3m/s | 16.5°C | 80.0% | 958.3hPa | 2.7V | 00:00:00 | 03:10:35 | 00:00:00 | |
| AM1SDL-15 | 2026-09-04 01:05:18 | 52.25836 | 11.91586 | 91° | 51km/h | 548m | -13.0m/s | 16.3°C | 80.8% | 955.8hPa | 2.7V | 02:41:00 | 03:10:33 | 00:00:00 | |
| AM1SDL-15 | 2026-09-04 01:05:16 | 52.25837 | 11.91544 | 92° | 53km/h | 574m | -12.4m/s | 16.1°C | 81.8% | 952.8hPa | 2.7V | 00:00:00 | 03:10:31 | 00:00:00 | |
| DB0DAN | 2026-09-04 01:05:10 | 52.25840 | 11.91420 | 90° | 44km/h | 648m | -13.5m/s | 15.6°C | 84.8% | 944.62hPa | 2.7V | 00:00:00 | 00:00:00 | 00:00:00 | |
| AM1SDL-15 | 2026-09-04 01:05:10 | 52.25840 | 11.91419 | 91° | 46km/h | 649m | -13.5m/s | 15.6°C | 84.4% | 944.6hPa | 2.7V | 00:00:00 | 03:10:25 | 00:00:00 | |
| AM1SDL-15 | 2026-09-04 01:05:06 | 52.25843 | 11.91343 | 93° | 47km/h | 698m | -13.1m/s | 15.2°C | 86.3% | 939.2hPa | 2.7V | 02:42:00 | 03:10:21 | 00:00:00 | |
| AM1SDL-15 | 2026-09-04 01:05:02 | 52.25848 | 11.91265 | 96° | 47km/h | 747m | -12.1m/s | 14.8°C | 86.5% | 933.8hPa | 2.6V | 00:00:00 | 03:10:17 | 00:00:00 | |
| SONDE2-11 | 2026-09-04 01:05:01 | 52.25856 | 11.91129 | 94° | 49km/h | 833m | -12.2m/s | 14.3°C | 87.0% | 924.5hPa | 2.6V | 00:00:00 | 00:00:00 | 00:00:00 | |
| DB0DAN | 2026-09-04 01:04:55 | 52.25856 | 11.91129 | 94° | 47km/h | 833m | -12.2m/s | 14.3°C | 87% | 924.5hPa | 2.6V | 00:00:00 | 00:00:00 | 00:00:00 | |
| EDDB2-12 | 2026-09-04 01:04:47 | 52.25868 | 11.90943 | 95° | 51km/h | 940m | -12.3m/s | 13.4°C | 89.2% | 912.7hPa | 2.6V | 00:00:00 | 00:00:00 | 00:00:00 | |
| AM1SDL-15 | 2026-09-04 01:04:38 | 52.25884 | 11.90772 | 100° | 53km/h | 1035m | -11.6m/s | 12.5°C | 90.6% | 902.6hPa | 2.6V | 02:42:00 | 03:09:53 | 00:00:00 | |
| TFSTFS | 2026-09-04 01:04:32 | 52.25897 | 11.90664 | 105° | 51km/h | 1094m | -13.0m/s | 12.0°C | 91.9% | 896.4hPa | 2.6V | 02:42:00 | 00:00:00 | 00:00:00 | |
| SONDE2-11 | 2026-09-04 01:04:30 | 52.25906 | 11.90601 | 102° | 51km/h | 1132m | -13.0m/s | 11.8°C | 90.0% | 892.4hPa | 2.6V | 00:00:00 | 00:00:00 | 00:00:00 | |
| EDDB2-11 | 2026-09-04 01:04:28 | 52.25916 | 11.90539 | 103° | 53km/h | 1170m | -13.1m/s | 11.7°C | 86.9% | 888.4hPa | 2.6V | 00:00:00 | 00:00:00 | 00:00:00 | |
| DB0DAN | 2026-09-04 01:04:25 | 52.25922 | 11.90495 | 102° | 53km/h | 1195m | -12.3m/s | 11.5°C | 87.2% | 885.84hPa | 2.6V | 00:00:00 | 00:00:00 | 00:00:00 | |
| DF8AY | 2026-09-04 01:03:59 | 52.25979 | 11.89868 | 95° | 60km/h | 1497m | -13m/s | 9.8°C | 86.5% | 853.5hPa | 2.6V | 02:43:43 | 03:09:14 | 00:00:00 | |
| DF8AY | 2026-09-04 01:03:53 | 52.25992 | 11.89632 | 96° | 57km/h | 1617m | -12.3m/s | 9.4°C | 77.7% | 841.6hPa | 2.6V | 02:43:43 | 03:09:04 | 00:00:00 | |
| DF8AY | 2026-09-04 01:03:53 | 52.25994 | 11.89609 | 94° | 57km/h | 1629m | -12.8m/s | 9.4°C | 75.7% | 840.5hPa | 2.6V | 02:43:43 | 03:09:03 | 00:00:00 | |
| DF8AY | 2026-09-04 01:03:46 | 52.25996 | 11.89563 | 93° | 55km/h | 1653m | -12.4m/s | 9.3°C | 68.4% | 838.1hPa | 2.5V | 02:43:43 | 03:09:01 | 00:00:00 | |
| DF8AY | 2026-09-04 01:03:45 | 52.25998 | 11.89540 | 94° | 55km/h | 1665m | -13m/s | 9.2°C | 70.3% | 836.9hPa | 2.5V | 02:43:43 | 03:09:00 | 00:00:00 | |
| EDDB2-12 | 2026-09-04 01:03:44 | 52.25999 | 11.89518 | 92° | 53km/h | 1676m | -12.4m/s | 9.1°C | 66.4% | 835.7hPa | 2.6V | 00:00:00 | 00:00:00 | 00:00:00 | |
| DF8AY | 2026-09-04 01:03:43 | 52.26000 | 11.89474 | 93° | 53km/h | 1700m | -12.3m/s | 8.8°C | 79.6% | 833.3hPa | 2.6V | 02:43:43 | 03:08:57 | 00:00:00 | |
| DF8AY | 2026-09-04 01:03:41 | 52.26007 | 11.89345 | 93° | 49km/h | 1769m | -12.2m/s | 8.3°C | 82.4% | 826.2hPa | 2.5V | 02:43:43 | 03:08:51 | 00:00:00 | |
| DB0DAN | 2026-09-04 01:03:40 | 52.26003 | 11.89431 | 93° | 49km/h | 1723m | -12.2m/s | 8.6°C | 77.9% | 830.88hPa | 2.6V | 00:00:00 | 00:00:00 | 00:00:00 | |
| DF8AY | 2026-09-04 01:03:34 | 52.26008 | 11.89303 | 93° | 49km/h | 1791m | -12.6m/s | 8.1°C | 81.6% | 823.8hPa | 2.6V | 02:43:43 | 03:08:49 | 00:00:00 | |
| DF8AY | 2026-09-04 01:03:32 | 52.26010 | 11.89260 | 93° | 51km/h | 1814m | -12.6m/s | 8°C | 78.5% | 821.5hPa | 2.6V | 02:43:43 | 03:08:47 | 00:00:00 | |
| DF8AY | 2026-09-04 01:03:30 | 52.26012 | 11.89216 | 93° | 53km/h | 1838m | -13.1m/s | 8°C | 70.6% | 819.3hPa | 2.6V | 02:43:43 | 03:08:45 | 00:00:00 | |
| DF8AY | 2026-09-04 01:03:29 | 52.26015 | 11.89171 | 96° | 53km/h | 1863m | -13m/s | 8.1°C | 61.7% | 817.1hPa | 2.5V | 02:43:43 | 03:08:43 | 00:00:00 | |
| DF8AY | 2026-09-04 01:03:27 | 52.26016 | 11.89149 | 96° | 53km/h | 1875m | -13m/s | 8.2°C | 56.9% | 815.8hPa | 2.5V | 02:43:43 | 03:08:42 | 00:00:00 | |
| DB0DAN | 2026-09-04 01:03:25 | 52.26019 | 11.89105 | 96° | 49km/h | 1899m | -12.6m/s | 8°C | 53.6% | 813.48hPa | 2.6V | 00:00:00 | 00:00:00 | 00:00:00 | |
| DF8AY | 2026-09-04 01:03:25 | 52.26019 | 11.89105 | 96° | 51km/h | 1899m | -12.6m/s | 8°C | 58.9% | 813.5hPa | 2.6V | 02:44:34 | 03:08:40 | 00:00:00 | |
| DF8AY | 2026-09-04 01:03:24 | 52.26021 | 11.89083 | 97° | 53km/h | 1910m | -12.7m/s | 8°C | 62% | 812.3hPa | 2.6V | 02:44:34 | 03:08:39 | 00:00:00 | |
| DF8AY | 2026-09-04 01:03:23 | 52.26023 | 11.89061 | 98° | 51km/h | 1922m | -13m/s | 8°C | 62.1% | 811.1hPa | 2.6V | 02:44:34 | 03:08:38 | 00:00:00 | |
| DF8AY | 2026-09-04 01:03:21 | 52.26027 | 11.89018 | 97° | 53km/h | 1947m | -13.1m/s | 8.5°C | 51.3% | 809hPa | 2.6V | 02:44:34 | 03:08:36 | 00:00:00 | |
| DF8AY | 2026-09-04 01:03:20 | 52.26029 | 11.88996 | 98° | 53km/h | 1960m | -13.2m/s | 8.7°C | 46.8% | 807.9hPa | 2.6V | 02:44:34 | 03:08:35 | 00:00:00 | |
| DF8AY | 2026-09-04 01:03:18 | 52.26032 | 11.88951 | 99° | 53km/h | 1986m | -13.9m/s | 8.5°C | 49.5% | 805.4hPa | 2.5V | 02:44:34 | 03:08:33 | 00:00:00 | |
| DF8AY | 2026-09-04 01:03:17 | 52.26035 | 11.88929 | 98° | 55km/h | 1999m | -13.8m/s | 8.4°C | 50.2% | 804.1hPa | 2.6V | 02:44:34 | 03:08:32 | 00:00:00 | |
| DF8AY-15 | 2026-09-04 01:03:16 | 52.26037 | 11.88907 | 97° | 57km/h | 2013m | -12.1m/s | 8.2°C | 45.2% | 802.8hPa | 2.6V | 02:43:00 | 03:08:31 | 00:00:00 | |
| EDDB2-12 | 2026-09-04 01:03:14 | 52.26043 | 11.88841 | 97° | 55km/h | 2049m | -12.7m/s | 8.1°C | 47.5% | 799.3hPa | 2.6V | 00:00:00 | 00:00:00 | 00:00:00 | |
| AM1SDL-15 | 2026-09-04 01:03:12 | 52.26045 | 11.88818 | 98° | 58km/h | 2062m | -12.0m/s | 8.3°C | 41.1% | 798.2hPa | 2.6V | 00:00:00 | 03:08:27 | 00:00:00 | |
| DB0DAN | 2026-09-04 01:03:10 | 52.26050 | 11.88772 | 97° | 57km/h | 2087m | -11.7m/s | 8.3°C | 37.2% | 796.13hPa | 2.6V | 00:00:00 | 00:00:00 | 00:00:00 | |
| DF8AY | 2026-09-04 01:03:07 | 52.26056 | 11.88701 | 97° | 58km/h | 2121m | -11.8m/s | 8.3°C | 35.1% | 792.4hPa | 2.6V | 02:44:34 | 03:08:22 | 00:00:00 | |
| DF8AY | 2026-09-04 01:02:57 | 52.26072 | 11.88472 | 93° | 53km/h | 2242m | -12.9m/s | 8.1°C | 31.8% | 780.5hPa | 2.6V | 02:44:34 | 03:08:12 | 00:00:00 | |
| SONDE2-11 | 2026-09-04 01:02:57 | 52.26072 | 11.88472 | 93° | 53km/h | 2242m | -12.9m/s | 8.1°C | 27.1% | 780.5hPa | 2.6V | 00:00:00 | 00:00:00 | 00:00:00 | |
| DB0DAN | 2026-09-04 01:02:55 | 52.26074 | 11.88428 | 94° | 51km/h | 2266m | -12.8m/s | 8°C | 26.2% | 778.25hPa | 2.6V | 00:00:00 | 00:00:00 | 00:00:00 | |
| DF8AY | 2026-09-04 01:02:46 | 52.26088 | 11.88230 | 98° | 53km/h | 2382m | -13.5m/s | 7.5°C | 25.6% | 767.5hPa | 2.6V | 02:44:34 | 03:08:01 | 00:00:00 | |
| DF8AY | 2026-09-04 01:02:35 | 52.26102 | 11.87989 | 95° | 57km/h | 2526m | -12.6m/s | 7°C | 44.4% | 754.8hPa | 2.6V | 02:45:25 | 03:07:50 | 00:00:00 | |
| DF8AY | 2026-09-04 01:02:25 | 52.26118 | 11.87752 | 98° | 57km/h | 2644m | -13.7m/s | 6.6°C | 41.2% | 743.7hPa | 2.6V | 02:45:25 | 03:07:40 | 00:00:00 | |
| DF8AY | 2026-09-04 01:02:19 | 52.26143 | 11.87497 | 98° | 60km/h | 2779m | -12.4m/s | 5.1°C | 61.7% | 731.4hPa | 2.5V | 02:45:25 | 03:07:29 | 00:00:00 | |
| DF8AY-15 | 2026-09-04 01:02:15 | 52.26140 | 11.87521 | 99° | 64km/h | 2768m | -12.7m/s | 5.2°C | 53.4% | 732.4hPa | 2.6V | 02:44:00 | 03:07:30 | 00:00:00 | |
| AM1SDL-15 | 2026-09-04 01:02:12 | 52.26147 | 11.87447 | 99° | 62km/h | 2801m | -12.1m/s | 4.9°C | 58.6% | 729.1hPa | 2.6V | 02:44:00 | 03:07:27 | 00:00:00 | |
| DB0DAN | 2026-09-04 01:02:10 | 52.26152 | 11.87397 | 96° | 58km/h | 2824m | -12.3m/s | 5°C | 55% | 727.01hPa | 2.6V | 00:00:00 | 00:00:00 | 00:00:00 | |
| DF8AY | 2026-09-04 01:02:04 | 52.26160 | 11.87245 | 93° | 64km/h | 2895m | -12.7m/s | 5.2°C | 50.3% | 720.8hPa | 2.6V | 02:45:25 | 03:07:19 | 00:00:00 | |
| DF8AY | 2026-09-04 01:01:53 | 52.26162 | 11.86941 | 89° | 68km/h | 3021m | -12.7m/s | 4.4°C | 44.7% | 709.7hPa | 2.6V | 02:45:25 | 03:07:08 | 00:00:00 | |
| DM0DOS-11 | 2026-09-04 01:01:53 | 52.26160 | 11.86802 | 86° | 69km/h | 3080m | -11.7m/s | 4.1°C | 36.7% | 704.6hPa | 2.6V | 02:45:22 | 03:07:03 | 00:00:00 | |
| EDDB2-11 | 2026-09-04 01:01:52 | 52.26162 | 11.86913 | 87° | 66km/h | 3033m | -12.5m/s | 4.4°C | 37.6% | 708.7hPa | 2.5V | 00:00:00 | 00:00:00 | 00:00:00 | |
| DF8AY | 2026-09-04 01:01:44 | 52.26157 | 11.86663 | 88° | 69km/h | 3138m | -12.4m/s | 3.6°C | 41.1% | 699.7hPa | 2.5V | 02:46:16 | 03:06:58 | 00:00:00 | |
| DM0DOS-11 | 2026-09-04 01:01:43 | 52.26155 | 11.86515 | 89° | 71km/h | 3194m | -11.7m/s | 3.2°C | 27.5% | 694.7hPa | 2.6V | 02:45:32 | 03:06:53 | 00:00:00 | |
| DF8AY | 2026-09-04 01:01:33 | 52.26158 | 11.86174 | 91° | 78km/h | 3320m | -12.4m/s | 2.6°C | 39.7% | 683.9hPa | 2.6V | 02:46:16 | 03:06:42 | 00:00:00 | |
| DM0DOS-11 | 2026-09-04 01:01:28 | 52.26162 | 11.86040 | 91° | 82km/h | 3367m | -12.2m/s | 2.1°C | 34.4% | 679.9hPa | 2.5V | 02:45:47 | 03:06:38 | 00:00:00 | |
| S3001 | 2026-09-04 01:01:27 | 52.26158 | 11.86174 | 91° | 77km/h | 3320m | -12.4m/s | 2.6°C | 32.9% | 683.9hPa | 2.6V | 00:00:00 | 00:00:00 | 00:00:00 | |
| SONDE2-11 | 2026-09-04 01:01:25 | 52.26162 | 11.86040 | 91° | 82km/h | 3367m | -12.2m/s | 2.1°C | 34.0% | 679.9hPa | 2.6V | 00:00:00 | 00:00:00 | 00:00:00 | |
| DM0DOS-11 | 2026-09-04 01:01:23 | 52.26168 | 11.85871 | 93° | 86km/h | 3426m | -11.9m/s | 1.8°C | 34.4% | 675hPa | 2.6V | 02:45:52 | 03:06:33 | 00:00:00 | |
| TFSTFS | 2026-09-04 01:01:22 | 52.26162 | 11.86040 | 93° | 82km/h | 3367m | -12.2m/s | 2.1°C | 34.0% | 679.9hPa | 2.6V | 02:46:00 | 00:00:00 | 00:00:00 | |
| EDDB2-11 | 2026-09-04 01:01:21 | 52.26164 | 11.85973 | 91° | 78km/h | 3390m | -12.5m/s | 1.9°C | 34.9% | 677.9hPa | 2.6V | 00:00:00 | 00:00:00 | 00:00:00 | |
| DL2RXE-15 | 2026-09-04 01:01:20 | 52.26164 | 11.85973 | 93° | 78km/h | 3391m | -12.5m/s | 1.9°C | 34.9% | 677.9hPa | 2.6V | 00:00:00 | 00:00:00 | 00:00:00 | |
| DM0DOS-11 | 2026-09-04 01:01:18 | 52.26176 | 11.85697 | 94° | 86km/h | 3484m | -12.5m/s | 1.4°C | 38.3% | 670.3hPa | 2.6V | 02:45:57 | 03:06:28 | 00:00:00 | |
| DF8AY | 2026-09-04 01:01:18 | 52.26170 | 11.85836 | 93° | 84km/h | 3437m | -12.4m/s | 1.8°C | 40.4% | 674.2hPa | 2.6V | 02:46:16 | 03:06:32 | 00:00:00 | |
| AA1-15 | 2026-09-04 01:01:14 | 52.26178 | 11.85661 | 94° | 88km/h | 3496m | -12.4m/s | 1.2°C | 47.1% | 669.3hPa | 2.6V | 02:49:40 | 03:06:27 | 00:00:00 | |
| DM0DOS-11 | 2026-09-04 01:01:13 | 52.26184 | 11.85519 | 94° | 86km/h | 3542m | -12.6m/s | 0.8°C | 41.9% | 665.3hPa | 2.6V | 02:46:02 | 03:06:23 | 00:00:00 | |
| DF8AY | 2026-09-04 01:01:08 | 52.26184 | 11.85519 | 95° | 86km/h | 3543m | -12.6m/s | 0.8°C | 48.8% | 665.3hPa | 2.6V | 02:46:16 | 03:06:23 | 00:00:00 | |
| DM0DOS-11 | 2026-09-04 01:01:03 | 52.26210 | 11.85153 | 98° | 91km/h | 3659m | -11.5m/s | -0.1°C | 49.7% | 655.6hPa | 2.6V | 02:46:12 | 03:06:13 | 00:00:00 | |
| AA1-15 | 2026-09-04 01:01:03 | 52.26195 | 11.85336 | 95° | 86km/h | 3601m | -13m/s | 0.4°C | 49.4% | 660.4hPa | 2.5V | 02:49:40 | 03:06:18 | 00:00:00 | |
| TFSTFS | 2026-09-04 01:01:01 | 52.26197 | 11.85300 | 97° | 88km/h | 3613m | -12.3m/s | 0.3°C | 43.6% | 659.5hPa | 2.6V | 02:46:00 | 00:00:00 | 00:00:00 | |
| TFSTFS | 2026-09-04 01:01:00 | 52.26200 | 11.85264 | 99° | 88km/h | 3624m | -12.4m/s | 0.2°C | 44.2% | 658.4hPa | 2.6V | 02:46:00 | 00:00:00 | 00:00:00 | |
| DM0DOS-11 | 2026-09-04 01:00:58 | 52.26230 | 11.84962 | 99° | 95km/h | 3716m | -12.6m/s | -0.4°C | 53.6% | 650.9hPa | 2.6V | 02:46:17 | 03:06:08 | 00:00:00 | |
| DF8AY | 2026-09-04 01:00:58 | 52.26210 | 11.85154 | 98° | 91km/h | 3659m | -11.5m/s | -0.1°C | 56.4% | 655.6hPa | 2.6V | 02:46:16 | 03:06:13 | 00:00:00 | |
| DF8AY-15 | 2026-09-04 01:00:55 | 52.26222 | 11.85039 | 100° | 97km/h | 3693m | -12.6m/s | -0.1°C | 54.0% | 653.0hPa | 2.6V | 00:00:00 | 03:06:10 | 00:00:00 | |
| DM0DOS-11 | 2026-09-04 01:00:53 | 52.26262 | 11.84732 | 104° | 95km/h | 3788m | -12.4m/s | -0.7°C | 54.4% | 645.1hPa | 2.6V | 02:46:23 | 03:06:02 | 00:00:00 | |
| DF8AY | 2026-09-04 01:00:48 | 52.26262 | 11.84732 | 105° | 95km/h | 3788m | -12.4m/s | -0.7°C | 61.6% | 645.1hPa | 2.6V | 02:47:07 | 03:06:02 | 00:00:00 | |
| AM1SDL-15 | 2026-09-04 01:00:46 | 52.26269 | 11.84694 | 107° | 100km/h | 3799m | -12.3m/s | -0.8°C | 56.0% | 644.1hPa | 2.5V | 00:00:00 | 03:06:01 | 00:00:00 | |
| DM0DOS-11 | 2026-09-04 01:00:42 | 52.26341 | 11.84340 | 109° | 102km/h | 3911m | -12.3m/s | -1.3°C | 92.7% | 635.6hPa | 2.5V | 02:46:33 | 03:05:52 | 00:00:00 | |
| SONCRA | 2026-09-04 01:00:39 | 52.26324 | 11.84419 | 107° | 100km/h | 3885m | -13.5m/s | -1.3°C | 75.9% | 637.5hPa | 2.6V | 00:00:00 | 00:00:00 | 00:00:00 | |
| EDDB2-12 | 2026-09-04 01:00:38 | 52.26332 | 11.84379 | 108° | 100km/h | 3898m | -13.2m/s | -1.3°C | 86.7% | 636.6hPa | 2.6V | 00:00:00 | 00:00:00 | 00:00:00 | |
| DM0DOS-11 | 2026-09-04 01:00:37 | 52.26385 | 11.84139 | 110° | 100km/h | 3970m | -12.7m/s | -1.5°C | 89.5% | 631hPa | 2.6V | 02:46:38 | 03:05:47 | 00:00:00 | |
| DF8AY | 2026-09-04 01:00:37 | 52.26350 | 11.84299 | 110° | 106km/h | 3923m | -11.7m/s | -1.3°C | 100% | 634.6hPa | 2.5V | 02:47:07 | 03:05:51 | 00:00:00 | |
| DF8AY-15 | 2026-09-04 01:00:35 | 52.26359 | 11.84258 | 110° | 99km/h | 3934m | -11.3m/s | -1.3°C | 91.5% | 633.8hPa | 2.6V | 00:00:00 | 03:05:50 | 00:00:00 | |
| AM1SDL-15 | 2026-09-04 01:00:34 | 52.26368 | 11.84218 | 109° | 100km/h | 3945m | -12.2m/s | -1.4°C | 88.9% | 632.7hPa | 2.6V | 00:00:00 | 03:05:49 | 00:00:00 | |
| DM0DOS-11 | 2026-09-04 01:00:32 | 52.26430 | 11.83945 | 110° | 97km/h | 4032m | -13m/s | -2°C | 96.5% | 626.3hPa | 2.6V | 02:46:43 | 03:05:42 | 00:00:00 | |
| DL2RXE-15 | 2026-09-04 01:00:30 | 52.26394 | 11.84100 | 112° | 102km/h | 3983m | -11.4m/s | -1.6°C | 91.3% | 630.1hPa | 2.6V | 00:00:00 | 00:00:00 | 00:00:00 | |
| DM0DOS-11 | 2026-09-04 01:00:27 | 52.26477 | 11.83758 | 111° | 97km/h | 4091m | -12.7m/s | -2.5°C | 99% | 621.6hPa | 2.6V | 02:46:48 | 03:05:37 | 00:00:00 | |
| DF8AY | 2026-09-04 01:00:27 | 52.26439 | 11.83909 | 115° | 99km/h | 4045m | -11.8m/s | -2.1°C | 100% | 625.3hPa | 2.6V | 02:47:07 | 03:05:41 | 00:00:00 | |
| S3001 | 2026-09-04 01:00:25 | 52.26449 | 11.83871 | 112° | 99km/h | 4057m | -11.2m/s | -2.2°C | 96.0% | 624.5hPa | 2.6V | 00:00:00 | 00:00:00 | 00:00:00 | |
| DM0DOS-11 | 2026-09-04 01:00:22 | 52.26533 | 11.83533 | 113° | 97km/h | 4164m | -12.7m/s | -3°C | 0% | 616.1hPa | 2.6V | 02:46:54 | 03:05:31 | 00:00:00 | |
| SONDE2-11 | 2026-09-04 01:00:22 | 52.26486 | 11.83721 | 112° | 99km/h | 4104m | -11.9m/s | -2.6°C | 97.8% | 620.7hPa | 2.5V | 00:00:00 | 00:00:00 | 00:00:00 | |
| EDDB2-11 | 2026-09-04 01:00:20 | 52.26505 | 11.83644 | 111° | 99km/h | 4127m | -12.5m/s | -2.8°C | 98.6% | 618.8hPa | 2.5V | 00:00:00 | 00:00:00 | 00:00:00 | |
| DM0DOS-11 | 2026-09-04 01:00:17 | 52.26584 | 11.83344 | 113° | 104km/h | 4224m | -11m/s | -3.2°C | 94.6% | 611.4hPa | 2.5V | 02:46:59 | 03:05:26 | 00:00:00 | |
| DF8AY | 2026-09-04 01:00:16 | 52.26543 | 11.83496 | 114° | 99km/h | 4177m | -11.9m/s | -3.1°C | 100% | 615.1hPa | 2.6V | 02:47:07 | 03:05:30 | 00:00:00 | |
| DF8AY-15 | 2026-09-04 01:00:15 | 52.26543 | 11.83496 | 115° | 106km/h | 4177m | -11.9m/s | -3.0°C | 0% | 615.1hPa | 2.6V | 02:46:00 | 03:05:30 | 00:00:00 | |
| DM0DOS-11 | 2026-09-04 01:00:11 | 52.26640 | 11.83149 | 114° | 108km/h | 4282m | -11.5m/s | -3.2°C | 89% | 606.7hPa | 2.5V | 02:47:04 | 03:05:21 | 00:00:00 | |
| DF8AY | 2026-09-04 01:00:05 | 52.26652 | 11.83108 | 114° | 106km/h | 4293m | -13m/s | -3.2°C | 95.9% | 605.9hPa | 2.5V | 02:47:07 | 03:05:20 | 00:00:00 | |
| DM0DOS-11 | 2026-09-04 01:00:01 | 52.26759 | 11.82750 | 115° | 106km/h | 4400m | -12.8m/s | -4.1°C | 96.4% | 597.8hPa | 2.6V | 02:47:14 | 03:05:11 | 00:00:00 | |
| AA1-15 | 2026-09-04 00:59:59 | 52.26723 | 11.82870 | 117° | 106km/h | 4365m | -13.1m/s | -3.8°C | 99.8% | 600.4hPa | 2.5V | 02:49:40 | 03:05:14 | 00:00:00 | |
| DF8AY | 2026-09-04 00:59:55 | 52.26783 | 11.82673 | 117° | 108km/h | 4425m | -11.5m/s | -4.3°C | 100% | 596hPa | 2.5V | 02:47:58 | 03:05:09 | 00:00:00 | |
| DL1XH1-15 | 2026-09-04 00:59:55 | 52.26796 | 11.82633 | 116° | 108km/h | 4436m | -11.2m/s | -4.4°C | 99% | 595.1hPa | 2.5V | 02:47:17 | 03:05:08 | 00:00:00 | |
| S3001 | 2026-09-04 00:59:54 | 52.26783 | 11.82673 | 117° | 108km/h | 4425m | -11.5m/s | -4.3°C | 96.1% | 596.0hPa | 2.6V | 00:00:00 | 00:00:00 | 00:00:00 | |
| DF7ER-10 | 2026-09-04 00:59:53 | 52.26783 | 11.82673 | 118° | 108km/h | 4425m | -11.5m/s | -4.3°C | 96.1% | 596.0hPa | 2.6V | 02:47:00 | 00:00:00 | 00:00:00 | |
| DM0DOS-11 | 2026-09-04 00:59:51 | 52.26896 | 11.82323 | 116° | 108km/h | 4530m | -11.8m/s | -4.9°C | 91.2% | 588.1hPa | 2.6V | 02:47:25 | 03:05:00 | 00:00:00 | |
| SONDE2-11 | 2026-09-04 00:59:51 | 52.26833 | 11.82517 | 117° | 108km/h | 4471m | -11.8m/s | -4.7°C | 97.0% | 592.5hPa | 2.5V | 00:00:00 | 00:00:00 | 00:00:00 | |
| DM0DOS-11 | 2026-09-04 00:59:46 | 52.26947 | 11.82170 | 117° | 106km/h | 4580m | -11.3m/s | -5.2°C | 87.7% | 584.6hPa | 2.5V | 02:47:29 | 03:04:56 | 00:00:00 | |
| DL1XH1-15 | 2026-09-04 00:59:45 | 52.26921 | 11.82246 | 119° | 104km/h | 4554m | -13.6m/s | -5.1°C | 88% | 586.3hPa | 2.6V | 02:47:27 | 03:04:58 | 00:00:00 | |
| DL1XH-west | 2026-09-04 00:59:45 | 52.26896 | 11.82323 | 117° | 108km/h | 4530m | -11.8m/s | -4.9°C | 96.5% | 588.1hPa | 2.6V | 02:47:58 | 03:05:00 | 00:00:00 | |
| DF8AY | 2026-09-04 00:59:44 | 52.26909 | 11.82284 | 117° | 104km/h | 4542m | -13.1m/s | -5°C | 95.5% | 587.1hPa | 2.6V | 02:47:58 | 03:04:59 | 00:00:00 | |
| DL1XH1-15 | 2026-09-04 00:59:40 | 52.27022 | 11.81941 | 119° | 102km/h | 4650m | -12.1m/s | -5.5°C | 81.2% | 579.3hPa | 2.5V | 02:47:35 | 03:04:50 | 00:00:00 | |
| DM0DOS-11 | 2026-09-04 00:59:40 | 52.27009 | 11.81978 | 117° | 104km/h | 4638m | -12.4m/s | -5.5°C | 81.4% | 580.1hPa | 2.5V | 02:47:34 | 03:04:51 | 00:00:00 | |
| SONCRA | 2026-09-04 00:59:37 | 52.26996 | 11.82017 | 117° | 106km/h | 4627m | -11.6m/s | -5.4°C | 80.2% | 581.0hPa | 2.5V | 00:00:00 | 00:00:00 | 00:00:00 | |
| EDDB2-12 | 2026-09-04 00:59:36 | 52.27009 | 11.81978 | 117° | 104km/h | 4638m | -12.4m/s | -5.5°C | 79.5% | 580.1hPa | 2.5V | 00:00:00 | 00:00:00 | 00:00:00 | |
| DM0DOS-11 | 2026-09-04 00:59:35 | 52.27086 | 11.81752 | 119° | 108km/h | 4709m | -11.6m/s | -5.8°C | 81% | 575hPa | 2.5V | 02:47:40 | 03:04:45 | 00:00:00 | |
| DL1XH-west | 2026-09-04 00:59:35 | 52.27022 | 11.81941 | 119° | 102km/h | 4650m | -12.1m/s | -5.5°C | 87% | 579.3hPa | 2.5V | 02:47:58 | 03:04:50 | 00:00:00 | |
| DF8AY | 2026-09-04 00:59:34 | 52.27035 | 11.81904 | 119° | 106km/h | 4662m | -11.3m/s | -5.5°C | 86.1% | 578.4hPa | 2.6V | 02:47:58 | 03:04:49 | 00:00:00 | |
| AA1-15 | 2026-09-04 00:59:32 | 52.27060 | 11.81827 | 118° | 104km/h | 4684m | -12.7m/s | -5.6°C | 86.9% | 576.7hPa | 2.6V | 02:49:40 | 03:04:47 | 00:00:00 | |
| AM1SDL-15 | 2026-09-04 00:59:32 | 52.27060 | 11.81827 | 119° | 108km/h | 4684m | -12.6m/s | -5.6°C | 80.8% | 576.7hPa | 2.6V | 00:00:00 | 03:04:47 | 00:00:00 | |
| DM0DOS-11 | 2026-09-04 00:59:30 | 52.27152 | 11.81556 | 118° | 111km/h | 4767m | -11.1m/s | -6.2°C | 75.3% | 570.8hPa | 2.6V | 02:47:45 | 03:04:40 | 00:00:00 | |
| DL1XH1-15 | 2026-09-04 00:59:25 | 52.27220 | 11.81357 | 118° | 113km/h | 4825m | -11.6m/s | -6.6°C | 73.9% | 566.4hPa | 2.6V | 02:47:50 | 03:04:35 | 00:00:00 | |
| DL1XH-west | 2026-09-04 00:59:24 | 52.27166 | 11.81516 | 119° | 108km/h | 4778m | -12.2m/s | -6.2°C | 77.7% | 569.9hPa | 2.5V | 02:47:58 | 03:04:39 | 00:00:00 | |
| DF8AY | 2026-09-04 00:59:23 | 52.27192 | 11.81438 | 120° | 110km/h | 4802m | -11.4m/s | -6.4°C | 78.2% | 568.1hPa | 2.6V | 02:47:58 | 03:04:37 | 00:00:00 | |
| AM1SDL-15 | 2026-09-04 00:59:20 | 52.27219 | 11.81357 | 119° | 113km/h | 4825m | -11.5m/s | -6.6°C | 73.9% | 566.4hPa | 2.6V | 00:00:00 | 03:04:35 | 00:00:00 | |
| TFSTFS | 2026-09-04 00:59:19 | 52.27220 | 11.81357 | 120° | 113km/h | 4825m | -11.6m/s | -6.6°C | 72.1% | 566.4hPa | 2.6V | 02:47:00 | 00:00:00 | 00:00:00 | |
| EDDB2-11 | 2026-09-04 00:59:18 | 52.27262 | 11.81236 | 119° | 115km/h | 4859m | -11.1m/s | -6.9°C | 71.1% | 563.9hPa | 2.6V | 00:00:00 | 00:00:00 | 00:00:00 | |
| DF8AY-15 | 2026-09-04 00:59:15 | 52.27290 | 11.81154 | 119° | 113km/h | 4881m | -12.9m/s | -7.0°C | 72.8% | 562.2hPa | 2.6V | 02:47:00 | 03:04:30 | 00:00:00 | |
| DL1XH1-15 | 2026-09-04 00:59:14 | 52.27345 | 11.80988 | 119° | 111km/h | 4930m | -13.3m/s | -7.5°C | 75.7% | 558.8hPa | 2.6V | 02:47:59 | 03:04:26 | 00:00:00 | |
| DL1XH-west | 2026-09-04 00:59:14 | 52.27331 | 11.81029 | 117° | 113km/h | 4918m | -12.6m/s | -7.4°C | 78.9% | 559.8hPa | 2.5V | 02:47:58 | 03:04:27 | 00:00:00 | |
| AA1-15 | 2026-09-04 00:59:13 | 52.27317 | 11.81071 | 119° | 115km/h | 4907m | -11.3m/s | -7.3°C | 78.6% | 560.4hPa | 2.5V | 02:49:40 | 03:04:28 | 00:00:00 | |
| DL1XH1-15 | 2026-09-04 00:59:09 | 52.27413 | 11.80779 | 118° | 115km/h | 4990m | -11.1m/s | -7.7°C | 71% | 554.6hPa | 2.6V | 02:48:04 | 03:04:21 | 00:00:00 | |
| DL1XH-west | 2026-09-04 00:59:03 | 52.27452 | 11.80653 | 117° | 110km/h | 5024m | -12.7m/s | -7.8°C | 75.8% | 552.1hPa | 2.6V | 02:48:49 | 03:04:18 | 00:00:00 | |
| DO2SHX-10 | 2026-09-04 00:59:01 | 52.27478 | 11.80570 | 117° | 113km/h | 5048m | -10.7m/s | -7.7°C | 71.5% | 550.5hPa | 2.5V | 02:48:00 | 03:04:16 | 00:00:00 | |
| DM0DOS-11 | 2026-09-04 00:59:00 | 52.27528 | 11.80402 | 115° | 115km/h | 5092m | -11m/s | -7.8°C | 71.5% | 547.4hPa | 2.5V | 02:48:13 | 03:04:12 | 00:00:00 | |
| DL1XH1-15 | 2026-09-04 00:58:59 | 52.27516 | 11.80445 | 116° | 113km/h | 5081m | -10.7m/s | -7.7°C | 71.4% | 548.1hPa | 2.6V | 02:48:12 | 03:04:13 | 00:00:00 | |
| AA1-15 | 2026-09-04 00:58:56 | 52.27541 | 11.80360 | 115° | 111km/h | 5103m | -12.1m/s | -7.9°C | 77.4% | 546.5hPa | 2.5V | 02:49:40 | 03:04:11 | 00:00:00 | |
| DL1XH-west | 2026-09-04 00:58:53 | 52.27579 | 11.80235 | 115° | 113km/h | 5138m | -11.7m/s | -8°C | 81.4% | 544hPa | 2.6V | 02:48:49 | 03:04:08 | 00:00:00 | |
| DF8AY | 2026-09-04 00:58:51 | 52.27603 | 11.80152 | 116° | 111km/h | 5162m | -11.1m/s | -8.1°C | 80.6% | 542.5hPa | 2.6V | 02:48:49 | 03:04:06 | 00:00:00 | |
| AA1-15 | 2026-09-04 00:58:45 | 52.27674 | 11.79895 | 113° | 111km/h | 5229m | -12.5m/s | -8.5°C | 74.1% | 537.7hPa | 2.6V | 02:49:40 | 03:04:00 | 00:00:00 | |
| DL1XH-west | 2026-09-04 00:58:43 | 52.27697 | 11.79812 | 114° | 113km/h | 5253m | -10.9m/s | -8.7°C | 74.7% | 536.2hPa | 2.6V | 02:48:49 | 03:03:58 | 00:00:00 | |
| DF8AY | 2026-09-04 00:58:41 | 52.27824 | 11.79306 | 110° | 110km/h | 5390m | -11.5m/s | -9.4°C | 70.9% | 526.6hPa | 2.6V | 02:48:49 | 03:03:46 | 00:00:00 | |
| DB0DAN | 2026-09-04 00:58:40 | 52.27730 | 11.79684 | 113° | 106km/h | 5288m | -12.1m/s | -8.9°C | 74.6% | 533.69hPa | 2.5V | 00:00:00 | 00:00:00 | 00:00:00 | |
| DM0DOS-11 | 2026-09-04 00:58:40 | 52.27763 | 11.79556 | 112° | 108km/h | 5322m | -12.1m/s | -9.1°C | 75.8% | 531.4hPa | 2.6V | 02:48:33 | 03:03:52 | 00:00:00 | |
| AA1-15 | 2026-09-04 00:58:35 | 52.27785 | 11.79474 | 112° | 111km/h | 5345m | -10.8m/s | -9.1°C | 76.8% | 529.8hPa | 2.5V | 02:49:40 | 03:03:50 | 00:00:00 | |
| DF8AY | 2026-09-04 00:58:34 | 52.27844 | 11.79223 | 111° | 108km/h | 5413m | -11.8m/s | -9.4°C | 67.6% | 525.2hPa | 2.5V | 02:48:49 | 03:03:44 | 00:00:00 | |
| DL1XH-west | 2026-09-04 00:58:32 | 52.27814 | 11.79348 | 112° | 110km/h | 5379m | -10.9m/s | -9.3°C | 71.5% | 527.5hPa | 2.6V | 02:48:49 | 03:03:47 | 00:00:00 | |
| AA1-15 | 2026-09-04 00:58:25 | 52.27882 | 11.79058 | 111° | 108km/h | 5460m | -11.5m/s | -9.8°C | 70.6% | 521.9hPa | 2.6V | 02:49:40 | 03:03:40 | 00:00:00 | |
| DL1XH-west | 2026-09-04 00:58:22 | 52.27910 | 11.78933 | 110° | 104km/h | 5495m | -12.9m/s | -10.2°C | 72.5% | 519.5hPa | 2.5V | 02:48:49 | 03:03:37 | 00:00:00 | |
| AM1SDL-15 | 2026-09-04 00:58:20 | 52.27928 | 11.78850 | 109° | 106km/h | 5519m | -13.0m/s | -10.4°C | 69.8% | 517.9hPa | 2.6V | 00:00:00 | 03:03:35 | 00:00:00 | |
| DL1XH1-15 | 2026-09-04 00:58:19 | 52.27946 | 11.78769 | 110° | 104km/h | 5545m | -11.3m/s | -10.7°C | 70.8% | 516.3hPa | 2.6V | 02:48:52 | 03:03:33 | 00:00:00 | |
| DF8AY | 2026-09-04 00:58:17 | 52.27955 | 11.78727 | 110° | 108km/h | 5556m | -11.2m/s | -10.8°C | 74.3% | 515.6hPa | 2.5V | 02:49:40 | 03:03:32 | 00:00:00 | |
| DL1XH-west | 2026-09-04 00:58:12 | 52.27999 | 11.78519 | 108° | 104km/h | 5614m | -12.5m/s | -11.3°C | 77.1% | 511.7hPa | 2.5V | 02:49:40 | 03:03:27 | 00:00:00 | |
| DF8AY | 2026-09-04 00:58:12 | 52.28065 | 11.78193 | 107° | 100km/h | 5710m | -13.7m/s | -11.5°C | 86.4% | 505.4hPa | 2.6V | 02:49:40 | 03:03:19 | 00:00:00 | |
| AA1-15 | 2026-09-04 00:58:11 | 52.28007 | 11.78478 | 109° | 102km/h | 5626m | -11.9m/s | -11.4°C | 77.5% | 510.9hPa | 2.5V | 02:49:40 | 03:03:26 | 00:00:00 | |
| DM0DOS-11 | 2026-09-04 00:58:10 | 52.28041 | 11.78314 | 109° | 102km/h | 5673m | -12.3m/s | -11.9°C | 78.1% | 507.8hPa | 2.5V | 02:49:03 | 03:03:22 | 00:00:00 | |
| DL1XH1-15 | 2026-09-04 00:58:09 | 52.28033 | 11.78354 | 107° | 104km/h | 5660m | -12.9m/s | -11.8°C | 77.6% | 508.6hPa | 2.6V | 02:49:02 | 03:03:23 | 00:00:00 | |
| AA1-15 | 2026-09-04 00:58:01 | 52.28090 | 11.78076 | 109° | 100km/h | 5750m | -12.6m/s | -11.4°C | 90% | 502.8hPa | 2.5V | 02:49:40 | 03:03:16 | 00:00:00 | |
| DM0DOS-11 | 2026-09-04 00:58:00 | 52.28122 | 11.77923 | 109° | 99km/h | 5802m | -12.7m/s | -11.7°C | 89.4% | 499.5hPa | 2.5V | 02:49:13 | 03:03:12 | 00:00:00 | |
| DL1XH-15 | 2026-09-04 00:57:58 | 52.28154 | 11.77774 | 110° | 93km/h | 5854m | -12.4m/s | -11.9°C | 90.6% | 496.1hPa | 2.6V | 02:49:17 | 03:03:08 | 00:00:00 | |
| DF2AP-13 | 2026-09-04 00:57:58 | 52.28114 | 11.77961 | 110° | 93km/h | 5788m | -13.2m/s | -11.6°C | 88.7% | 500.2hPa | 2.6V | 00:00:00 | 03:03:13 | 00:00:00 | |
| TFSTFS | 2026-09-04 00:57:56 | 52.28122 | 11.77923 | 111° | 99km/h | 5802m | -12.7m/s | -11.7°C | 86.5% | 499.5hPa | 2.6V | 02:49:00 | 00:00:00 | 00:00:00 | |
| DB0DAN | 2026-09-04 00:57:55 | 52.28139 | 11.77847 | 108° | 91km/h | 5827m | -13.7m/s | -11.8°C | 86.7% | 497.77hPa | 2.6V | 00:00:00 | 00:00:00 | 00:00:00 | |
| DF8AY | 2026-09-04 00:57:54 | 52.28185 | 11.77628 | 109° | 89km/h | 5905m | -12.5m/s | -11.6°C | 96.1% | 492.8hPa | 2.6V | 02:49:40 | 03:03:04 | 00:00:00 | |
| DM0DOS-11 | 2026-09-04 00:57:50 | 52.28201 | 11.77555 | 107° | 95km/h | 5930m | -12.2m/s | -11.7°C | 93.5% | 491.1hPa | 2.5V | 02:49:23 | 03:03:02 | 00:00:00 | |
| DL1XH-west | 2026-09-04 00:57:50 | 52.28178 | 11.77663 | 108° | 93km/h | 5891m | -13m/s | -11.5°C | 95.9% | 493.7hPa | 2.6V | 02:49:40 | 03:03:05 | 00:00:00 | |
| DL1XH-15 | 2026-09-04 00:57:48 | 52.28230 | 11.77409 | 107° | 95km/h | 5982m | -12.8m/s | -12°C | 93.4% | 487.9hPa | 2.6V | 02:49:27 | 03:02:58 | 00:00:00 | |
| AA1-15 | 2026-09-04 00:57:47 | 52.28200 | 11.77555 | 108° | 95km/h | 5930m | -12.2m/s | -11.7°C | 96.3% | 491.1hPa | 2.5V | 02:49:40 | 03:03:02 | 00:00:00 | |
| SONDE2-11 | 2026-09-04 00:57:46 | 52.28208 | 11.77518 | 107° | 91km/h | 5942m | -13.4m/s | -11.8°C | 90.5% | 490.4hPa | 2.5V | 00:00:00 | 00:00:00 | 00:00:00 | |
| EDDB2-11 | 2026-09-04 00:57:44 | 52.28222 | 11.77446 | 109° | 89km/h | 5969m | -12.5m/s | -12.0°C | 90.4% | 488.8hPa | 2.5V | 00:00:00 | 00:00:00 | 00:00:00 | |
| DF8AY | 2026-09-04 00:57:42 | 52.28237 | 11.77372 | 107° | 93km/h | 5994m | -13.3m/s | -12.1°C | 96% | 487hPa | 2.5V | 02:49:40 | 03:02:57 | 00:00:00 | |
| DO2SHX-10 | 2026-09-04 00:57:42 | 52.28236 | 11.77372 | 107° | 93km/h | 5994m | -13.3m/s | -12.1°C | 93.4% | 487.0hPa | 2.6V | 00:00:00 | 03:02:57 | 00:00:00 | |
| DB0DAN | 2026-09-04 00:57:40 | 52.28251 | 11.77299 | 108° | 91km/h | 6021m | -13.4m/s | -12.3°C | 89.6% | 485.36hPa | 2.6V | 00:00:00 | 00:00:00 | 00:00:00 | |
| DL1XH1-15 | 2026-09-04 00:57:39 | 52.28265 | 11.77224 | 106° | 93km/h | 6047m | -14.4m/s | -12.4°C | 92.5% | 483.7hPa | 2.6V | 02:49:32 | 03:02:53 | 00:00:00 | |
| DL1XH-west | 2026-09-04 00:57:39 | 52.28258 | 11.77262 | 107° | 95km/h | 6034m | -13.6m/s | -12.4°C | 95% | 484.5hPa | 2.6V | 02:49:40 | 03:02:54 | 00:00:00 | |
| AA1-15 | 2026-09-04 00:57:36 | 52.28279 | 11.77151 | 107° | 93km/h | 6074m | -13.6m/s | -12.6°C | 95.1% | 481.9hPa | 2.5V | 02:49:40 | 03:02:51 | 00:00:00 | |
| DF8AY | 2026-09-04 00:57:32 | 52.28309 | 11.77003 | 107° | 95km/h | 6131m | -14.9m/s | -12.9°C | 95.9% | 478.4hPa | 2.6V | 02:49:40 | 03:02:47 | 00:00:00 | |
| EDDB2-12 | 2026-09-04 00:57:32 | 52.28309 | 11.77003 | 107° | 95km/h | 6131m | -14.9m/s | -12.9°C | 90.0% | 478.4hPa | 2.6V | 00:00:00 | 00:00:00 | 00:00:00 | |
| DL1XH1-15 | 2026-09-04 00:57:29 | 52.28338 | 11.76854 | 106° | 95km/h | 6191m | -15.3m/s | -13.3°C | 92.8% | 474.6hPa | 2.6V | 02:49:42 | 03:02:43 | 00:00:00 | |
| DL2RXE-15 | 2026-09-04 00:57:29 | 52.28331 | 11.76891 | 109° | 93km/h | 6176m | -15.9m/s | -13.2°C | 89.7% | 475.6hPa | 2.6V | 02:50:00 | 00:00:00 | 00:00:00 | |
| DM0DOS-11 | 2026-09-04 00:57:28 | 52.28345 | 11.76816 | 107° | 93km/h | 6206m | -15.9m/s | -13.4°C | 92.6% | 473.6hPa | 2.6V | 02:49:43 | 03:02:42 | 00:00:00 | |
| DL1XH-west | 2026-09-04 00:57:28 | 52.28338 | 11.76854 | 107° | 95km/h | 6191m | -15.3m/s | -13.3°C | 95.2% | 474.6hPa | 2.6V | 02:50:31 | 03:02:43 | 00:00:00 | |
| DF2AP-13 | 2026-09-04 00:57:28 | 52.28338 | 11.76854 | 107° | 102km/h | 6191m | -15.3m/s | -13.3°C | 92.8% | 474.5hPa | 2.6V | 00:00:00 | 03:02:43 | 00:00:00 | |
| DF7ER-10 | 2026-09-04 00:57:27 | 52.28338 | 11.76854 | 108° | 95km/h | 6191m | -15.3m/s | -13.3°C | 89.5% | 474.6hPa | 2.6V | 02:50:00 | 00:00:00 | 00:00:00 | |
| DB0DAN | 2026-09-04 00:57:25 | 52.28359 | 11.76741 | 107° | 89km/h | 6237m | -15.3m/s | -13.6°C | 89.4% | 471.84hPa | 2.6V | 00:00:00 | 00:00:00 | 00:00:00 | |
| AA1-15 | 2026-09-04 00:57:25 | 52.28359 | 11.76741 | 107° | 93km/h | 6237m | -15.3m/s | -13.6°C | 94.9% | 471.8hPa | 2.6V | 02:50:31 | 03:02:40 | 00:00:00 | |
| DO2SHX-10 | 2026-09-04 00:57:23 | 52.28374 | 11.76667 | 109° | 95km/h | 6268m | -15.2m/s | -13.7°C | 92.3% | 469.9hPa | 2.5V | 02:49:00 | 03:02:38 | 00:00:00 | |
| DM0DOS-11 | 2026-09-04 00:57:22 | 52.28423 | 11.76445 | 108° | 100km/h | 6356m | -14.3m/s | -14.2°C | 91.5% | 464.6hPa | 2.5V | 02:49:53 | 03:02:32 | 00:00:00 | |
| DF8AY | 2026-09-04 00:57:21 | 52.28390 | 11.76593 | 110° | 93km/h | 6297m | -15.7m/s | -13.9°C | 93.6% | 468.2hPa | 2.6V | 02:50:31 | 03:02:36 | 00:00:00 | |
| AM1SDL-15 | 2026-09-04 00:57:20 | 52.28398 | 11.76556 | 110° | 99km/h | 6313m | -15.4m/s | -13.9°C | 91.8% | 467.2hPa | 2.6V | 02:49:00 | 03:02:35 | 00:00:00 | |
| DL1XH1-15 | 2026-09-04 00:57:19 | 52.28414 | 11.76483 | 111° | 97km/h | 6342m | -14.1m/s | -14.1°C | 91.5% | 465.4hPa | 2.6V | 02:49:52 | 03:02:33 | 00:00:00 | |
| DL1XH-west | 2026-09-04 00:57:17 | 52.28423 | 11.76445 | 109° | 100km/h | 6356m | -14.3m/s | -14.2°C | 93.1% | 464.6hPa | 2.5V | 02:50:31 | 03:02:32 | 00:00:00 | |
| AA1-15 | 2026-09-04 00:57:15 | 52.28447 | 11.76328 | 110° | 100km/h | 6400m | -14.5m/s | -14.5°C | 92.5% | 461.8hPa | 2.6V | 02:50:31 | 03:02:29 | 00:00:00 | |
| DF8AY | 2026-09-04 00:57:10 | 52.28527 | 11.75957 | 110° | 106km/h | 6525m | -15.5m/s | -14.8°C | 95.3% | 454.1hPa | 2.6V | 02:50:31 | 03:02:20 | 00:00:00 | |
| DM0DOS-11 | 2026-09-04 00:57:10 | 52.28509 | 11.76042 | 108° | 110km/h | 6497m | -14.7m/s | -14.7°C | 91.9% | 455.7hPa | 2.6V | 02:50:03 | 03:02:22 | 00:00:00 | |
| DL1XH1-15 | 2026-09-04 00:57:09 | 52.28500 | 11.76085 | 108° | 110km/h | 6483m | -14.2m/s | -14.7°C | 91.8% | 456.5hPa | 2.5V | 02:50:02 | 03:02:23 | 00:00:00 | |
| DL1XH-west | 2026-09-04 00:57:07 | 52.28509 | 11.76042 | 109° | 110km/h | 6497m | -14.7m/s | -14.7°C | 94.8% | 455.7hPa | 2.6V | 02:50:31 | 03:02:22 | 00:00:00 | |
| AA1-15 | 2026-09-04 00:57:04 | 52.28536 | 11.75915 | 109° | 108km/h | 6540m | -15m/s | -14.9°C | 94.6% | 453.2hPa | 2.5V | 02:50:31 | 03:02:19 | 00:00:00 | |
| DL1XH1-15 | 2026-09-04 00:57:04 | 52.28592 | 11.75657 | 108° | 111km/h | 6612m | -11m/s | -15.3°C | 92.3% | 448.7hPa | 2.5V | 02:50:12 | 03:02:13 | 00:00:00 | |
| DL1XH-15 | 2026-09-04 00:57:03 | 52.28572 | 11.75744 | 109° | 111km/h | 6592m | -11.1m/s | -15.2°C | 92% | 450hPa | 2.6V | 02:50:10 | 03:02:15 | 00:00:00 | |
| SONCRA | 2026-09-04 00:57:02 | 52.28563 | 11.75787 | 109° | 110km/h | 6580m | -12.2m/s | -15.1°C | 88.0% | 450.6hPa | 2.6V | 00:00:00 | 00:00:00 | 00:00:00 | |
| EDDB2-12 | 2026-09-04 00:57:01 | 52.28573 | 11.75744 | 109° | 111km/h | 6592m | -11.1m/s | -15.2°C | 88.4% | 450.0hPa | 2.6V | 00:00:00 | 00:00:00 | 00:00:00 | |
| DM0DOS-11 | 2026-09-04 00:57:00 | 52.28601 | 11.75613 | 108° | 111km/h | 6623m | -11.7m/s | -15.3°C | 92.3% | 448.1hPa | 2.6V | 02:50:13 | 03:02:12 | 00:00:00 | |
| DF8AY | 2026-09-04 00:56:57 | 52.28601 | 11.75613 | 109° | 111km/h | 6623m | -11.7m/s | -15.4°C | 93.9% | 448.1hPa | 2.6V | 02:50:31 | 03:02:12 | 00:00:00 | |
| DL1XH-west | 2026-09-04 00:56:56 | 52.28610 | 11.75571 | 110° | 110km/h | 6634m | -11.2m/s | -15.4°C | 94.1% | 447.4hPa | 2.6V | 02:50:31 | 03:02:11 | 00:00:00 | |
| DF7ER-10 | 2026-09-04 00:56:56 | 52.28610 | 11.75571 | 111° | 110km/h | 6635m | -11.2m/s | -15.4°C | 88.8% | 447.4hPa | 2.6V | 02:50:00 | 00:00:00 | 00:00:00 | |
| DF8AY-15 | 2026-09-04 00:56:55 | 52.28620 | 11.75527 | 110° | 113km/h | 6646m | -11.5m/s | -15.5°C | 92.3% | 446.7hPa | 2.6V | 00:00:00 | 03:02:10 | 00:00:00 | |
| TFSTFS | 2026-09-04 00:56:53 | 52.28630 | 11.75483 | 110° | 115km/h | 6658m | -11.8m/s | -15.6°C | 88.1% | 446.2hPa | 2.6V | 02:50:00 | 00:00:00 | 00:00:00 | |
| DL1XH1-15 | 2026-09-04 00:56:52 | 52.28686 | 11.75217 | 109° | 113km/h | 6721m | -10.9m/s | -16°C | 92.2% | 442.3hPa | 2.6V | 02:50:22 | 03:02:03 | 00:00:00 | |
| DL1XH-15 | 2026-09-04 00:56:52 | 52.28667 | 11.75305 | 108° | 113km/h | 6699m | -11.7m/s | -15.8°C | 92% | 443.6hPa | 2.6V | 02:50:20 | 03:02:05 | 00:00:00 | |
| TFSTFS | 2026-09-04 00:56:51 | 52.28648 | 11.75393 | 109° | 111km/h | 6678m | -11.2m/s | -15.7°C | 88.4% | 444.8hPa | 2.5V | 02:50:00 | 00:00:00 | 00:00:00 | |
| DM0DOS-11 | 2026-09-04 00:56:50 | 52.28695 | 11.75173 | 108° | 113km/h | 6732m | -11.3m/s | -16.1°C | 92.1% | 441.6hPa | 2.5V | 02:50:23 | 03:02:02 | 00:00:00 | |
| DL1XH-west | 2026-09-04 00:56:46 | 52.28704 | 11.75129 | 107° | 110km/h | 6743m | -11.1m/s | -16.1°C | 92.6% | 441hPa | 2.5V | 02:50:31 | 03:02:01 | 00:00:00 | |
| SONDE2-11 | 2026-09-04 00:56:44 | 52.28723 | 11.75040 | 109° | 110km/h | 6766m | -13.8m/s | -16.2°C | 88.0% | 439.8hPa | 2.6V | 00:00:00 | 00:00:00 | 00:00:00 | |
| DL2RXE-15 | 2026-09-04 00:56:42 | 52.28743 | 11.74953 | 111° | 117km/h | 6791m | -12.4m/s | -16.4°C | 87.6% | 438.2hPa | 2.6V | 02:50:00 | 00:00:00 | 00:00:00 | |
| DM0DOS-11 | 2026-09-04 00:56:40 | 52.28792 | 11.74732 | 110° | 111km/h | 6855m | -13.8m/s | -16.8°C | 91% | 434.5hPa | 2.6V | 02:50:33 | 03:01:52 | 00:00:00 | |
| DL1XH1-15 | 2026-09-04 00:56:39 | 52.28782 | 11.74775 | 109° | 113km/h | 6842m | -13.8m/s | -16.7°C | 90.8% | 435.3hPa | 2.5V | 02:50:32 | 03:01:53 | 00:00:00 | |
| AA1-15 | 2026-09-04 00:56:36 | 52.28802 | 11.74689 | 111° | 111km/h | 6868m | -12.5m/s | -16.9°C | 92.4% | 433.7hPa | 2.6V | 02:52:13 | 03:01:51 | 00:00:00 | |
| DL1XH-west | 2026-09-04 00:56:35 | 52.28812 | 11.74645 | 110° | 115km/h | 6880m | -12.1m/s | -17°C | 92.8% | 433.1hPa | 2.6V | 02:51:22 | 03:01:50 | 00:00:00 | |
| DL1XH1-15 | 2026-09-04 00:56:33 | 52.28884 | 11.74333 | 111° | 115km/h | 6959m | -9.4m/s | -17.4°C | 92.5% | 428.5hPa | 2.5V | 02:50:42 | 03:01:43 | 00:00:00 | |
| TFSTFS | 2026-09-04 00:56:32 | 52.28842 | 11.74512 | 112° | 117km/h | 6918m | -13.8m/s | -17.2°C | 87.4% | 431.1hPa | 2.5V | 02:51:00 | 00:00:00 | 00:00:00 | |
| SONCRA | 2026-09-04 00:56:31 | 52.28863 | 11.74422 | 110° | 113km/h | 6938m | -9.3m/s | -17.3°C | 88.7% | 429.6hPa | 2.5V | 00:00:00 | 00:00:00 | 00:00:00 | |
| DM0DOS-11 | 2026-09-04 00:56:30 | 52.28894 | 11.74289 | 110° | 115km/h | 6969m | -9.2m/s | -17.5°C | 92.5% | 427.8hPa | 2.5V | 02:50:43 | 03:01:42 | 00:00:00 | |
| DF8AY | 2026-09-04 00:56:26 | 52.28905 | 11.74245 | 112° | 115km/h | 6977m | -9.4m/s | -17.6°C | 92.7% | 427.4hPa | 2.6V | 02:52:13 | 03:01:41 | 00:00:00 | |
| AA1-15 | 2026-09-04 00:56:26 | 52.28915 | 11.74201 | 110° | 115km/h | 6986m | -8.6m/s | -17.7°C | 93% | 426.7hPa | 2.6V | 02:52:13 | 03:01:40 | 00:00:00 | |
| DL1XH-west | 2026-09-04 00:56:24 | 52.28926 | 11.74156 | 111° | 115km/h | 6995m | -11.7m/s | -17.7°C | 93.2% | 426.3hPa | 2.6V | 02:51:22 | 03:01:39 | 00:00:00 | |
| DJ2DS-15 | 2026-09-04 00:56:24 | 52.28936 | 11.74111 | 110° | 115km/h | 7005m | -9.9m/s | -17.8°C | 88.5% | 425.6hPa | 2.5V | 00:00:00 | 00:00:00 | 00:00:00 | |
| DO2SHX-10 | 2026-09-04 00:56:22 | 52.28947 | 11.74067 | 112° | 115km/h | 7016m | -9.5m/s | -17.8°C | 92.5% | 425.1hPa | 2.5V | 02:50:00 | 03:01:37 | 00:00:00 | |
| DM0DOS-11 | 2026-09-04 00:56:20 | 52.28998 | 11.73846 | 110° | 115km/h | 7065m | -8.3m/s | -18.3°C | 91.5% | 422.4hPa | 2.5V | 02:50:53 | 03:01:32 | 00:00:00 | |
| DF8AY | 2026-09-04 00:56:16 | 52.29009 | 11.73801 | 111° | 117km/h | 7073m | -8.3m/s | -18.3°C | 89.6% | 421.9hPa | 2.5V | 02:52:13 | 03:01:31 | 00:00:00 | |
| AA1-15 | 2026-09-04 00:56:14 | 52.29029 | 11.73712 | 110° | 117km/h | 7087m | -8.3m/s | -18.4°C | 91.2% | 420.9hPa | 2.6V | 02:52:13 | 03:01:29 | 00:00:00 | |
| DL1XH-west | 2026-09-04 00:56:13 | 52.29039 | 11.73667 | 110° | 115km/h | 7097m | -13.5m/s | -18.5°C | 91.1% | 420.5hPa | 2.6V | 02:51:22 | 03:01:28 | 00:00:00 | |
| DL1XH-15 | 2026-09-04 00:56:13 | 52.29071 | 11.73533 | 111° | 113km/h | 7128m | -12.2m/s | -18.7°C | 91.5% | 418.8hPa | 2.6V | 02:51:00 | 03:01:25 | 00:00:00 | |
| DO2SHX-10 | 2026-09-04 00:56:13 | 52.29039 | 11.73667 | 111° | 117km/h | 7097m | -13.4m/s | -18.4°C | 91.5% | 420.5hPa | 2.6V | 02:50:00 | 03:01:28 | 00:00:00 | |
| DF7ER-10 | 2026-09-04 00:56:12 | 52.29039 | 11.73667 | 111° | 117km/h | 7097m | -13.5m/s | -18.5°C | 87.3% | 420.5hPa | 2.6V | 02:51:00 | 00:00:00 | 00:00:00 | |
| EDDB2-11 | 2026-09-04 00:56:11 | 52.29071 | 11.73533 | 111° | 113km/h | 7128m | -12.2m/s | -18.7°C | 87.2% | 418.8hPa | 2.6V | 00:00:00 | 00:00:00 | 00:00:00 | |
| DO2SHX-10 | 2026-09-04 00:56:10 | 52.29071 | 11.73532 | 112° | 115km/h | 7128m | -12.1m/s | -18.7°C | 91.5% | 418.7hPa | 2.6V | 00:00:00 | 03:01:25 | 00:00:00 | |
| DL1XH1-15 | 2026-09-04 00:56:09 | 52.29092 | 11.73443 | 110° | 115km/h | 7153m | -13m/s | -18.9°C | 90.6% | 417.6hPa | 2.6V | 02:51:02 | 03:01:23 | 00:00:00 | |
| DF8AY | 2026-09-04 00:56:05 | 52.29123 | 11.73309 | 111° | 117km/h | 7187m | -9.9m/s | -19.2°C | 90.5% | 415.3hPa | 2.5V | 02:52:13 | 03:01:20 | 00:00:00 | |
| AA1-15 | 2026-09-04 00:56:04 | 52.29133 | 11.73263 | 109° | 119km/h | 7198m | -11.1m/s | -19.2°C | 90.2% | 414.8hPa | 2.6V | 02:52:13 | 03:01:19 | 00:00:00 | |
| DL1XH-west | 2026-09-04 00:56:02 | 52.29154 | 11.73171 | 110° | 120km/h | 7218m | -10m/s | -19.4°C | 89.2% | 413.6hPa | 2.6V | 02:51:22 | 03:01:17 | 00:00:00 | |
| DF7ER-10 | 2026-09-04 00:56:01 | 52.29154 | 11.73171 | 111° | 120km/h | 7219m | -10.0m/s | -19.4°C | 86.3% | 413.6hPa | 2.6V | 02:51:00 | 00:00:00 | 00:00:00 | |
| SONCRA | 2026-09-04 00:56:00 | 52.29185 | 11.73029 | 109° | 120km/h | 7242m | -7.9m/s | -19.5°C | 87.0% | 412.2hPa | 2.6V | 00:00:00 | 00:00:00 | 00:00:00 | |
| DL1XH1-15 | 2026-09-04 00:55:59 | 52.29195 | 11.72982 | 109° | 122km/h | 7250m | -7.9m/s | -19.6°C | 91.3% | 411.7hPa | 2.6V | 02:51:12 | 03:01:13 | 00:00:00 | |
| DF8AY | 2026-09-04 00:55:55 | 52.29228 | 11.72842 | 111° | 119km/h | 7274m | -9.4m/s | -19.8°C | 89.6% | 410.4hPa | 2.6V | 02:52:13 | 03:01:10 | 00:00:00 | |
| AA1-15 | 2026-09-04 00:55:53 | 52.29250 | 11.72751 | 112° | 119km/h | 7292m | -8.9m/s | -19.9°C | 89.8% | 409.4hPa | 2.6V | 02:52:13 | 03:01:08 | 00:00:00 | |
| DL1XH-west | 2026-09-04 00:55:51 | 52.29272 | 11.72660 | 112° | 119km/h | 7310m | -9.3m/s | -20°C | 89.5% | 408.4hPa | 2.5V | 02:51:22 | 03:01:06 | 00:00:00 | |
| DF7ER-10 | 2026-09-04 00:55:50 | 52.29272 | 11.72660 | 113° | 119km/h | 7310m | -9.3m/s | -20.0°C | 86.7% | 408.4hPa | 2.6V | 02:51:00 | 00:00:00 | 00:00:00 | |
| DM0DOS-11 | 2026-09-04 00:55:49 | 52.29316 | 11.72477 | 111° | 120km/h | 7348m | -9.5m/s | -20.3°C | 90.7% | 406.4hPa | 2.6V | 02:51:23 | 03:01:02 | 00:00:00 | |
| DF8AY | 2026-09-04 00:55:44 | 52.29349 | 11.72338 | 111° | 120km/h | 7372m | -8.1m/s | -20.5°C | 89.8% | 405hPa | 2.6V | 02:52:13 | 03:00:59 | 00:00:00 | |
| DL1XH-15 | 2026-09-04 00:55:43 | 52.29394 | 11.72153 | 111° | 120km/h | 7407m | -8.9m/s | -20.7°C | 90% | 403.1hPa | 2.6V | 02:51:30 | 03:00:55 | 00:00:00 | |
| DO2SHX-10 | 2026-09-04 00:55:43 | 52.29360 | 11.72292 | 112° | 120km/h | 7380m | -8.5m/s | -20.5°C | 90.6% | 404.7hPa | 2.6V | 00:00:00 | 03:00:58 | 00:00:00 | |
| DL1XH1-15 | 2026-09-04 00:55:42 | 52.29416 | 11.72060 | 111° | 120km/h | 7423m | -8.2m/s | -20.8°C | 90.6% | 402.3hPa | 2.6V | 02:51:32 | 03:00:53 | 00:00:00 | |
| DL1XH-west | 2026-09-04 00:55:41 | 52.29383 | 11.72200 | 111° | 120km/h | 7398m | -9.6m/s | -20.7°C | 88.9% | 403.7hPa | 2.5V | 02:52:13 | 03:00:56 | 00:00:00 | |
| DF8AY | 2026-09-04 00:55:34 | 52.29463 | 11.71874 | 112° | 122km/h | 7455m | -7.7m/s | -21.1°C | 89.4% | 400.5hPa | 2.6V | 02:52:13 | 03:00:49 | 00:00:00 | |
| DO2SHX-10 | 2026-09-04 00:55:34 | 52.29462 | 11.71874 | 112° | 124km/h | 7455m | -7.7m/s | -21.0°C | 90.7% | 400.4hPa | 2.5V | 00:00:00 | 03:00:49 | 00:00:00 | |
| DL1XH-15 | 2026-09-04 00:55:33 | 52.29510 | 11.71685 | 112° | 122km/h | 7486m | -8.2m/s | -21.2°C | 90.9% | 398.8hPa | 2.5V | 02:51:40 | 03:00:45 | 00:00:00 | |
| AA1-15 | 2026-09-04 00:55:32 | 52.29486 | 11.71779 | 112° | 124km/h | 7470m | -8.3m/s | -21.2°C | 89.6% | 399.6hPa | 2.6V | 02:52:13 | 03:00:47 | 00:00:00 | |
| DM0DOS-11 | 2026-09-04 00:55:31 | 52.29546 | 11.71544 | 112° | 122km/h | 7509m | -8.3m/s | -21.4°C | 91.1% | 397.6hPa | 2.6V | 02:51:43 | 03:00:42 | 00:00:00 | |
| DL1XH-west | 2026-09-04 00:55:30 | 52.29510 | 11.71685 | 113° | 122km/h | 7486m | -8.2m/s | -21.3°C | 89.9% | 398.8hPa | 2.5V | 02:52:13 | 03:00:45 | 00:00:00 | |
| DF8AY | 2026-09-04 00:55:23 | 52.29655 | 11.71120 | 113° | 124km/h | 7580m | -8.2m/s | -22°C | 89.7% | 393.8hPa | 2.6V | 02:52:13 | 03:00:33 | 00:00:00 | |
| DL1XH1-15 | 2026-09-04 00:55:23 | 52.29655 | 11.71120 | 112° | 124km/h | 7580m | -8.2m/s | -22°C | 90.6% | 393.8hPa | 2.6V | 02:51:52 | 03:00:33 | 00:00:00 | |
| AA1-15 | 2026-09-04 00:55:22 | 52.29619 | 11.71262 | 113° | 124km/h | 7557m | -8.3m/s | -21.8°C | 89.2% | 395.1hPa | 2.5V | 02:52:13 | 03:00:36 | 00:00:00 | |
| DL1XH-west | 2026-09-04 00:55:19 | 52.29643 | 11.71167 | 112° | 124km/h | 7572m | -8.2m/s | -21.9°C | 90% | 394.2hPa | 2.6V | 02:52:13 | 03:00:34 | 00:00:00 | |
| DF8AY | 2026-09-04 00:55:12 | 52.29725 | 11.70835 | 112° | 124km/h | 7626m | -8.1m/s | -22.3°C | 90% | 391.3hPa | 2.6V | 02:52:13 | 03:00:27 | 00:00:00 | |
| DL1XH1-15 | 2026-09-04 00:55:12 | 52.29771 | 11.70644 | 112° | 124km/h | 7658m | -8.2m/s | -22.5°C | 90.2% | 389.7hPa | 2.5V | 02:52:02 | 03:00:23 | 00:00:00 | |
| AA1-15 | 2026-09-04 00:55:11 | 52.29748 | 11.70739 | 112° | 124km/h | 7642m | -8.3m/s | -22.4°C | 89.8% | 390.6hPa | 2.5V | 02:52:13 | 03:00:25 | 00:00:00 | |
| DO2SHX-10 | 2026-09-04 00:55:10 | 52.29748 | 11.70739 | 112° | 124km/h | 7642m | -8.3m/s | -22.4°C | 90.5% | 390.5hPa | 2.5V | 02:52:00 | 03:00:25 | 00:00:00 | |
| DM0DOS-11 | 2026-09-04 00:55:09 | 52.29783 | 11.70596 | 111° | 124km/h | 7665m | -8m/s | -22.6°C | 90.4% | 389.3hPa | 2.6V | 02:52:03 | 03:00:22 | 00:00:00 | |
| DL1XH-west | 2026-09-04 00:55:08 | 52.29771 | 11.70644 | 112° | 124km/h | 7658m | -8.2m/s | -22.5°C | 89.4% | 389.7hPa | 2.5V | 02:52:13 | 03:00:23 | 00:00:00 | |
| DO2SHX-10 | 2026-09-04 00:55:07 | 52.29783 | 11.70596 | 112° | 124km/h | 7666m | -8.0m/s | -22.6°C | 90.4% | 389.2hPa | 2.5V | 00:00:00 | 03:00:22 | 00:00:00 | |
| AM1SDL-15 | 2026-09-04 00:55:06 | 52.29795 | 11.70548 | 113° | 124km/h | 7673m | -8.1m/s | -22.6°C | 90.4% | 388.8hPa | 2.5V | 00:00:00 | 03:00:21 | 00:00:00 | |
| DO2SHX-10 | 2026-09-04 00:55:04 | 52.29818 | 11.70453 | 112° | 124km/h | 7689m | -7.8m/s | -22.7°C | 90.2% | 388.0hPa | 2.5V | 00:00:00 | 03:00:19 | 00:00:00 | |
| TFSTFS | 2026-09-04 00:55:03 | 52.29829 | 11.70406 | 112° | 124km/h | 7696m | -8.1m/s | -22.8°C | 85.4% | 387.6hPa | 2.5V | 02:52:00 | 00:00:00 | 00:00:00 | |
| DM0DOS-11 | 2026-09-04 00:55:02 | 52.29898 | 11.70118 | 110° | 124km/h | 7743m | -8m/s | -23.2°C | 91.1% | 385.1hPa | 2.5V | 02:52:13 | 03:00:12 | 00:00:00 | |
| DL1XH1-15 | 2026-09-04 00:55:02 | 52.29887 | 11.70166 | 111° | 126km/h | 7735m | -8.3m/s | -23.1°C | 90.9% | 385.6hPa | 2.5V | 02:52:12 | 03:00:13 | 00:00:00 | |
| DF8AY | 2026-09-04 00:55:01 | 52.29853 | 11.70310 | 111° | 126km/h | 7711m | -8.4m/s | -23°C | 90% | 386.8hPa | 2.6V | 02:52:13 | 03:00:16 | 00:00:00 | |
| AA1-15 | 2026-09-04 00:55:00 | 52.29864 | 11.70262 | 111° | 124km/h | 7719m | -8.2m/s | -23°C | 89.9% | 386.4hPa | 2.6V | 02:52:13 | 03:00:15 | 00:00:00 | |
| DL1XH-west | 2026-09-04 00:54:58 | 52.29887 | 11.70166 | 111° | 126km/h | 7735m | -8.3m/s | -23.1°C | 90.1% | 385.6hPa | 2.5V | 02:52:13 | 03:00:13 | 00:00:00 | |
| DF8AY | 2026-09-04 00:54:50 | 52.29980 | 11.69783 | 112° | 124km/h | 7798m | -8.5m/s | -23.6°C | 90.6% | 382.3hPa | 2.5V | 02:53:55 | 03:00:05 | 00:00:00 | |
| DM0DOS-11 | 2026-09-04 00:54:50 | 52.30015 | 11.69639 | 112° | 124km/h | 7821m | -8.4m/s | -23.8°C | 91% | 381hPa | 2.6V | 02:52:23 | 03:00:02 | 00:00:00 | |
| DL1XH1-15 | 2026-09-04 00:54:49 | 52.30003 | 11.69687 | 111° | 126km/h | 7813m | -8.1m/s | -23.7°C | 91.2% | 381.4hPa | 2.6V | 02:52:22 | 03:00:03 | 00:00:00 | |
| DL1XH-west | 2026-09-04 00:54:47 | 52.30015 | 11.69639 | 112° | 124km/h | 7821m | -8.4m/s | -23.8°C | 90.4% | 381hPa | 2.6V | 02:53:04 | 03:00:02 | 00:00:00 | |
| S3001 | 2026-09-04 00:54:44 | 52.30051 | 11.69495 | 112° | 124km/h | 7845m | -8.6m/s | -24.0°C | 86.0% | 379.9hPa | 2.5V | 00:00:00 | 00:00:00 | 00:00:00 | |
| DL1XH1-15 | 2026-09-04 00:54:43 | 52.30124 | 11.69206 | 112° | 126km/h | 7892m | -8.4m/s | -24.3°C | 91.6% | 377.3hPa | 2.5V | 02:52:32 | 02:59:53 | 00:00:00 | |
| AA1-15 | 2026-09-04 00:54:40 | 52.30100 | 11.69302 | 112° | 126km/h | 7876m | -8m/s | -24.2°C | 90.8% | 378.1hPa | 2.5V | 02:53:04 | 02:59:55 | 00:00:00 | |
| DF8AY | 2026-09-04 00:54:39 | 52.30112 | 11.69254 | 113° | 126km/h | 7884m | -8.7m/s | -24.3°C | 90.8% | 377.9hPa | 2.5V | 02:53:55 | 02:59:54 | 00:00:00 | |
| DM0DOS-11 | 2026-09-04 00:54:39 | 52.30136 | 11.69158 | 112° | 128km/h | 7900m | -8.3m/s | -24.4°C | 91.6% | 377hPa | 2.6V | 02:52:33 | 02:59:52 | 00:00:00 | |
| DL1XH-west | 2026-09-04 00:54:37 | 52.30137 | 11.69158 | 113° | 128km/h | 7900m | -8.3m/s | -24.4°C | 90.8% | 377hPa | 2.6V | 02:53:04 | 02:59:52 | 00:00:00 | |
| DF8AY | 2026-09-04 00:54:29 | 52.30237 | 11.68772 | 113° | 130km/h | 7962m | -8.3m/s | -24.8°C | 91.8% | 373.8hPa | 2.6V | 02:53:55 | 02:59:44 | 00:00:00 | |
| DL1XH1-15 | 2026-09-04 00:54:29 | 52.30249 | 11.68723 | 112° | 128km/h | 7970m | -7.8m/s | -24.9°C | 92.5% | 373.4hPa | 2.5V | 02:52:42 | 02:59:43 | 00:00:00 | |
| DM0DOS-11 | 2026-09-04 00:54:29 | 52.30262 | 11.68675 | 113° | 128km/h | 7978m | -8.6m/s | -24.9°C | 92.3% | 373hPa | 2.5V | 02:52:43 | 02:59:42 | 00:00:00 | |
| DL1XH-west | 2026-09-04 00:54:26 | 52.30288 | 11.68577 | 113° | 130km/h | 7993m | -7.9m/s | -25°C | 91.3% | 372.2hPa | 2.6V | 02:53:04 | 02:59:40 | 00:00:00 | |
| EDDB2-12 | 2026-09-04 00:54:26 | 52.30288 | 11.68577 | 112° | 128km/h | 7993m | -7.9m/s | -25.0°C | 86.4% | 372.2hPa | 2.6V | 00:00:00 | 00:00:00 | 00:00:00 | |
| DO2SHX-10 | 2026-09-04 00:54:25 | 52.30288 | 11.68577 | 113° | 130km/h | 7993m | -7.9m/s | -25.0°C | 91.8% | 372.1hPa | 2.6V | 02:52:00 | 02:59:40 | 00:00:00 | |
| DF7ER-10 | 2026-09-04 00:54:24 | 52.30288 | 11.68577 | 114° | 130km/h | 7993m | -7.9m/s | -25.0°C | 86.4% | 372.2hPa | 2.6V | 02:53:00 | 00:00:00 | 00:00:00 | |
| DL1XH1-15 | 2026-09-04 00:54:23 | 52.30392 | 11.68186 | 113° | 130km/h | 8055m | -8.5m/s | -25.4°C | 92.3% | 369hPa | 2.6V | 02:52:53 | 02:59:32 | 00:00:00 | |
| DM0DOS-11 | 2026-09-04 00:54:22 | 52.30392 | 11.68186 | 113° | 130km/h | 8055m | -8.5m/s | -25.4°C | 92.3% | 369hPa | 2.6V | 02:52:53 | 02:59:32 | 00:00:00 | |
| DF8AY | 2026-09-04 00:54:18 | 52.30379 | 11.68235 | 114° | 130km/h | 8047m | -8.4m/s | -25.4°C | 91.9% | 369.4hPa | 2.6V | 02:53:55 | 02:59:33 | 00:00:00 | |
| DL1XH-west | 2026-09-04 00:54:15 | 52.30418 | 11.68087 | 114° | 131km/h | 8071m | -8m/s | -25.5°C | 92% | 368.2hPa | 2.5V | 02:53:04 | 02:59:30 | 00:00:00 | |
| DF8AY-15 | 2026-09-04 00:54:15 | 52.30418 | 11.68087 | 114° | 131km/h | 8071m | -7.9m/s | -25.5°C | 92.5% | 368.1hPa | 2.5V | 02:52:00 | 02:59:30 | 00:00:00 | |
| DF7ER-10 | 2026-09-04 00:54:14 | 52.30432 | 11.68038 | 115° | 130km/h | 8078m | -7.9m/s | -25.6°C | 86.9% | 367.8hPa | 2.5V | 02:53:00 | 00:00:00 | 00:00:00 | |
| DO2SHX-10 | 2026-09-04 00:54:13 | 52.30445 | 11.67989 | 115° | 130km/h | 8086m | -8.0m/s | -25.6°C | 92.7% | 367.3hPa | 2.5V | 00:00:00 | 02:59:28 | 00:00:00 | |
| DM0DOS-11 | 2026-09-04 00:54:11 | 52.30527 | 11.67695 | 114° | 131km/h | 8131m | -8.3m/s | -26°C | 92% | 365.1hPa | 2.5V | 02:53:03 | 02:59:22 | 00:00:00 | |
| DO2SHX-10 | 2026-09-04 00:54:10 | 52.30486 | 11.67842 | 115° | 131km/h | 8108m | -7.7m/s | -25.8°C | 92.6% | 366.2hPa | 2.6V | 00:00:00 | 02:59:25 | 00:00:00 | |
| DL1XH1-15 | 2026-09-04 00:54:09 | 52.30513 | 11.67744 | 114° | 131km/h | 8123m | -8.1m/s | -25.9°C | 92.1% | 365.5hPa | 2.6V | 02:53:02 | 02:59:23 | 00:00:00 | |
| AA1-15 | 2026-09-04 00:54:08 | 52.30513 | 11.67744 | 114° | 131km/h | 8123m | -8.1m/s | -26°C | 91.6% | 365.5hPa | 2.6V | 02:53:04 | 02:59:23 | 00:00:00 | |
| DL1XH-west | 2026-09-04 00:54:05 | 52.30554 | 11.67596 | 115° | 131km/h | 8146m | -8.3m/s | -26.1°C | 91% | 364.4hPa | 2.6V | 02:53:55 | 02:59:20 | 00:00:00 | |
| DO2SHX-10 | 2026-09-04 00:54:04 | 52.30568 | 11.67546 | 115° | 131km/h | 8154m | -7.9m/s | -26.1°C | 91.4% | 363.9hPa | 2.5V | 00:00:00 | 02:59:19 | 00:00:00 | |
| DF7ER-10 | 2026-09-04 00:54:03 | 52.30568 | 11.67546 | 115° | 131km/h | 8154m | -8.0m/s | -26.2°C | 85.8% | 363.9hPa | 2.5V | 02:53:00 | 00:00:00 | 00:00:00 | |
| DO2SHX-10 | 2026-09-04 00:54:01 | 52.30609 | 11.67397 | 115° | 133km/h | 8176m | -8.4m/s | -26.3°C | 91.3% | 362.7hPa | 2.5V | 00:00:00 | 02:59:16 | 00:00:00 | |
| DM0DOS-11 | 2026-09-04 00:53:59 | 52.30665 | 11.67197 | 114° | 133km/h | 8207m | -8.7m/s | -26.6°C | 91.2% | 361.2hPa | 2.5V | 02:53:13 | 02:59:12 | 00:00:00 | |
| AA1-15 | 2026-09-04 00:53:57 | 52.30665 | 11.67197 | 115° | 133km/h | 8207m | -8.7m/s | -26.6°C | 91.1% | 361.2hPa | 2.5V | 02:53:55 | 02:59:12 | 00:00:00 | |
| DF8AY | 2026-09-04 00:53:57 | 52.30679 | 11.67147 | 114° | 133km/h | 8216m | -8.8m/s | -26.7°C | 90.9% | 360.8hPa | 2.5V | 02:53:55 | 02:59:11 | 00:00:00 | |
| DL1XH-west | 2026-09-04 00:53:54 | 52.30707 | 11.67046 | 115° | 133km/h | 8232m | -8.2m/s | -26.8°C | 90.5% | 360hPa | 2.6V | 02:53:55 | 02:59:09 | 00:00:00 | |
| AM1SDL-15 | 2026-09-04 00:53:54 | 52.30707 | 11.67046 | 115° | 133km/h | 8232m | -8.1m/s | -26.8°C | 90.7% | 360.0hPa | 2.6V | 00:00:00 | 02:59:09 | 00:00:00 | |
| DO2SHX-10 | 2026-09-04 00:53:52 | 52.30735 | 11.66945 | 116° | 135km/h | 8248m | -8.5m/s | -26.9°C | 90.3% | 359.2hPa | 2.6V | 00:00:00 | 02:59:07 | 00:00:00 | |
| DM0DOS-11 | 2026-09-04 00:53:49 | 52.30807 | 11.66695 | 115° | 133km/h | 8287m | -8.2m/s | -27.2°C | 91.8% | 357.3hPa | 2.6V | 02:53:23 | 02:59:02 | 00:00:00 | |
| AA1-15 | 2026-09-04 00:53:47 | 52.30808 | 11.66695 | 115° | 133km/h | 8287m | -8.3m/s | -27.2°C | 92% | 357.3hPa | 2.6V | 02:53:55 | 02:59:02 | 00:00:00 | |
| DF8AY | 2026-09-04 00:53:46 | 52.30836 | 11.66595 | 115° | 133km/h | 8302m | -8.4m/s | -27.4°C | 92.3% | 356.5hPa | 2.5V | 02:53:55 | 02:59:00 | 00:00:00 | |
| DL1XH-west | 2026-09-04 00:53:43 | 52.30879 | 11.66446 | 115° | 133km/h | 8327m | -8.6m/s | -27.5°C | 92.2% | 355.3hPa | 2.5V | 02:53:55 | 02:58:57 | 00:00:00 | |
| DO2SHX-10 | 2026-09-04 00:53:43 | 52.30864 | 11.66495 | 116° | 131km/h | 8318m | -8.6m/s | -27.4°C | 90.8% | 355.7hPa | 2.6V | 00:00:00 | 02:58:58 | 00:00:00 | |
| DM0DOS-11 | 2026-09-04 00:53:42 | 52.30951 | 11.66201 | 116° | 131km/h | 8366m | -8m/s | -27.8°C | 89% | 353.4hPa | 2.6V | 02:53:33 | 02:58:52 | 00:00:00 | |
| DF7ER-10 | 2026-09-04 00:53:41 | 52.30879 | 11.66446 | 116° | 133km/h | 8327m | -8.6m/s | -27.5°C | 84.3% | 355.3hPa | 2.5V | 02:53:00 | 00:00:00 | 00:00:00 | |
| DB0DAN | 2026-09-04 00:53:40 | 52.30907 | 11.66348 | 115° | 126km/h | 8343m | -8.8m/s | -27.6°C | 83.2% | 354.59hPa | 2.5V | 00:00:00 | 00:00:00 | 00:00:00 | |
| AA1-15 | 2026-09-04 00:53:36 | 52.30966 | 11.66152 | 117° | 131km/h | 8373m | -7.9m/s | -27.9°C | 90.3% | 353hPa | 2.5V | 02:53:55 | 02:58:51 | 00:00:00 | |
| DF8AY | 2026-09-04 00:53:35 | 52.30981 | 11.66103 | 117° | 133km/h | 8381m | -8m/s | -28°C | 89.3% | 352.6hPa | 2.5V | 02:53:55 | 02:58:50 | 00:00:00 | |
| DL1XH-west | 2026-09-04 00:53:32 | 52.31026 | 11.65957 | 117° | 133km/h | 8403m | -8.6m/s | -28.1°C | 86.8% | 351.5hPa | 2.6V | 02:53:55 | 02:58:47 | 00:00:00 | |
| DO2SHX-10 | 2026-09-04 00:53:31 | 52.31041 | 11.65908 | 118° | 131km/h | 8410m | -8.8m/s | -28.1°C | 86.1% | 351.1hPa | 2.5V | 02:53:00 | 02:58:46 | 00:00:00 | |
| AM1SDL-15 | 2026-09-04 00:53:30 | 52.31057 | 11.65859 | 118° | 130km/h | 8417m | -8.7m/s | -28.2°C | 86.8% | 350.7hPa | 2.6V | 00:00:00 | 02:58:45 | 00:00:00 | |
| DL1XH1-15 | 2026-09-04 00:53:29 | 52.31088 | 11.65762 | 117° | 131km/h | 8433m | -8.8m/s | -28.4°C | 87.1% | 350hPa | 2.6V | 02:53:42 | 02:58:43 | 00:00:00 | |
| AA1-15 | 2026-09-04 00:53:26 | 52.31119 | 11.65666 | 118° | 130km/h | 8453m | -14.2m/s | -28.5°C | 88.2% | 349.2hPa | 2.5V | 02:53:55 | 02:58:41 | 00:00:00 | |
| DF8AY | 2026-09-04 00:53:25 | 52.31134 | 11.65618 | 118° | 130km/h | 8465m | -13.7m/s | -28.6°C | 88.6% | 348.6hPa | 2.5V | 02:53:55 | 02:58:40 | 00:00:00 | |
| DL1XH-west | 2026-09-04 00:53:22 | 52.31181 | 11.65475 | 118° | 130km/h | 8501m | -13.7m/s | -28.9°C | 90.5% | 346.8hPa | 2.6V | 02:53:55 | 02:58:37 | 00:00:00 | |
| DF7ER-10 | 2026-09-04 00:53:22 | 52.31181 | 11.65475 | 119° | 130km/h | 8502m | -13.7m/s | -28.9°C | 80.5% | 346.8hPa | 2.6V | 02:53:00 | 00:00:00 | 00:00:00 | |
| DM0DOS-11 | 2026-09-04 00:53:19 | 52.31258 | 11.65235 | 117° | 130km/h | 8577m | -17.2m/s | -29.5°C | 85.6% | 343.4hPa | 2.6V | 02:53:53 | 02:58:32 | 00:00:00 | |
| DL1XH1-15 | 2026-09-04 00:53:19 | 52.31243 | 11.65283 | 117° | 131km/h | 8561m | -17m/s | -29.4°C | 85.3% | 344.1hPa | 2.6V | 02:53:52 | 02:58:33 | 00:00:00 | |
| AA1-15 | 2026-09-04 00:53:16 | 52.31274 | 11.65188 | 118° | 130km/h | 8594m | -17.2m/s | -29.7°C | 90.8% | 342.6hPa | 2.5V | 02:53:55 | 02:58:31 | 00:00:00 | |
| DF8AY | 2026-09-04 00:53:15 | 52.31304 | 11.65092 | 118° | 130km/h | 8623m | -14.8m/s | -29.9°C | 90.8% | 341.2hPa | 2.5V | 02:57:19 | 02:58:29 | 00:00:00 | |
| DO2SHX-10 | 2026-09-04 00:53:14 | 52.31320 | 11.65044 | 118° | 133km/h | 8637m | -15.0m/s | -30.0°C | 86.6% | 340.4hPa | 2.6V | 02:53:00 | 02:58:28 | 00:00:00 | |
| SP3BTT-10 | 2026-09-04 00:53:13 | 52.31320 | 11.65044 | 118° | 139km/h | 8637m | -15.0m/s | -30.0°C | 86.6% | 340.4hPa | 2.6V | 02:53:00 | 00:00:00 | 00:00:00 | |
| DL1XH-15 | 2026-09-04 00:53:12 | 52.31414 | 11.64755 | 118° | 131km/h | 8716m | -15.6m/s | -30.7°C | 86.9% | 336.6hPa | 2.6V | 02:54:03 | 02:58:22 | 00:00:00 | |
| DL1XH-west | 2026-09-04 00:53:11 | 52.31351 | 11.64947 | 118° | 133km/h | 8666m | -14.2m/s | -30.3°C | 90.6% | 339hPa | 2.6V | 02:54:46 | 02:58:26 | 00:00:00 | |
| DF7ER-10 | 2026-09-04 00:53:11 | 52.31351 | 11.64947 | 119° | 133km/h | 8666m | -14.2m/s | -30.3°C | 81.1% | 339.0hPa | 2.5V | 02:54:00 | 00:00:00 | 00:00:00 | |
| DB0DAN | 2026-09-04 00:53:10 | 52.31367 | 11.64898 | 118° | 126km/h | 8678m | -12.5m/s | -30.4°C | 81.6% | 338.37hPa | 2.5V | 00:00:00 | 00:00:00 | 00:00:00 | |
| DO2SHX-10 | 2026-09-04 00:53:10 | 52.31367 | 11.64898 | 118° | 131km/h | 8678m | -12.4m/s | -30.4°C | 88.0% | 338.3hPa | 2.5V | 00:00:00 | 02:58:25 | 00:00:00 | |
| DL1XH1-15 | 2026-09-04 00:53:09 | 52.31398 | 11.64802 | 119° | 131km/h | 8703m | -12.9m/s | -30.6°C | 87.5% | 337.2hPa | 2.5V | 02:54:02 | 02:58:23 | 00:00:00 | |
| AA1-15 | 2026-09-04 00:53:06 | 52.31430 | 11.64707 | 119° | 131km/h | 8731m | -16.1m/s | -30.8°C | 91.2% | 336.1hPa | 2.6V | 02:54:46 | 02:58:21 | 00:00:00 | |
| DF8AY | 2026-09-04 00:53:04 | 52.31478 | 11.64563 | 118° | 131km/h | 8777m | -15.6m/s | -31.2°C | 91.2% | 333.8hPa | 2.5V | 02:57:19 | 02:58:18 | 00:00:00 | |
| DL1XH-west | 2026-09-04 00:53:00 | 52.31525 | 11.64419 | 118° | 131km/h | 8822m | -16.1m/s | -31.6°C | 90.7% | 331.8hPa | 2.6V | 02:54:46 | 02:58:15 | 00:00:00 | |
| DM0DOS-11 | 2026-09-04 00:52:59 | 52.31572 | 11.64276 | 118° | 131km/h | 8866m | -15.7m/s | -31.9°C | 86% | 329.7hPa | 2.5V | 02:54:13 | 02:58:12 | 00:00:00 | |
| DL1XH1-15 | 2026-09-04 00:52:59 | 52.31556 | 11.64324 | 119° | 131km/h | 8851m | -16.2m/s | -31.8°C | 85.6% | 330.4hPa | 2.5V | 02:54:12 | 02:58:13 | 00:00:00 | |
| AA1-15 | 2026-09-04 00:52:56 | 52.31588 | 11.64228 | 119° | 133km/h | 8881m | -14.8m/s | -32.1°C | 90.7% | 328.9hPa | 2.6V | 02:54:46 | 02:58:11 | 00:00:00 | |
| DF8AY | 2026-09-04 00:52:53 | 52.31714 | 11.63843 | 118° | 133km/h | 9011m | -17.8m/s | -33.1°C | 87.7% | 323hPa | 2.5V | 02:57:19 | 02:58:03 | 00:00:00 | |
| DL1XH-west | 2026-09-04 00:52:50 | 52.31682 | 11.63939 | 118° | 130km/h | 8978m | -17.7m/s | -32.9°C | 88.6% | 324.5hPa | 2.6V | 02:54:46 | 02:58:05 | 00:00:00 | |
| DM0DOS-11 | 2026-09-04 00:52:49 | 52.31729 | 11.63794 | 118° | 133km/h | 9028m | -17.2m/s | -33.2°C | 83.2% | 322.2hPa | 2.5V | 02:54:23 | 02:58:02 | 00:00:00 | |
| DL1XH1-15 | 2026-09-04 00:52:49 | 52.31713 | 11.63843 | 117° | 133km/h | 9011m | -17.8m/s | -33.1°C | 83.1% | 322.9hPa | 2.5V | 02:54:22 | 02:58:03 | 00:00:00 | |
| AA1-15 | 2026-09-04 00:52:45 | 52.31760 | 11.63697 | 117° | 131km/h | 9060m | -17.8m/s | -33.5°C | 88.6% | 320.8hPa | 2.5V | 02:54:46 | 02:58:00 | 00:00:00 | |
| DL1XH-west | 2026-09-04 00:52:40 | 52.31855 | 11.63404 | 116° | 133km/h | 9157m | -15.4m/s | -34.3°C | 89% | 316.4hPa | 2.5V | 02:54:46 | 02:57:54 | 00:00:00 | |
| DL1XH1-15 | 2026-09-04 00:52:39 | 52.31870 | 11.63355 | 117° | 131km/h | 9171m | -15.7m/s | -34.4°C | 86.2% | 315.7hPa | 2.6V | 02:54:32 | 02:57:53 | 00:00:00 | |
| DL1XH-15 | 2026-09-04 00:52:39 | 52.31886 | 11.63306 | 117° | 135km/h | 9186m | -16.1m/s | -34.6°C | 86.9% | 315.1hPa | 2.6V | 02:54:33 | 02:57:52 | 00:00:00 | |
| AA1-15 | 2026-09-04 00:52:35 | 52.31917 | 11.63207 | 117° | 133km/h | 9217m | -16.4m/s | -34.8°C | 91.8% | 313.7hPa | 2.5V | 02:54:46 | 02:57:50 | 00:00:00 | |
| DF8AY-15 | 2026-09-04 00:52:35 | 52.31917 | 11.63207 | 117° | 137km/h | 9217m | -16.3m/s | -34.8°C | 88.3% | 313.6hPa | 2.5V | 00:00:00 | 02:57:50 | 00:00:00 | |
| DO2SHX-10 | 2026-09-04 00:52:33 | 52.31947 | 11.63108 | 117° | 133km/h | 9248m | -17.1m/s | -35.0°C | 85.8% | 312.2hPa | 2.5V | 00:00:00 | 02:57:48 | 00:00:00 | |
| DM0DOS-11 | 2026-09-04 00:52:31 | 52.32039 | 11.62808 | 116° | 135km/h | 9342m | -16.8m/s | -35.8°C | 80.7% | 308.2hPa | 2.5V | 02:54:43 | 02:57:42 | 00:00:00 | |
| DL1XH-west | 2026-09-04 00:52:29 | 52.32024 | 11.62859 | 116° | 135km/h | 9326m | -16.4m/s | -35.7°C | 84.6% | 308.9hPa | 2.5V | 02:54:46 | 02:57:43 | 00:00:00 | |
| AA1-15 | 2026-09-04 00:52:25 | 52.32102 | 11.62604 | 116° | 139km/h | 9404m | -15.6m/s | -36.4°C | 84.1% | 305.3hPa | 2.5V | 02:55:37 | 02:57:38 | 00:00:00 | |
| DL1XH-west | 2026-09-04 00:52:18 | 52.32183 | 11.62347 | 118° | 141km/h | 9480m | -16.6m/s | -36.9°C | 84.1% | 302.1hPa | 2.5V | 02:55:37 | 02:57:33 | 00:00:00 | |
| AA1-15 | 2026-09-04 00:52:14 | 52.32271 | 11.62087 | 120° | 144km/h | 9570m | -18.9m/s | -37.2°C | 85.4% | 298.3hPa | 2.6V | 02:55:37 | 02:57:28 | 00:00:00 | |
| DF8AY | 2026-09-04 00:52:14 | 52.32289 | 11.62035 | 120° | 146km/h | 9588m | -18.7m/s | -37.4°C | 85% | 297.5hPa | 2.5V | 02:57:19 | 02:57:27 | 00:00:00 | |
| DO2SHX-10 | 2026-09-04 00:52:13 | 52.32271 | 11.62087 | 120° | 146km/h | 9570m | -18.8m/s | -37.2°C | 79.9% | 298.2hPa | 2.6V | 00:00:00 | 02:57:28 | 00:00:00 | |
| DJ2DS-15 | 2026-09-04 00:52:11 | 52.32308 | 11.61982 | 119° | 144km/h | 9606m | -18.2m/s | -37.5°C | 72.2% | 296.7hPa | 2.6V | 00:00:00 | 00:00:00 | 00:00:00 | |
| SMARD9-10 | 2026-09-04 00:52:10 | 52.32326 | 11.61930 | 121° | 144km/h | 9623m | -18.1m/s | -37.7°C | 72.2% | 296.0hPa | 2.6V | 00:00:00 | 00:00:00 | 00:00:00 | |
| DL1XH1-15 | 2026-09-04 00:52:09 | 52.32364 | 11.61827 | 121° | 144km/h | 9657m | -18.2m/s | -38°C | 79.1% | 294.6hPa | 2.6V | 02:55:02 | 02:57:23 | 00:00:00 | |
| DL1XH-west | 2026-09-04 00:52:08 | 52.32364 | 11.61827 | 121° | 144km/h | 9658m | -18.3m/s | -38°C | 84.3% | 294.6hPa | 2.6V | 02:55:37 | 02:57:23 | 00:00:00 | |
| AA1-15 | 2026-09-04 00:52:04 | 52.32479 | 11.61520 | 122° | 144km/h | 9764m | -18.3m/s | -38.9°C | 82.6% | 289.9hPa | 2.5V | 02:55:37 | 02:57:17 | 00:00:00 | |
| DF8AY | 2026-09-04 00:52:01 | 52.32499 | 11.61469 | 123° | 144km/h | 9781m | -18.3m/s | -39.1°C | 82.7% | 289.2hPa | 2.6V | 02:57:19 | 02:57:16 | 00:00:00 | |
| DL1XH-west | 2026-09-04 00:51:58 | 52.32559 | 11.61317 | 123° | 148km/h | 9832m | -18.5m/s | -39.5°C | 82.4% | 287hPa | 2.5V | 02:55:37 | 02:57:13 | 00:00:00 | |
| AA1-15 | 2026-09-04 00:51:53 | 52.32659 | 11.61060 | 123° | 148km/h | 9918m | -18.6m/s | -40.3°C | 81.5% | 283.4hPa | 2.5V | 02:55:37 | 02:57:08 | 00:00:00 | |
| DL1XH1-15 | 2026-09-04 00:51:53 | 52.32760 | 11.60800 | 122° | 146km/h | 10005m | -18.4m/s | -41°C | 75.6% | 279.9hPa | 2.5V | 02:55:22 | 02:57:03 | 00:00:00 | |
| DM0DOS-11 | 2026-09-04 00:51:52 | 52.32780 | 11.60749 | 122° | 150km/h | 10023m | -18.7m/s | -41.1°C | 75.3% | 279.2hPa | 2.5V | 02:55:23 | 02:57:02 | 00:00:00 | |
| HSKMA3-T | 2026-09-04 00:51:52 | 52.32700 | 11.60956 | 122° | 150km/h | 9954m | -17.7m/s | -40.5°C | 81.1% | 282hPa | 2.5V | 02:55:37 | 02:57:06 | 00:00:00 | |
| DF8AY | 2026-09-04 00:51:50 | 52.32800 | 11.60696 | 122° | 150km/h | 10041m | -18.8m/s | -41.3°C | 80.7% | 278.5hPa | 2.5V | 02:57:19 | 02:57:01 | 00:00:00 | |
| DL1XH-west | 2026-09-04 00:51:48 | 52.32780 | 11.60749 | 122° | 150km/h | 10023m | -18.7m/s | -41.1°C | 80.8% | 279.3hPa | 2.5V | 02:55:37 | 02:57:02 | 00:00:00 | |
| SMARD9-15 | 2026-09-04 00:51:46 | 52.32800 | 11.60696 | 121° | 150km/h | 10041m | -18.8m/s | -41.3°C | 67.1% | 278.5hPa | 2.5V | 00:00:00 | 00:00:00 | 00:00:00 | |
| AA1-15 | 2026-09-04 00:51:43 | 52.32878 | 11.60484 | 121° | 148km/h | 10111m | -18.3m/s | -41.9°C | 81.6% | 275.6hPa | 2.5V | 02:55:37 | 02:56:57 | 00:00:00 | |
| HSKMA3-T | 2026-09-04 00:51:41 | 52.32898 | 11.60431 | 122° | 150km/h | 10129m | -18.1m/s | -42°C | 81.4% | 274.8hPa | 2.5V | 02:55:37 | 02:56:56 | 00:00:00 | |
| DM0DOS-11 | 2026-09-04 00:51:40 | 52.32977 | 11.60217 | 121° | 151km/h | 10198m | -17.7m/s | -42.6°C | 76.5% | 272.1hPa | 2.6V | 02:55:33 | 02:56:52 | 00:00:00 | |
| DF8AY | 2026-09-04 00:51:39 | 52.33037 | 11.60055 | 121° | 153km/h | 10249m | -18.8m/s | -43.1°C | 82.2% | 270hPa | 2.5V | 02:57:19 | 02:56:49 | 00:00:00 | |
| DL1XH1-15 | 2026-09-04 00:51:39 | 52.32957 | 11.60270 | 120° | 151km/h | 10181m | -18.6m/s | -42.5°C | 76.1% | 272.7hPa | 2.6V | 02:55:32 | 02:56:53 | 00:00:00 | |
| DL1XH-west | 2026-09-04 00:51:37 | 52.32997 | 11.60163 | 121° | 151km/h | 10215m | -17.6m/s | -42.8°C | 82.4% | 271.3hPa | 2.6V | 02:55:37 | 02:56:51 | 00:00:00 | |
| HSKMA3-T | 2026-09-04 00:51:31 | 52.33116 | 11.59837 | 121° | 153km/h | 10319m | -18.1m/s | -43.7°C | 81.1% | 267.3hPa | 2.6V | 02:56:28 | 02:56:45 | 00:00:00 | |
| DM0DOS-11 | 2026-09-04 00:51:29 | 52.33176 | 11.59672 | 120° | 153km/h | 10372m | -17.5m/s | -44.2°C | 73.9% | 265.1hPa | 2.5V | 02:55:43 | 02:56:42 | 00:00:00 | |
| DL1XH1-15 | 2026-09-04 00:51:29 | 52.33156 | 11.59727 | 120° | 155km/h | 10354m | -18.1m/s | -44°C | 74.5% | 265.8hPa | 2.5V | 02:55:42 | 02:56:43 | 00:00:00 | |
| DF8AY | 2026-09-04 00:51:28 | 52.33156 | 11.59727 | 121° | 155km/h | 10354m | -18.1m/s | -44°C | 80.6% | 265.8hPa | 2.5V | 02:57:19 | 02:56:43 | 00:00:00 | |
| DL1XH-west | 2026-09-04 00:51:26 | 52.33215 | 11.59562 | 121° | 153km/h | 10405m | -17.9m/s | -44.5°C | 78.9% | 263.8hPa | 2.5V | 02:56:28 | 02:56:40 | 00:00:00 | |
| DF7ER-10 | 2026-09-04 00:51:25 | 52.33215 | 11.59562 | 122° | 153km/h | 10405m | -17.9m/s | -44.5°C | 64.1% | 263.8hPa | 2.5V | 02:56:00 | 00:00:00 | 00:00:00 | |
| DL1XH1-15 | 2026-09-04 00:51:23 | 52.33351 | 11.59175 | 119° | 153km/h | 10525m | -18m/s | -45.5°C | 72.4% | 259.1hPa | 2.5V | 02:55:52 | 02:56:33 | 00:00:00 | |
| AA1-15 | 2026-09-04 00:51:21 | 52.33331 | 11.59231 | 119° | 155km/h | 10508m | -18.2m/s | -45.3°C | 78.6% | 259.8hPa | 2.5V | 02:56:28 | 02:56:34 | 00:00:00 | |
| SONCRA | 2026-09-04 00:51:20 | 52.33312 | 11.59286 | 120° | 151km/h | 10491m | -18.1m/s | -45.2°C | 62.8% | 260.5hPa | 2.6V | 00:00:00 | 00:00:00 | 00:00:00 | |
| HSKMA3-T | 2026-09-04 00:51:20 | 52.33312 | 11.59286 | 120° | 153km/h | 10491m | -18.1m/s | -45.2°C | 78.3% | 260.5hPa | 2.5V | 02:56:28 | 02:56:35 | 00:00:00 | |
| DM0DOS-11 | 2026-09-04 00:51:19 | 52.33370 | 11.59119 | 119° | 153km/h | 10542m | -17.7m/s | -45.6°C | 73.1% | 258.4hPa | 2.6V | 02:55:53 | 02:56:32 | 00:00:00 | |
| DF8AY | 2026-09-04 00:51:16 | 52.33389 | 11.59064 | 119° | 153km/h | 10558m | -17.2m/s | -45.8°C | 80.3% | 257.8hPa | 2.6V | 02:57:19 | 02:56:31 | 00:00:00 | |
| DL1XH-west | 2026-09-04 00:51:15 | 52.33427 | 11.58952 | 119° | 155km/h | 10592m | -17.6m/s | -46.1°C | 81.5% | 256.5hPa | 2.5V | 02:56:28 | 02:56:29 | 00:00:00 | |
| AM1SDL-15 | 2026-09-04 00:51:14 | 52.33446 | 11.58896 | 119° | 155km/h | 10609m | -17.3m/s | -46.2°C | 75.4% | 255.8hPa | 2.5V | 02:55:00 | 02:56:28 | 00:00:00 | |
| DO2SHX-10 | 2026-09-04 00:51:13 | 52.33446 | 11.58896 | 119° | 155km/h | 10609m | -17.3m/s | -46.2°C | 75.4% | 255.8hPa | 2.5V | 02:55:00 | 02:56:28 | 00:00:00 | |
| DL1XH-15 | 2026-09-04 00:51:12 | 52.33561 | 11.58560 | 119° | 155km/h | 10711m | -18m/s | -47.2°C | 78.8% | 252hPa | 2.5V | 02:56:03 | 02:56:22 | 00:00:00 | |
| AA1-15 | 2026-09-04 00:51:10 | 52.33542 | 11.58616 | 120° | 155km/h | 10693m | -18m/s | -47.1°C | 85.1% | 252.7hPa | 2.6V | 02:56:28 | 02:56:23 | 00:00:00 | |
| HSKMA3-T | 2026-09-04 00:51:10 | 52.33523 | 11.58672 | 119° | 153km/h | 10676m | -18.4m/s | -46.9°C | 84.5% | 253.3hPa | 2.6V | 02:56:28 | 02:56:24 | 00:00:00 | |
| DO2SHX-10 | 2026-09-04 00:51:10 | 52.33504 | 11.58728 | 120° | 153km/h | 10659m | -18.1m/s | -46.7°C | 77.0% | 253.8hPa | 2.6V | 00:00:00 | 02:56:25 | 00:00:00 | |
| DL1XH1-15 | 2026-09-04 00:51:09 | 52.33542 | 11.58616 | 119° | 155km/h | 10693m | -18m/s | -47.1°C | 78.2% | 252.7hPa | 2.6V | 02:56:02 | 02:56:23 | 00:00:00 | |
| DF8AY | 2026-09-04 00:51:05 | 52.33599 | 11.58448 | 119° | 153km/h | 10745m | -18m/s | -47.6°C | 86.6% | 250.7hPa | 2.5V | 02:57:19 | 02:56:20 | 00:00:00 | |
| DL1XH-west | 2026-09-04 00:51:04 | 52.33618 | 11.58392 | 119° | 153km/h | 10762m | -17.5m/s | -47.8°C | 87% | 250.1hPa | 2.5V | 02:56:28 | 02:56:19 | 00:00:00 | |
| DF7ER-10 | 2026-09-04 00:51:04 | 52.33619 | 11.58392 | 120° | 153km/h | 10762m | -17.5m/s | -47.8°C | 70.3% | 250.1hPa | 2.5V | 02:56:00 | 00:00:00 | 00:00:00 | |
| DL1XH1-15 | 2026-09-04 00:51:03 | 52.33732 | 11.58054 | 118° | 155km/h | 10863m | -17.6m/s | -48.7°C | 81.4% | 246.3hPa | 2.5V | 02:56:12 | 02:56:13 | 00:00:00 | |
| DM0DOS-11 | 2026-09-04 00:51:02 | 52.33751 | 11.57998 | 118° | 153km/h | 10880m | -17.2m/s | -48.8°C | 81.9% | 245.6hPa | 2.5V | 02:56:13 | 02:56:12 | 00:00:00 | |
| AA1-15 | 2026-09-04 00:50:59 | 52.33713 | 11.58111 | 119° | 155km/h | 10846m | -18m/s | -48.5°C | 87.6% | 246.9hPa | 2.5V | 02:56:28 | 02:56:14 | 00:00:00 | |
| DL1XH-west | 2026-09-04 00:50:54 | 52.33807 | 11.57828 | 118° | 155km/h | 10929m | -16.7m/s | -49.3°C | 89.8% | 243.8hPa | 2.6V | 02:56:28 | 02:56:09 | 00:00:00 | |
| DF8AY | 2026-09-04 00:50:54 | 52.33826 | 11.57771 | 119° | 155km/h | 10945m | -16.6m/s | -49.4°C | 90% | 243.2hPa | 2.5V | 02:57:19 | 02:56:08 | 00:00:00 | |
| DF7ER-10 | 2026-09-04 00:50:54 | 52.33807 | 11.57827 | 119° | 155km/h | 10929m | -16.7m/s | -49.3°C | 72.4% | 243.8hPa | 2.6V | 02:56:00 | 00:00:00 | 00:00:00 | |
| DO2SHX-10 | 2026-09-04 00:50:52 | 52.33845 | 11.57714 | 119° | 157km/h | 10961m | -16.6m/s | -49.5°C | 83.4% | 242.6hPa | 2.6V | 00:00:00 | 02:56:07 | 00:00:00 | |
| DL2RXE-15 | 2026-09-04 00:50:50 | 52.33883 | 11.57600 | 120° | 155km/h | 10994m | -17.5m/s | -49.9°C | 72.1% | 241.4hPa | 2.6V | 00:00:00 | 00:00:00 | 00:00:00 | |
| DL1XH1-15 | 2026-09-04 00:50:49 | 52.33921 | 11.57487 | 118° | 155km/h | 11026m | -17.2m/s | -50.2°C | 82.6% | 240.2hPa | 2.6V | 02:56:22 | 02:56:03 | 00:00:00 | |
| AA1-15 | 2026-09-04 00:50:49 | 52.33902 | 11.57544 | 119° | 157km/h | 11010m | -17.5m/s | -50.1°C | 89.5% | 240.8hPa | 2.6V | 02:56:28 | 02:56:04 | 00:00:00 | |
| HSKMA3-T | 2026-09-04 00:50:48 | 52.33921 | 11.57487 | 118° | 155km/h | 11027m | -17.2m/s | -50.2°C | 89.1% | 240.2hPa | 2.6V | 02:56:28 | 02:56:03 | 00:00:00 | |
| DL1XH-west | 2026-09-04 00:50:44 | 52.33996 | 11.57260 | 119° | 153km/h | 11094m | -17.9m/s | -50.8°C | 86% | 237.7hPa | 2.5V | 02:56:28 | 02:55:59 | 00:00:00 | |
| DF8AY | 2026-09-04 00:50:42 | 52.34072 | 11.57038 | 120° | 151km/h | 11160m | -17.3m/s | -51.4°C | 82.4% | 235.3hPa | 2.6V | 02:57:19 | 02:55:55 | 00:00:00 | |
| DM0DOS-11 | 2026-09-04 00:50:42 | 52.34147 | 11.56818 | 119° | 153km/h | 11229m | -18m/s | -52°C | 75.4% | 232.8hPa | 2.6V | 02:56:34 | 02:55:51 | 00:00:00 | |
| AA1-15 | 2026-09-04 00:50:38 | 52.34109 | 11.56927 | 119° | 151km/h | 11194m | -18.3m/s | -51.7°C | 82.1% | 234.1hPa | 2.5V | 02:57:19 | 02:55:53 | 00:00:00 | |
| HSKMA3-T | 2026-09-04 00:50:37 | 52.34128 | 11.56873 | 120° | 150km/h | 11211m | -17.9m/s | -51.9°C | 81.8% | 233.5hPa | 2.5V | 02:57:19 | 02:55:52 | 00:00:00 | |
| DF8AY | 2026-09-04 00:50:37 | 52.34241 | 11.56544 | 120° | 151km/h | 11316m | -18.7m/s | -52.9°C | 82.1% | 229.8hPa | 2.6V | 02:57:19 | 02:55:46 | 00:00:00 | |
| DL1XH-west | 2026-09-04 00:50:33 | 52.34203 | 11.56653 | 120° | 151km/h | 11281m | -18.2m/s | -52.5°C | 82.1% | 231hPa | 2.5V | 02:57:19 | 02:55:48 | 00:00:00 | |
| TFSTFS | 2026-09-04 00:50:33 | 52.34203 | 11.56653 | 121° | 151km/h | 11281m | -18.2m/s | -52.5°C | 65.0% | 231.0hPa | 2.6V | 02:57:00 | 00:00:00 | 00:00:00 | |
| SONDE2-11 | 2026-09-04 00:50:32 | 52.34241 | 11.56544 | 119° | 150km/h | 11316m | -18.7m/s | -52.9°C | 65.1% | 229.8hPa | 2.6V | 00:00:00 | 00:00:00 | 00:00:00 | |
| DM0DOS-11 | 2026-09-04 00:50:31 | 52.34319 | 11.56325 | 120° | 153km/h | 11386m | -17.8m/s | -53.4°C | 78.3% | 227.2hPa | 2.6V | 02:56:43 | 02:55:42 | 00:00:00 | |
| AA1-15 | 2026-09-04 00:50:28 | 52.34318 | 11.56325 | 120° | 153km/h | 11386m | -17.8m/s | -53.4°C | 83.4% | 227.3hPa | 2.6V | 02:57:19 | 02:55:42 | 00:00:00 | |
| HSKMA3-T | 2026-09-04 00:50:26 | 52.34338 | 11.56270 | 121° | 153km/h | 11403m | -18.6m/s | -53.6°C | 84% | 226.7hPa | 2.6V | 02:57:19 | 02:55:41 | 00:00:00 | |
| DO2SHX-10 | 2026-09-04 00:50:25 | 52.34358 | 11.56215 | 122° | 155km/h | 11421m | -18.3m/s | -53.6°C | 79.5% | 226.0hPa | 2.5V | 00:00:00 | 02:55:40 | 00:00:00 | |
| AM1SDL-15 | 2026-09-04 00:50:24 | 52.34378 | 11.56159 | 121° | 157km/h | 11439m | -17.8m/s | -53.8°C | 80.1% | 225.4hPa | 2.5V | 00:00:00 | 02:55:39 | 00:00:00 | |
| DL1XH1-15 | 2026-09-04 00:50:23 | 52.34498 | 11.55822 | 120° | 159km/h | 11540m | -18.1m/s | -54.8°C | 80.6% | 221.9hPa | 2.5V | 02:56:52 | 02:55:33 | 00:00:00 | |
| DL1XH-west | 2026-09-04 00:50:23 | 52.34418 | 11.56048 | 120° | 155km/h | 11473m | -17.1m/s | -54.1°C | 86.3% | 224.2hPa | 2.6V | 02:57:19 | 02:55:37 | 00:00:00 | |
| DF8AY | 2026-09-04 00:50:20 | 52.34458 | 11.55935 | 120° | 157km/h | 11507m | -17.7m/s | -54.5°C | 86.1% | 223.1hPa | 2.5V | 02:57:19 | 02:55:35 | 00:00:00 | |
| AA1-15 | 2026-09-04 00:50:17 | 52.34518 | 11.55766 | 120° | 159km/h | 11557m | -17.6m/s | -54.9°C | 84.8% | 221.3hPa | 2.6V | 02:57:19 | 02:55:32 | 00:00:00 | |
| HSKMA3-T | 2026-09-04 00:50:16 | 52.34537 | 11.55709 | 120° | 157km/h | 11573m | -17.1m/s | -55.1°C | 84.3% | 220.7hPa | 2.6V | 02:57:19 | 02:55:31 | 00:00:00 | |
| DL1XH-west | 2026-09-04 00:50:12 | 52.34618 | 11.55481 | 121° | 161km/h | 11642m | -19.2m/s | -55.6°C | 80.8% | 218.4hPa | 2.5V | 02:57:19 | 02:55:27 | 00:00:00 | |
| SP3BTT-10 | 2026-09-04 00:50:12 | 52.34618 | 11.55481 | 121° | 175km/h | 11642m | -19.2m/s | -55.6°C | 76.0% | 218.4hPa | 2.5V | 02:56:00 | 00:00:00 | 00:00:00 | |
| DM0DOS-11 | 2026-09-04 00:50:11 | 52.34721 | 11.55195 | 120° | 162km/h | 11729m | -17.5m/s | -56.4°C | 73.9% | 215.3hPa | 2.5V | 02:57:03 | 02:55:22 | 00:00:00 | |
| TFSTFS | 2026-09-04 00:50:11 | 52.34639 | 11.55424 | 121° | 161km/h | 11661m | -18.9m/s | -55.8°C | 63.4% | 217.8hPa | 2.6V | 02:57:00 | 00:00:00 | 00:00:00 | |
| SMARD9-10 | 2026-09-04 00:50:10 | 52.34659 | 11.55367 | 121° | 159km/h | 11679m | -18.3m/s | -55.9°C | 62.9% | 217.2hPa | 2.6V | 00:00:00 | 00:00:00 | 00:00:00 | |
| DL1XH1-15 | 2026-09-04 00:50:09 | 52.34700 | 11.55252 | 121° | 161km/h | 11712m | -17.5m/s | -56.3°C | 74.3% | 216hPa | 2.6V | 02:57:02 | 02:55:23 | 00:00:00 | |
| DF8AY | 2026-09-04 00:50:08 | 52.34700 | 11.55252 | 121° | 161km/h | 11712m | -17.5m/s | -56.3°C | 78.3% | 216hPa | 2.6V | 02:57:19 | 02:55:23 | 00:00:00 | |
| AA1-15 | 2026-09-04 00:50:06 | 52.34742 | 11.55137 | 120° | 161km/h | 11746m | -17.3m/s | -56.6°C | 77.2% | 214.8hPa | 2.5V | 02:57:19 | 02:55:21 | 00:00:00 | |
| HSKMA3-T | 2026-09-04 00:50:04 | 52.34784 | 11.55021 | 121° | 162km/h | 11779m | -18.4m/s | -56.9°C | 75.9% | 213.7hPa | 2.5V | 02:57:19 | 02:55:19 | 00:00:00 | |
| DL1XH-west | 2026-09-04 00:50:01 | 52.34847 | 11.54847 | 121° | 164km/h | 11833m | -19.1m/s | -57.4°C | 73.5% | 211.9hPa | 2.6V | 02:57:19 | 02:55:16 | 00:00:00 | |
| SONDE2-11 | 2026-09-04 00:50:01 | 52.34868 | 11.54789 | 121° | 161km/h | 11852m | -19.6m/s | -57.5°C | 57.5% | 211.3hPa | 2.5V | 00:00:00 | 00:00:00 | 00:00:00 | |
| AM1SDL-15 | 2026-09-04 00:50:00 | 52.34868 | 11.54789 | 122° | 164km/h | 11852m | -19.5m/s | -57.5°C | 69.6% | 211.3hPa | 2.5V | 02:57:00 | 02:55:15 | 00:00:00 | |
| DM0DOS-11 | 2026-09-04 00:49:59 | 52.34933 | 11.54614 | 121° | 164km/h | 11909m | -19.6m/s | -58°C | 67.2% | 209.5hPa | 2.6V | 02:57:13 | 02:55:12 | 00:00:00 | |
| DF8AY | 2026-09-04 00:49:57 | 52.34933 | 11.54614 | 121° | 164km/h | 11909m | -19.6m/s | -58°C | 70% | 209.5hPa | 2.6V | 02:57:19 | 02:55:12 | 00:00:00 | |
| DL1NUX | 2026-09-04 00:49:57 | 52.35043 | 11.54324 | 122° | 166km/h | 12002m | -18.1m/s | -58.8°C | 64.5% | 206.2hPa | 2.6V | 02:57:18 | 02:55:07 | 00:00:00 | |
| AA1-15 | 2026-09-04 00:49:55 | 52.34998 | 11.54440 | 123° | 164km/h | 11967m | -19.6m/s | -58.6°C | 67.6% | 207.6hPa | 2.5V | 02:57:19 | 02:55:09 | 00:00:00 | |
| HSKMA3-T | 2026-09-04 00:49:53 | 52.35020 | 11.54382 | 122° | 164km/h | 11985m | -18.4m/s | -58.7°C | 66.6% | 206.9hPa | 2.5V | 02:57:19 | 02:55:08 | 00:00:00 | |
| DL1XH-west | 2026-09-04 00:49:50 | 52.35087 | 11.54209 | 123° | 164km/h | 12037m | -17.7m/s | -59.1°C | 64.3% | 205.2hPa | 2.6V | 02:58:10 | 02:55:05 | 00:00:00 | |
| DO2SHX-10 | 2026-09-04 00:49:49 | 52.35109 | 11.54151 | 123° | 166km/h | 12054m | -17.6m/s | -59.1°C | 62.7% | 204.5hPa | 2.5V | 00:00:00 | 02:55:04 | 00:00:00 | |
| GOEST3-10 | 2026-09-04 00:49:48 | 52.35132 | 11.54092 | 123° | 166km/h | 12071m | -18.0m/s | -59.3°C | 62.3% | 204.0hPa | 2.5V | 00:00:00 | 00:00:00 | 00:00:00 | |
| DL1NUX | 2026-09-04 00:49:47 | 52.35271 | 11.53745 | 123° | 168km/h | 12177m | -19m/s | -60°C | 59.5% | 200.7hPa | 2.5V | 02:57:28 | 02:54:57 | 00:00:00 | |
| DF8AY | 2026-09-04 00:49:45 | 52.35201 | 11.53919 | 123° | 168km/h | 12123m | -18.5m/s | -59.7°C | 61.8% | 202.3hPa | 2.6V | 02:58:10 | 02:55:00 | 00:00:00 | |
| AA1-15 | 2026-09-04 00:49:44 | 52.35247 | 11.53803 | 124° | 168km/h | 12158m | -18.7m/s | -59.8°C | 60.8% | 201.2hPa | 2.6V | 02:58:10 | 02:54:58 | 00:00:00 | |
| DL1XH1-15 | 2026-09-04 00:49:43 | 52.35366 | 11.53512 | 123° | 168km/h | 12251m | -19.7m/s | -60.5°C | 58% | 198.3hPa | 2.6V | 02:57:32 | 02:54:53 | 00:00:00 | |
| HSKMA3-T | 2026-09-04 00:49:42 | 52.35271 | 11.53745 | 123° | 168km/h | 12177m | -19m/s | -60°C | 60.1% | 200.7hPa | 2.5V | 02:58:10 | 02:54:57 | 00:00:00 | |
| DL1XH-west | 2026-09-04 00:49:40 | 52.35318 | 11.53629 | 124° | 168km/h | 12213m | -19m/s | -60.2°C | 59% | 199.4hPa | 2.5V | 02:58:10 | 02:54:55 | 00:00:00 | |
| DF8AY | 2026-09-04 00:49:34 | 52.35461 | 11.53278 | 124° | 168km/h | 12326m | -20m/s | -61.1°C | 55.4% | 195.9hPa | 2.6V | 02:58:10 | 02:54:49 | 00:00:00 | |
| AA1-15 | 2026-09-04 00:49:33 | 52.35509 | 11.53161 | 124° | 173km/h | 12365m | -19.8m/s | -61.2°C | 53.9% | 194.7hPa | 2.6V | 02:58:10 | 02:54:47 | 00:00:00 | |
| HSKMA3-T | 2026-09-04 00:49:31 | 52.35533 | 11.53102 | 123° | 172km/h | 12384m | -19.8m/s | -61.3°C | 53.4% | 194.1hPa | 2.5V | 02:58:10 | 02:54:46 | 00:00:00 | |
| DL1XH1-15 | 2026-09-04 00:49:31 | 52.35605 | 11.52924 | 123° | 175km/h | 12441m | -20.1m/s | -61.7°C | 52.6% | 192.4hPa | 2.5V | 02:57:42 | 02:54:43 | 00:00:00 | |
| DL1XH-west | 2026-09-04 00:49:29 | 52.35581 | 11.52983 | 124° | 172km/h | 12422m | -19.8m/s | -61.5°C | 52.6% | 193hPa | 2.5V | 02:58:10 | 02:54:44 | 00:00:00 | |
| 13BRC | 2026-09-04 00:49:28 | 52.35605 | 11.52923 | 125° | 175km/h | 12441m | -20.1m/s | -61.7°C | 41.1% | 192.4hPa | 2.6V | 00:00:00 | 00:00:00 | 00:00:00 | |
| DF2AP-13 | 2026-09-04 00:49:27 | 52.35629 | 11.52863 | 124° | 181km/h | 12461m | -19.5m/s | -61.8°C | 51.9% | 191.7hPa | 2.6V | 02:57:00 | 02:54:42 | 00:00:00 | |
| DB0UT-7 | 2026-09-04 00:49:25 | 52.35678 | 11.52742 | 124° | 181km/h | 12498m | -19.5m/s | -62.1°C | 50.4% | 190.6hPa | 2.6V | 02:57:00 | 00:00:00 | 00:00:00 | |
| DD8BA-10 | 2026-09-04 00:49:23 | 52.35727 | 11.52619 | 124° | 181km/h | 12536m | -19.7m/s | -62.0°C | 48.1% | 189.4hPa | 2.5V | 02:57:00 | 00:00:00 | 00:00:00 | |
| DL1NUX | 2026-09-04 00:49:22 | 52.35826 | 11.52369 | 122° | 181km/h | 12614m | -19.9m/s | -62°C | 45.1% | 187.2hPa | 2.5V | 02:57:51 | 02:54:34 | 00:00:00 | |
| DF8AY | 2026-09-04 00:49:21 | 52.35777 | 11.52495 | 124° | 179km/h | 12574m | -20.1m/s | -61.9°C | 47.2% | 188.3hPa | 2.6V | 02:58:10 | 02:54:36 | 00:00:00 | |
| DL1XH1-15 | 2026-09-04 00:49:21 | 52.35851 | 11.52306 | 123° | 181km/h | 12633m | -20m/s | -62.1°C | 44.6% | 186.6hPa | 2.5V | 02:57:52 | 02:54:33 | 00:00:00 | |
| HSKMA3-T | 2026-09-04 00:49:20 | 52.35802 | 11.52432 | 123° | 181km/h | 12594m | -20.2m/s | -61.9°C | 46.7% | 187.7hPa | 2.6V | 02:58:10 | 02:54:35 | 00:00:00 | |
| DM0DOS-11 | 2026-09-04 00:49:19 | 52.35876 | 11.52244 | 123° | 181km/h | 12652m | -19.9m/s | -62.2°C | 44.3% | 186hPa | 2.5V | 02:57:53 | 02:54:32 | 00:00:00 | |
| DL1XH-west | 2026-09-04 00:49:18 | 52.35851 | 11.52306 | 123° | 181km/h | 12633m | -20m/s | -62.1°C | 45.7% | 186.6hPa | 2.5V | 02:58:10 | 02:54:33 | 00:00:00 | |
| GOEST3-10 | 2026-09-04 00:49:18 | 52.35851 | 11.52306 | 124° | 181km/h | 12633m | -19.9m/s | -62.0°C | 44.6% | 186.5hPa | 2.6V | 00:00:00 | 00:00:00 | 00:00:00 | |
| SMARD9-10 | 2026-09-04 00:49:17 | 52.35851 | 11.52306 | 124° | 181km/h | 12633m | -20.0m/s | -62.1°C | 34.2% | 186.6hPa | 2.6V | 00:00:00 | 00:00:00 | 00:00:00 | |
| DO2SHX-10 | 2026-09-04 00:49:16 | 52.35901 | 11.52180 | 123° | 183km/h | 12671m | -20.2m/s | -62.2°C | 43.3% | 185.3hPa | 2.6V | 02:57:00 | 02:54:31 | 00:00:00 | |
| DL4XJ-10 | 2026-09-04 00:49:15 | 52.35926 | 11.52117 | 123° | 183km/h | 12691m | -20.3m/s | -62.1°C | 0% | 0hPa | 2.5V | 00:00:00 | 00:00:00 | 00:00:00 | |
| DO2SHX-10 | 2026-09-04 00:49:13 | 52.35976 | 11.51990 | 124° | 183km/h | 12729m | -20.2m/s | -62.7°C | 42.2% | 183.6hPa | 2.5V | 00:00:00 | 02:54:28 | 00:00:00 | |
| DM0DOS-11 | 2026-09-04 00:49:12 | 52.36125 | 11.51604 | 122° | 183km/h | 12846m | -20.3m/s | -63.8°C | 40.5% | 180.2hPa | 2.5V | 02:58:03 | 02:54:22 | 00:00:00 | |
| AA1-15 | 2026-09-04 00:49:11 | 52.36026 | 11.51861 | 122° | 183km/h | 12769m | -20.1m/s | -63.1°C | 41.1% | 182.5hPa | 2.5V | 02:58:10 | 02:54:26 | 00:00:00 | |
| DF8AY | 2026-09-04 00:49:11 | 52.36051 | 11.51797 | 123° | 183km/h | 12788m | -19.8m/s | -63.3°C | 40.4% | 181.9hPa | 2.6V | 02:58:10 | 02:54:25 | 00:00:00 | |
| DL1XH1-15 | 2026-09-04 00:49:11 | 52.36100 | 11.51669 | 122° | 184km/h | 12826m | -20.2m/s | -63.6°C | 40.7% | 180.8hPa | 2.5V | 02:58:02 | 02:54:23 | 00:00:00 | |
| HSKMA3-T | 2026-09-04 00:49:09 | 52.36075 | 11.51733 | 123° | 183km/h | 12807m | -19.8m/s | -63.5°C | 39.6% | 181.4hPa | 2.6V | 02:58:10 | 02:54:24 | 00:00:00 | |
| DL1XH-west | 2026-09-04 00:49:08 | 52.36100 | 11.51669 | 122° | 184km/h | 12826m | -20.2m/s | -63.6°C | 38.7% | 180.8hPa | 2.5V | 02:58:10 | 02:54:23 | 00:00:00 | |
| GOEST3-10 | 2026-09-04 00:49:08 | 52.36100 | 11.51669 | 123° | 184km/h | 12827m | -20.1m/s | -63.6°C | 40.7% | 180.7hPa | 2.5V | 02:58:00 | 00:00:00 | 00:00:00 | |
| 13BRC | 2026-09-04 00:49:07 | 52.36125 | 11.51604 | 124° | 183km/h | 12846m | -20.3m/s | -63.8°C | 30.0% | 180.2hPa | 2.6V | 00:00:00 | 00:00:00 | 00:00:00 | |
| DO2SHX-10 | 2026-09-04 00:49:04 | 52.36202 | 11.51413 | 124° | 183km/h | 12905m | -20.1m/s | -64.3°C | 39.5% | 178.5hPa | 2.6V | 00:00:00 | 02:54:19 | 00:00:00 | |
| DD8BA-10 | 2026-09-04 00:49:03 | 52.36227 | 11.51349 | 124° | 179km/h | 12924m | -20.0m/s | -64.5°C | 39.0% | 177.9hPa | 2.6V | 00:00:00 | 00:00:00 | 00:00:00 | |
| S3001 | 2026-09-04 00:49:02 | 52.36253 | 11.51286 | 123° | 181km/h | 12943m | -20.5m/s | -64.7°C | 28.0% | 177.4hPa | 2.6V | 00:00:00 | 00:00:00 | 00:00:00 | |
| DL1XH1-15 | 2026-09-04 00:49:01 | 52.36357 | 11.51038 | 125° | 179km/h | 13021m | -20.1m/s | -65.3°C | 36.7% | 175.1hPa | 2.6V | 02:58:12 | 02:54:13 | 00:00:00 | |
| DF8AY | 2026-09-04 00:49:00 | 52.36305 | 11.51161 | 124° | 183km/h | 12982m | -20.2m/s | -65°C | 31.7% | 176.2hPa | 2.5V | 02:58:10 | 02:54:15 | 00:00:00 | |
| DM0DOS-11 | 2026-09-04 00:48:59 | 52.36383 | 11.50977 | 125° | 179km/h | 13041m | -20.6m/s | -65.4°C | 36.2% | 174.6hPa | 2.5V | 02:58:13 | 02:54:12 | 00:00:00 | |
| HSKMA3-T | 2026-09-04 00:48:59 | 52.36331 | 11.51099 | 124° | 181km/h | 13002m | -20.2m/s | -65.1°C | 30.7% | 175.7hPa | 2.6V | 02:59:01 | 02:54:14 | 00:00:00 | |
| DL1XH-west | 2026-09-04 00:48:57 | 52.36383 | 11.50977 | 125° | 179km/h | 13041m | -20.6m/s | -65.4°C | 28.7% | 174.6hPa | 2.5V | 02:59:01 | 02:54:12 | 00:00:00 | |
| EDDB2-11 | 2026-09-04 00:48:56 | 52.36409 | 11.50917 | 125° | 177km/h | 13061m | -20.8m/s | -65.5°C | 24.9% | 174.0hPa | 2.5V | 00:00:00 | 00:00:00 | 00:00:00 | |
| DB0DAN | 2026-09-04 00:48:55 | 52.36435 | 11.50857 | 126° | 166km/h | 13080m | -20.6m/s | -65.5°C | 24.2% | 173.4hPa | 2.5V | 00:00:00 | 00:00:00 | 00:00:00 | |
| DL1ZP-14 | 2026-09-04 00:48:54 | 52.36487 | 11.50742 | 126° | 168km/h | 13120m | -20.1m/s | -65.6°C | 22.7% | 172.3hPa | 2.6V | 00:00:00 | 00:00:00 | 00:00:00 | |
| DD8BA-10 | 2026-09-04 00:48:53 | 52.36487 | 11.50742 | 127° | 161km/h | 13120m | -20.0m/s | -65.5°C | 33.2% | 172.2hPa | 2.6V | 02:58:00 | 00:00:00 | 00:00:00 | |
| DM0DOS-11 | 2026-09-04 00:48:52 | 52.36637 | 11.50418 | 128° | 157km/h | 13239m | -20.4m/s | -65.6°C | 27.3% | 169hPa | 2.6V | 02:58:23 | 02:54:02 | 00:00:00 | |
| DL1NUX | 2026-09-04 00:48:52 | 52.36538 | 11.50630 | 126° | 164km/h | 13159m | -20.7m/s | -65.4°C | 30.7% | 171.2hPa | 2.5V | 02:58:19 | 02:54:06 | 00:00:00 | |
| AA1-15 | 2026-09-04 00:48:50 | 52.36563 | 11.50576 | 128° | 162km/h | 13180m | -21m/s | -65.4°C | 22.1% | 170.6hPa | 2.5V | 02:59:01 | 02:54:05 | 00:00:00 | |
| DL1XH1-15 | 2026-09-04 00:48:49 | 52.36613 | 11.50470 | 127° | 161km/h | 13219m | -20.1m/s | -65.6°C | 28.6% | 169.5hPa | 2.6V | 02:58:22 | 02:54:03 | 00:00:00 | |
| DF8AY | 2026-09-04 00:48:48 | 52.36613 | 11.50470 | 128° | 161km/h | 13219m | -20.1m/s | -65.6°C | 20.5% | 169.5hPa | 2.6V | 02:59:01 | 02:54:03 | 00:00:00 | |
| DL1XH-west | 2026-09-04 00:48:47 | 52.36637 | 11.50418 | 128° | 157km/h | 13239m | -20.4m/s | -65.6°C | 19.4% | 169hPa | 2.6V | 02:59:01 | 02:54:02 | 00:00:00 | |
| HSKMA3-T | 2026-09-04 00:48:46 | 52.36662 | 11.50368 | 129° | 153km/h | 13258m | -20.5m/s | -65.7°C | 18.2% | 168.5hPa | 2.4V | 02:59:01 | 02:54:01 | 00:00:00 | |
| SONCRA | 2026-09-04 00:48:45 | 52.36711 | 11.50270 | 129° | 151km/h | 13298m | -20.7m/s | -65.6°C | 14.2% | 167.4hPa | 2.5V | 00:00:00 | 00:00:00 | 00:00:00 | |
| EDDB2-12 | 2026-09-04 00:48:44 | 52.36711 | 11.50270 | 129° | 151km/h | 13298m | -20.7m/s | -65.6°C | 14.2% | 167.4hPa | 2.5V | 00:00:00 | 00:00:00 | 00:00:00 | |
| GOEST3-10 | 2026-09-04 00:48:42 | 52.36760 | 11.50174 | 131° | 142km/h | 13338m | -20.5m/s | -65.4°C | 20.4% | 166.2hPa | 2.5V | 00:00:00 | 02:53:57 | 00:00:00 | |
| DL1XH1-15 | 2026-09-04 00:48:41 | 52.36855 | 11.49996 | 131° | 131km/h | 13419m | -21.3m/s | -62.3°C | 12.4% | 164.1hPa | 2.5V | 02:58:32 | 02:53:53 | 00:00:00 | |
| AA1-15 | 2026-09-04 00:48:40 | 52.36832 | 11.50038 | 131° | 137km/h | 13399m | -20.9m/s | -62.9°C | 8.8% | 164.7hPa | 2.5V | 02:59:01 | 02:53:54 | 00:00:00 | |
| DO2SHX-10 | 2026-09-04 00:48:40 | 52.36809 | 11.50082 | 132° | 139km/h | 13379m | -20.7m/s | -64.9°C | 18.2% | 165.2hPa | 2.5V | 02:58:00 | 02:53:55 | 00:00:00 | |
| DM0DOS-11 | 2026-09-04 00:48:39 | 52.36877 | 11.49955 | 130° | 130km/h | 13440m | -21.1m/s | -62°C | 11.6% | 163.6hPa | 2.6V | 02:58:33 | 02:53:52 | 00:00:00 | |
| DF8AY | 2026-09-04 00:48:38 | 52.36855 | 11.49996 | 132° | 131km/h | 13419m | -21.3m/s | -62.3°C | 8% | 164.1hPa | 2.5V | 02:59:01 | 02:53:53 | 00:00:00 | |
| HSKMA3-T | 2026-09-04 00:48:36 | 52.36898 | 11.49914 | 130° | 128km/h | 13460m | -20.9m/s | -61.9°C | 7.1% | 163.1hPa | 2.6V | 02:59:01 | 02:53:51 | 00:00:00 | |
| TFSTFS | 2026-09-04 00:48:35 | 52.36918 | 11.49873 | 130° | 124km/h | 13481m | -21.2m/s | -61.9°C | 5.7% | 162.6hPa | 2.5V | 02:59:00 | 00:00:00 | 00:00:00 | |
| DO2SHX-10 | 2026-09-04 00:48:34 | 52.36937 | 11.49834 | 129° | 119km/h | 13502m | -21.3m/s | -61.8°C | 10.6% | 161.9hPa | 2.5V | 00:00:00 | 02:53:49 | 00:00:00 | |
| DD8BA-10 | 2026-09-04 00:48:33 | 52.36956 | 11.49795 | 129° | 113km/h | 13522m | -20.8m/s | -61.7°C | 10.3% | 161.3hPa | 2.5V | 00:00:00 | 00:00:00 | 00:00:00 | |
| DM0DOS-11 | 2026-09-04 00:48:32 | 52.37056 | 11.49563 | 122° | 110km/h | 13649m | -21.7m/s | -60.5°C | 8.6% | 158.2hPa | 2.5V | 02:58:43 | 02:53:42 | 00:00:00 | |
| DL1NUX | 2026-09-04 00:48:32 | 52.36992 | 11.49717 | 125° | 115km/h | 13563m | -21.6m/s | -61.5°C | 9.8% | 160.4hPa | 2.6V | 02:58:39 | 02:53:46 | 00:00:00 | |
| GOEST3-10 | 2026-09-04 00:48:32 | 52.36974 | 11.49756 | 127° | 113km/h | 13543m | -21.9m/s | -61.5°C | 10.0% | 160.9hPa | 2.6V | 00:00:00 | 02:53:47 | 00:00:00 | |
| DO2SHX-10 | 2026-09-04 00:48:31 | 52.36991 | 11.49717 | 126° | 113km/h | 13563m | -21.6m/s | -61.4°C | 9.8% | 160.3hPa | 2.6V | 02:58:00 | 02:53:46 | 00:00:00 | |
| DL1XH1-15 | 2026-09-04 00:48:29 | 52.37041 | 11.49602 | 123° | 111km/h | 13627m | -22.3m/s | -60.6°C | 8.9% | 158.8hPa | 2.5V | 02:58:42 | 02:53:43 | 00:00:00 | |
| AA1-15 | 2026-09-04 00:48:29 | 52.37041 | 11.49602 | 124° | 111km/h | 13627m | -22.3m/s | -60.6°C | 4.8% | 158.8hPa | 2.5V | 02:59:01 | 02:53:43 | 00:00:00 | |
| DL1XH-west | 2026-09-04 00:48:25 | 52.37086 | 11.49487 | 123° | 108km/h | 13691m | -21.8m/s | -60.7°C | 4.3% | 157.1hPa | 2.6V | 02:59:01 | 02:53:40 | 00:00:00 | |
| DB0UT-7 | 2026-09-04 00:48:25 | 52.37086 | 11.49487 | 124° | 100km/h | 13691m | -21.8m/s | -60.7°C | 8.7% | 157.0hPa | 2.5V | 00:00:00 | 00:00:00 | 00:00:00 | |
| DD8BA-10 | 2026-09-04 00:48:23 | 52.37116 | 11.49412 | 123° | 99km/h | 13734m | -22.3m/s | -60.4°C | 8.3% | 156.0hPa | 2.5V | 02:58:00 | 00:00:00 | 00:00:00 | |
| DO2SHX-10 | 2026-09-04 00:48:22 | 52.37130 | 11.49375 | 122° | 100km/h | 13756m | -22.5m/s | -60.3°C | 8.1% | 155.4hPa | 2.5V | 02:58:00 | 02:53:37 | 00:00:00 | |
| DL1XH1-15 | 2026-09-04 00:48:21 | 52.37182 | 11.49232 | 118° | 97km/h | 13841m | -21.9m/s | -60.6°C | 8.1% | 153.4hPa | 2.5V | 02:58:52 | 02:53:33 | 00:00:00 | |
| DF8AY | 2026-09-04 00:48:18 | 52.37182 | 11.49232 | 119° | 99km/h | 13841m | -21.9m/s | -60.6°C | 3.3% | 153.4hPa | 2.5V | 02:59:01 | 02:53:33 | 00:00:00 | |
| HSKMA3-T | 2026-09-04 00:48:16 | 52.37205 | 11.49162 | 118° | 95km/h | 13883m | -21.5m/s | -60.7°C | 3% | 152.3hPa | 2.5V | 02:59:01 | 02:53:31 | 00:00:00 | |
| DL1XH-west | 2026-09-04 00:48:14 | 52.37227 | 11.49091 | 116° | 97km/h | 13925m | -21.9m/s | -60.9°C | 2.7% | 151.3hPa | 2.6V | 02:59:01 | 02:53:29 | 00:00:00 | |
| SONCRA | 2026-09-04 00:48:14 | 52.37227 | 11.49091 | 116° | 95km/h | 13925m | -21.9m/s | -60.9°C | 3.1% | 151.3hPa | 2.5V | 00:00:00 | 00:00:00 | 00:00:00 | |
| DL1XH-15 | 2026-09-04 00:48:13 | 52.37302 | 11.48822 | 115° | 108km/h | 14069m | -21.1m/s | -59°C | 6.1% | 147.8hPa | 2.5V | 02:59:03 | 02:53:22 | 00:00:00 | |
| GOEST3-10 | 2026-09-04 00:48:13 | 52.37248 | 11.49019 | 116° | 102km/h | 13968m | -21.0m/s | -61.1°C | 7.8% | 150.2hPa | 2.6V | 00:00:00 | 02:53:27 | 00:00:00 | |
| SP3BTT-10 | 2026-09-04 00:48:12 | 52.37248 | 11.49019 | 116° | 89km/h | 13968m | -21.0m/s | -61.1°C | 7.8% | 150.2hPa | 2.6V | 00:00:00 | 00:00:00 | 00:00:00 | |
| DB0NH | 2026-09-04 00:48:11 | 52.37259 | 11.48981 | 115° | 99km/h | 13988m | -21.3m/s | -61.0°C | 7.7% | 149.7hPa | 2.6V | 02:58:00 | 02:53:26 | 00:00:00 | |
| DO2SHX-10 | 2026-09-04 00:48:10 | 52.37269 | 11.48942 | 114° | 104km/h | 14009m | -21.0m/s | -60.6°C | 7.3% | 149.1hPa | 2.5V | 00:00:00 | 02:53:25 | 00:00:00 | |
| DL1XH1-15 | 2026-09-04 00:48:09 | 52.37291 | 11.48863 | 114° | 106km/h | 14049m | -21.2m/s | -59.2°C | 6.2% | 148.3hPa | 2.5V | 02:59:02 | 02:53:23 | 00:00:00 | |
| DF8AY | 2026-09-04 00:48:08 | 52.37373 | 11.48585 | 118° | 102km/h | 14196m | -22.7m/s | -57°C | 1% | 144.9hPa | 2.5V | 02:59:52 | 02:53:16 | 00:00:00 | |
| DL4BBY-15 | 2026-09-04 00:48:08 | 52.37291 | 11.48862 | 115° | 93km/h | 14049m | -21.1m/s | -58.9°C | 0% | 0hPa | 2.5V | 00:00:00 | 00:00:00 | 00:00:00 | |
| DL1NUX | 2026-09-04 00:48:07 | 52.37361 | 11.48623 | 118° | 102km/h | 14174m | -22.9m/s | -57.6°C | 5.5% | 145.3hPa | 2.5V | 02:59:08 | 02:53:17 | 00:00:00 | |
| HSKMA3-T | 2026-09-04 00:48:05 | 52.37325 | 11.48741 | 115° | 106km/h | 14110m | -21.2m/s | -58.9°C | 1.6% | 146.8hPa | 2.6V | 03:00:43 | 02:53:20 | 00:00:00 | |
| AA1-15 | 2026-09-04 00:48:04 | 52.37337 | 11.48701 | 117° | 108km/h | 14131m | -21.9m/s | -58.7°C | 1.5% | 146.3hPa | 2.6V | 02:59:52 | 02:53:19 | 00:00:00 | |
| DL1XH-west | 2026-09-04 00:48:03 | 52.37349 | 11.48661 | 117° | 106km/h | 14152m | -22.5m/s | -58.3°C | 1.4% | 145.9hPa | 2.5V | 02:59:52 | 02:53:18 | 00:00:00 | |
| DD8BA-10 | 2026-09-04 00:48:03 | 52.37349 | 11.48661 | 118° | 99km/h | 14153m | -22.5m/s | -58.3°C | 5.9% | 145.8hPa | 2.5V | 00:00:00 | 00:00:00 | 00:00:00 | |
| NBG1-10 | 2026-09-04 00:48:02 | 52.37361 | 11.48623 | 119° | 100km/h | 14174m | -22.8m/s | -57.6°C | 5.5% | 145.3hPa | 2.5V | 02:59:00 | 02:53:17 | 00:00:00 | |
| DL1XH1-15 | 2026-09-04 00:48:01 | 52.37407 | 11.48475 | 115° | 97km/h | 14260m | -21m/s | -56.8°C | 5.1% | 143.4hPa | 2.5V | 02:59:12 | 02:53:13 | 00:00:00 | |
| S3001 | 2026-09-04 00:48:00 | 52.37385 | 11.48548 | 117° | 100km/h | 14218m | -22.6m/s | -56.9°C | 1.7% | 144.4hPa | 2.5V | 00:00:00 | 00:00:00 | 00:00:00 | |
| DM0DOS-11 | 2026-09-04 00:47:59 | 52.37418 | 11.48438 | 115° | 95km/h | 14280m | -21m/s | -56.8°C | 5.1% | 142.9hPa | 2.5V | 02:59:13 | 02:53:12 | 00:00:00 | |
| AA1-15 | 2026-09-04 00:47:54 | 52.37447 | 11.48330 | 115° | 93km/h | 14342m | -21.8m/s | -56.3°C | 0.9% | 141.5hPa | 2.6V | 02:59:52 | 02:53:09 | 00:00:00 | |
| DL1XH-west | 2026-09-04 00:47:53 | 52.37457 | 11.48294 | 115° | 95km/h | 14362m | -22.2m/s | -55.9°C | 0.9% | 141hPa | 2.6V | 02:59:52 | 02:53:08 | 00:00:00 | |
| DD8BA-10 | 2026-09-04 00:47:53 | 52.37457 | 11.48294 | 115° | 95km/h | 14363m | -22.1m/s | -55.9°C | 4.8% | 141.0hPa | 2.6V | 02:59:00 | 00:00:00 | 00:00:00 | |
| DM0DOS-11 | 2026-09-04 00:47:52 | 52.37517 | 11.48079 | 115° | 95km/h | 14495m | -24.1m/s | -56°C | 4.7% | 138.3hPa | 2.5V | 02:59:23 | 02:53:02 | 00:00:00 | |
| DF8AY | 2026-09-04 00:47:51 | 52.37487 | 11.48186 | 115° | 95km/h | 14426m | -22.4m/s | -55.8°C | 0.7% | 139.7hPa | 2.5V | 02:59:52 | 02:53:05 | 00:00:00 | |
| HSKMA3-T | 2026-09-04 00:47:49 | 52.37497 | 11.48151 | 115° | 93km/h | 14448m | -23.6m/s | -55.9°C | 0.8% | 139.3hPa | 2.6V | 03:00:43 | 02:53:04 | 00:00:00 | |
| AA1-15 | 2026-09-04 00:47:44 | 52.37549 | 11.47974 | 117° | 93km/h | 14563m | -22.4m/s | -55.8°C | 0.6% | 136.7hPa | 2.6V | 02:59:52 | 02:52:59 | 00:00:00 | |
| DL1XH-west | 2026-09-04 00:47:43 | 52.37560 | 11.47940 | 117° | 93km/h | 14584m | -21.8m/s | -55.9°C | 0.7% | 136.3hPa | 2.5V | 02:59:52 | 02:52:58 | 00:00:00 | |
| DD8BA-10 | 2026-09-04 00:47:43 | 52.37560 | 11.47940 | 118° | 89km/h | 14584m | -21.8m/s | -55.8°C | 4.6% | 136.2hPa | 2.6V | 00:00:00 | 00:00:00 | 00:00:00 | |
| GOEST3-10 | 2026-09-04 00:47:42 | 52.37571 | 11.47905 | 119° | 93km/h | 14604m | -21.1m/s | -55.9°C | 4.7% | 135.8hPa | 2.6V | 00:00:00 | 02:52:57 | 00:00:00 | |
| DL1XH1-15 | 2026-09-04 00:47:41 | 52.37614 | 11.47768 | 117° | 89km/h | 14687m | -22m/s | -55.7°C | 4.6% | 134hPa | 2.6V | 02:59:32 | 02:52:53 | 00:00:00 | |
| DB0NH | 2026-09-04 00:47:41 | 52.37582 | 11.47870 | 118° | 82km/h | 14624m | -21.1m/s | -56.0°C | 4.7% | 135.3hPa | 2.6V | 00:00:00 | 02:52:56 | 00:00:00 | |
| DO2SHX-10 | 2026-09-04 00:47:40 | 52.37593 | 11.47836 | 118° | 91km/h | 14645m | -21.2m/s | -55.9°C | 4.7% | 134.9hPa | 2.6V | 00:00:00 | 02:52:55 | 00:00:00 | |
| DF8AY | 2026-09-04 00:47:40 | 52.37593 | 11.47836 | 118° | 91km/h | 14644m | -21.3m/s | -56°C | 0.7% | 134.9hPa | 2.6V | 02:59:52 | 02:52:55 | 00:00:00 | |
| DL1NUX | 2026-09-04 00:47:38 | 52.37666 | 11.47611 | 118° | 82km/h | 14792m | -21.7m/s | -55.6°C | 4.5% | 131.9hPa | 2.6V | 02:59:37 | 02:52:48 | 00:00:00 | |
| HSKMA3-T | 2026-09-04 00:47:33 | 52.37666 | 11.47611 | 119° | 82km/h | 14792m | -21.7m/s | -55.6°C | 0.5% | 131.9hPa | 2.6V | 03:00:43 | 02:52:48 | 00:00:00 | |
| DL1XH-west | 2026-09-04 00:47:33 | 52.37675 | 11.47582 | 118° | 78km/h | 14813m | -21.6m/s | -55.7°C | 0.5% | 131.5hPa | 2.5V | 02:59:52 | 02:52:47 | 00:00:00 | |
| DF8AY | 2026-09-04 00:47:30 | 52.37702 | 11.47499 | 118° | 73km/h | 14876m | -22.4m/s | -55.5°C | 0.5% | 130.2hPa | 2.6V | 02:59:52 | 02:52:44 | 00:00:00 | |
| HSKMA3-T | 2026-09-04 00:47:23 | 52.37749 | 11.47330 | 112° | 78km/h | 15006m | -22.9m/s | -55.5°C | 0.4% | 127.6hPa | 2.6V | 03:00:43 | 02:52:38 | 00:00:00 | |
| DL1XH-west | 2026-09-04 00:47:21 | 52.37764 | 11.47269 | 114° | 80km/h | 15051m | -23.5m/s | -55.5°C | 0.5% | 126.8hPa | 2.5V | 02:59:52 | 02:52:36 | 00:00:00 | |
| DL1XH1-15 | 2026-09-04 00:47:21 | 52.37789 | 11.47175 | 113° | 82km/h | 15116m | -21.9m/s | -55.8°C | 4.6% | 125.4hPa | 2.6V | 02:59:52 | 02:52:33 | 00:00:00 | |
| DF8AY | 2026-09-04 00:47:19 | 52.37781 | 11.47206 | 114° | 84km/h | 15095m | -22.1m/s | -55.7°C | 0.5% | 125.8hPa | 2.6V | 02:59:52 | 02:52:34 | 00:00:00 | |
| DO2SHX-10 | 2026-09-04 00:47:19 | 52.37781 | 11.47206 | 114° | 82km/h | 15095m | -22.0m/s | -55.6°C | 4.5% | 125.7hPa | 2.6V | 02:59:00 | 02:52:34 | 00:00:00 | |
| DL1NUX | 2026-09-04 00:47:18 | 52.37834 | 11.47020 | 116° | 80km/h | 15225m | -23m/s | -55.3°C | 4.3% | 123.3hPa | 2.6V | 02:59:57 | 02:52:28 | 00:00:00 | |
| DF8AY | 2026-09-04 00:47:13 | 52.37890 | 11.46853 | 120° | 71km/h | 15357m | -21.8m/s | -55.3°C | 0.3% | 120.7hPa | 2.6V | 03:03:16 | 02:52:22 | 00:00:00 | |
| AA1-15 | 2026-09-04 00:47:12 | 52.37843 | 11.46990 | 119° | 78km/h | 15248m | -23.5m/s | -55.4°C | 0.4% | 122.9hPa | 2.6V | 03:00:43 | 02:52:27 | 00:00:00 | |
| HSKMA3-T | 2026-09-04 00:47:11 | 52.37853 | 11.46962 | 119° | 78km/h | 15271m | -23.6m/s | -55.4°C | 0.3% | 122.5hPa | 2.5V | 03:00:43 | 02:52:26 | 00:00:00 | |
| DL1XH-west | 2026-09-04 00:47:11 | 52.37862 | 11.46933 | 121° | 78km/h | 15293m | -22.7m/s | -55.4°C | 0.3% | 122hPa | 2.5V | 03:00:43 | 02:52:25 | 00:00:00 | |
| DO2SHX-10 | 2026-09-04 00:47:10 | 52.37862 | 11.46933 | 121° | 75km/h | 15293m | -22.6m/s | -55.4°C | 4.3% | 121.9hPa | 2.5V | 00:00:00 | 02:52:25 | 00:00:00 | |
| DL1XH1-15 | 2026-09-04 00:47:09 | 52.37881 | 11.46879 | 119° | 71km/h | 15336m | -22m/s | -55.3°C | 4.3% | 121.1hPa | 2.6V | 03:00:02 | 02:52:23 | 00:00:00 | |
| TFSTFS | 2026-09-04 00:47:09 | 52.37872 | 11.46906 | 120° | 75km/h | 15315m | -22.5m/s | -55.4°C | 1.3% | 121.5hPa | 2.5V | 03:00:00 | 00:00:00 | 00:00:00 | |
| DO2SHX-10 | 2026-09-04 00:47:07 | 52.37890 | 11.46853 | 121° | 69km/h | 15358m | -21.7m/s | -55.2°C | 4.3% | 120.7hPa | 2.5V | 03:00:00 | 02:52:22 | 00:00:00 | |
| SMARD9-15 | 2026-09-04 00:47:06 | 52.37899 | 11.46827 | 119° | 68km/h | 15379m | -22.7m/s | -55.1°C | 1.2% | 120.3hPa | 2.5V | 00:00:00 | 00:00:00 | 00:00:00 | |
| DL1NUX | 2026-09-04 00:47:04 | 52.37925 | 11.46755 | 122° | 66km/h | 15444m | -22.9m/s | -54.5°C | 4% | 119.1hPa | 2.5V | 03:00:07 | 02:52:18 | 00:00:00 | |
| HSKMA3-T | 2026-09-04 00:47:01 | 52.37942 | 11.46711 | 122° | 62km/h | 15488m | -22.7m/s | -54.1°C | 0.1% | 118.3hPa | 2.6V | 03:00:43 | 02:52:16 | 00:00:00 | |
| DL1XH1-15 | 2026-09-04 00:47:01 | 52.37964 | 11.46647 | 119° | 57km/h | 15554m | -22.7m/s | -53.8°C | 3.8% | 117.1hPa | 2.5V | 03:00:12 | 02:52:13 | 00:00:00 | |
| DL1XH-west | 2026-09-04 00:47:00 | 52.37950 | 11.46689 | 121° | 60km/h | 15510m | -22.4m/s | -54°C | 0.1% | 117.9hPa | 2.5V | 03:00:43 | 02:52:15 | 00:00:00 | |
| DL1NUX | 2026-09-04 00:46:58 | 52.37997 | 11.46542 | 116° | 57km/h | 15666m | -23.6m/s | -54.5°C | 3.9% | 115.1hPa | 2.5V | 03:00:17 | 02:52:08 | 00:00:00 | |
| DF8AY | 2026-09-04 00:46:57 | 52.37978 | 11.46606 | 118° | 55km/h | 15598m | -22.9m/s | -54.2°C | 0.1% | 116.2hPa | 2.6V | 03:03:16 | 02:52:11 | 00:00:00 | |
| HSKMA3-T | 2026-09-04 00:46:51 | 52.38009 | 11.46499 | 114° | 57km/h | 15712m | -24.7m/s | -54.7°C | 0.1% | 114.3hPa | 2.6V | 03:00:43 | 02:52:06 | 00:00:00 | |
| AA1-15 | 2026-09-04 00:46:50 | 52.38015 | 11.46477 | 114° | 57km/h | 15737m | -24.4m/s | -54.8°C | 0.1% | 113.9hPa | 2.6V | 03:00:43 | 02:52:05 | 00:00:00 | |
| DL1XH-west | 2026-09-04 00:46:49 | 52.38021 | 11.46455 | 114° | 60km/h | 15760m | -24.3m/s | -55°C | 0.1% | 113.4hPa | 2.6V | 03:00:43 | 02:52:04 | 00:00:00 | |
| DL1XH1-15 | 2026-09-04 00:46:49 | 52.38026 | 11.46432 | 113° | 58km/h | 15784m | -24.4m/s | -55°C | 4.1% | 113hPa | 2.5V | 03:00:22 | 02:52:03 | 00:00:00 | |
| DM0DOS-11 | 2026-09-04 00:46:48 | 52.38033 | 11.46410 | 114° | 58km/h | 15808m | -24.5m/s | -54.9°C | 4.1% | 112.6hPa | 2.5V | 03:00:23 | 02:52:02 | 00:00:00 | |
| DF8AY | 2026-09-04 00:46:46 | 52.38039 | 11.46388 | 115° | 57km/h | 15831m | -23.9m/s | -54.7°C | 0.2% | 112.2hPa | 2.5V | 03:03:16 | 02:52:01 | 00:00:00 | |
| DO2SHX-10 | 2026-09-04 00:46:46 | 52.38038 | 11.46388 | 115° | 58km/h | 15832m | -23.8m/s | -54.7°C | 4.1% | 112.1hPa | 2.5V | 00:00:00 | 02:52:01 | 00:00:00 | |
| DL1NUX | 2026-09-04 00:46:44 | 52.38056 | 11.46322 | 113° | 55km/h | 15899m | -23.2m/s | -54.7°C | 4% | 111hPa | 2.5V | 03:00:27 | 02:51:58 | 00:00:00 | |
| AM1SDL-15 | 2026-09-04 00:46:44 | 52.38056 | 11.46322 | 114° | 57km/h | 15900m | -23.2m/s | -54.7°C | 4.0% | 110.9hPa | 2.5V | 00:00:00 | 02:51:58 | 00:00:00 | |
| DL1CLM-18 | 2026-09-04 00:46:43 | 52.38056 | 11.46322 | 114° | 55km/h | 15900m | -23.3m/s | -54.7°C | 1.1% | 111.0hPa | 2.5V | 00:00:00 | 00:00:00 | 00:00:00 | |
| DM0DOS-11 | 2026-09-04 00:46:42 | 52.38090 | 11.46171 | 108° | 57km/h | 16056m | -22.6m/s | -54.9°C | 4% | 108.2hPa | 2.5V | 03:00:34 | 02:51:51 | 00:00:00 | |
| DF7ER-10 | 2026-09-04 00:46:42 | 52.38062 | 11.46301 | 114° | 55km/h | 15922m | -22.6m/s | -54.8°C | 1.1% | 110.6hPa | 2.6V | 03:00:00 | 00:00:00 | 00:00:00 | |
| DL1XH1-15 | 2026-09-04 00:46:41 | 52.38081 | 11.46215 | 108° | 57km/h | 16011m | -23.1m/s | -54.7°C | 4% | 109hPa | 2.6V | 03:00:32 | 02:51:53 | 00:00:00 | |
| HSKMA3-T | 2026-09-04 00:46:41 | 52.38067 | 11.46279 | 111° | 57km/h | 15944m | -23.1m/s | -54.6°C | 0.1% | 110.2hPa | 2.5V | 03:00:43 | 02:51:56 | 00:00:00 | |
| DL1XH-west | 2026-09-04 00:46:39 | 52.38076 | 11.46236 | 111° | 53km/h | 15989m | -22.7m/s | -54.5°C | 0% | 109.4hPa | 2.6V | 03:00:43 | 02:51:54 | 00:00:00 | |
| DF8AY | 2026-09-04 00:46:36 | 52.38094 | 11.46148 | 108° | 58km/h | 16078m | -23.3m/s | -55.1°C | 0.1% | 107.9hPa | 2.5V | 03:03:16 | 02:51:50 | 00:00:00 | |
| DF8AY-15 | 2026-09-04 00:46:35 | 52.38094 | 11.46148 | 108° | 57km/h | 16078m | -23.3m/s | -55.1°C | 4.1% | 107.8hPa | 2.6V | 00:00:00 | 02:51:50 | 00:00:00 | |
| DO2SHX-10 | 2026-09-04 00:46:34 | 52.38099 | 11.46124 | 107° | 60km/h | 16100m | -22.5m/s | -55.2°C | 4.1% | 107.4hPa | 2.6V | 00:00:00 | 02:51:49 | 00:00:00 | |
| DD8BA-10 | 2026-09-04 00:46:33 | 52.38103 | 11.46100 | 109° | 58km/h | 16122m | -22.4m/s | -55.1°C | 4.1% | 107.1hPa | 2.6V | 03:00:00 | 00:00:00 | 00:00:00 | |
| DL4XJ-10 | 2026-09-04 00:46:32 | 52.38108 | 11.46076 | 108° | 55km/h | 16144m | -22.7m/s | -54.9°C | 0% | 0hPa | 2.6V | 00:00:00 | 00:00:00 | 00:00:00 | |
| DM0DOS-11 | 2026-09-04 00:46:31 | 52.38130 | 11.45953 | 106° | 58km/h | 16258m | -23m/s | -54.6°C | 3.9% | 104.9hPa | 2.6V | 03:00:43 | 02:51:42 | 00:00:00 | |
| HSKMA3-T | 2026-09-04 00:46:30 | 52.38117 | 11.46026 | 107° | 64km/h | 16189m | -23.8m/s | -55.3°C | 0.1% | 106hPa | 2.5V | 03:00:43 | 02:51:45 | 00:00:00 | |
| TFSTFS | 2026-09-04 00:46:30 | 52.38116 | 11.46026 | 108° | 64km/h | 16189m | -23.8m/s | -55.3°C | 1.1% | 106.0hPa | 2.6V | 03:00:00 | 00:00:00 | 00:00:00 | |
| DL1XH1-15 | 2026-09-04 00:46:29 | 52.38126 | 11.45977 | 107° | 60km/h | 16235m | -23.8m/s | -55.1°C | 4.1% | 105.3hPa | 2.6V | 03:00:42 | 02:51:43 | 00:00:00 | |
| DL1XH-west | 2026-09-04 00:46:29 | 52.38126 | 11.45977 | 107° | 60km/h | 16235m | -23.8m/s | -55.1°C | 0.1% | 105.3hPa | 2.6V | 03:00:43 | 02:51:43 | 00:00:00 | |
| DO2SHX-10 | 2026-09-04 00:46:28 | 52.38125 | 11.45977 | 108° | 58km/h | 16235m | -23.7m/s | -55.0°C | 4.1% | 105.2hPa | 2.6V | 00:00:00 | 02:51:43 | 00:00:00 | |
| DF2AP-13 | 2026-09-04 00:46:27 | 52.38130 | 11.45953 | 107° | 58km/h | 16258m | -22.9m/s | -54.6°C | 3.9% | 104.8hPa | 2.6V | 03:00:00 | 02:51:42 | 00:00:00 | |
| DB0DAN | 2026-09-04 00:46:25 | 52.38137 | 11.45908 | 105° | 51km/h | 16303m | -23.9m/s | -54.3°C | 1% | 104.21hPa | 2.5V | 00:00:00 | 00:00:00 | 00:00:00 | |
| DF8AY | 2026-09-04 00:46:25 | 52.38137 | 11.45908 | 105° | 53km/h | 16303m | -23.9m/s | -54.3°C | 0% | 104.2hPa | 2.5V | 03:03:16 | 02:51:40 | 00:00:00 | |
| DO2SHX-10 | 2026-09-04 00:46:25 | 52.38137 | 11.45908 | 105° | 53km/h | 16304m | -23.8m/s | -54.2°C | 3.7% | 104.2hPa | 2.5V | 00:00:00 | 02:51:40 | 00:00:00 | |
| DD8BA-10 | 2026-09-04 00:46:23 | 52.38144 | 11.45865 | 103° | 55km/h | 16351m | -24.3m/s | -54.3°C | 3.8% | 103.4hPa | 2.6V | 00:00:00 | 00:00:00 | 00:00:00 | |
| SO1NDE-10 | 2026-09-04 00:46:22 | 52.38147 | 11.45844 | 105° | 60km/h | 16375m | -24.3m/s | -54.4°C | 3.8% | 103.0hPa | 2.5V | 00:00:00 | 02:51:37 | 00:00:00 | |
| DM0DOS-11 | 2026-09-04 00:46:21 | 52.38160 | 11.45736 | 98° | 57km/h | 16492m | -24m/s | -54.9°C | 4% | 101.1hPa | 2.6V | 03:00:53 | 02:51:32 | 00:00:00 | |
| HSKMA3-T | 2026-09-04 00:46:20 | 52.38152 | 11.45802 | 102° | 51km/h | 16422m | -24.3m/s | -54.7°C | 0% | 102.3hPa | 2.5V | 03:01:34 | 02:51:35 | 00:00:00 | |
| AA1-15 | 2026-09-04 00:46:18 | 52.38157 | 11.45759 | 100° | 55km/h | 16469m | -24.4m/s | -54.8°C | 0% | 101.6hPa | 2.6V | 03:01:34 | 02:51:33 | 00:00:00 | |
| DL1NUX | 2026-09-04 00:46:18 | 52.38171 | 11.45616 | 101° | 60km/h | 16611m | -24.5m/s | -55.4°C | 4.1% | 99.3hPa | 2.6V | 03:00:58 | 02:51:27 | 00:00:00 | |
| DL1XH-west | 2026-09-04 00:46:17 | 52.38159 | 11.45736 | 99° | 57km/h | 16493m | -24m/s | -54.9°C | 0.1% | 101.1hPa | 2.6V | 03:01:34 | 02:51:32 | 00:00:00 | |
| DF8AY | 2026-09-04 00:46:14 | 52.38169 | 11.45641 | 101° | 58km/h | 16588m | -25.2m/s | -55.3°C | 0.1% | 99.7hPa | 2.6V | 03:03:16 | 02:51:28 | 00:00:00 | |
| GOEST3-10 | 2026-09-04 00:46:13 | 52.38171 | 11.45616 | 102° | 60km/h | 16612m | -24.4m/s | -55.3°C | 4.1% | 99.2hPa | 2.5V | 00:00:00 | 02:51:27 | 00:00:00 | |
| DB0DAN | 2026-09-04 00:46:10 | 52.38177 | 11.45568 | 102° | 55km/h | 16660m | -25.2m/s | -55.4°C | 1% | 98.58hPa | 2.5V | 00:00:00 | 00:00:00 | 00:00:00 | |
| HSKMA3-T | 2026-09-04 00:46:09 | 52.38180 | 11.45544 | 102° | 60km/h | 16684m | -25.3m/s | -55.4°C | 0% | 98.2hPa | 2.5V | 03:01:34 | 02:51:24 | 00:00:00 | |
| DL1XH1-15 | 2026-09-04 00:46:09 | 52.38182 | 11.45519 | 98° | 60km/h | 16709m | -25.3m/s | -55.3°C | 4.1% | 97.8hPa | 2.5V | 03:01:02 | 02:51:23 | 00:00:00 | |
| DL1XH-west | 2026-09-04 00:46:07 | 52.38185 | 11.45495 | 101° | 58km/h | 16734m | -25.9m/s | -55.3°C | 0% | 97.4hPa | 2.6V | 03:01:34 | 02:51:22 | 00:00:00 | |
| DF8AY | 2026-09-04 00:46:03 | 52.38195 | 11.45371 | 96° | 64km/h | 16858m | -24.8m/s | -55.5°C | 0% | 95.5hPa | 2.6V | 03:03:16 | 02:51:17 | 00:00:00 | |
| GOEST3-10 | 2026-09-04 00:46:02 | 52.38195 | 11.45371 | 96° | 66km/h | 16858m | -24.8m/s | -55.4°C | 4.1% | 95.5hPa | 2.5V | 00:00:00 | 02:51:17 | 00:00:00 | |
| DM0DOS-11 | 2026-09-04 00:46:01 | 52.38205 | 11.45234 | 100° | 69km/h | 16982m | -26.7m/s | -55.2°C | 4.1% | 93.7hPa | 2.5V | 03:01:13 | 02:51:12 | 00:00:00 | |
| DO2SHX-10 | 2026-09-04 00:46:01 | 52.38196 | 11.45345 | 96° | 66km/h | 16883m | -25.4m/s | -55.3°C | 4.1% | 95.1hPa | 2.6V | 00:00:00 | 02:51:16 | 00:00:00 | |
| DL1XH1-15 | 2026-09-04 00:45:59 | 52.38202 | 11.45262 | 98° | 68km/h | 16957m | -25.3m/s | -55.2°C | 4.1% | 94hPa | 2.6V | 03:01:12 | 02:51:13 | 00:00:00 | |
| HSKMA3-T | 2026-09-04 00:45:58 | 52.38202 | 11.45262 | 98° | 68km/h | 16957m | -25.3m/s | -55.3°C | 0.1% | 94hPa | 2.6V | 03:01:34 | 02:51:13 | 00:00:00 | |
| DL1XH-west | 2026-09-04 00:45:56 | 52.38208 | 11.45206 | 102° | 69km/h | 17008m | -26.1m/s | -55.2°C | 0% | 93.3hPa | 2.5V | 03:01:34 | 02:51:11 | 00:00:00 | |
| S3001 | 2026-09-04 00:45:56 | 52.38208 | 11.45206 | 101° | 68km/h | 17008m | -26.1m/s | -55.2°C | 0.9% | 93.3hPa | 2.5V | 00:00:00 | 00:00:00 | 00:00:00 | |
| DB0DAN | 2026-09-04 00:45:55 | 52.38212 | 11.45178 | 104° | 64km/h | 17034m | -26.3m/s | -55.2°C | 1% | 93.01hPa | 2.5V | 00:00:00 | 00:00:00 | 00:00:00 | |
| DF8AY | 2026-09-04 00:45:51 | 52.38232 | 11.45068 | 110° | 68km/h | 17135m | -25.4m/s | -55.1°C | 0% | 91.5hPa | 2.5V | 03:03:16 | 02:51:06 | 00:00:00 | |
| DM0DOS-11 | 2026-09-04 00:45:51 | 52.38256 | 11.44967 | 110° | 62km/h | 17233m | -26m/s | -54.9°C | 4% | 90.1hPa | 2.6V | 03:01:23 | 02:51:02 | 00:00:00 | |
| EDDB2-11 | 2026-09-04 00:45:50 | 52.38244 | 11.45016 | 111° | 64km/h | 17185m | -25.1m/s | -55.1°C | 1.0% | 90.8hPa | 2.6V | 00:00:00 | 00:00:00 | 00:00:00 | |
| DL1XH1-15 | 2026-09-04 00:45:49 | 52.38250 | 11.44991 | 112° | 62km/h | 17209m | -25.2m/s | -55°C | 4% | 90.4hPa | 2.6V | 03:01:22 | 02:51:03 | 00:00:00 | |
| HSKMA3-T | 2026-09-04 00:45:47 | 52.38256 | 11.44967 | 111° | 62km/h | 17233m | -26m/s | -54.9°C | 0% | 90.1hPa | 2.6V | 03:01:34 | 02:51:02 | 00:00:00 | |
| DL1XH-west | 2026-09-04 00:45:46 | 52.38261 | 11.44943 | 111° | 58km/h | 17259m | -26.4m/s | -54.6°C | 0% | 89.8hPa | 2.6V | 03:01:34 | 02:51:01 | 00:00:00 | |
| AA1-15 | 2026-09-04 00:45:45 | 52.38266 | 11.44920 | 111° | 57km/h | 17284m | -26.3m/s | -54.7°C | 0% | 89.4hPa | 2.5V | 03:01:34 | 02:51:00 | 00:00:00 | |
| DL1NUX | 2026-09-04 00:45:44 | 52.38276 | 11.44876 | 108° | 53km/h | 17336m | -27.1m/s | -54.8°C | 4% | 88.7hPa | 2.5V | 03:01:27 | 02:50:58 | 00:00:00 | |
| DD8BA-10 | 2026-09-04 00:45:43 | 52.38276 | 11.44876 | 109° | 57km/h | 17336m | -27.1m/s | -54.8°C | 4.0% | 88.7hPa | 2.6V | 00:00:00 | 00:00:00 | 00:00:00 | |
| HTAHTA | 2026-09-04 00:45:42 | 52.38285 | 11.44833 | 108° | 55km/h | 17388m | -27.5m/s | -54.6°C | 0.9% | 88.0hPa | 2.6V | 00:00:00 | 00:00:00 | 00:00:00 | |
| DM0DOS-11 | 2026-09-04 00:45:41 | 52.38301 | 11.44742 | 105° | 58km/h | 17494m | -27m/s | -55°C | 4% | 86.6hPa | 2.6V | 03:01:33 | 02:50:52 | 00:00:00 | |
| DF8AY | 2026-09-04 00:45:40 | 52.38289 | 11.44811 | 107° | 57km/h | 17414m | -26.9m/s | -54.7°C | 0% | 87.6hPa | 2.5V | 03:03:16 | 02:50:55 | 00:00:00 | |
| DO2SHX-10 | 2026-09-04 00:45:40 | 52.38289 | 11.44810 | 107° | 57km/h | 17414m | -26.8m/s | -54.7°C | 4.0% | 87.5hPa | 2.5V | 00:00:00 | 02:50:55 | 00:00:00 | |
| DL1XH1-15 | 2026-09-04 00:45:39 | 52.38297 | 11.44766 | 105° | 58km/h | 17467m | -27.3m/s | -54.9°C | 4% | 86.9hPa | 2.6V | 03:01:32 | 02:50:53 | 00:00:00 | |
| SONCRA | 2026-09-04 00:45:39 | 52.38297 | 11.44766 | 105° | 57km/h | 17467m | -27.3m/s | -54.9°C | 0.9% | 86.9hPa | 2.5V | 00:00:00 | 00:00:00 | 00:00:00 | |
| DL1NUX | 2026-09-04 00:45:38 | 52.38320 | 11.44625 | 106° | 57km/h | 17619m | -25.8m/s | -55°C | 4.2% | 84.8hPa | 2.5V | 03:01:38 | 02:50:47 | 00:00:00 | |
| HSKMA3-T | 2026-09-04 00:45:37 | 52.38301 | 11.44742 | 105° | 58km/h | 17494m | -27m/s | -55°C | 0% | 86.6hPa | 2.6V | 03:01:34 | 02:50:52 | 00:00:00 | |
| DL1XH-west | 2026-09-04 00:45:35 | 52.38308 | 11.44696 | 106° | 57km/h | 17545m | -25.7m/s | -54.9°C | 0% | 85.8hPa | 2.5V | 03:02:25 | 02:50:50 | 00:00:00 | |
| AA1-15 | 2026-09-04 00:45:34 | 52.38312 | 11.44672 | 105° | 60km/h | 17570m | -25.3m/s | -54.9°C | 0% | 85.4hPa | 2.6V | 03:02:25 | 02:50:49 | 00:00:00 | |
| DL4BBY-15 | 2026-09-04 00:45:34 | 52.38312 | 11.44672 | 106° | 44km/h | 17570m | -25.3m/s | -54.6°C | 0% | 0hPa | 2.6V | 00:00:00 | 00:00:00 | 00:00:00 | |
| DD8BA-10 | 2026-09-04 00:45:33 | 52.38316 | 11.44649 | 106° | 57km/h | 17595m | -25.6m/s | -55.0°C | 4.1% | 85.1hPa | 2.6V | 00:00:00 | 00:00:00 | 00:00:00 | |
| DO3MHA-11 | 2026-09-04 00:45:32 | 52.38320 | 11.44625 | 107° | 55km/h | 17619m | -25.8m/s | -54.9°C | 4.2% | 84.7hPa | 2.6V | 00:00:00 | 02:50:47 | 00:00:00 | |
| 13BRC | 2026-09-04 00:45:31 | 52.38324 | 11.44601 | 108° | 60km/h | 17644m | -25.7m/s | -54.5°C | 0.9% | 84.5hPa | 2.6V | 03:02:00 | 00:00:00 | 00:00:00 | |
| DL4XJ-10 | 2026-09-04 00:45:30 | 52.38329 | 11.44578 | 110° | 27km/h | 17670m | -26.0m/s | -53.7°C | 0% | 0hPa | 2.6V | 00:00:00 | 00:00:00 | 00:00:00 | |
| DM0DOS-11 | 2026-09-04 00:45:29 | 52.38346 | 11.44511 | 118° | 57km/h | 17746m | -25.8m/s | -53.4°C | 3.6% | 83.2hPa | 2.6V | 03:01:43 | 02:50:42 | 00:00:00 | |
| HSKMA3-T | 2026-09-04 00:45:26 | 52.38354 | 11.44491 | 121° | 55km/h | 17771m | -25.7m/s | -53.6°C | 0% | 82.9hPa | 2.5V | 03:02:25 | 02:50:41 | 00:00:00 | |
| DL1XH-west | 2026-09-04 00:45:25 | 52.38369 | 11.44452 | 126° | 53km/h | 17821m | -26.8m/s | -53.8°C | 0% | 82.3hPa | 2.5V | 03:02:25 | 02:50:39 | 00:00:00 | |
| DL1NUX | 2026-09-04 00:45:24 | 52.38385 | 11.44417 | 128° | 51km/h | 17873m | -26.8m/s | -53.8°C | 3.7% | 81.6hPa | 2.6V | 03:01:48 | 02:50:37 | 00:00:00 | |
| AA1-15 | 2026-09-04 00:45:23 | 52.38377 | 11.44434 | 126° | 55km/h | 17848m | -26.8m/s | -53.8°C | 0% | 81.9hPa | 2.6V | 03:02:25 | 02:50:38 | 00:00:00 | |
| DF8AY | 2026-09-04 00:45:18 | 52.38414 | 11.44359 | 128° | 38km/h | 17976m | -26m/s | -53.2°C | 0% | 80.3hPa | 2.5V | 03:03:16 | 02:50:33 | 00:00:00 | |
| DL1NUX | 2026-09-04 00:45:17 | 52.38441 | 11.44285 | 113° | 31km/h | 18133m | -27.2m/s | -53.4°C | 3.5% | 78.4hPa | 2.5V | 03:01:58 | 02:50:27 | 00:00:00 | |
| HSKMA3-T | 2026-09-04 00:45:17 | 52.38426 | 11.44334 | 123° | 37km/h | 18028m | -26.9m/s | -52.9°C | 0% | 79.7hPa | 2.6V | 03:02:25 | 02:50:31 | 00:00:00 | |
| DL1XH-west | 2026-09-04 00:45:14 | 52.38434 | 11.44310 | 120° | 33km/h | 18080m | -26.9m/s | -53.1°C | 0% | 79hPa | 2.5V | 03:02:25 | 02:50:29 | 00:00:00 | |
| AA1-15 | 2026-09-04 00:45:12 | 52.38441 | 11.44285 | 113° | 31km/h | 18133m | -27.2m/s | -53.4°C | 0% | 78.4hPa | 2.5V | 03:02:25 | 02:50:27 | 00:00:00 | |
| DD8BA-10 | 2026-09-04 00:45:12 | 52.38441 | 11.44285 | 114° | 33km/h | 18133m | -27.2m/s | -53.3°C | 3.5% | 78.3hPa | 2.6V | 03:01:00 | 00:00:00 | 00:00:00 | |
| DB0NH | 2026-09-04 00:45:11 | 52.38444 | 11.44273 | 111° | 38km/h | 18159m | -27.2m/s | -53.5°C | 3.6% | 78.1hPa | 2.6V | 00:00:00 | 02:50:26 | 00:00:00 | |
| DL1XH1-15 | 2026-09-04 00:45:10 | 52.38451 | 11.44233 | 105° | 33km/h | 18238m | -27.7m/s | -53.7°C | 3.6% | 77.2hPa | 2.5V | 03:02:02 | 02:50:23 | 00:00:00 | |
| DF8AY | 2026-09-04 00:45:08 | 52.38453 | 11.44219 | 105° | 35km/h | 18264m | -27.3m/s | -53.9°C | 0% | 76.8hPa | 2.6V | 03:03:16 | 02:50:22 | 00:00:00 | |
| HSKMA3-T | 2026-09-04 00:45:05 | 52.38457 | 11.44191 | 108° | 35km/h | 18317m | -27.2m/s | -54.2°C | 0% | 76.2hPa | 2.5V | 03:02:25 | 02:50:20 | 00:00:00 | |
| DL1XH-west | 2026-09-04 00:45:03 | 52.38465 | 11.44149 | 111° | 35km/h | 18398m | -27.5m/s | -53.5°C | 0% | 75.2hPa | 2.6V | 03:02:25 | 02:50:17 | 00:00:00 | |
| AA1-15 | 2026-09-04 00:45:02 | 52.38468 | 11.44136 | 111° | 35km/h | 18425m | -28.6m/s | -53.4°C | 0% | 74.9hPa | 2.5V | 03:02:25 | 02:50:16 | 00:00:00 | |
| DO2SHX-10 | 2026-09-04 00:45:01 | 52.38468 | 11.44136 | 111° | 35km/h | 18425m | -28.5m/s | -53.3°C | 3.5% | 74.8hPa | 2.6V | 00:00:00 | 02:50:16 | 00:00:00 | |
| DO3MHA-11 | 2026-09-04 00:45:00 | 52.38471 | 11.44122 | 114° | 38km/h | 18453m | -28.5m/s | -53.2°C | 3.5% | 74.6hPa | 2.6V | 00:00:00 | 02:50:15 | 00:00:00 | |
| DL1XH1-15 | 2026-09-04 00:44:59 | 52.38478 | 11.44094 | 112° | 35km/h | 18510m | -29.4m/s | -53.8°C | 3.7% | 74hPa | 2.6V | 03:02:12 | 02:50:13 | 00:00:00 | |
| DF8AY | 2026-09-04 00:44:57 | 52.38482 | 11.44081 | 116° | 35km/h | 18538m | -28.7m/s | -54°C | 0% | 73.7hPa | 2.5V | 03:03:16 | 02:50:12 | 00:00:00 | |
| DL1NUX | 2026-09-04 00:44:57 | 52.38503 | 11.44009 | 120° | 42km/h | 18676m | -27.8m/s | -54.3°C | 3.9% | 72hPa | 2.6V | 03:02:18 | 02:50:07 | 00:00:00 | |
| HSKMA3-T | 2026-09-04 00:44:55 | 52.38490 | 11.44052 | 116° | 38km/h | 18594m | -28.3m/s | -54.5°C | 0% | 73hPa | 2.5V | 03:02:25 | 02:50:10 | 00:00:00 | |
| DL1XH-west | 2026-09-04 00:44:51 | 52.38509 | 11.43994 | 121° | 42km/h | 18703m | -28.2m/s | -54.3°C | 0% | 71.8hPa | 2.5V | 03:02:25 | 02:50:06 | 00:00:00 | |
| AA1-15 | 2026-09-04 00:44:50 | 52.38514 | 11.43978 | 125° | 46km/h | 18731m | -28.6m/s | -54.4°C | 0% | 71.5hPa | 2.5V | 03:02:25 | 02:50:05 | 00:00:00 | |
| DO3MHA-11 | 2026-09-04 00:44:50 | 52.38514 | 11.43978 | 125° | 44km/h | 18731m | -28.6m/s | -54.3°C | 3.9% | 71.4hPa | 2.5V | 00:00:00 | 02:50:05 | 00:00:00 | |
| DL1XH1-15 | 2026-09-04 00:44:49 | 52.38527 | 11.43946 | 125° | 46km/h | 18788m | -28.6m/s | -54.5°C | 3.9% | 70.9hPa | 2.6V | 03:02:22 | 02:50:03 | 00:00:00 | |
| DM0DOS-11 | 2026-09-04 00:44:49 | 52.38535 | 11.43931 | 126° | 47km/h | 18815m | -27.7m/s | -54.4°C | 4% | 70.5hPa | 2.6V | 03:02:23 | 02:50:02 | 00:00:00 | |
| DF8AY | 2026-09-04 00:44:47 | 52.38542 | 11.43915 | 128° | 49km/h | 18842m | -27.6m/s | -54.2°C | 0% | 70.2hPa | 2.6V | 03:03:16 | 02:50:01 | 00:00:00 | |
| HSKMA3-T | 2026-09-04 00:44:44 | 52.38557 | 11.43886 | 135° | 44km/h | 18897m | -27.6m/s | -54°C | 0% | 69.6hPa | 2.5V | 03:03:16 | 02:49:59 | 00:00:00 | |
| DL1NUX | 2026-09-04 00:44:44 | 52.38572 | 11.43862 | 138° | 37km/h | 18952m | -27.6m/s | -53.1°C | 3.5% | 69.1hPa | 2.6V | 03:02:28 | 02:49:57 | 00:00:00 | |
| DL1XH-west | 2026-09-04 00:44:41 | 52.38579 | 11.43852 | 145° | 35km/h | 18978m | -27.4m/s | -53.2°C | 0% | 68.7hPa | 2.6V | 03:03:16 | 02:49:56 | 00:00:00 | |
| AA1-15 | 2026-09-04 00:44:40 | 52.38592 | 11.43837 | 149° | 27km/h | 19033m | -28.4m/s | -53.2°C | 0% | 68.2hPa | 2.5V | 03:03:16 | 02:49:54 | 00:00:00 | |
| DO2SHX-10 | 2026-09-04 00:44:40 | 52.38586 | 11.43844 | 144° | 29km/h | 19006m | -28.3m/s | -53.1°C | 3.5% | 68.5hPa | 2.5V | 00:00:00 | 02:49:55 | 00:00:00 | |
| DL1XH1-15 | 2026-09-04 00:44:39 | 52.38598 | 11.43831 | 150° | 26km/h | 19061m | -27.8m/s | -53.2°C | 3.6% | 67.8hPa | 2.5V | 03:02:32 | 02:49:53 | 00:00:00 | |
| DO3MHA-11 | 2026-09-04 00:44:39 | 52.38592 | 11.43837 | 150° | 20km/h | 19034m | -28.3m/s | -53.1°C | 3.5% | 68.1hPa | 2.5V | 00:00:00 | 02:49:54 | 00:00:00 | |
| DL1NUX | 2026-09-04 00:44:37 | 52.38618 | 11.43796 | 109° | 18km/h | 19230m | -28.3m/s | -53.3°C | 3.5% | 66.1hPa | 2.5V | 03:02:38 | 02:49:47 | 00:00:00 | |
| DF8AY | 2026-09-04 00:44:36 | 52.38622 | 11.43759 | 98° | 26km/h | 19345m | -29.8m/s | -53.5°C | 0% | 64.9hPa | 2.6V | 03:03:16 | 02:49:43 | 00:00:00 | |
| HSKMA3-T | 2026-09-04 00:44:34 | 52.38614 | 11.43809 | 121° | 16km/h | 19174m | -29.3m/s | -53.1°C | 0% | 66.7hPa | 2.6V | 03:03:16 | 02:49:49 | 00:00:00 | |
| DO2SHX-10 | 2026-09-04 00:44:34 | 52.38614 | 11.43809 | 121° | 16km/h | 19174m | -29.2m/s | -53.0°C | 3.5% | 66.7hPa | 2.5V | 00:00:00 | 02:49:49 | 00:00:00 | |
| DF7ER-10 | 2026-09-04 00:44:33 | 52.38614 | 11.43809 | 122° | 16km/h | 19174m | -29.3m/s | -53.1°C | 0.8% | 66.7hPa | 2.5V | 03:03:00 | 00:00:00 | 00:00:00 | |
| DD8BA-10 | 2026-09-04 00:44:32 | 52.38618 | 11.43796 | 110° | 26km/h | 19230m | -28.3m/s | -53.2°C | 3.5% | 66.0hPa | 2.5V | 03:02:00 | 00:00:00 | 00:00:00 | |
| DM0DOS-11 | 2026-09-04 00:44:31 | 52.38623 | 11.43748 | 98° | 27km/h | 19373m | -29.3m/s | -53.5°C | 3.5% | 64.6hPa | 2.5V | 03:02:43 | 02:49:42 | 00:00:00 | |
| DL1XH-west | 2026-09-04 00:44:30 | 52.38620 | 11.43780 | 103° | 22km/h | 19287m | -29m/s | -53.4°C | 0% | 65.5hPa | 2.6V | 03:03:16 | 02:49:45 | 00:00:00 | |
| AA1-15 | 2026-09-04 00:44:29 | 52.38621 | 11.43770 | 98° | 26km/h | 19316m | -30m/s | -53.4°C | 0% | 65.3hPa | 2.6V | 03:03:16 | 02:49:44 | 00:00:00 | |
| DO3MHA-11 | 2026-09-04 00:44:29 | 52.38621 | 11.43770 | 99° | 29km/h | 19316m | -29.9m/s | -53.4°C | 3.5% | 65.2hPa | 2.6V | 03:02:00 | 02:49:44 | 00:00:00 | |
| 13BRC | 2026-09-04 00:44:28 | 52.38622 | 11.43759 | 99° | 26km/h | 19345m | -29.8m/s | -53.5°C | 0.7% | 64.9hPa | 2.6V | 03:03:00 | 00:00:00 | 00:00:00 | |
| DL1NUX | 2026-09-04 00:44:27 | 52.38632 | 11.43687 | 111° | 27km/h | 19519m | -30.6m/s | -53.3°C | 3.4% | 63.2hPa | 2.6V | 03:02:48 | 02:49:37 | 00:00:00 | |
| DF8AY | 2026-09-04 00:44:27 | 52.38635 | 11.43676 | 116° | 29km/h | 19549m | -30.1m/s | -53.3°C | 0% | 63hPa | 2.5V | 03:03:16 | 02:49:36 | 00:00:00 | |
| HSKMA3-T | 2026-09-04 00:44:24 | 52.38629 | 11.43698 | 108° | 31km/h | 19489m | -31m/s | -53.2°C | 0% | 63.5hPa | 2.6V | 03:03:16 | 02:49:38 | 00:00:00 | |
| DL1XH-west | 2026-09-04 00:44:20 | 52.38642 | 11.43655 | 122° | 27km/h | 19607m | -30.1m/s | -53.6°C | 0% | 62.4hPa | 2.5V | 03:03:16 | 02:49:34 | 00:00:00 | |
| DM0DOS-11 | 2026-09-04 00:44:19 | 52.38650 | 11.43637 | 130° | 26km/h | 19666m | -30.4m/s | -53.8°C | 3.6% | 61.8hPa | 2.6V | 03:02:53 | 02:49:32 | 00:00:00 | |
| AA1-15 | 2026-09-04 00:44:18 | 52.38645 | 11.43645 | 128° | 26km/h | 19637m | -29.7m/s | -53.7°C | 0% | 62.1hPa | 2.6V | 03:03:16 | 02:49:33 | 00:00:00 | |
| EDDB2-11 | 2026-09-04 00:44:17 | 52.38654 | 11.43629 | 136° | 22km/h | 19696m | -30.7m/s | -53.7°C | 0.7% | 61.6hPa | 2.5V | 00:00:00 | 00:00:00 | 00:00:00 | |
| DO2SHX-10 | 2026-09-04 00:44:16 | 52.38654 | 11.43629 | 137° | 22km/h | 19696m | -30.6m/s | -53.6°C | 3.5% | 61.5hPa | 2.5V | 00:00:00 | 02:49:31 | 00:00:00 | |
| DF8AY-15 | 2026-09-04 00:44:15 | 52.38658 | 11.43622 | 143° | 16km/h | 19727m | -29.9m/s | -53.5°C | 3.5% | 61.2hPa | 2.5V | 00:00:00 | 02:49:30 | 00:00:00 | |
| DL1NUX | 2026-09-04 00:44:14 | 52.38671 | 11.43607 | 153° | 20km/h | 19817m | -31.1m/s | -54°C | 3.7% | 60.4hPa | 2.6V | 03:02:58 | 02:49:27 | 00:00:00 | |
| HSKMA3-T | 2026-09-04 00:44:12 | 52.38671 | 11.43607 | 153° | 20km/h | 19817m | -31.1m/s | -54°C | 0% | 60.4hPa | 2.6V | 03:03:16 | 02:49:27 | 00:00:00 | |
| GOEST3-10 | 2026-09-04 00:44:12 | 52.38671 | 11.43607 | 154° | 18km/h | 19817m | -31.0m/s | -54.0°C | 3.7% | 60.4hPa | 2.6V | 00:00:00 | 02:49:27 | 00:00:00 | |
| DB0NH | 2026-09-04 00:44:11 | 52.38675 | 11.43603 | 143° | 18km/h | 19848m | -31.2m/s | -54.2°C | 3.7% | 60.1hPa | 2.6V | 00:00:00 | 02:49:26 | 00:00:00 | |
| DO2SHX-10 | 2026-09-04 00:44:10 | 52.38679 | 11.43599 | 153° | 16km/h | 19880m | -31.8m/s | -54.4°C | 3.8% | 59.8hPa | 2.6V | 00:00:00 | 02:49:25 | 00:00:00 | |
| DL1XH1-15 | 2026-09-04 00:44:09 | 52.38686 | 11.43591 | 139° | 15km/h | 19943m | -32.6m/s | -54.9°C | 3.9% | 59.3hPa | 2.5V | 03:03:02 | 02:49:23 | 00:00:00 | |
| DL1XH-west | 2026-09-04 00:44:09 | 52.38683 | 11.43595 | 143° | 18km/h | 19911m | -32.5m/s | -54.7°C | 0% | 59.6hPa | 2.5V | 03:03:16 | 02:49:24 | 00:00:00 | |
| AA1-15 | 2026-09-04 00:44:08 | 52.38689 | 11.43587 | 139° | 15km/h | 19974m | -31.9m/s | -55.2°C | 0% | 59hPa | 2.5V | 03:03:16 | 02:49:22 | 00:00:00 | |
| HSKMA3-T | 2026-09-04 00:44:02 | 52.38697 | 11.43559 | 97° | 18km/h | 20131m | -32.7m/s | -55.4°C | 0.1% | 57.6hPa | 2.5V | 03:03:16 | 02:49:17 | 00:00:00 | |
| TFSTFS | 2026-09-04 00:44:02 | 52.38697 | 11.43559 | 98° | 18km/h | 20132m | -32.7m/s | -55.4°C | 0.9% | 57.6hPa | 2.6V | 03:03:00 | 00:00:00 | 00:00:00 | |
| DF7ER-10 | 2026-09-04 00:44:01 | 52.38697 | 11.43559 | 98° | 18km/h | 20132m | -32.7m/s | -55.4°C | 0.9% | 57.6hPa | 2.6V | 03:03:00 | 00:00:00 | 00:00:00 | |
| SMARD9-15 | 2026-09-04 00:44:00 | 52.38698 | 11.43544 | 100° | 16km/h | 20195m | -32.0m/s | -54.9°C | 0.8% | 56.9hPa | 2.6V | 00:00:00 | 00:00:00 | 00:00:00 | |
| DL1XH1-15 | 2026-09-04 00:43:59 | 52.38699 | 11.43530 | 103° | 18km/h | 20257m | -31.4m/s | -54.7°C | 4% | 56.4hPa | 2.6V | 03:03:12 | 02:49:13 | 00:00:00 | |
| DM0DOS-11 | 2026-09-04 00:43:59 | 52.38700 | 11.43522 | 101° | 18km/h | 20288m | -31.6m/s | -54.8°C | 4.1% | 56.1hPa | 2.5V | 03:03:13 | 02:49:12 | 00:00:00 | |
| DF8AY | 2026-09-04 00:43:58 | 52.38699 | 11.43530 | 104° | 18km/h | 20257m | -31.4m/s | -54.7°C | 0% | 56.4hPa | 2.6V | 03:03:16 | 02:49:13 | 00:00:00 | |
| AA1-15 | 2026-09-04 00:43:57 | 52.38700 | 11.43522 | 102° | 18km/h | 20288m | -31.6m/s | -54.8°C | 0% | 56.1hPa | 2.5V | 03:03:16 | 02:49:12 | 00:00:00 | |
| GOEST3-10 | 2026-09-04 00:43:57 | 52.38700 | 11.43522 | 102° | 18km/h | 20288m | -31.6m/s | -54.7°C | 4.1% | 56.1hPa | 2.6V | 03:03:00 | 00:00:00 | 00:00:00 | |
| DO2SHX-10 | 2026-09-04 00:43:55 | 52.38703 | 11.43507 | 110° | 18km/h | 20350m | -31.7m/s | -54.5°C | 4.0% | 55.5hPa | 2.6V | 03:03:00 | 02:49:10 | 00:00:00 | |
| DM0DOS-11 | 2026-09-04 00:43:52 | 52.38716 | 11.43452 | 109° | 16km/h | 20605m | -33.3m/s | -53.6°C | 3.7% | 53.4hPa | 2.6V | 03:03:23 | 02:49:02 | 00:00:00 | |
| HSKMA3-T | 2026-09-04 00:43:51 | 52.38710 | 11.43480 | 113° | 18km/h | 20474m | -32.1m/s | -54°C | 0% | 54.5hPa | 2.5V | 03:04:07 | 02:49:06 | 00:00:00 | |
| AM1SDL-15 | 2026-09-04 00:43:50 | 52.38712 | 11.43473 | 118° | 20km/h | 20507m | -33.0m/s | -53.7°C | 3.7% | 54.2hPa | 2.6V | 00:00:00 | 02:49:05 | 00:00:00 | |
| DL1XH1-15 | 2026-09-04 00:43:49 | 52.38715 | 11.43459 | 110° | 16km/h | 20572m | -34.3m/s | -53.4°C | 3.6% | 53.7hPa | 2.6V | 03:03:22 | 02:49:03 | 00:00:00 | |
| DL1XH-west | 2026-09-04 00:43:48 | 52.38716 | 11.43452 | 110° | 16km/h | 20605m | -33.3m/s | -53.6°C | 0% | 53.4hPa | 2.6V | 03:04:07 | 02:49:02 | 00:00:00 | |
| AA1-15 | 2026-09-04 00:43:46 | 52.38718 | 11.43445 | 112° | 18km/h | 20637m | -31.7m/s | -53.7°C | 0% | 53.2hPa | 2.6V | 03:04:07 | 02:49:01 | 00:00:00 | |
| EDDB2-11 | 2026-09-04 00:43:46 | 52.38719 | 11.43437 | 113° | 22km/h | 20668m | -32.4m/s | -53.9°C | 0.7% | 52.9hPa | 2.6V | 00:00:00 | 00:00:00 | 00:00:00 | |
| HSKMA3-T | 2026-09-04 00:43:40 | 52.38731 | 11.43391 | 114° | 26km/h | 20825m | -32m/s | -53.6°C | 0% | 51.6hPa | 2.6V | 03:04:07 | 02:48:55 | 00:00:00 | |
| DO2SHX-10 | 2026-09-04 00:43:40 | 52.38731 | 11.43391 | 114° | 26km/h | 20825m | -31.9m/s | -53.6°C | 3.7% | 51.6hPa | 2.5V | 00:00:00 | 02:48:55 | 00:00:00 | |
| DL1XH1-15 | 2026-09-04 00:43:39 | 52.38736 | 11.43371 | 113° | 26km/h | 20888m | -32.8m/s | -53.7°C | 3.8% | 51.1hPa | 2.5V | 03:03:32 | 02:48:53 | 00:00:00 | |
| DM0DOS-11 | 2026-09-04 00:43:39 | 52.38739 | 11.43360 | 115° | 29km/h | 20921m | -33.1m/s | -53.8°C | 3.8% | 50.9hPa | 2.5V | 03:03:33 | 02:48:52 | 00:00:00 | |
| DL1XH-west | 2026-09-04 00:43:37 | 52.38742 | 11.43350 | 118° | 27km/h | 20953m | -33.3m/s | -53.8°C | 0% | 50.6hPa | 2.6V | 03:04:07 | 02:48:51 | 00:00:00 | |
| AA1-15 | 2026-09-04 00:43:36 | 52.38745 | 11.43340 | 119° | 29km/h | 20986m | -33.3m/s | -53.5°C | 0% | 50.3hPa | 2.6V | 03:04:07 | 02:48:50 | 00:00:00 | |
| DF8AY-15 | 2026-09-04 00:43:35 | 52.38745 | 11.43340 | 120° | 22km/h | 20986m | -33.3m/s | -53.5°C | 3.8% | 50.3hPa | 2.5V | 03:03:00 | 02:48:50 | 00:00:00 | |
| EDDB2-12 | 2026-09-04 00:43:34 | 52.38752 | 11.43319 | 117° | 26km/h | 21051m | -32.1m/s | -53.5°C | 0.7% | 49.8hPa | 2.5V | 00:00:00 | 00:00:00 | 00:00:00 | |
| DM0DOS-11 | 2026-09-04 00:43:32 | 52.38772 | 11.43268 | 127° | 22km/h | 21244m | -33.1m/s | -53.8°C | 3.9% | 48.4hPa | 2.5V | 03:03:43 | 02:48:42 | 00:00:00 | |
| HSKMA3-T | 2026-09-04 00:43:30 | 52.38765 | 11.43283 | 125° | 22km/h | 21179m | -32.4m/s | -53.8°C | 0% | 48.9hPa | 2.6V | 03:04:07 | 02:48:44 | 00:00:00 | |
| DL1XH1-15 | 2026-09-04 00:43:29 | 52.38768 | 11.43276 | 125° | 24km/h | 21211m | -32.9m/s | -53.8°C | 3.9% | 48.6hPa | 2.6V | 03:03:42 | 02:48:43 | 00:00:00 | |
| DB0UT-7 | 2026-09-04 00:43:29 | 52.38765 | 11.43283 | 126° | 16km/h | 21179m | -32.3m/s | -53.7°C | 3.9% | 48.8hPa | 2.6V | 03:03:00 | 02:48:44 | 00:00:00 | |
| DO2SHX-10 | 2026-09-04 00:43:28 | 52.38769 | 11.43275 | 126° | 22km/h | 21211m | -32.9m/s | -53.7°C | 3.9% | 48.6hPa | 2.6V | 00:00:00 | 02:48:43 | 00:00:00 | |
| DL1NUX | 2026-09-04 00:43:27 | 52.38789 | 11.43230 | 128° | 24km/h | 21405m | -33.9m/s | -53.4°C | 3.8% | 47.2hPa | 2.6V | 03:03:48 | 02:48:37 | 00:00:00 | |
| DL1XH-west | 2026-09-04 00:43:26 | 52.38775 | 11.43261 | 127° | 20km/h | 21276m | -32.9m/s | -53.6°C | 0% | 48.2hPa | 2.5V | 03:04:07 | 02:48:41 | 00:00:00 | |
| AA1-15 | 2026-09-04 00:43:25 | 52.38778 | 11.43253 | 127° | 24km/h | 21308m | -33.1m/s | -53.6°C | 0% | 47.9hPa | 2.5V | 03:04:07 | 02:48:40 | 00:00:00 | |
| DO2SHX-10 | 2026-09-04 00:43:25 | 52.38778 | 11.43253 | 127° | 22km/h | 21309m | -33.1m/s | -53.5°C | 3.9% | 47.9hPa | 2.5V | 00:00:00 | 02:48:40 | 00:00:00 | |
| DO2SHX-10 | 2026-09-04 00:43:22 | 52.38788 | 11.43230 | 129° | 22km/h | 21405m | -33.8m/s | -53.3°C | 3.8% | 47.2hPa | 2.5V | 00:00:00 | 02:48:37 | 00:00:00 | |
| TFSTFS | 2026-09-04 00:43:21 | 52.38792 | 11.43222 | 130° | 24km/h | 21438m | -33.2m/s | -53.1°C | 0.7% | 46.9hPa | 2.5V | 03:04:00 | 00:00:00 | 00:00:00 | |
| DD8BA-10 | 2026-09-04 00:43:20 | 52.38796 | 11.43215 | 136° | 15km/h | 21471m | -33.3m/s | -52.7°C | 3.6% | 46.7hPa | 2.5V | 00:00:00 | 00:00:00 | 00:00:00 | |
| DL1XH1-15 | 2026-09-04 00:43:19 | 52.38803 | 11.43203 | 135° | 18km/h | 21536m | -33.2m/s | -52.7°C | 3.6% | 46.2hPa | 2.6V | 03:03:52 | 02:48:33 | 00:00:00 | |
| HSKMA3-T | 2026-09-04 00:43:19 | 52.38804 | 11.43203 | 136° | 18km/h | 21536m | -33.2m/s | -52.7°C | 0% | 46.2hPa | 2.6V | 03:04:07 | 02:48:33 | 00:00:00 | |
| DM0DOS-11 | 2026-09-04 00:43:18 | 52.38807 | 11.43198 | 146° | 16km/h | 21569m | -33.1m/s | -52.5°C | 3.6% | 46hPa | 2.6V | 03:03:53 | 02:48:32 | 00:00:00 | |
| DL1XH-west | 2026-09-04 00:43:16 | 52.38810 | 11.43194 | 143° | 15km/h | 21601m | -33.8m/s | -52.4°C | 0% | 45.8hPa | 2.6V | 03:04:07 | 02:48:31 | 00:00:00 | |
| AA1-15 | 2026-09-04 00:43:14 | 52.38816 | 11.43189 | 163° | 11km/h | 21669m | -34.7m/s | -51.5°C | 0% | 45.3hPa | 2.5V | 03:04:07 | 02:48:29 | 00:00:00 | |
| DF8AY | 2026-09-04 00:43:14 | 52.38818 | 11.43187 | 158° | 9km/h | 21703m | -34.6m/s | -51.1°C | 0% | 45.1hPa | 2.5V | 03:04:07 | 02:48:28 | 00:00:00 | |
| DO2SHX-10 | 2026-09-04 00:43:13 | 52.38818 | 11.43187 | 158° | 9km/h | 21703m | -34.6m/s | -51.1°C | 3.1% | 45.1hPa | 2.5V | 00:00:00 | 02:48:28 | 00:00:00 | |
| GOEST3-10 | 2026-09-04 00:43:12 | 52.38820 | 11.43186 | 173° | 11km/h | 21737m | -35.0m/s | -51.0°C | 3.0% | 44.8hPa | 2.5V | 00:00:00 | 02:48:27 | 00:00:00 | |
| DL1XH-15 | 2026-09-04 00:43:11 | 52.38833 | 11.43176 | 156° | 15km/h | 21915m | -36.6m/s | -51.8°C | 3.2% | 43.7hPa | 2.5V | 03:04:03 | 02:48:22 | 00:00:00 | |
| HSKMA3-T | 2026-09-04 00:43:07 | 52.38833 | 11.43176 | 157° | 15km/h | 21915m | -36.6m/s | -51.8°C | 0% | 43.7hPa | 2.5V | 03:04:07 | 02:48:22 | 00:00:00 | |
| DL1XH-west | 2026-09-04 00:43:05 | 52.38842 | 11.43171 | 166° | 18km/h | 21986m | -35.5m/s | -52°C | 0% | 43.2hPa | 2.6V | 03:04:07 | 02:48:20 | 00:00:00 | |
| AA1-15 | 2026-09-04 00:43:04 | 52.38851 | 11.43166 | 165° | 18km/h | 22056m | -34.9m/s | -52.1°C | 0% | 42.7hPa | 2.5V | 03:04:07 | 02:48:18 | 00:00:00 | |
| DF8AY | 2026-09-04 00:42:59 | 52.38873 | 11.43173 | 307° | 5km/h | 22375m | -36.8m/s | -52°C | 0% | 40.7hPa | 2.5V | 03:07:31 | 02:48:09 | 00:00:00 | |
| DL1XH1-15 | 2026-09-04 00:42:59 | 52.38870 | 11.43166 | 199° | 9km/h | 22231m | -37m/s | -51.7°C | 3.2% | 41.6hPa | 2.5V | 03:04:12 | 02:48:13 | 00:00:00 | |
| HSKMA3-T | 2026-09-04 00:42:56 | 52.38873 | 11.43170 | 239° | 7km/h | 22304m | -36.5m/s | -51.8°C | 0% | 41.1hPa | 2.6V | 03:04:58 | 02:48:11 | 00:00:00 | |
| DL1XH-west | 2026-09-04 00:42:55 | 52.38873 | 11.43172 | 264° | 4km/h | 22340m | -36.4m/s | -51.9°C | 0% | 40.9hPa | 2.5V | 03:04:58 | 02:48:10 | 00:00:00 | |
| AA1-15 | 2026-09-04 00:42:53 | 52.38871 | 11.43174 | 2° | 7km/h | 22449m | -37.7m/s | -52.2°C | 0% | 40.3hPa | 2.6V | 03:04:58 | 02:48:07 | 00:00:00 | |
| S3001 | 2026-09-04 00:42:50 | 52.38865 | 11.43170 | 38° | 7km/h | 22557m | -35.8m/s | -52.8°C | 0.6% | 39.6hPa | 2.6V | 00:00:00 | 00:00:00 | 00:00:00 | |
| DL1XH1-15 | 2026-09-04 00:42:49 | 52.38863 | 11.43167 | 53° | 11km/h | 22592m | -36.5m/s | -52.8°C | 3.6% | 39.3hPa | 2.6V | 03:04:22 | 02:48:03 | 00:00:00 | |
| HSKMA3-T | 2026-09-04 00:42:47 | 52.38861 | 11.43159 | 79° | 13km/h | 22665m | -36.7m/s | -53°C | 0% | 38.9hPa | 2.5V | 03:04:58 | 02:48:01 | 00:00:00 | |
| DL1XH-west | 2026-09-04 00:42:45 | 52.38860 | 11.43153 | 79° | 15km/h | 22701m | -36.9m/s | -52.9°C | 0% | 38.7hPa | 2.6V | 03:04:58 | 02:48:00 | 00:00:00 | |
| DL1NUX | 2026-09-04 00:42:44 | 52.38859 | 11.43135 | 96° | 16km/h | 22809m | -36.1m/s | -52.5°C | 3.6% | 38hPa | 2.5V | 03:04:28 | 02:47:57 | 00:00:00 | |
| AA1-15 | 2026-09-04 00:42:42 | 52.38859 | 11.43129 | 94° | 13km/h | 22844m | -36.7m/s | -52.4°C | 0% | 37.8hPa | 2.5V | 03:04:58 | 02:47:56 | 00:00:00 | |
| DB0NH | 2026-09-04 00:42:41 | 52.38859 | 11.43129 | 94° | 16km/h | 22844m | -36.7m/s | -52.3°C | 3.6% | 37.7hPa | 2.6V | 00:00:00 | 02:47:56 | 00:00:00 | |
| DD8BA-10 | 2026-09-04 00:42:40 | 52.38860 | 11.43124 | 97° | 11km/h | 22880m | -35.9m/s | -52.0°C | 3.4% | 37.5hPa | 2.6V | 00:00:00 | 00:00:00 | 00:00:00 | |
| DL1XH1-15 | 2026-09-04 00:42:39 | 52.38860 | 11.43113 | 82° | 11km/h | 22950m | -35.5m/s | -51.7°C | 3.4% | 37.2hPa | 2.6V | 03:04:32 | 02:47:53 | 00:00:00 | |
| DL4XJ-10 | 2026-09-04 00:42:39 | 52.38860 | 11.43118 | 102° | 16km/h | 22915m | -36.0m/s | -51.5°C | 0% | 0hPa | 2.6V | 00:00:00 | 00:00:00 | 00:00:00 | |
| DM0DOS-11 | 2026-09-04 00:42:38 | 52.38859 | 11.43109 | 91° | 7km/h | 22985m | -35.7m/s | -51.7°C | 3.4% | 37hPa | 2.6V | 03:04:33 | 02:47:52 | 00:00:00 | |
| DO3MHA-11 | 2026-09-04 00:42:38 | 52.38860 | 11.43113 | 83° | 13km/h | 22950m | -35.4m/s | -51.6°C | 3.4% | 37.1hPa | 2.6V | 00:00:00 | 02:47:53 | 00:00:00 | |
| DL1NUX | 2026-09-04 00:42:37 | 52.38853 | 11.43089 | 56° | 15km/h | 23163m | -38.7m/s | -51.2°C | 3.2% | 36hPa | 2.6V | 03:04:38 | 02:47:47 | 00:00:00 | |
| DF8AY | 2026-09-04 00:42:36 | 52.38859 | 11.43105 | 73° | 9km/h | 23020m | -35.7m/s | -51.6°C | 0% | 36.8hPa | 2.5V | 03:07:31 | 02:47:51 | 00:00:00 | |
| DL1XH-west | 2026-09-04 00:42:34 | 52.38855 | 11.43093 | 53° | 11km/h | 23125m | -37.1m/s | -51.4°C | 0% | 36.2hPa | 2.6V | 03:04:58 | 02:47:48 | 00:00:00 | |
| AA1-15 | 2026-09-04 00:42:31 | 52.38851 | 11.43083 | 61° | 15km/h | 23201m | -38.7m/s | -51.2°C | 0% | 35.8hPa | 2.6V | 03:04:58 | 02:47:46 | 00:00:00 | |
| DL1XH-15 | 2026-09-04 00:42:31 | 52.38845 | 11.43054 | 86° | 22km/h | 23354m | -40.2m/s | -51.2°C | 3.2% | 35hPa | 2.6V | 03:04:43 | 02:47:42 | 00:00:00 | |
| DO2SHX-10 | 2026-09-04 00:42:31 | 52.38851 | 11.43083 | 62° | 16km/h | 23201m | -38.7m/s | -51.1°C | 3.2% | 35.8hPa | 2.6V | 03:04:00 | 02:47:46 | 00:00:00 | |
| DD8BA-10 | 2026-09-04 00:42:30 | 52.38849 | 11.43077 | 67° | 20km/h | 23239m | -38.4m/s | -51.0°C | 3.1% | 35.6hPa | 2.5V | 03:04:00 | 00:00:00 | 00:00:00 | |
| DL1XH1-15 | 2026-09-04 00:42:29 | 52.38846 | 11.43063 | 77° | 18km/h | 23315m | -41m/s | -51.1°C | 3.2% | 35.2hPa | 2.5V | 03:04:42 | 02:47:43 | 00:00:00 | |
| DF8AY | 2026-09-04 00:42:26 | 52.38845 | 11.43036 | 96° | 24km/h | 23434m | -40.1m/s | -51.4°C | 0% | 34.6hPa | 2.6V | 03:07:31 | 02:47:40 | 00:00:00 | |
| 13BRC | 2026-09-04 00:42:25 | 52.38845 | 11.43036 | 97° | 24km/h | 23434m | -40.1m/s | -51.4°C | 0.5% | 34.6hPa | 2.5V | 03:04:00 | 00:00:00 | 00:00:00 | |
| DL1NUX | 2026-09-04 00:42:24 | 52.38848 | 11.43009 | 103° | 22km/h | 23556m | -41.8m/s | -51.4°C | 3.3% | 33.9hPa | 2.5V | 03:04:48 | 02:47:37 | 00:00:00 | |
| DL1XH-west | 2026-09-04 00:42:23 | 52.38847 | 11.43017 | 102° | 20km/h | 23514m | -41.8m/s | -51.4°C | 0% | 34.2hPa | 2.5V | 03:04:58 | 02:47:38 | 00:00:00 | |
| AA1-15 | 2026-09-04 00:42:21 | 52.38852 | 11.42979 | 101° | 16km/h | 23720m | -42.7m/s | -51.6°C | 0% | 33.1hPa | 2.5V | 03:04:58 | 02:47:33 | 00:00:00 | |
| DF7PN | 2026-09-04 00:42:21 | 52.38851 | 11.42993 | 105° | 18km/h | 23637m | -42.1m/s | -51.5°C | -1.0% | -1.0hPa | 2.5V | 00:00:00 | 00:00:00 | 00:00:00 | |
| DL1XH1-15 | 2026-09-04 00:42:20 | 52.38852 | 11.42979 | 101° | 16km/h | 23720m | -42.6m/s | -51.6°C | 3.3% | 33.1hPa | 2.5V | 03:04:52 | 02:47:33 | 00:00:00 | |
| DM0DOS-11 | 2026-09-04 00:42:19 | 52.38853 | 11.42972 | 100° | 15km/h | 23762m | -43.2m/s | -51.5°C | 3.3% | 32.9hPa | 2.5V | 03:04:53 | 02:47:32 | 00:00:00 | |
| TFSTFS | 2026-09-04 00:42:19 | 52.38851 | 11.42985 | 98° | 16km/h | 23678m | -41.4m/s | -51.6°C | 0.6% | 33.3hPa | 2.5V | 03:04:00 | 00:00:00 | 00:00:00 | |
| DL1NUX | 2026-09-04 00:42:17 | 52.38855 | 11.42937 | 107° | 18km/h | 23973m | -41.4m/s | -51.6°C | 3.4% | 31.8hPa | 2.5V | 03:04:58 | 02:47:27 | 00:00:00 | |
| HSKMA3-T | 2026-09-04 00:42:15 | 52.38853 | 11.42959 | 94° | 15km/h | 23848m | -42.6m/s | -51.5°C | 0% | 32.5hPa | 2.6V | 03:04:58 | 02:47:30 | 00:00:00 | |
| DF8AY | 2026-09-04 00:42:14 | 52.38854 | 11.42952 | 100° | 16km/h | 23889m | -41.8m/s | -51.4°C | 0% | 32.3hPa | 2.6V | 03:07:31 | 02:47:29 | 00:00:00 | |
| DL1XH-west | 2026-09-04 00:42:13 | 52.38854 | 11.42944 | 100° | 18km/h | 23931m | -42.5m/s | -51.4°C | 0% | 32hPa | 2.6V | 03:04:58 | 02:47:28 | 00:00:00 | |
| EDDB2-11 | 2026-09-04 00:42:13 | 52.38855 | 11.42937 | 107° | 18km/h | 23973m | -41.4m/s | -51.6°C | 0.6% | 31.8hPa | 2.5V | 00:00:00 | 00:00:00 | 00:00:00 | |
| GOEST3-10 | 2026-09-04 00:42:12 | 52.38855 | 11.42936 | 108° | 18km/h | 23973m | -41.4m/s | -51.5°C | 3.4% | 31.7hPa | 2.5V | 00:00:00 | 02:47:27 | 00:00:00 | |
| DL1XH-15 | 2026-09-04 00:42:11 | 52.38868 | 11.42905 | 142° | 16km/h | 24173m | -40.3m/s | -51.3°C | 3.3% | 30.9hPa | 2.5V | 03:05:03 | 02:47:22 | 00:00:00 | |
| DB0NH | 2026-09-04 00:42:11 | 52.38857 | 11.42929 | 118° | 15km/h | 24014m | -41.1m/s | -51.6°C | 3.4% | 31.6hPa | 2.5V | 00:00:00 | 02:47:26 | 00:00:00 | |
| DO2SHX-10 | 2026-09-04 00:42:10 | 52.38859 | 11.42923 | 125° | 18km/h | 24054m | -40.3m/s | -51.5°C | 3.4% | 31.4hPa | 2.5V | 00:00:00 | 02:47:25 | 00:00:00 | |
| DL1XH1-15 | 2026-09-04 00:42:09 | 52.38865 | 11.42910 | 132° | 18km/h | 24133m | -40.7m/s | -51.4°C | 3.3% | 31hPa | 2.5V | 03:05:02 | 02:47:23 | 00:00:00 | |
| AA1-15 | 2026-09-04 00:42:09 | 52.38865 | 11.42910 | 133° | 18km/h | 24133m | -40.7m/s | -51.4°C | 0% | 31hPa | 2.5V | 03:05:49 | 02:47:23 | 00:00:00 | |
| DD8BA-10 | 2026-09-04 00:42:09 | 52.38862 | 11.42916 | 130° | 16km/h | 24094m | -40.5m/s | -51.4°C | 3.4% | 31.2hPa | 2.6V | 00:00:00 | 00:00:00 | 00:00:00 | |
| SP3WXH-11 | 2026-09-04 00:42:08 | 52.38868 | 11.42905 | 142° | 16km/h | 24173m | -40.3m/s | -51.3°C | 0.5% | 30.9hPa | 2.6V | 00:00:00 | 00:00:00 | 00:00:00 | |
| DL1NUX | 2026-09-04 00:42:07 | 52.38885 | 11.42880 | 137° | 16km/h | 24370m | -38.5m/s | -51.2°C | 3.3% | 29.9hPa | 2.6V | 03:05:08 | 02:47:17 | 00:00:00 | |
| DF8AY | 2026-09-04 00:42:05 | 52.38878 | 11.42889 | 142° | 16km/h | 24292m | -40.8m/s | -51.3°C | 0% | 30.3hPa | 2.5V | 03:07:31 | 02:47:19 | 00:00:00 | |
| DL1XH-west | 2026-09-04 00:42:03 | 52.38881 | 11.42885 | 144° | 16km/h | 24331m | -39.6m/s | -51.3°C | 0% | 30.1hPa | 2.5V | 03:05:49 | 02:47:18 | 00:00:00 | |
| AA1-15 | 2026-09-04 00:41:59 | 52.38895 | 11.42865 | 151° | 11km/h | 24530m | -41.9m/s | -50.9°C | 0% | 29.2hPa | 2.5V | 03:05:49 | 02:47:13 | 00:00:00 | |
| DM0DOS-11 | 2026-09-04 00:41:58 | 52.38897 | 11.42862 | 150° | 9km/h | 24571m | -41.9m/s | -50.9°C | 3.2% | 29hPa | 2.5V | 03:05:13 | 02:47:12 | 00:00:00 | |
| HSKMA3-T | 2026-09-04 00:41:54 | 52.38904 | 11.42858 | 174° | 9km/h | 24693m | -40.4m/s | -50.9°C | 0% | 28.5hPa | 2.6V | 03:05:49 | 02:47:09 | 00:00:00 | |
| DL1NUX | 2026-09-04 00:41:54 | 52.38908 | 11.42855 | 163° | 11km/h | 24773m | -41.8m/s | -50.8°C | 3.2% | 28.1hPa | 2.5V | 03:05:18 | 02:47:07 | 00:00:00 | |
| DL1XH-west | 2026-09-04 00:41:53 | 52.38906 | 11.42857 | 166° | 11km/h | 24733m | -40.1m/s | -50.9°C | 0% | 28.3hPa | 2.5V | 03:05:49 | 02:47:08 | 00:00:00 | |
| DF7PN | 2026-09-04 00:41:50 | 52.38914 | 11.42853 | 173° | 13km/h | 24859m | -43.8m/s | -50.5°C | -1.0% | -1.0hPa | 2.6V | 00:00:00 | 00:00:00 | 00:00:00 | |
| DL1XH1-15 | 2026-09-04 00:41:49 | 52.38921 | 11.42851 | 176° | 13km/h | 24943m | -42.3m/s | -50.2°C | 3% | 27.4hPa | 2.6V | 03:05:22 | 02:47:03 | 00:00:00 | |
| AA1-15 | 2026-09-04 00:41:48 | 52.38924 | 11.42850 | 177° | 15km/h | 24984m | -41.2m/s | -50.1°C | 0% | 27.2hPa | 2.5V | 03:05:49 | 02:47:02 | 00:00:00 | |
| HSKMA3-T | 2026-09-04 00:41:44 | 52.38935 | 11.42851 | 198° | 13km/h | 25099m | -38m/s | -50.3°C | 0% | 26.7hPa | 2.6V | 03:05:49 | 02:46:59 | 00:00:00 | |
| DF8AY | 2026-09-04 00:41:43 | 52.38938 | 11.42853 | 212° | 13km/h | 25136m | -37m/s | -50.4°C | 0% | 26.5hPa | 2.6V | 03:07:31 | 02:46:58 | 00:00:00 | |
| DL1XH-west | 2026-09-04 00:41:42 | 52.38940 | 11.42856 | 226° | 15km/h | 25171m | -35.7m/s | -50.5°C | 0% | 26.4hPa | 2.6V | 03:05:49 | 02:46:57 | 00:00:00 | |
| AA1-15 | 2026-09-04 00:41:37 | 52.38947 | 11.42875 | 266° | 5km/h | 25347m | -39.2m/s | -50.9°C | 0% | 25.7hPa | 2.5V | 03:05:49 | 02:46:52 | 00:00:00 | |
| DL1NUX | 2026-09-04 00:41:37 | 52.38946 | 11.42877 | 50° | 4km/h | 25546m | -40m/s | -50.4°C | 3.4% | 25hPa | 2.5V | 03:05:38 | 02:46:47 | 00:00:00 | |
| DF8AY | 2026-09-04 00:41:33 | 52.38946 | 11.42879 | 61° | 4km/h | 25506m | -40.9m/s | -50.5°C | 0% | 25.2hPa | 2.6V | 03:07:31 | 02:46:48 | 00:00:00 | |
| DL1XH-west | 2026-09-04 00:41:31 | 52.38945 | 11.42875 | 53° | 7km/h | 25585m | -39.6m/s | -50.2°C | 0% | 24.8hPa | 2.5V | 03:05:49 | 02:46:46 | 00:00:00 | |
| SONCRA | 2026-09-04 00:41:30 | 52.38944 | 11.42873 | 64° | 5km/h | 25623m | -40.1m/s | -50.0°C | 0.5% | 24.7hPa | 2.6V | 00:00:00 | 00:00:00 | 00:00:00 | |
| DL1XH1-15 | 2026-09-04 00:41:29 | 52.38943 | 11.42867 | 61° | 5km/h | 25706m | -44.9m/s | -49.6°C | 3.2% | 24.4hPa | 2.6V | 03:05:42 | 02:46:43 | 00:00:00 | |
| AA1-15 | 2026-09-04 00:41:26 | 52.38942 | 11.42860 | 73° | 7km/h | 25793m | -44.8m/s | -49.6°C | 0% | 24.1hPa | 2.5V | 03:05:49 | 02:46:41 | 00:00:00 | |
| DO2SHX-10 | 2026-09-04 00:41:25 | 52.38941 | 11.42856 | 63° | 9km/h | 25836m | -43.2m/s | -49.5°C | 3.2% | 23.8hPa | 2.6V | 00:00:00 | 02:46:40 | 00:00:00 | |
| DL1NUX | 2026-09-04 00:41:24 | 52.38939 | 11.42844 | 78° | 11km/h | 25965m | -44.4m/s | -49.1°C | 3.1% | 23.4hPa | 2.6V | 03:05:48 | 02:46:37 | 00:00:00 | |
| HSKMA3-T | 2026-09-04 00:41:22 | 52.38939 | 11.42845 | 79° | 11km/h | 25965m | -44.4m/s | -49.1°C | 0% | 23.4hPa | 2.6V | 03:05:49 | 02:46:37 | 00:00:00 | |
| DL1XH-west | 2026-09-04 00:41:21 | 52.38939 | 11.42840 | 91° | 15km/h | 26009m | -44m/s | -49.1°C | 0% | 23.3hPa | 2.6V | 03:05:49 | 02:46:36 | 00:00:00 | |
| DL1XH1-15 | 2026-09-04 00:41:19 | 52.38940 | 11.42822 | 97° | 15km/h | 26139m | -41.6m/s | -48.8°C | 3.1% | 22.8hPa | 2.5V | 03:05:52 | 02:46:33 | 00:00:00 | |
| DO2SHX-10 | 2026-09-04 00:41:19 | 52.38939 | 11.42828 | 92° | 15km/h | 26097m | -43.1m/s | -48.9°C | 3.1% | 22.9hPa | 2.5V | 03:05:00 | 02:46:34 | 00:00:00 | |
| DJ8HS-15 | 2026-09-04 00:41:18 | 52.38940 | 11.42821 | 98° | 11km/h | 26139m | -41.6m/s | -48.8°C | 3.1% | 22.7hPa | 2.6V | 00:00:00 | 02:46:33 | 00:00:00 | |
| DL1NUX | 2026-09-04 00:41:17 | 52.38953 | 11.42790 | 155° | 15km/h | 26410m | -48.2m/s | -47.5°C | 2.7% | 22hPa | 2.6V | 03:05:58 | 02:46:27 | 00:00:00 | |
| AA1-15 | 2026-09-04 00:41:16 | 52.38944 | 11.42803 | 129° | 15km/h | 26267m | -46.9m/s | -48.2°C | 0% | 22.4hPa | 2.6V | 03:06:40 | 02:46:30 | 00:00:00 | |
| HSKMA3-T | 2026-09-04 00:41:11 | 52.38956 | 11.42788 | 166° | 13km/h | 26458m | -47.5m/s | -47.3°C | 0% | 21.8hPa | 2.6V | 03:06:40 | 02:46:26 | 00:00:00 | |
| DF8AY | 2026-09-04 00:41:10 | 52.38962 | 11.42785 | 177° | 11km/h | 26550m | -45.9m/s | -47.2°C | 0% | 21.5hPa | 2.5V | 03:07:31 | 02:46:24 | 00:00:00 | |
| DL1XH-west | 2026-09-04 00:41:10 | 52.38959 | 11.42787 | 165° | 11km/h | 26504m | -47m/s | -47.3°C | 0% | 21.6hPa | 2.5V | 03:06:40 | 02:46:25 | 00:00:00 | |
| DL1XH-15 | 2026-09-04 00:41:10 | 52.38966 | 11.42785 | 193° | 5km/h | 26637m | -43.5m/s | -47.1°C | 2.6% | 21.2hPa | 2.6V | 03:06:03 | 02:46:22 | 00:00:00 | |
| DL1XH1-15 | 2026-09-04 00:41:10 | 52.38965 | 11.42785 | 181° | 9km/h | 26594m | -44.9m/s | -47.2°C | 2.6% | 21.3hPa | 2.6V | 03:06:02 | 02:46:23 | 00:00:00 | |
| AA1-15 | 2026-09-04 00:41:05 | 52.38968 | 11.42785 | 158° | 2km/h | 26722m | -43.7m/s | -47°C | 0% | 20.9hPa | 2.5V | 03:06:40 | 02:46:20 | 00:00:00 | |
| DL1NUX | 2026-09-04 00:41:04 | 52.38970 | 11.42782 | 130° | 4km/h | 26849m | -41.9m/s | -46.7°C | 2.6% | 20.4hPa | 2.6V | 03:06:08 | 02:46:17 | 00:00:00 | |
| HSKMA3-T | 2026-09-04 00:41:01 | 52.38971 | 11.42779 | 134° | 5km/h | 26889m | -41.2m/s | -46.7°C | 0% | 20.3hPa | 2.5V | 03:06:40 | 02:46:16 | 00:00:00 | |
| DO2SHX-10 | 2026-09-04 00:41:01 | 52.38971 | 11.42779 | 134° | 7km/h | 26889m | -41.1m/s | -46.6°C | 2.5% | 20.3hPa | 2.5V | 00:00:00 | 02:46:16 | 00:00:00 | |
| DL1XH1-15 | 2026-09-04 00:41:00 | 52.38975 | 11.42771 | 142° | 11km/h | 27013m | -41.9m/s | -46.7°C | 2.5% | 19.9hPa | 2.6V | 03:06:12 | 02:46:13 | 00:00:00 | |
| DL1XH-west | 2026-09-04 00:41:00 | 52.38973 | 11.42774 | 132° | 9km/h | 26971m | -42.8m/s | -46.6°C | 0% | 20.1hPa | 2.5V | 03:06:40 | 02:46:14 | 00:00:00 | |
| DM0DOS-11 | 2026-09-04 00:41:00 | 52.38977 | 11.42768 | 150° | 13km/h | 27054m | -41.4m/s | -46.8°C | 2.5% | 19.8hPa | 2.6V | 03:06:13 | 02:46:12 | 00:00:00 | |
| DF8AY | 2026-09-04 00:40:58 | 52.38975 | 11.42771 | 143° | 11km/h | 27013m | -41.9m/s | -46.7°C | 0% | 19.9hPa | 2.6V | 03:07:31 | 02:46:13 | 00:00:00 | |
| AA1-15 | 2026-09-04 00:40:55 | 52.38984 | 11.42762 | 152° | 16km/h | 27136m | -42.6m/s | -46.9°C | 0% | 19.6hPa | 2.5V | 03:06:40 | 02:46:10 | 00:00:00 | |
| HSKMA3-T | 2026-09-04 00:40:51 | 52.39001 | 11.42752 | 173° | 13km/h | 27359m | -43.4m/s | -47.4°C | 0% | 19hPa | 2.6V | 03:06:40 | 02:46:05 | 00:00:00 | |
| DL1XH-15 | 2026-09-04 00:40:50 | 52.39010 | 11.42752 | 187° | 11km/h | 27487m | -44m/s | -47.4°C | 2.7% | 18.6hPa | 2.6V | 03:06:23 | 02:46:02 | 00:00:00 | |
| DL1XH-west | 2026-09-04 00:40:49 | 52.39007 | 11.42752 | 184° | 11km/h | 27443m | -42.9m/s | -47.4°C | 0% | 18.7hPa | 2.5V | 03:06:40 | 02:46:03 | 00:00:00 | |
| DL1XH1-15 | 2026-09-04 00:40:49 | 52.39007 | 11.42752 | 183° | 11km/h | 27443m | -42.9m/s | -47.4°C | 2.7% | 18.7hPa | 2.5V | 03:06:22 | 02:46:03 | 00:00:00 | |
| DF8AY | 2026-09-04 00:40:47 | 52.39014 | 11.42753 | 211° | 9km/h | 27582m | -53.7m/s | -47.2°C | 0% | 18.4hPa | 2.5V | 03:07:31 | 02:46:00 | 00:00:00 | |
| AA1-15 | 2026-09-04 00:40:44 | 52.39017 | 11.42755 | 198° | 9km/h | 27636m | -56.7m/s | -47°C | 0% | 18.3hPa | 2.5V | 03:06:40 | 02:45:59 | 00:00:00 | |
| HSKMA3-T | 2026-09-04 00:40:40 | 52.39024 | 11.42758 | 183° | 5km/h | 27853m | -53.9m/s | -47°C | 0% | 17.7hPa | 2.5V | 03:06:40 | 02:45:55 | 00:00:00 | |
| DL1XH-15 | 2026-09-04 00:40:40 | 52.39027 | 11.42755 | 130° | 5km/h | 28008m | -50.9m/s | -47.2°C | 2.7% | 17.2hPa | 2.6V | 03:06:33 | 02:45:52 | 00:00:00 | |
| DO2SHX-10 | 2026-09-04 00:40:40 | 52.39024 | 11.42758 | 183° | 5km/h | 27853m | -53.9m/s | -46.9°C | 2.6% | 17.7hPa | 2.5V | 00:00:00 | 02:45:55 | 00:00:00 | |
| DL1XH1-15 | 2026-09-04 00:40:39 | 52.39026 | 11.42756 | 159° | 5km/h | 27957m | -51.9m/s | -47.1°C | 2.6% | 17.4hPa | 2.5V | 03:06:32 | 02:45:53 | 00:00:00 | |
| DL1XH-west | 2026-09-04 00:40:38 | 52.39028 | 11.42755 | 130° | 5km/h | 28008m | -50.9m/s | -47.2°C | 0% | 17.3hPa | 2.6V | 03:06:40 | 02:45:52 | 00:00:00 | |
| DD8BA-10 | 2026-09-04 00:40:38 | 52.39026 | 11.42756 | 160° | 11km/h | 27957m | -51.9m/s | -47.1°C | 2.6% | 17.3hPa | 2.5V | 00:00:00 | 00:00:00 | 00:00:00 | |
| DL1NUX | 2026-09-04 00:40:37 | 52.39035 | 11.42739 | 141° | 15km/h | 28257m | -50.3m/s | -47.6°C | 2.8% | 16.6hPa | 2.5V | 03:06:38 | 02:45:47 | 00:00:00 | |
| DF8AY | 2026-09-04 00:40:37 | 52.39029 | 11.42753 | 126° | 9km/h | 28058m | -51.1m/s | -47.3°C | 0% | 17.1hPa | 2.6V | 03:07:31 | 02:45:51 | 00:00:00 | |
| AA1-15 | 2026-09-04 00:40:34 | 52.39031 | 11.42746 | 124° | 11km/h | 28159m | -50.3m/s | -47.6°C | 0% | 16.8hPa | 2.5V | 03:06:40 | 02:45:49 | 00:00:00 | |
| HSKMA3-T | 2026-09-04 00:40:30 | 52.39041 | 11.42732 | 151° | 16km/h | 28358m | -51.1m/s | -47.4°C | 0% | 16.4hPa | 2.6V | 03:06:40 | 02:45:45 | 00:00:00 | |
| DM0DOS-11 | 2026-09-04 00:40:30 | 52.39053 | 11.42727 | 174° | 16km/h | 28511m | -48.9m/s | -47.3°C | 2.8% | 15.9hPa | 2.5V | 03:06:43 | 02:45:42 | 00:00:00 | |
| DL1XH1-15 | 2026-09-04 00:40:29 | 52.39048 | 11.42728 | 169° | 18km/h | 28461m | -51.6m/s | -47.2°C | 2.8% | 16.1hPa | 2.5V | 03:06:42 | 02:45:43 | 00:00:00 | |
| DF8AY | 2026-09-04 00:40:26 | 52.39057 | 11.42726 | 172° | 16km/h | 28559m | -48.1m/s | 0°C | 0% | 15.8hPa | 2.6V | 03:07:31 | 02:45:41 | 00:00:00 | |
| AA1-15 | 2026-09-04 00:40:24 | 52.39063 | 11.42725 | 180° | 9km/h | 28654m | -48.3m/s | -47.1°C | 0% | 15.6hPa | 2.5V | 03:07:31 | 02:45:39 | 00:00:00 | |
| DL1NUX | 2026-09-04 00:40:24 | 52.39066 | 11.42726 | 220° | 2km/h | 28749m | -46.4m/s | -47°C | 2.8% | 15.4hPa | 2.6V | 03:06:48 | 02:45:37 | 00:00:00 | |
| HSKMA3-T | 2026-09-04 00:40:20 | 52.39065 | 11.42725 | 37° | 5km/h | 28841m | -45.6m/s | -46.7°C | 0% | 15.1hPa | 2.6V | 03:07:31 | 02:45:35 | 00:00:00 | |
| DM0DOS-11 | 2026-09-04 00:40:19 | 52.39060 | 11.42717 | 64° | 15km/h | 28982m | -48.8m/s | -46.2°C | 2.7% | 14.9hPa | 2.5V | 03:06:53 | 02:45:32 | 00:00:00 | |
| DO2SHX-10 | 2026-09-04 00:40:19 | 52.39064 | 11.42723 | 28° | 13km/h | 28887m | -47.1m/s | -46.5°C | 2.7% | 15.0hPa | 2.5V | 03:06:00 | 02:45:34 | 00:00:00 | |
| DD8BA-10 | 2026-09-04 00:40:18 | 52.39062 | 11.42721 | 41° | 20km/h | 28934m | -48.1m/s | -46.4°C | 2.7% | 14.9hPa | 2.5V | 00:00:00 | 00:00:00 | 00:00:00 | |
| DL1NUX | 2026-09-04 00:40:17 | 52.39056 | 11.42676 | 99° | 26km/h | 29228m | -49.9m/s | -46.1°C | 2.8% | 14.3hPa | 2.5V | 03:06:58 | 02:45:27 | 00:00:00 | |
| DL1XH-west | 2026-09-04 00:40:16 | 52.39057 | 11.42704 | 77° | 18km/h | 29078m | -49.5m/s | -46.2°C | 0% | 14.6hPa | 2.6V | 03:07:31 | 02:45:30 | 00:00:00 | |
| AA1-15 | 2026-09-04 00:40:13 | 52.39056 | 11.42687 | 97° | 24km/h | 29178m | -51.6m/s | -46.2°C | 0% | 14.4hPa | 2.5V | 03:07:31 | 02:45:28 | 00:00:00 | |
| HSKMA3-T | 2026-09-04 00:40:10 | 52.39059 | 11.42655 | 108° | 24km/h | 29322m | -47.9m/s | -46°C | 0% | 14.1hPa | 2.6V | 03:07:31 | 02:45:25 | 00:00:00 | |
| DL1XH-west | 2026-09-04 00:40:05 | 52.39069 | 11.42602 | 101° | 18km/h | 29605m | -52.6m/s | -45.3°C | 0% | 13.5hPa | 2.6V | 03:07:31 | 02:45:19 | 00:00:00 | |
| DL1NUX | 2026-09-04 00:40:04 | 52.39071 | 11.42588 | 103° | 20km/h | 29706m | -51.6m/s | -45.2°C | 2.7% | 13.3hPa | 2.5V | 03:07:08 | 02:45:17 | 00:00:00 | |
| DF8AY | 2026-09-04 00:40:03 | 52.39070 | 11.42595 | 100° | 18km/h | 29656m | -51.3m/s | 0°C | 0% | 13.4hPa | 2.5V | 03:07:31 | 02:45:18 | 00:00:00 | |
| AA1-15 | 2026-09-04 00:40:02 | 52.39071 | 11.42588 | 104° | 20km/h | 29706m | -51.6m/s | -45.2°C | 0% | 13.3hPa | 2.5V | 03:07:31 | 02:45:17 | 00:00:00 | |
| DO9LL-15 | 2026-09-04 00:40:02 | 52.39071 | 11.42588 | 104° | 15km/h | 29706m | -51.6m/s | -45.2°C | 2.7% | 13.2hPa | 2.5V | 00:00:00 | 02:45:17 | 00:00:00 | |
| DL1XH-15 | 2026-09-04 00:40:00 | 52.39082 | 11.42550 | 127° | 20km/h | 29972m | -54.9m/s | -43.8°C | 2.4% | 12.8hPa | 2.5V | 03:07:13 | 02:45:12 | 00:00:00 | |
| HSKMA3-T | 2026-09-04 00:39:59 | 52.39076 | 11.42564 | 119° | 22km/h | 29862m | -54.6m/s | -44.9°C | 0% | 13hPa | 2.6V | 03:07:31 | 02:45:14 | 00:00:00 | |
| DL1XH1-15 | 2026-09-04 00:39:59 | 52.39079 | 11.42557 | 121° | 22km/h | 29917m | -54.9m/s | -44.5°C | 2.6% | 12.9hPa | 2.5V | 03:07:12 | 02:45:13 | 00:00:00 | |
| DB0UT-7 | 2026-09-04 00:39:59 | 52.39076 | 11.42564 | 119° | 15km/h | 29862m | -54.5m/s | -44.8°C | 2.7% | 13.0hPa | 2.6V | 00:00:00 | 00:00:00 | 00:00:00 | |
| DD8BA-10 | 2026-09-04 00:39:58 | 52.39079 | 11.42557 | 122° | 15km/h | 29917m | -54.8m/s | -44.4°C | 2.6% | 12.9hPa | 2.5V | 00:00:00 | 00:00:00 | 00:00:00 | |
| DL1NUX | 2026-09-04 00:39:57 | 52.39098 | 11.42527 | 156° | 13km/h | 30245m | -54.1m/s | -42.4°C | 2.1% | 12.3hPa | 2.5V | 03:07:18 | 02:45:07 | 00:00:00 | |
| DL1XH-west | 2026-09-04 00:39:55 | 52.39092 | 11.42533 | 146° | 16km/h | 30137m | -55.5m/s | -42.8°C | 0% | 12.5hPa | 2.6V | 03:07:31 | 02:45:09 | 00:00:00 | |
| DO2SHX-10 | 2026-09-04 00:39:54 | 52.39092 | 11.42533 | 147° | 15km/h | 30137m | -55.4m/s | -42.8°C | 2.2% | 12.5hPa | 2.6V | 03:07:00 | 02:45:09 | 00:00:00 | |
| DL1XH1-15 | 2026-09-04 00:39:53 | 52.39107 | 11.42519 | 168° | 4km/h | 30448m | -48m/s | -41.9°C | 2.1% | 11.9hPa | 2.6V | 03:07:22 | 02:45:03 | 00:00:00 | |
| DF8AY | 2026-09-04 00:39:53 | 52.39098 | 11.42527 | 156° | 13km/h | 30245m | -54.1m/s | 0°C | 0% | 12.3hPa | 2.5V | 03:07:31 | 02:45:07 | 00:00:00 | |
| AA1-15 | 2026-09-04 00:39:52 | 52.39101 | 11.42524 | 156° | 13km/h | 30299m | -52.8m/s | -42.3°C | 0% | 12.2hPa | 2.5V | 03:07:31 | 02:45:06 | 00:00:00 | |
| HSKMA3-T | 2026-09-04 00:39:48 | 52.39107 | 11.42519 | 168° | 4km/h | 30448m | -48.1m/s | -41.9°C | 0% | 11.9hPa | 2.6V | 03:07:31 | 02:45:03 | 00:00:00 | |
| DO2SHX-10 | 2026-09-04 00:39:48 | 52.39106 | 11.42519 | 169° | 4km/h | 30448m | -48.0m/s | -41.9°C | 2.1% | 11.8hPa | 2.6V | 00:00:00 | 02:45:03 | 00:00:00 | |
| DO3MHA-11 | 2026-09-04 00:39:47 | 52.39108 | 11.42519 | 127° | 7km/h | 30495m | -48.1m/s | -42.0°C | 2.1% | 11.8hPa | 2.5V | 00:00:00 | 02:45:02 | 00:00:00 | |
| DO2SHX-10 | 2026-09-04 00:39:45 | 52.39107 | 11.42517 | 329° | 2km/h | 30594m | -50.8m/s | -42.2°C | 2.2% | 11.6hPa | 2.5V | 00:00:00 | 02:45:00 | 00:00:00 | |
| DL1NUX | 2026-09-04 00:39:44 | 52.39104 | 11.42516 | 352° | 7km/h | 30740m | -50.3m/s | -42.5°C | 2.3% | 11.4hPa | 2.5V | 03:07:28 | 02:44:57 | 00:00:00 | |
| DL1XH-west | 2026-09-04 00:39:44 | 52.39106 | 11.42516 | 13° | 4km/h | 30692m | -49.5m/s | -42.5°C | 0% | 11.5hPa | 2.6V | 03:07:31 | 02:44:58 | 00:00:00 | |
| DF8AY | 2026-09-04 00:39:43 | 52.39093 | 11.42510 | 18° | 18km/h | 30943m | -51.6m/s | 0°C | 0% | 11hPa | 2.6V | 18:12:15 | 02:44:53 | 00:00:00 | |
| AA1-15 | 2026-09-04 00:39:41 | 52.39100 | 11.42514 | 16° | 11km/h | 30842m | -52.7m/s | -42.4°C | 0% | 11.2hPa | 2.6V | 03:07:31 | 02:44:55 | 00:00:00 | |
| DL1XH1-15 | 2026-09-04 00:39:39 | 52.39093 | 11.42510 | 18° | 18km/h | 30943m | -51.6m/s | -42.2°C | 2.3% | 11hPa | 2.6V | 03:07:32 | 02:44:53 | 00:00:00 | |
| HSKMA3-T | 2026-09-04 00:39:37 | 52.39089 | 11.42506 | 30° | 20km/h | 30995m | -52.4m/s | -42°C | 0% | 10.9hPa | 2.5V | 03:08:22 | 02:44:52 | 00:00:00 | |
| DL1NUX | 2026-09-04 00:39:37 | 52.39071 | 11.42465 | 80° | 26km/h | 31258m | -60m/s | -40.9°C | 2.1% | 10.6hPa | 2.6V | 03:07:38 | 02:44:47 | 00:00:00 | |
| DL1XH-west | 2026-09-04 00:39:34 | 52.39071 | 11.42454 | 86° | 27km/h | 31316m | -60.2m/s | -40.8°C | 0% | 10.5hPa | 2.5V | 03:08:22 | 02:44:46 | 00:00:00 | |
| DL1XH1-15 | 2026-09-04 00:39:33 | 52.39072 | 11.42420 | 104° | 24km/h | 31489m | -57.4m/s | -40.7°C | 2.1% | 10.2hPa | 2.6V | 03:07:42 | 02:44:43 | 00:00:00 | |
| AA1-15 | 2026-09-04 00:39:30 | 52.39070 | 11.42443 | 94° | 26km/h | 31376m | -58.8m/s | -40.8°C | 0% | 10.4hPa | 2.5V | 03:08:22 | 02:44:45 | 00:00:00 | |
| HSKMA3-T | 2026-09-04 00:39:26 | 52.39079 | 11.42392 | 118° | 20km/h | 31659m | -58.1m/s | -40.3°C | 0% | 9.9hPa | 2.5V | 03:08:22 | 02:44:40 | 00:00:00 | |
| EDDB2-12 | 2026-09-04 00:39:26 | 52.39079 | 11.42392 | 117° | 20km/h | 31659m | -58.1m/s | -40.3°C | 0.1% | 9.9hPa | 2.6V | 00:00:00 | 00:00:00 | 00:00:00 | |
| DL4XJ-10 | 2026-09-04 00:39:25 | 52.39079 | 11.42392 | 118° | 15km/h | 31659m | -58.0m/s | -39.9°C | 0% | 0hPa | 2.6V | 00:00:00 | 00:00:00 | 00:00:00 | |
| DL1NUX | 2026-09-04 00:39:24 | 52.39086 | 11.42371 | 121° | 16km/h | 31836m | -61.1m/s | -39.9°C | 2% | 9.7hPa | 2.6V | 03:07:48 | 02:44:37 | 00:00:00 | |
| BUE01 | 2026-09-04 00:39:24 | 52.39084 | 11.42378 | 118° | 18km/h | 31775m | -61.1m/s | -40.1°C | 0.1% | 9.8hPa | 2.5V | 00:00:00 | 00:00:00 | 00:00:00 | |
| DM0DOS-11 | 2026-09-04 00:39:22 | 52.39100 | 11.42342 | 130° | 18km/h | 32135m | -62.7m/s | -39°C | 1.9% | 9.3hPa | 2.5V | 03:07:53 | 02:44:32 | 00:00:00 | |
| DF8AY | 2026-09-04 00:39:21 | 52.39088 | 11.42365 | 122° | 18km/h | 31895m | -60.6m/s | 0°C | 0% | 0hPa | 2.5V | 18:12:15 | 02:44:36 | 00:00:00 | |
| AA1-15 | 2026-09-04 00:39:20 | 52.39094 | 11.42354 | 129° | 18km/h | 32012m | -61.6m/s | -39.4°C | 0% | 9.5hPa | 2.6V | 03:08:22 | 02:44:34 | 00:00:00 | |
| DL1XH1-15 | 2026-09-04 00:39:19 | 52.39097 | 11.42347 | 134° | 20km/h | 32073m | -62.5m/s | -39.2°C | 1.9% | 9.4hPa | 2.6V | 03:07:52 | 02:44:33 | 00:00:00 | |
| 13BRC | 2026-09-04 00:39:18 | 52.39097 | 11.42347 | 136° | 20km/h | 32073m | -62.5m/s | -39.3°C | 0.1% | 9.4hPa | 2.5V | 03:08:00 | 00:00:00 | 00:00:00 | |
| DL1NUX | 2026-09-04 00:39:17 | 52.39105 | 11.42316 | 75° | 11km/h | 32443m | -62.5m/s | -38.1°C | 1.8% | 8.9hPa | 2.5V | 03:07:58 | 02:44:27 | 00:00:00 | |
| HSKMA3-T | 2026-09-04 00:39:14 | 52.39105 | 11.42325 | 97° | 13km/h | 32319m | -63.6m/s | -38.4°C | 0% | 9hPa | 2.6V | 03:08:22 | 02:44:29 | 00:00:00 | |
| OE5DRO-10 | 2026-09-04 00:39:14 | 52.39105 | 11.42325 | 97° | 15km/h | 32319m | -63.5m/s | -38.4°C | 1.9% | 9.0hPa | 2.6V | 03:07:00 | 00:00:00 | 00:00:00 | |
| DL1XH1-15 | 2026-09-04 00:39:13 | 52.39101 | 11.42296 | 82° | 15km/h | 32696m | -68.6m/s | -37.1°C | 1.7% | 8.6hPa | 2.6V | 03:08:02 | 02:44:23 | 00:00:00 | |
| DF8AY | 2026-09-04 00:39:11 | 52.39104 | 11.42311 | 67° | 13km/h | 32505m | -62.6m/s | 0°C | 0% | 0hPa | 2.5V | 18:12:15 | 02:44:26 | 00:00:00 | |
| DB0NH | 2026-09-04 00:39:11 | 52.39104 | 11.42311 | 68° | 15km/h | 32506m | -62.5m/s | -37.7°C | 1.8% | 8.7hPa | 2.5V | 00:00:00 | 02:44:26 | 00:00:00 | |
| DM0DOS-11 | 2026-09-04 00:39:09 | 52.39101 | 11.42290 | 97° | 15km/h | 32764m | -70.8m/s | -37°C | 1.7% | 8.5hPa | 2.6V | 03:08:03 | 02:44:22 | 00:00:00 | |
| AA1-15 | 2026-09-04 00:39:09 | 52.39102 | 11.42301 | 69° | 11km/h | 32630m | -64.5m/s | -37.3°C | 0% | 8.6hPa | 2.6V | 03:08:22 | 02:44:24 | 00:00:00 | |
| HSKMA3-T | 2026-09-04 00:39:04 | 52.39103 | 11.42272 | 110° | 15km/h | 32973m | -68.7m/s | -36.7°C | 0% | 8.3hPa | 2.5V | 03:08:22 | 02:44:19 | 00:00:00 | |
| DL1ZP-14 | 2026-09-04 00:39:04 | 52.39104 | 11.42266 | 110° | 18km/h | 33041m | -67.2m/s | -36.9°C | 0.1% | 8.1hPa | 2.6V | 00:00:00 | 00:00:00 | 00:00:00 | |
| DO2SHX-10 | 2026-09-04 00:39:03 | 52.39104 | 11.42266 | 111° | 20km/h | 33041m | -67.2m/s | -36.8°C | 1.7% | 8.1hPa | 2.6V | 00:00:00 | 02:44:18 | 00:00:00 | |
| DM0DOS-11 | 2026-09-04 00:39:02 | 52.39113 | 11.42222 | 101° | 16km/h | 33410m | -60m/s | -36°C | 1.6% | 7.7hPa | 2.6V | 03:08:13 | 02:44:12 | 00:00:00 | |
| DF8AY | 2026-09-04 00:39:01 | 52.39109 | 11.42243 | 109° | 18km/h | 33233m | -62.9m/s | 0°C | 0% | 0hPa | 2.5V | 18:12:15 | 02:44:15 | 00:00:00 | |
| DO2SHX-10 | 2026-09-04 00:39:00 | 52.39109 | 11.42242 | 109° | 18km/h | 33233m | -62.9m/s | -36.6°C | 1.7% | 7.8hPa | 2.6V | 00:00:00 | 02:44:15 | 00:00:00 | |
| DL1XH1-15 | 2026-09-04 00:38:59 | 52.39112 | 11.42229 | 102° | 16km/h | 33352m | -59m/s | -36.4°C | 1.7% | 7.7hPa | 2.6V | 03:08:12 | 02:44:13 | 00:00:00 | |
| AA1-15 | 2026-09-04 00:38:59 | 52.39113 | 11.42222 | 102° | 16km/h | 33410m | -60m/s | -36°C | 0% | 7.7hPa | 2.6V | 03:08:22 | 02:44:12 | 00:00:00 | |
| HSKMA3-T | 2026-09-04 00:38:54 | 52.39119 | 11.42199 | 129° | 16km/h | 33649m | -58.1m/s | -34.8°C | 0% | 7.4hPa | 2.6V | 03:08:22 | 02:44:08 | 00:00:00 | |
| SO1NDE-10 | 2026-09-04 00:38:52 | 52.39122 | 11.42194 | 132° | 16km/h | 33706m | -56.2m/s | -34.7°C | 1.4% | 7.3hPa | 2.6V | 00:00:00 | 02:44:07 | 00:00:00 | |
| DO2SHX-10 | 2026-09-04 00:38:51 | 52.39125 | 11.42189 | 135° | 18km/h | 33761m | -55.2m/s | -34.6°C | 1.4% | 7.2hPa | 2.6V | 00:00:00 | 02:44:06 | 00:00:00 | |
| DM0DOS-11 | 2026-09-04 00:38:50 | 52.39138 | 11.42169 | 141° | 16km/h | 33976m | -54.1m/s | -34.5°C | 1.4% | 7hPa | 2.6V | 03:08:23 | 02:44:02 | 00:00:00 | |
| DL1XH-west | 2026-09-04 00:38:47 | 52.39138 | 11.42169 | 142° | 16km/h | 33976m | -54.1m/s | -34.5°C | 0% | 7hPa | 2.6V | 03:09:13 | 02:44:02 | 00:00:00 | |
| AA1-15 | 2026-09-04 00:38:46 | 52.39141 | 11.42165 | 136° | 15km/h | 34029m | -54.5m/s | -34.6°C | 0% | 7hPa | 2.6V | 03:09:13 | 02:44:01 | 00:00:00 | |
| DO3MHA-11 | 2026-09-04 00:38:46 | 52.39141 | 11.42164 | 136° | 9km/h | 34029m | -54.5m/s | -34.5°C | 1.4% | 6.9hPa | 2.5V | 00:00:00 | 02:44:01 | 00:00:00 | |
| DO2SHX-10 | 2026-09-04 00:38:45 | 52.39143 | 11.42160 | 139° | 9km/h | 34083m | -54.3m/s | -34.7°C | 1.4% | 6.9hPa | 2.5V | 00:00:00 | 02:44:00 | 00:00:00 | |
| DL1NUX | 2026-09-04 00:38:44 | 52.39149 | 11.42154 | 156° | 5km/h | 34240m | -54.3m/s | -34.8°C | 1.4% | 6.8hPa | 2.6V | 03:08:28 | 02:43:57 | 00:00:00 | |
| HSKMA3-T | 2026-09-04 00:38:43 | 52.39147 | 11.42155 | 144° | 7km/h | 34187m | -54.4m/s | -34.9°C | 0% | 6.8hPa | 2.5V | 03:09:13 | 02:43:58 | 00:00:00 | |
| DF7ER-10 | 2026-09-04 00:38:43 | 52.39145 | 11.42157 | 150° | 7km/h | 34135m | -54.3m/s | -34.8°C | 0.1% | 6.9hPa | 2.6V | 03:09:00 | 00:00:00 | 00:00:00 | |
| DO2SHX-10 | 2026-09-04 00:38:42 | 52.39149 | 11.42153 | 157° | 7km/h | 34241m | -54.3m/s | -34.8°C | 1.4% | 6.7hPa | 2.6V | 03:08:00 | 02:43:57 | 00:00:00 | |
| DB0NH | 2026-09-04 00:38:41 | 52.39150 | 11.42153 | 171° | 24km/h | 34295m | -54.1m/s | -34.7°C | 1.5% | 6.7hPa | 2.6V | 00:00:00 | 02:43:56 | 00:00:00 | |
| OE5DXL-15 | 2026-09-04 00:38:40 | 52.39151 | 11.42152 | 168° | 22km/h | 34347m | -53.4m/s | -34.8°C | 1.5% | 6.6hPa | 2.6V | 00:00:00 | 00:00:00 | 00:00:00 | |
| DL1XH1-15 | 2026-09-04 00:38:39 | 52.39156 | 11.42150 | 164° | 11km/h | 34453m | -54.1m/s | -35.3°C | 1.6% | 6.6hPa | 2.5V | 03:08:32 | 02:43:53 | 00:00:00 | |
| DO2SHX-10 | 2026-09-04 00:38:39 | 52.39154 | 11.42151 | 171° | 11km/h | 34400m | -54.9m/s | -35.0°C | 1.5% | 6.6hPa | 2.6V | 00:00:00 | 02:43:54 | 00:00:00 | |
| DL1NUX | 2026-09-04 00:38:37 | 52.39172 | 11.42131 | 109° | 11km/h | 34781m | -52.9m/s | -35.4°C | 1.6% | 6.2hPa | 2.6V | 03:08:38 | 02:43:47 | 00:00:00 | |
| AA1-15 | 2026-09-04 00:38:36 | 52.39162 | 11.42145 | 150° | 16km/h | 34561m | -56.2m/s | -35.7°C | 0% | 6.5hPa | 2.6V | 03:09:13 | 02:43:51 | 00:00:00 | |
| HSKMA3-T | 2026-09-04 00:38:33 | 52.39172 | 11.42131 | 110° | 11km/h | 34781m | -52.9m/s | -35.4°C | 0% | 6.2hPa | 2.6V | 03:09:13 | 02:43:47 | 00:00:00 | |
| GOEST3-10 | 2026-09-04 00:38:32 | 52.39171 | 11.42131 | 110° | 15km/h | 34782m | -52.9m/s | -35.3°C | 1.6% | 6.2hPa | 2.6V | 00:00:00 | 02:43:47 | 00:00:00 | |
| SP3WXH-11 | 2026-09-04 00:38:31 | 52.39172 | 11.42120 | 72° | 13km/h | 34883m | -51.1m/s | -35.3°C | 0.1% | 6.2hPa | 2.6V | 00:00:00 | 00:00:00 | 00:00:00 | |
| DO2SHX-10 | 2026-09-04 00:38:30 | 52.39172 | 11.42120 | 73° | 15km/h | 34883m | -51.0m/s | -35.3°C | 1.6% | 6.1hPa | 2.6V | 03:08:00 | 02:43:45 | 00:00:00 | |
| DL1XH1-15 | 2026-09-04 00:38:29 | 52.39169 | 11.42109 | 64° | 16km/h | 34979m | -46.9m/s | -35°C | 1.6% | 6hPa | 2.6V | 03:08:42 | 02:43:43 | 00:00:00 | |
| DM0DOS-11 | 2026-09-04 00:38:29 | 52.39167 | 11.42101 | 79° | 20km/h | 35025m | -45.5m/s | -34.7°C | 1.6% | 6hPa | 2.6V | 03:08:43 | 02:43:42 | 00:00:00 | |
| DL1XH-west | 2026-09-04 00:38:26 | 52.39172 | 11.42072 | 127° | 35km/h | 35164m | -49.2m/s | -33.5°C | 0% | 5.9hPa | 2.5V | 03:09:13 | 02:43:39 | 00:00:00 | |
| AA1-15 | 2026-09-04 00:38:25 | 52.39179 | 11.42060 | 135° | 42km/h | 35213m | -50.9m/s | -33.1°C | 0% | 5.9hPa | 2.6V | 03:09:13 | 02:43:38 | 00:00:00 | |
| DL1NUX | 2026-09-04 00:38:24 | 52.39186 | 11.42048 | 133° | 42km/h | 35266m | -54.7m/s | -32.9°C | 1.3% | 5.8hPa | 2.6V | 03:08:48 | 02:43:37 | 00:00:00 | |
| HSKMA3-T | 2026-09-04 00:38:22 | 52.39193 | 11.42035 | 128° | 38km/h | 35321m | -58.4m/s | -32.7°C | 0% | 5.8hPa | 2.6V | 03:09:13 | 02:43:36 | 00:00:00 | |
| DL1XH-15 | 2026-09-04 00:38:21 | 52.39202 | 11.41988 | 89° | 27km/h | 35553m | -51.5m/s | -32.5°C | 1.3% | 5.5hPa | 2.6V | 03:08:53 | 02:43:32 | 00:00:00 | |
| DO2SHX-10 | 2026-09-04 00:38:21 | 52.39193 | 11.42035 | 129° | 33km/h | 35321m | -58.4m/s | -32.6°C | 1.3% | 5.7hPa | 2.5V | 00:00:00 | 02:43:36 | 00:00:00 | |
| DL1XH1-15 | 2026-09-04 00:38:19 | 52.39201 | 11.42000 | 98° | 31km/h | 35500m | -56.1m/s | -32.5°C | 1.3% | 5.6hPa | 2.5V | 03:08:52 | 02:43:33 | 00:00:00 | |
| SMARD9-15 | 2026-09-04 00:38:19 | 52.39201 | 11.42000 | 98° | 31km/h | 35500m | -56.1m/s | -32.5°C | 0.0% | 5.6hPa | 2.5V | 00:00:00 | 00:00:00 | 00:00:00 | |
| DO2SHX-10 | 2026-09-04 00:38:18 | 52.39201 | 11.41999 | 99° | 29km/h | 35500m | -56.1m/s | -32.4°C | 1.3% | 5.6hPa | 2.5V | 03:08:00 | 02:43:33 | 00:00:00 | |
| DL1NUX | 2026-09-04 00:38:17 | 52.39169 | 11.41946 | 10° | 49km/h | 35766m | -41.6m/s | -32.2°C | 1.3% | 5.3hPa | 2.6V | 03:08:58 | 02:43:27 | 00:00:00 | |
| DL1XH-west | 2026-09-04 00:38:15 | 52.39197 | 11.41966 | 50° | 31km/h | 35646m | -44.4m/s | -32.6°C | 0% | 5.5hPa | 2.6V | 03:09:13 | 02:43:30 | 00:00:00 | |
| AA1-15 | 2026-09-04 00:38:14 | 52.39190 | 11.41957 | 32° | 38km/h | 35688m | -41.6m/s | -32.5°C | 0% | 5.4hPa | 2.5V | 03:09:13 | 02:43:29 | 00:00:00 | |
| HSKMA3-T | 2026-09-04 00:38:11 | 52.39149 | 11.41940 | 16° | 16km/h | 35851m | -46.8m/s | -32°C | 0% | 5.3hPa | 2.5V | 03:09:13 | 02:43:25 | 00:00:00 | |
| TFSTFS | 2026-09-04 00:38:11 | 52.39157 | 11.41942 | 10° | 46km/h | 35808m | -41.5m/s | -32.1°C | 0.0% | 5.3hPa | 2.6V | 03:09:00 | 00:00:00 | 00:00:00 | |
| S3001 | 2026-09-04 00:38:10 | 52.39149 | 11.41940 | 15° | 16km/h | 35851m | -46.8m/s | -32.0°C | 0.0% | 5.3hPa | 2.6V | 00:00:00 | 00:00:00 | 00:00:00 | |
| DL1XH1-15 | 2026-09-04 00:38:09 | 52.39143 | 11.41937 | 27° | 9km/h | 35932m | -36m/s | -32.1°C | 1.3% | 5.2hPa | 2.6V | 03:09:02 | 02:43:23 | 00:00:00 | |
| DL1XH-west | 2026-09-04 00:38:04 | 52.39153 | 11.41921 | 151° | 44km/h | 36019m | -9.8m/s | -31.7°C | 0% | 5.1hPa | 2.5V | 03:09:13 | 02:43:19 | 00:00:00 | |
| DL1NUX | 2026-09-04 00:38:04 | 52.39183 | 11.41891 | 145° | 93km/h | 36039m | -14.6m/s | -31.4°C | 1.2% | 5.1hPa | 2.6V | 03:09:08 | 02:43:17 | 00:00:00 | |
| AA1-15 | 2026-09-04 00:38:03 | 52.39165 | 11.41909 | 149° | 69km/h | 36029m | -8.9m/s | -31.6°C | 0% | 5.1hPa | 2.5V | 03:09:13 | 02:43:18 | 00:00:00 | |
| HSKMA3-T | 2026-09-04 00:38:00 | 52.39211 | 11.41843 | 116° | 60km/h | 36089m | -35.7m/s | -31.2°C | 0% | 5hPa | 2.6V | 03:09:13 | 02:43:15 | 00:00:00 | |
| DM0DOS-11 | 2026-09-04 00:38:00 | 52.39208 | 11.41789 | 66° | 40km/h | 36171m | -19.2m/s | -31°C | 1.2% | 5hPa | 2.5V | 03:09:13 | 02:43:12 | 00:00:00 | |
| DO2SHX-10 | 2026-09-04 00:38:00 | 52.39211 | 11.41843 | 116° | 47km/h | 36089m | -35.6m/s | -31.2°C | 1.2% | 5.0hPa | 2.6V | 00:00:00 | 02:43:15 | 00:00:00 | |
| DB0UT-7 | 2026-09-04 00:37:59 | 52.39214 | 11.41823 | 85° | 49km/h | 36122m | -33.6m/s | -31.1°C | 1.2% | 5.0hPa | 2.5V | 00:00:00 | 00:00:00 | 00:00:00 | |
| DL1NUX | 2026-09-04 00:37:57 | 52.39163 | 11.41803 | 297° | 42km/h | 36196m | 3.8m/s | -31.1°C | 1.2% | 5hPa | 2.5V | 03:09:18 | 02:43:07 | 00:00:00 | |
| DL1XH-west | 2026-09-04 00:37:54 | 52.39171 | 11.41791 | 333° | 51km/h | 36196m | -1.3m/s | -31°C | 0% | 5hPa | 2.5V | 03:10:04 | 02:43:08 | 00:00:00 | |
| AA1-15 | 2026-09-04 00:37:53 | 52.39161 | 11.41818 | 266° | 35km/h | 36192m | 4m/s | -31.2°C | 0% | 5hPa | 2.5V | 03:10:04 | 02:43:06 | 00:00:00 | |
| HSKMA3-T | 2026-09-04 00:37:49 | 52.39171 | 11.41836 | 190° | 37km/h | 36181m | 6.3m/s | -31.3°C | 0% | 5hPa | 2.6V | 03:10:04 | 02:43:04 | 00:00:00 | |
| DL1XH1-15 | 2026-09-04 00:37:49 | 52.39203 | 11.41749 | 74° | 66km/h | 36151m | 3.7m/s | -31.5°C | 1.2% | 5hPa | 2.6V | 03:09:26 | 02:42:59 | 00:00:00 | |
| DM0DOS-11 | 2026-09-04 00:37:48 | 52.39192 | 11.41823 | 135° | 57km/h | 36167m | 7.2m/s | -31.4°C | 1.2% | 5hPa | 2.5V | 03:09:23 | 02:43:02 | 00:00:00 | |
| DJ8HS-15 | 2026-09-04 00:37:48 | 52.39181 | 11.41834 | 160° | 55km/h | 36175m | 7.0m/s | -31.3°C | 1.2% | 4.9hPa | 2.5V | 00:00:00 | 02:43:03 | 00:00:00 | |
| DD8BA-10 | 2026-09-04 00:37:47 | 52.39192 | 11.41823 | 136° | 47km/h | 36168m | 7.1m/s | -31.3°C | 1.2% | 4.9hPa | 2.5V | 00:00:00 | 00:00:00 | 00:00:00 | |
| DL3OBA | 2026-09-04 00:37:45 | 52.39205 | 11.41776 | 96° | 68km/h | 36156m | 4.4m/s | -31.4°C | 0.0% | 5.0hPa | 2.5V | 03:10:00 | 00:00:00 | 00:00:00 | |
| DL1NUX | 2026-09-04 00:37:44 | 52.39185 | 11.41710 | 30° | 57km/h | 36142m | 5.1m/s | -31.5°C | 1.2% | 5hPa | 2.5V | 03:09:28 | 02:42:57 | 00:00:00 | |
| AA1-15 | 2026-09-04 00:37:43 | 52.39196 | 11.41726 | 53° | 62km/h | 36147m | 4.1m/s | -31.5°C | 0% | 5hPa | 2.5V | 03:10:04 | 02:42:58 | 00:00:00 | |
| DL1XH-west | 2026-09-04 00:37:42 | 52.39185 | 11.41710 | 30° | 57km/h | 36142m | 5.1m/s | -31.5°C | 0% | 5hPa | 2.5V | 03:10:04 | 02:42:57 | 00:00:00 | |
| GOEST3-10 | 2026-09-04 00:37:42 | 52.39185 | 11.41710 | 31° | 51km/h | 36143m | 5.1m/s | -31.5°C | 1.2% | 5.0hPa | 2.6V | 00:00:00 | 02:42:57 | 00:00:00 | |
| DF7ER-10 | 2026-09-04 00:37:41 | 52.39172 | 11.41702 | 8° | 53km/h | 36136m | 6.7m/s | -31.6°C | 0.0% | 5.0hPa | 2.6V | 03:10:00 | 00:00:00 | 00:00:00 | |
| DL1XH1-15 | 2026-09-04 00:37:39 | 52.39162 | 11.41760 | 149° | 42km/h | 36098m | 6.1m/s | -31.7°C | 1.2% | 5hPa | 2.6V | 03:09:36 | 02:42:49 | 00:00:00 | |
| HSKMA3-T | 2026-09-04 00:37:38 | 52.39143 | 11.41731 | 288° | 44km/h | 36117m | 5.2m/s | -31.6°C | 0% | 5hPa | 2.5V | 03:10:04 | 02:42:53 | 00:00:00 | |
| AA1-15 | 2026-09-04 00:37:32 | 52.39175 | 11.41726 | 99° | 60km/h | 36085m | 6.2m/s | -31.7°C | 0% | 5.1hPa | 2.5V | 03:10:04 | 02:42:47 | 00:00:00 | |
| GOEST3-10 | 2026-09-04 00:37:32 | 52.39175 | 11.41726 | 100° | 66km/h | 36085m | 6.1m/s | -31.6°C | 1.2% | 5.0hPa | 2.5V | 00:00:00 | 02:42:47 | 00:00:00 | |
| DO2SHX-10 | 2026-09-04 00:37:30 | 52.39169 | 11.41674 | 62° | 68km/h | 36074m | 4.8m/s | -31.6°C | 1.2% | 5.0hPa | 2.5V | 00:00:00 | 02:42:45 | 00:00:00 | |
| DL1XH1-15 | 2026-09-04 00:37:29 | 52.39103 | 11.41660 | 283° | 38km/h | 36041m | 5.5m/s | -31.8°C | 1.2% | 5.1hPa | 2.5V | 03:09:46 | 02:42:39 | 00:00:00 | |
| HSKMA3-T | 2026-09-04 00:37:27 | 52.39130 | 11.41632 | 3° | 57km/h | 36058m | 5.7m/s | -31.7°C | 0% | 5.1hPa | 2.6V | 03:10:04 | 02:42:42 | 00:00:00 | |
| DO2SHX-10 | 2026-09-04 00:37:27 | 52.39130 | 11.41632 | 3° | 51km/h | 36059m | 5.7m/s | -31.6°C | 1.2% | 5.0hPa | 2.6V | 00:00:00 | 02:42:42 | 00:00:00 | |
| DB0DAN | 2026-09-04 00:37:25 | 52.39107 | 11.41646 | 313° | 42km/h | 36047m | 6.1m/s | -31.7°C | 0% | 5.1hPa | 2.5V | 00:00:00 | 00:00:00 | 00:00:00 | |
| DO3MHA-11 | 2026-09-04 00:37:25 | 52.39107 | 11.41645 | 314° | 46km/h | 36047m | 6.1m/s | -31.7°C | 1.2% | 5.1hPa | 2.6V | 00:00:00 | 02:42:40 | 00:00:00 | |
| DL1NUX | 2026-09-04 00:37:24 | 52.39108 | 11.41683 | 208° | 31km/h | 36030m | 5m/s | -31.8°C | 1.2% | 5.1hPa | 2.6V | 03:09:48 | 02:42:37 | 00:00:00 | |
| AA1-15 | 2026-09-04 00:37:22 | 52.39116 | 11.41685 | 172° | 35km/h | 36025m | 5.4m/s | -31.9°C | 0% | 5.1hPa | 2.6V | 03:10:04 | 02:42:36 | 00:00:00 | |
| DF7ER-10 | 2026-09-04 00:37:21 | 52.39116 | 11.41685 | 173° | 35km/h | 36025m | 5.4m/s | -31.9°C | 0.1% | 5.1hPa | 2.6V | 03:10:00 | 00:00:00 | 00:00:00 | |
| DL1XH1-15 | 2026-09-04 00:37:19 | 52.39106 | 11.41561 | 23° | 57km/h | 35982m | 4.7m/s | -32.2°C | 1.3% | 5.1hPa | 2.6V | 03:09:56 | 02:42:29 | 00:00:00 | |
| DM0DOS-11 | 2026-09-04 00:37:18 | 52.39134 | 11.41618 | 77° | 64km/h | 35999m | 6.5m/s | -32.1°C | 1.3% | 5.1hPa | 2.6V | 03:09:53 | 02:42:32 | 00:00:00 | |
| HSKMA3-T | 2026-09-04 00:37:17 | 52.39128 | 11.41594 | 60° | 64km/h | 35993m | 5.7m/s | -32.2°C | 0% | 5.1hPa | 2.5V | 03:10:04 | 02:42:31 | 00:00:00 | |
| SMARD9-15 | 2026-09-04 00:37:17 | 52.39128 | 11.41594 | 60° | 62km/h | 35993m | 5.7m/s | -32.2°C | 0.0% | 5.1hPa | 2.5V | 00:00:00 | 00:00:00 | 00:00:00 | |
| 13BRC | 2026-09-04 00:37:16 | 52.39128 | 11.41594 | 61° | 64km/h | 35994m | 5.7m/s | -32.2°C | 0.0% | 5.1hPa | 2.5V | 03:10:00 | 00:00:00 | 00:00:00 | |
| DO3MHA-11 | 2026-09-04 00:37:15 | 52.39118 | 11.41574 | 43° | 44km/h | 35987m | 5.0m/s | -32.2°C | 1.3% | 5.1hPa | 2.5V | 00:00:00 | 02:42:30 | 00:00:00 | |
| DL1XH-15 | 2026-09-04 00:37:14 | 52.39084 | 11.41558 | 336° | 38km/h | 35972m | 5.3m/s | -32.3°C | 1.3% | 5.2hPa | 2.5V | 03:09:58 | 02:42:27 | 00:00:00 | |
| DM0DOS-11 | 2026-09-04 00:37:12 | 52.39098 | 11.41594 | 163° | 46km/h | 35944m | 4.6m/s | -32.4°C | 1.3% | 5.2hPa | 2.5V | 03:10:03 | 02:42:22 | 00:00:00 | |
| AA1-15 | 2026-09-04 00:37:11 | 52.39077 | 11.41567 | 303° | 31km/h | 35967m | 5.4m/s | -32.3°C | 0% | 5.1hPa | 2.5V | 03:10:04 | 02:42:26 | 00:00:00 | |
| DL1XH-west | 2026-09-04 00:37:11 | 52.39076 | 11.41578 | 262° | 29km/h | 35961m | 5.7m/s | -32.4°C | 0% | 5.2hPa | 2.6V | 03:10:04 | 02:42:25 | 00:00:00 | |
| HSKMA3-T | 2026-09-04 00:37:06 | 52.39118 | 11.41568 | 119° | 57km/h | 35935m | 4.8m/s | -32.3°C | 0% | 5.2hPa | 2.5V | 03:10:55 | 02:42:20 | 00:00:00 | |
| DO3MHA-11 | 2026-09-04 00:37:05 | 52.39118 | 11.41568 | 120° | 47km/h | 35935m | 4.8m/s | -32.3°C | 1.2% | 5.1hPa | 2.5V | 00:00:00 | 02:42:20 | 00:00:00 | |
| DL1NUX | 2026-09-04 00:37:04 | 52.39119 | 11.41497 | 64° | 58km/h | 35919m | 5.7m/s | -32.4°C | 1.3% | 5.2hPa | 2.6V | 03:10:08 | 02:42:17 | 00:00:00 | |
| AA1-15 | 2026-09-04 00:37:00 | 52.39100 | 11.41467 | 25° | 46km/h | 35908m | 5.1m/s | -32.4°C | 0% | 5.2hPa | 2.5V | 03:10:55 | 02:42:15 | 00:00:00 | |
| DL1XH-west | 2026-09-04 00:36:59 | 52.39091 | 11.41462 | 3° | 37km/h | 35903m | 4.8m/s | -32.5°C | 0% | 5.2hPa | 2.5V | 03:10:55 | 02:42:14 | 00:00:00 | |
| DL1XH1-15 | 2026-09-04 00:36:59 | 52.39096 | 11.41490 | 177° | 42km/h | 35877m | 5.4m/s | -32.5°C | 1.3% | 5.2hPa | 2.5V | 03:10:16 | 02:42:09 | 00:00:00 | |
| DB0UT-7 | 2026-09-04 00:36:59 | 52.39091 | 11.41462 | 3° | 37km/h | 35904m | 4.8m/s | -32.4°C | 1.3% | 5.2hPa | 2.5V | 00:00:00 | 00:00:00 | 00:00:00 | |
| DM0DOS-11 | 2026-09-04 00:36:58 | 52.39080 | 11.41473 | 284° | 22km/h | 35893m | 5.2m/s | -32.5°C | 1.3% | 5.2hPa | 2.6V | 03:10:13 | 02:42:12 | 00:00:00 | |
| HSKMA3-T | 2026-09-04 00:36:55 | 52.39096 | 11.41490 | 177° | 42km/h | 35877m | 5.4m/s | -32.5°C | 0% | 5.2hPa | 2.5V | 03:10:55 | 02:42:09 | 00:00:00 | |
| DL1XH-15 | 2026-09-04 00:36:55 | 52.39118 | 11.41474 | 139° | 55km/h | 35866m | 5.1m/s | -32.5°C | 1.3% | 5.2hPa | 2.6V | 03:10:18 | 02:42:07 | 00:00:00 | |
| HTAHTA | 2026-09-04 00:36:54 | 52.39132 | 11.41436 | 103° | 55km/h | 35856m | 4.9m/s | -32.5°C | 0.0% | 5.2hPa | 2.6V | 00:00:00 | 00:00:00 | 00:00:00 | |
| DM0DOS-11 | 2026-09-04 00:36:52 | 52.39125 | 11.41379 | 49° | 38km/h | 35840m | 5.7m/s | -32.6°C | 1.3% | 5.3hPa | 2.6V | 03:10:23 | 02:42:02 | 00:00:00 | |
| DL1XH-west | 2026-09-04 00:36:49 | 52.39131 | 11.41394 | 69° | 46km/h | 35846m | 5.1m/s | -32.6°C | 0% | 5.2hPa | 2.5V | 03:10:55 | 02:42:03 | 00:00:00 | |
| SMARD9-15 | 2026-09-04 00:36:46 | 52.39113 | 11.41367 | 357° | 22km/h | 35829m | 5.6m/s | -32.6°C | 0.0% | 5.3hPa | 2.6V | 00:00:00 | 00:00:00 | 00:00:00 | |
| HSKMA3-T | 2026-09-04 00:36:43 | 52.39107 | 11.41375 | 267° | 16km/h | 35817m | 5.3m/s | -32.7°C | 0% | 5.3hPa | 2.6V | 03:10:55 | 02:41:58 | 00:00:00 | |
| DO2SHX-10 | 2026-09-04 00:36:42 | 52.39108 | 11.41382 | 226° | 27km/h | 35813m | 4.6m/s | -32.7°C | 1.3% | 5.2hPa | 2.6V | 00:00:00 | 02:41:57 | 00:00:00 | |
| DM0DOS-11 | 2026-09-04 00:36:40 | 52.39143 | 11.41351 | 113° | 51km/h | 35785m | 6.3m/s | -32.9°C | 1.3% | 5.3hPa | 2.6V | 03:10:33 | 02:41:52 | 00:00:00 | |
| DL1XH1-15 | 2026-09-04 00:36:39 | 52.39145 | 11.41289 | 74° | 47km/h | 35769m | 4.7m/s | -32.9°C | 1.3% | 5.3hPa | 2.5V | 03:10:36 | 02:41:49 | 00:00:00 | |
| DL1XH-west | 2026-09-04 00:36:38 | 52.39143 | 11.41351 | 113° | 51km/h | 35785m | 6.3m/s | -32.9°C | 0% | 5.3hPa | 2.6V | 03:10:55 | 02:41:52 | 00:00:00 | |
| DD8BA-10 | 2026-09-04 00:36:38 | 52.39136 | 11.41368 | 129° | 35km/h | 35792m | 6.2m/s | -32.8°C | 1.3% | 5.2hPa | 2.6V | 03:10:00 | 00:00:00 | 00:00:00 | |
| DL1XH-15 | 2026-09-04 00:36:37 | 52.39137 | 11.41260 | 53° | 27km/h | 35758m | 5.5m/s | -33°C | 1.3% | 5.3hPa | 2.6V | 03:10:38 | 02:41:47 | 00:00:00 | |
| HSKMA3-T | 2026-09-04 00:36:33 | 52.39141 | 11.41272 | 64° | 38km/h | 35764m | 5.2m/s | -32.9°C | 0% | 5.3hPa | 2.6V | 03:10:55 | 02:41:48 | 00:00:00 | |
| AA1-15 | 2026-09-04 00:36:28 | 52.39131 | 11.41253 | 209° | 11km/h | 35734m | 4.9m/s | -33.1°C | 0% | 5.3hPa | 2.5V | 03:10:55 | 02:41:43 | 00:00:00 | |
| DL1XH-west | 2026-09-04 00:36:27 | 52.39139 | 11.41252 | 156° | 20km/h | 35725m | 4.7m/s | -33.2°C | 0% | 5.3hPa | 2.6V | 03:10:55 | 02:41:41 | 00:00:00 | |
| TFSTFS | 2026-09-04 00:36:26 | 52.39134 | 11.41254 | 184° | 16km/h | 35730m | 4.3m/s | -33.2°C | 0.0% | 5.3hPa | 2.6V | 03:10:00 | 00:00:00 | 00:00:00 | |
| DB0DAN | 2026-09-04 00:36:25 | 52.39143 | 11.41247 | 134° | 26km/h | 35720m | 5m/s | -33.2°C | 0% | 5.35hPa | 2.6V | 00:00:00 | 00:00:00 | 00:00:00 | |
| DO3MHA-11 | 2026-09-04 00:36:25 | 52.39143 | 11.41247 | 135° | 38km/h | 35721m | 5.0m/s | -33.1°C | 1.3% | 5.3hPa | 2.5V | 00:00:00 | 02:41:40 | 00:00:00 | |
| DL1NUX | 2026-09-04 00:36:24 | 52.39153 | 11.41205 | 95° | 46km/h | 35703m | 6.2m/s | -33.1°C | 1.4% | 5.3hPa | 2.5V | 03:10:48 | 02:41:37 | 00:00:00 | |
| DO2SHX-10 | 2026-09-04 00:36:24 | 52.39147 | 11.41236 | 118° | 40km/h | 35716m | 5.8m/s | -33.1°C | 1.3% | 5.3hPa | 2.5V | 03:10:00 | 02:41:39 | 00:00:00 | |
| DM0DOS-11 | 2026-09-04 00:36:23 | 52.39151 | 11.41117 | 86° | 31km/h | 35677m | 5.6m/s | -33.1°C | 1.3% | 5.4hPa | 2.5V | 03:10:53 | 02:41:32 | 00:00:00 | |
| HSKMA3-T | 2026-09-04 00:36:23 | 52.39153 | 11.41205 | 95° | 46km/h | 35703m | 6.2m/s | -33.1°C | 0% | 5.3hPa | 2.5V | 03:10:55 | 02:41:37 | 00:00:00 | |
| HTAHTA | 2026-09-04 00:36:22 | 52.39153 | 11.41205 | 95° | 46km/h | 35703m | 6.2m/s | -33.1°C | 0.1% | 5.3hPa | 2.6V | 00:00:00 | 00:00:00 | 00:00:00 | |
| DO2SHX-10 | 2026-09-04 00:36:21 | 52.39153 | 11.41185 | 91° | 46km/h | 35697m | 5.4m/s | -33.1°C | 1.3% | 5.3hPa | 2.6V | 00:00:00 | 02:41:36 | 00:00:00 | |
| SONCRA | 2026-09-04 00:36:20 | 52.39153 | 11.41147 | 85° | 42km/h | 35687m | 5.0m/s | -33.1°C | 0.1% | 5.4hPa | 2.6V | 00:00:00 | 00:00:00 | 00:00:00 | |
| EDDB2-12 | 2026-09-04 00:36:19 | 52.39153 | 11.41147 | 85° | 42km/h | 35687m | 5.0m/s | -33.1°C | 0.1% | 5.4hPa | 2.6V | 00:00:00 | 00:00:00 | 00:00:00 | |
| DL1XH1-15 | 2026-09-04 00:36:18 | 52.39152 | 11.41087 | 99° | 22km/h | 35659m | 6.1m/s | -33.1°C | 1.3% | 5.4hPa | 2.6V | 03:10:56 | 02:41:29 | 00:00:00 | |
| AA1-15 | 2026-09-04 00:36:18 | 52.39151 | 11.41117 | 87° | 31km/h | 35677m | 5.6m/s | -33.1°C | 0% | 5.4hPa | 2.5V | 03:10:55 | 02:41:32 | 00:00:00 | |
| BUE01 | 2026-09-04 00:36:18 | 52.39151 | 11.41117 | 86° | 29km/h | 35677m | 5.6m/s | -33.1°C | 0.1% | 5.4hPa | 2.5V | 00:00:00 | 00:00:00 | 00:00:00 | |
| GOEST3-10 | 2026-09-04 00:36:17 | 52.39151 | 11.41117 | 87° | 24km/h | 35677m | 5.6m/s | -33.1°C | 1.3% | 5.3hPa | 2.5V | 03:10:00 | 00:00:00 | 00:00:00 | |
| DL1XH-15 | 2026-09-04 00:36:16 | 52.39154 | 11.41069 | 98° | 24km/h | 35647m | 5m/s | -33.1°C | 1.3% | 5.4hPa | 2.5V | 03:10:58 | 02:41:27 | 00:00:00 | |
| DL1XH-west | 2026-09-04 00:36:15 | 52.39151 | 11.41096 | 97° | 22km/h | 35664m | 6.3m/s | -33.1°C | 0% | 5.4hPa | 2.6V | 03:10:55 | 02:41:30 | 00:00:00 | |
| HSKMA3-T | 2026-09-04 00:36:12 | 52.39155 | 11.41059 | 93° | 27km/h | 35642m | 5m/s | -33.1°C | 0% | 5.4hPa | 2.5V | 03:11:46 | 02:41:26 | 00:00:00 | |
| 13BRC | 2026-09-04 00:36:11 | 52.39155 | 11.41059 | 94° | 27km/h | 35642m | 5.0m/s | -33.1°C | 0.0% | 5.4hPa | 2.5V | 03:11:00 | 00:00:00 | 00:00:00 | |
| DM0DOS-11 | 2026-09-04 00:36:10 | 52.39153 | 11.41006 | 85° | 37km/h | 35619m | 5.4m/s | -33°C | 1.3% | 5.4hPa | 2.5V | 03:11:03 | 02:41:22 | 00:00:00 | |
| DL1XH1-15 | 2026-09-04 00:36:09 | 52.39155 | 11.40956 | 100° | 44km/h | 35603m | 5.3m/s | -32.9°C | 1.3% | 5.4hPa | 2.5V | 03:11:06 | 02:41:19 | 00:00:00 | |
| AA1-15 | 2026-09-04 00:36:08 | 52.39154 | 11.41020 | 84° | 35km/h | 35625m | 5.8m/s | -33°C | 0% | 5.4hPa | 2.5V | 03:11:46 | 02:41:23 | 00:00:00 | |
| DL1XH-west | 2026-09-04 00:36:05 | 52.39155 | 11.40956 | 101° | 44km/h | 35603m | 5.3m/s | -32.9°C | 0% | 5.4hPa | 2.5V | 03:11:46 | 02:41:19 | 00:00:00 | |
| HSKMA3-T | 2026-09-04 00:36:00 | 52.39169 | 11.40881 | 106° | 46km/h | 35582m | 4m/s | -33°C | 0% | 5.5hPa | 2.6V | 03:11:46 | 02:41:15 | 00:00:00 | |
| DO2SHX-10 | 2026-09-04 00:36:00 | 52.39169 | 11.40881 | 106° | 42km/h | 35583m | 3.9m/s | -33.0°C | 1.3% | 5.4hPa | 2.6V | 03:11:00 | 02:41:15 | 00:00:00 | |
| DL1XH1-15 | 2026-09-04 00:35:59 | 52.39155 | 11.40799 | 39° | 29km/h | 35550m | 4.2m/s | -33.3°C | 1.3% | 5.5hPa | 2.6V | 03:11:16 | 02:41:09 | 00:00:00 | |
| DM0DOS-11 | 2026-09-04 00:35:59 | 52.39170 | 11.40832 | 72° | 37km/h | 35568m | 6.1m/s | -33.2°C | 1.3% | 5.5hPa | 2.5V | 03:11:13 | 02:41:12 | 00:00:00 | |
| AA1-15 | 2026-09-04 00:35:57 | 52.39170 | 11.40832 | 73° | 37km/h | 35568m | 6.1m/s | -33.2°C | 0% | 5.5hPa | 2.5V | 03:11:46 | 02:41:12 | 00:00:00 | |
| DL1XH-west | 2026-09-04 00:35:54 | 52.39155 | 11.40799 | 39° | 29km/h | 35550m | 4.2m/s | -33.3°C | 0% | 5.5hPa | 2.6V | 03:11:46 | 02:41:09 | 00:00:00 | |
| DO2SHX-10 | 2026-09-04 00:35:54 | 52.39155 | 11.40799 | 40° | 22km/h | 35550m | 4.1m/s | -33.3°C | 1.3% | 5.4hPa | 2.5V | 00:00:00 | 02:41:09 | 00:00:00 | |
| OE5DRO-10 | 2026-09-04 00:35:53 | 52.39151 | 11.40792 | 43° | 35km/h | 35546m | 3.3m/s | -33.3°C | 1.3% | 5.4hPa | 2.5V | 00:00:00 | 00:00:00 | 00:00:00 | |
| DM0DOS-11 | 2026-09-04 00:35:52 | 52.39175 | 11.40729 | 111° | 47km/h | 35511m | 3.9m/s | -33.5°C | 1.3% | 5.5hPa | 2.5V | 03:11:24 | 02:41:01 | 00:00:00 | |
| HSKMA3-T | 2026-09-04 00:35:50 | 52.39150 | 11.40776 | 138° | 22km/h | 35531m | 6.9m/s | -33.6°C | 0% | 5.5hPa | 2.6V | 03:11:46 | 02:41:05 | 00:00:00 | |
| AA1-15 | 2026-09-04 00:35:47 | 52.39175 | 11.40729 | 111° | 47km/h | 35511m | 3.9m/s | -33.5°C | 0% | 5.5hPa | 2.5V | 03:11:46 | 02:41:01 | 00:00:00 | |
| BUE01 | 2026-09-04 00:35:47 | 52.39175 | 11.40729 | 111° | 46km/h | 35512m | 3.9m/s | -33.5°C | 0.0% | 5.5hPa | 2.6V | 00:00:00 | 00:00:00 | 00:00:00 | |
| DL1XH-15 | 2026-09-04 00:35:45 | 52.39166 | 11.40647 | 52° | 57km/h | 35486m | 5.5m/s | -33.5°C | 1.3% | 5.5hPa | 2.6V | 03:11:28 | 02:40:57 | 00:00:00 | |
| DL1XH-west | 2026-09-04 00:35:43 | 52.39173 | 11.40667 | 65° | 57km/h | 35492m | 7m/s | -33.5°C | 0% | 5.5hPa | 2.6V | 03:11:46 | 02:40:58 | 00:00:00 | |
| DO2SHX-10 | 2026-09-04 00:35:42 | 52.39166 | 11.40647 | 53° | 49km/h | 35487m | 5.4m/s | -33.5°C | 1.3% | 5.5hPa | 2.5V | 00:00:00 | 02:40:57 | 00:00:00 | |
| DL1NUX | 2026-09-04 00:35:41 | 52.39141 | 11.40612 | 29° | 26km/h | 35473m | 4.3m/s | -33.4°C | 1.3% | 5.6hPa | 2.5V | 03:11:31 | 02:40:54 | 00:00:00 | |
| DM0DOS-11 | 2026-09-04 00:35:41 | 52.39140 | 11.40605 | 167° | 22km/h | 35454m | 6m/s | -33.4°C | 1.3% | 5.6hPa | 2.6V | 03:11:34 | 02:40:51 | 00:00:00 | |
| HSKMA3-T | 2026-09-04 00:35:39 | 52.39141 | 11.40612 | 29° | 26km/h | 35473m | 4.3m/s | -33.4°C | 0% | 5.6hPa | 2.5V | 03:11:46 | 02:40:54 | 00:00:00 | |
| AA1-15 | 2026-09-04 00:35:36 | 52.39140 | 11.40605 | 167° | 24km/h | 35454m | 6.1m/s | -33.4°C | 0% | 5.6hPa | 2.6V | 03:11:46 | 02:40:51 | 00:00:00 | |
| DO3MHA-11 | 2026-09-04 00:35:35 | 52.39147 | 11.40601 | 157° | 51km/h | 35449m | 4.3m/s | -33.5°C | 1.3% | 5.5hPa | 2.5V | 03:11:00 | 02:40:50 | 00:00:00 | |
| DL1XH-15 | 2026-09-04 00:35:34 | 52.39167 | 11.40559 | 104° | 57km/h | 35437m | 6m/s | -33.5°C | 1.3% | 5.6hPa | 2.6V | 03:11:38 | 02:40:47 | 00:00:00 | |
| DL1XH-west | 2026-09-04 00:35:32 | 52.39168 | 11.40559 | 105° | 57km/h | 35437m | 6m/s | -33.6°C | 0% | 5.6hPa | 2.6V | 03:11:46 | 02:40:47 | 00:00:00 | |
| DD8BA-10 | 2026-09-04 00:35:32 | 52.39168 | 11.40558 | 105° | 47km/h | 35437m | 5.9m/s | -33.5°C | 1.3% | 5.5hPa | 2.6V | 00:00:00 | 00:00:00 | 00:00:00 | |
| DL1NUX | 2026-09-04 00:35:31 | 52.39138 | 11.40452 | 30° | 47km/h | 35411m | 3.7m/s | -33.7°C | 1.3% | 5.6hPa | 2.6V | 03:11:43 | 02:40:42 | 00:00:00 | |
| HSKMA3-T | 2026-09-04 00:35:29 | 52.39149 | 11.40465 | 44° | 60km/h | 35414m | 3.3m/s | -33.7°C | 0% | 5.6hPa | 2.5V | 03:11:46 | 02:40:43 | 00:00:00 | |
| DJ8HS-15 | 2026-09-04 00:35:28 | 52.39149 | 11.40465 | 44° | 40km/h | 35415m | 3.2m/s | -33.6°C | 1.3% | 5.5hPa | 2.5V | 03:11:00 | 02:40:43 | 00:00:00 | |
| DL1XH-15 | 2026-09-04 00:35:27 | 52.39141 | 11.40451 | 159° | 44km/h | 35378m | 3.6m/s | -34.1°C | 1.4% | 5.6hPa | 2.5V | 03:11:49 | 02:40:36 | 00:00:00 | |
| DL1XH1-15 | 2026-09-04 00:35:27 | 52.39122 | 11.40447 | 255° | 11km/h | 35394m | 6.9m/s | -33.9°C | 1.4% | 5.6hPa | 2.5V | 03:11:46 | 02:40:39 | 00:00:00 | |
| AA1-15 | 2026-09-04 00:35:25 | 52.39123 | 11.40444 | 346° | 18km/h | 35401m | 6.6m/s | -33.8°C | 0% | 5.6hPa | 2.5V | 03:11:46 | 02:40:40 | 00:00:00 | |
| DL1XH-west | 2026-09-04 00:35:22 | 52.39141 | 11.40451 | 160° | 44km/h | 35378m | 3.6m/s | -34.1°C | 0% | 5.6hPa | 2.5V | 03:12:37 | 02:40:36 | 00:00:00 | |
| DL1NUX | 2026-09-04 00:35:21 | 52.39164 | 11.40381 | 81° | 60km/h | 35358m | 5.5m/s | -34.2°C | 1.4% | 5.6hPa | 2.5V | 03:11:53 | 02:40:32 | 00:00:00 | |
| DO2SHX-10 | 2026-09-04 00:35:21 | 52.39141 | 11.40451 | 160° | 47km/h | 35379m | 3.6m/s | -34.0°C | 1.4% | 5.6hPa | 2.5V | 00:00:00 | 02:40:36 | 00:00:00 | |
| HTAHTA | 2026-09-04 00:35:20 | 52.39151 | 11.40442 | 141° | 47km/h | 35374m | 4.4m/s | -34.1°C | 0.1% | 5.6hPa | 2.6V | 00:00:00 | 00:00:00 | 00:00:00 | |
| DL1XH1-15 | 2026-09-04 00:35:19 | 52.39142 | 11.40326 | 30° | 46km/h | 35343m | 3.8m/s | -34.3°C | 1.4% | 5.7hPa | 2.6V | 03:11:56 | 02:40:29 | 00:00:00 | |
| HSKMA3-T | 2026-09-04 00:35:18 | 52.39164 | 11.40405 | 99° | 58km/h | 35364m | 5.8m/s | -34.2°C | 0% | 5.6hPa | 2.6V | 03:12:37 | 02:40:33 | 00:00:00 | |
| SONCRA | 2026-09-04 00:35:18 | 52.39164 | 11.40381 | 81° | 58km/h | 35358m | 5.5m/s | -34.2°C | 0.1% | 5.6hPa | 2.5V | 00:00:00 | 00:00:00 | 00:00:00 | |
| GOEST3-10 | 2026-09-04 00:35:17 | 52.39164 | 11.40381 | 82° | 51km/h | 35359m | 5.5m/s | -34.2°C | 1.4% | 5.6hPa | 2.5V | 03:11:00 | 00:00:00 | 00:00:00 | |
| DL1XH-15 | 2026-09-04 00:35:16 | 52.39126 | 11.40321 | 331° | 22km/h | 35333m | 5.3m/s | -34.4°C | 1.4% | 5.7hPa | 2.5V | 03:11:58 | 02:40:27 | 00:00:00 | |
| AA1-15 | 2026-09-04 00:35:15 | 52.39142 | 11.40326 | 30° | 46km/h | 35343m | 3.8m/s | -34.3°C | 0% | 5.7hPa | 2.6V | 03:12:37 | 02:40:29 | 00:00:00 | |
| DO2SHX-10 | 2026-09-04 00:35:15 | 52.39151 | 11.40339 | 48° | 44km/h | 35348m | 4.3m/s | -34.2°C | 1.4% | 5.6hPa | 2.6V | 00:00:00 | 02:40:30 | 00:00:00 | |
| DO3MHA-11 | 2026-09-04 00:35:14 | 52.39142 | 11.40326 | 31° | 38km/h | 35344m | 3.8m/s | -34.3°C | 1.4% | 5.6hPa | 2.6V | 00:00:00 | 02:40:29 | 00:00:00 | |
| DF7ER-10 | 2026-09-04 00:35:13 | 52.39142 | 11.40326 | 31° | 46km/h | 35344m | 3.8m/s | -34.3°C | 0.1% | 5.7hPa | 2.6V | 03:12:00 | 00:00:00 | 00:00:00 | |
| SMARD9-15 | 2026-09-04 00:35:12 | 52.39126 | 11.40321 | 331° | 20km/h | 35334m | 5.4m/s | -34.4°C | 0.1% | 5.7hPa | 2.6V | 00:00:00 | 00:00:00 | 00:00:00 | |
| DL1NUX | 2026-09-04 00:35:11 | 52.39157 | 11.40336 | 151° | 51km/h | 35307m | 4.6m/s | -34.3°C | 1.4% | 5.7hPa | 2.6V | 03:12:03 | 02:40:22 | 00:00:00 | |
| DL1XH-west | 2026-09-04 00:35:11 | 52.39127 | 11.40335 | 221° | 29km/h | 35322m | 6m/s | -34.4°C | 0% | 5.7hPa | 2.5V | 03:12:37 | 02:40:25 | 00:00:00 | |
| DM0DOS-11 | 2026-09-04 00:35:11 | 52.39167 | 11.40323 | 131° | 55km/h | 35302m | 5.2m/s | -34.3°C | 1.4% | 5.7hPa | 2.5V | 03:12:04 | 02:40:21 | 00:00:00 | |
| DL1XH1-15 | 2026-09-04 00:35:09 | 52.39177 | 11.40282 | 91° | 57km/h | 35291m | 6.4m/s | -34.2°C | 1.4% | 5.7hPa | 2.5V | 03:12:06 | 02:40:19 | 00:00:00 | |
| HSKMA3-T | 2026-09-04 00:35:07 | 52.39157 | 11.40336 | 152° | 51km/h | 35307m | 4.6m/s | -34.3°C | 0% | 5.7hPa | 2.6V | 03:12:37 | 02:40:22 | 00:00:00 | |
| AA1-15 | 2026-09-04 00:35:04 | 52.39175 | 11.40260 | 72° | 55km/h | 35284m | 6.3m/s | -34.2°C | 0% | 5.7hPa | 2.6V | 03:12:37 | 02:40:18 | 00:00:00 | |
| DF7ER-10 | 2026-09-04 00:35:04 | 52.39177 | 11.40282 | 93° | 57km/h | 35291m | 6.4m/s | -34.2°C | 0.1% | 5.7hPa | 2.6V | 03:12:00 | 00:00:00 | 00:00:00 | |
| DO2SHX-10 | 2026-09-04 00:35:03 | 52.39175 | 11.40260 | 73° | 47km/h | 35285m | 6.2m/s | -34.2°C | 1.4% | 5.6hPa | 2.6V | 00:00:00 | 02:40:18 | 00:00:00 | |
| GOEST3-10 | 2026-09-04 00:35:02 | 52.39169 | 11.40241 | 54° | 31km/h | 35278m | 5.7m/s | -34.2°C | 1.4% | 5.7hPa | 2.6V | 00:00:00 | 02:40:17 | 00:00:00 | |
| DL1NUX | 2026-09-04 00:35:01 | 52.39149 | 11.40234 | 216° | 27km/h | 35253m | 6.7m/s | -34.2°C | 1.4% | 5.7hPa | 2.6V | 03:12:13 | 02:40:12 | 00:00:00 | |
| DL3OBA | 2026-09-04 00:35:01 | 52.39161 | 11.40228 | 35° | 40km/h | 35274m | 5.0m/s | -34.2°C | 0.1% | 5.7hPa | 2.6V | 03:12:00 | 00:00:00 | 00:00:00 | |
| DM0DOS-11 | 2026-09-04 00:35:00 | 52.39157 | 11.40240 | 194° | 42km/h | 35246m | 6.8m/s | -34.3°C | 1.4% | 5.7hPa | 2.6V | 03:12:14 | 02:40:11 | 00:00:00 | |
| DL1XH-west | 2026-09-04 00:35:00 | 52.39153 | 11.40222 | 11° | 29km/h | 35268m | 4.2m/s | -34.2°C | 0% | 5.7hPa | 2.5V | 03:12:37 | 02:40:15 | 00:00:00 | |
| DO2SHX-10 | 2026-09-04 00:35:00 | 52.39153 | 11.40222 | 12° | 20km/h | 35269m | 4.2m/s | -34.1°C | 1.4% | 5.7hPa | 2.5V | 03:12:00 | 02:40:15 | 00:00:00 | |
| DL1XH1-15 | 2026-09-04 00:34:59 | 52.39183 | 11.40237 | 161° | 62km/h | 35235m | 4.5m/s | -34.3°C | 1.4% | 5.7hPa | 2.5V | 03:12:16 | 02:40:09 | 00:00:00 | |
| HSKMA3-T | 2026-09-04 00:34:57 | 52.39149 | 11.40234 | 217° | 27km/h | 35253m | 6.7m/s | -34.2°C | 0% | 5.7hPa | 2.6V | 03:12:37 | 02:40:12 | 00:00:00 | |
| DO2SHX-10 | 2026-09-04 00:34:57 | 52.39149 | 11.40234 | 217° | 42km/h | 35253m | 6.6m/s | -34.2°C | 1.4% | 5.7hPa | 2.5V | 00:00:00 | 02:40:12 | 00:00:00 | |
| DL1XH-15 | 2026-09-04 00:34:56 | 52.39208 | 11.40209 | 128° | 60km/h | 35226m | 4.8m/s | -34.4°C | 1.4% | 5.8hPa | 2.5V | 03:12:18 | 02:40:07 | 00:00:00 | |
| AA1-15 | 2026-09-04 00:34:54 | 52.39197 | 11.40225 | 145° | 62km/h | 35231m | 4.1m/s | -34.4°C | 0% | 5.7hPa | 2.5V | 03:12:37 | 02:40:08 | 00:00:00 | |
| SP3WXH-11 | 2026-09-04 00:34:54 | 52.39197 | 11.40225 | 145° | 62km/h | 35231m | 4.1m/s | -34.4°C | 0.1% | 5.7hPa | 2.5V | 00:00:00 | 00:00:00 | 00:00:00 | |
| AP2371 | 2026-09-04 00:34:53 | 52.39197 | 11.40225 | 146° | 62km/h | 35231m | 4.1m/s | -34.4°C | 0.1% | 5.7hPa | 2.5V | 00:00:00 | 00:00:00 | 00:00:00 | |
| OE5DRO-10 | 2026-09-04 00:34:52 | 52.39208 | 11.40208 | 129° | 31km/h | 35226m | 4.8m/s | -34.4°C | 1.4% | 5.7hPa | 2.5V | 00:00:00 | 00:00:00 | 00:00:00 | |
| DD8BA-10 | 2026-09-04 00:34:51 | 52.39216 | 11.40188 | 112° | 38km/h | 35221m | 5.6m/s | -34.5°C | 1.4% | 5.7hPa | 2.5V | 00:00:00 | 00:00:00 | 00:00:00 | |
| DM0DOS-11 | 2026-09-04 00:34:50 | 52.39201 | 11.40126 | 340° | 15km/h | 35193m | 4.6m/s | -34.7°C | 1.4% | 5.8hPa | 2.5V | 03:12:24 | 02:40:01 | 00:00:00 | |
| DL1XH-west | 2026-09-04 00:34:49 | 52.39217 | 11.40148 | 71° | 44km/h | 35209m | 6.2m/s | -34.6°C | 0% | 5.8hPa | 2.6V | 03:12:37 | 02:40:04 | 00:00:00 | |
| 13BRC | 2026-09-04 00:34:49 | 52.39217 | 11.40148 | 72° | 44km/h | 35209m | 6.2m/s | -34.6°C | 0.1% | 5.8hPa | 2.6V | 03:12:00 | 00:00:00 | 00:00:00 | |
| DO2SHX-10 | 2026-09-04 00:34:48 | 52.39212 | 11.40134 | 50° | 26km/h | 35203m | 5.2m/s | -34.6°C | 1.4% | 5.7hPa | 2.6V | 03:12:00 | 02:40:03 | 00:00:00 | |
| DL1XH1-15 | 2026-09-04 00:34:47 | 52.39202 | 11.40137 | 226° | 26km/h | 35182m | 5.7m/s | -34.8°C | 1.4% | 5.8hPa | 2.6V | 03:12:26 | 02:39:59 | 00:00:00 | |
| HSKMA3-T | 2026-09-04 00:34:46 | 52.39201 | 11.40126 | 341° | 15km/h | 35193m | 4.6m/s | -34.7°C | 0% | 5.8hPa | 2.5V | 03:12:37 | 02:40:01 | 00:00:00 | |
| DL1XH-15 | 2026-09-04 00:34:46 | 52.39218 | 11.40148 | 186° | 47km/h | 35170m | 6.1m/s | -34.8°C | 1.4% | 5.8hPa | 2.5V | 03:12:28 | 02:39:57 | 00:00:00 | |
| EDDB2-12 | 2026-09-04 00:34:46 | 52.39200 | 11.40130 | 269° | 13km/h | 35188m | 5.2m/s | -34.7°C | 0.1% | 5.8hPa | 2.5V | 00:00:00 | 00:00:00 | 00:00:00 | |
| DJ2DS-15 | 2026-09-04 00:34:45 | 52.39200 | 11.40130 | 269° | 13km/h | 35188m | 5.2m/s | -34.7°C | 0.1% | 5.8hPa | 2.5V | 00:00:00 | 00:00:00 | 00:00:00 | |
| AA1-15 | 2026-09-04 00:34:42 | 52.39218 | 11.40148 | 186° | 47km/h | 35170m | 6.1m/s | -34.8°C | 0% | 5.8hPa | 2.5V | 03:12:37 | 02:39:57 | 00:00:00 | |
| DO2SHX-10 | 2026-09-04 00:34:42 | 52.39218 | 11.40147 | 187° | 53km/h | 35171m | 6.1m/s | -34.8°C | 1.4% | 5.7hPa | 2.6V | 00:00:00 | 02:39:57 | 00:00:00 | |
| DB0DAN | 2026-09-04 00:34:40 | 52.39244 | 11.40140 | 156° | 53km/h | 35159m | 4.9m/s | -34.9°C | 0.1% | 5.81hPa | 2.6V | 00:00:00 | 00:00:00 | 00:00:00 | |
| DM0DOS-11 | 2026-09-04 00:34:40 | 52.39270 | 11.40078 | 86° | 40km/h | 35138m | 6.3m/s | -35.1°C | 1.5% | 5.8hPa | 2.6V | 03:12:34 | 02:39:51 | 00:00:00 | |
| DL3OBA | 2026-09-04 00:34:40 | 52.39244 | 11.40140 | 157° | 57km/h | 35160m | 4.9m/s | -34.9°C | 0.1% | 5.8hPa | 2.5V | 03:12:00 | 00:00:00 | 00:00:00 | |
| DL1XH1-15 | 2026-09-04 00:34:39 | 52.39264 | 11.40053 | 41° | 27km/h | 35126m | 5.2m/s | -35.2°C | 1.5% | 5.8hPa | 2.5V | 03:12:36 | 02:39:49 | 00:00:00 | |
| DL1XH-west | 2026-09-04 00:34:39 | 52.39256 | 11.40128 | 140° | 55km/h | 35154m | 4.7m/s | -35°C | 0% | 5.8hPa | 2.6V | 03:12:37 | 02:39:54 | 00:00:00 | |
| DO2SHX-10 | 2026-09-04 00:34:39 | 52.39256 | 11.40128 | 140° | 49km/h | 35155m | 4.7m/s | -34.9°C | 1.4% | 5.8hPa | 2.5V | 00:00:00 | 02:39:54 | 00:00:00 | |
| GOEST3-10 | 2026-09-04 00:34:37 | 52.39269 | 11.40095 | 105° | 33km/h | 35144m | 5.6m/s | -35.0°C | 1.5% | 5.8hPa | 2.5V | 03:12:00 | 00:00:00 | 00:00:00 | |
| DL1XH-15 | 2026-09-04 00:34:36 | 52.39256 | 11.40048 | 338° | 11km/h | 35116m | 5.1m/s | -35.2°C | 1.5% | 5.8hPa | 2.6V | 03:12:38 | 02:39:47 | 00:00:00 | |
| HSKMA3-T | 2026-09-04 00:34:35 | 52.39268 | 11.40063 | 64° | 35km/h | 35132m | 5.9m/s | -35.2°C | 0% | 5.8hPa | 2.6V | 03:12:37 | 02:39:50 | 00:00:00 | |
| AA1-15 | 2026-09-04 00:34:32 | 52.39256 | 11.40048 | 339° | 11km/h | 35116m | 5.1m/s | -35.3°C | 0% | 5.8hPa | 2.6V | 03:13:28 | 02:39:47 | 00:00:00 | |
| OE5DRO-10 | 2026-09-04 00:34:32 | 52.39256 | 11.40047 | 339° | 22km/h | 35116m | 5.0m/s | -35.2°C | 1.5% | 5.8hPa | 2.6V | 00:00:00 | 00:00:00 | 00:00:00 | |
| DD8BA-10 | 2026-09-04 00:34:31 | 52.39255 | 11.40050 | 255° | 33km/h | 35111m | 5.6m/s | -35.2°C | 1.5% | 5.8hPa | 2.6V | 00:00:00 | 00:00:00 | 00:00:00 | |
| DO2SHX-10 | 2026-09-04 00:34:30 | 52.39257 | 11.40053 | 208° | 27km/h | 35105m | 5.9m/s | -35.3°C | 1.5% | 5.8hPa | 2.5V | 00:00:00 | 02:39:45 | 00:00:00 | |
| DM0DOS-11 | 2026-09-04 00:34:29 | 52.39289 | 11.40043 | 141° | 42km/h | 35082m | 5.5m/s | -35.3°C | 1.4% | 5.8hPa | 2.5V | 03:12:44 | 02:39:41 | 00:00:00 | |
| DL1XH-west | 2026-09-04 00:34:29 | 52.39263 | 11.40056 | 187° | 29km/h | 35099m | 6.1m/s | -35.3°C | 0% | 5.8hPa | 2.5V | 03:13:28 | 02:39:44 | 00:00:00 | |
| 13BRC | 2026-09-04 00:34:29 | 52.39263 | 11.40056 | 188° | 29km/h | 35099m | 6.1m/s | -35.3°C | 0.1% | 5.8hPa | 2.6V | 03:13:00 | 00:00:00 | 00:00:00 | |
| DJ8HS-15 | 2026-09-04 00:34:28 | 52.39271 | 11.40056 | 172° | 26km/h | 35093m | 5.6m/s | -35.3°C | 1.5% | 5.8hPa | 2.6V | 00:00:00 | 02:39:43 | 00:00:00 | |
| EDDB2-11 | 2026-09-04 00:34:27 | 52.39289 | 11.40043 | 141° | 40km/h | 35082m | 5.5m/s | -35.3°C | 0.1% | 5.9hPa | 2.6V | 00:00:00 | 00:00:00 | 00:00:00 | |
| DL1XH-15 | 2026-09-04 00:34:26 | 52.39303 | 11.39988 | 81° | 33km/h | 35057m | 6.1m/s | -35.5°C | 1.5% | 5.9hPa | 2.6V | 03:12:48 | 02:39:37 | 00:00:00 | |
| HSKMA3-T | 2026-09-04 00:34:24 | 52.39301 | 11.40017 | 111° | 38km/h | 35070m | 6.3m/s | -35.4°C | 0% | 5.9hPa | 2.6V | 03:13:28 | 02:39:39 | 00:00:00 | |
| AA1-15 | 2026-09-04 00:34:22 | 52.39301 | 11.39976 | 68° | 27km/h | 35051m | 6m/s | -35.5°C | 0% | 5.9hPa | 2.5V | 03:13:28 | 02:39:36 | 00:00:00 | |
| DL1XH-west | 2026-09-04 00:34:19 | 52.39296 | 11.39961 | 62° | 13km/h | 35040m | 5.1m/s | -35.6°C | 0% | 5.9hPa | 2.5V | 03:13:28 | 02:39:34 | 00:00:00 | |
| SO1NDE-10 | 2026-09-04 00:34:19 | 52.39296 | 11.39961 | 63° | 22km/h | 35041m | 5.1m/s | -35.5°C | 1.5% | 5.9hPa | 2.5V | 00:00:00 | 02:39:34 | 00:00:00 | |
| DO2SHX-10 | 2026-09-04 00:34:18 | 52.39295 | 11.39957 | 88° | 11km/h | 35035m | 5.3m/s | -35.6°C | 1.5% | 5.9hPa | 2.6V | 00:00:00 | 02:39:33 | 00:00:00 | |
| GOEST3-10 | 2026-09-04 00:34:17 | 52.39296 | 11.39954 | 146° | 18km/h | 35030m | 5.7m/s | -35.6°C | 1.5% | 5.9hPa | 2.6V | 03:12:00 | 00:00:00 | 00:00:00 | |
| SONCRA | 2026-09-04 00:34:16 | 52.39303 | 11.39950 | 166° | 20km/h | 35018m | 6.1m/s | -35.7°C | 0.1% | 5.9hPa | 2.6V | 00:00:00 | 00:00:00 | 00:00:00 | |
| DL1XH-15 | 2026-09-04 00:34:15 | 52.39320 | 11.39942 | 153° | 24km/h | 35000m | 5.6m/s | -35.8°C | 1.5% | 6hPa | 2.6V | 03:12:58 | 02:39:27 | 00:00:00 | |
| HSKMA3-T | 2026-09-04 00:34:13 | 52.39314 | 11.39945 | 160° | 26km/h | 35006m | 5.9m/s | -35.8°C | 0% | 6hPa | 2.5V | 03:13:28 | 02:39:28 | 00:00:00 | |
| AA1-15 | 2026-09-04 00:34:11 | 52.39325 | 11.39937 | 145° | 22km/h | 34994m | 5.7m/s | -35.8°C | 0% | 5.9hPa | 2.6V | 03:13:28 | 02:39:26 | 00:00:00 | |
| DL1XH-west | 2026-09-04 00:34:08 | 52.39335 | 11.39917 | 116° | 22km/h | 34977m | 5.9m/s | -36°C | 0% | 6hPa | 2.5V | 03:13:28 | 02:39:23 | 00:00:00 | |
| 13BRC | 2026-09-04 00:34:08 | 52.39335 | 11.39917 | 117° | 22km/h | 34977m | 5.9m/s | -36.0°C | 0.1% | 6.0hPa | 2.6V | 03:13:00 | 00:00:00 | 00:00:00 | |
| DL1XH1-15 | 2026-09-04 00:34:07 | 52.39339 | 11.39879 | 86° | 26km/h | 34952m | 6m/s | -36.1°C | 1.6% | 6hPa | 2.6V | 03:13:06 | 02:39:19 | 00:00:00 | |
| HSKMA3-T | 2026-09-04 00:34:03 | 52.39338 | 11.39869 | 81° | 22km/h | 34947m | 5.1m/s | -36.1°C | 0% | 6hPa | 2.5V | 03:13:28 | 02:39:18 | 00:00:00 | |
| DL1XH-15 | 2026-09-04 00:34:03 | 52.39338 | 11.39861 | 71° | 16km/h | 34942m | 4.7m/s | -36.1°C | 1.5% | 6hPa | 2.5V | 03:13:08 | 02:39:17 | 00:00:00 | |
| AA1-15 | 2026-09-04 00:34:01 | 52.39334 | 11.39856 | 337° | 5km/h | 34931m | 6.3m/s | -36.1°C | 0% | 6hPa | 2.6V | 03:13:28 | 02:39:15 | 00:00:00 | |
| DO2SHX-10 | 2026-09-04 00:34:00 | 52.39334 | 11.39856 | 337° | 11km/h | 34932m | 6.3m/s | -36.0°C | 1.6% | 6.0hPa | 2.6V | 03:13:00 | 02:39:15 | 00:00:00 | |
| DL1XH1-15 | 2026-09-04 00:33:59 | 52.39342 | 11.39892 | 192° | 22km/h | 34898m | 5.1m/s | -36.1°C | 1.5% | 6hPa | 2.6V | 03:13:16 | 02:39:09 | 00:00:00 | |
| DL3OBA | 2026-09-04 00:33:59 | 52.39333 | 11.39858 | 291° | 11km/h | 34925m | 6.9m/s | -36.1°C | 0.1% | 6.0hPa | 2.5V | 03:13:00 | 00:00:00 | 00:00:00 | |
| DM0DOS-11 | 2026-09-04 00:33:58 | 52.39334 | 11.39881 | 245° | 24km/h | 34907m | 4.1m/s | -36°C | 1.6% | 6hPa | 2.5V | 03:13:14 | 02:39:11 | 00:00:00 | |
| DL1XH-west | 2026-09-04 00:33:58 | 52.39333 | 11.39864 | 275° | 18km/h | 34918m | 7.1m/s | -36.1°C | 0% | 6hPa | 2.6V | 03:13:28 | 02:39:13 | 00:00:00 | |
| HSKMA3-T | 2026-09-04 00:33:52 | 52.39355 | 11.39885 | 139° | 35km/h | 34884m | 7.6m/s | -36.1°C | 0% | 6hPa | 2.6V | 03:13:28 | 02:39:07 | 00:00:00 | |
| DF8AY | 2026-09-04 00:33:50 | 52.39364 | 11.39858 | 104° | 42km/h | 34872m | 4.7m/s | -36°C | 0% | 6.1hPa | 2.5V | 03:16:52 | 02:39:05 | 00:00:00 | |
| SO1NDE-10 | 2026-09-04 00:33:49 | 52.39365 | 11.39842 | 85° | 33km/h | 34868m | 4.1m/s | -36.0°C | 1.5% | 6.0hPa | 2.6V | 03:13:00 | 02:39:04 | 00:00:00 | |
| DM0DOS-11 | 2026-09-04 00:33:48 | 52.39351 | 11.39812 | 8° | 29km/h | 34849m | 7.1m/s | -35.9°C | 1.5% | 6.1hPa | 2.6V | 03:13:24 | 02:39:01 | 00:00:00 | |
| DL1XH-west | 2026-09-04 00:33:48 | 52.39358 | 11.39817 | 40° | 31km/h | 34856m | 7.2m/s | -36°C | 0% | 6.1hPa | 2.6V | 03:13:28 | 02:39:02 | 00:00:00 | |
| 13BRC | 2026-09-04 00:33:48 | 52.39363 | 11.39827 | 66° | 35km/h | 34863m | 5.4m/s | -36.0°C | 0.1% | 6.1hPa | 2.6V | 03:13:00 | 00:00:00 | 00:00:00 | |
| DL1XH1-15 | 2026-09-04 00:33:48 | 52.39338 | 11.39821 | 312° | 29km/h | 34837m | 4.1m/s | -35.9°C | 1.5% | 6.1hPa | 2.5V | 03:13:26 | 02:38:59 | 00:00:00 | |
| DL1XH-15 | 2026-09-04 00:33:47 | 52.39334 | 11.39839 | 247° | 20km/h | 34829m | 4.8m/s | -35.9°C | 1.5% | 6.1hPa | 2.6V | 03:13:28 | 02:38:57 | 00:00:00 | |
| HTAHTA | 2026-09-04 00:33:47 | 52.39358 | 11.39817 | 39° | 29km/h | 34856m | 7.2m/s | -36.0°C | 0.1% | 6.1hPa | 2.6V | 00:00:00 | 00:00:00 | 00:00:00 | |
| SONCRA | 2026-09-04 00:33:45 | 52.39338 | 11.39821 | 312° | 29km/h | 34837m | 4.1m/s | -35.9°C | 0.1% | 6.1hPa | 2.6V | 00:00:00 | 00:00:00 | 00:00:00 | |
| HSKMA3-T | 2026-09-04 00:33:42 | 52.39335 | 11.39839 | 248° | 20km/h | 34829m | 4.8m/s | -35.9°C | 0% | 6.1hPa | 2.6V | 03:13:28 | 02:38:57 | 00:00:00 | |
| DF8AY | 2026-09-04 00:33:39 | 52.39353 | 11.39839 | 147° | 42km/h | 34809m | 6.6m/s | -35.9°C | 0% | 6.1hPa | 2.5V | 03:16:52 | 02:38:54 | 00:00:00 | |
| DO2SHX-10 | 2026-09-04 00:33:39 | 52.39353 | 11.39839 | 147° | 46km/h | 34809m | 6.6m/s | -35.8°C | 1.5% | 6.1hPa | 2.6V | 00:00:00 | 02:38:54 | 00:00:00 | |
| DM0DOS-11 | 2026-09-04 00:33:38 | 52.39368 | 11.39791 | 89° | 46km/h | 34794m | 4.7m/s | -35.9°C | 1.5% | 6.1hPa | 2.6V | 03:13:34 | 02:38:51 | 00:00:00 | |
| DL3OBA | 2026-09-04 00:33:38 | 52.39360 | 11.39826 | 127° | 47km/h | 34804m | 5.0m/s | -35.9°C | 0.1% | 6.1hPa | 2.6V | 03:14:00 | 00:00:00 | 00:00:00 | |
| DL1XH1-15 | 2026-09-04 00:33:37 | 52.39360 | 11.39761 | 39° | 37km/h | 34782m | 6.4m/s | -35.9°C | 1.5% | 6.1hPa | 2.6V | 03:13:36 | 02:38:49 | 00:00:00 | |
| DL1XH-west | 2026-09-04 00:33:37 | 52.39368 | 11.39790 | 90° | 46km/h | 34794m | 4.7m/s | -35.9°C | 0% | 6.1hPa | 2.6V | 03:14:19 | 02:38:51 | 00:00:00 | |
| DL1XH-15 | 2026-09-04 00:33:37 | 52.39343 | 11.39756 | 341° | 38km/h | 34769m | 6.1m/s | -35.9°C | 1.5% | 6.2hPa | 2.5V | 03:13:38 | 02:38:47 | 00:00:00 | |
| HSKMA3-T | 2026-09-04 00:33:32 | 52.39335 | 11.39764 | 314° | 37km/h | 34763m | 5.4m/s | -36°C | 0% | 6.2hPa | 2.5V | 03:14:19 | 02:38:46 | 00:00:00 | |
| AA1-15 | 2026-09-04 00:33:29 | 52.39330 | 11.39789 | 260° | 31km/h | 34752m | 5.7m/s | -36°C | 0% | 6.2hPa | 2.6V | 03:14:19 | 02:38:44 | 00:00:00 | |
| DB0UT-7 | 2026-09-04 00:33:29 | 52.39330 | 11.39789 | 261° | 27km/h | 34753m | 5.7m/s | -36.0°C | 1.5% | 6.1hPa | 2.6V | 03:13:00 | 02:38:44 | 00:00:00 | |
| DJ8HS-15 | 2026-09-04 00:33:28 | 52.39333 | 11.39800 | 227° | 29km/h | 34747m | 5.9m/s | -36.0°C | 1.5% | 6.1hPa | 2.6V | 00:00:00 | 02:38:43 | 00:00:00 | |
| 13BRC | 2026-09-04 00:33:27 | 52.39339 | 11.39806 | 199° | 31km/h | 34741m | 6.2m/s | -36.2°C | 0.1% | 6.2hPa | 2.6V | 03:14:00 | 00:00:00 | 00:00:00 | |
| DL1XH-15 | 2026-09-04 00:33:26 | 52.39362 | 11.39772 | 67° | 29km/h | 34709m | 6.5m/s | -36.3°C | 1.5% | 6.2hPa | 2.6V | 03:13:48 | 02:38:37 | 00:00:00 | |
| DF8AY | 2026-09-04 00:33:26 | 52.39355 | 11.39803 | 149° | 33km/h | 34728m | 6.4m/s | -36.3°C | 0% | 6.2hPa | 2.5V | 03:16:52 | 02:38:40 | 00:00:00 | |
| HSKMA3-T | 2026-09-04 00:33:21 | 52.39358 | 11.39762 | 40° | 29km/h | 34703m | 6.3m/s | -36.3°C | 0% | 6.2hPa | 2.5V | 03:14:19 | 02:38:36 | 00:00:00 | |
| AA1-15 | 2026-09-04 00:33:19 | 52.39343 | 11.39757 | 349° | 35km/h | 34689m | 6m/s | -36.4°C | 0% | 6.2hPa | 2.5V | 03:14:19 | 02:38:34 | 00:00:00 | |
| SO1NDE-10 | 2026-09-04 00:33:19 | 52.39343 | 11.39757 | 349° | 22km/h | 34690m | 5.9m/s | -36.3°C | 1.6% | 6.2hPa | 2.5V | 00:00:00 | 02:38:34 | 00:00:00 | |
| DO2SHX-10 | 2026-09-04 00:33:18 | 52.39336 | 11.39762 | 326° | 35km/h | 34684m | 5.6m/s | -36.3°C | 1.6% | 6.2hPa | 2.5V | 00:00:00 | 02:38:33 | 00:00:00 | |
| DL1XH1-15 | 2026-09-04 00:33:17 | 52.39330 | 11.39808 | 228° | 31km/h | 34660m | 6m/s | -36.5°C | 1.6% | 6.3hPa | 2.5V | 03:13:56 | 02:38:29 | 00:00:00 | |
| GOEST3-10 | 2026-09-04 00:33:17 | 52.39329 | 11.39772 | 304° | 31km/h | 34678m | 5.4m/s | -36.4°C | 1.6% | 6.2hPa | 2.5V | 03:13:00 | 00:00:00 | 00:00:00 | |
| DL4BBY-15 | 2026-09-04 00:33:16 | 52.39326 | 11.39784 | 281° | 20km/h | 34672m | 5.8m/s | -36.0°C | 0% | 0hPa | 2.5V | 00:00:00 | 00:00:00 | 00:00:00 | |
| DO2SHX-10 | 2026-09-04 00:33:15 | 52.39326 | 11.39797 | 254° | 31km/h | 34667m | 6.0m/s | -36.4°C | 1.6% | 6.2hPa | 2.5V | 00:00:00 | 02:38:30 | 00:00:00 | |
| DL1XH-15 | 2026-09-04 00:33:14 | 52.39343 | 11.39819 | 186° | 29km/h | 34648m | 5.3m/s | -36.5°C | 1.6% | 6.3hPa | 2.6V | 03:13:58 | 02:38:27 | 00:00:00 | |
| DL1XH-west | 2026-09-04 00:33:14 | 52.39336 | 11.39816 | 204° | 31km/h | 34654m | 6.1m/s | -36.5°C | 0% | 6.3hPa | 2.5V | 03:14:19 | 02:38:28 | 00:00:00 | |
| DF8AY | 2026-09-04 00:33:12 | 52.39350 | 11.39818 | 168° | 26km/h | 34643m | 5.5m/s | -36.4°C | 0% | 6.3hPa | 2.6V | 03:16:52 | 02:38:26 | 00:00:00 | |
| HSKMA3-T | 2026-09-04 00:33:11 | 52.39355 | 11.39815 | 148° | 18km/h | 34637m | 5.6m/s | -36.4°C | 0% | 6.3hPa | 2.6V | 03:14:19 | 02:38:25 | 00:00:00 | |
| AA1-15 | 2026-09-04 00:33:09 | 52.39357 | 11.39808 | 40° | 9km/h | 34625m | 6.5m/s | -36.4°C | 0% | 6.3hPa | 2.5V | 03:14:19 | 02:38:23 | 00:00:00 | |
| DO2SHX-10 | 2026-09-04 00:33:09 | 52.39358 | 11.39811 | 114° | 11km/h | 34632m | 6.1m/s | -36.4°C | 1.6% | 6.2hPa | 2.5V | 00:00:00 | 02:38:24 | 00:00:00 | |
| DJ8HS-15 | 2026-09-04 00:33:08 | 52.39357 | 11.39808 | 41° | 18km/h | 34626m | 6.5m/s | -36.3°C | 1.6% | 6.2hPa | 2.5V | 00:00:00 | 02:38:23 | 00:00:00 | |
| GOEST3-10 | 2026-09-04 00:33:07 | 52.39355 | 11.39807 | 354° | 20km/h | 34619m | 6.4m/s | -36.3°C | 1.6% | 6.3hPa | 2.5V | 00:00:00 | 00:00:00 | 00:00:00 | |
| 13BRC | 2026-09-04 00:33:06 | 52.39351 | 11.39810 | 332° | 20km/h | 34612m | 6.2m/s | -36.3°C | 0.1% | 6.3hPa | 2.6V | 03:14:00 | 00:00:00 | 00:00:00 | |
| DL1XH1-15 | 2026-09-04 00:33:05 | 52.39344 | 11.39824 | 290° | 24km/h | 34601m | 5.4m/s | -36.3°C | 1.6% | 6.3hPa | 2.6V | 03:14:06 | 02:38:19 | 00:00:00 | |
| DL1XH-15 | 2026-09-04 00:33:04 | 52.39345 | 11.39842 | 239° | 24km/h | 34590m | 5.8m/s | -36.3°C | 1.6% | 6.3hPa | 2.5V | 03:14:08 | 02:38:17 | 00:00:00 | |
| DL1XH-west | 2026-09-04 00:33:02 | 52.39345 | 11.39842 | 240° | 24km/h | 34590m | 5.8m/s | -36.3°C | 0% | 6.3hPa | 2.5V | 03:14:19 | 02:38:17 | 00:00:00 | |
| HSKMA3-T | 2026-09-04 00:33:00 | 52.39355 | 11.39854 | 196° | 29km/h | 34577m | 6.9m/s | -36.3°C | 0% | 6.3hPa | 2.6V | 03:14:19 | 02:38:15 | 00:00:00 | |
| DO2SHX-10 | 2026-09-04 00:33:00 | 52.39355 | 11.39854 | 196° | 31km/h | 34577m | 6.9m/s | -36.2°C | 1.6% | 6.3hPa | 2.6V | 03:14:00 | 02:38:15 | 00:00:00 | |
| DL1XH1-15 | 2026-09-04 00:32:59 | 52.39390 | 11.39855 | 232° | 9km/h | 34541m | 6.6m/s | -36.2°C | 1.6% | 6.4hPa | 2.6V | 03:14:16 | 02:38:09 | 00:00:00 | |
| AA1-15 | 2026-09-04 00:32:58 | 52.39378 | 11.39854 | 171° | 27km/h | 34559m | 4.9m/s | -36.3°C | 0% | 6.3hPa | 2.5V | 03:14:19 | 02:38:12 | 00:00:00 | |
| DJ2DS-15 | 2026-09-04 00:32:57 | 52.39384 | 11.39853 | 173° | 20km/h | 34554m | 5.1m/s | -36.3°C | 0.1% | 6.4hPa | 2.6V | 00:00:00 | 00:00:00 | 00:00:00 | |
| AP2371 | 2026-09-04 00:32:56 | 52.39384 | 11.39853 | 175° | 20km/h | 34554m | 5.1m/s | -36.3°C | 0.1% | 6.4hPa | 2.6V | 00:00:00 | 00:00:00 | 00:00:00 | |
| DL3OBA | 2026-09-04 00:32:55 | 52.39384 | 11.39853 | 175° | 20km/h | 34554m | 5.1m/s | -36.3°C | 0.1% | 6.4hPa | 2.6V | 03:14:00 | 00:00:00 | 00:00:00 | |
| DL1XH-15 | 2026-09-04 00:32:54 | 52.39391 | 11.39863 | 278° | 13km/h | 34529m | 5.7m/s | -36.1°C | 1.6% | 6.4hPa | 2.6V | 03:14:18 | 02:38:07 | 00:00:00 | |
| DL1XH-west | 2026-09-04 00:32:52 | 52.39391 | 11.39863 | 279° | 13km/h | 34529m | 5.7m/s | -36.1°C | 0% | 6.4hPa | 2.6V | 03:14:19 | 02:38:07 | 00:00:00 | |
| HSKMA3-T | 2026-09-04 00:32:50 | 52.39391 | 11.39872 | 245° | 7km/h | 34518m | 6m/s | -36.1°C | 0% | 6.4hPa | 2.5V | 03:15:10 | 02:38:05 | 00:00:00 | |
| OE5DRO-10 | 2026-09-04 00:32:49 | 52.39392 | 11.39875 | 208° | 13km/h | 34513m | 5.8m/s | -36.0°C | 1.6% | 6.3hPa | 2.6V | 00:00:00 | 00:00:00 | 00:00:00 | |
| DL1LOL-11 | 2026-09-04 00:32:48 | 52.39395 | 11.39876 | 194° | 15km/h | 34506m | 6.0m/s | -36.0°C | 0.1% | 6.4hPa | 2.6V | 00:00:00 | 00:00:00 | 00:00:00 | |
| AA1-15 | 2026-09-04 00:32:47 | 52.39400 | 11.39877 | 183° | 20km/h | 34500m | 5.7m/s | -36°C | 0% | 6.4hPa | 2.6V | 03:15:10 | 02:38:02 | 00:00:00 | |
| DM0DOS-11 | 2026-09-04 00:32:47 | 52.39405 | 11.39878 | 186° | 24km/h | 34494m | 6m/s | -36°C | 1.6% | 6.4hPa | 2.6V | 03:14:24 | 02:38:01 | 00:00:00 | |
| DF7ER-10 | 2026-09-04 00:32:47 | 52.39400 | 11.39877 | 184° | 20km/h | 34500m | 5.7m/s | -36.0°C | 0.1% | 6.4hPa | 2.5V | 03:15:00 | 00:00:00 | 00:00:00 | |
| DL4BBY-15 | 2026-09-04 00:32:46 | 52.39406 | 11.39878 | 187° | 16km/h | 34495m | 5.9m/s | -35.6°C | 0% | 0hPa | 2.5V | 00:00:00 | 00:00:00 | 00:00:00 | |
| DL1XH1-15 | 2026-09-04 00:32:45 | 52.39417 | 11.39882 | 198° | 24km/h | 34482m | 6m/s | -35.9°C | 1.6% | 6.4hPa | 2.5V | 03:14:26 | 02:37:59 | 00:00:00 | |
| HTAHTA | 2026-09-04 00:32:45 | 52.39411 | 11.39879 | 191° | 24km/h | 34488m | 6.2m/s | -35.9°C | 0.1% | 6.4hPa | 2.6V | 00:00:00 | 00:00:00 | 00:00:00 | |
| DL1XH-west | 2026-09-04 00:32:42 | 52.39429 | 11.39890 | 202° | 9km/h | 34466m | 5.3m/s | -35.8°C | 0% | 6.5hPa | 2.6V | 03:15:10 | 02:37:56 | 00:00:00 | |
| HSKMA3-T | 2026-09-04 00:32:40 | 52.39430 | 11.39891 | 170° | 4km/h | 34460m | 6.6m/s | -35.7°C | 0% | 6.4hPa | 2.6V | 03:15:10 | 02:37:55 | 00:00:00 | |
| AA1-15 | 2026-09-04 00:32:37 | 52.39430 | 11.39882 | 51° | 11km/h | 34441m | 5.4m/s | -35.7°C | 0% | 6.5hPa | 2.5V | 03:15:10 | 02:37:52 | 00:00:00 | |
| GOEST3-10 | 2026-09-04 00:32:37 | 52.39430 | 11.39882 | 52° | 9km/h | 34441m | 5.4m/s | -35.6°C | 1.6% | 6.4hPa | 2.5V | 03:14:00 | 00:00:00 | 00:00:00 | |
| DO2SHX-10 | 2026-09-04 00:32:36 | 52.39427 | 11.39879 | 35° | 9km/h | 34435m | 5.5m/s | -35.6°C | 1.6% | 6.4hPa | 2.6V | 03:14:00 | 02:37:51 | 00:00:00 | |
| DO3MHA-11 | 2026-09-04 00:32:34 | 52.39424 | 11.39879 | 315° | 18km/h | 34423m | 5.9m/s | -35.5°C | 1.6% | 6.4hPa | 2.6V | 00:00:00 | 02:37:49 | 00:00:00 | |
| DL1XH-15 | 2026-09-04 00:32:33 | 52.39425 | 11.39887 | 239° | 13km/h | 34412m | 4.5m/s | -35.5°C | 1.5% | 6.5hPa | 2.5V | 03:14:38 | 02:37:47 | 00:00:00 | |
| DL1XH-west | 2026-09-04 00:32:31 | 52.39428 | 11.39891 | 212° | 18km/h | 34407m | 4.7m/s | -35.4°C | 0% | 6.5hPa | 2.5V | 03:15:10 | 02:37:46 | 00:00:00 | |
| DF8AY | 2026-09-04 00:32:29 | 52.39438 | 11.39894 | 172° | 22km/h | 34394m | 7.1m/s | -35.3°C | 0% | 6.5hPa | 2.6V | 03:16:52 | 02:37:44 | 00:00:00 | |
| DL1XH1-15 | 2026-09-04 00:32:29 | 52.39458 | 11.39873 | 76° | 9km/h | 34365m | 6.6m/s | -35.2°C | 1.5% | 6.5hPa | 2.6V | 03:14:46 | 02:37:39 | 00:00:00 | |
| DB0UT-7 | 2026-09-04 00:32:29 | 52.39438 | 11.39894 | 172° | 18km/h | 34395m | 7.1m/s | -35.3°C | 1.5% | 6.4hPa | 2.6V | 00:00:00 | 02:37:44 | 00:00:00 | |
| DJ8HS-15 | 2026-09-04 00:32:28 | 52.39443 | 11.39892 | 163° | 16km/h | 34388m | 6.3m/s | -35.2°C | 1.5% | 6.4hPa | 2.6V | 00:00:00 | 02:37:43 | 00:00:00 | |
| DM0DOS-11 | 2026-09-04 00:32:27 | 52.39455 | 11.39882 | 139° | 20km/h | 34377m | 4.6m/s | -35.2°C | 1.5% | 6.5hPa | 2.5V | 03:14:44 | 02:37:41 | 00:00:00 | |
| AA1-15 | 2026-09-04 00:32:26 | 52.39455 | 11.39882 | 139° | 20km/h | 34377m | 4.6m/s | -35.3°C | 0% | 6.5hPa | 2.5V | 03:15:10 | 02:37:41 | 00:00:00 | |
| DL1XH-west | 2026-09-04 00:32:20 | 52.39449 | 11.39864 | 49° | 7km/h | 34343m | 5.6m/s | -35.2°C | 0% | 6.5hPa | 2.5V | 03:15:10 | 02:37:35 | 00:00:00 | |
| DL1ZP-14 | 2026-09-04 00:32:20 | 52.39449 | 11.39864 | 48° | 7km/h | 34344m | 5.6m/s | -35.2°C | 0.1% | 6.5hPa | 2.5V | 00:00:00 | 00:00:00 | 00:00:00 | |
| DM0DOS-11 | 2026-09-04 00:32:19 | 52.39459 | 11.39856 | 175° | 24km/h | 34321m | 5.8m/s | -35.2°C | 1.5% | 6.6hPa | 2.6V | 03:14:54 | 02:37:31 | 00:00:00 | |
| HSKMA3-T | 2026-09-04 00:32:18 | 52.39450 | 11.39859 | 150° | 13km/h | 34332m | 5.5m/s | -35.2°C | 0% | 6.6hPa | 2.6V | 03:15:10 | 02:37:33 | 00:00:00 | |
| DF8AY | 2026-09-04 00:32:17 | 52.39454 | 11.39857 | 166° | 20km/h | 34326m | 5.8m/s | -35.2°C | 0% | 6.6hPa | 2.6V | 03:16:52 | 02:37:32 | 00:00:00 | |
| AA1-15 | 2026-09-04 00:32:15 | 52.39465 | 11.39855 | 183° | 26km/h | 34315m | 5.7m/s | -35.2°C | 0% | 6.6hPa | 2.5V | 03:15:10 | 02:37:30 | 00:00:00 | |
| DO2SHX-10 | 2026-09-04 00:32:15 | 52.39465 | 11.39855 | 183° | 26km/h | 34315m | 5.7m/s | -35.2°C | 1.5% | 6.5hPa | 2.6V | 00:00:00 | 02:37:30 | 00:00:00 | |
| DO3MHA-11 | 2026-09-04 00:32:14 | 52.39472 | 11.39856 | 190° | 24km/h | 34310m | 5.9m/s | -35.2°C | 1.5% | 6.5hPa | 2.6V | 03:14:00 | 02:37:29 | 00:00:00 | |
| DL1XH-15 | 2026-09-04 00:32:13 | 52.39483 | 11.39861 | 199° | 20km/h | 34298m | 5.3m/s | -35.2°C | 1.5% | 6.6hPa | 2.6V | 03:14:58 | 02:37:27 | 00:00:00 | |
| DL1XH-west | 2026-09-04 00:32:09 | 52.39493 | 11.39858 | 130° | 16km/h | 34282m | 5.7m/s | -35.2°C | 0% | 6.6hPa | 2.5V | 03:15:10 | 02:37:24 | 00:00:00 | |
| HSKMA3-T | 2026-09-04 00:32:07 | 52.39499 | 11.39841 | 112° | 31km/h | 34270m | 6.4m/s | -35.3°C | 0% | 6.6hPa | 2.5V | 03:15:10 | 02:37:22 | 00:00:00 | |
| DF8AY | 2026-09-04 00:32:06 | 52.39502 | 11.39829 | 112° | 33km/h | 34264m | 5m/s | -35.3°C | 0% | 6.6hPa | 2.6V | 03:16:52 | 02:37:21 | 00:00:00 | |
| DL1XH1-15 | 2026-09-04 00:32:06 | 52.39507 | 11.39807 | 108° | 24km/h | 34254m | 4.7m/s | -35.3°C | 1.5% | 6.6hPa | 2.6V | 03:15:06 | 02:37:19 | 00:00:00 | |
| AA1-15 | 2026-09-04 00:32:04 | 52.39507 | 11.39807 | 109° | 24km/h | 34254m | 4.7m/s | -35.3°C | 0% | 6.6hPa | 2.6V | 03:15:10 | 02:37:19 | 00:00:00 | |
| SP3BTT-10 | 2026-09-04 00:32:04 | 52.39507 | 11.39807 | 109° | 22km/h | 34255m | 4.6m/s | -35.3°C | 1.5% | 6.6hPa | 2.6V | 00:00:00 | 00:00:00 | 00:00:00 | |
| DL1XH-15 | 2026-09-04 00:32:03 | 52.39510 | 11.39795 | 148° | 7km/h | 34242m | 6.6m/s | -35.4°C | 1.5% | 6.7hPa | 2.5V | 03:15:08 | 02:37:17 | 00:00:00 | |
| DO2SHX-10 | 2026-09-04 00:32:03 | 52.39509 | 11.39799 | 118° | 11km/h | 34249m | 6.3m/s | -35.3°C | 1.5% | 6.6hPa | 2.5V | 00:00:00 | 02:37:18 | 00:00:00 | |
| GOEST3-10 | 2026-09-04 00:32:02 | 52.39510 | 11.39795 | 149° | 15km/h | 34243m | 6.6m/s | -35.3°C | 1.5% | 6.6hPa | 2.5V | 00:00:00 | 02:37:17 | 00:00:00 | |
| DD8BA-10 | 2026-09-04 00:32:01 | 52.39512 | 11.39796 | 221° | 27km/h | 34236m | 6.1m/s | -35.4°C | 1.5% | 6.6hPa | 2.5V | 00:00:00 | 00:00:00 | 00:00:00 | |
| DO2SHX-10 | 2026-09-04 00:32:00 | 52.39514 | 11.39799 | 230° | 20km/h | 34231m | 4.9m/s | -35.4°C | 1.5% | 6.6hPa | 2.5V | 03:15:00 | 02:37:15 | 00:00:00 | |
| DM0DOS-11 | 2026-09-04 00:31:59 | 52.39534 | 11.39806 | 156° | 31km/h | 34211m | 6.4m/s | -35.5°C | 1.5% | 6.7hPa | 2.5V | 03:15:14 | 02:37:11 | 00:00:00 | |
| DL1XH-west | 2026-09-04 00:31:58 | 52.39522 | 11.39808 | 199° | 22km/h | 34222m | 4.4m/s | -35.5°C | 0% | 6.7hPa | 2.6V | 03:16:01 | 02:37:13 | 00:00:00 | |
| HSKMA3-T | 2026-09-04 00:31:57 | 52.39528 | 11.39809 | 177° | 26km/h | 34217m | 5.3m/s | -35.5°C | 0% | 6.7hPa | 2.5V | 03:16:01 | 02:37:12 | 00:00:00 | |
| DO2SHX-10 | 2026-09-04 00:31:57 | 52.39528 | 11.39809 | 178° | 31km/h | 34217m | 5.2m/s | -35.5°C | 1.5% | 6.6hPa | 2.5V | 00:00:00 | 02:37:12 | 00:00:00 | |
| DB0DAN | 2026-09-04 00:31:55 | 52.39541 | 11.39799 | 141° | 35km/h | 34205m | 6.5m/s | -35.6°C | 0.1% | 6.68hPa | 2.5V | 00:00:00 | 00:00:00 | 00:00:00 | |
| AA1-15 | 2026-09-04 00:31:54 | 52.39548 | 11.39788 | 127° | 40km/h | 34199m | 5.3m/s | -35.6°C | 0% | 6.7hPa | 2.6V | 03:16:01 | 02:37:09 | 00:00:00 | |
| DF8AY | 2026-09-04 00:31:51 | 52.39554 | 11.39738 | 56° | 22km/h | 34179m | 6.9m/s | -35.5°C | 0% | 6.7hPa | 2.5V | 03:16:52 | 02:37:05 | 00:00:00 | |
| DD8BA-10 | 2026-09-04 00:31:51 | 52.39556 | 11.39747 | 83° | 26km/h | 34186m | 5.5m/s | -35.5°C | 1.5% | 6.6hPa | 2.6V | 00:00:00 | 00:00:00 | 00:00:00 | |
| DM0DOS-11 | 2026-09-04 00:31:49 | 52.39545 | 11.39743 | 243° | 15km/h | 34158m | 3.5m/s | -35.5°C | 1.5% | 6.7hPa | 2.6V | 03:15:24 | 02:37:01 | 00:00:00 | |
| DL1XH-west | 2026-09-04 00:31:47 | 52.39545 | 11.39738 | 295° | 15km/h | 34161m | 3.4m/s | -35.5°C | 0% | 6.8hPa | 2.6V | 03:16:01 | 02:37:02 | 00:00:00 | |
| DJ2DS-15 | 2026-09-04 00:31:45 | 52.39554 | 11.39749 | 179° | 29km/h | 34147m | 6.8m/s | -35.4°C | 0.1% | 6.7hPa | 2.5V | 00:00:00 | 00:00:00 | 00:00:00 | |
| AA1-15 | 2026-09-04 00:31:44 | 52.39563 | 11.39746 | 160° | 40km/h | 34140m | 6.1m/s | -35.4°C | 0% | 6.8hPa | 2.5V | 03:16:01 | 02:36:58 | 00:00:00 | |
| DB0DAN | 2026-09-04 00:31:40 | 52.39588 | 11.39710 | 121° | 42km/h | 34128m | 3.3m/s | -35.4°C | 0.1% | 6.75hPa | 2.6V | 00:00:00 | 00:00:00 | 00:00:00 | |
| DF8AY | 2026-09-04 00:31:39 | 52.39592 | 11.39683 | 76° | 27km/h | 34118m | 5.4m/s | -35.4°C | 0% | 6.8hPa | 2.5V | 03:16:52 | 02:36:53 | 00:00:00 | |
| DM0DOS-11 | 2026-09-04 00:31:38 | 52.39584 | 11.39672 | 359° | 24km/h | 34105m | 6.4m/s | -35.3°C | 1.5% | 6.8hPa | 2.6V | 03:15:34 | 02:36:51 | 00:00:00 | |
| BUE01 | 2026-09-04 00:31:38 | 52.39589 | 11.39674 | 40° | 20km/h | 34112m | 6.4m/s | -35.4°C | 0.1% | 6.8hPa | 2.6V | 00:00:00 | 00:00:00 | 00:00:00 | |
| DL1XH1-15 | 2026-09-04 00:31:37 | 52.39574 | 11.39682 | 301° | 22km/h | 34094m | 3.6m/s | -35.3°C | 1.5% | 6.8hPa | 2.6V | 03:15:36 | 02:36:49 | 00:00:00 | |
| HSKMA3-T | 2026-09-04 00:31:37 | 52.39589 | 11.39674 | 40° | 22km/h | 34112m | 6.4m/s | -35.4°C | 0% | 6.8hPa | 2.5V | 03:16:01 | 02:36:52 | 00:00:00 | |
| DL1XH-west | 2026-09-04 00:31:36 | 52.39585 | 11.39672 | 359° | 24km/h | 34105m | 6.4m/s | -35.3°C | 0% | 6.8hPa | 2.6V | 03:16:01 | 02:36:51 | 00:00:00 | |
| AA1-15 | 2026-09-04 00:31:33 | 52.39575 | 11.39696 | 222° | 20km/h | 34086m | 3.8m/s | -35.3°C | 0% | 6.8hPa | 2.5V | 03:16:01 | 02:36:47 | 00:00:00 | |
| DL1XH-15 | 2026-09-04 00:31:33 | 52.39575 | 11.39696 | 221° | 20km/h | 34086m | 3.8m/s | -35.3°C | 1.5% | 6.8hPa | 2.5V | 03:15:38 | 02:36:47 | 00:00:00 | |
| DF8AY | 2026-09-04 00:31:28 | 52.39607 | 11.39678 | 135° | 51km/h | 34063m | 5.4m/s | -35.2°C | 0% | 6.8hPa | 2.6V | 03:16:52 | 02:36:43 | 00:00:00 | |
| DM0DOS-11 | 2026-09-04 00:31:28 | 52.39620 | 11.39647 | 111° | 38km/h | 34055m | 2.8m/s | -35.2°C | 1.5% | 6.8hPa | 2.5V | 03:15:44 | 02:36:41 | 00:00:00 | |
| HSKMA3-T | 2026-09-04 00:31:27 | 52.39615 | 11.39662 | 122° | 47km/h | 34058m | 3.4m/s | -35.2°C | 0% | 6.8hPa | 2.5V | 03:16:01 | 02:36:42 | 00:00:00 | |
| DL1XH1-15 | 2026-09-04 00:31:27 | 52.39623 | 11.39626 | 82° | 13km/h | 34048m | 5.5m/s | -35.2°C | 1.5% | 6.8hPa | 2.6V | 03:15:46 | 02:36:39 | 00:00:00 | |
| S3001 | 2026-09-04 00:31:27 | 52.39620 | 11.39647 | 111° | 38km/h | 34056m | 2.8m/s | -35.2°C | 0.1% | 6.8hPa | 2.6V | 00:00:00 | 00:00:00 | 00:00:00 | |
| DL1XH-15 | 2026-09-04 00:31:26 | 52.39621 | 11.39628 | 289° | 16km/h | 34035m | 6.8m/s | -35.1°C | 1.5% | 6.8hPa | 2.6V | 03:15:48 | 02:36:37 | 00:00:00 | |
| DL1XH-west | 2026-09-04 00:31:26 | 52.39620 | 11.39647 | 112° | 38km/h | 34055m | 2.8m/s | -35.2°C | 0% | 6.8hPa | 2.5V | 03:16:01 | 02:36:41 | 00:00:00 | |
| DB0DAN | 2026-09-04 00:31:25 | 52.39622 | 11.39634 | 101° | 26km/h | 34052m | 3.5m/s | -35.2°C | 0.1% | 6.83hPa | 2.5V | 00:00:00 | 00:00:00 | 00:00:00 | |
| AA1-15 | 2026-09-04 00:31:23 | 52.39621 | 11.39628 | 289° | 16km/h | 34035m | 6.8m/s | -35.1°C | 0% | 6.8hPa | 2.6V | 03:16:01 | 02:36:37 | 00:00:00 | |
| SONDE2-11 | 2026-09-04 00:31:23 | 52.39621 | 11.39628 | 289° | 15km/h | 34035m | 6.8m/s | -35.1°C | 0.1% | 6.8hPa | 2.6V | 00:00:00 | 00:00:00 | 00:00:00 | |
| GOEST3-10 | 2026-09-04 00:31:22 | 52.39621 | 11.39628 | 290° | 22km/h | 34035m | 6.8m/s | -35.1°C | 1.5% | 6.8hPa | 2.6V | 00:00:00 | 02:36:37 | 00:00:00 | |
| EDDB2-11 | 2026-09-04 00:31:21 | 52.39621 | 11.39648 | 259° | 27km/h | 34024m | 3.9m/s | -35.1°C | 0.1% | 6.9hPa | 2.5V | 00:00:00 | 00:00:00 | 00:00:00 | |
| DL1XH1-15 | 2026-09-04 00:31:20 | 52.39642 | 11.39641 | 112° | 37km/h | 33992m | 6.1m/s | -35.2°C | 1.5% | 6.9hPa | 2.5V | 03:15:56 | 02:36:29 | 00:00:00 | |
| HSKMA3-T | 2026-09-04 00:31:17 | 52.39630 | 11.39665 | 175° | 16km/h | 34012m | 5.5m/s | -35.2°C | 0% | 6.9hPa | 2.6V | 03:16:01 | 02:36:32 | 00:00:00 | |
| DL1XH-west | 2026-09-04 00:31:15 | 52.39638 | 11.39654 | 121° | 31km/h | 33999m | 7.4m/s | -35.2°C | 0% | 6.9hPa | 2.5V | 03:16:01 | 02:36:30 | 00:00:00 | |
| AA1-15 | 2026-09-04 00:31:12 | 52.39648 | 11.39613 | 105° | 31km/h | 33982m | 3.5m/s | -35.2°C | 0% | 6.9hPa | 2.6V | 03:16:01 | 02:36:27 | 00:00:00 | |
| HSKMA3-T | 2026-09-04 00:31:07 | 52.39661 | 11.39604 | 238° | 24km/h | 33955m | 5.7m/s | -35.3°C | 0% | 6.9hPa | 2.5V | 03:16:52 | 02:36:22 | 00:00:00 | |
| DF8AY | 2026-09-04 00:31:06 | 52.39664 | 11.39614 | 92° | 22km/h | 33920m | 5m/s | -35.5°C | 0% | 7hPa | 2.6V | 03:16:52 | 02:36:15 | 00:00:00 | |
| DL1XH1-15 | 2026-09-04 00:31:06 | 52.39667 | 11.39627 | 271° | 11km/h | 33940m | 4.9m/s | -35.4°C | 1.5% | 6.9hPa | 2.6V | 03:16:06 | 02:36:19 | 00:00:00 | |
| DL1XH-west | 2026-09-04 00:31:04 | 52.39667 | 11.39627 | 272° | 11km/h | 33940m | 4.9m/s | -35.4°C | 0% | 7hPa | 2.6V | 03:16:52 | 02:36:19 | 00:00:00 | |
| DL4XJ-10 | 2026-09-04 00:31:04 | 52.39667 | 11.39627 | 272° | 18km/h | 33940m | 4.8m/s | -35.0°C | 0% | 0hPa | 2.5V | 00:00:00 | 00:00:00 | 00:00:00 | |
| DL1XH-15 | 2026-09-04 00:31:03 | 52.39665 | 11.39628 | 63° | 9km/h | 33930m | 5.2m/s | -35.5°C | 1.5% | 7hPa | 2.5V | 03:16:08 | 02:36:17 | 00:00:00 | |
| AA1-15 | 2026-09-04 00:31:02 | 52.39664 | 11.39622 | 80° | 18km/h | 33925m | 4.9m/s | -35.5°C | 0% | 7hPa | 2.5V | 03:16:52 | 02:36:16 | 00:00:00 | |
| HSKMA3-T | 2026-09-04 00:30:56 | 52.39678 | 11.39585 | 164° | 26km/h | 33897m | 5.9m/s | -35.5°C | 0% | 7hPa | 2.5V | 03:16:52 | 02:36:11 | 00:00:00 | |
| S3001 | 2026-09-04 00:30:56 | 52.39685 | 11.39583 | 177° | 27km/h | 33892m | 5.2m/s | -35.5°C | 0.1% | 7.0hPa | 2.6V | 00:00:00 | 00:00:00 | 00:00:00 | |
| DL1XH-15 | 2026-09-04 00:30:55 | 52.39703 | 11.39584 | 174° | 18km/h | 33877m | 5.1m/s | -35.5°C | 1.5% | 7hPa | 2.6V | 03:16:18 | 02:36:07 | 00:00:00 | |
| DL1XH1-15 | 2026-09-04 00:30:55 | 52.39692 | 11.39583 | 183° | 27km/h | 33886m | 4.3m/s | -35.5°C | 1.5% | 7hPa | 2.6V | 03:16:16 | 02:36:09 | 00:00:00 | |
| DL1XH-west | 2026-09-04 00:30:53 | 52.39698 | 11.39584 | 183° | 24km/h | 33882m | 4m/s | -35.5°C | 0% | 7hPa | 2.6V | 03:16:52 | 02:36:08 | 00:00:00 | |
| AA1-15 | 2026-09-04 00:30:51 | 52.39708 | 11.39579 | 94° | 11km/h | 33867m | 5.7m/s | -35.5°C | 0% | 7hPa | 2.5V | 03:16:52 | 02:36:05 | 00:00:00 | |
| DF8AY | 2026-09-04 00:30:51 | 52.39697 | 11.39550 | 122° | 9km/h | 33835m | 4.2m/s | -35.5°C | 0% | 7.1hPa | 2.5V | 03:16:52 | 02:35:59 | 00:00:00 | |
| DM0DOS-11 | 2026-09-04 00:30:51 | 52.39699 | 11.39557 | 43° | 15km/h | 33844m | 5.4m/s | -35.5°C | 1.5% | 7hPa | 2.6V | 03:16:24 | 02:36:01 | 00:00:00 | |
| OE5DRO-10 | 2026-09-04 00:30:50 | 52.39708 | 11.39579 | 95° | 16km/h | 33867m | 5.7m/s | -35.4°C | 1.5% | 7.0hPa | 2.6V | 03:16:00 | 00:00:00 | 00:00:00 | |
| SO1NDE-10 | 2026-09-04 00:30:49 | 52.39707 | 11.39573 | 64° | 20km/h | 33861m | 5.5m/s | -35.4°C | 1.5% | 7.0hPa | 2.6V | 00:00:00 | 02:36:04 | 00:00:00 | |
| DJ8HS-15 | 2026-09-04 00:30:48 | 52.39705 | 11.39568 | 51° | 20km/h | 33855m | 5.1m/s | -35.5°C | 1.5% | 7.0hPa | 2.6V | 00:00:00 | 02:36:03 | 00:00:00 | |
| GOEST3-10 | 2026-09-04 00:30:47 | 52.39702 | 11.39562 | 45° | 13km/h | 33850m | 5.3m/s | -35.5°C | 1.5% | 7.0hPa | 2.6V | 00:00:00 | 00:00:00 | 00:00:00 | |
| DL4BBY-15 | 2026-09-04 00:30:46 | 52.39699 | 11.39557 | 44° | 22km/h | 33844m | 5.3m/s | -35.1°C | 0% | 0hPa | 2.6V | 00:00:00 | 00:00:00 | 00:00:00 | |
| DL1XH-15 | 2026-09-04 00:30:45 | 52.39703 | 11.39541 | 138° | 26km/h | 33825m | 5.3m/s | -35.6°C | 1.5% | 7.1hPa | 2.6V | 03:16:28 | 02:35:57 | 00:00:00 | |
| HSKMA3-T | 2026-09-04 00:30:45 | 52.39697 | 11.39553 | 70° | 9km/h | 33839m | 4.7m/s | -35.5°C | 0% | 7hPa | 2.5V | 03:16:52 | 02:36:00 | 00:00:00 | |
| DL1XH-west | 2026-09-04 00:30:42 | 52.39703 | 11.39541 | 138° | 26km/h | 33825m | 5.4m/s | -35.6°C | 0% | 7.1hPa | 2.6V | 03:16:52 | 02:35:57 | 00:00:00 | |
| DF8AY | 2026-09-04 00:30:40 | 52.39714 | 11.39523 | 131° | 37km/h | 33812m | 6.3m/s | -35.6°C | 0% | 7.1hPa | 2.6V | 03:16:52 | 02:35:55 | 00:00:00 | |
| AA1-15 | 2026-09-04 00:30:40 | 52.39720 | 11.39510 | 126° | 38km/h | 33807m | 4.7m/s | -35.6°C | 0% | 7.1hPa | 2.5V | 03:16:52 | 02:35:54 | 00:00:00 | |
| DL1XH1-15 | 2026-09-04 00:30:39 | 52.39732 | 11.39471 | 333° | 9km/h | 33775m | 5m/s | -35.7°C | 1.5% | 7.1hPa | 2.5V | 03:16:37 | 02:35:48 | 00:00:00 | |
| 13BRC | 2026-09-04 00:30:39 | 52.39720 | 11.39510 | 127° | 38km/h | 33808m | 4.7m/s | -35.6°C | 0.1% | 7.1hPa | 2.6V | 03:16:00 | 00:00:00 | 00:00:00 | |
| DM0DOS-11 | 2026-09-04 00:30:38 | 52.39732 | 11.39478 | 114° | 18km/h | 33794m | 5.7m/s | -35.6°C | 1.5% | 7.1hPa | 2.6V | 03:16:34 | 02:35:51 | 00:00:00 | |
| OE5DXL-15 | 2026-09-04 00:30:38 | 52.39725 | 11.39498 | 122° | 24km/h | 33804m | 3.6m/s | 0°C | 0% | 0hPa | 2.5V | 00:00:00 | 00:00:00 | 00:00:00 | |
| DL1XH-15 | 2026-09-04 00:30:37 | 52.39730 | 11.39472 | 353° | 11km/h | 33770m | 3.8m/s | -35.7°C | 1.5% | 7.1hPa | 2.5V | 03:16:38 | 02:35:47 | 00:00:00 | |
| HSKMA3-T | 2026-09-04 00:30:34 | 52.39732 | 11.39471 | 334° | 9km/h | 33775m | 5m/s | -35.7°C | 0% | 7.1hPa | 2.5V | 03:16:52 | 02:35:48 | 00:00:00 | |
| DL1XH-west | 2026-09-04 00:30:32 | 52.39730 | 11.39472 | 354° | 11km/h | 33770m | 3.8m/s | -35.7°C | 0% | 7.1hPa | 2.5V | 03:16:52 | 02:35:47 | 00:00:00 | |
| DF8AY | 2026-09-04 00:30:29 | 52.39722 | 11.39461 | 74° | 24km/h | 33756m | 6.1m/s | -35.8°C | 0% | 7.1hPa | 2.6V | 03:16:52 | 02:35:44 | 00:00:00 | |
| AA1-15 | 2026-09-04 00:30:29 | 52.39721 | 11.39450 | 89° | 33km/h | 33750m | 5.9m/s | -35.8°C | 0% | 7.1hPa | 2.6V | 03:16:52 | 02:35:43 | 00:00:00 | |
| SMARD9-10 | 2026-09-04 00:30:29 | 52.39722 | 11.39461 | 75° | 24km/h | 33757m | 6.1m/s | -35.8°C | 0.1% | 7.1hPa | 2.6V | 00:00:00 | 00:00:00 | 00:00:00 | |
| DL1XH1-15 | 2026-09-04 00:30:28 | 52.39735 | 11.39385 | 135° | 22km/h | 33724m | 6m/s | -35.9°C | 1.5% | 7.2hPa | 2.6V | 03:16:47 | 02:35:38 | 00:00:00 | |
| HSKMA3-T | 2026-09-04 00:30:22 | 52.39738 | 11.39381 | 153° | 13km/h | 33719m | 5.7m/s | -36°C | 0% | 7.2hPa | 2.6V | 03:16:52 | 02:35:37 | 00:00:00 | |
| DL1XH-west | 2026-09-04 00:30:21 | 52.39740 | 11.39380 | 177° | 4km/h | 33713m | 4.8m/s | -36°C | 0% | 7.2hPa | 2.5V | 03:16:52 | 02:35:36 | 00:00:00 | |
| DF8AY | 2026-09-04 00:30:19 | 52.39738 | 11.39379 | 20° | 15km/h | 33703m | 4.7m/s | -36°C | 0% | 7.2hPa | 2.5V | 03:16:52 | 02:35:34 | 00:00:00 | |
| AA1-15 | 2026-09-04 00:30:19 | 52.39728 | 11.39368 | 45° | 33km/h | 33692m | 6.4m/s | -36.1°C | 0% | 7.2hPa | 2.6V | 03:17:43 | 02:35:32 | 00:00:00 | |
| DM0DOS-11 | 2026-09-04 00:30:18 | 52.39722 | 11.39357 | 55° | 38km/h | 33686m | 5m/s | -36.1°C | 1.5% | 7.2hPa | 2.6V | 03:16:54 | 02:35:31 | 00:00:00 | |
| GOEST3-10 | 2026-09-04 00:30:18 | 52.39728 | 11.39368 | 46° | 37km/h | 33692m | 6.3m/s | -36.0°C | 1.5% | 7.2hPa | 2.5V | 03:16:00 | 00:00:00 | 00:00:00 | |
| AP2371 | 2026-09-04 00:30:17 | 52.39728 | 11.39368 | 46° | 33km/h | 33692m | 6.4m/s | -36.1°C | 0.1% | 7.2hPa | 2.5V | 00:00:00 | 00:00:00 | 00:00:00 | |
| DL4BBY-15 | 2026-09-04 00:30:16 | 52.39723 | 11.39356 | 56° | 24km/h | 33687m | 4.9m/s | -35.7°C | 0% | 0hPa | 2.5V | 00:00:00 | 00:00:00 | 00:00:00 | |
| DO2SHX-10 | 2026-09-04 00:30:15 | 52.39718 | 11.39342 | 68° | 37km/h | 33682m | 3.8m/s | -36.1°C | 1.5% | 7.2hPa | 2.5V | 00:00:00 | 02:35:30 | 00:00:00 | |
| DL1XH-15 | 2026-09-04 00:30:14 | 52.39716 | 11.39300 | 113° | 27km/h | 33667m | 6.3m/s | -36.2°C | 1.5% | 7.2hPa | 2.6V | 03:16:58 | 02:35:27 | 00:00:00 | |
| HSKMA3-T | 2026-09-04 00:30:11 | 52.39720 | 11.39290 | 136° | 27km/h | 33660m | 6.6m/s | -36.2°C | 0% | 7.3hPa | 2.6V | 03:17:43 | 02:35:26 | 00:00:00 | |
| DL1XH-west | 2026-09-04 00:30:10 | 52.39726 | 11.39284 | 153° | 26km/h | 33654m | 6m/s | -36.2°C | 0% | 7.3hPa | 2.6V | 03:17:43 | 02:35:25 | 00:00:00 | |
| DF8AY | 2026-09-04 00:30:09 | 52.39731 | 11.39280 | 160° | 24km/h | 33648m | 4.8m/s | -36.3°C | 0% | 7.2hPa | 2.5V | 03:18:34 | 02:35:24 | 00:00:00 | |
| AA1-15 | 2026-09-04 00:30:07 | 52.39743 | 11.39265 | 108° | 20km/h | 33633m | 6.4m/s | -36.4°C | 0% | 7.2hPa | 2.6V | 03:17:43 | 02:35:21 | 00:00:00 | |
| DL1XH-15 | 2026-09-04 00:30:07 | 52.39740 | 11.39221 | 82° | 31km/h | 33610m | 5.5m/s | -36.4°C | 1.5% | 7.3hPa | 2.5V | 03:17:08 | 02:35:17 | 00:00:00 | |
| DL1XH1-15 | 2026-09-04 00:30:07 | 52.39742 | 11.39233 | 78° | 31km/h | 33615m | 5.4m/s | -36.4°C | 1.5% | 7.3hPa | 2.5V | 03:17:07 | 02:35:18 | 00:00:00 | |
| HSKMA3-T | 2026-09-04 00:30:02 | 52.39740 | 11.39209 | 90° | 29km/h | 33604m | 5.3m/s | -36.4°C | 0% | 7.3hPa | 2.5V | 03:17:43 | 02:35:16 | 00:00:00 | |
| DL1XH-west | 2026-09-04 00:29:59 | 52.39744 | 11.39185 | 113° | 31km/h | 33593m | 5.8m/s | -36.5°C | 0% | 7.3hPa | 2.6V | 03:17:43 | 02:35:14 | 00:00:00 | |
| DF8AY | 2026-09-04 00:29:58 | 52.39747 | 11.39173 | 118° | 33km/h | 33587m | 6.2m/s | -36.5°C | 0% | 7.3hPa | 2.6V | 03:18:34 | 02:35:13 | 00:00:00 | |
| DM0DOS-11 | 2026-09-04 00:29:58 | 52.39755 | 11.39150 | 124° | 31km/h | 33575m | 5.4m/s | -36.5°C | 1.5% | 7.3hPa | 2.5V | 03:17:14 | 02:35:11 | 00:00:00 | |
| AA1-15 | 2026-09-04 00:29:57 | 52.39751 | 11.39161 | 118° | 33km/h | 33581m | 6.5m/s | -36.5°C | 0% | 7.3hPa | 2.5V | 03:17:43 | 02:35:12 | 00:00:00 | |
| DL1XH-15 | 2026-09-04 00:29:57 | 52.39766 | 11.39127 | 134° | 4km/h | 33553m | 7.2m/s | -36.7°C | 1.6% | 7.4hPa | 2.6V | 03:17:18 | 02:35:07 | 00:00:00 | |
| DJ2DS-15 | 2026-09-04 00:29:56 | 52.39755 | 11.39150 | 124° | 31km/h | 33575m | 5.4m/s | -36.6°C | 0.1% | 7.3hPa | 2.6V | 00:00:00 | 00:00:00 | 00:00:00 | |
| S3001 | 2026-09-04 00:29:54 | 52.39765 | 11.39129 | 126° | 11km/h | 33560m | 5.8m/s | -36.7°C | 0.1% | 7.3hPa | 2.6V | 00:00:00 | 00:00:00 | 00:00:00 | |
| TFSTFS | 2026-09-04 00:29:53 | 52.39765 | 11.39129 | 127° | 11km/h | 33560m | 5.8m/s | -36.7°C | 0.1% | 7.3hPa | 2.6V | 00:00:00 | 00:00:00 | 00:00:00 | |
| DL1NUX | 2026-09-04 00:29:51 | 52.39757 | 11.39103 | 88° | 35km/h | 33520m | 6.3m/s | -37.2°C | 1.6% | 7.4hPa | 2.6V | 03:17:24 | 02:35:01 | 00:00:00 | |
| HSKMA3-T | 2026-09-04 00:29:50 | 52.39764 | 11.39129 | 342° | 7km/h | 33540m | 4.5m/s | -36.9°C | 0% | 7.4hPa | 2.5V | 03:17:43 | 02:35:05 | 00:00:00 | |
| DL1XH-west | 2026-09-04 00:29:49 | 52.39762 | 11.39128 | 32° | 11km/h | 33536m | 3.5m/s | -36.9°C | 0% | 7.4hPa | 2.5V | 03:17:43 | 02:35:04 | 00:00:00 | |
| AA1-15 | 2026-09-04 00:29:47 | 52.39757 | 11.39087 | 100° | 42km/h | 33514m | 4.9m/s | -37.3°C | 0% | 7.4hPa | 2.5V | 03:17:43 | 02:35:00 | 00:00:00 | |
| GOEST3-10 | 2026-09-04 00:29:46 | 52.39757 | 11.39103 | 89° | 40km/h | 33520m | 6.2m/s | -37.1°C | 1.6% | 7.4hPa | 2.5V | 00:00:00 | 00:00:00 | 00:00:00 | |
| DO2SHX-10 | 2026-09-04 00:29:45 | 52.39757 | 11.39087 | 101° | 44km/h | 33514m | 4.9m/s | -37.2°C | 1.6% | 7.3hPa | 2.5V | 00:00:00 | 02:35:00 | 00:00:00 | |
| DL1XH1-15 | 2026-09-04 00:29:44 | 52.39765 | 11.39054 | 122° | 42km/h | 33505m | 4.3m/s | -37.4°C | 1.6% | 7.5hPa | 2.5V | 03:17:27 | 02:34:58 | 00:00:00 | |
| DL4XJ-10 | 2026-09-04 00:29:44 | 52.39760 | 11.39070 | 111° | 29km/h | 33510m | 3.6m/s | -36.9°C | 0% | 0hPa | 2.6V | 00:00:00 | 00:00:00 | 00:00:00 | |
| SP3WXH-11 | 2026-09-04 00:29:43 | 52.39772 | 11.39041 | 136° | 38km/h | 33500m | 6.1m/s | -37.4°C | 0.1% | 7.4hPa | 2.6V | 00:00:00 | 00:00:00 | 00:00:00 | |
| DO2SHX-10 | 2026-09-04 00:29:42 | 52.39772 | 11.39040 | 137° | 37km/h | 33500m | 6.1m/s | -37.4°C | 1.6% | 7.4hPa | 2.6V | 00:00:00 | 02:34:57 | 00:00:00 | |
| DL1NUX | 2026-09-04 00:29:41 | 52.39804 | 11.39034 | 67° | 5km/h | 33468m | 5.1m/s | -37.7°C | 1.7% | 7.5hPa | 2.6V | 03:17:34 | 02:34:51 | 00:00:00 | |
| DD8BA-10 | 2026-09-04 00:29:41 | 52.39780 | 11.39032 | 156° | 29km/h | 33494m | 6.5m/s | -37.4°C | 1.6% | 7.4hPa | 2.6V | 03:17:00 | 00:00:00 | 00:00:00 | |
| DM0DOS-11 | 2026-09-04 00:29:40 | 52.39802 | 11.39029 | 60° | 20km/h | 33462m | 6.1m/s | -37.7°C | 1.7% | 7.5hPa | 2.6V | 03:17:35 | 02:34:50 | 00:00:00 | |
| HSKMA3-T | 2026-09-04 00:29:39 | 52.39795 | 11.39029 | 196° | 26km/h | 33481m | 4.5m/s | -37.6°C | 0% | 7.4hPa | 2.5V | 03:17:43 | 02:34:54 | 00:00:00 | |
| DF8AY | 2026-09-04 00:29:38 | 52.39803 | 11.39034 | 211° | 7km/h | 33473m | 3.8m/s | -37.7°C | 0% | 7.4hPa | 2.5V | 03:18:34 | 02:34:52 | 00:00:00 | |
| DL1XH-west | 2026-09-04 00:29:38 | 52.39800 | 11.39032 | 208° | 18km/h | 33477m | 3.6m/s | -37.6°C | 0% | 7.5hPa | 2.5V | 03:17:43 | 02:34:53 | 00:00:00 | |
| AA1-15 | 2026-09-04 00:29:35 | 52.39799 | 11.39020 | 64° | 33km/h | 33456m | 6.6m/s | -37.8°C | 0% | 7.5hPa | 2.6V | 03:17:43 | 02:34:49 | 00:00:00 | |
| DL1XH-15 | 2026-09-04 00:29:35 | 52.39794 | 11.38988 | 79° | 46km/h | 33444m | 4.7m/s | -37.9°C | 1.7% | 7.5hPa | 2.5V | 03:17:38 | 02:34:47 | 00:00:00 | |
| DO3MHA-11 | 2026-09-04 00:29:34 | 52.39799 | 11.39019 | 65° | 27km/h | 33456m | 6.6m/s | -37.7°C | 1.7% | 7.4hPa | 2.6V | 03:17:00 | 02:34:49 | 00:00:00 | |
| DO2SHX-10 | 2026-09-04 00:29:33 | 52.39796 | 11.39005 | 75° | 42km/h | 33450m | 5.9m/s | -37.8°C | 1.7% | 7.4hPa | 2.5V | 00:00:00 | 02:34:48 | 00:00:00 | |
| TFSTFS | 2026-09-04 00:29:32 | 52.39794 | 11.38988 | 81° | 46km/h | 33444m | 4.7m/s | -37.9°C | 0.1% | 7.5hPa | 2.5V | 00:00:00 | 00:00:00 | 00:00:00 | |
| DL1NUX | 2026-09-04 00:29:31 | 52.39799 | 11.38937 | 235° | 13km/h | 33413m | 5.5m/s | -38°C | 1.7% | 7.5hPa | 2.5V | 03:17:44 | 02:34:41 | 00:00:00 | |
| SMARD9-15 | 2026-09-04 00:29:31 | 52.39792 | 11.38954 | 93° | 33km/h | 33436m | 3.9m/s | -37.9°C | 0.2% | 7.5hPa | 2.6V | 00:00:00 | 00:00:00 | 00:00:00 | |
| DO2SHX-10 | 2026-09-04 00:29:30 | 52.39792 | 11.38954 | 94° | 24km/h | 33436m | 3.8m/s | -37.9°C | 1.7% | 7.5hPa | 2.6V | 00:00:00 | 02:34:45 | 00:00:00 | |
| DB0UT-7 | 2026-09-04 00:29:29 | 52.39793 | 11.38942 | 108° | 20km/h | 33432m | 5.2m/s | -37.9°C | 1.7% | 7.5hPa | 2.6V | 03:17:00 | 02:34:44 | 00:00:00 | |
| DM0DOS-11 | 2026-09-04 00:29:28 | 52.39800 | 11.38942 | 246° | 15km/h | 33408m | 4.1m/s | -38°C | 1.7% | 7.5hPa | 2.5V | 03:17:45 | 02:34:40 | 00:00:00 | |
| DL1XH-west | 2026-09-04 00:29:28 | 52.39795 | 11.38936 | 134° | 15km/h | 33425m | 6.6m/s | -38°C | 0% | 7.5hPa | 2.6V | 03:17:43 | 02:34:43 | 00:00:00 | |
| DF8AY | 2026-09-04 00:29:27 | 52.39799 | 11.38938 | 236° | 13km/h | 33413m | 5.5m/s | -38°C | 0% | 7.5hPa | 2.5V | 03:18:34 | 02:34:41 | 00:00:00 | |
| AA1-15 | 2026-09-04 00:29:25 | 52.39800 | 11.38942 | 247° | 15km/h | 33408m | 4.1m/s | -38°C | 0% | 7.5hPa | 2.5V | 03:18:34 | 02:34:40 | 00:00:00 | |
| DL1XH1-15 | 2026-09-04 00:29:24 | 52.39802 | 11.38948 | 137° | 2km/h | 33399m | 4.9m/s | -38°C | 1.7% | 7.5hPa | 2.6V | 03:17:47 | 02:34:38 | 00:00:00 | |
| DO2SHX-10 | 2026-09-04 00:29:24 | 52.39801 | 11.38947 | 242° | 7km/h | 33404m | 4.0m/s | -38.0°C | 1.7% | 7.5hPa | 2.6V | 03:17:00 | 02:34:39 | 00:00:00 | |
| AP2371 | 2026-09-04 00:29:23 | 52.39802 | 11.38948 | 139° | 2km/h | 33400m | 4.9m/s | -38.1°C | 0.2% | 7.5hPa | 2.6V | 00:00:00 | 00:00:00 | 00:00:00 | |
| DL1NUX | 2026-09-04 00:29:21 | 52.39813 | 11.38865 | 107° | 22km/h | 33359m | 5.9m/s | -38.3°C | 1.7% | 7.6hPa | 2.6V | 03:17:54 | 02:34:31 | 00:00:00 | |
| HSKMA3-T | 2026-09-04 00:29:18 | 52.39809 | 11.38891 | 103° | 40km/h | 33369m | 3.9m/s | -38.2°C | 0% | 7.6hPa | 2.6V | 03:18:34 | 02:34:33 | 00:00:00 | |
| DL1XH-west | 2026-09-04 00:29:18 | 52.39811 | 11.38876 | 105° | 33km/h | 33365m | 4.4m/s | -38.2°C | 0% | 7.6hPa | 2.6V | 03:18:34 | 02:34:32 | 00:00:00 | |
| DL1XH1-15 | 2026-09-04 00:29:18 | 52.39816 | 11.38862 | 272° | 9km/h | 33340m | 5.9m/s | -38.3°C | 1.8% | 7.6hPa | 2.5V | 03:17:57 | 02:34:28 | 00:00:00 | |
| DM0DOS-11 | 2026-09-04 00:29:16 | 52.39814 | 11.38859 | 121° | 11km/h | 33354m | 6.5m/s | -38.4°C | 1.8% | 7.6hPa | 2.5V | 03:17:55 | 02:34:30 | 00:00:00 | |
| GOEST3-10 | 2026-09-04 00:29:16 | 52.39813 | 11.38865 | 108° | 11km/h | 33360m | 5.8m/s | -38.3°C | 1.7% | 7.5hPa | 2.6V | 03:17:00 | 00:00:00 | 00:00:00 | |
| DL1XH-15 | 2026-09-04 00:29:15 | 52.39815 | 11.38866 | 273° | 13km/h | 33334m | 5.5m/s | -38.3°C | 1.7% | 7.6hPa | 2.6V | 03:17:58 | 02:34:27 | 00:00:00 | |
| AA1-15 | 2026-09-04 00:29:15 | 52.39814 | 11.38859 | 121° | 11km/h | 33354m | 6.5m/s | -38.4°C | 0% | 7.6hPa | 2.5V | 03:18:34 | 02:34:30 | 00:00:00 | |
| DF8AY | 2026-09-04 00:29:13 | 52.39816 | 11.38862 | 273° | 11km/h | 33340m | 5.9m/s | -38.3°C | 0% | 7.6hPa | 2.5V | 03:18:34 | 02:34:28 | 00:00:00 | |
| DO2SHX-10 | 2026-09-04 00:29:12 | 52.39815 | 11.38866 | 274° | 7km/h | 33335m | 5.4m/s | -38.3°C | 1.7% | 7.6hPa | 2.6V | 03:17:00 | 02:34:27 | 00:00:00 | |
| DL1NUX | 2026-09-04 00:29:11 | 52.39831 | 11.38843 | 132° | 38km/h | 33300m | 5.8m/s | -38.2°C | 1.7% | 7.6hPa | 2.6V | 03:18:04 | 02:34:21 | 00:00:00 | |
| DM0DOS-11 | 2026-09-04 00:29:11 | 52.39838 | 11.38832 | 137° | 40km/h | 33295m | 5.4m/s | -38.2°C | 1.7% | 7.6hPa | 2.6V | 03:18:05 | 02:34:20 | 00:00:00 | |
| HSKMA3-T | 2026-09-04 00:29:08 | 52.39820 | 11.38863 | 131° | 24km/h | 33312m | 6.4m/s | -38.2°C | 0% | 7.6hPa | 2.5V | 03:18:34 | 02:34:23 | 00:00:00 | |
| DL1XH-west | 2026-09-04 00:29:06 | 52.39831 | 11.38843 | 133° | 38km/h | 33300m | 5.8m/s | -38.2°C | 0% | 7.6hPa | 2.6V | 03:18:34 | 02:34:21 | 00:00:00 | |
| DL4BBY-15 | 2026-09-04 00:29:06 | 52.39831 | 11.38843 | 133° | 24km/h | 33300m | 5.7m/s | -37.8°C | 0% | 0hPa | 2.5V | 00:00:00 | 00:00:00 | 00:00:00 | |
| DL1XH-15 | 2026-09-04 00:29:05 | 52.39858 | 11.38808 | 156° | 24km/h | 33278m | 5.3m/s | -38.2°C | 1.7% | 7.6hPa | 2.5V | 03:18:08 | 02:34:17 | 00:00:00 | |
| AA1-15 | 2026-09-04 00:29:05 | 52.39845 | 11.38821 | 142° | 37km/h | 33289m | 5.7m/s | -38.2°C | 0% | 7.7hPa | 2.6V | 03:18:34 | 02:34:19 | 00:00:00 | |
| DF8AY | 2026-09-04 00:29:02 | 52.39858 | 11.38808 | 156° | 24km/h | 33278m | 5.3m/s | -38.2°C | 0% | 7.6hPa | 2.5V | 03:18:34 | 02:34:17 | 00:00:00 | |
| DL1NUX | 2026-09-04 00:29:02 | 52.39868 | 11.38784 | 68° | 18km/h | 33242m | 5.3m/s | -38.3°C | 1.7% | 7.7hPa | 2.5V | 03:18:14 | 02:34:11 | 00:00:00 | |
| DO2SHX-10 | 2026-09-04 00:29:00 | 52.39867 | 11.38802 | 162° | 11km/h | 33268m | 6.0m/s | -38.2°C | 1.7% | 7.6hPa | 2.5V | 03:18:00 | 02:34:15 | 00:00:00 | |
| DM0DOS-11 | 2026-09-04 00:28:59 | 52.39866 | 11.38776 | 67° | 22km/h | 33236m | 5.8m/s | -38.3°C | 1.7% | 7.7hPa | 2.5V | 03:18:15 | 02:34:10 | 00:00:00 | |
| HSKMA3-T | 2026-09-04 00:28:58 | 52.39870 | 11.38796 | 91° | 11km/h | 33255m | 6.8m/s | -38.3°C | 0% | 7.7hPa | 2.6V | 03:18:34 | 02:34:13 | 00:00:00 | |
| DL1XH-west | 2026-09-04 00:28:55 | 52.39866 | 11.38776 | 67° | 22km/h | 33236m | 5.8m/s | -38.3°C | 0% | 7.7hPa | 2.5V | 03:18:34 | 02:34:10 | 00:00:00 | |
| DL1XH-15 | 2026-09-04 00:28:55 | 52.39861 | 11.38751 | 90° | 22km/h | 33219m | 4.9m/s | -38.4°C | 1.7% | 7.7hPa | 2.6V | 03:18:18 | 02:34:07 | 00:00:00 | |
| AA1-15 | 2026-09-04 00:28:54 | 52.39864 | 11.38768 | 68° | 22km/h | 33231m | 6.6m/s | -38.4°C | 0% | 7.7hPa | 2.6V | 03:18:34 | 02:34:09 | 00:00:00 | |
| DF8AY | 2026-09-04 00:28:52 | 52.39861 | 11.38751 | 91° | 22km/h | 33219m | 4.9m/s | -38.4°C | 0% | 7.7hPa | 2.6V | 03:18:34 | 02:34:07 | 00:00:00 | |
| DM0DOS-11 | 2026-09-04 00:28:51 | 52.39888 | 11.38682 | 132° | 13km/h | 33179m | 6.3m/s | -38.5°C | 1.8% | 7.8hPa | 2.5V | 03:18:25 | 02:34:00 | 00:00:00 | |
| HSKMA3-T | 2026-09-04 00:28:47 | 52.39880 | 11.38696 | 131° | 33km/h | 33189m | 3.8m/s | -38.5°C | 0% | 7.8hPa | 2.6V | 03:18:34 | 02:34:02 | 00:00:00 | |
| SONDE2-11 | 2026-09-04 00:28:47 | 52.39880 | 11.38696 | 131° | 31km/h | 33190m | 3.8m/s | -38.5°C | 0.2% | 7.8hPa | 2.6V | 00:00:00 | 00:00:00 | 00:00:00 | |
| GOEST3-10 | 2026-09-04 00:28:46 | 52.39885 | 11.38687 | 133° | 15km/h | 33186m | 4.3m/s | -38.4°C | 1.8% | 7.7hPa | 2.6V | 00:00:00 | 00:00:00 | 00:00:00 | |
| DL1XH-15 | 2026-09-04 00:28:45 | 52.39884 | 11.38680 | 357° | 20km/h | 33161m | 5.2m/s | -38.5°C | 1.7% | 7.8hPa | 2.6V | 03:18:28 | 02:33:57 | 00:00:00 | |
| DL1XH-west | 2026-09-04 00:28:45 | 52.39888 | 11.38682 | 133° | 13km/h | 33179m | 6.3m/s | -38.5°C | 0% | 7.8hPa | 2.5V | 03:18:34 | 02:34:00 | 00:00:00 | |
| AA1-15 | 2026-09-04 00:28:44 | 52.39888 | 11.38679 | 352° | 13km/h | 33167m | 6.3m/s | -38.5°C | 0% | 7.8hPa | 2.5V | 03:18:34 | 02:33:58 | 00:00:00 | |
| DF8AY | 2026-09-04 00:28:41 | 52.39879 | 11.38679 | 15° | 24km/h | 33156m | 4.7m/s | -38.5°C | 0% | 7.8hPa | 2.6V | 03:18:34 | 02:33:56 | 00:00:00 | |
| DL1NUX | 2026-09-04 00:28:41 | 52.39861 | 11.38627 | 94° | 35km/h | 33127m | 5.7m/s | -38.6°C | 1.8% | 7.8hPa | 2.5V | 03:18:34 | 02:33:51 | 00:00:00 | |
| DD8BA-10 | 2026-09-04 00:28:41 | 52.39879 | 11.38679 | 15° | 27km/h | 33156m | 4.7m/s | -38.5°C | 1.8% | 7.8hPa | 2.5V | 00:00:00 | 00:00:00 | 00:00:00 | |
| AP2371 | 2026-09-04 00:28:40 | 52.39872 | 11.38675 | 31° | 29km/h | 33151m | 6.0m/s | -38.5°C | 0.2% | 7.8hPa | 2.5V | 00:00:00 | 00:00:00 | 00:00:00 | |
| TFSTFS | 2026-09-04 00:28:39 | 52.39867 | 11.38667 | 51° | 31km/h | 33145m | 6.4m/s | -38.6°C | 0.1% | 7.8hPa | 2.5V | 00:00:00 | 00:00:00 | 00:00:00 | |
| DM0DOS-11 | 2026-09-04 00:28:38 | 52.39862 | 11.38614 | 105° | 31km/h | 33121m | 6.4m/s | -38.6°C | 1.8% | 7.9hPa | 2.5V | 03:18:35 | 02:33:50 | 00:00:00 | |
| HSKMA3-T | 2026-09-04 00:28:37 | 52.39861 | 11.38641 | 83° | 37km/h | 33133m | 5.5m/s | -38.6°C | 0% | 7.8hPa | 2.6V | 03:18:34 | 02:33:52 | 00:00:00 | |
| DL1XH-west | 2026-09-04 00:28:34 | 52.39864 | 11.38603 | 116° | 24km/h | 33115m | 6.7m/s | -38.7°C | 0% | 7.8hPa | 2.6V | 03:19:25 | 02:33:49 | 00:00:00 | |
| DL1XH-15 | 2026-09-04 00:28:34 | 52.39868 | 11.38593 | 138° | 7km/h | 33103m | 5.2m/s | -38.6°C | 1.8% | 7.9hPa | 2.5V | 03:18:38 | 02:33:47 | 00:00:00 | |
| AA1-15 | 2026-09-04 00:28:32 | 52.39868 | 11.38593 | 139° | 9km/h | 33103m | 5.2m/s | -38.6°C | 0% | 7.9hPa | 2.5V | 03:19:25 | 02:33:47 | 00:00:00 | |
| DM0DOS-11 | 2026-09-04 00:28:31 | 52.39846 | 11.38561 | 44° | 29km/h | 33063m | 6m/s | -38.6°C | 1.8% | 7.9hPa | 2.6V | 03:18:45 | 02:33:40 | 00:00:00 | |
| DF8AY | 2026-09-04 00:28:31 | 52.39868 | 11.38590 | 29° | 7km/h | 33093m | 5.5m/s | -38.6°C | 0% | 7.9hPa | 2.6V | 03:19:25 | 02:33:45 | 00:00:00 | |
| HSKMA3-T | 2026-09-04 00:28:27 | 52.39857 | 11.38577 | 40° | 27km/h | 33074m | 5.8m/s | -38.6°C | 0% | 7.9hPa | 2.5V | 03:19:25 | 02:33:42 | 00:00:00 | |
| DL1XH-west | 2026-09-04 00:28:23 | 52.39838 | 11.38545 | 49° | 22km/h | 33051m | 5.9m/s | -38.5°C | 0% | 7.9hPa | 2.5V | 03:19:25 | 02:33:38 | 00:00:00 | |
| AA1-15 | 2026-09-04 00:28:22 | 52.39832 | 11.38534 | 59° | 15km/h | 33039m | 5.5m/s | -38.5°C | 0% | 8hPa | 2.6V | 03:19:25 | 02:33:36 | 00:00:00 | |
| DD8BA-10 | 2026-09-04 00:28:21 | 52.39832 | 11.38534 | 60° | 16km/h | 33040m | 5.5m/s | -38.5°C | 1.7% | 7.9hPa | 2.6V | 03:18:00 | 00:00:00 | 00:00:00 | |
| S3001 | 2026-09-04 00:28:20 | 52.39830 | 11.38528 | 68° | 15km/h | 33034m | 5.3m/s | -38.5°C | 0.1% | 7.9hPa | 2.6V | 00:00:00 | 00:00:00 | 00:00:00 | |
| DM0DOS-11 | 2026-09-04 00:28:19 | 52.39826 | 11.38488 | 70° | 18km/h | 33005m | 4.5m/s | -38.5°C | 1.8% | 8hPa | 2.6V | 03:18:55 | 02:33:30 | 00:00:00 | |
| HSKMA3-T | 2026-09-04 00:28:17 | 52.39828 | 11.38505 | 86° | 24km/h | 33016m | 5.6m/s | -38.5°C | 0% | 8hPa | 2.5V | 03:19:25 | 02:33:32 | 00:00:00 | |
| DL1XH1-15 | 2026-09-04 00:28:17 | 52.39822 | 11.38479 | 19° | 11km/h | 32993m | 7m/s | -38.5°C | 1.8% | 8hPa | 2.6V | 03:18:57 | 02:33:28 | 00:00:00 | |
| DL1XH-west | 2026-09-04 00:28:13 | 52.39822 | 11.38479 | 20° | 11km/h | 32993m | 7m/s | -38.6°C | 0% | 8hPa | 2.6V | 03:19:25 | 02:33:28 | 00:00:00 | |
| DF8AY | 2026-09-04 00:28:12 | 52.39808 | 11.38462 | 91° | 29km/h | 32951m | 5.9m/s | -38.8°C | 0% | 8hPa | 2.5V | 03:19:25 | 02:33:21 | 00:00:00 | |
| AA1-15 | 2026-09-04 00:28:11 | 52.39814 | 11.38483 | 340° | 11km/h | 32975m | 4.4m/s | -38.6°C | 0% | 8hPa | 2.5V | 03:19:25 | 02:33:25 | 00:00:00 | |
| DM0DOS-11 | 2026-09-04 00:28:11 | 52.39809 | 11.38449 | 92° | 33km/h | 32946m | 4.3m/s | -38.8°C | 1.7% | 8.1hPa | 2.5V | 03:19:05 | 02:33:20 | 00:00:00 | |
| DO3MHA-11 | 2026-09-04 00:28:11 | 52.39816 | 11.38481 | 334° | 20km/h | 32981m | 5.3m/s | -38.5°C | 1.7% | 8.0hPa | 2.6V | 03:18:00 | 02:33:26 | 00:00:00 | |
| SP3WXH-11 | 2026-09-04 00:28:10 | 52.39811 | 11.38483 | 28° | 7km/h | 32971m | 4.8m/s | -38.7°C | 0.2% | 8.0hPa | 2.6V | 00:00:00 | 00:00:00 | 00:00:00 | |
| DO2SHX-10 | 2026-09-04 00:28:09 | 52.39811 | 11.38483 | 29° | 15km/h | 32971m | 4.8m/s | -38.6°C | 1.7% | 8.0hPa | 2.6V | 00:00:00 | 02:33:24 | 00:00:00 | |
| SMARD9-10 | 2026-09-04 00:28:08 | 52.39810 | 11.38479 | 66° | 13km/h | 32965m | 6.8m/s | -38.7°C | 0.1% | 8.0hPa | 2.6V | 00:00:00 | 00:00:00 | 00:00:00 | |
| DL1XH-15 | 2026-09-04 00:28:07 | 52.39806 | 11.38419 | 46° | 16km/h | 32930m | 6.4m/s | -38.9°C | 1.8% | 8.1hPa | 2.6V | 03:19:08 | 02:33:17 | 00:00:00 | |
| HSKMA3-T | 2026-09-04 00:28:07 | 52.39809 | 11.38472 | 83° | 22km/h | 32958m | 7.3m/s | -38.7°C | 0% | 8hPa | 2.6V | 03:19:25 | 02:33:22 | 00:00:00 | |
| OE5DRO-10 | 2026-09-04 00:28:07 | 52.39808 | 11.38472 | 84° | 24km/h | 32958m | 7.2m/s | 0°C | 0% | 0hPa | 2.6V | 00:00:00 | 00:00:00 | 00:00:00 | |
| HTAHTA | 2026-09-04 00:28:06 | 52.39809 | 11.38449 | 92° | 31km/h | 32946m | 4.3m/s | -38.8°C | 0.2% | 8.1hPa | 2.6V | 00:00:00 | 00:00:00 | 00:00:00 | |
| DL1XH1-15 | 2026-09-04 00:28:05 | 52.39808 | 11.38426 | 75° | 22km/h | 32936m | 5.2m/s | -38.8°C | 1.7% | 8.1hPa | 2.6V | 03:19:07 | 02:33:18 | 00:00:00 | |
| DL1XH-west | 2026-09-04 00:28:02 | 52.39806 | 11.38419 | 46° | 16km/h | 32930m | 6.4m/s | -38.9°C | 0% | 8.1hPa | 2.6V | 03:19:25 | 02:33:17 | 00:00:00 | |
| DL1NUX | 2026-09-04 00:28:02 | 52.39774 | 11.38425 | 14° | 24km/h | 32895m | 6m/s | -39°C | 1.8% | 8.1hPa | 2.6V | 03:19:14 | 02:33:11 | 00:00:00 | |
| AA1-15 | 2026-09-04 00:28:01 | 52.39797 | 11.38417 | 343° | 22km/h | 32917m | 6.2m/s | -38.9°C | 0% | 8.1hPa | 2.5V | 03:19:25 | 02:33:15 | 00:00:00 | |
| HSKMA3-T | 2026-09-04 00:27:56 | 52.39774 | 11.38425 | 14° | 24km/h | 32895m | 6m/s | -39°C | 0% | 8.1hPa | 2.6V | 03:19:25 | 02:33:11 | 00:00:00 | |
| DL1XH-15 | 2026-09-04 00:27:55 | 52.39754 | 11.38398 | 52° | 26km/h | 32871m | 5.6m/s | -39.1°C | 1.8% | 8.2hPa | 2.5V | 03:19:18 | 02:33:07 | 00:00:00 | |
| DL1XH1-15 | 2026-09-04 00:27:55 | 52.39758 | 11.38406 | 49° | 29km/h | 32877m | 5.7m/s | -39.1°C | 1.8% | 8.1hPa | 2.5V | 03:19:17 | 02:33:08 | 00:00:00 | |
| DL1XH-west | 2026-09-04 00:27:52 | 52.39754 | 11.38398 | 52° | 26km/h | 32871m | 5.6m/s | -39.1°C | 0% | 8.2hPa | 2.5V | 03:19:25 | 02:33:07 | 00:00:00 | |
| DL1NUX | 2026-09-04 00:27:51 | 52.39735 | 11.38372 | 47° | 11km/h | 32838m | 5.9m/s | -39.2°C | 1.8% | 8.2hPa | 2.5V | 03:19:24 | 02:33:01 | 00:00:00 | |
| AA1-15 | 2026-09-04 00:27:50 | 52.39746 | 11.38384 | 42° | 18km/h | 32859m | 5.9m/s | -39.2°C | 0% | 8.2hPa | 2.6V | 03:19:25 | 02:33:05 | 00:00:00 | |
| DB0NH | 2026-09-04 00:27:49 | 52.39743 | 11.38379 | 32° | 22km/h | 32854m | 5.2m/s | -39.1°C | 1.8% | 8.1hPa | 2.6V | 00:00:00 | 02:33:04 | 00:00:00 | |
| DO2SHX-10 | 2026-09-04 00:27:48 | 52.39740 | 11.38377 | 24° | 11km/h | 32849m | 4.6m/s | -39.1°C | 1.8% | 8.1hPa | 2.5V | 03:19:00 | 02:33:03 | 00:00:00 | |
| DL1XH-15 | 2026-09-04 00:27:47 | 52.39734 | 11.38357 | 104° | 7km/h | 32814m | 5m/s | -39.3°C | 1.8% | 8.2hPa | 2.5V | 03:19:28 | 02:32:57 | 00:00:00 | |
| GOEST3-10 | 2026-09-04 00:27:46 | 52.39735 | 11.38372 | 48° | 9km/h | 32838m | 5.8m/s | -39.2°C | 1.8% | 8.1hPa | 2.5V | 00:00:00 | 00:00:00 | 00:00:00 | |
| DL1XH1-15 | 2026-09-04 00:27:45 | 52.39734 | 11.38360 | 99° | 11km/h | 32820m | 5.4m/s | -39.3°C | 1.8% | 8.2hPa | 2.5V | 03:19:27 | 02:32:58 | 00:00:00 | |
| SONDE2-11 | 2026-09-04 00:27:45 | 52.39734 | 11.38369 | 67° | 9km/h | 32832m | 6.3m/s | -39.3°C | 0.2% | 8.2hPa | 2.5V | 00:00:00 | 00:00:00 | 00:00:00 | |
| HSKMA3-T | 2026-09-04 00:27:45 | 52.39734 | 11.38369 | 68° | 9km/h | 32832m | 6.3m/s | -39.3°C | 0% | 8.2hPa | 2.6V | 03:19:25 | 02:33:00 | 00:00:00 | |
| DL1XH-west | 2026-09-04 00:27:42 | 52.39734 | 11.38357 | 104° | 7km/h | 32814m | 5m/s | -39.3°C | 0% | 8.2hPa | 2.5V | 03:20:16 | 02:32:57 | 00:00:00 | |
| AA1-15 | 2026-09-04 00:27:39 | 52.39732 | 11.38353 | 355° | 9km/h | 32798m | 5.6m/s | -39.3°C | 0% | 8.2hPa | 2.5V | 03:20:16 | 02:32:54 | 00:00:00 | |
| SP3WXH-11 | 2026-09-04 00:27:39 | 52.39729 | 11.38354 | 357° | 15km/h | 32793m | 5.2m/s | -39.3°C | 0.2% | 8.2hPa | 2.6V | 00:00:00 | 00:00:00 | 00:00:00 | |
| AM1SDL-15 | 2026-09-04 00:27:37 | 52.39725 | 11.38353 | 11° | 22km/h | 32788m | 4.8m/s | -39.2°C | 1.8% | 8.2hPa | 2.6V | 00:00:00 | 02:32:52 | 00:00:00 | |
| DO2SHX-10 | 2026-09-04 00:27:36 | 52.39720 | 11.38350 | 27° | 22km/h | 32783m | 4.8m/s | -39.2°C | 1.8% | 8.2hPa | 2.6V | 03:19:00 | 02:32:51 | 00:00:00 | |
| DL1XH-15 | 2026-09-04 00:27:35 | 52.39714 | 11.38318 | 120° | 24km/h | 32761m | 5.5m/s | -39.2°C | 1.8% | 8.3hPa | 2.6V | 03:19:38 | 02:32:47 | 00:00:00 | |
| HSKMA3-T | 2026-09-04 00:27:34 | 52.39713 | 11.38337 | 69° | 24km/h | 32771m | 4.7m/s | -39.3°C | 0% | 8.3hPa | 2.5V | 03:20:16 | 02:32:49 | 00:00:00 | |
| DL1XH1-15 | 2026-09-04 00:27:34 | 52.39712 | 11.38327 | 92° | 24km/h | 32767m | 5.1m/s | -39.2°C | 1.8% | 8.3hPa | 2.6V | 03:19:37 | 02:32:48 | 00:00:00 | |
| DL1XH-west | 2026-09-04 00:27:32 | 52.39718 | 11.38311 | 147° | 27km/h | 32756m | 5.5m/s | -39.3°C | 0% | 8.3hPa | 2.5V | 03:20:16 | 02:32:46 | 00:00:00 | |
| DL1NUX | 2026-09-04 00:27:31 | 52.39738 | 11.38326 | 303° | 18km/h | 32731m | 5.5m/s | -39.3°C | 1.8% | 8.3hPa | 2.6V | 03:19:44 | 02:32:41 | 00:00:00 | |
| DF7ER-10 | 2026-09-04 00:27:31 | 52.39718 | 11.38311 | 148° | 27km/h | 32757m | 5.5m/s | -39.3°C | 0.2% | 8.3hPa | 2.5V | 03:20:00 | 00:00:00 | 00:00:00 | |
| DM0DOS-11 | 2026-09-04 00:27:30 | 52.39734 | 11.38330 | 338° | 22km/h | 32725m | 5.8m/s | -39.3°C | 1.8% | 8.3hPa | 2.5V | 03:19:45 | 02:32:40 | 00:00:00 | |
| AA1-15 | 2026-09-04 00:27:29 | 52.39731 | 11.38307 | 195° | 26km/h | 32746m | 4.5m/s | -39.3°C | 0% | 8.3hPa | 2.5V | 03:20:16 | 02:32:44 | 00:00:00 | |
| DB0UT-7 | 2026-09-04 00:27:29 | 52.39731 | 11.38307 | 195° | 29km/h | 32746m | 4.4m/s | -39.2°C | 1.8% | 8.3hPa | 2.6V | 03:19:00 | 02:32:44 | 00:00:00 | |
| DJ8HS-15 | 2026-09-04 00:27:28 | 52.39736 | 11.38312 | 224° | 27km/h | 32742m | 4.3m/s | -39.2°C | 1.8% | 8.3hPa | 2.6V | 03:19:00 | 02:32:43 | 00:00:00 | |
| DL1XH-15 | 2026-09-04 00:27:27 | 52.39715 | 11.38317 | 58° | 35km/h | 32709m | 4.9m/s | -39.2°C | 1.8% | 8.3hPa | 2.6V | 03:19:48 | 02:32:37 | 00:00:00 | |
| HSKMA3-T | 2026-09-04 00:27:24 | 52.39728 | 11.38331 | 11° | 29km/h | 32719m | 5.9m/s | -39.3°C | 0% | 8.3hPa | 2.5V | 03:20:16 | 02:32:39 | 00:00:00 | |
| DF8AY | 2026-09-04 00:27:24 | 52.39715 | 11.38317 | 58° | 35km/h | 32709m | 4.9m/s | -39.3°C | 0% | 8.3hPa | 2.6V | 03:21:07 | 02:32:37 | 00:00:00 | |
| DL1XH-west | 2026-09-04 00:27:21 | 52.39713 | 11.38289 | 107° | 35km/h | 32698m | 5.4m/s | -39.3°C | 0% | 8.4hPa | 2.6V | 03:20:16 | 02:32:35 | 00:00:00 | |
| DM0DOS-11 | 2026-09-04 00:27:21 | 52.39749 | 11.38279 | 220° | 31km/h | 32669m | 5.3m/s | -39.3°C | 1.8% | 8.4hPa | 2.6V | 03:19:55 | 02:32:30 | 00:00:00 | |
| AA1-15 | 2026-09-04 00:27:19 | 52.39717 | 11.38278 | 134° | 33km/h | 32692m | 6.1m/s | -39.3°C | 0% | 8.3hPa | 2.5V | 03:20:16 | 02:32:34 | 00:00:00 | |
| DO2SHX-10 | 2026-09-04 00:27:18 | 52.39724 | 11.38270 | 160° | 37km/h | 32686m | 6.2m/s | -39.2°C | 1.8% | 8.3hPa | 2.6V | 00:00:00 | 02:32:33 | 00:00:00 | |
| DB0NH | 2026-09-04 00:27:17 | 52.39733 | 11.38269 | 186° | 27km/h | 32680m | 5.7m/s | -39.2°C | 1.8% | 8.3hPa | 2.6V | 00:00:00 | 02:32:32 | 00:00:00 | |
| GOEST3-10 | 2026-09-04 00:27:16 | 52.39741 | 11.38272 | 205° | 24km/h | 32675m | 5.3m/s | -39.2°C | 1.8% | 8.4hPa | 2.6V | 03:19:00 | 00:00:00 | 00:00:00 | |
| DO2SHX-10 | 2026-09-04 00:27:15 | 52.39749 | 11.38279 | 221° | 24km/h | 32669m | 5.3m/s | -39.2°C | 1.8% | 8.3hPa | 2.6V | 00:00:00 | 02:32:30 | 00:00:00 | |
| DL1XH1-15 | 2026-09-04 00:27:14 | 52.39754 | 11.38295 | 274° | 15km/h | 32657m | 6m/s | -39.3°C | 1.8% | 8.4hPa | 2.5V | 03:19:57 | 02:32:28 | 00:00:00 | |
| HSKMA3-T | 2026-09-04 00:27:13 | 52.39754 | 11.38295 | 275° | 15km/h | 32657m | 6m/s | -39.3°C | 0% | 8.4hPa | 2.5V | 03:20:16 | 02:32:28 | 00:00:00 | |
| BIOWL1-15 | 2026-09-04 00:27:12 | 52.39752 | 11.38300 | 333° | 13km/h | 32651m | 6.4m/s | 0°C | 0% | 0hPa | 2.5V | 18:12:15 | 02:32:27 | 00:00:00 | |
| DF8AY | 2026-09-04 00:27:11 | 52.39749 | 11.38300 | 20° | 16km/h | 32645m | 5.7m/s | -39.3°C | 0% | 8.4hPa | 2.5V | 03:21:07 | 02:32:26 | 00:00:00 | |
| DD8BA-10 | 2026-09-04 00:27:11 | 52.39749 | 11.38299 | 21° | 33km/h | 32646m | 5.7m/s | -39.3°C | 1.8% | 8.4hPa | 2.5V | 00:00:00 | 00:00:00 | 00:00:00 | |
| DM0DOS-11 | 2026-09-04 00:27:10 | 52.39759 | 11.38243 | 162° | 42km/h | 32610m | 6.3m/s | -39.5°C | 1.8% | 8.5hPa | 2.5V | 03:20:05 | 02:32:20 | 00:00:00 | |
| AA1-15 | 2026-09-04 00:27:09 | 52.39745 | 11.38261 | 122° | 33km/h | 32623m | 5.7m/s | -39.5°C | 0% | 8.4hPa | 2.5V | 03:20:16 | 02:32:22 | 00:00:00 | |
| DL1XH1-15 | 2026-09-04 00:27:09 | 52.39780 | 11.38242 | 194° | 40km/h | 32599m | 4.1m/s | -39.6°C | 1.8% | 8.5hPa | 2.6V | 03:20:07 | 02:32:18 | 00:00:00 | |
| DL1XH-15 | 2026-09-04 00:27:09 | 52.39790 | 11.38248 | 207° | 33km/h | 32595m | 4.6m/s | -39.6°C | 1.8% | 8.5hPa | 2.5V | 03:20:08 | 02:32:17 | 00:00:00 | |
| HSKMA3-T | 2026-09-04 00:27:02 | 52.39790 | 11.38248 | 208° | 35km/h | 32595m | 4.6m/s | -39.6°C | 0% | 8.5hPa | 2.5V | 03:20:16 | 02:32:17 | 00:00:00 | |
| DF8AY | 2026-09-04 00:27:00 | 52.39798 | 11.38260 | 248° | 13km/h | 32584m | 6m/s | -39.7°C | 0% | 8.5hPa | 2.6V | 03:21:07 | 02:32:15 | 00:00:00 | |
| EDDB2-12 | 2026-09-04 00:27:00 | 52.39798 | 11.38260 | 247° | 11km/h | 32584m | 6.0m/s | -39.7°C | 0.2% | 8.5hPa | 2.5V | 00:00:00 | 00:00:00 | 00:00:00 | |
| BUE01 | 2026-09-04 00:26:59 | 52.39796 | 11.38263 | 30° | 13km/h | 32572m | 6.0m/s | -39.8°C | 0.1% | 8.5hPa | 2.5V | 00:00:00 | 00:00:00 | 00:00:00 | |
| DL1XH1-15 | 2026-09-04 00:26:58 | 52.39801 | 11.38214 | 135° | 37km/h | 32543m | 6m/s | -39.9°C | 1.8% | 8.5hPa | 2.5V | 03:20:17 | 02:32:08 | 00:00:00 | |
| DM0DOS-11 | 2026-09-04 00:26:57 | 52.39792 | 11.38238 | 105° | 31km/h | 32555m | 5.4m/s | -39.9°C | 1.9% | 8.5hPa | 2.6V | 03:20:15 | 02:32:10 | 00:00:00 | |
| DL1XH-west | 2026-09-04 00:26:56 | 52.39792 | 11.38249 | 83° | 26km/h | 32561m | 5.5m/s | -39.8°C | 0% | 8.6hPa | 2.6V | 03:20:16 | 02:32:11 | 00:00:00 | |
| DB0DAN | 2026-09-04 00:26:55 | 52.39792 | 11.38238 | 106° | 29km/h | 32555m | 5.4m/s | -39.9°C | 0.2% | 8.55hPa | 2.6V | 00:00:00 | 00:00:00 | 00:00:00 | |
| HSKMA3-T | 2026-09-04 00:26:51 | 52.39817 | 11.38197 | 157° | 38km/h | 32531m | 6.1m/s | -39.9°C | 0% | 8.6hPa | 2.6V | 03:21:07 | 02:32:06 | 00:00:00 | |
| DO3MHA-11 | 2026-09-04 00:26:51 | 52.39817 | 11.38197 | 157° | 27km/h | 32532m | 6.0m/s | -39.9°C | 1.9% | 8.5hPa | 2.5V | 03:20:00 | 02:32:06 | 00:00:00 | |
| DL1XH1-15 | 2026-09-04 00:26:48 | 52.39870 | 11.38173 | 109° | 18km/h | 32488m | 5.4m/s | -40.2°C | 1.9% | 8.6hPa | 2.5V | 03:20:27 | 02:31:58 | 00:00:00 | |
| DF8AY | 2026-09-04 00:26:47 | 52.39876 | 11.38104 | 129° | 37km/h | 32448m | 7.4m/s | -40.2°C | 0% | 8.7hPa | 2.5V | 03:21:07 | 02:31:51 | 00:00:00 | |
| DL1XH-15 | 2026-09-04 00:26:47 | 52.39871 | 11.38157 | 78° | 22km/h | 32476m | 7.2m/s | -40.2°C | 1.9% | 8.6hPa | 2.6V | 03:20:29 | 02:31:56 | 00:00:00 | |
| AA1-15 | 2026-09-04 00:26:45 | 52.39864 | 11.38185 | 155° | 22km/h | 32499m | 5.5m/s | -40.2°C | 0% | 8.6hPa | 2.6V | 03:21:07 | 02:32:00 | 00:00:00 | |
| DO2SHX-10 | 2026-09-04 00:26:45 | 52.39864 | 11.38185 | 155° | 20km/h | 32499m | 5.5m/s | -40.1°C | 1.9% | 8.6hPa | 2.6V | 00:00:00 | 02:32:00 | 00:00:00 | |
| TFSTFS | 2026-09-04 00:26:44 | 52.39864 | 11.38185 | 156° | 22km/h | 32499m | 5.5m/s | -40.2°C | 0.2% | 8.6hPa | 2.6V | 00:00:00 | 00:00:00 | 00:00:00 | |
| SONDE2-11 | 2026-09-04 00:26:43 | 52.39870 | 11.38173 | 109° | 18km/h | 32488m | 5.4m/s | -40.2°C | 0.2% | 8.6hPa | 2.6V | 00:00:00 | 00:00:00 | 00:00:00 | |
| DO2SHX-10 | 2026-09-04 00:26:42 | 52.39871 | 11.38165 | 93° | 22km/h | 32483m | 6.3m/s | -40.2°C | 1.9% | 8.6hPa | 2.6V | 00:00:00 | 02:31:57 | 00:00:00 | |
| DB0DAN | 2026-09-04 00:26:40 | 52.39869 | 11.38147 | 75° | 24km/h | 32469m | 5.6m/s | -40.2°C | 0.2% | 8.67hPa | 2.6V | 00:00:00 | 00:00:00 | 00:00:00 | |
| HSKMA3-T | 2026-09-04 00:26:40 | 52.39869 | 11.38147 | 75° | 26km/h | 32469m | 5.6m/s | -40.2°C | 0% | 8.7hPa | 2.6V | 03:21:07 | 02:31:55 | 00:00:00 | |
| DO2SHX-10 | 2026-09-04 00:26:39 | 52.39869 | 11.38137 | 85° | 27km/h | 32465m | 4.2m/s | -40.2°C | 1.9% | 8.6hPa | 2.6V | 00:00:00 | 02:31:54 | 00:00:00 | |
| DL1ZP-14 | 2026-09-04 00:26:38 | 52.39869 | 11.38127 | 100° | 26km/h | 32460m | 4.6m/s | -40.2°C | 0.2% | 8.7hPa | 2.5V | 00:00:00 | 00:00:00 | 00:00:00 | |
| GOEST3-10 | 2026-09-04 00:26:37 | 52.39876 | 11.38104 | 130° | 37km/h | 32448m | 7.4m/s | -40.1°C | 1.9% | 8.6hPa | 2.5V | 03:20:00 | 00:00:00 | 00:00:00 | |
| DO2SHX-10 | 2026-09-04 00:26:36 | 52.39876 | 11.38104 | 130° | 40km/h | 32448m | 7.4m/s | -40.1°C | 1.9% | 8.6hPa | 2.5V | 03:20:00 | 02:31:51 | 00:00:00 | |
| DL1XH-15 | 2026-09-04 00:26:35 | 52.39907 | 11.38071 | 159° | 27km/h | 32427m | 5.2m/s | -40.2°C | 1.9% | 8.7hPa | 2.5V | 03:20:38 | 02:31:47 | 00:00:00 | |
| DL1XH1-15 | 2026-09-04 00:26:35 | 52.39900 | 11.38076 | 154° | 37km/h | 32432m | 4m/s | -40.2°C | 1.9% | 8.7hPa | 2.6V | 03:20:37 | 02:31:48 | 00:00:00 | |
| DL1XH-west | 2026-09-04 00:26:35 | 52.39891 | 11.38083 | 149° | 40km/h | 32436m | 4.1m/s | -40.2°C | 0% | 8.7hPa | 2.6V | 03:21:07 | 02:31:49 | 00:00:00 | |
| BIOWL1-15 | 2026-09-04 00:26:30 | 52.39913 | 11.38066 | 19° | 13km/h | 32409m | 5.5m/s | 0°C | 0% | 0hPa | 2.6V | 18:12:15 | 02:31:44 | 00:00:00 | |
| HSKMA3-T | 2026-09-04 00:26:30 | 52.39914 | 11.38067 | 157° | 4km/h | 32415m | 6.2m/s | -40.3°C | 0% | 8.7hPa | 2.5V | 03:21:07 | 02:31:45 | 00:00:00 | |
| SONCRA | 2026-09-04 00:26:30 | 52.39913 | 11.38066 | 19° | 13km/h | 32409m | 5.5m/s | -40.4°C | 0.2% | 8.8hPa | 2.5V | 00:00:00 | 00:00:00 | 00:00:00 | |
| DL1NUX | 2026-09-04 00:26:29 | 52.39901 | 11.38032 | 86° | 37km/h | 32387m | 5.3m/s | -40.5°C | 1.9% | 8.8hPa | 2.5V | 03:20:45 | 02:31:40 | 00:00:00 | |
| DF8AY | 2026-09-04 00:26:28 | 52.39910 | 11.38063 | 38° | 18km/h | 32404m | 4.5m/s | -40.4°C | 0% | 8.8hPa | 2.6V | 03:21:07 | 02:31:43 | 00:00:00 | |
| DF7ER-10 | 2026-09-04 00:26:28 | 52.39913 | 11.38066 | 20° | 13km/h | 32409m | 5.5m/s | -40.4°C | 0.2% | 8.7hPa | 2.6V | 03:21:00 | 00:00:00 | 00:00:00 | |
| DL1XH-15 | 2026-09-04 00:26:27 | 52.39912 | 11.37986 | 133° | 38km/h | 32372m | 5.7m/s | -40.5°C | 1.9% | 8.8hPa | 2.6V | 03:20:48 | 02:31:37 | 00:00:00 | |
| AA1-15 | 2026-09-04 00:26:24 | 52.39902 | 11.38016 | 103° | 40km/h | 32382m | 4.6m/s | -40.5°C | 0% | 8.8hPa | 2.5V | 03:21:07 | 02:31:39 | 00:00:00 | |
| DL1XH-west | 2026-09-04 00:26:24 | 52.39906 | 11.38000 | 119° | 42km/h | 32377m | 4.8m/s | -40.5°C | 0% | 8.8hPa | 2.6V | 03:21:07 | 02:31:38 | 00:00:00 | |
| HSKMA3-T | 2026-09-04 00:26:19 | 52.39932 | 11.37971 | 185° | 22km/h | 32354m | 5.1m/s | -40.5°C | 0% | 8.8hPa | 2.5V | 03:21:07 | 02:31:34 | 00:00:00 | |
| DF8AY | 2026-09-04 00:26:18 | 52.39937 | 11.37972 | 199° | 15km/h | 32349m | 4.8m/s | -40.5°C | 0% | 8.8hPa | 2.5V | 03:21:07 | 02:31:33 | 00:00:00 | |
| DF7ER-10 | 2026-09-04 00:26:18 | 52.39937 | 11.37972 | 200° | 15km/h | 32350m | 4.8m/s | -40.5°C | 0.2% | 8.8hPa | 2.5V | 03:21:00 | 00:00:00 | 00:00:00 | |
| DM0DOS-11 | 2026-09-04 00:26:17 | 52.39939 | 11.37970 | 68° | 13km/h | 32333m | 6m/s | -40.5°C | 1.9% | 8.8hPa | 2.5V | 03:20:55 | 02:31:30 | 00:00:00 | |
| DB0NH | 2026-09-04 00:26:16 | 52.39940 | 11.37973 | 85° | 22km/h | 32339m | 5.4m/s | -40.5°C | 1.9% | 8.8hPa | 2.6V | 00:00:00 | 02:31:31 | 00:00:00 | |
| DL1XH-15 | 2026-09-04 00:26:15 | 52.39937 | 11.37939 | 93° | 33km/h | 32316m | 4.6m/s | -40.6°C | 1.9% | 8.8hPa | 2.6V | 03:20:58 | 02:31:27 | 00:00:00 | |
| AA1-15 | 2026-09-04 00:26:14 | 52.39937 | 11.37952 | 85° | 29km/h | 32321m | 5.5m/s | -40.6°C | 0% | 8.9hPa | 2.6V | 03:21:07 | 02:31:28 | 00:00:00 | |
| DL1XH-west | 2026-09-04 00:26:12 | 52.39937 | 11.37939 | 94° | 33km/h | 32316m | 4.6m/s | -40.6°C | 0% | 8.8hPa | 2.6V | 03:21:07 | 02:31:27 | 00:00:00 | |
| HSKMA3-T | 2026-09-04 00:26:08 | 52.39948 | 11.37901 | 155° | 20km/h | 32293m | 6.2m/s | -40.7°C | 0% | 8.9hPa | 2.6V | 03:21:07 | 02:31:23 | 00:00:00 | |
| DF8AY | 2026-09-04 00:26:08 | 52.39953 | 11.37899 | 172° | 20km/h | 32287m | 5.4m/s | -40.7°C | 0% | 8.9hPa | 2.5V | 03:21:07 | 02:31:22 | 00:00:00 | |
| AA1-15 | 2026-09-04 00:26:03 | 52.39967 | 11.37892 | 104° | 11km/h | 32265m | 5.6m/s | -40.8°C | 0% | 8.9hPa | 2.6V | 03:21:07 | 02:31:18 | 00:00:00 | |
| DL1XH-west | 2026-09-04 00:26:01 | 52.39964 | 11.37882 | 43° | 20km/h | 32253m | 6.2m/s | -40.9°C | 0% | 9hPa | 2.5V | 03:21:58 | 02:31:16 | 00:00:00 | |
| DD8BA-10 | 2026-09-04 00:26:01 | 52.39964 | 11.37882 | 44° | 27km/h | 32253m | 6.2m/s | -40.8°C | 1.9% | 8.9hPa | 2.5V | 00:00:00 | 00:00:00 | 00:00:00 | |
| DO2SHX-10 | 2026-09-04 00:26:00 | 52.39960 | 11.37877 | 35° | 22km/h | 32247m | 6.6m/s | -40.9°C | 2.0% | 8.9hPa | 2.5V | 03:21:00 | 02:31:15 | 00:00:00 | |
| DB0UT-7 | 2026-09-04 00:25:59 | 52.39955 | 11.37871 | 36° | 26km/h | 32241m | 4.7m/s | -41.0°C | 2.0% | 8.9hPa | 2.5V | 00:00:00 | 00:00:00 | 00:00:00 | |
| DL1XH1-15 | 2026-09-04 00:25:58 | 52.39959 | 11.37814 | 139° | 38km/h | 32208m | 5m/s | -41.3°C | 2% | 9hPa | 2.5V | 03:21:17 | 02:31:08 | 00:00:00 | |
| DF8AY | 2026-09-04 00:25:57 | 52.39948 | 11.37857 | 66° | 22km/h | 32232m | 4m/s | -41.1°C | 0% | 9hPa | 2.6V | 03:21:58 | 02:31:12 | 00:00:00 | |
| BUE01 | 2026-09-04 00:25:57 | 52.39947 | 11.37848 | 93° | 24km/h | 32227m | 6.1m/s | -41.2°C | 0.2% | 8.9hPa | 2.5V | 00:00:00 | 00:00:00 | 00:00:00 | |
| DB0DAN | 2026-09-04 00:25:55 | 52.39948 | 11.37837 | 109° | 29km/h | 32220m | 7m/s | -41.2°C | 0.2% | 8.99hPa | 2.5V | 00:00:00 | 00:00:00 | 00:00:00 | |
| AA1-15 | 2026-09-04 00:25:53 | 52.39959 | 11.37814 | 139° | 38km/h | 32208m | 5m/s | -41.3°C | 0% | 9hPa | 2.5V | 03:21:58 | 02:31:08 | 00:00:00 | |
| DL1XH-west | 2026-09-04 00:25:51 | 52.39987 | 11.37796 | 192° | 18km/h | 32186m | 5.3m/s | -41.4°C | 0% | 9.1hPa | 2.5V | 03:21:58 | 02:31:04 | 00:00:00 | |
| DD8BA-10 | 2026-09-04 00:25:51 | 52.39974 | 11.37799 | 163° | 22km/h | 32198m | 5.9m/s | -41.3°C | 2.0% | 9.0hPa | 2.5V | 00:00:00 | 00:00:00 | 00:00:00 | |
| DL1XH1-15 | 2026-09-04 00:25:48 | 52.39993 | 11.37767 | 101° | 33km/h | 32153m | 5.3m/s | -41.3°C | 2% | 9.1hPa | 2.5V | 03:21:27 | 02:30:58 | 00:00:00 | |
| DO2SHX-10 | 2026-09-04 00:25:48 | 52.39991 | 11.37797 | 202° | 7km/h | 32181m | 4.4m/s | -41.3°C | 2.0% | 9.0hPa | 2.5V | 03:21:00 | 02:31:03 | 00:00:00 | |
| DL1XH-15 | 2026-09-04 00:25:47 | 52.40000 | 11.37742 | 126° | 33km/h | 32142m | 6m/s | -41.3°C | 2% | 9.1hPa | 2.5V | 03:21:29 | 02:30:56 | 00:00:00 | |
| HSKMA3-T | 2026-09-04 00:25:47 | 52.39992 | 11.37798 | 156° | 4km/h | 32176m | 5.3m/s | -41.4°C | 0% | 9hPa | 2.5V | 03:21:58 | 02:31:02 | 00:00:00 | |
| DF8AY | 2026-09-04 00:25:46 | 52.39992 | 11.37795 | 82° | 11km/h | 32170m | 6.4m/s | -41.4°C | 0% | 9.1hPa | 2.6V | 03:21:58 | 02:31:01 | 00:00:00 | |
| S3001 | 2026-09-04 00:25:45 | 52.39992 | 11.37789 | 84° | 18km/h | 32164m | 6.1m/s | -41.4°C | 0.2% | 9.1hPa | 2.6V | 00:00:00 | 00:00:00 | 00:00:00 | |
| AA1-15 | 2026-09-04 00:25:42 | 52.40006 | 11.37732 | 140° | 31km/h | 32136m | 6.6m/s | -41.4°C | 0% | 9.1hPa | 2.6V | 03:21:58 | 02:30:55 | 00:00:00 | |
| DL1XH-west | 2026-09-04 00:25:40 | 52.40012 | 11.37725 | 153° | 29km/h | 32129m | 6.4m/s | -41.4°C | 0% | 9.1hPa | 2.6V | 03:21:58 | 02:30:54 | 00:00:00 | |
| DF8AY | 2026-09-04 00:25:36 | 52.40031 | 11.37715 | 161° | 26km/h | 32113m | 5.1m/s | -41.4°C | 0% | 9.1hPa | 2.6V | 03:21:58 | 02:30:51 | 00:00:00 | |
| DO2SHX-10 | 2026-09-04 00:25:36 | 52.40031 | 11.37715 | 161° | 24km/h | 32113m | 5.1m/s | -41.4°C | 2.0% | 9.1hPa | 2.6V | 03:21:00 | 02:30:51 | 00:00:00 | |
| DL1XH-15 | 2026-09-04 00:25:35 | 52.40048 | 11.37683 | 111° | 31km/h | 32089m | 5.2m/s | -41.5°C | 2.1% | 9.1hPa | 2.6V | 03:21:38 | 02:30:47 | 00:00:00 | |
| DL1XH1-15 | 2026-09-04 00:25:34 | 52.40045 | 11.37695 | 116° | 29km/h | 32095m | 5.7m/s | -41.4°C | 2% | 9.2hPa | 2.5V | 03:21:37 | 02:30:48 | 00:00:00 | |
| AA1-15 | 2026-09-04 00:25:30 | 52.40053 | 11.37660 | 114° | 27km/h | 32079m | 5.8m/s | -41.5°C | 0% | 9.2hPa | 2.5V | 03:21:58 | 02:30:45 | 00:00:00 | |
| DL1XH-west | 2026-09-04 00:25:29 | 52.40056 | 11.37651 | 123° | 24km/h | 32073m | 6.4m/s | -41.5°C | 0% | 9.2hPa | 2.5V | 03:21:58 | 02:30:44 | 00:00:00 | |
| DB0UT-7 | 2026-09-04 00:25:29 | 52.40056 | 11.37651 | 123° | 31km/h | 32073m | 6.4m/s | -41.4°C | 2.1% | 9.1hPa | 2.5V | 03:21:00 | 02:30:44 | 00:00:00 | |
| DL1XH1-15 | 2026-09-04 00:25:28 | 52.40079 | 11.37610 | 116° | 27km/h | 32037m | 6m/s | -41.5°C | 2.1% | 9.2hPa | 2.5V | 03:21:47 | 02:30:38 | 00:00:00 | |
| DL1XH-15 | 2026-09-04 00:25:28 | 52.40083 | 11.37599 | 112° | 29km/h | 32031m | 5.4m/s | -41.5°C | 2% | 9.2hPa | 2.5V | 03:21:48 | 02:30:37 | 00:00:00 | |
| DO2SHX-10 | 2026-09-04 00:25:27 | 52.40064 | 11.37638 | 143° | 22km/h | 32061m | 5.9m/s | -41.4°C | 2.0% | 9.2hPa | 2.6V | 00:00:00 | 02:30:42 | 00:00:00 | |
| DB0DAN | 2026-09-04 00:25:25 | 52.40072 | 11.37627 | 136° | 20km/h | 32049m | 5.8m/s | -41.5°C | 0.3% | 9.22hPa | 2.6V | 00:00:00 | 00:00:00 | 00:00:00 | |
| HSKMA3-T | 2026-09-04 00:25:25 | 52.40072 | 11.37627 | 136° | 22km/h | 32049m | 5.8m/s | -41.5°C | 0% | 9.2hPa | 2.6V | 03:21:58 | 02:30:40 | 00:00:00 | |
| AA1-15 | 2026-09-04 00:25:20 | 52.40088 | 11.37578 | 116° | 27km/h | 32020m | 6.9m/s | -41.5°C | 0% | 9.2hPa | 2.6V | 03:21:58 | 02:30:35 | 00:00:00 | |
| DL1XH-west | 2026-09-04 00:25:19 | 52.40091 | 11.37569 | 122° | 26km/h | 32013m | 6.4m/s | -41.5°C | 0% | 9.2hPa | 2.6V | 03:21:58 | 02:30:34 | 00:00:00 | |
| DF8AY | 2026-09-04 00:25:15 | 52.40107 | 11.37529 | 118° | 35km/h | 31989m | 6.7m/s | -41.6°C | 0% | 9.3hPa | 2.6V | 03:21:58 | 02:30:30 | 00:00:00 | |
| DL1XH-15 | 2026-09-04 00:25:15 | 52.40120 | 11.37491 | 123° | 33km/h | 31973m | 5.3m/s | -41.6°C | 2% | 9.3hPa | 2.5V | 03:21:58 | 02:30:27 | 00:00:00 | |
| HSKMA3-T | 2026-09-04 00:25:14 | 52.40111 | 11.37516 | 117° | 37km/h | 31983m | 5.9m/s | -41.6°C | 0% | 9.3hPa | 2.6V | 03:21:58 | 02:30:29 | 00:00:00 | |
| DL1XH1-15 | 2026-09-04 00:25:14 | 52.40115 | 11.37503 | 118° | 37km/h | 31978m | 5.1m/s | -41.6°C | 2% | 9.3hPa | 2.6V | 03:21:57 | 02:30:28 | 00:00:00 | |
| DF7ER-10 | 2026-09-04 00:25:13 | 52.40111 | 11.37516 | 118° | 37km/h | 31984m | 5.9m/s | -41.6°C | 0.2% | 9.3hPa | 2.5V | 03:21:00 | 00:00:00 | 00:00:00 | |
| DO2SHX-10 | 2026-09-04 00:25:12 | 52.40120 | 11.37491 | 124° | 31km/h | 31973m | 5.3m/s | -41.6°C | 2.0% | 9.3hPa | 2.5V | 03:21:00 | 02:30:27 | 00:00:00 | |
| DD8BA-10 | 2026-09-04 00:25:11 | 52.40125 | 11.37480 | 131° | 35km/h | 31967m | 7.0m/s | -41.6°C | 2.0% | 9.3hPa | 2.5V | 00:00:00 | 00:00:00 | 00:00:00 | |
| DM0DOS-11 | 2026-09-04 00:25:10 | 52.40154 | 11.37426 | 112° | 40km/h | 31931m | 7m/s | -41.7°C | 2.1% | 9.4hPa | 2.5V | 03:22:05 | 02:30:20 | 00:00:00 | |
| AA1-15 | 2026-09-04 00:25:09 | 52.40135 | 11.37465 | 144° | 26km/h | 31954m | 5.3m/s | -41.7°C | 0% | 9.3hPa | 2.6V | 03:22:49 | 02:30:24 | 00:00:00 | |
| DL1XH-west | 2026-09-04 00:25:09 | 52.40140 | 11.37458 | 139° | 26km/h | 31949m | 4.7m/s | -41.7°C | 0% | 9.3hPa | 2.6V | 03:22:49 | 02:30:23 | 00:00:00 | |
| HSKMA3-T | 2026-09-04 00:25:04 | 52.40157 | 11.37410 | 108° | 46km/h | 31925m | 6m/s | -41.7°C | 0% | 9.4hPa | 2.5V | 03:22:49 | 02:30:19 | 00:00:00 | |
| DL1XH-15 | 2026-09-04 00:25:03 | 52.40164 | 11.37374 | 108° | 44km/h | 31913m | 5.8m/s | -41.7°C | 2% | 9.4hPa | 2.6V | 03:22:08 | 02:30:17 | 00:00:00 | |
| DF8AY | 2026-09-04 00:25:02 | 52.40164 | 11.37374 | 109° | 44km/h | 31913m | 5.8m/s | -41.7°C | 0% | 9.4hPa | 2.6V | 03:22:49 | 02:30:17 | 00:00:00 | |
| AA1-15 | 2026-09-04 00:24:59 | 52.40178 | 11.37333 | 135° | 35km/h | 31895m | 6.1m/s | -41.8°C | 0% | 9.4hPa | 2.6V | 03:22:49 | 02:30:14 | 00:00:00 | |
| DL1XH-west | 2026-09-04 00:24:58 | 52.40185 | 11.37324 | 142° | 35km/h | 31888m | 5.4m/s | -41.8°C | 0% | 9.4hPa | 2.6V | 03:22:49 | 02:30:13 | 00:00:00 | |
| DM0DOS-11 | 2026-09-04 00:24:57 | 52.40205 | 11.37292 | 127° | 40km/h | 31871m | 6.6m/s | -41.8°C | 2.1% | 9.4hPa | 2.6V | 03:22:15 | 02:30:10 | 00:00:00 | |
| EDDB2-12 | 2026-09-04 00:24:56 | 52.40205 | 11.37292 | 127° | 40km/h | 31871m | 6.6m/s | -41.8°C | 0.2% | 9.5hPa | 2.6V | 00:00:00 | 00:00:00 | 00:00:00 | |
| DB0DAN | 2026-09-04 00:24:55 | 52.40205 | 11.37292 | 127° | 38km/h | 31871m | 6.6m/s | -41.8°C | 0.2% | 9.46hPa | 2.6V | 00:00:00 | 00:00:00 | 00:00:00 | |
| HSKMA3-T | 2026-09-04 00:24:53 | 52.40215 | 11.37262 | 108° | 42km/h | 31860m | 5.4m/s | -41.9°C | 0% | 9.5hPa | 2.5V | 03:22:49 | 02:30:08 | 00:00:00 | |
| DF8AY | 2026-09-04 00:24:52 | 52.40219 | 11.37231 | 94° | 35km/h | 31847m | 7.3m/s | -41.9°C | 0% | 9.5hPa | 2.5V | 03:22:49 | 02:30:06 | 00:00:00 | |
| DD8BA-10 | 2026-09-04 00:24:52 | 52.40219 | 11.37230 | 95° | 37km/h | 31847m | 7.2m/s | -41.8°C | 2.1% | 9.4hPa | 2.5V | 00:00:00 | 00:00:00 | 00:00:00 | |
| DL1NUX | 2026-09-04 00:24:50 | 52.40226 | 11.37152 | 115° | 42km/h | 31810m | 6.3m/s | -41.7°C | 2.1% | 9.6hPa | 2.5V | 03:22:25 | 02:30:00 | 00:00:00 | |
| AA1-15 | 2026-09-04 00:24:49 | 52.40219 | 11.37194 | 90° | 29km/h | 31828m | 4.8m/s | -41.7°C | 0% | 9.5hPa | 2.6V | 03:22:49 | 02:30:03 | 00:00:00 | |
| DL1XH1-15 | 2026-09-04 00:24:48 | 52.40237 | 11.37119 | 123° | 47km/h | 31798m | 5.2m/s | -41.7°C | 2% | 9.6hPa | 2.6V | 03:22:27 | 02:29:58 | 00:00:00 | |
| DL1XH-west | 2026-09-04 00:24:48 | 52.40220 | 11.37181 | 98° | 31km/h | 31823m | 5.4m/s | -41.7°C | 0% | 9.5hPa | 2.5V | 03:22:49 | 02:30:02 | 00:00:00 | |
| DF8AY-15 | 2026-09-04 00:24:47 | 52.40219 | 11.37181 | 99° | 38km/h | 31824m | 5.4m/s | -41.7°C | 2.1% | 9.5hPa | 2.5V | 00:00:00 | 02:30:02 | 00:00:00 | |
| DL1XH-15 | 2026-09-04 00:24:46 | 52.40250 | 11.37090 | 127° | 38km/h | 31786m | 6.3m/s | -41.7°C | 2.1% | 9.6hPa | 2.5V | 03:22:29 | 02:29:56 | 00:00:00 | |
| HSKMA3-T | 2026-09-04 00:24:42 | 52.40244 | 11.37104 | 126° | 44km/h | 31792m | 5.9m/s | -41.7°C | 0% | 9.6hPa | 2.6V | 03:22:49 | 02:29:57 | 00:00:00 | |
| DF8AY | 2026-09-04 00:24:40 | 52.40260 | 11.37058 | 100° | 27km/h | 31769m | 5.7m/s | -41.7°C | 0% | 9.6hPa | 2.6V | 03:22:49 | 02:29:53 | 00:00:00 | |
| DL1XH1-15 | 2026-09-04 00:24:39 | 52.40262 | 11.36979 | 98° | 44km/h | 31740m | 5.1m/s | -41.8°C | 2% | 9.7hPa | 2.5V | 03:22:37 | 02:29:48 | 00:00:00 | |
| AA1-15 | 2026-09-04 00:24:39 | 52.40261 | 11.37046 | 91° | 31km/h | 31763m | 6.7m/s | -41.7°C | 0% | 9.6hPa | 2.6V | 03:22:49 | 02:29:52 | 00:00:00 | |
| DL1XH-west | 2026-09-04 00:24:38 | 52.40261 | 11.37032 | 89° | 37km/h | 31757m | 7m/s | -41.8°C | 0% | 9.7hPa | 2.6V | 03:22:49 | 02:29:51 | 00:00:00 | |
| DM0DOS-11 | 2026-09-04 00:24:37 | 52.40260 | 11.37016 | 89° | 42km/h | 31750m | 5.9m/s | -41.8°C | 2% | 9.6hPa | 2.5V | 03:22:35 | 02:29:50 | 00:00:00 | |
| HSKMA3-T | 2026-09-04 00:24:32 | 52.40264 | 11.36962 | 107° | 42km/h | 31734m | 5.8m/s | -41.8°C | 0% | 9.7hPa | 2.6V | 03:22:49 | 02:29:47 | 00:00:00 | |
| DJ2DS-15 | 2026-09-04 00:24:32 | 52.40267 | 11.36947 | 114° | 37km/h | 31728m | 7.1m/s | -41.8°C | 0.2% | 9.7hPa | 2.6V | 00:00:00 | 00:00:00 | 00:00:00 | |
| DD8BA-10 | 2026-09-04 00:24:31 | 52.40267 | 11.36947 | 115° | 38km/h | 31728m | 7.1m/s | 0°C | 0% | 0hPa | 2.6V | 00:00:00 | 00:00:00 | 00:00:00 | |
| DM0DOS-11 | 2026-09-04 00:24:30 | 52.40294 | 11.36876 | 99° | 40km/h | 31692m | 6.5m/s | -42°C | 2.1% | 9.7hPa | 2.6V | 03:22:45 | 02:29:40 | 00:00:00 | |
| DF8AY | 2026-09-04 00:24:29 | 52.40279 | 11.36788 | 59° | 40km/h | 31660m | 6.1m/s | -42.1°C | 0% | 9.8hPa | 2.5V | 03:23:40 | 02:29:35 | 00:00:00 | |
| DB0UT-7 | 2026-09-04 00:24:29 | 52.40277 | 11.36923 | 134° | 37km/h | 31715m | 5.8m/s | -41.8°C | 2.1% | 9.6hPa | 2.5V | 00:00:00 | 02:29:44 | 00:00:00 | |
| DL1XH1-15 | 2026-09-04 00:24:28 | 52.40293 | 11.36840 | 75° | 49km/h | 31680m | 5.7m/s | -42°C | 2.1% | 9.8hPa | 2.5V | 03:22:47 | 02:29:38 | 00:00:00 | |
| AA1-15 | 2026-09-04 00:24:28 | 52.40283 | 11.36914 | 132° | 31km/h | 31709m | 4.9m/s | -41.9°C | 0% | 9.7hPa | 2.5V | 03:22:49 | 02:29:43 | 00:00:00 | |
| DL1XH-west | 2026-09-04 00:24:26 | 52.40292 | 11.36891 | 113° | 35km/h | 31698m | 6.1m/s | -42°C | 0% | 9.7hPa | 2.6V | 03:22:49 | 02:29:41 | 00:00:00 | |
| DL1XH-15 | 2026-09-04 00:24:26 | 52.40284 | 11.36803 | 62° | 46km/h | 31667m | 7.2m/s | -42°C | 2.1% | 9.8hPa | 2.6V | 03:22:49 | 02:29:36 | 00:00:00 | |
| HSKMA3-T | 2026-09-04 00:24:21 | 52.40285 | 11.36803 | 63° | 46km/h | 31667m | 7.2m/s | -42°C | 0% | 9.8hPa | 2.6V | 03:22:49 | 02:29:36 | 00:00:00 | |
| DF8AY | 2026-09-04 00:24:19 | 52.40279 | 11.36689 | 104° | 26km/h | 31611m | 6.4m/s | -42.1°C | 0% | 9.8hPa | 2.6V | 03:23:40 | 02:29:27 | 00:00:00 | |
| DL1XH1-15 | 2026-09-04 00:24:18 | 52.40277 | 11.36699 | 111° | 29km/h | 31618m | 5.8m/s | -42.1°C | 2.1% | 9.8hPa | 2.6V | 03:22:57 | 02:29:28 | 00:00:00 | |
| AA1-15 | 2026-09-04 00:24:18 | 52.40269 | 11.36737 | 98° | 31km/h | 31635m | 6.7m/s | -42.1°C | 0% | 9.8hPa | 2.5V | 03:23:40 | 02:29:31 | 00:00:00 | |
| DM0DOS-11 | 2026-09-04 00:24:18 | 52.40271 | 11.36724 | 109° | 33km/h | 31629m | 5.4m/s | -42.1°C | 2.1% | 9.8hPa | 2.5V | 03:22:55 | 02:29:30 | 00:00:00 | |
| DO2SHX-10 | 2026-09-04 00:24:18 | 52.40271 | 11.36762 | 69° | 31km/h | 31649m | 5.9m/s | -42.1°C | 2.1% | 9.7hPa | 2.6V | 00:00:00 | 02:29:33 | 00:00:00 | |
| TFSTFS | 2026-09-04 00:24:17 | 52.40271 | 11.36762 | 70° | 31km/h | 31649m | 5.9m/s | -42.1°C | 0.2% | 9.8hPa | 2.6V | 00:00:00 | 00:00:00 | 00:00:00 | |
| DL1XH-15 | 2026-09-04 00:24:16 | 52.40279 | 11.36679 | 78° | 26km/h | 31605m | 5.3m/s | -42°C | 2.1% | 9.8hPa | 2.6V | 03:22:59 | 02:29:26 | 00:00:00 | |
| DL1XH-west | 2026-09-04 00:24:16 | 52.40271 | 11.36724 | 109° | 33km/h | 31629m | 5.4m/s | -42.1°C | 0% | 9.8hPa | 2.5V | 03:23:40 | 02:29:30 | 00:00:00 | |
| HSKMA3-T | 2026-09-04 00:24:11 | 52.40277 | 11.36668 | 62° | 31km/h | 31600m | 5.2m/s | -42°C | 0% | 9.9hPa | 2.5V | 03:23:40 | 02:29:25 | 00:00:00 | |
| DF7ER-10 | 2026-09-04 00:24:10 | 52.40279 | 11.36679 | 79° | 26km/h | 31605m | 5.3m/s | -42.0°C | 0.3% | 9.8hPa | 2.5V | 03:23:00 | 00:00:00 | 00:00:00 | |
| DO2SHX-10 | 2026-09-04 00:24:09 | 52.40272 | 11.36656 | 56° | 47km/h | 31594m | 6.0m/s | -42.0°C | 2.1% | 9.8hPa | 2.5V | 00:00:00 | 02:29:24 | 00:00:00 | |
| DL1XH1-15 | 2026-09-04 00:24:08 | 52.40229 | 11.36553 | 55° | 40km/h | 31558m | 6m/s | -41.9°C | 2% | 9.9hPa | 2.5V | 03:23:07 | 02:29:18 | 00:00:00 | |
| AA1-15 | 2026-09-04 00:24:07 | 52.40250 | 11.36606 | 56° | 58km/h | 31574m | 5.6m/s | -41.9°C | 0% | 9.9hPa | 2.6V | 03:23:40 | 02:29:21 | 00:00:00 | |
| DL1XH-15 | 2026-09-04 00:24:06 | 52.40220 | 11.36534 | 54° | 18km/h | 31544m | 6.8m/s | -41.9°C | 2% | 9.9hPa | 2.6V | 03:23:09 | 02:29:16 | 00:00:00 | |
| DL1XH-west | 2026-09-04 00:24:05 | 52.40235 | 11.36568 | 57° | 49km/h | 31564m | 4.5m/s | -41.9°C | 0% | 9.9hPa | 2.5V | 03:23:40 | 02:29:19 | 00:00:00 | |
| HSKMA3-T | 2026-09-04 00:24:00 | 52.40218 | 11.36529 | 72° | 13km/h | 31538m | 5.9m/s | -41.9°C | 0% | 10hPa | 2.6V | 03:23:40 | 02:29:15 | 00:00:00 | |
| DO2SHX-10 | 2026-09-04 00:24:00 | 52.40218 | 11.36529 | 73° | 15km/h | 31538m | 5.8m/s | -41.8°C | 2.0% | 9.9hPa | 2.5V | 03:23:00 | 02:29:15 | 00:00:00 | |
| DB0UT-7 | 2026-09-04 00:23:59 | 52.40218 | 11.36523 | 94° | 37km/h | 31533m | 4.6m/s | -41.8°C | 2.0% | 9.9hPa | 2.5V | 00:00:00 | 00:00:00 | 00:00:00 | |
| DL1XH1-15 | 2026-09-04 00:23:58 | 52.40211 | 11.36434 | 64° | 53km/h | 31498m | 6m/s | -42.1°C | 2.1% | 10hPa | 2.5V | 03:23:17 | 02:29:08 | 00:00:00 | |
| DM0DOS-11 | 2026-09-04 00:23:57 | 52.40218 | 11.36475 | 81° | 47km/h | 31509m | 5.5m/s | -42°C | 2.1% | 10hPa | 2.6V | 03:23:15 | 02:29:10 | 00:00:00 | |
| AA1-15 | 2026-09-04 00:23:56 | 52.40219 | 11.36492 | 88° | 38km/h | 31515m | 6.3m/s | -42°C | 0% | 10hPa | 2.5V | 03:23:40 | 02:29:11 | 00:00:00 | |
| DF8AY | 2026-09-04 00:23:56 | 52.40196 | 11.36400 | 45° | 49km/h | 31485m | 6.8m/s | -42.1°C | 0% | 10hPa | 2.6V | 03:23:40 | 02:29:06 | 00:00:00 | |
| DL1XH-west | 2026-09-04 00:23:55 | 52.40215 | 11.36455 | 73° | 53km/h | 31504m | 5.1m/s | -42°C | 0% | 10hPa | 2.6V | 03:23:40 | 02:29:09 | 00:00:00 | |
| SONCRA | 2026-09-04 00:23:55 | 52.40215 | 11.36455 | 73° | 51km/h | 31504m | 5.1m/s | -42.0°C | 0.2% | 10.0hPa | 2.6V | 00:00:00 | 00:00:00 | 00:00:00 | |
| EDDB2-12 | 2026-09-04 00:23:54 | 52.40211 | 11.36434 | 64° | 53km/h | 31499m | 6.0m/s | -42.1°C | 0.2% | 10.0hPa | 2.6V | 00:00:00 | 00:00:00 | 00:00:00 | |
| BUE01 | 2026-09-04 00:23:52 | 52.40204 | 11.36416 | 55° | 51km/h | 31492m | 7.2m/s | -42.1°C | 0.2% | 10.0hPa | 2.6V | 00:00:00 | 00:00:00 | 00:00:00 | |
| DD8BA-10 | 2026-09-04 00:23:51 | 52.40195 | 11.36399 | 46° | 38km/h | 31485m | 6.8m/s | -42.0°C | 2.1% | 10.0hPa | 2.6V | 00:00:00 | 00:00:00 | 00:00:00 | |
| DM0DOS-11 | 2026-09-04 00:23:50 | 52.40149 | 11.36339 | 58° | 31km/h | 31449m | 6.3m/s | -42.2°C | 2.1% | 10.1hPa | 2.6V | 03:23:25 | 02:29:00 | 00:00:00 | |
| HSKMA3-T | 2026-09-04 00:23:49 | 52.40177 | 11.36377 | 30° | 44km/h | 31473m | 5.3m/s | -42.1°C | 0% | 10.1hPa | 2.5V | 03:23:40 | 02:29:04 | 00:00:00 | |
| SMARD9-15 | 2026-09-04 00:23:49 | 52.40177 | 11.36377 | 29° | 44km/h | 31473m | 5.3m/s | -42.1°C | 0.2% | 10.1hPa | 2.5V | 00:00:00 | 00:00:00 | 00:00:00 | |
| DL1XH1-15 | 2026-09-04 00:23:48 | 52.40141 | 11.36316 | 65° | 31km/h | 31436m | 6.8m/s | -42.2°C | 2.1% | 10.1hPa | 2.5V | 03:23:27 | 02:28:58 | 00:00:00 | |
| DO2SHX-10 | 2026-09-04 00:23:48 | 52.40167 | 11.36368 | 31° | 37km/h | 31468m | 5.5m/s | -42.1°C | 2.1% | 10.0hPa | 2.5V | 03:23:00 | 02:29:03 | 00:00:00 | |
| DL1XH-15 | 2026-09-04 00:23:46 | 52.40134 | 11.36292 | 61° | 33km/h | 31423m | 5.3m/s | -42.2°C | 2.1% | 10.1hPa | 2.5V | 03:23:29 | 02:28:56 | 00:00:00 | |
| AA1-15 | 2026-09-04 00:23:46 | 52.40153 | 11.36350 | 48° | 33km/h | 31455m | 6.1m/s | -42.2°C | 0% | 10.1hPa | 2.6V | 03:23:40 | 02:29:01 | 00:00:00 | |
| DF8AY | 2026-09-04 00:23:44 | 52.40145 | 11.36328 | 64° | 33km/h | 31443m | 6.3m/s | -42.2°C | 0% | 10.1hPa | 2.6V | 03:23:40 | 02:28:59 | 00:00:00 | |
| DL1XH-west | 2026-09-04 00:23:43 | 52.40141 | 11.36316 | 65° | 31km/h | 31436m | 6.8m/s | -42.2°C | 0% | 10.1hPa | 2.5V | 03:23:40 | 02:28:58 | 00:00:00 | |
| HSKMA3-T | 2026-09-04 00:23:38 | 52.40121 | 11.36250 | 65° | 42km/h | 31405m | 7.3m/s | -42.2°C | 0% | 10.1hPa | 2.6V | 03:23:40 | 02:28:53 | 00:00:00 | |
| SONDE2-11 | 2026-09-04 00:23:37 | 52.40111 | 11.36219 | 57° | 38km/h | 31393m | 5.0m/s | -42.2°C | 0.2% | 10.2hPa | 2.5V | 00:00:00 | 00:00:00 | 00:00:00 | |
| DL1XH-15 | 2026-09-04 00:23:36 | 52.40083 | 11.36185 | 18° | 18km/h | 31363m | 4.2m/s | -42.1°C | 2.1% | 10.2hPa | 2.5V | 03:23:39 | 02:28:46 | 00:00:00 | |
| AA1-15 | 2026-09-04 00:23:35 | 52.40106 | 11.36207 | 50° | 35km/h | 31388m | 5.6m/s | -42.2°C | 0% | 10.2hPa | 2.5V | 03:23:40 | 02:28:50 | 00:00:00 | |
| DL1XH-west | 2026-09-04 00:23:33 | 52.40088 | 11.36187 | 14° | 24km/h | 31368m | 5.7m/s | -42.1°C | 0% | 10.2hPa | 2.6V | 03:23:40 | 02:28:47 | 00:00:00 | |
| DL1ZP-14 | 2026-09-04 00:23:32 | 52.40088 | 11.36187 | 13° | 22km/h | 31368m | 5.7m/s | -42.1°C | 0.2% | 10.2hPa | 2.6V | 00:00:00 | 00:00:00 | 00:00:00 | |
| SP3WXH-11 | 2026-09-04 00:23:31 | 52.40078 | 11.36181 | 37° | 15km/h | 31358m | 5.6m/s | -42.1°C | 0.3% | 10.2hPa | 2.5V | 00:00:00 | 00:00:00 | 00:00:00 | |
| DL1NUX | 2026-09-04 00:23:30 | 52.40070 | 11.36124 | 75° | 38km/h | 31327m | 5.3m/s | -42.2°C | 2.1% | 10.2hPa | 2.5V | 03:23:45 | 02:28:40 | 00:00:00 | |
| HSKMA3-T | 2026-09-04 00:23:28 | 52.40074 | 11.36167 | 82° | 27km/h | 31345m | 6.9m/s | -42.1°C | 0% | 10.2hPa | 2.6V | 03:24:31 | 02:28:43 | 00:00:00 | |
| DO2SHX-10 | 2026-09-04 00:23:27 | 52.40073 | 11.36154 | 85° | 38km/h | 31339m | 6.2m/s | -42.1°C | 2.1% | 10.2hPa | 2.5V | 00:00:00 | 02:28:42 | 00:00:00 | |
| DL1XH-15 | 2026-09-04 00:23:26 | 52.40048 | 11.36077 | 29° | 38km/h | 31302m | 6.2m/s | -42.2°C | 2.1% | 10.3hPa | 2.5V | 03:23:49 | 02:28:36 | 00:00:00 | |
| AA1-15 | 2026-09-04 00:23:24 | 52.40067 | 11.36109 | 66° | 38km/h | 31321m | 6.5m/s | -42.2°C | 0% | 10.3hPa | 2.6V | 03:24:31 | 02:28:39 | 00:00:00 | |
| DL1XH-west | 2026-09-04 00:23:22 | 52.40048 | 11.36077 | 30° | 38km/h | 31303m | 6.2m/s | -42.2°C | 0% | 10.3hPa | 2.5V | 03:24:31 | 02:28:36 | 00:00:00 | |
| DF8AY | 2026-09-04 00:23:19 | 52.40031 | 11.36062 | 25° | 37km/h | 31289m | 6.3m/s | -42.3°C | 0% | 10.3hPa | 2.6V | 03:24:31 | 02:28:34 | 00:00:00 | |
| DO2SHX-10 | 2026-09-04 00:23:18 | 52.40023 | 11.36057 | 24° | 24km/h | 31284m | 4.9m/s | -42.2°C | 2.1% | 10.3hPa | 2.6V | 00:00:00 | 02:28:33 | 00:00:00 | |
| DM0DOS-11 | 2026-09-04 00:23:17 | 52.40008 | 11.36047 | 15° | 11km/h | 31266m | 7.4m/s | -42.3°C | 2.1% | 10.4hPa | 2.6V | 03:23:55 | 02:28:30 | 00:00:00 | |
| HSKMA3-T | 2026-09-04 00:23:17 | 52.40016 | 11.36052 | 23° | 24km/h | 31278m | 4.9m/s | -42.3°C | 0% | 10.3hPa | 2.5V | 03:24:31 | 02:28:32 | 00:00:00 | |
| AA1-15 | 2026-09-04 00:23:13 | 52.40004 | 11.36044 | 62° | 5km/h | 31253m | 5.4m/s | -42.4°C | 0% | 10.4hPa | 2.6V | 03:24:31 | 02:28:28 | 00:00:00 | |
| DL1XH-west | 2026-09-04 00:23:12 | 52.40004 | 11.36034 | 81° | 20km/h | 31242m | 6.1m/s | -42.4°C | 0% | 10.4hPa | 2.5V | 03:24:31 | 02:28:26 | 00:00:00 | |
| DD8BA-10 | 2026-09-04 00:23:11 | 52.40003 | 11.36034 | 82° | 31km/h | 31243m | 6.1m/s | -42.3°C | 2.1% | 10.3hPa | 2.5V | 00:00:00 | 00:00:00 | 00:00:00 | |
| DL1NUX | 2026-09-04 00:23:10 | 52.39976 | 11.35967 | 13° | 29km/h | 31206m | 6.5m/s | -42.5°C | 2.1% | 10.5hPa | 2.5V | 03:24:05 | 02:28:20 | 00:00:00 | |
| HSKMA3-T | 2026-09-04 00:23:07 | 52.39990 | 11.35983 | 48° | 38km/h | 31218m | 4.6m/s | -42.4°C | 0% | 10.4hPa | 2.6V | 03:24:31 | 02:28:22 | 00:00:00 | |
| DL1XH1-15 | 2026-09-04 00:23:06 | 52.39963 | 11.35971 | 325° | 24km/h | 31193m | 5.5m/s | -42.5°C | 2.1% | 10.5hPa | 2.6V | 03:24:07 | 02:28:18 | 00:00:00 | |
| DO9LL-15 | 2026-09-04 00:23:06 | 52.39983 | 11.35973 | 34° | 16km/h | 31213m | 6.1m/s | -42.4°C | 2.1% | 10.4hPa | 2.5V | 00:00:00 | 02:28:21 | 00:00:00 | |
| DL1XH-15 | 2026-09-04 00:23:05 | 52.39956 | 11.35982 | 305° | 13km/h | 31182m | 5.9m/s | -42.5°C | 2.1% | 10.5hPa | 2.6V | 03:24:09 | 02:28:16 | 00:00:00 | |
| AA1-15 | 2026-09-04 00:23:02 | 52.39959 | 11.35977 | 315° | 20km/h | 31188m | 5.7m/s | -42.5°C | 0% | 10.5hPa | 2.6V | 03:24:31 | 02:28:17 | 00:00:00 | |
| DL1XH-west | 2026-09-04 00:23:01 | 52.39955 | 11.35985 | 313° | 5km/h | 31176m | 6.1m/s | -42.6°C | 0% | 10.5hPa | 2.5V | 03:24:31 | 02:28:15 | 00:00:00 | |
| DF8AY | 2026-09-04 00:22:58 | 52.39950 | 11.35956 | 59° | 26km/h | 31143m | 6.1m/s | -42.6°C | 0% | 10.6hPa | 2.5V | 03:24:31 | 02:28:10 | 00:00:00 | |
| HSKMA3-T | 2026-09-04 00:22:57 | 52.39954 | 11.35973 | 74° | 20km/h | 31157m | 6.6m/s | -42.6°C | 0% | 10.5hPa | 2.6V | 03:24:31 | 02:28:12 | 00:00:00 | |
| HTAHTA | 2026-09-04 00:22:55 | 52.39942 | 11.35941 | 41° | 22km/h | 31131m | 5.3m/s | -42.6°C | 0.3% | 10.6hPa | 2.5V | 00:00:00 | 00:00:00 | 00:00:00 | |
| DL1XH-15 | 2026-09-04 00:22:54 | 52.39933 | 11.35930 | 38° | 16km/h | 31120m | 6.2m/s | -42.6°C | 2.1% | 10.6hPa | 2.5V | 03:24:19 | 02:28:06 | 00:00:00 | |
| DF8AY | 2026-09-04 00:22:53 | 52.39925 | 11.35922 | 6° | 9km/h | 31102m | 5.1m/s | -42.7°C | 0% | 10.6hPa | 2.6V | 03:24:31 | 02:28:03 | 00:00:00 | |
| AA1-15 | 2026-09-04 00:22:52 | 52.39933 | 11.35930 | 38° | 16km/h | 31120m | 6.2m/s | -42.6°C | 0% | 10.6hPa | 2.5V | 03:24:31 | 02:28:06 | 00:00:00 | |
| DL1XH-west | 2026-09-04 00:22:50 | 52.39930 | 11.35926 | 40° | 13km/h | 31114m | 5.9m/s | -42.7°C | 0% | 10.6hPa | 2.5V | 03:24:31 | 02:28:05 | 00:00:00 | |
| DO3MHA-11 | 2026-09-04 00:22:50 | 52.39930 | 11.35926 | 41° | 11km/h | 31114m | 5.9m/s | -42.6°C | 2.1% | 10.6hPa | 2.5V | 03:24:00 | 02:28:05 | 00:00:00 | |
| AM1SDL-15 | 2026-09-04 00:22:49 | 52.39927 | 11.35923 | 35° | 15km/h | 31108m | 5.3m/s | -42.6°C | 2.1% | 10.6hPa | 2.5V | 00:00:00 | 02:28:04 | 00:00:00 | |
| DL1XH1-15 | 2026-09-04 00:22:48 | 52.39912 | 11.35928 | 16° | 7km/h | 31071m | 5.1m/s | -43°C | 2.1% | 10.7hPa | 2.5V | 03:24:27 | 02:27:58 | 00:00:00 | |
| HSKMA3-T | 2026-09-04 00:22:46 | 52.39921 | 11.35924 | 335° | 11km/h | 31089m | 7.5m/s | -42.8°C | 0% | 10.6hPa | 2.6V | 03:24:31 | 02:28:01 | 00:00:00 | |
| DF8AY-15 | 2026-09-04 00:22:46 | 52.39921 | 11.35923 | 335° | 15km/h | 31089m | 7.4m/s | -42.8°C | 2.1% | 10.6hPa | 2.5V | 00:00:00 | 02:28:01 | 00:00:00 | |
| DO2SHX-10 | 2026-09-04 00:22:45 | 52.39918 | 11.35926 | 338° | 11km/h | 31083m | 5.7m/s | -42.8°C | 2.2% | 10.6hPa | 2.5V | 00:00:00 | 02:28:00 | 00:00:00 | |
| DL1XH-15 | 2026-09-04 00:22:44 | 52.39911 | 11.35921 | 98° | 15km/h | 31058m | 7.3m/s | -43°C | 2.2% | 10.7hPa | 2.6V | 03:24:29 | 02:27:56 | 00:00:00 | |
| DF8AY | 2026-09-04 00:22:42 | 52.39912 | 11.35888 | 66° | 18km/h | 31035m | 6.2m/s | -43.1°C | 0% | 10.7hPa | 2.5V | 03:25:22 | 02:27:52 | 00:00:00 | |
| AA1-15 | 2026-09-04 00:22:41 | 52.39911 | 11.35921 | 98° | 15km/h | 31058m | 7.3m/s | -43°C | 0% | 10.7hPa | 2.6V | 03:24:31 | 02:27:56 | 00:00:00 | |
| DB0DAN | 2026-09-04 00:22:40 | 52.39912 | 11.35914 | 105° | 20km/h | 31052m | 5.8m/s | -43°C | 0.3% | 10.7hPa | 2.6V | 00:00:00 | 00:00:00 | 00:00:00 | |
| DL1XH-west | 2026-09-04 00:22:39 | 52.39913 | 11.35905 | 99° | 22km/h | 31046m | 4.5m/s | -43.1°C | 0% | 10.7hPa | 2.5V | 03:24:31 | 02:27:54 | 00:00:00 | |
| HSKMA3-T | 2026-09-04 00:22:36 | 52.39910 | 11.35883 | 37° | 18km/h | 31029m | 6.7m/s | -43.1°C | 0% | 10.7hPa | 2.6V | 03:25:22 | 02:27:51 | 00:00:00 | |
| AA1-15 | 2026-09-04 00:22:31 | 52.39896 | 11.35891 | 214° | 13km/h | 30991m | 6.4m/s | -43.2°C | 0% | 10.8hPa | 2.6V | 03:25:22 | 02:27:45 | 00:00:00 | |
| DL1NUX | 2026-09-04 00:22:30 | 52.39908 | 11.35893 | 109° | 7km/h | 30960m | 5.4m/s | -43.4°C | 2.3% | 10.8hPa | 2.6V | 03:24:45 | 02:27:40 | 00:00:00 | |
| DL1XH-west | 2026-09-04 00:22:29 | 52.39899 | 11.35894 | 203° | 15km/h | 30985m | 6.1m/s | -43.2°C | 0% | 10.8hPa | 2.6V | 03:25:22 | 02:27:44 | 00:00:00 | |
| HSKMA3-T | 2026-09-04 00:22:26 | 52.39907 | 11.35895 | 155° | 7km/h | 30966m | 5.8m/s | -43.4°C | 0% | 10.8hPa | 2.6V | 03:25:22 | 02:27:41 | 00:00:00 | |
| DF8AY | 2026-09-04 00:22:24 | 52.39909 | 11.35891 | 103° | 9km/h | 30954m | 5.8m/s | -43.3°C | 0% | 10.9hPa | 2.5V | 03:25:22 | 02:27:39 | 00:00:00 | |
| AA1-15 | 2026-09-04 00:22:19 | 52.39897 | 11.35880 | 349° | 24km/h | 30925m | 7.9m/s | -43.3°C | 0% | 10.9hPa | 2.6V | 03:25:22 | 02:27:34 | 00:00:00 | |
| DL1XH-west | 2026-09-04 00:22:18 | 52.39885 | 11.35887 | 335° | 26km/h | 30913m | 4.8m/s | -43.3°C | 0% | 10.9hPa | 2.5V | 03:25:22 | 02:27:32 | 00:00:00 | |
| DO2SHX-10 | 2026-09-04 00:22:18 | 52.39890 | 11.35883 | 341° | 24km/h | 30919m | 6.8m/s | -43.3°C | 2.2% | 10.9hPa | 2.5V | 00:00:00 | 02:27:33 | 00:00:00 | |
| DM0DOS-11 | 2026-09-04 00:22:17 | 52.39875 | 11.35894 | 340° | 13km/h | 30902m | 6.6m/s | -43.3°C | 2.2% | 10.9hPa | 2.6V | 03:24:55 | 02:27:30 | 00:00:00 | |
| HSKMA3-T | 2026-09-04 00:22:15 | 52.39875 | 11.35894 | 341° | 13km/h | 30902m | 6.6m/s | -43.3°C | 0% | 10.9hPa | 2.6V | 03:25:22 | 02:27:30 | 00:00:00 | |
| DF8AY | 2026-09-04 00:22:13 | 52.39873 | 11.35892 | 101° | 9km/h | 30889m | 6m/s | -43.3°C | 0% | 11hPa | 2.6V | 03:25:22 | 02:27:28 | 00:00:00 | |
| DB0ND-19 | 2026-09-04 00:22:12 | 52.39874 | 11.35880 | 95° | 15km/h | 30877m | 5.9m/s | -43.3°C | -1.0% | -1.0hPa | 2.5V | 00:00:00 | 00:00:00 | 00:00:00 | |
| SMARD9-10 | 2026-09-04 00:22:11 | 52.39874 | 11.35880 | 96° | 16km/h | 30877m | 5.9m/s | -43.3°C | 0.3% | 11.0hPa | 2.5V | 00:00:00 | 00:00:00 | 00:00:00 | |
| DL1NUX | 2026-09-04 00:22:10 | 52.39859 | 11.35865 | 339° | 11km/h | 30840m | 6.6m/s | -43.3°C | 2.3% | 11hPa | 2.5V | 03:25:05 | 02:27:20 | 00:00:00 | |
| AA1-15 | 2026-09-04 00:22:09 | 52.39870 | 11.35865 | 25° | 15km/h | 30858m | 6.5m/s | -43.3°C | 0% | 11hPa | 2.6V | 03:25:22 | 02:27:23 | 00:00:00 | |
| DL1XH1-15 | 2026-09-04 00:22:08 | 52.39857 | 11.35868 | 237° | 4km/h | 30826m | 6.7m/s | -43.2°C | 2.2% | 11.1hPa | 2.6V | 03:25:07 | 02:27:18 | 00:00:00 | |
| DL1XH-west | 2026-09-04 00:22:07 | 52.39866 | 11.35864 | 5° | 15km/h | 30852m | 6.1m/s | -43.3°C | 0% | 11hPa | 2.6V | 03:25:22 | 02:27:22 | 00:00:00 | |
| HSKMA3-T | 2026-09-04 00:22:05 | 52.39859 | 11.35865 | 340° | 11km/h | 30840m | 6.6m/s | -43.3°C | 0% | 11.1hPa | 2.5V | 03:25:22 | 02:27:20 | 00:00:00 | |
| DF8AY | 2026-09-04 00:22:02 | 52.39858 | 11.35869 | 204° | 5km/h | 30820m | 6.2m/s | -43.3°C | 0% | 11.1hPa | 2.6V | 03:25:22 | 02:27:17 | 00:00:00 | |
| EDDB2-11 | 2026-09-04 00:22:02 | 52.39860 | 11.35870 | 196° | 5km/h | 30814m | 5.9m/s | -43.2°C | 0.3% | 11.1hPa | 2.5V | 00:00:00 | 00:00:00 | 00:00:00 | |
| DL4XJ-10 | 2026-09-04 00:22:01 | 52.39860 | 11.35870 | 197° | 9km/h | 30814m | 5.9m/s | -42.9°C | 0% | 0hPa | 2.5V | 00:00:00 | 00:00:00 | 00:00:00 | |
| DO2SHX-10 | 2026-09-04 00:22:00 | 52.39861 | 11.35871 | 207° | 4km/h | 30807m | 6.7m/s | -43.1°C | 2.2% | 11.0hPa | 2.5V | 03:25:00 | 02:27:15 | 00:00:00 | |
| DB0UT-7 | 2026-09-04 00:21:59 | 52.39862 | 11.35872 | 230° | 13km/h | 30801m | 6.6m/s | -43.1°C | 2.2% | 11.1hPa | 2.6V | 00:00:00 | 00:00:00 | 00:00:00 | |
| DM0DOS-11 | 2026-09-04 00:21:58 | 52.39864 | 11.35872 | 151° | 7km/h | 30776m | 6.9m/s | -43.2°C | 2.2% | 11.1hPa | 2.5V | 03:25:15 | 02:27:10 | 00:00:00 | |
| AA1-15 | 2026-09-04 00:21:58 | 52.39863 | 11.35873 | 187° | 0km/h | 30788m | 5.4m/s | -43.2°C | 0% | 11.1hPa | 2.5V | 03:25:22 | 02:27:12 | 00:00:00 | |
| DL1XH-west | 2026-09-04 00:21:56 | 52.39863 | 11.35873 | 157° | 4km/h | 30782m | 6.2m/s | -43.2°C | 0% | 11.1hPa | 2.5V | 03:25:22 | 02:27:11 | 00:00:00 | |
| HSKMA3-T | 2026-09-04 00:21:55 | 52.39864 | 11.35872 | 152° | 7km/h | 30776m | 6.9m/s | -43.2°C | 0% | 11.1hPa | 2.5V | 03:25:22 | 02:27:10 | 00:00:00 | |
| DL1XH1-15 | 2026-09-04 00:21:54 | 52.39869 | 11.35870 | 176° | 9km/h | 30763m | 5.2m/s | -43.3°C | 2.2% | 11.2hPa | 2.6V | 03:25:17 | 02:27:08 | 00:00:00 | |
| DF8AY | 2026-09-04 00:21:51 | 52.39872 | 11.35872 | 258° | 5km/h | 30752m | 6.3m/s | -43.3°C | 0% | 11.2hPa | 2.5V | 03:25:22 | 02:27:06 | 00:00:00 | |
| DO2SHX-10 | 2026-09-04 00:21:51 | 52.39872 | 11.35872 | 259° | 9km/h | 30752m | 6.2m/s | -43.2°C | 2.2% | 11.1hPa | 2.5V | 00:00:00 | 02:27:06 | 00:00:00 | |
| DL1NUX | 2026-09-04 00:21:50 | 52.39870 | 11.35898 | 195° | 13km/h | 30714m | 6.9m/s | -43.2°C | 2.2% | 11.3hPa | 2.5V | 03:25:25 | 02:27:00 | 00:00:00 | |
| EDDB2-12 | 2026-09-04 00:21:49 | 52.39871 | 11.35880 | 297° | 13km/h | 30738m | 5.9m/s | -43.3°C | 0.3% | 11.2hPa | 2.5V | 00:00:00 | 00:00:00 | 00:00:00 | |
| DL1XH1-15 | 2026-09-04 00:21:48 | 52.39878 | 11.35895 | 151° | 20km/h | 30703m | 5.1m/s | -43.2°C | 2.2% | 11.3hPa | 2.5V | 03:25:27 | 02:26:58 | 00:00:00 | |
| AA1-15 | 2026-09-04 00:21:46 | 52.39868 | 11.35895 | 243° | 11km/h | 30721m | 6.2m/s | -43.2°C | 0% | 11.3hPa | 2.6V | 03:26:13 | 02:27:01 | 00:00:00 | |
| HSKMA3-T | 2026-09-04 00:21:45 | 52.39870 | 11.35898 | 195° | 13km/h | 30714m | 6.9m/s | -43.2°C | 0% | 11.3hPa | 2.5V | 03:26:13 | 02:27:00 | 00:00:00 | |
| SMARD9-15 | 2026-09-04 00:21:45 | 52.39874 | 11.35898 | 164° | 16km/h | 30708m | 5.4m/s | -43.2°C | 0.3% | 11.3hPa | 2.6V | 00:00:00 | 00:00:00 | 00:00:00 | |
| DF8AY-15 | 2026-09-04 00:21:44 | 52.39874 | 11.35898 | 165° | 16km/h | 30708m | 5.3m/s | -43.2°C | 2.2% | 11.2hPa | 2.6V | 00:00:00 | 02:26:59 | 00:00:00 | |
| DF7ER-10 | 2026-09-04 00:21:43 | 52.39874 | 11.35898 | 165° | 16km/h | 30708m | 5.4m/s | -43.2°C | 0.3% | 11.3hPa | 2.6V | 03:26:00 | 00:00:00 | 00:00:00 | |
| DO2SHX-10 | 2026-09-04 00:21:42 | 52.39882 | 11.35890 | 144° | 16km/h | 30698m | 6.0m/s | -43.1°C | 2.2% | 11.2hPa | 2.6V | 00:00:00 | 02:26:57 | 00:00:00 | |
| DB0DAN | 2026-09-04 00:21:40 | 52.39889 | 11.35882 | 134° | 13km/h | 30685m | 6m/s | -43.1°C | 0.3% | 11.32hPa | 2.6V | 00:00:00 | 00:00:00 | 00:00:00 | |
| DF8AY | 2026-09-04 00:21:40 | 52.39889 | 11.35882 | 134° | 13km/h | 30685m | 6m/s | -43.1°C | 0% | 11.3hPa | 2.6V | 03:28:46 | 02:26:55 | 00:00:00 | |
| DO3MHA-11 | 2026-09-04 00:21:40 | 52.39889 | 11.35882 | 135° | 18km/h | 30685m | 5.9m/s | -43.1°C | 2.3% | 11.3hPa | 2.6V | 00:00:00 | 02:26:55 | 00:00:00 | |
| DO2SHX-10 | 2026-09-04 00:21:39 | 52.39891 | 11.35879 | 154° | 9km/h | 30680m | 5.2m/s | -43.1°C | 2.2% | 11.3hPa | 2.6V | 00:00:00 | 02:26:54 | 00:00:00 | |
| DD8BA-10 | 2026-09-04 00:21:38 | 52.39892 | 11.35879 | 205° | 18km/h | 30675m | 4.9m/s | -43.1°C | 2.2% | 11.3hPa | 2.6V | 03:25:00 | 00:00:00 | 00:00:00 | |
| DM0DOS-11 | 2026-09-04 00:21:37 | 52.39902 | 11.35892 | 218° | 24km/h | 30655m | 6.1m/s | -43°C | 2.2% | 11.3hPa | 2.6V | 03:25:35 | 02:26:50 | 00:00:00 | |
| S3001 | 2026-09-04 00:21:37 | 52.39898 | 11.35886 | 221° | 18km/h | 30662m | 7.5m/s | -43.1°C | 0.3% | 11.3hPa | 2.6V | 00:00:00 | 00:00:00 | 00:00:00 | |
| DL1XH-15 | 2026-09-04 00:21:36 | 52.39919 | 11.35913 | 206° | 11km/h | 30631m | 6m/s | -43°C | 2.2% | 11.4hPa | 2.6V | 03:25:39 | 02:26:46 | 00:00:00 | |
| AA1-15 | 2026-09-04 00:21:35 | 52.39902 | 11.35892 | 218° | 24km/h | 30655m | 6.1m/s | -43°C | 0% | 11.3hPa | 2.6V | 03:26:13 | 02:26:50 | 00:00:00 | |
| HSKMA3-T | 2026-09-04 00:21:34 | 52.39907 | 11.35899 | 218° | 26km/h | 30649m | 4.9m/s | -43°C | 0% | 11.3hPa | 2.5V | 03:26:13 | 02:26:49 | 00:00:00 | |
| DO9LL-15 | 2026-09-04 00:21:34 | 52.39907 | 11.35899 | 219° | 18km/h | 30649m | 4.9m/s | -43.0°C | 2.2% | 11.3hPa | 2.5V | 00:00:00 | 02:26:49 | 00:00:00 | |
| DO2SHX-10 | 2026-09-04 00:21:33 | 52.39912 | 11.35905 | 216° | 18km/h | 30644m | 5.4m/s | -43.0°C | 2.2% | 11.3hPa | 2.5V | 00:00:00 | 02:26:48 | 00:00:00 | |
| SONDE2-11 | 2026-09-04 00:21:32 | 52.39916 | 11.35910 | 214° | 18km/h | 30637m | 6.3m/s | -43.0°C | 0.2% | 11.4hPa | 2.6V | 00:00:00 | 00:00:00 | 00:00:00 | |
| GOEST3-10 | 2026-09-04 00:21:31 | 52.39919 | 11.35913 | 207° | 11km/h | 30631m | 6.0m/s | -42.9°C | 2.2% | 11.3hPa | 2.6V | 00:00:00 | 02:26:46 | 00:00:00 | |
| DM0DOS-11 | 2026-09-04 00:21:30 | 52.39938 | 11.35906 | 173° | 26km/h | 30596m | 6m/s | -42.9°C | 2.2% | 11.5hPa | 2.6V | 03:25:45 | 02:26:40 | 00:00:00 | |
| DF8AY | 2026-09-04 00:21:28 | 52.39925 | 11.35911 | 148° | 11km/h | 30614m | 5.1m/s | -42.9°C | 0% | 11.4hPa | 2.5V | 03:28:46 | 02:26:43 | 00:00:00 | |
| DD8BA-10 | 2026-09-04 00:21:28 | 52.39925 | 11.35911 | 148° | 16km/h | 30615m | 5.1m/s | -42.9°C | 2.2% | 11.4hPa | 2.5V | 00:00:00 | 00:00:00 | 00:00:00 | |
| DL1XH-15 | 2026-09-04 00:21:26 | 52.39960 | 11.35908 | 190° | 11km/h | 30574m | 7.4m/s | -42.9°C | 2.2% | 11.5hPa | 2.6V | 03:25:49 | 02:26:36 | 00:00:00 | |
| AA1-15 | 2026-09-04 00:21:25 | 52.39938 | 11.35906 | 174° | 26km/h | 30596m | 6m/s | -42.9°C | 0% | 11.5hPa | 2.6V | 03:26:13 | 02:26:40 | 00:00:00 | |
| DL1XH1-15 | 2026-09-04 00:21:25 | 52.39951 | 11.35906 | 185° | 24km/h | 30587m | 4.3m/s | -42.9°C | 2.2% | 11.5hPa | 2.5V | 03:25:47 | 02:26:38 | 00:00:00 | |
| DB0DAN | 2026-09-04 00:21:25 | 52.39938 | 11.35906 | 174° | 24km/h | 30596m | 6m/s | -42.9°C | 0.3% | 11.47hPa | 2.6V | 00:00:00 | 00:00:00 | 00:00:00 | |
| DL1XH-west | 2026-09-04 00:21:24 | 52.39945 | 11.35905 | 181° | 27km/h | 30591m | 4.5m/s | -42.9°C | 0% | 11.5hPa | 2.5V | 03:26:13 | 02:26:39 | 00:00:00 | |
| HSKMA3-T | 2026-09-04 00:21:23 | 52.39951 | 11.35906 | 186° | 24km/h | 30587m | 4.3m/s | -42.9°C | 0% | 11.5hPa | 2.5V | 03:26:13 | 02:26:38 | 00:00:00 | |
| DF8AY | 2026-09-04 00:21:17 | 52.39962 | 11.35905 | 123° | 5km/h | 30551m | 5.3m/s | -42.9°C | 0% | 11.5hPa | 2.5V | 03:28:46 | 02:26:32 | 00:00:00 | |
| DM0DOS-11 | 2026-09-04 00:21:17 | 52.39967 | 11.35902 | 170° | 18km/h | 30539m | 6.6m/s | -42.8°C | 2.2% | 11.5hPa | 2.6V | 03:25:55 | 02:26:30 | 00:00:00 | |
| BUE01 | 2026-09-04 00:21:17 | 52.39962 | 11.35905 | 122° | 4km/h | 30551m | 5.3m/s | -42.9°C | 0.2% | 11.5hPa | 2.5V | 00:00:00 | 00:00:00 | 00:00:00 | |
| DL1XH1-15 | 2026-09-04 00:21:16 | 52.39979 | 11.35901 | 185° | 29km/h | 30526m | 5.6m/s | -42.8°C | 2.2% | 11.6hPa | 2.5V | 03:25:57 | 02:26:28 | 00:00:00 | |
| DL1XH-west | 2026-09-04 00:21:14 | 52.39972 | 11.35901 | 178° | 26km/h | 30532m | 6.4m/s | -42.8°C | 0% | 11.6hPa | 2.6V | 03:26:13 | 02:26:29 | 00:00:00 | |
| SMARD9-15 | 2026-09-04 00:21:14 | 52.39979 | 11.35901 | 185° | 29km/h | 30527m | 5.6m/s | -42.8°C | 0.3% | 11.6hPa | 2.5V | 00:00:00 | 00:00:00 | 00:00:00 | |
| DF7ER-10 | 2026-09-04 00:21:13 | 52.39979 | 11.35901 | 186° | 29km/h | 30527m | 5.6m/s | -42.8°C | 0.3% | 11.6hPa | 2.5V | 03:26:00 | 00:00:00 | 00:00:00 | |
| DO2SHX-10 | 2026-09-04 00:21:12 | 52.39986 | 11.35903 | 192° | 27km/h | 30521m | 5.9m/s | -42.7°C | 2.2% | 11.6hPa | 2.5V | 03:25:00 | 02:26:27 | 00:00:00 | |
| HSKMA3-T | 2026-09-04 00:21:12 | 52.39987 | 11.35903 | 192° | 29km/h | 30520m | 6m/s | -42.8°C | 0% | 11.6hPa | 2.5V | 03:26:13 | 02:26:27 | 00:00:00 | |
| GOEST3-10 | 2026-09-04 00:21:11 | 52.39993 | 11.35906 | 198° | 22km/h | 30514m | 6.8m/s | -42.7°C | 2.1% | 11.6hPa | 2.5V | 00:00:00 | 02:26:26 | 00:00:00 | |
| DL1NUX | 2026-09-04 00:21:10 | 52.40020 | 11.35899 | 113° | 24km/h | 30476m | 5.6m/s | -42.8°C | 2.1% | 11.7hPa | 2.5V | 03:26:05 | 02:26:20 | 00:00:00 | |
| DF8AY | 2026-09-04 00:21:07 | 52.40017 | 11.35906 | 127° | 20km/h | 30482m | 6.8m/s | -42.8°C | 0% | 11.7hPa | 2.6V | 03:28:46 | 02:26:21 | 00:00:00 | |
| DF7PN | 2026-09-04 00:21:07 | 52.40017 | 11.35906 | 126° | 18km/h | 30482m | 6.8m/s | 0°C | -1.0% | -1.0hPa | 2.6V | 00:00:00 | 00:00:00 | 00:00:00 | |
| DL1XH-15 | 2026-09-04 00:21:06 | 52.40027 | 11.35864 | 123° | 18km/h | 30453m | 4.6m/s | -42.9°C | 2.1% | 11.7hPa | 2.6V | 03:26:09 | 02:26:16 | 00:00:00 | |
| S3001 | 2026-09-04 00:21:06 | 52.40020 | 11.35899 | 113° | 24km/h | 30476m | 5.6m/s | -42.8°C | 0.2% | 11.7hPa | 2.5V | 00:00:00 | 00:00:00 | 00:00:00 | |
| DL1XH1-15 | 2026-09-04 00:21:04 | 52.40023 | 11.35880 | 106° | 22km/h | 30464m | 6.7m/s | -42.8°C | 2.1% | 11.7hPa | 2.5V | 03:26:07 | 02:26:18 | 00:00:00 | |
| DL1XH-west | 2026-09-04 00:21:03 | 52.40023 | 11.35880 | 106° | 22km/h | 30464m | 6.7m/s | -42.8°C | 0% | 11.7hPa | 2.5V | 03:26:13 | 02:26:18 | 00:00:00 | |
| HSKMA3-T | 2026-09-04 00:21:02 | 52.40025 | 11.35871 | 106° | 20km/h | 30457m | 5.5m/s | -42.9°C | 0% | 11.7hPa | 2.6V | 03:26:13 | 02:26:17 | 00:00:00 | |
| SONDE2-11 | 2026-09-04 00:21:01 | 52.40027 | 11.35864 | 123° | 16km/h | 30453m | 4.6m/s | -42.9°C | 0.2% | 11.7hPa | 2.6V | 00:00:00 | 00:00:00 | 00:00:00 | |
| EDDB2-11 | 2026-09-04 00:21:00 | 52.40035 | 11.35854 | 156° | 24km/h | 30441m | 7.6m/s | -43.0°C | 0.2% | 11.8hPa | 2.6V | 00:00:00 | 00:00:00 | 00:00:00 | |
| DB0UT-7 | 2026-09-04 00:20:59 | 52.40035 | 11.35854 | 157° | 27km/h | 30442m | 7.5m/s | -43.0°C | 2.1% | 11.7hPa | 2.6V | 00:00:00 | 00:00:00 | 00:00:00 | |
| DM0DOS-11 | 2026-09-04 00:20:58 | 52.40065 | 11.35849 | 186° | 29km/h | 30415m | 6.6m/s | -43.3°C | 2.2% | 11.8hPa | 2.6V | 03:26:15 | 02:26:10 | 00:00:00 | |
| DO2SHX-10 | 2026-09-04 00:20:57 | 52.40049 | 11.35848 | 176° | 31km/h | 30428m | 5.5m/s | -43.1°C | 2.2% | 11.7hPa | 2.5V | 00:00:00 | 02:26:12 | 00:00:00 | |
| DL1XH-15 | 2026-09-04 00:20:56 | 52.40081 | 11.35843 | 115° | 20km/h | 30392m | 6.7m/s | -43.5°C | 2.2% | 11.8hPa | 2.5V | 03:26:19 | 02:26:06 | 00:00:00 | |
| DL1XH1-15 | 2026-09-04 00:20:56 | 52.40076 | 11.35851 | 173° | 15km/h | 30404m | 5.1m/s | -43.4°C | 2.2% | 11.8hPa | 2.5V | 03:26:17 | 02:26:08 | 00:00:00 | |
| DF8AY | 2026-09-04 00:20:55 | 52.40066 | 11.35849 | 186° | 29km/h | 30415m | 6.6m/s | -43.3°C | 0% | 11.8hPa | 2.6V | 03:28:46 | 02:26:10 | 00:00:00 | |
| AA1-15 | 2026-09-04 00:20:53 | 52.40076 | 11.35851 | 173° | 15km/h | 30404m | 5.1m/s | -43.4°C | 0% | 11.8hPa | 2.5V | 03:27:04 | 02:26:08 | 00:00:00 | |
| HSKMA3-T | 2026-09-04 00:20:51 | 52.40081 | 11.35843 | 115° | 20km/h | 30392m | 6.7m/s | -43.5°C | 0% | 11.8hPa | 2.5V | 03:27:04 | 02:26:06 | 00:00:00 | |
| HTAHTA | 2026-09-04 00:20:51 | 52.40084 | 11.35834 | 108° | 27km/h | 30385m | 7.7m/s | -43.6°C | 0.3% | 11.8hPa | 2.6V | 00:00:00 | 00:00:00 | 00:00:00 | |
| DL1NUX | 2026-09-04 00:20:50 | 52.40101 | 11.35769 | 128° | 26km/h | 30356m | 7m/s | -43.6°C | 2.2% | 11.9hPa | 2.6V | 03:26:25 | 02:26:00 | 00:00:00 | |
| SONCRA | 2026-09-04 00:20:48 | 52.40093 | 11.35791 | 113° | 37km/h | 30368m | 4.8m/s | -43.6°C | 0.3% | 11.9hPa | 2.6V | 00:00:00 | 00:00:00 | 00:00:00 | |
| EDDB2-12 | 2026-09-04 00:20:47 | 52.40093 | 11.35791 | 113° | 37km/h | 30368m | 4.8m/s | -43.6°C | 0.3% | 11.9hPa | 2.6V | 00:00:00 | 00:00:00 | 00:00:00 | |
| DL1XH-15 | 2026-09-04 00:20:46 | 52.40122 | 11.35757 | 175° | 26km/h | 30329m | 5.9m/s | -43.8°C | 2.2% | 11.9hPa | 2.6V | 03:26:29 | 02:25:56 | 00:00:00 | |
| SO1NDE-10 | 2026-09-04 00:20:46 | 52.40097 | 11.35778 | 121° | 27km/h | 30363m | 6.0m/s | -43.6°C | 2.2% | 11.8hPa | 2.6V | 00:00:00 | 02:26:01 | 00:00:00 | |
| DO2SHX-10 | 2026-09-04 00:20:45 | 52.40101 | 11.35768 | 129° | 22km/h | 30356m | 6.9m/s | -43.6°C | 2.2% | 11.8hPa | 2.5V | 00:00:00 | 02:26:00 | 00:00:00 | |
| DL1XH1-15 | 2026-09-04 00:20:44 | 52.40110 | 11.35759 | 168° | 20km/h | 30342m | 6.4m/s | -43.7°C | 2.2% | 11.9hPa | 2.5V | 03:26:27 | 02:25:58 | 00:00:00 | |
| AA1-15 | 2026-09-04 00:20:42 | 52.40116 | 11.35758 | 176° | 24km/h | 30335m | 6.9m/s | -43.7°C | 0% | 11.9hPa | 2.5V | 03:27:04 | 02:25:57 | 00:00:00 | |
| HSKMA3-T | 2026-09-04 00:20:41 | 52.40122 | 11.35757 | 175° | 26km/h | 30329m | 5.9m/s | -43.8°C | 0% | 11.9hPa | 2.6V | 03:27:04 | 02:25:56 | 00:00:00 | |
| DL4XJ-10 | 2026-09-04 00:20:41 | 52.40122 | 11.35757 | 176° | 27km/h | 30329m | 5.8m/s | -43.4°C | 0% | 0hPa | 2.6V | 00:00:00 | 00:00:00 | 00:00:00 | |
| DO3MHA-11 | 2026-09-04 00:20:40 | 52.40129 | 11.35755 | 166° | 29km/h | 30323m | 4.4m/s | -43.7°C | 2.3% | 11.9hPa | 2.6V | 00:00:00 | 02:25:55 | 00:00:00 | |
| DO2SHX-10 | 2026-09-04 00:20:39 | 52.40135 | 11.35751 | 152° | 22km/h | 30319m | 4.2m/s | -43.7°C | 2.3% | 11.9hPa | 2.6V | 00:00:00 | 02:25:54 | 00:00:00 | |
| DD8BA-10 | 2026-09-04 00:20:38 | 52.40140 | 11.35746 | 132° | 29km/h | 30314m | 5.9m/s | -43.8°C | 2.3% | 11.9hPa | 2.6V | 00:00:00 | 00:00:00 | 00:00:00 | |
| DL1NUX | 2026-09-04 00:20:37 | 52.40144 | 11.35717 | 89° | 31km/h | 30294m | 5.8m/s | -43.9°C | 2.2% | 12hPa | 2.6V | 03:26:35 | 02:25:50 | 00:00:00 | |
| DL1XH1-15 | 2026-09-04 00:20:36 | 52.40145 | 11.35689 | 100° | 35km/h | 30281m | 6.6m/s | -43.9°C | 2.3% | 12hPa | 2.6V | 03:26:37 | 02:25:48 | 00:00:00 | |
| DO2SHX-10 | 2026-09-04 00:20:36 | 52.40143 | 11.35729 | 94° | 31km/h | 30300m | 6.4m/s | -43.8°C | 2.3% | 11.9hPa | 2.5V | 03:26:00 | 02:25:51 | 00:00:00 | |
| DL1XH-15 | 2026-09-04 00:20:35 | 52.40151 | 11.35663 | 121° | 31km/h | 30270m | 4.9m/s | -43.9°C | 2.3% | 12.1hPa | 2.5V | 03:26:39 | 02:25:46 | 00:00:00 | |
| DF8AY | 2026-09-04 00:20:32 | 52.40147 | 11.35675 | 110° | 35km/h | 30275m | 5.3m/s | -43.9°C | 0% | 12hPa | 2.5V | 03:28:46 | 02:25:47 | 00:00:00 | |
| HSKMA3-T | 2026-09-04 00:20:31 | 52.40151 | 11.35663 | 122° | 31km/h | 30270m | 4.9m/s | -43.9°C | 0% | 12.1hPa | 2.5V | 03:27:04 | 02:25:46 | 00:00:00 | |
| SONDE2-11 | 2026-09-04 00:20:31 | 52.40156 | 11.35653 | 133° | 27km/h | 30265m | 5.3m/s | -44.0°C | 0.3% | 12.1hPa | 2.5V | 00:00:00 | 00:00:00 | 00:00:00 | |
| DO3MHA-11 | 2026-09-04 00:20:30 | 52.40156 | 11.35653 | 134° | 22km/h | 30265m | 5.3m/s | -43.9°C | 2.2% | 12.0hPa | 2.5V | 00:00:00 | 02:25:45 | 00:00:00 | |
| EDDB2-11 | 2026-09-04 00:20:29 | 52.40165 | 11.35642 | 157° | 16km/h | 30253m | 7.1m/s | -44.0°C | 0.3% | 12.1hPa | 2.6V | 00:00:00 | 00:00:00 | 00:00:00 | |
| TFSTFS | 2026-09-04 00:20:28 | 52.40164 | 11.35642 | 158° | 16km/h | 30253m | 7.1m/s | -44.0°C | 0.3% | 12.1hPa | 2.6V | 00:00:00 | 00:00:00 | 00:00:00 | |
| DO2SHX-10 | 2026-09-04 00:20:27 | 52.40168 | 11.35641 | 167° | 13km/h | 30246m | 6.1m/s | -44.0°C | 2.3% | 12.0hPa | 2.6V | 00:00:00 | 02:25:42 | 00:00:00 | |
| DB0DAN | 2026-09-04 00:20:25 | 52.40173 | 11.35636 | 135° | 13km/h | 30235m | 4.9m/s | -44.1°C | 0.3% | 12.11hPa | 2.6V | 00:00:00 | 00:00:00 | 00:00:00 | |
| AM1SDL-15 | 2026-09-04 00:20:25 | 52.40173 | 11.35636 | 135° | 31km/h | 30236m | 4.8m/s | -44.0°C | 2.3% | 12.1hPa | 2.5V | 00:00:00 | 02:25:40 | 00:00:00 | |
| DL1XH1-15 | 2026-09-04 00:20:24 | 52.40179 | 11.35622 | 115° | 27km/h | 30223m | 7.3m/s | -44.2°C | 2.3% | 12.1hPa | 2.5V | 03:26:47 | 02:25:38 | 00:00:00 | |
| DF8AY-15 | 2026-09-04 00:20:24 | 52.40176 | 11.35631 | 122° | 29km/h | 30230m | 6.6m/s | -44.1°C | 2.3% | 12.1hPa | 2.6V | 00:00:00 | 02:25:39 | 00:00:00 | |
| DL1XH-15 | 2026-09-04 00:20:23 | 52.40186 | 11.35594 | 108° | 44km/h | 30210m | 5.6m/s | -44.3°C | 2.3% | 12.2hPa | 2.5V | 03:26:49 | 02:25:36 | 00:00:00 | |
| AA1-15 | 2026-09-04 00:20:20 | 52.40189 | 11.35577 | 105° | 44km/h | 30204m | 6.2m/s | -44.3°C | 0% | 12.2hPa | 2.6V | 03:27:04 | 02:25:35 | 00:00:00 | |
| DF8AY | 2026-09-04 00:20:17 | 52.40215 | 11.35479 | 131° | 22km/h | 30151m | 5.3m/s | -44.6°C | 0% | 12.3hPa | 2.5V | 03:28:46 | 02:25:26 | 00:00:00 | |
| DL1XH1-15 | 2026-09-04 00:20:17 | 52.40207 | 11.35494 | 134° | 26km/h | 30161m | 5.7m/s | -44.5°C | 2.3% | 12.2hPa | 2.6V | 03:26:57 | 02:25:28 | 00:00:00 | |
| DL1XH-15 | 2026-09-04 00:20:16 | 52.40215 | 11.35479 | 130° | 22km/h | 30151m | 5.3m/s | -44.6°C | 2.3% | 12.3hPa | 2.5V | 03:26:59 | 02:25:26 | 00:00:00 | |
| DL1XH-west | 2026-09-04 00:20:10 | 52.40218 | 11.35472 | 125° | 20km/h | 30144m | 7m/s | -44.6°C | 0% | 12.3hPa | 2.5V | 03:27:04 | 02:25:25 | 00:00:00 | |
| AA1-15 | 2026-09-04 00:20:09 | 52.40221 | 11.35465 | 112° | 20km/h | 30138m | 6.6m/s | -44.6°C | 0% | 12.3hPa | 2.5V | 03:27:04 | 02:25:24 | 00:00:00 | |
| DO2SHX-10 | 2026-09-04 00:20:09 | 52.40221 | 11.35465 | 112° | 22km/h | 30138m | 6.5m/s | -44.6°C | 2.3% | 12.3hPa | 2.6V | 00:00:00 | 02:25:24 | 00:00:00 | |
| DD8BA-10 | 2026-09-04 00:20:08 | 52.40222 | 11.35457 | 102° | 31km/h | 30132m | 5.8m/s | -44.6°C | 2.3% | 12.2hPa | 2.6V | 00:00:00 | 00:00:00 | 00:00:00 | |
| DO2SHX-10 | 2026-09-04 00:20:06 | 52.40225 | 11.35436 | 104° | 37km/h | 30120m | 7.1m/s | -44.7°C | 2.3% | 12.3hPa | 2.6V | 00:00:00 | 02:25:21 | 00:00:00 | |
| AP2371 | 2026-09-04 00:20:05 | 52.40225 | 11.35436 | 104° | 31km/h | 30120m | 7.1m/s | -44.7°C | 0.3% | 12.3hPa | 2.6V | 03:27:00 | 00:00:00 | 00:00:00 | |
| DL1XH1-15 | 2026-09-04 00:20:04 | 52.40232 | 11.35391 | 103° | 40km/h | 30101m | 4.9m/s | -44.8°C | 2.3% | 12.3hPa | 2.6V | 03:27:07 | 02:25:18 | 00:00:00 | |
| S3001 | 2026-09-04 00:20:04 | 52.40232 | 11.35391 | 103° | 38km/h | 30101m | 4.9m/s | -44.8°C | 0.3% | 12.3hPa | 2.5V | 00:00:00 | 00:00:00 | 00:00:00 | |
| DL1XH-15 | 2026-09-04 00:20:03 | 52.40235 | 11.35362 | 92° | 31km/h | 30090m | 6.8m/s | -44.9°C | 2.3% | 12.4hPa | 2.5V | 03:27:09 | 02:25:16 | 00:00:00 | |
| DL1XH-west | 2026-09-04 00:20:00 | 52.40235 | 11.35351 | 87° | 26km/h | 30083m | 6.1m/s | -44.9°C | 0% | 12.4hPa | 2.5V | 03:27:55 | 02:25:15 | 00:00:00 | |
| AA1-15 | 2026-09-04 00:19:59 | 52.40234 | 11.35342 | 86° | 20km/h | 30077m | 5.8m/s | -45°C | 0% | 12.4hPa | 2.6V | 03:27:55 | 02:25:14 | 00:00:00 | |
| DF7ER-10 | 2026-09-04 00:19:59 | 52.40234 | 11.35342 | 87° | 20km/h | 30078m | 5.8m/s | -45.0°C | 0.3% | 12.4hPa | 2.6V | 03:27:00 | 00:00:00 | 00:00:00 | |
| DD8BA-10 | 2026-09-04 00:19:58 | 52.40234 | 11.35334 | 92° | 18km/h | 30071m | 6.6m/s | -45.0°C | 2.3% | 12.4hPa | 2.6V | 00:00:00 | 00:00:00 | 00:00:00 | |
| DO2SHX-10 | 2026-09-04 00:19:57 | 52.40234 | 11.35328 | 104° | 13km/h | 30065m | 7.0m/s | -45.0°C | 2.4% | 12.4hPa | 2.5V | 00:00:00 | 02:25:12 | 00:00:00 | |
| DB0DAN | 2026-09-04 00:19:55 | 52.40237 | 11.35317 | 112° | 11km/h | 30052m | 5.3m/s | -45.1°C | 0.3% | 12.44hPa | 2.5V | 00:00:00 | 00:00:00 | 00:00:00 | |
| DL1XH-15 | 2026-09-04 00:19:55 | 52.40237 | 11.35294 | 84° | 24km/h | 30029m | 5.2m/s | -45.2°C | 2.3% | 12.5hPa | 2.6V | 03:27:19 | 02:25:06 | 00:00:00 | |
| DL1ZP-14 | 2026-09-04 00:19:54 | 52.40238 | 11.35313 | 106° | 9km/h | 30047m | 6.5m/s | -45.1°C | 0.3% | 12.4hPa | 2.5V | 00:00:00 | 00:00:00 | 00:00:00 | |
| SP3WXH-11 | 2026-09-04 00:19:53 | 52.40238 | 11.35308 | 88° | 11km/h | 30040m | 6.5m/s | -45.2°C | 0.3% | 12.5hPa | 2.5V | 00:00:00 | 00:00:00 | 00:00:00 | |
| DM0DOS-11 | 2026-09-04 00:19:51 | 52.40237 | 11.35208 | 78° | 27km/h | 29994m | 6.5m/s | -45.8°C | 2.5% | 12.6hPa | 2.5V | 03:27:25 | 02:25:00 | 00:00:00 | |
| DF8AY | 2026-09-04 00:19:49 | 52.40237 | 11.35269 | 94° | 37km/h | 30015m | 7.5m/s | -45.4°C | 0% | 12.5hPa | 2.5V | 03:28:46 | 02:25:04 | 00:00:00 | |
| AA1-15 | 2026-09-04 00:19:48 | 52.40238 | 11.35253 | 94° | 42km/h | 30009m | 5.4m/s | -45.5°C | 0% | 12.5hPa | 2.5V | 03:27:55 | 02:25:03 | 00:00:00 | |
| DD8BA-10 | 2026-09-04 00:19:48 | 52.40238 | 11.35253 | 95° | 18km/h | 30009m | 5.4m/s | -45.5°C | 2.4% | 12.5hPa | 2.5V | 00:00:00 | 00:00:00 | 00:00:00 | |
| DF7ER-10 | 2026-09-04 00:19:47 | 52.40238 | 11.35252 | 95° | 42km/h | 30009m | 5.4m/s | -45.5°C | 0.3% | 12.5hPa | 2.5V | 03:27:00 | 00:00:00 | 00:00:00 | |
| DB0NH | 2026-09-04 00:19:46 | 52.40238 | 11.35221 | 88° | 16km/h | 30000m | 5.1m/s | -45.7°C | 2.4% | 12.5hPa | 2.5V | 00:00:00 | 02:25:01 | 00:00:00 | |
| DO2SHX-10 | 2026-09-04 00:19:45 | 52.40237 | 11.35208 | 79° | 20km/h | 29994m | 6.4m/s | -45.8°C | 2.5% | 12.5hPa | 2.5V | 00:00:00 | 02:25:00 | 00:00:00 | |
| BUE01 | 2026-09-04 00:19:44 | 52.40233 | 11.35194 | 39° | 11km/h | 29982m | 6.1m/s | -46.0°C | 0.3% | 12.6hPa | 2.5V | 00:00:00 | 00:00:00 | 00:00:00 | |
| DL1XH-15 | 2026-09-04 00:19:43 | 52.40229 | 11.35192 | 358° | 4km/h | 29969m | 6.5m/s | -46.2°C | 2.5% | 12.6hPa | 2.5V | 03:27:29 | 02:24:56 | 00:00:00 | |
| DJ2DS-15 | 2026-09-04 00:19:43 | 52.40233 | 11.35194 | 39° | 11km/h | 29982m | 6.1m/s | -46.0°C | 0.3% | 12.6hPa | 2.5V | 00:00:00 | 00:00:00 | 00:00:00 | |
| DO2SHX-10 | 2026-09-04 00:19:42 | 52.40231 | 11.35192 | 15° | 4km/h | 29976m | 5.9m/s | -46.1°C | 2.5% | 12.5hPa | 2.5V | 00:00:00 | 02:24:57 | 00:00:00 | |
| DB0DAN | 2026-09-04 00:19:40 | 52.40229 | 11.35192 | 115° | 0km/h | 29963m | 6.3m/s | -46.2°C | 0.3% | 12.59hPa | 2.5V | 00:00:00 | 00:00:00 | 00:00:00 | |
| HSKMA3-T | 2026-09-04 00:19:39 | 52.40229 | 11.35191 | 116° | 5km/h | 29957m | 5.5m/s | -46.3°C | 0% | 12.6hPa | 2.5V | 03:27:55 | 02:24:54 | 00:00:00 | |
| DF8AY | 2026-09-04 00:19:39 | 52.40230 | 11.35188 | 104° | 9km/h | 29951m | 5.4m/s | -46.3°C | 0% | 12.6hPa | 2.6V | 03:28:46 | 02:24:53 | 00:00:00 | |
| DL1XH1-15 | 2026-09-04 00:19:38 | 52.40226 | 11.35151 | 91° | 22km/h | 29922m | 5.4m/s | -46.3°C | 2.6% | 12.7hPa | 2.5V | 03:27:37 | 02:24:48 | 00:00:00 | |
| AA1-15 | 2026-09-04 00:19:38 | 52.40230 | 11.35183 | 86° | 13km/h | 29945m | 6.7m/s | -46.3°C | 0% | 12.7hPa | 2.6V | 03:27:55 | 02:24:52 | 00:00:00 | |
| DM0DOS-11 | 2026-09-04 00:19:38 | 52.40228 | 11.35169 | 75° | 22km/h | 29933m | 5.4m/s | -46.3°C | 2.6% | 12.6hPa | 2.5V | 03:27:35 | 02:24:50 | 00:00:00 | |
| AM1SDL-15 | 2026-09-04 00:19:37 | 52.40230 | 11.35183 | 87° | 16km/h | 29946m | 6.7m/s | -46.3°C | 2.6% | 12.6hPa | 2.6V | 00:00:00 | 02:24:52 | 00:00:00 | |
| DO2SHX-10 | 2026-09-04 00:19:36 | 52.40229 | 11.35177 | 78° | 20km/h | 29939m | 6.7m/s | -46.3°C | 2.6% | 12.6hPa | 2.6V | 03:27:00 | 02:24:51 | 00:00:00 | |
| DL1XH-15 | 2026-09-04 00:19:35 | 52.40229 | 11.35133 | 119° | 22km/h | 29909m | 6.6m/s | -46.4°C | 2.6% | 12.7hPa | 2.6V | 03:27:39 | 02:24:46 | 00:00:00 | |
| GOEST3-10 | 2026-09-04 00:19:35 | 52.40228 | 11.35169 | 76° | 22km/h | 29933m | 5.4m/s | -46.3°C | 2.6% | 12.6hPa | 2.5V | 03:27:00 | 00:00:00 | 00:00:00 | |
| DO9LL-15 | 2026-09-04 00:19:34 | 52.40227 | 11.35160 | 81° | 22km/h | 29928m | 4.5m/s | -46.3°C | 2.6% | 12.7hPa | 2.6V | 00:00:00 | 02:24:49 | 00:00:00 | |
| DO2SHX-10 | 2026-09-04 00:19:33 | 52.40226 | 11.35151 | 92° | 22km/h | 29922m | 5.3m/s | -46.3°C | 2.6% | 12.6hPa | 2.6V | 00:00:00 | 02:24:48 | 00:00:00 | |
| S3001 | 2026-09-04 00:19:32 | 52.40227 | 11.35142 | 104° | 22km/h | 29916m | 6.8m/s | -46.4°C | 0.3% | 12.7hPa | 2.6V | 00:00:00 | 00:00:00 | 00:00:00 | |
| SMARD9-10 | 2026-09-04 00:19:31 | 52.40227 | 11.35142 | 105° | 22km/h | 29916m | 6.8m/s | -46.4°C | 0.3% | 12.7hPa | 2.6V | 00:00:00 | 00:00:00 | 00:00:00 | |
| DM0DOS-11 | 2026-09-04 00:19:30 | 52.40241 | 11.35105 | 74° | 13km/h | 29875m | 4.3m/s | -46.4°C | 2.6% | 12.8hPa | 2.6V | 03:27:45 | 02:24:40 | 00:00:00 | |
| DO2SHX-10 | 2026-09-04 00:19:30 | 52.40232 | 11.35126 | 134° | 18km/h | 29903m | 5.3m/s | -46.4°C | 2.6% | 12.7hPa | 2.5V | 00:00:00 | 02:24:45 | 00:00:00 | |
| DL1NUX | 2026-09-04 00:19:29 | 52.40240 | 11.35099 | 82° | 16km/h | 29870m | 5.2m/s | -46.4°C | 2.6% | 12.8hPa | 2.5V | 03:27:46 | 02:24:39 | 00:00:00 | |
| HSKMA3-T | 2026-09-04 00:19:28 | 52.40239 | 11.35116 | 140° | 15km/h | 29892m | 6m/s | -46.4°C | 0% | 12.8hPa | 2.5V | 03:27:55 | 02:24:43 | 00:00:00 | |
| DF8AY | 2026-09-04 00:19:27 | 52.40241 | 11.35113 | 127° | 9km/h | 29886m | 6.3m/s | -46.4°C | 0% | 12.8hPa | 2.5V | 03:28:46 | 02:24:42 | 00:00:00 | |
| AA1-15 | 2026-09-04 00:19:26 | 52.40242 | 11.35109 | 84° | 9km/h | 29880m | 5.3m/s | -46.4°C | 0% | 12.8hPa | 2.6V | 03:27:55 | 02:24:41 | 00:00:00 | |
| EDDB2-11 | 2026-09-04 00:19:26 | 52.40242 | 11.35109 | 84° | 7km/h | 29880m | 5.3m/s | -46.4°C | 0.3% | 12.8hPa | 2.5V | 00:00:00 | 00:00:00 | 00:00:00 | |
| GOEST3-10 | 2026-09-04 00:19:25 | 52.40241 | 11.35105 | 75° | 20km/h | 29875m | 4.2m/s | -46.3°C | 2.6% | 12.7hPa | 2.5V | 00:00:00 | 00:00:00 | 00:00:00 | |
| DL1ZP-14 | 2026-09-04 00:19:24 | 52.40240 | 11.35092 | 85° | 18km/h | 29865m | 6.3m/s | -46.4°C | 0.3% | 12.8hPa | 2.5V | 00:00:00 | 00:00:00 | 00:00:00 | |
| SP3WXH-11 | 2026-09-04 00:19:22 | 52.40240 | 11.35083 | 97° | 22km/h | 29858m | 6.4m/s | -46.4°C | 0.4% | 12.8hPa | 2.6V | 00:00:00 | 00:00:00 | 00:00:00 | |
| DJ8HS-15 | 2026-09-04 00:19:21 | 52.40242 | 11.35073 | 105° | 20km/h | 29852m | 5.9m/s | -46.4°C | 2.6% | 12.8hPa | 2.6V | 03:27:00 | 02:24:36 | 00:00:00 | |
| DL1NUX | 2026-09-04 00:19:20 | 52.40259 | 11.35028 | 117° | 20km/h | 29811m | 6.8m/s | -46.3°C | 2.6% | 12.9hPa | 2.5V | 03:27:56 | 02:24:29 | 00:00:00 | |
| HSKMA3-T | 2026-09-04 00:19:18 | 52.40249 | 11.35049 | 126° | 16km/h | 29834m | 6.2m/s | -46.3°C | 0% | 12.9hPa | 2.5V | 03:27:55 | 02:24:33 | 00:00:00 | |
| DL1XH1-15 | 2026-09-04 00:19:18 | 52.40261 | 11.35019 | 109° | 24km/h | 29805m | 5.6m/s | -46.3°C | 2.6% | 12.9hPa | 2.5V | 03:27:57 | 02:24:28 | 00:00:00 | |
| HTAHTA | 2026-09-04 00:19:18 | 52.40251 | 11.35044 | 134° | 15km/h | 29828m | 5.3m/s | -46.3°C | 0.3% | 12.9hPa | 2.6V | 00:00:00 | 00:00:00 | 00:00:00 | |
| DM0DOS-11 | 2026-09-04 00:19:17 | 52.40257 | 11.35034 | 126° | 16km/h | 29817m | 6.7m/s | -46.3°C | 2.6% | 12.9hPa | 2.6V | 03:27:55 | 02:24:30 | 00:00:00 | |
| AA1-15 | 2026-09-04 00:19:16 | 52.40254 | 11.35039 | 134° | 15km/h | 29823m | 5.1m/s | -46.3°C | 0% | 12.9hPa | 2.6V | 03:27:55 | 02:24:31 | 00:00:00 | |
| SO1NDE-10 | 2026-09-04 00:19:16 | 52.40254 | 11.35039 | 134° | 20km/h | 29823m | 5.1m/s | -46.3°C | 2.6% | 12.8hPa | 2.6V | 00:00:00 | 02:24:31 | 00:00:00 | |
| DO2SHX-10 | 2026-09-04 00:19:15 | 52.40256 | 11.35034 | 127° | 20km/h | 29818m | 6.6m/s | -46.3°C | 2.6% | 12.8hPa | 2.6V | 00:00:00 | 02:24:30 | 00:00:00 | |
| SP3BTT-10 | 2026-09-04 00:19:14 | 52.40259 | 11.35027 | 118° | 29km/h | 29811m | 6.7m/s | -46.2°C | 2.6% | 12.8hPa | 2.6V | 00:00:00 | 00:00:00 | 00:00:00 | |
| BUE01 | 2026-09-04 00:19:13 | 52.40263 | 11.35010 | 101° | 24km/h | 29799m | 5.4m/s | -46.3°C | 0.4% | 12.9hPa | 2.6V | 00:00:00 | 00:00:00 | 00:00:00 | |
| DO2SHX-10 | 2026-09-04 00:19:12 | 52.40263 | 11.35010 | 102° | 24km/h | 29799m | 5.4m/s | -46.2°C | 2.6% | 12.9hPa | 2.6V | 03:27:00 | 02:24:27 | 00:00:00 | |
| TFSTFS | 2026-09-04 00:19:11 | 52.40263 | 11.35009 | 103° | 24km/h | 29799m | 5.4m/s | -46.3°C | 0.4% | 12.9hPa | 2.6V | 00:00:00 | 00:00:00 | 00:00:00 | |
| DM0DOS-11 | 2026-09-04 00:19:10 | 52.40263 | 11.34951 | 106° | 24km/h | 29757m | 6.8m/s | -46.2°C | 2.5% | 13hPa | 2.6V | 03:28:05 | 02:24:20 | 00:00:00 | |
| SMARD9-15 | 2026-09-04 00:19:10 | 52.40263 | 11.34982 | 79° | 16km/h | 29780m | 6.4m/s | -46.3°C | 0.3% | 13.0hPa | 2.6V | 00:00:00 | 00:00:00 | 00:00:00 | |
| DL1NUX | 2026-09-04 00:19:09 | 52.40266 | 11.34941 | 115° | 26km/h | 29751m | 5.6m/s | -46.3°C | 2.6% | 13hPa | 2.6V | 03:28:06 | 02:24:19 | 00:00:00 | |
| HSKMA3-T | 2026-09-04 00:19:07 | 52.40262 | 11.34968 | 86° | 18km/h | 29769m | 5.1m/s | -46.3°C | 0% | 13hPa | 2.5V | 03:28:46 | 02:24:22 | 00:00:00 | |
| DL1XH-west | 2026-09-04 00:19:06 | 52.40262 | 11.34960 | 97° | 20km/h | 29763m | 6.3m/s | -46.3°C | 0% | 13hPa | 2.5V | 03:28:46 | 02:24:21 | 00:00:00 | |
| DF8AY | 2026-09-04 00:19:05 | 52.40263 | 11.34951 | 107° | 24km/h | 29757m | 6.8m/s | -46.3°C | 0% | 13hPa | 2.6V | 03:28:46 | 02:24:20 | 00:00:00 | |
| DL1XH1-15 | 2026-09-04 00:19:04 | 52.40269 | 11.34932 | 126° | 26km/h | 29745m | 4.9m/s | -46.3°C | 2.5% | 13hPa | 2.5V | 03:28:07 | 02:24:18 | 00:00:00 | |
| GOEST3-10 | 2026-09-04 00:19:04 | 52.40266 | 11.34941 | 116° | 22km/h | 29751m | 5.5m/s | -46.2°C | 2.6% | 13.0hPa | 2.6V | 00:00:00 | 00:00:00 | 00:00:00 | |
| DO2SHX-10 | 2026-09-04 00:19:03 | 52.40269 | 11.34932 | 127° | 22km/h | 29746m | 4.8m/s | -46.2°C | 2.5% | 13.0hPa | 2.6V | 00:00:00 | 02:24:18 | 00:00:00 | |
| DL1CLM-18 | 2026-09-04 00:19:02 | 52.40273 | 11.34925 | 135° | 22km/h | 29740m | 6.3m/s | -46.2°C | 0.3% | 13.1hPa | 2.6V | 00:00:00 | 00:00:00 | 00:00:00 | |
| DJ8HS-15 | 2026-09-04 00:19:01 | 52.40277 | 11.34919 | 145° | 22km/h | 29734m | 6.9m/s | -46.2°C | 2.6% | 13.0hPa | 2.6V | 00:00:00 | 02:24:16 | 00:00:00 | |
| DO2SHX-10 | 2026-09-04 00:19:00 | 52.40280 | 11.34916 | 151° | 15km/h | 29727m | 5.9m/s | -46.2°C | 2.5% | 13.0hPa | 2.6V | 03:28:00 | 02:24:15 | 00:00:00 | |
| DL1NUX | 2026-09-04 00:18:59 | 52.40286 | 11.34878 | 72° | 24km/h | 29691m | 6.9m/s | -46.4°C | 2.6% | 13.2hPa | 2.6V | 03:28:16 | 02:24:09 | 00:00:00 | |
| DB0UT-7 | 2026-09-04 00:18:59 | 52.40283 | 11.34912 | 146° | 27km/h | 29722m | 5.2m/s | -46.2°C | 2.6% | 13.0hPa | 2.5V | 00:00:00 | 00:00:00 | 00:00:00 | |
| DL1XH1-15 | 2026-09-04 00:18:58 | 52.40284 | 11.34869 | 63° | 22km/h | 29684m | 6.9m/s | -46.4°C | 2.6% | 13.2hPa | 2.5V | 03:28:17 | 02:24:08 | 00:00:00 | |
| DD8BA-10 | 2026-09-04 00:18:58 | 52.40286 | 11.34909 | 129° | 18km/h | 29716m | 6.2m/s | -46.2°C | 2.6% | 13.1hPa | 2.5V | 03:28:00 | 00:00:00 | 00:00:00 | |
| DM0DOS-11 | 2026-09-04 00:18:57 | 52.40287 | 11.34887 | 80° | 22km/h | 29697m | 6m/s | -46.4°C | 2.6% | 13.2hPa | 2.6V | 03:28:15 | 02:24:10 | 00:00:00 | |
| HSKMA3-T | 2026-09-04 00:18:56 | 52.40288 | 11.34896 | 87° | 20km/h | 29703m | 6.1m/s | -46.4°C | 0% | 13.1hPa | 2.6V | 03:28:46 | 02:24:11 | 00:00:00 | |
| DL1XH-west | 2026-09-04 00:18:55 | 52.40287 | 11.34887 | 80° | 22km/h | 29697m | 6m/s | -46.4°C | 0% | 13.2hPa | 2.6V | 03:28:46 | 02:24:10 | 00:00:00 | |
| AA1-15 | 2026-09-04 00:18:54 | 52.40286 | 11.34878 | 73° | 24km/h | 29691m | 6.9m/s | -46.4°C | 0% | 13.2hPa | 2.6V | 03:28:46 | 02:24:09 | 00:00:00 | |
| DO2SHX-10 | 2026-09-04 00:18:54 | 52.40286 | 11.34878 | 73° | 22km/h | 29691m | 6.9m/s | -46.3°C | 2.6% | 13.1hPa | 2.5V | 00:00:00 | 02:24:09 | 00:00:00 | |
| DL1XH-15 | 2026-09-04 00:18:53 | 52.40279 | 11.34854 | 73° | 20km/h | 29673m | 4.2m/s | -46.4°C | 2.6% | 13.2hPa | 2.5V | 03:28:19 | 02:24:06 | 00:00:00 | |
| DL1ZP-14 | 2026-09-04 00:18:52 | 52.40281 | 11.34862 | 64° | 20km/h | 29679m | 5.1m/s | -46.4°C | 0.4% | 13.2hPa | 2.5V | 00:00:00 | 00:00:00 | 00:00:00 | |
| DM0DOS-11 | 2026-09-04 00:18:51 | 52.40298 | 11.34799 | 142° | 29km/h | 29637m | 6.6m/s | -46.3°C | 2.5% | 13.2hPa | 2.5V | 03:28:25 | 02:24:00 | 00:00:00 | |
| TFSTFS | 2026-09-04 00:18:50 | 52.40279 | 11.34854 | 75° | 20km/h | 29674m | 4.2m/s | -46.4°C | 0.3% | 13.2hPa | 2.6V | 00:00:00 | 00:00:00 | 00:00:00 | |
| DL1NUX | 2026-09-04 00:18:49 | 52.40303 | 11.34792 | 143° | 26km/h | 29631m | 5.3m/s | -46.3°C | 2.6% | 13.3hPa | 2.6V | 03:28:26 | 02:23:59 | 00:00:00 | |
| HSKMA3-T | 2026-09-04 00:18:45 | 52.40298 | 11.34799 | 143° | 29km/h | 29637m | 6.6m/s | -46.3°C | 0% | 13.2hPa | 2.5V | 03:28:46 | 02:24:00 | 00:00:00 | |
| DL1XH-15 | 2026-09-04 00:18:45 | 52.40313 | 11.34769 | 101° | 26km/h | 29614m | 6.5m/s | -46.3°C | 2.5% | 13.3hPa | 2.5V | 03:28:29 | 02:23:56 | 00:00:00 | |
| DL1XH-west | 2026-09-04 00:18:45 | 52.40303 | 11.34792 | 144° | 26km/h | 29631m | 5.3m/s | -46.3°C | 0% | 13.3hPa | 2.6V | 03:28:46 | 02:23:59 | 00:00:00 | |
| DL1CLM-18 | 2026-09-04 00:18:45 | 52.40298 | 11.34799 | 143° | 29km/h | 29637m | 6.6m/s | -46.3°C | 0.3% | 13.2hPa | 2.6V | 00:00:00 | 00:00:00 | 00:00:00 | |
| DL1XH1-15 | 2026-09-04 00:18:44 | 52.40308 | 11.34786 | 134° | 22km/h | 29625m | 4.7m/s | -46.3°C | 2.5% | 13.3hPa | 2.6V | 03:28:27 | 02:23:58 | 00:00:00 | |
| SONCRA | 2026-09-04 00:18:44 | 52.40303 | 11.34792 | 143° | 24km/h | 29631m | 5.3m/s | -46.3°C | 0.4% | 13.3hPa | 2.6V | 00:00:00 | 00:00:00 | 00:00:00 | |
| AA1-15 | 2026-09-04 00:18:43 | 52.40308 | 11.34786 | 134° | 22km/h | 29625m | 4.7m/s | -46.3°C | 0% | 13.3hPa | 2.6V | 03:28:46 | 02:23:58 | 00:00:00 | |
| DF7ER-10 | 2026-09-04 00:18:43 | 52.40308 | 11.34786 | 135° | 22km/h | 29626m | 4.7m/s | -46.3°C | 0.4% | 13.3hPa | 2.5V | 03:28:00 | 00:00:00 | 00:00:00 | |
| DO2SHX-10 | 2026-09-04 00:18:42 | 52.40311 | 11.34778 | 117° | 27km/h | 29620m | 5.5m/s | -46.3°C | 2.5% | 13.2hPa | 2.5V | 00:00:00 | 02:23:57 | 00:00:00 | |
| DB0DAN | 2026-09-04 00:18:40 | 52.40314 | 11.34757 | 91° | 31km/h | 29607m | 6.9m/s | -46.4°C | 0.3% | 13.3hPa | 2.6V | 00:00:00 | 00:00:00 | 00:00:00 | |
| DL1NUX | 2026-09-04 00:18:39 | 52.40310 | 11.34673 | 101° | 31km/h | 29572m | 5.2m/s | -46.5°C | 2.6% | 13.4hPa | 2.6V | 03:28:36 | 02:23:49 | 00:00:00 | |
| SMARD9-15 | 2026-09-04 00:18:39 | 52.40312 | 11.34727 | 81° | 37km/h | 29595m | 5.5m/s | -46.5°C | 0.4% | 13.3hPa | 2.6V | 00:00:00 | 00:00:00 | 00:00:00 | |
| DL1XH1-15 | 2026-09-04 00:18:38 | 52.40313 | 11.34661 | 109° | 33km/h | 29566m | 6.6m/s | -46.5°C | 2.6% | 13.4hPa | 2.6V | 03:28:37 | 02:23:48 | 00:00:00 | |
| DD8BA-10 | 2026-09-04 00:18:38 | 52.40312 | 11.34727 | 82° | 37km/h | 29595m | 5.5m/s | -46.4°C | 2.6% | 13.3hPa | 2.6V | 00:00:00 | 00:00:00 | 00:00:00 | |
| DM0DOS-11 | 2026-09-04 00:18:37 | 52.40310 | 11.34686 | 91° | 29km/h | 29577m | 5m/s | -46.5°C | 2.6% | 13.3hPa | 2.6V | 03:28:35 | 02:23:50 | 00:00:00 | |
| DL4XJ-10 | 2026-09-04 00:18:37 | 52.40311 | 11.34712 | 83° | 35km/h | 29589m | 6.0m/s | -46.1°C | 0% | 0hPa | 2.5V | 00:00:00 | 00:00:00 | 00:00:00 | |
| DO2SHX-10 | 2026-09-04 00:18:36 | 52.40310 | 11.34698 | 83° | 31km/h | 29583m | 5.8m/s | -46.5°C | 2.6% | 13.3hPa | 2.5V | 03:28:00 | 02:23:51 | 00:00:00 | |
| DL1XH-15 | 2026-09-04 00:18:35 | 52.40320 | 11.34632 | 117° | 42km/h | 29553m | 5.1m/s | -46.5°C | 2.6% | 13.4hPa | 2.5V | 03:28:39 | 02:23:46 | 00:00:00 | |
| HSKMA3-T | 2026-09-04 00:18:34 | 52.40310 | 11.34673 | 101° | 31km/h | 29572m | 5.2m/s | -46.5°C | 0% | 13.4hPa | 2.6V | 03:28:46 | 02:23:49 | 00:00:00 | |
| DF8AY | 2026-09-04 00:18:33 | 52.40312 | 11.34661 | 109° | 33km/h | 29566m | 6.6m/s | -46.5°C | 0% | 13.4hPa | 2.6V | 03:28:46 | 02:23:48 | 00:00:00 | |
| DO2SHX-10 | 2026-09-04 00:18:33 | 52.40312 | 11.34660 | 110° | 38km/h | 29567m | 6.5m/s | -46.5°C | 2.6% | 13.4hPa | 2.6V | 00:00:00 | 02:23:48 | 00:00:00 | |
| DF7ER-10 | 2026-09-04 00:18:32 | 52.40312 | 11.34660 | 110° | 33km/h | 29567m | 6.6m/s | -46.5°C | 0.4% | 13.4hPa | 2.5V | 03:28:00 | 00:00:00 | 00:00:00 | |
| DF2AP-13 | 2026-09-04 00:18:31 | 52.40320 | 11.34632 | 118° | 29km/h | 29554m | 5.0m/s | -46.5°C | 2.6% | 13.4hPa | 2.5V | 00:00:00 | 02:23:46 | 00:00:00 | |
| DM0DOS-11 | 2026-09-04 00:18:30 | 52.40340 | 11.34560 | 93° | 26km/h | 29521m | 5.3m/s | -46.5°C | 2.6% | 13.5hPa | 2.5V | 03:28:45 | 02:23:40 | 00:00:00 | |
| DL1NUX | 2026-09-04 00:18:30 | 52.40340 | 11.34548 | 86° | 29km/h | 29516m | 5.4m/s | -46.5°C | 2.6% | 13.5hPa | 2.5V | 03:28:46 | 02:23:39 | 00:00:00 | |
| DB0UT-7 | 2026-09-04 00:18:29 | 52.40329 | 11.34603 | 118° | 29km/h | 29545m | 4.4m/s | -46.4°C | 2.6% | 13.4hPa | 2.6V | 00:00:00 | 02:23:44 | 00:00:00 | |
| DD8BA-10 | 2026-09-04 00:18:28 | 52.40334 | 11.34590 | 118° | 35km/h | 29540m | 5.6m/s | -46.4°C | 2.6% | 13.4hPa | 2.6V | 00:00:00 | 00:00:00 | 00:00:00 | |
| DO2SHX-10 | 2026-09-04 00:18:27 | 52.40337 | 11.34579 | 114° | 26km/h | 29534m | 6.4m/s | -46.4°C | 2.6% | 13.4hPa | 2.5V | 00:00:00 | 02:23:42 | 00:00:00 | |
| TFSTFS | 2026-09-04 00:18:26 | 52.40337 | 11.34579 | 115° | 27km/h | 29534m | 6.4m/s | -46.5°C | 0.3% | 13.5hPa | 2.5V | 00:00:00 | 00:00:00 | 00:00:00 | |
| DB0DAN | 2026-09-04 00:18:25 | 52.40340 | 11.34560 | 94° | 24km/h | 29521m | 5.3m/s | -46.5°C | 0.3% | 13.49hPa | 2.5V | 00:00:00 | 00:00:00 | 00:00:00 | |
| DL1XH1-15 | 2026-09-04 00:18:24 | 52.40340 | 11.34536 | 84° | 35km/h | 29510m | 6.6m/s | -46.5°C | 2.6% | 13.5hPa | 2.6V | 03:28:47 | 02:23:38 | 00:00:00 | |
| HSKMA3-T | 2026-09-04 00:18:24 | 52.40340 | 11.34548 | 86° | 29km/h | 29516m | 5.4m/s | -46.5°C | 0% | 13.5hPa | 2.5V | 03:28:46 | 02:23:39 | 00:00:00 | |
| DO2SHX-10 | 2026-09-04 00:18:24 | 52.40340 | 11.34548 | 87° | 35km/h | 29517m | 5.4m/s | -46.5°C | 2.6% | 13.4hPa | 2.5V | 03:28:00 | 02:23:39 | 00:00:00 | |
| DL1XH-15 | 2026-09-04 00:18:23 | 52.40337 | 11.34505 | 81° | 40km/h | 29499m | 4.7m/s | -46.5°C | 2.6% | 13.5hPa | 2.5V | 03:28:49 | 02:23:36 | 00:00:00 | |
| DF8AY | 2026-09-04 00:18:22 | 52.40338 | 11.34521 | 82° | 40km/h | 29504m | 5.5m/s | -46.5°C | 0% | 13.5hPa | 2.6V | 03:30:28 | 02:23:37 | 00:00:00 | |
| DO2SHX-10 | 2026-09-04 00:18:21 | 52.40337 | 11.34504 | 82° | 40km/h | 29500m | 4.7m/s | -46.5°C | 2.6% | 13.5hPa | 2.6V | 00:00:00 | 02:23:36 | 00:00:00 | |
| DL1NUX | 2026-09-04 00:18:19 | 52.40332 | 11.34419 | 111° | 27km/h | 29462m | 5.3m/s | -46.5°C | 2.6% | 13.6hPa | 2.6V | 03:28:56 | 02:23:29 | 00:00:00 | |
| DF8AY-15 | 2026-09-04 00:18:19 | 52.40334 | 11.34472 | 79° | 27km/h | 29489m | 6.4m/s | -46.5°C | 2.6% | 13.5hPa | 2.6V | 03:28:00 | 02:23:34 | 00:00:00 | |
| DL1XH1-15 | 2026-09-04 00:18:18 | 52.40335 | 11.34407 | 113° | 35km/h | 29456m | 6m/s | -46.5°C | 2.5% | 13.6hPa | 2.6V | 03:28:57 | 02:23:28 | 00:00:00 | |
| DD8BA-10 | 2026-09-04 00:18:18 | 52.40332 | 11.34458 | 77° | 31km/h | 29483m | 6.4m/s | -46.5°C | 2.6% | 13.5hPa | 2.5V | 03:28:00 | 00:00:00 | 00:00:00 | |
| DM0DOS-11 | 2026-09-04 00:18:17 | 52.40330 | 11.34429 | 104° | 24km/h | 29467m | 4.6m/s | -46.5°C | 2.6% | 13.6hPa | 2.5V | 03:28:55 | 02:23:30 | 00:00:00 | |
| HSKMA3-T | 2026-09-04 00:18:14 | 52.40332 | 11.34419 | 112° | 27km/h | 29462m | 5.3m/s | -46.5°C | 0% | 13.6hPa | 2.6V | 03:29:37 | 02:23:29 | 00:00:00 | |
| DF8AY | 2026-09-04 00:18:12 | 52.40338 | 11.34392 | 106° | 40km/h | 29450m | 5.4m/s | -46.4°C | 0% | 13.6hPa | 2.6V | 03:30:28 | 02:23:27 | 00:00:00 | |
| AA1-15 | 2026-09-04 00:18:12 | 52.40341 | 11.34375 | 97° | 44km/h | 29446m | 4.6m/s | -46.4°C | 0% | 13.6hPa | 2.5V | 03:29:37 | 02:23:26 | 00:00:00 | |
| DO2SHX-10 | 2026-09-04 00:18:12 | 52.40338 | 11.34392 | 106° | 42km/h | 29451m | 5.3m/s | -46.4°C | 2.6% | 13.6hPa | 2.5V | 03:28:00 | 02:23:27 | 00:00:00 | |
| DB0DAN | 2026-09-04 00:18:10 | 52.40341 | 11.34358 | 86° | 40km/h | 29441m | 4.7m/s | -46.5°C | 0.4% | 13.68hPa | 2.5V | 00:00:00 | 00:00:00 | 00:00:00 | |
| DL1NUX | 2026-09-04 00:18:09 | 52.40318 | 11.34305 | 47° | 9km/h | 29407m | 5.6m/s | -46.7°C | 2.6% | 13.8hPa | 2.5V | 03:29:06 | 02:23:19 | 00:00:00 | |
| HSKMA3-T | 2026-09-04 00:18:03 | 52.40318 | 11.34302 | 96° | 11km/h | 29401m | 6.2m/s | -46.7°C | 0% | 13.8hPa | 2.5V | 03:29:37 | 02:23:18 | 00:00:00 | |
| DL1XH-15 | 2026-09-04 00:18:03 | 52.40321 | 11.34287 | 108° | 27km/h | 29390m | 5.3m/s | -46.8°C | 2.6% | 13.7hPa | 2.6V | 03:29:09 | 02:23:16 | 00:00:00 | |
| DL1XH-west | 2026-09-04 00:18:02 | 52.40319 | 11.34296 | 114° | 20km/h | 29395m | 5.8m/s | -46.8°C | 0% | 13.8hPa | 2.6V | 03:29:37 | 02:23:17 | 00:00:00 | |
| DF8AY | 2026-09-04 00:18:01 | 52.40315 | 11.34211 | 57° | 26km/h | 29356m | 5.4m/s | -47°C | 0% | 13.8hPa | 2.5V | 03:30:28 | 02:23:10 | 00:00:00 | |
| AA1-15 | 2026-09-04 00:18:00 | 52.40323 | 11.34275 | 103° | 33km/h | 29384m | 5.5m/s | -46.9°C | 0% | 13.8hPa | 2.5V | 03:29:37 | 02:23:15 | 00:00:00 | |
| DO2SHX-10 | 2026-09-04 00:18:00 | 52.40323 | 11.34275 | 104° | 35km/h | 29384m | 5.5m/s | -46.8°C | 2.7% | 13.7hPa | 2.5V | 03:29:00 | 02:23:15 | 00:00:00 | |
| DL1NUX | 2026-09-04 00:17:59 | 52.40311 | 11.34203 | 51° | 20km/h | 29350m | 5.8m/s | -47°C | 2.7% | 13.8hPa | 2.5V | 03:29:16 | 02:23:09 | 00:00:00 | |
| TFSTFS | 2026-09-04 00:17:59 | 52.40324 | 11.34261 | 93° | 35km/h | 29378m | 5.8m/s | -46.9°C | 0.4% | 13.8hPa | 2.6V | 03:29:00 | 00:00:00 | 00:00:00 | |
| DL1XH1-15 | 2026-09-04 00:17:58 | 52.40309 | 11.34197 | 56° | 16km/h | 29344m | 4.9m/s | -47°C | 2.7% | 13.8hPa | 2.6V | 03:29:17 | 02:23:08 | 00:00:00 | |
| DD8BA-10 | 2026-09-04 00:17:58 | 52.40324 | 11.34247 | 81° | 22km/h | 29373m | 5.7m/s | -46.9°C | 2.6% | 13.8hPa | 2.6V | 00:00:00 | 00:00:00 | 00:00:00 | |
| DO2SHX-10 | 2026-09-04 00:17:57 | 52.40322 | 11.34233 | 72° | 31km/h | 29367m | 5.3m/s | -46.9°C | 2.7% | 13.8hPa | 2.6V | 00:00:00 | 02:23:12 | 00:00:00 | |
| DB0DAN | 2026-09-04 00:17:55 | 52.40315 | 11.34211 | 57° | 26km/h | 29356m | 5.4m/s | -47°C | 0.4% | 13.83hPa | 2.5V | 00:00:00 | 00:00:00 | 00:00:00 | |
| HSKMA3-T | 2026-09-04 00:17:52 | 52.40307 | 11.34191 | 62° | 15km/h | 29339m | 4.9m/s | -47°C | 0% | 13.9hPa | 2.6V | 03:29:37 | 02:23:07 | 00:00:00 | |
| DL1XH-west | 2026-09-04 00:17:51 | 52.40305 | 11.34186 | 62° | 16km/h | 29335m | 5.5m/s | -47°C | 0% | 13.9hPa | 2.6V | 03:29:37 | 02:23:06 | 00:00:00 | |
| DO2SHX-10 | 2026-09-04 00:17:51 | 52.40305 | 11.34186 | 62° | 18km/h | 29335m | 5.4m/s | -46.9°C | 2.7% | 13.8hPa | 2.5V | 00:00:00 | 02:23:06 | 00:00:00 | |
| DL1NUX | 2026-09-04 00:17:50 | 52.40285 | 11.34138 | 70° | 13km/h | 29295m | 6.7m/s | -47.1°C | 2.7% | 14hPa | 2.5V | 03:29:26 | 02:22:59 | 00:00:00 | |
| AA1-15 | 2026-09-04 00:17:50 | 52.40300 | 11.34173 | 59° | 22km/h | 29323m | 5.6m/s | -47°C | 0% | 13.9hPa | 2.5V | 03:29:37 | 02:23:04 | 00:00:00 | |
| DF8AY | 2026-09-04 00:17:47 | 52.40294 | 11.34157 | 53° | 24km/h | 29312m | 4.6m/s | -47°C | 0% | 13.9hPa | 2.6V | 03:30:28 | 02:23:02 | 00:00:00 | |
| DD8BA-10 | 2026-09-04 00:17:47 | 52.40293 | 11.34157 | 53° | 20km/h | 29313m | 4.6m/s | -47.0°C | 2.7% | 13.9hPa | 2.5V | 00:00:00 | 00:00:00 | 00:00:00 | |
| DB0NH | 2026-09-04 00:17:46 | 52.40290 | 11.34150 | 53° | 16km/h | 29307m | 5.2m/s | -47.0°C | 2.7% | 13.9hPa | 2.5V | 00:00:00 | 02:23:01 | 00:00:00 | |
| DO2SHX-10 | 2026-09-04 00:17:45 | 52.40287 | 11.34143 | 55° | 15km/h | 29302m | 6.7m/s | -47.0°C | 2.7% | 13.9hPa | 2.5V | 00:00:00 | 02:23:00 | 00:00:00 | |
| DL1XH1-15 | 2026-09-04 00:17:44 | 52.40285 | 11.34133 | 81° | 13km/h | 29289m | 5.5m/s | -47°C | 2.7% | 14hPa | 2.5V | 03:29:27 | 02:22:58 | 00:00:00 | |
| GOEST3-10 | 2026-09-04 00:17:44 | 52.40286 | 11.34138 | 71° | 15km/h | 29295m | 6.7m/s | -47.0°C | 2.7% | 13.9hPa | 2.6V | 00:00:00 | 00:00:00 | 00:00:00 | |
| DL1XH-15 | 2026-09-04 00:17:43 | 52.40284 | 11.34122 | 74° | 16km/h | 29278m | 5m/s | -47°C | 2.7% | 14hPa | 2.6V | 03:29:29 | 02:22:56 | 00:00:00 | |
| HSKMA3-T | 2026-09-04 00:17:42 | 52.40284 | 11.34128 | 82° | 13km/h | 29283m | 5.1m/s | -47°C | 0% | 14hPa | 2.5V | 03:29:37 | 02:22:57 | 00:00:00 | |
| DL1XH-west | 2026-09-04 00:17:40 | 52.40282 | 11.34115 | 69° | 22km/h | 29272m | 6.6m/s | -47°C | 0% | 14hPa | 2.6V | 03:29:37 | 02:22:55 | 00:00:00 | |
| AA1-15 | 2026-09-04 00:17:39 | 52.40279 | 11.34106 | 59° | 26km/h | 29266m | 6.1m/s | -47°C | 0% | 14hPa | 2.5V | 03:29:37 | 02:22:54 | 00:00:00 | |
| DF8AY-15 | 2026-09-04 00:17:39 | 52.40279 | 11.34106 | 60° | 16km/h | 29266m | 6.1m/s | -46.9°C | 2.7% | 14.0hPa | 2.5V | 00:00:00 | 02:22:54 | 00:00:00 | |
| DL1XH1-15 | 2026-09-04 00:17:38 | 52.40257 | 11.34078 | 325° | 9km/h | 29232m | 5.3m/s | -47°C | 2.7% | 14.1hPa | 2.5V | 03:29:37 | 02:22:48 | 00:00:00 | |
| DO3MHA-11 | 2026-09-04 00:17:38 | 52.40275 | 11.34097 | 53° | 15km/h | 29260m | 4.8m/s | -46.9°C | 2.7% | 14.0hPa | 2.5V | 03:29:00 | 02:22:53 | 00:00:00 | |
| DM0DOS-11 | 2026-09-04 00:17:37 | 52.40262 | 11.34078 | 21° | 16km/h | 29245m | 6.7m/s | -47°C | 2.6% | 14.1hPa | 2.5V | 03:29:35 | 02:22:50 | 00:00:00 | |
| DF8AY | 2026-09-04 00:17:35 | 52.40262 | 11.34078 | 21° | 16km/h | 29245m | 6.7m/s | -47°C | 0% | 14.1hPa | 2.5V | 03:30:28 | 02:22:50 | 00:00:00 | |
| DL1XH-15 | 2026-09-04 00:17:35 | 52.40253 | 11.34082 | 342° | 7km/h | 29220m | 6.1m/s | -47°C | 2.7% | 14.1hPa | 2.6V | 03:29:39 | 02:22:46 | 00:00:00 | |
| HSKMA3-T | 2026-09-04 00:17:32 | 52.40255 | 11.34080 | 323° | 7km/h | 29226m | 4.9m/s | -47°C | 0% | 14.1hPa | 2.6V | 03:30:28 | 02:22:47 | 00:00:00 | |
| DM0DOS-11 | 2026-09-04 00:17:31 | 52.40236 | 11.34062 | 32° | 15km/h | 29186m | 6.1m/s | -47°C | 2.7% | 14.2hPa | 2.6V | 03:29:45 | 02:22:40 | 00:00:00 | |
| AA1-15 | 2026-09-04 00:17:29 | 52.40249 | 11.34079 | 33° | 15km/h | 29208m | 5m/s | -47°C | 0% | 14.2hPa | 2.5V | 03:30:28 | 02:22:44 | 00:00:00 | |
| DB0UT-7 | 2026-09-04 00:17:29 | 52.40249 | 11.34079 | 34° | 16km/h | 29209m | 5.0m/s | -47.0°C | 2.7% | 14.1hPa | 2.5V | 03:29:00 | 02:22:44 | 00:00:00 | |
| DO3MHA-11 | 2026-09-04 00:17:28 | 52.40246 | 11.34075 | 46° | 18km/h | 29204m | 4.5m/s | -47.0°C | 2.7% | 14.1hPa | 2.5V | 00:00:00 | 02:22:43 | 00:00:00 | |
| DD8BA-10 | 2026-09-04 00:17:27 | 52.40243 | 11.34070 | 46° | 18km/h | 29199m | 5.2m/s | -47.0°C | 2.7% | 14.1hPa | 2.5V | 00:00:00 | 00:00:00 | 00:00:00 | |
| DL4XJ-10 | 2026-09-04 00:17:26 | 52.40240 | 11.34065 | 41° | 15km/h | 29193m | 6.1m/s | -46.6°C | 0% | 0hPa | 2.5V | 00:00:00 | 00:00:00 | 00:00:00 | |
| DL1XH1-15 | 2026-09-04 00:17:24 | 52.40229 | 11.34057 | 11° | 16km/h | 29175m | 4.8m/s | -47°C | 2.7% | 14.2hPa | 2.5V | 03:29:47 | 02:22:38 | 00:00:00 | |
| DL1XH-15 | 2026-09-04 00:17:24 | 52.40219 | 11.34055 | 6° | 22km/h | 29164m | 6.7m/s | -47°C | 2.7% | 14.2hPa | 2.5V | 03:29:49 | 02:22:36 | 00:00:00 | |
| HSKMA3-T | 2026-09-04 00:17:21 | 52.40219 | 11.34055 | 7° | 22km/h | 29164m | 6.7m/s | -47°C | 0% | 14.2hPa | 2.5V | 03:30:28 | 02:22:36 | 00:00:00 | |
| DL1XH-west | 2026-09-04 00:17:18 | 52.40203 | 11.34055 | 342° | 18km/h | 29149m | 5m/s | -47°C | 0% | 14.3hPa | 2.5V | 03:30:28 | 02:22:33 | 00:00:00 | |
| DO2SHX-10 | 2026-09-04 00:17:18 | 52.40203 | 11.34055 | 342° | 16km/h | 29149m | 4.9m/s | -46.9°C | 2.7% | 14.2hPa | 2.5V | 00:00:00 | 02:22:33 | 00:00:00 | |
| DD8BA-10 | 2026-09-04 00:17:17 | 52.40199 | 11.34058 | 320° | 16km/h | 29143m | 6.8m/s | -46.9°C | 2.6% | 14.3hPa | 2.5V | 00:00:00 | 00:00:00 | 00:00:00 | |
| DB0NH | 2026-09-04 00:17:16 | 52.40197 | 11.34064 | 295° | 13km/h | 29136m | 6.7m/s | -46.9°C | 2.7% | 14.2hPa | 2.5V | 00:00:00 | 02:22:31 | 00:00:00 | |
| DL1XH-15 | 2026-09-04 00:17:15 | 52.40189 | 11.34079 | 27° | 16km/h | 29107m | 5.9m/s | -46.8°C | 2.6% | 14.4hPa | 2.5V | 03:29:59 | 02:22:26 | 00:00:00 | |
| HSKMA3-T | 2026-09-04 00:17:11 | 52.40189 | 11.34079 | 28° | 16km/h | 29107m | 5.9m/s | -46.8°C | 0% | 14.4hPa | 2.5V | 03:30:28 | 02:22:26 | 00:00:00 | |
| DF8AY | 2026-09-04 00:17:11 | 52.40154 | 11.34085 | 256° | 11km/h | 29039m | 6.8m/s | -46.7°C | 0% | 14.5hPa | 2.6V | 03:30:28 | 02:22:14 | 00:00:00 | |
| DB0DAN | 2026-09-04 00:17:10 | 52.40185 | 11.34075 | 36° | 22km/h | 29102m | 5.2m/s | -46.8°C | 0.4% | 14.41hPa | 2.5V | 00:00:00 | 00:00:00 | 00:00:00 | |
| DM0DOS-11 | 2026-09-04 00:17:10 | 52.40166 | 11.34058 | 339° | 11km/h | 29073m | 5.6m/s | -46.8°C | 2.7% | 14.4hPa | 2.5V | 03:30:05 | 02:22:20 | 00:00:00 | |
| AA1-15 | 2026-09-04 00:17:08 | 52.40176 | 11.34064 | 39° | 20km/h | 29090m | 6.5m/s | -46.8°C | 0% | 14.4hPa | 2.6V | 03:30:28 | 02:22:23 | 00:00:00 | |
| DD8BA-10 | 2026-09-04 00:17:07 | 52.40172 | 11.34060 | 29° | 13km/h | 29085m | 5.8m/s | -46.8°C | 2.7% | 14.4hPa | 2.5V | 00:00:00 | 00:00:00 | 00:00:00 | |
| DO2SHX-10 | 2026-09-04 00:17:06 | 52.40169 | 11.34058 | 14° | 11km/h | 29079m | 5.4m/s | -46.8°C | 2.7% | 14.4hPa | 2.5V | 00:00:00 | 02:22:21 | 00:00:00 | |
| SMARD9-15 | 2026-09-04 00:17:05 | 52.40166 | 11.34058 | 339° | 9km/h | 29073m | 5.6m/s | -46.8°C | 0.4% | 14.4hPa | 2.5V | 00:00:00 | 00:00:00 | 00:00:00 | |
| DL1XH-15 | 2026-09-04 00:17:03 | 52.40156 | 11.34076 | 300° | 16km/h | 29050m | 4.4m/s | -46.7°C | 2.6% | 14.5hPa | 2.5V | 03:30:09 | 02:22:16 | 00:00:00 | |
| HSKMA3-T | 2026-09-04 00:17:00 | 52.40154 | 11.34081 | 286° | 13km/h | 29045m | 4.9m/s | -46.7°C | 0% | 14.5hPa | 2.5V | 03:30:28 | 02:22:15 | 00:00:00 | |
| DO2SHX-10 | 2026-09-04 00:17:00 | 52.40154 | 11.34081 | 287° | 11km/h | 29045m | 4.8m/s | -46.6°C | 2.6% | 14.5hPa | 2.6V | 03:30:00 | 02:22:15 | 00:00:00 | |
| DF8AY-15 | 2026-09-04 00:16:59 | 52.40154 | 11.34085 | 256° | 11km/h | 29040m | 6.8m/s | -46.6°C | 2.6% | 14.5hPa | 2.6V | 03:30:00 | 02:22:14 | 00:00:00 | |
| DL1XH1-15 | 2026-09-04 00:16:58 | 52.40158 | 11.34080 | 48° | 16km/h | 29002m | 5.5m/s | -46.7°C | 2.6% | 14.6hPa | 2.6V | 03:30:17 | 02:22:08 | 00:00:00 | |
| DL1XH-west | 2026-09-04 00:16:58 | 52.40155 | 11.34089 | 220° | 9km/h | 29032m | 6.6m/s | -46.7°C | 0% | 14.5hPa | 2.6V | 03:30:28 | 02:22:13 | 00:00:00 | |
| AA1-15 | 2026-09-04 00:16:58 | 52.40157 | 11.34090 | 187° | 9km/h | 29026m | 5.2m/s | -46.7°C | 0% | 14.6hPa | 2.5V | 03:30:28 | 02:22:12 | 00:00:00 | |
| DO2SHX-10 | 2026-09-04 00:16:57 | 52.40157 | 11.34090 | 187° | 7km/h | 29027m | 5.1m/s | -46.6°C | 2.6% | 14.5hPa | 2.6V | 00:00:00 | 02:22:12 | 00:00:00 | |
| NBG1-10 | 2026-09-04 00:16:56 | 52.40159 | 11.34090 | 147° | 13km/h | 29022m | 4.8m/s | -46.6°C | 2.6% | 14.5hPa | 2.6V | 00:00:00 | 02:22:11 | 00:00:00 | |
| DL1NUX | 2026-09-04 00:16:55 | 52.40160 | 11.34084 | 61° | 11km/h | 29008m | 6.8m/s | -46.7°C | 2.6% | 14.6hPa | 2.6V | 03:30:16 | 02:22:09 | 00:00:00 | |
| DL1XH-15 | 2026-09-04 00:16:55 | 52.40152 | 11.34071 | 42° | 13km/h | 28992m | 6.2m/s | -46.8°C | 2.6% | 14.6hPa | 2.5V | 03:30:19 | 02:22:06 | 00:00:00 | |
| HSKMA3-T | 2026-09-04 00:16:50 | 52.40150 | 11.34068 | 34° | 7km/h | 28986m | 6m/s | -46.9°C | 0% | 14.6hPa | 2.5V | 03:30:28 | 02:22:05 | 00:00:00 | |
| DM0DOS-11 | 2026-09-04 00:16:49 | 52.40146 | 11.34078 | 261° | 9km/h | 28956m | 4.3m/s | -47°C | 2.7% | 14.7hPa | 2.5V | 03:30:25 | 02:22:00 | 00:00:00 | |
| DF8AY | 2026-09-04 00:16:48 | 52.40148 | 11.34068 | 303° | 5km/h | 28974m | 5.2m/s | -46.9°C | 0% | 14.7hPa | 2.6V | 03:30:28 | 02:22:03 | 00:00:00 | |
| AA1-15 | 2026-09-04 00:16:47 | 52.40147 | 11.34071 | 298° | 9km/h | 28968m | 7.1m/s | -47°C | 0% | 14.7hPa | 2.6V | 03:30:28 | 02:22:02 | 00:00:00 | |
| DD8BA-10 | 2026-09-04 00:16:47 | 52.40147 | 11.34071 | 298° | 13km/h | 28968m | 7.0m/s | -46.9°C | 2.7% | 14.6hPa | 2.5V | 00:00:00 | 00:00:00 | 00:00:00 | |
| DF7ER-10 | 2026-09-04 00:16:46 | 52.40147 | 11.34074 | 287° | 11km/h | 28961m | 5.8m/s | -47.0°C | 0.4% | 14.7hPa | 2.5V | 03:30:00 | 00:00:00 | 00:00:00 | |
| DL1XH1-15 | 2026-09-04 00:16:45 | 52.40150 | 11.34085 | 209° | 13km/h | 28945m | 6.6m/s | -47°C | 2.7% | 14.7hPa | 2.5V | 03:30:27 | 02:21:58 | 00:00:00 | |
| HSKMA3-T | 2026-09-04 00:16:39 | 52.40160 | 11.34078 | 94° | 13km/h | 28922m | 7m/s | -47°C | 0% | 14.8hPa | 2.5V | 03:31:19 | 02:21:54 | 00:00:00 | |
| DF8AY | 2026-09-04 00:16:37 | 52.40163 | 11.34073 | 215° | 27km/h | 28877m | 5.8m/s | -47°C | 0% | 14.9hPa | 2.6V | 03:31:19 | 02:21:46 | 00:00:00 | |
| DM0DOS-11 | 2026-09-04 00:16:37 | 52.40152 | 11.34060 | 27° | 7km/h | 28902m | 5m/s | -47°C | 2.6% | 14.8hPa | 2.5V | 03:30:35 | 02:21:50 | 00:00:00 | |
| AA1-15 | 2026-09-04 00:16:36 | 52.40154 | 11.34063 | 41° | 13km/h | 28906m | 3.6m/s | -47°C | 0% | 14.8hPa | 2.5V | 03:31:19 | 02:21:51 | 00:00:00 | |
| DO2SHX-10 | 2026-09-04 00:16:36 | 52.40154 | 11.34063 | 41° | 7km/h | 28907m | 3.5m/s | -47.0°C | 2.6% | 14.7hPa | 2.5V | 03:30:00 | 02:21:51 | 00:00:00 | |
| DL1XH-15 | 2026-09-04 00:16:35 | 52.40163 | 11.34073 | 215° | 27km/h | 28877m | 5.8m/s | -47°C | 2.7% | 14.9hPa | 2.6V | 03:30:39 | 02:21:46 | 00:00:00 | |
| DL1NUX | 2026-09-04 00:16:35 | 52.40152 | 11.34060 | 226° | 4km/h | 28896m | 6.5m/s | -47°C | 2.6% | 14.8hPa | 2.5V | 03:30:36 | 02:21:49 | 00:00:00 | |
| DO3MHA-11 | 2026-09-04 00:16:35 | 52.40152 | 11.34060 | 28° | 9km/h | 28902m | 5.0m/s | -47.0°C | 2.6% | 14.7hPa | 2.6V | 00:00:00 | 02:21:50 | 00:00:00 | |
| SMARD9-15 | 2026-09-04 00:16:34 | 52.40152 | 11.34060 | 226° | 4km/h | 28896m | 6.5m/s | -47.0°C | 0.4% | 14.8hPa | 2.6V | 00:00:00 | 00:00:00 | 00:00:00 | |
| DO2SHX-10 | 2026-09-04 00:16:33 | 52.40154 | 11.34062 | 216° | 22km/h | 28890m | 6.6m/s | -47.0°C | 2.6% | 14.8hPa | 2.6V | 00:00:00 | 02:21:48 | 00:00:00 | |
| DH0BRO-15 | 2026-09-04 00:16:32 | 52.40158 | 11.34067 | 217° | 24km/h | 28883m | 6.2m/s | 0°C | 0% | 0hPa | 2.6V | 00:00:00 | 00:00:00 | 00:00:00 | |
| DF2AP-13 | 2026-09-04 00:16:31 | 52.40163 | 11.34073 | 216° | 15km/h | 28877m | 5.8m/s | -47.0°C | 2.7% | 14.8hPa | 2.6V | 00:00:00 | 02:21:46 | 00:00:00 | |
| DO2SHX-10 | 2026-09-04 00:16:30 | 52.40169 | 11.34080 | 215° | 22km/h | 28871m | 6.0m/s | -47.0°C | 2.7% | 14.9hPa | 2.5V | 00:00:00 | 02:21:45 | 00:00:00 | |
| DL1NUX | 2026-09-04 00:16:29 | 52.40187 | 11.34088 | 139° | 11km/h | 28835m | 6.2m/s | -47.1°C | 2.7% | 15hPa | 2.5V | 03:30:46 | 02:21:39 | 00:00:00 | |
| HSKMA3-T | 2026-09-04 00:16:28 | 52.40178 | 11.34090 | 211° | 16km/h | 28859m | 5.5m/s | -47.1°C | 0% | 14.9hPa | 2.5V | 03:31:19 | 02:21:43 | 00:00:00 | |
| DM0DOS-11 | 2026-09-04 00:16:27 | 52.40185 | 11.34090 | 132° | 7km/h | 28841m | 5.9m/s | -47.1°C | 2.7% | 14.9hPa | 2.6V | 03:30:45 | 02:21:40 | 00:00:00 | |
| AA1-15 | 2026-09-04 00:16:26 | 52.40184 | 11.34092 | 164° | 7km/h | 28847m | 5.7m/s | -47.1°C | 0% | 15hPa | 2.6V | 03:31:19 | 02:21:41 | 00:00:00 | |
| DL1XH-west | 2026-09-04 00:16:25 | 52.40185 | 11.34090 | 133° | 7km/h | 28841m | 5.9m/s | -47.1°C | 0% | 14.9hPa | 2.6V | 03:31:19 | 02:21:40 | 00:00:00 | |
| DB0DAN | 2026-09-04 00:16:25 | 52.40185 | 11.34090 | 133° | 7km/h | 28841m | 5.9m/s | -47.1°C | 0.4% | 14.94hPa | 2.6V | 00:00:00 | 00:00:00 | 00:00:00 | |
| DL1XH1-15 | 2026-09-04 00:16:24 | 52.40189 | 11.34085 | 142° | 11km/h | 28829m | 5.4m/s | -47.2°C | 2.7% | 15hPa | 2.5V | 03:30:47 | 02:21:38 | 00:00:00 | |
| DF8AY | 2026-09-04 00:16:21 | 52.40197 | 11.34080 | 175° | 9km/h | 28813m | 5.2m/s | -47.3°C | 0% | 15hPa | 2.6V | 03:31:19 | 02:21:35 | 00:00:00 | |
| HSKMA3-T | 2026-09-04 00:16:17 | 52.40201 | 11.34084 | 257° | 7km/h | 28795m | 4.9m/s | -47.3°C | 0% | 15.1hPa | 2.6V | 03:31:19 | 02:21:32 | 00:00:00 | |
| AA1-15 | 2026-09-04 00:16:16 | 52.40201 | 11.34087 | 240° | 9km/h | 28790m | 5.2m/s | -47.3°C | 0% | 15.1hPa | 2.6V | 03:31:19 | 02:21:31 | 00:00:00 | |
| DB0NH | 2026-09-04 00:16:16 | 52.40201 | 11.34087 | 241° | 20km/h | 28791m | 5.2m/s | -47.3°C | 2.7% | 15.0hPa | 2.5V | 00:00:00 | 02:21:31 | 00:00:00 | |
| DL1NUX | 2026-09-04 00:16:15 | 52.40206 | 11.34095 | 211° | 18km/h | 28779m | 5.9m/s | -47.4°C | 2.7% | 15.1hPa | 2.5V | 03:30:56 | 02:21:29 | 00:00:00 | |
| DL1XH-west | 2026-09-04 00:16:15 | 52.40211 | 11.34098 | 197° | 20km/h | 28773m | 4.7m/s | -47.4°C | 0% | 15.1hPa | 2.5V | 03:31:19 | 02:21:28 | 00:00:00 | |
| DL1XH1-15 | 2026-09-04 00:16:15 | 52.40211 | 11.34098 | 197° | 20km/h | 28773m | 4.7m/s | -47.4°C | 2.7% | 15.1hPa | 2.5V | 03:30:57 | 02:21:28 | 00:00:00 | |
| DF8AY | 2026-09-04 00:16:10 | 52.40225 | 11.34099 | 167° | 16km/h | 28757m | 6.3m/s | -47.4°C | 0% | 15.2hPa | 2.6V | 03:31:19 | 02:21:25 | 00:00:00 | |
| DB0DAN | 2026-09-04 00:16:10 | 52.40225 | 11.34099 | 167° | 16km/h | 28757m | 6.3m/s | -47.4°C | 0.4% | 15.17hPa | 2.6V | 00:00:00 | 00:00:00 | 00:00:00 | |
| DL1NUX | 2026-09-04 00:16:09 | 52.40244 | 11.34105 | 217° | 22km/h | 28722m | 5.5m/s | -47.4°C | 2.7% | 15.2hPa | 2.6V | 03:31:06 | 02:21:19 | 00:00:00 | |
| SONCRA | 2026-09-04 00:16:09 | 52.40231 | 11.34095 | 161° | 7km/h | 28746m | 4.9m/s | -47.4°C | 0.4% | 15.2hPa | 2.5V | 00:00:00 | 00:00:00 | 00:00:00 | |
| DL1XH1-15 | 2026-09-04 00:16:08 | 52.40248 | 11.34111 | 214° | 24km/h | 28716m | 5.2m/s | -47.4°C | 2.7% | 15.2hPa | 2.5V | 03:31:07 | 02:21:18 | 00:00:00 | |
| DM0DOS-11 | 2026-09-04 00:16:08 | 52.40239 | 11.34100 | 218° | 18km/h | 28728m | 6m/s | -47.4°C | 2.7% | 15.2hPa | 2.6V | 03:31:05 | 02:21:20 | 00:00:00 | |
| HSKMA3-T | 2026-09-04 00:16:06 | 52.40236 | 11.34096 | 209° | 13km/h | 28734m | 6.6m/s | -47.4°C | 0% | 15.2hPa | 2.6V | 03:31:19 | 02:21:21 | 00:00:00 | |
| DL1XH-west | 2026-09-04 00:16:05 | 52.40239 | 11.34100 | 218° | 18km/h | 28728m | 6m/s | -47.4°C | 0% | 15.2hPa | 2.6V | 03:31:19 | 02:21:20 | 00:00:00 | |
| DF8AY | 2026-09-04 00:16:00 | 52.40270 | 11.34120 | 175° | 27km/h | 28694m | 5.5m/s | -47.3°C | 0% | 15.3hPa | 2.6V | 03:31:19 | 02:21:14 | 00:00:00 | |
| DO2SHX-10 | 2026-09-04 00:16:00 | 52.40264 | 11.34120 | 181° | 27km/h | 28700m | 5.1m/s | -47.3°C | 2.7% | 15.2hPa | 2.6V | 03:31:00 | 02:21:15 | 00:00:00 | |
| DB0UT-7 | 2026-09-04 00:15:59 | 52.40270 | 11.34120 | 176° | 16km/h | 28694m | 5.5m/s | -47.3°C | 2.7% | 15.3hPa | 2.6V | 00:00:00 | 00:00:00 | 00:00:00 | |
| SP3BTT-10 | 2026-09-04 00:15:58 | 52.40277 | 11.34119 | 174° | 16km/h | 28688m | 6.7m/s | -47.3°C | 2.7% | 15.3hPa | 2.6V | 00:00:00 | 00:00:00 | 00:00:00 | |
| DM0DOS-11 | 2026-09-04 00:15:57 | 52.40300 | 11.34111 | 162° | 29km/h | 28671m | 4.7m/s | -47.3°C | 2.7% | 15.3hPa | 2.6V | 03:31:15 | 02:21:10 | 00:00:00 | |
| HSKMA3-T | 2026-09-04 00:15:56 | 52.40293 | 11.34115 | 166° | 31km/h | 28676m | 4.4m/s | -47.4°C | 0% | 15.3hPa | 2.5V | 03:31:19 | 02:21:11 | 00:00:00 | |
| DB0DAN | 2026-09-04 00:15:55 | 52.40300 | 11.34111 | 162° | 27km/h | 28672m | 4.7m/s | -47.3°C | 0.4% | 15.36hPa | 2.6V | 00:00:00 | 00:00:00 | 00:00:00 | |
| DL1NUX | 2026-09-04 00:15:55 | 52.40306 | 11.34107 | 153° | 24km/h | 28666m | 6.5m/s | -47.3°C | 2.7% | 15.4hPa | 2.6V | 03:31:16 | 02:21:09 | 00:00:00 | |
| DL1XH-west | 2026-09-04 00:15:55 | 52.40300 | 11.34111 | 163° | 29km/h | 28672m | 4.7m/s | -47.3°C | 0% | 15.4hPa | 2.6V | 03:31:19 | 02:21:10 | 00:00:00 | |
| DL1XH1-15 | 2026-09-04 00:15:54 | 52.40311 | 11.34103 | 142° | 20km/h | 28660m | 6.5m/s | -47.3°C | 2.7% | 15.4hPa | 2.6V | 03:31:17 | 02:21:08 | 00:00:00 | |
| AA1-15 | 2026-09-04 00:15:54 | 52.40306 | 11.34107 | 153° | 24km/h | 28666m | 6.5m/s | -47.3°C | 0% | 15.4hPa | 2.6V | 03:31:19 | 02:21:09 | 00:00:00 | |
| SONDE2-11 | 2026-09-04 00:15:51 | 52.40319 | 11.34094 | 178° | 9km/h | 28643m | 5.4m/s | -47.4°C | 0.4% | 15.4hPa | 2.5V | 00:00:00 | 00:00:00 | 00:00:00 | |
| DL1CLM-18 | 2026-09-04 00:15:50 | 52.40316 | 11.34095 | 146° | 11km/h | 28649m | 4.8m/s | -47.3°C | 0.4% | 15.4hPa | 2.5V | 03:31:00 | 00:00:00 | 00:00:00 | |
| DL1NUX | 2026-09-04 00:15:49 | 52.40343 | 11.34116 | 192° | 13km/h | 28609m | 5.6m/s | -47.5°C | 2.7% | 15.5hPa | 2.5V | 03:31:26 | 02:20:59 | 00:00:00 | |
| EDDB2-11 | 2026-09-04 00:15:49 | 52.40322 | 11.34095 | 205° | 15km/h | 28637m | 7.0m/s | -47.4°C | 0.4% | 15.4hPa | 2.5V | 00:00:00 | 00:00:00 | 00:00:00 | |
| DO2SHX-10 | 2026-09-04 00:15:48 | 52.40325 | 11.34099 | 213° | 22km/h | 28631m | 6.0m/s | -47.4°C | 2.7% | 15.4hPa | 2.5V | 03:31:00 | 02:21:03 | 00:00:00 | |
| DM0DOS-11 | 2026-09-04 00:15:47 | 52.40339 | 11.34114 | 207° | 18km/h | 28614m | 6m/s | -47.5°C | 2.7% | 15.5hPa | 2.5V | 03:31:25 | 02:21:00 | 00:00:00 | |
| HSKMA3-T | 2026-09-04 00:15:45 | 52.40339 | 11.34114 | 208° | 18km/h | 28614m | 6m/s | -47.5°C | 0% | 15.5hPa | 2.5V | 03:32:10 | 02:21:00 | 00:00:00 | |
| AA1-15 | 2026-09-04 00:15:44 | 52.40343 | 11.34116 | 192° | 13km/h | 28609m | 5.6m/s | -47.5°C | 0% | 15.5hPa | 2.5V | 03:32:10 | 02:20:59 | 00:00:00 | |
| TFSTFS | 2026-09-04 00:15:43 | 52.40343 | 11.34116 | 193° | 13km/h | 28609m | 5.6m/s | -47.5°C | 0.4% | 15.5hPa | 2.6V | 03:32:00 | 00:00:00 | 00:00:00 | |
| DO2SHX-10 | 2026-09-04 00:15:42 | 52.40349 | 11.34113 | 146° | 16km/h | 28598m | 4.7m/s | -47.5°C | 2.7% | 15.5hPa | 2.6V | 00:00:00 | 02:20:57 | 00:00:00 | |
| DJ8HS-15 | 2026-09-04 00:15:41 | 52.40352 | 11.34110 | 141° | 16km/h | 28593m | 5.8m/s | -47.5°C | 2.8% | 15.5hPa | 2.6V | 00:00:00 | 02:20:56 | 00:00:00 | |
| DL1NUX | 2026-09-04 00:15:40 | 52.40372 | 11.34079 | 69° | 5km/h | 28552m | 5.6m/s | -47.6°C | 2.8% | 15.6hPa | 2.6V | 03:31:36 | 02:20:49 | 00:00:00 | |
| DF8AY-15 | 2026-09-04 00:15:39 | 52.40360 | 11.34100 | 145° | 15km/h | 28581m | 5.7m/s | -47.5°C | 2.8% | 15.5hPa | 2.6V | 03:31:00 | 02:20:54 | 00:00:00 | |
| DL1XH1-15 | 2026-09-04 00:15:38 | 52.40371 | 11.34078 | 36° | 5km/h | 28547m | 5.3m/s | -47.6°C | 2.7% | 15.6hPa | 2.6V | 03:31:37 | 02:20:48 | 00:00:00 | |
| SONCRA | 2026-09-04 00:15:38 | 52.40368 | 11.34090 | 141° | 16km/h | 28570m | 4.6m/s | -47.6°C | 0.4% | 15.6hPa | 2.5V | 00:00:00 | 00:00:00 | 00:00:00 | |
| DM0DOS-11 | 2026-09-04 00:15:37 | 52.40372 | 11.34082 | 111° | 9km/h | 28559m | 6.8m/s | -47.6°C | 2.8% | 15.6hPa | 2.5V | 03:31:35 | 02:20:50 | 00:00:00 | |
| HSKMA3-T | 2026-09-04 00:15:35 | 52.40372 | 11.34082 | 112° | 9km/h | 28559m | 6.8m/s | -47.6°C | 0% | 15.6hPa | 2.5V | 03:32:10 | 02:20:50 | 00:00:00 | |
| DF8AY | 2026-09-04 00:15:34 | 52.40385 | 11.34083 | 172° | 18km/h | 28513m | 5.9m/s | -47.5°C | 0% | 15.7hPa | 2.6V | 03:35:34 | 02:20:42 | 00:00:00 | |
| AA1-15 | 2026-09-04 00:15:33 | 52.40371 | 11.34078 | 36° | 5km/h | 28547m | 5.3m/s | -47.6°C | 0% | 15.6hPa | 2.6V | 03:32:10 | 02:20:48 | 00:00:00 | |
| DO2SHX-10 | 2026-09-04 00:15:33 | 52.40371 | 11.34077 | 37° | 4km/h | 28547m | 5.3m/s | -47.5°C | 2.7% | 15.6hPa | 2.6V | 00:00:00 | 02:20:48 | 00:00:00 | |
| DO3MHA-11 | 2026-09-04 00:15:32 | 52.40371 | 11.34077 | 327° | 15km/h | 28542m | 5.2m/s | -47.5°C | 2.7% | 15.6hPa | 2.5V | 03:31:00 | 02:20:47 | 00:00:00 | |
| DF2AP-13 | 2026-09-04 00:15:31 | 52.40371 | 11.34078 | 222° | 13km/h | 28536m | 6.2m/s | -47.5°C | 2.8% | 15.6hPa | 2.5V | 03:31:00 | 02:20:46 | 00:00:00 | |
| DO2SHX-10 | 2026-09-04 00:15:30 | 52.40373 | 11.34080 | 205° | 16km/h | 28530m | 6.0m/s | -47.5°C | 2.8% | 15.6hPa | 2.5V | 00:00:00 | 02:20:45 | 00:00:00 | |
| DL1NUX | 2026-09-04 00:15:29 | 52.40399 | 11.34066 | 120° | 18km/h | 28488m | 6.9m/s | -47.5°C | 2.7% | 15.8hPa | 2.5V | 03:31:47 | 02:20:38 | 00:00:00 | |
| DB0UT-7 | 2026-09-04 00:15:29 | 52.40376 | 11.34082 | 195° | 13km/h | 28524m | 4.8m/s | -47.5°C | 2.7% | 15.6hPa | 2.5V | 03:31:00 | 02:20:44 | 00:00:00 | |
| DL1XH1-15 | 2026-09-04 00:15:28 | 52.40399 | 11.34066 | 120° | 18km/h | 28488m | 6.9m/s | -47.5°C | 2.7% | 15.8hPa | 2.5V | 03:31:47 | 02:20:38 | 00:00:00 | |
| HSKMA3-T | 2026-09-04 00:15:25 | 52.40393 | 11.34077 | 141° | 16km/h | 28501m | 5.9m/s | -47.5°C | 0% | 15.7hPa | 2.5V | 03:32:10 | 02:20:40 | 00:00:00 | |
| DL4XJ-10 | 2026-09-04 00:15:25 | 52.40393 | 11.34077 | 142° | 16km/h | 28501m | 5.9m/s | -47.1°C | 0% | 0hPa | 2.5V | 00:00:00 | 00:00:00 | 00:00:00 | |
| DO2SHX-10 | 2026-09-04 00:15:24 | 52.40396 | 11.34072 | 131° | 16km/h | 28495m | 5.9m/s | -47.4°C | 2.8% | 15.7hPa | 2.5V | 03:31:00 | 02:20:39 | 00:00:00 | |
| DL1XH-15 | 2026-09-04 00:15:23 | 52.40403 | 11.34055 | 110° | 13km/h | 28477m | 5.2m/s | -47.5°C | 2.8% | 15.8hPa | 2.6V | 03:31:49 | 02:20:36 | 00:00:00 | |
| AA1-15 | 2026-09-04 00:15:23 | 52.40399 | 11.34066 | 120° | 18km/h | 28488m | 6.9m/s | -47.5°C | 0% | 15.8hPa | 2.5V | 03:32:10 | 02:20:38 | 00:00:00 | |
| DO3MHA-11 | 2026-09-04 00:15:22 | 52.40401 | 11.34060 | 120° | 13km/h | 28482m | 5.5m/s | -47.4°C | 2.7% | 15.8hPa | 2.6V | 00:00:00 | 02:20:37 | 00:00:00 | |
| DO2SHX-10 | 2026-09-04 00:15:21 | 52.40403 | 11.34055 | 111° | 11km/h | 28477m | 5.1m/s | -47.4°C | 2.8% | 15.8hPa | 2.5V | 00:00:00 | 02:20:36 | 00:00:00 | |
| SONDE2-11 | 2026-09-04 00:15:20 | 52.40403 | 11.34046 | 61° | 11km/h | 28466m | 6.2m/s | -47.4°C | 0.4% | 15.8hPa | 2.5V | 00:00:00 | 00:00:00 | 00:00:00 | |
| DF8AY-15 | 2026-09-04 00:15:19 | 52.40403 | 11.34046 | 62° | 13km/h | 28466m | 6.2m/s | -47.4°C | 2.7% | 15.8hPa | 2.5V | 00:00:00 | 02:20:34 | 00:00:00 | |
| DO2SHX-10 | 2026-09-04 00:15:18 | 52.40401 | 11.34042 | 44° | 11km/h | 28459m | 7.0m/s | -47.4°C | 2.7% | 15.8hPa | 2.6V | 00:00:00 | 02:20:33 | 00:00:00 | |
| DM0DOS-11 | 2026-09-04 00:15:17 | 52.40395 | 11.34036 | 104° | 4km/h | 28442m | 6m/s | -47.3°C | 2.7% | 15.9hPa | 2.6V | 03:31:55 | 02:20:30 | 00:00:00 | |
| DD8BA-10 | 2026-09-04 00:15:17 | 52.40398 | 11.34040 | 31° | 13km/h | 28453m | 4.8m/s | -47.3°C | 2.7% | 15.8hPa | 2.6V | 00:00:00 | 00:00:00 | 00:00:00 | |
| DF8AY | 2026-09-04 00:15:17 | 52.40404 | 11.34033 | 171° | 20km/h | 28425m | 4.9m/s | -47.4°C | 0% | 15.9hPa | 2.5V | 03:35:34 | 02:20:27 | 00:00:00 | |
| DL1XH-15 | 2026-09-04 00:15:16 | 52.40409 | 11.34031 | 163° | 20km/h | 28420m | 6.1m/s | -47.5°C | 2.8% | 15.9hPa | 2.6V | 03:31:59 | 02:20:26 | 00:00:00 | |
| DL1NUX | 2026-09-04 00:15:16 | 52.40404 | 11.34033 | 171° | 20km/h | 28425m | 4.9m/s | -47.4°C | 2.7% | 15.9hPa | 2.5V | 03:31:58 | 02:20:27 | 00:00:00 | |
| HSKMA3-T | 2026-09-04 00:15:15 | 52.40395 | 11.34036 | 105° | 4km/h | 28442m | 6m/s | -47.3°C | 0% | 15.9hPa | 2.6V | 03:32:10 | 02:20:30 | 00:00:00 | |
| DL1XH-west | 2026-09-04 00:15:13 | 52.40413 | 11.34028 | 150° | 16km/h | 28414m | 6m/s | -47.5°C | 0% | 16hPa | 2.6V | 03:32:10 | 02:20:25 | 00:00:00 | |
| AA1-15 | 2026-09-04 00:15:12 | 52.40416 | 11.34024 | 128° | 15km/h | 28408m | 6m/s | -47.5°C | 0% | 16hPa | 2.6V | 03:32:10 | 02:20:24 | 00:00:00 | |
| DO2SHX-10 | 2026-09-04 00:15:12 | 52.40404 | 11.34033 | 172° | 20km/h | 28426m | 4.9m/s | -47.4°C | 2.7% | 15.9hPa | 2.6V | 03:31:00 | 02:20:27 | 00:00:00 | |
| DM0DOS-11 | 2026-09-04 00:15:11 | 52.40418 | 11.34006 | 84° | 9km/h | 28385m | 5.6m/s | -47.6°C | 2.8% | 16hPa | 2.6V | 03:32:05 | 02:20:20 | 00:00:00 | |
| DF7ER-10 | 2026-09-04 00:15:11 | 52.40409 | 11.34031 | 164° | 20km/h | 28420m | 6.1m/s | -47.5°C | 0.5% | 16.0hPa | 2.5V | 03:32:00 | 00:00:00 | 00:00:00 | |
| DO2SHX-10 | 2026-09-04 00:15:10 | 52.40416 | 11.34024 | 128° | 13km/h | 28408m | 6.0m/s | -47.4°C | 2.7% | 15.9hPa | 2.5V | 00:00:00 | 02:20:24 | 00:00:00 | |
| DL1NUX | 2026-09-04 00:15:08 | 52.40417 | 11.33999 | 63° | 11km/h | 28374m | 5.9m/s | -47.5°C | 2.8% | 16.1hPa | 2.5V | 03:32:07 | 02:20:18 | 00:00:00 | |
| DF8AY | 2026-09-04 00:15:07 | 52.40418 | 11.34010 | 82° | 11km/h | 28390m | 6.5m/s | -47.6°C | 0% | 16hPa | 2.5V | 03:35:34 | 02:20:21 | 00:00:00 | |
| HSKMA3-T | 2026-09-04 00:15:04 | 52.40418 | 11.34002 | 69° | 9km/h | 28379m | 5.1m/s | -47.5°C | 0% | 16.1hPa | 2.6V | 03:32:10 | 02:20:19 | 00:00:00 | |
| GOEST3-10 | 2026-09-04 00:15:04 | 52.40418 | 11.34002 | 70° | 11km/h | 28379m | 5.0m/s | -47.5°C | 2.7% | 16.0hPa | 2.6V | 00:00:00 | 02:20:19 | 00:00:00 | |
| DL1XH-15 | 2026-09-04 00:15:03 | 52.40414 | 11.33990 | 70° | 13km/h | 28361m | 5.3m/s | -47.5°C | 2.7% | 16.1hPa | 2.6V | 03:32:09 | 02:20:16 | 00:00:00 | |
| AA1-15 | 2026-09-04 00:15:01 | 52.40414 | 11.33990 | 71° | 13km/h | 28361m | 5.3m/s | -47.5°C | 0% | 16.1hPa | 2.6V | 03:32:10 | 02:20:16 | 00:00:00 | |
| DJ8HS-15 | 2026-09-04 00:15:01 | 52.40414 | 11.33990 | 71° | 13km/h | 28361m | 5.3m/s | -47.5°C | 2.7% | 16.1hPa | 2.5V | 00:00:00 | 02:20:16 | 00:00:00 | |
| DO2SHX-10 | 2026-09-04 00:15:00 | 52.40413 | 11.33985 | 92° | 11km/h | 28356m | 5.3m/s | -47.5°C | 2.7% | 16.1hPa | 2.5V | 03:32:00 | 02:20:15 | 00:00:00 | |
| DB0UT-7 | 2026-09-04 00:14:59 | 52.40414 | 11.33980 | 117° | 13km/h | 28350m | 6.5m/s | -47.5°C | 2.7% | 16.1hPa | 2.5V | 00:00:00 | 00:00:00 | 00:00:00 | |
| DL1XH1-15 | 2026-09-04 00:14:58 | 52.40429 | 11.33961 | 94° | 16km/h | 28314m | 5.8m/s | -47.5°C | 2.7% | 16.2hPa | 2.5V | 03:32:17 | 02:20:08 | 00:00:00 | |
| DF8AY | 2026-09-04 00:14:56 | 52.40422 | 11.33974 | 162° | 15km/h | 28331m | 4.8m/s | -47.5°C | 0% | 16.2hPa | 2.6V | 03:35:34 | 02:20:11 | 00:00:00 | |
| DB0DAN | 2026-09-04 00:14:55 | 52.40426 | 11.33971 | 146° | 13km/h | 28326m | 5.5m/s | -47.5°C | 0.4% | 16.16hPa | 2.6V | 00:00:00 | 00:00:00 | 00:00:00 | |
| DL1XH-15 | 2026-09-04 00:14:55 | 52.40428 | 11.33946 | 81° | 20km/h | 28304m | 4.6m/s | -47.6°C | 2.7% | 16.2hPa | 2.5V | 03:32:19 | 02:20:06 | 00:00:00 | |
| HSKMA3-T | 2026-09-04 00:14:53 | 52.40429 | 11.33961 | 95° | 16km/h | 28314m | 5.8m/s | -47.6°C | 0% | 16.2hPa | 2.5V | 03:33:01 | 02:20:08 | 00:00:00 | |
| AA1-15 | 2026-09-04 00:14:51 | 52.40428 | 11.33938 | 85° | 16km/h | 28299m | 5.7m/s | -47.7°C | 0% | 16.2hPa | 2.6V | 03:33:01 | 02:20:05 | 00:00:00 | |
| DM0DOS-11 | 2026-09-04 00:14:50 | 52.40434 | 11.33918 | 131° | 11km/h | 28269m | 6.6m/s | -47.7°C | 2.8% | 16.3hPa | 2.5V | 03:32:25 | 02:20:00 | 00:00:00 | |
| SONDE2-11 | 2026-09-04 00:14:49 | 52.40428 | 11.33927 | 118° | 9km/h | 28286m | 6.2m/s | -47.7°C | 0.4% | 16.3hPa | 2.6V | 00:00:00 | 00:00:00 | 00:00:00 | |
| DL1XH1-15 | 2026-09-04 00:14:48 | 52.40437 | 11.33910 | 119° | 11km/h | 28257m | 5.2m/s | -47.8°C | 2.8% | 16.4hPa | 2.6V | 03:32:27 | 02:19:58 | 00:00:00 | |
| DF8AY | 2026-09-04 00:14:44 | 52.40436 | 11.33914 | 123° | 11km/h | 28263m | 6.2m/s | -47.8°C | 0% | 16.4hPa | 2.6V | 03:35:34 | 02:19:59 | 00:00:00 | |
| DL1XH-15 | 2026-09-04 00:14:44 | 52.40440 | 11.33904 | 146° | 9km/h | 28246m | 6.4m/s | -47.8°C | 2.8% | 16.4hPa | 2.5V | 03:32:29 | 02:19:56 | 00:00:00 | |
| HSKMA3-T | 2026-09-04 00:14:42 | 52.40439 | 11.33906 | 126° | 9km/h | 28252m | 5.6m/s | -47.8°C | 0% | 16.4hPa | 2.5V | 03:33:01 | 02:19:57 | 00:00:00 | |
| DO2SHX-10 | 2026-09-04 00:14:42 | 52.40439 | 11.33906 | 126° | 9km/h | 28252m | 5.6m/s | -47.7°C | 2.8% | 16.3hPa | 2.5V | 00:00:00 | 02:19:57 | 00:00:00 | |
| DB0DAN | 2026-09-04 00:14:41 | 52.40442 | 11.33902 | 156° | 7km/h | 28239m | 5.5m/s | -47.8°C | 0.4% | 16.38hPa | 2.5V | 00:00:00 | 00:00:00 | 00:00:00 | |
| DL1XH-west | 2026-09-04 00:14:40 | 52.40442 | 11.33902 | 156° | 7km/h | 28239m | 5.5m/s | -47.8°C | 0% | 16.4hPa | 2.5V | 03:33:01 | 02:19:55 | 00:00:00 | |
| AA1-15 | 2026-09-04 00:14:40 | 52.40444 | 11.33901 | 145° | 9km/h | 28234m | 4.7m/s | -47.8°C | 0% | 16.4hPa | 2.6V | 03:33:01 | 02:19:54 | 00:00:00 | |
| DO2SHX-10 | 2026-09-04 00:14:39 | 52.40444 | 11.33901 | 145° | 11km/h | 28235m | 4.7m/s | -47.8°C | 2.8% | 16.4hPa | 2.6V | 00:00:00 | 02:19:54 | 00:00:00 | |
| HTAHTA | 2026-09-04 00:14:38 | 52.40447 | 11.33894 | 114° | 13km/h | 28223m | 6.9m/s | -47.8°C | 0.4% | 16.4hPa | 2.6V | 00:00:00 | 00:00:00 | 00:00:00 | |
| DD8BA-10 | 2026-09-04 00:14:37 | 52.40447 | 11.33893 | 115° | 11km/h | 28223m | 6.9m/s | -47.7°C | 2.8% | 16.4hPa | 2.6V | 00:00:00 | 00:00:00 | 00:00:00 | |
| EDDB2-12 | 2026-09-04 00:14:35 | 52.40450 | 11.33882 | 111° | 15km/h | 28211m | 4.9m/s | -47.8°C | 0.4% | 16.5hPa | 2.6V | 00:00:00 | 00:00:00 | 00:00:00 | |
| GOEST3-10 | 2026-09-04 00:14:34 | 52.40451 | 11.33877 | 118° | 9km/h | 28206m | 6.1m/s | -47.7°C | 2.8% | 16.4hPa | 2.6V | 00:00:00 | 02:19:49 | 00:00:00 | |
| DL1XH-15 | 2026-09-04 00:14:33 | 52.40456 | 11.33869 | 154° | 7km/h | 28188m | 5.5m/s | -47.8°C | 2.8% | 16.5hPa | 2.6V | 03:32:39 | 02:19:46 | 00:00:00 | |
| HSKMA3-T | 2026-09-04 00:14:32 | 52.40454 | 11.33870 | 147° | 7km/h | 28194m | 5.5m/s | -47.8°C | 0% | 16.5hPa | 2.6V | 03:33:01 | 02:19:47 | 00:00:00 | |
| DL1XH-west | 2026-09-04 00:14:30 | 52.40458 | 11.33867 | 138° | 7km/h | 28182m | 6.5m/s | -47.8°C | 0% | 16.5hPa | 2.5V | 03:33:01 | 02:19:45 | 00:00:00 | |
| DO2SHX-10 | 2026-09-04 00:14:30 | 52.40458 | 11.33867 | 139° | 9km/h | 28183m | 6.4m/s | -47.8°C | 2.8% | 16.5hPa | 2.5V | 00:00:00 | 02:19:45 | 00:00:00 | |
| DM0DOS-11 | 2026-09-04 00:14:29 | 52.40458 | 11.33851 | 92° | 5km/h | 28152m | 6.6m/s | -47.9°C | 2.8% | 16.6hPa | 2.5V | 03:32:45 | 02:19:40 | 00:00:00 | |
| AA1-15 | 2026-09-04 00:14:29 | 52.40459 | 11.33861 | 92° | 9km/h | 28170m | 5.5m/s | -47.8°C | 0% | 16.6hPa | 2.5V | 03:33:01 | 02:19:43 | 00:00:00 | |
| DD8BA-10 | 2026-09-04 00:14:27 | 52.40459 | 11.33857 | 86° | 7km/h | 28165m | 5.2m/s | -47.8°C | 2.9% | 16.6hPa | 2.6V | 00:00:00 | 00:00:00 | 00:00:00 | |
| DB0DAN | 2026-09-04 00:14:25 | 52.40458 | 11.33851 | 93° | 5km/h | 28152m | 6.6m/s | -47.9°C | 0.4% | 16.62hPa | 2.5V | 00:00:00 | 00:00:00 | 00:00:00 | |
| TFSTFS | 2026-09-04 00:14:25 | 52.40458 | 11.33851 | 94° | 5km/h | 28152m | 6.6m/s | -47.9°C | 0.4% | 16.6hPa | 2.5V | 03:33:00 | 00:00:00 | 00:00:00 | |
| DO2SHX-10 | 2026-09-04 00:14:24 | 52.40458 | 11.33849 | 89° | 5km/h | 28146m | 5.0m/s | -47.8°C | 2.8% | 16.6hPa | 2.5V | 03:32:00 | 02:19:39 | 00:00:00 | |
| DL1XH-15 | 2026-09-04 00:14:23 | 52.40458 | 11.33841 | 89° | 11km/h | 28129m | 5.7m/s | -47.8°C | 2.8% | 16.7hPa | 2.5V | 03:32:49 | 02:19:36 | 00:00:00 | |
| HSKMA3-T | 2026-09-04 00:14:21 | 52.40458 | 11.33841 | 90° | 11km/h | 28129m | 5.7m/s | -47.8°C | 0% | 16.7hPa | 2.5V | 03:33:01 | 02:19:36 | 00:00:00 | |
| DL1XH-west | 2026-09-04 00:14:20 | 52.40458 | 11.33837 | 103° | 11km/h | 28124m | 4.4m/s | -47.7°C | 0% | 16.7hPa | 2.5V | 03:33:01 | 02:19:35 | 00:00:00 | |
| DF8AY | 2026-09-04 00:14:19 | 52.40459 | 11.33833 | 124° | 9km/h | 28119m | 5.1m/s | -47.7°C | 0% | 16.7hPa | 2.5V | 03:35:34 | 02:19:34 | 00:00:00 | |
| AA1-15 | 2026-09-04 00:14:17 | 52.40463 | 11.33830 | 175° | 11km/h | 28106m | 6.4m/s | -47.7°C | 0% | 16.7hPa | 2.6V | 03:33:01 | 02:19:32 | 00:00:00 | |
| DD8BA-10 | 2026-09-04 00:14:17 | 52.40463 | 11.33830 | 176° | 9km/h | 28107m | 6.3m/s | -47.7°C | 2.8% | 16.7hPa | 2.6V | 03:32:00 | 00:00:00 | 00:00:00 | |
| DB0NH | 2026-09-04 00:14:16 | 52.40466 | 11.33830 | 183° | 9km/h | 28101m | 4.9m/s | -47.7°C | 2.8% | 16.7hPa | 2.6V | 00:00:00 | 02:19:31 | 00:00:00 | |
| DO2SHX-10 | 2026-09-04 00:14:15 | 52.40469 | 11.33830 | 182° | 11km/h | 28096m | 4.5m/s | -47.7°C | 2.8% | 16.7hPa | 2.5V | 00:00:00 | 02:19:30 | 00:00:00 | |
| GOEST3-10 | 2026-09-04 00:14:14 | 52.40472 | 11.33829 | 159° | 11km/h | 28091m | 6.1m/s | -47.7°C | 2.8% | 16.7hPa | 2.5V | 00:00:00 | 02:19:29 | 00:00:00 | |
| DL1XH-15 | 2026-09-04 00:14:13 | 52.40476 | 11.33818 | 99° | 13km/h | 28072m | 5.2m/s | -47.7°C | 2.8% | 16.8hPa | 2.6V | 03:32:59 | 02:19:26 | 00:00:00 | |
| DL1XH-west | 2026-09-04 00:14:10 | 52.40476 | 11.33813 | 102° | 11km/h | 28067m | 6.1m/s | -47.7°C | 0% | 16.8hPa | 2.6V | 03:33:01 | 02:19:25 | 00:00:00 | |
| DF8AY | 2026-09-04 00:14:09 | 52.40477 | 11.33808 | 131° | 4km/h | 28054m | 5.3m/s | -47.7°C | 0% | 16.9hPa | 2.5V | 03:35:34 | 02:19:23 | 00:00:00 | |
| AA1-15 | 2026-09-04 00:14:07 | 52.40478 | 11.33806 | 137° | 5km/h | 28049m | 5.3m/s | -47.7°C | 0% | 16.9hPa | 2.5V | 03:33:52 | 02:19:22 | 00:00:00 | |
| DD8BA-10 | 2026-09-04 00:14:07 | 52.40478 | 11.33806 | 137° | 5km/h | 28049m | 5.2m/s | -47.6°C | 2.8% | 16.8hPa | 2.6V | 00:00:00 | 00:00:00 | 00:00:00 | |
| GOEST3-10 | 2026-09-04 00:14:04 | 52.40481 | 11.33800 | 127° | 7km/h | 28032m | 5.1m/s | -47.6°C | 2.8% | 16.9hPa | 2.6V | 00:00:00 | 02:19:19 | 00:00:00 | |
| DL1XH-15 | 2026-09-04 00:14:03 | 52.40485 | 11.33798 | 208° | 7km/h | 28014m | 6.7m/s | -47.7°C | 2.8% | 17hPa | 2.6V | 03:33:09 | 02:19:16 | 00:00:00 | |
| HSKMA3-T | 2026-09-04 00:13:59 | 52.40488 | 11.33801 | 216° | 5km/h | 28003m | 4.7m/s | -47.7°C | 0% | 17hPa | 2.6V | 03:33:52 | 02:19:14 | 00:00:00 | |
| DF8AY | 2026-09-04 00:13:58 | 52.40489 | 11.33802 | 188° | 2km/h | 27997m | 5.8m/s | -47.7°C | 0% | 17hPa | 2.5V | 03:35:34 | 02:19:13 | 00:00:00 | |
| AA1-15 | 2026-09-04 00:13:57 | 52.40489 | 11.33801 | 80° | 5km/h | 27991m | 6.9m/s | -47.7°C | 0% | 17hPa | 2.5V | 03:33:52 | 02:19:12 | 00:00:00 | |
| DD8BA-10 | 2026-09-04 00:13:57 | 52.40489 | 11.33801 | 80° | 7km/h | 27991m | 6.8m/s | -47.6°C | 2.8% | 17.0hPa | 2.5V | 00:00:00 | 00:00:00 | 00:00:00 | |
| TFSTFS | 2026-09-04 00:13:56 | 52.40489 | 11.33801 | 81° | 5km/h | 27991m | 6.9m/s | -47.7°C | 0.4% | 17.0hPa | 2.6V | 00:00:00 | 00:00:00 | 00:00:00 | |
| DB0DAN | 2026-09-04 00:13:55 | 52.40489 | 11.33795 | 67° | 7km/h | 27980m | 4.8m/s | -47.7°C | 0.4% | 17.05hPa | 2.6V | 00:00:00 | 00:00:00 | 00:00:00 | |
| DO2SHX-10 | 2026-09-04 00:13:54 | 52.40488 | 11.33792 | 72° | 4km/h | 27975m | 6.1m/s | -47.6°C | 2.8% | 17.0hPa | 2.6V | 00:00:00 | 02:19:09 | 00:00:00 | |
| DL1XH-15 | 2026-09-04 00:13:53 | 52.40490 | 11.33795 | 230° | 11km/h | 27956m | 5.2m/s | -47.6°C | 2.8% | 17.1hPa | 2.5V | 03:33:19 | 02:19:06 | 00:00:00 | |
| DL1XH-west | 2026-09-04 00:13:49 | 52.40494 | 11.33802 | 218° | 13km/h | 27944m | 6.7m/s | -47.6°C | 0% | 17.2hPa | 2.6V | 03:33:52 | 02:19:04 | 00:00:00 | |
| DM0DOS-11 | 2026-09-04 00:13:48 | 52.40507 | 11.33815 | 215° | 16km/h | 27921m | 6.5m/s | -47.6°C | 2.8% | 17.2hPa | 2.5V | 03:33:25 | 02:19:00 | 00:00:00 | |
| DF8AY | 2026-09-04 00:13:47 | 52.40500 | 11.33808 | 208° | 15km/h | 27932m | 4.6m/s | -47.6°C | 0% | 17.2hPa | 2.5V | 03:35:34 | 02:19:02 | 00:00:00 | |
| AA1-15 | 2026-09-04 00:13:46 | 52.40504 | 11.33811 | 212° | 16km/h | 27927m | 5.6m/s | -47.6°C | 0% | 17.2hPa | 2.5V | 03:33:52 | 02:19:01 | 00:00:00 | |
| DB0NH | 2026-09-04 00:13:46 | 52.40504 | 11.33811 | 212° | 13km/h | 27927m | 5.6m/s | -47.5°C | 2.8% | 17.2hPa | 2.5V | 00:00:00 | 02:19:01 | 00:00:00 | |
| DO2SHX-10 | 2026-09-04 00:13:45 | 52.40507 | 11.33815 | 216° | 15km/h | 27921m | 6.4m/s | -47.5°C | 2.8% | 17.2hPa | 2.5V | 00:00:00 | 02:19:00 | 00:00:00 | |
| GOEST3-10 | 2026-09-04 00:13:44 | 52.40510 | 11.33819 | 220° | 7km/h | 27915m | 5.4m/s | -47.5°C | 2.8% | 17.2hPa | 2.6V | 00:00:00 | 02:18:59 | 00:00:00 | |
| DO2SHX-10 | 2026-09-04 00:13:42 | 52.40515 | 11.33825 | 215° | 4km/h | 27904m | 6.4m/s | -47.5°C | 2.8% | 17.2hPa | 2.5V | 00:00:00 | 02:18:57 | 00:00:00 | |
| DL1CLM-18 | 2026-09-04 00:13:41 | 52.40515 | 11.33825 | 215° | 7km/h | 27904m | 6.4m/s | -47.6°C | 0.4% | 17.3hPa | 2.5V | 00:00:00 | 00:00:00 | 00:00:00 | |
| DB0DAN | 2026-09-04 00:13:40 | 52.40516 | 11.33826 | 14° | 2km/h | 27891m | 4.5m/s | -47.6°C | 0.4% | 17.28hPa | 2.5V | 00:00:00 | 00:00:00 | 00:00:00 | |
| DM0DOS-11 | 2026-09-04 00:13:39 | 52.40515 | 11.33846 | 249° | 20km/h | 27864m | 5.1m/s | -47.5°C | 2.8% | 17.4hPa | 2.5V | 03:33:35 | 02:18:50 | 00:00:00 | |
| DL1XH-west | 2026-09-04 00:13:39 | 52.40515 | 11.33827 | 334° | 5km/h | 27887m | 3.8m/s | -47.5°C | 0% | 17.3hPa | 2.5V | 03:33:52 | 02:18:54 | 00:00:00 | |
| HSKMA3-T | 2026-09-04 00:13:38 | 52.40514 | 11.33828 | 297° | 7km/h | 27882m | 5.9m/s | -47.5°C | 0% | 17.3hPa | 2.6V | 03:33:52 | 02:18:53 | 00:00:00 | |
| DF8AY | 2026-09-04 00:13:37 | 52.40514 | 11.33832 | 275° | 13km/h | 27876m | 6.4m/s | -47.5°C | 0% | 17.3hPa | 2.6V | 03:35:34 | 02:18:52 | 00:00:00 | |
| AA1-15 | 2026-09-04 00:13:36 | 52.40517 | 11.33854 | 240° | 22km/h | 27858m | 5.7m/s | -47.5°C | 0% | 17.4hPa | 2.5V | 03:33:52 | 02:18:49 | 00:00:00 | |
| SONCRA | 2026-09-04 00:13:34 | 52.40520 | 11.33861 | 229° | 18km/h | 27852m | 6.6m/s | -47.5°C | 0.4% | 17.4hPa | 2.6V | 00:00:00 | 00:00:00 | 00:00:00 | |
| DL1XH-15 | 2026-09-04 00:13:34 | 52.40527 | 11.33871 | 224° | 15km/h | 27841m | 4.6m/s | -47.5°C | 2.8% | 17.4hPa | 2.6V | 03:33:39 | 02:18:46 | 00:00:00 | |
| EDDB2-12 | 2026-09-04 00:13:33 | 52.40524 | 11.33866 | 224° | 16km/h | 27847m | 5.5m/s | -47.5°C | 0.4% | 17.4hPa | 2.6V | 00:00:00 | 00:00:00 | 00:00:00 | |
| DF2AP-13 | 2026-09-04 00:13:31 | 52.40527 | 11.33871 | 225° | 13km/h | 27841m | 4.6m/s | -47.4°C | 2.8% | 17.4hPa | 2.6V | 03:33:00 | 02:18:46 | 00:00:00 | |
| DO2SHX-10 | 2026-09-04 00:13:30 | 52.40529 | 11.33875 | 235° | 15km/h | 27836m | 5.2m/s | -47.4°C | 2.8% | 17.4hPa | 2.5V | 00:00:00 | 02:18:45 | 00:00:00 | |
| DB0UT-7 | 2026-09-04 00:13:29 | 52.40530 | 11.33880 | 249° | 15km/h | 27830m | 6.3m/s | -47.5°C | 2.8% | 17.4hPa | 2.5V | 03:33:00 | 02:18:44 | 00:00:00 | |
| DM0DOS-11 | 2026-09-04 00:13:28 | 52.40532 | 11.33903 | 264° | 11km/h | 27808m | 6.2m/s | -47.5°C | 2.8% | 17.5hPa | 2.5V | 03:33:45 | 02:18:40 | 00:00:00 | |
| DL1XH-west | 2026-09-04 00:13:28 | 52.40531 | 11.33886 | 264° | 15km/h | 27824m | 6.2m/s | -47.5°C | 0% | 17.5hPa | 2.6V | 03:33:52 | 02:18:43 | 00:00:00 | |
| DL1NUX | 2026-09-04 00:13:28 | 52.40533 | 11.33910 | 234° | 9km/h | 27796m | 5.4m/s | -47.4°C | 2.8% | 17.5hPa | 2.6V | 03:33:47 | 02:18:38 | 00:00:00 | |
| HSKMA3-T | 2026-09-04 00:13:27 | 52.40531 | 11.33892 | 274° | 16km/h | 27818m | 5.3m/s | -47.5°C | 0% | 17.5hPa | 2.6V | 03:33:52 | 02:18:42 | 00:00:00 | |
| DD8BA-10 | 2026-09-04 00:13:27 | 52.40531 | 11.33892 | 274° | 13km/h | 27819m | 5.2m/s | -47.4°C | 2.8% | 17.4hPa | 2.6V | 00:00:00 | 00:00:00 | 00:00:00 | |
| DL1XH-15 | 2026-09-04 00:13:26 | 52.40536 | 11.33917 | 243° | 13km/h | 27784m | 6.7m/s | -47.4°C | 2.7% | 17.6hPa | 2.6V | 03:33:49 | 02:18:36 | 00:00:00 | |
| DF8AY | 2026-09-04 00:13:25 | 52.40531 | 11.33903 | 265° | 11km/h | 27808m | 6.2m/s | -47.5°C | 0% | 17.5hPa | 2.5V | 03:35:34 | 02:18:40 | 00:00:00 | |
| DB0DAN | 2026-09-04 00:13:25 | 52.40531 | 11.33903 | 265° | 11km/h | 27808m | 6.2m/s | -47.5°C | 0.4% | 17.52hPa | 2.5V | 00:00:00 | 00:00:00 | 00:00:00 | |
| AA1-15 | 2026-09-04 00:13:24 | 52.40532 | 11.33907 | 246° | 9km/h | 27802m | 6.2m/s | -47.4°C | 0% | 17.5hPa | 2.5V | 03:33:52 | 02:18:39 | 00:00:00 | |
| DO2SHX-10 | 2026-09-04 00:13:24 | 52.40532 | 11.33907 | 247° | 9km/h | 27802m | 6.1m/s | -47.4°C | 2.8% | 17.5hPa | 2.5V | 03:33:00 | 02:18:39 | 00:00:00 | |
| GOEST3-10 | 2026-09-04 00:13:23 | 52.40533 | 11.33910 | 235° | 13km/h | 27796m | 5.4m/s | -47.4°C | 2.8% | 17.5hPa | 2.5V | 00:00:00 | 02:18:38 | 00:00:00 | |
| DO2SHX-10 | 2026-09-04 00:13:21 | 52.40536 | 11.33917 | 244° | 15km/h | 27785m | 6.7m/s | -47.4°C | 2.7% | 17.5hPa | 2.5V | 00:00:00 | 02:18:36 | 00:00:00 | |
| S3001 | 2026-09-04 00:13:20 | 52.40538 | 11.33929 | 249° | 16km/h | 27772m | 5.0m/s | -47.4°C | 0.4% | 17.6hPa | 2.5V | 00:00:00 | 00:00:00 | 00:00:00 | |
| DF8AY-15 | 2026-09-04 00:13:19 | 52.40538 | 11.33929 | 250° | 15km/h | 27772m | 4.9m/s | -47.4°C | 2.8% | 17.6hPa | 2.5V | 00:00:00 | 02:18:34 | 00:00:00 | |
| DM0DOS-11 | 2026-09-04 00:13:18 | 52.40551 | 11.33955 | 219° | 20km/h | 27749m | 4.9m/s | -47.4°C | 2.7% | 17.7hPa | 2.5V | 03:33:55 | 02:18:30 | 00:00:00 | |
| DL1XH1-15 | 2026-09-04 00:13:18 | 52.40557 | 11.33965 | 233° | 15km/h | 27738m | 6.8m/s | -47.3°C | 2.7% | 17.7hPa | 2.6V | 03:33:57 | 02:18:28 | 00:00:00 | |
| HSKMA3-T | 2026-09-04 00:13:17 | 52.40543 | 11.33942 | 232° | 20km/h | 27761m | 6.6m/s | -47.4°C | 0% | 17.6hPa | 2.6V | 03:35:34 | 02:18:32 | 00:00:00 | |
| DD8BA-10 | 2026-09-04 00:13:17 | 52.40543 | 11.33942 | 233° | 15km/h | 27761m | 6.6m/s | -47.3°C | 2.7% | 17.6hPa | 2.5V | 00:00:00 | 00:00:00 | 00:00:00 | |
| DL1XH-15 | 2026-09-04 00:13:16 | 52.40559 | 11.33973 | 247° | 9km/h | 27726m | 5.1m/s | -47.3°C | 2.7% | 17.7hPa | 2.5V | 03:33:59 | 02:18:26 | 00:00:00 | |
| AA1-15 | 2026-09-04 00:13:14 | 52.40554 | 11.33960 | 226° | 16km/h | 27744m | 5.6m/s | -47.4°C | 0% | 17.7hPa | 2.5V | 03:34:43 | 02:18:29 | 00:00:00 | |
| DF8AY | 2026-09-04 00:13:13 | 52.40557 | 11.33965 | 233° | 15km/h | 27738m | 6.8m/s | -47.3°C | 0% | 17.7hPa | 2.6V | 03:35:34 | 02:18:28 | 00:00:00 | |
| NBG1-10 | 2026-09-04 00:13:13 | 52.40557 | 11.33965 | 234° | 15km/h | 27738m | 6.7m/s | -47.3°C | 2.7% | 17.7hPa | 2.5V | 03:33:00 | 02:18:28 | 00:00:00 | |
| DO2SHX-10 | 2026-09-04 00:13:12 | 52.40558 | 11.33969 | 245° | 9km/h | 27732m | 5.7m/s | -47.3°C | 2.7% | 17.7hPa | 2.5V | 03:33:00 | 02:18:27 | 00:00:00 | |
| DB0DAN | 2026-09-04 00:13:10 | 52.40560 | 11.33976 | 226° | 7km/h | 27721m | 6.1m/s | -47.3°C | 0.4% | 17.77hPa | 2.5V | 00:00:00 | 00:00:00 | 00:00:00 | |
| DO2SHX-10 | 2026-09-04 00:13:09 | 52.40562 | 11.33977 | 200° | 9km/h | 27715m | 6.2m/s | -47.3°C | 2.7% | 17.7hPa | 2.5V | 00:00:00 | 02:18:24 | 00:00:00 | |
| DM0DOS-11 | 2026-09-04 00:13:08 | 52.40570 | 11.33984 | 236° | 11km/h | 27691m | 6.3m/s | -47.4°C | 2.7% | 17.8hPa | 2.5V | 03:34:05 | 02:18:20 | 00:00:00 | |
| DL1XH1-15 | 2026-09-04 00:13:08 | 52.40573 | 11.33993 | 234° | 15km/h | 27680m | 4.7m/s | -47.4°C | 2.7% | 17.8hPa | 2.5V | 03:34:07 | 02:18:18 | 00:00:00 | |
| DL1XH-west | 2026-09-04 00:13:06 | 52.40568 | 11.33981 | 215° | 9km/h | 27697m | 6.7m/s | -47.3°C | 0% | 17.8hPa | 2.6V | 03:34:43 | 02:18:21 | 00:00:00 | |
| HSKMA3-T | 2026-09-04 00:13:04 | 52.40573 | 11.33993 | 235° | 15km/h | 27681m | 4.7m/s | -47.4°C | 0% | 17.8hPa | 2.5V | 03:35:34 | 02:18:18 | 00:00:00 | |
| DF8AY | 2026-09-04 00:13:04 | 52.40576 | 11.33997 | 222° | 18km/h | 27675m | 5.9m/s | -47.4°C | 0% | 17.9hPa | 2.6V | 03:35:34 | 02:18:17 | 00:00:00 | |
| SONCRA | 2026-09-04 00:13:03 | 52.40576 | 11.33997 | 221° | 16km/h | 27676m | 5.9m/s | -47.4°C | 0.4% | 17.9hPa | 2.5V | 00:00:00 | 00:00:00 | 00:00:00 | |
| EDDB2-12 | 2026-09-04 00:13:02 | 52.40580 | 11.34002 | 206° | 20km/h | 27669m | 7.1m/s | -47.4°C | 0.4% | 17.9hPa | 2.5V | 00:00:00 | 00:00:00 | 00:00:00 | |
| BUE01 | 2026-09-04 00:13:00 | 52.40585 | 11.34005 | 194° | 24km/h | 27662m | 6.2m/s | -47.4°C | 0.4% | 17.9hPa | 2.5V | 00:00:00 | 00:00:00 | 00:00:00 | |
| DB0UT-7 | 2026-09-04 00:12:59 | 52.40590 | 11.34007 | 190° | 13km/h | 27657m | 5.3m/s | -47.4°C | 2.7% | 17.9hPa | 2.5V | 00:00:00 | 00:00:00 | 00:00:00 | |
| DM0DOS-11 | 2026-09-04 00:12:58 | 52.40606 | 11.34009 | 176° | 7km/h | 27633m | 5m/s | -47.5°C | 2.8% | 18hPa | 2.6V | 03:34:15 | 02:18:10 | 00:00:00 | |
| DL1NUX | 2026-09-04 00:12:58 | 52.40609 | 11.34009 | 170° | 7km/h | 27622m | 5.9m/s | -47.5°C | 2.8% | 18hPa | 2.5V | 03:34:17 | 02:18:08 | 00:00:00 | |
| DL1XH-west | 2026-09-04 00:12:56 | 52.40603 | 11.34009 | 184° | 11km/h | 27639m | 5.5m/s | -47.5°C | 0% | 18hPa | 2.6V | 03:34:43 | 02:18:11 | 00:00:00 | |
| DB0DAN | 2026-09-04 00:12:55 | 52.40606 | 11.34009 | 176° | 7km/h | 27634m | 5m/s | -47.5°C | 0.4% | 17.98hPa | 2.6V | 00:00:00 | 00:00:00 | 00:00:00 | |
| HSKMA3-T | 2026-09-04 00:12:54 | 52.40609 | 11.34008 | 171° | 7km/h | 27622m | 5.9m/s | -47.5°C | 0% | 18hPa | 2.5V | 03:35:34 | 02:18:08 | 00:00:00 | |
| DF8AY | 2026-09-04 00:12:52 | 52.40611 | 11.34008 | 175° | 7km/h | 27616m | 5.3m/s | -47.5°C | 0% | 18.1hPa | 2.5V | 03:35:34 | 02:18:07 | 00:00:00 | |
| AA1-15 | 2026-09-04 00:12:51 | 52.40613 | 11.34008 | 183° | 5km/h | 27611m | 5.7m/s | -47.5°C | 0% | 18.1hPa | 2.6V | 03:34:43 | 02:18:06 | 00:00:00 | |
| S3001 | 2026-09-04 00:12:49 | 52.40615 | 11.34010 | 204° | 5km/h | 27594m | 4.1m/s | -47.5°C | 0.4% | 18.1hPa | 2.6V | 00:00:00 | 00:00:00 | 00:00:00 | |
| DL1XH1-15 | 2026-09-04 00:12:48 | 52.40639 | 11.34012 | 178° | 26km/h | 27565m | 5.6m/s | -47.6°C | 2.8% | 18.1hPa | 2.6V | 03:34:27 | 02:17:58 | 00:00:00 | |
| DM0DOS-11 | 2026-09-04 00:12:48 | 52.40626 | 11.34012 | 181° | 24km/h | 27576m | 6.4m/s | -47.5°C | 2.7% | 18.1hPa | 2.6V | 03:34:25 | 02:18:00 | 00:00:00 | |
| DL1XH-west | 2026-09-04 00:12:45 | 52.40626 | 11.34012 | 182° | 24km/h | 27576m | 6.4m/s | -47.5°C | 0% | 18.1hPa | 2.6V | 03:34:43 | 02:18:00 | 00:00:00 | |
| SONDE2-11 | 2026-09-04 00:12:44 | 52.40633 | 11.34012 | 179° | 26km/h | 27570m | 5.6m/s | -47.5°C | 0.4% | 18.1hPa | 2.6V | 00:00:00 | 00:00:00 | 00:00:00 | |
| HSKMA3-T | 2026-09-04 00:12:43 | 52.40639 | 11.34012 | 178° | 26km/h | 27565m | 5.6m/s | -47.6°C | 0% | 18.1hPa | 2.6V | 03:35:34 | 02:17:58 | 00:00:00 | |
| AA1-15 | 2026-09-04 00:12:41 | 52.40650 | 11.34010 | 168° | 16km/h | 27553m | 5.7m/s | -47.6°C | 0% | 18.2hPa | 2.5V | 03:34:43 | 02:17:56 | 00:00:00 | |
| DB0DAN | 2026-09-04 00:12:40 | 52.40653 | 11.34009 | 157° | 13km/h | 27548m | 5.3m/s | -47.7°C | 0.4% | 18.22hPa | 2.5V | 00:00:00 | 00:00:00 | 00:00:00 | |
| DF8AY | 2026-09-04 00:12:39 | 52.40667 | 11.34001 | 196° | 5km/h | 27512m | 6m/s | -47.8°C | 0% | 18.3hPa | 2.6V | 03:35:34 | 02:17:49 | 00:00:00 | |
| DO2SHX-10 | 2026-09-04 00:12:39 | 52.40656 | 11.34006 | 155° | 13km/h | 27542m | 5.9m/s | -47.7°C | 2.8% | 18.2hPa | 2.5V | 00:00:00 | 02:17:54 | 00:00:00 | |
| DM0DOS-11 | 2026-09-04 00:12:38 | 52.40666 | 11.34001 | 176° | 7km/h | 27519m | 6.2m/s | -47.8°C | 2.8% | 18.3hPa | 2.5V | 03:34:35 | 02:17:50 | 00:00:00 | |
| DL1XH-west | 2026-09-04 00:12:35 | 52.40666 | 11.34001 | 176° | 7km/h | 27519m | 6.2m/s | -47.8°C | 0% | 18.3hPa | 2.5V | 03:34:43 | 02:17:50 | 00:00:00 | |
| DF7ER-10 | 2026-09-04 00:12:34 | 52.40667 | 11.34001 | 197° | 5km/h | 27512m | 6.0m/s | -47.8°C | 0.4% | 18.3hPa | 2.5V | 03:34:00 | 00:00:00 | 00:00:00 | |
| DL1XH-15 | 2026-09-04 00:12:33 | 52.40675 | 11.34005 | 189° | 18km/h | 27497m | 6.3m/s | -47.7°C | 2.8% | 18.4hPa | 2.5V | 03:34:39 | 02:17:46 | 00:00:00 | |
| AA1-15 | 2026-09-04 00:12:31 | 52.40675 | 11.34005 | 190° | 18km/h | 27497m | 6.3m/s | -47.7°C | 0% | 18.4hPa | 2.5V | 03:34:43 | 02:17:46 | 00:00:00 | |
| EDDB2-12 | 2026-09-04 00:12:31 | 52.40680 | 11.34006 | 182° | 26km/h | 27491m | 6.4m/s | -47.7°C | 0.4% | 18.4hPa | 2.6V | 00:00:00 | 00:00:00 | 00:00:00 | |
| DO2SHX-10 | 2026-09-04 00:12:30 | 52.40680 | 11.34006 | 183° | 29km/h | 27491m | 6.3m/s | -47.6°C | 2.8% | 18.3hPa | 2.6V | 00:00:00 | 02:17:45 | 00:00:00 | |
| DB0UT-7 | 2026-09-04 00:12:29 | 52.40687 | 11.34006 | 178° | 15km/h | 27485m | 5.4m/s | -47.6°C | 2.8% | 18.3hPa | 2.6V | 00:00:00 | 02:17:44 | 00:00:00 | |
| DD8BA-10 | 2026-09-04 00:12:27 | 52.40702 | 11.34003 | 167° | 13km/h | 27475m | 5.0m/s | -47.6°C | 2.8% | 18.4hPa | 2.6V | 00:00:00 | 00:00:00 | 00:00:00 | |
| SMARD9-15 | 2026-09-04 00:12:26 | 52.40713 | 11.33997 | 153° | 15km/h | 27463m | 5.5m/s | -47.6°C | 0.4% | 18.4hPa | 2.6V | 00:00:00 | 00:00:00 | 00:00:00 | |
| DL1XH-15 | 2026-09-04 00:12:25 | 52.40722 | 11.33990 | 166° | 9km/h | 27439m | 5.8m/s | -47.6°C | 2.8% | 18.5hPa | 2.6V | 03:34:49 | 02:17:36 | 00:00:00 | |
| DL1XH-west | 2026-09-04 00:12:25 | 52.40713 | 11.33997 | 153° | 15km/h | 27463m | 5.5m/s | -47.6°C | 0% | 18.4hPa | 2.5V | 03:35:34 | 02:17:40 | 00:00:00 | |
| DF8AY | 2026-09-04 00:12:24 | 52.40718 | 11.33992 | 147° | 9km/h | 27452m | 6.4m/s | -47.6°C | 0% | 18.5hPa | 2.5V | 03:35:34 | 02:17:38 | 00:00:00 | |
| AA1-15 | 2026-09-04 00:12:20 | 52.40724 | 11.33989 | 174° | 11km/h | 27433m | 5m/s | -47.6°C | 0% | 18.5hPa | 2.5V | 03:35:34 | 02:17:35 | 00:00:00 | |
| TFSTFS | 2026-09-04 00:12:20 | 52.40724 | 11.33989 | 175° | 11km/h | 27434m | 5.0m/s | -47.6°C | 0.4% | 18.5hPa | 2.5V | 00:00:00 | 00:00:00 | 00:00:00 | |
| DF8AY-15 | 2026-09-04 00:12:19 | 52.40727 | 11.33989 | 176° | 13km/h | 27428m | 5.1m/s | -47.5°C | 2.8% | 18.5hPa | 2.5V | 00:00:00 | 02:17:34 | 00:00:00 | |
| DL1XH1-15 | 2026-09-04 00:12:18 | 52.40747 | 11.33983 | 173° | 26km/h | 27394m | 6.2m/s | -47.4°C | 2.8% | 18.6hPa | 2.5V | 03:34:57 | 02:17:28 | 00:00:00 | |
| HSKMA3-T | 2026-09-04 00:12:17 | 52.40732 | 11.33987 | 169° | 11km/h | 27416m | 6.2m/s | -47.5°C | 0% | 18.6hPa | 2.6V | 03:35:34 | 02:17:32 | 00:00:00 | |
| DD8BA-10 | 2026-09-04 00:12:17 | 52.40732 | 11.33987 | 170° | 16km/h | 27416m | 6.1m/s | -47.5°C | 2.8% | 18.5hPa | 2.6V | 03:34:00 | 00:00:00 | 00:00:00 | |
| DB0NH | 2026-09-04 00:12:16 | 52.40734 | 11.33986 | 169° | 16km/h | 27410m | 4.8m/s | -47.4°C | 2.8% | 18.6hPa | 2.6V | 00:00:00 | 02:17:31 | 00:00:00 | |
| DL1XH-15 | 2026-09-04 00:12:15 | 52.40760 | 11.33981 | 175° | 22km/h | 27383m | 4.6m/s | -47.4°C | 2.7% | 18.7hPa | 2.6V | 03:34:59 | 02:17:26 | 00:00:00 | |
| DL1XH-west | 2026-09-04 00:12:14 | 52.40742 | 11.33984 | 172° | 20km/h | 27400m | 6m/s | -47.5°C | 0% | 18.7hPa | 2.5V | 03:35:34 | 02:17:29 | 00:00:00 | |
| DF8AY | 2026-09-04 00:12:13 | 52.40765 | 11.33980 | 172° | 18km/h | 27378m | 6m/s | -47.4°C | 0% | 18.7hPa | 2.6V | 03:35:34 | 02:17:25 | 00:00:00 | |
| AM1SDL-15 | 2026-09-04 00:12:13 | 52.40747 | 11.33983 | 174° | 15km/h | 27394m | 6.2m/s | -47.4°C | 2.8% | 18.6hPa | 2.6V | 00:00:00 | 02:17:28 | 00:00:00 | |
| DO2SHX-10 | 2026-09-04 00:12:12 | 52.40754 | 11.33982 | 177° | 22km/h | 27389m | 4.7m/s | -47.4°C | 2.8% | 18.6hPa | 2.6V | 03:34:00 | 02:17:27 | 00:00:00 | |
| DB0DAN | 2026-09-04 00:12:10 | 52.40765 | 11.33980 | 171° | 16km/h | 27378m | 6m/s | -47.4°C | 0.4% | 18.67hPa | 2.6V | 00:00:00 | 00:00:00 | 00:00:00 | |
| AA1-15 | 2026-09-04 00:12:09 | 52.40768 | 11.33979 | 163° | 11km/h | 27372m | 6.4m/s | -47.4°C | 0% | 18.7hPa | 2.6V | 03:35:34 | 02:17:24 | 00:00:00 | |
| DF8AY | 2026-09-04 00:12:08 | 52.40783 | 11.33971 | 157° | 11km/h | 27332m | 5.7m/s | -47.3°C | 0% | 18.8hPa | 2.5V | 03:35:34 | 02:17:17 | 00:00:00 | |
| DL1XH1-15 | 2026-09-04 00:12:07 | 52.40780 | 11.33973 | 165° | 13km/h | 27338m | 4.9m/s | -47.2°C | 2.7% | 18.8hPa | 2.5V | 03:35:07 | 02:17:18 | 00:00:00 | |
| HSKMA3-T | 2026-09-04 00:12:07 | 52.40772 | 11.33977 | 149° | 5km/h | 27360m | 5.3m/s | -47.3°C | 0% | 18.7hPa | 2.5V | 03:35:34 | 02:17:22 | 00:00:00 | |
| DL1XH-west | 2026-09-04 00:12:03 | 52.40780 | 11.33973 | 166° | 13km/h | 27338m | 4.9m/s | -47.3°C | 0% | 18.8hPa | 2.5V | 03:35:34 | 02:17:18 | 00:00:00 | |
| AA1-15 | 2026-09-04 00:11:59 | 52.40791 | 11.33961 | 141° | 18km/h | 27315m | 5.2m/s | -47.3°C | 0% | 18.9hPa | 2.6V | 03:35:34 | 02:17:14 | 00:00:00 | |
| DB0UT-7 | 2026-09-04 00:11:59 | 52.40791 | 11.33961 | 141° | 15km/h | 27316m | 5.1m/s | -47.2°C | 2.8% | 18.8hPa | 2.5V | 00:00:00 | 00:00:00 | 00:00:00 | |
| DM0DOS-11 | 2026-09-04 00:11:58 | 52.40809 | 11.33941 | 141° | 22km/h | 27293m | 4.7m/s | -47.2°C | 2.8% | 18.9hPa | 2.5V | 03:35:15 | 02:17:10 | 00:00:00 | |
| DL1XH1-15 | 2026-09-04 00:11:58 | 52.40816 | 11.33931 | 131° | 15km/h | 27281m | 5.3m/s | -47.2°C | 2.8% | 19hPa | 2.6V | 03:35:17 | 02:17:08 | 00:00:00 | |
| HSKMA3-T | 2026-09-04 00:11:56 | 52.40804 | 11.33947 | 148° | 24km/h | 27298m | 4.7m/s | -47.3°C | 0% | 18.9hPa | 2.5V | 03:35:34 | 02:17:11 | 00:00:00 | |
| DL1XH-west | 2026-09-04 00:11:53 | 52.40818 | 11.33926 | 130° | 13km/h | 27277m | 4.3m/s | -47.2°C | 0% | 18.9hPa | 2.6V | 03:35:34 | 02:17:07 | 00:00:00 | |
| DF8AY | 2026-09-04 00:11:52 | 52.40847 | 11.33886 | 136° | 18km/h | 27228m | 5.9m/s | -47.2°C | 0% | 19.1hPa | 2.6V | 03:35:34 | 02:16:58 | 00:00:00 | |
| AA1-15 | 2026-09-04 00:11:49 | 52.40826 | 11.33918 | 158° | 16km/h | 27260m | 5.3m/s | -47.2°C | 0% | 19hPa | 2.5V | 03:35:34 | 02:17:04 | 00:00:00 | |
| S3001 | 2026-09-04 00:11:47 | 52.40838 | 11.33905 | 132° | 20km/h | 27244m | 6.6m/s | -47.2°C | 0.4% | 19.0hPa | 2.5V | 00:00:00 | 00:00:00 | 00:00:00 | |
| DM0DOS-11 | 2026-09-04 00:11:46 | 52.40841 | 11.33899 | 125° | 20km/h | 27238m | 5.1m/s | -47.2°C | 2.8% | 19.1hPa | 2.5V | 03:35:25 | 02:17:00 | 00:00:00 | |
| HSKMA3-T | 2026-09-04 00:11:45 | 52.40841 | 11.33899 | 125° | 20km/h | 27238m | 5.1m/s | -47.2°C | 0% | 19.1hPa | 2.5V | 03:35:34 | 02:17:00 | 00:00:00 | |
| DO2SHX-10 | 2026-09-04 00:11:45 | 52.40841 | 11.33899 | 126° | 20km/h | 27238m | 5.1m/s | -47.1°C | 2.8% | 19.0hPa | 2.6V | 00:00:00 | 02:17:00 | 00:00:00 | |
| DL1XH-15 | 2026-09-04 00:11:43 | 52.40854 | 11.33879 | 167° | 15km/h | 27216m | 5.1m/s | -47.1°C | 2.8% | 19.1hPa | 2.6V | 03:35:29 | 02:16:56 | 00:00:00 | |
| DL1XH-west | 2026-09-04 00:11:41 | 52.40854 | 11.33879 | 167° | 15km/h | 27216m | 5.1m/s | -47.1°C | 0% | 19.1hPa | 2.6V | 03:35:34 | 02:16:56 | 00:00:00 | |
| DB0DAN | 2026-09-04 00:11:40 | 52.40857 | 11.33879 | 182° | 11km/h | 27211m | 4m/s | -47.1°C | 0.4% | 19.17hPa | 2.5V | 00:00:00 | 00:00:00 | 00:00:00 | |
| DM0DOS-11 | 2026-09-04 00:11:40 | 52.40862 | 11.33873 | 88° | 7km/h | 27185m | 4.8m/s | -47.1°C | 2.8% | 19.2hPa | 2.6V | 03:35:35 | 02:16:50 | 00:00:00 | |
| DF8AY | 2026-09-04 00:11:38 | 52.40862 | 11.33879 | 162° | 5km/h | 27201m | 6m/s | -47.1°C | 0% | 19.2hPa | 2.5V | 03:35:34 | 02:16:53 | 00:00:00 | |
| HSKMA3-T | 2026-09-04 00:11:35 | 52.40862 | 11.33873 | 89° | 7km/h | 27185m | 4.8m/s | -47.1°C | 0% | 19.2hPa | 2.6V | 03:36:25 | 02:16:50 | 00:00:00 | |
| DL1XH-15 | 2026-09-04 00:11:35 | 52.40869 | 11.33863 | 146° | 13km/h | 27162m | 5.5m/s | -47°C | 2.8% | 19.3hPa | 2.6V | 03:35:39 | 02:16:46 | 00:00:00 | |
| DL1XH-west | 2026-09-04 00:11:30 | 52.40871 | 11.33859 | 131° | 13km/h | 27156m | 6.5m/s | -46.9°C | 0% | 19.3hPa | 2.6V | 03:36:25 | 02:16:45 | 00:00:00 | |
| AA1-15 | 2026-09-04 00:11:29 | 52.40875 | 11.33850 | 113° | 13km/h | 27144m | 4.6m/s | -46.9°C | 0% | 19.4hPa | 2.5V | 03:36:25 | 02:16:43 | 00:00:00 | |
| DF8AY | 2026-09-04 00:11:27 | 52.40876 | 11.33846 | 112° | 11km/h | 27139m | 4.8m/s | -46.8°C | 0% | 19.4hPa | 2.6V | 03:36:25 | 02:16:42 | 00:00:00 | |
| DD8BA-10 | 2026-09-04 00:11:27 | 52.40876 | 11.33846 | 112° | 7km/h | 27139m | 4.8m/s | -46.8°C | 2.7% | 19.3hPa | 2.6V | 00:00:00 | 00:00:00 | 00:00:00 | |
| DB0DAN | 2026-09-04 00:11:25 | 52.40877 | 11.33840 | 124° | 4km/h | 27127m | 6m/s | -46.8°C | 0.4% | 19.43hPa | 2.5V | 00:00:00 | 00:00:00 | 00:00:00 | |
| DL1XH-15 | 2026-09-04 00:11:25 | 52.40876 | 11.33832 | 72° | 11km/h | 27105m | 5.3m/s | -46.7°C | 2.7% | 19.5hPa | 2.6V | 03:35:49 | 02:16:36 | 00:00:00 | |
| HSKMA3-T | 2026-09-04 00:11:24 | 52.40878 | 11.33839 | 90° | 4km/h | 27122m | 4.7m/s | -46.8°C | 0% | 19.4hPa | 2.5V | 03:36:25 | 02:16:39 | 00:00:00 | |
| DL1XH-west | 2026-09-04 00:11:20 | 52.40876 | 11.33827 | 90° | 13km/h | 27100m | 4.6m/s | -46.7°C | 0% | 19.5hPa | 2.6V | 03:36:25 | 02:16:35 | 00:00:00 | |
| DF8AY-15 | 2026-09-04 00:11:19 | 52.40876 | 11.33822 | 105° | 9km/h | 27095m | 5.8m/s | -46.7°C | 2.7% | 19.5hPa | 2.5V | 00:00:00 | 02:16:34 | 00:00:00 | |
| DM0DOS-11 | 2026-09-04 00:11:18 | 52.40884 | 11.33808 | 132° | 15km/h | 27071m | 6.3m/s | -46.7°C | 2.7% | 19.6hPa | 2.6V | 03:35:55 | 02:16:30 | 00:00:00 | |
| AA1-15 | 2026-09-04 00:11:18 | 52.40879 | 11.33815 | 140° | 13km/h | 27083m | 5.6m/s | -46.7°C | 0% | 19.6hPa | 2.5V | 03:36:25 | 02:16:32 | 00:00:00 | |
| DF8AY | 2026-09-04 00:11:16 | 52.40882 | 11.33812 | 141° | 15km/h | 27078m | 5.5m/s | -46.7°C | 0% | 19.6hPa | 2.6V | 03:36:25 | 02:16:31 | 00:00:00 | |
| HSKMA3-T | 2026-09-04 00:11:13 | 52.40888 | 11.33798 | 108° | 11km/h | 27060m | 4.7m/s | -46.7°C | 0% | 19.6hPa | 2.5V | 03:36:25 | 02:16:28 | 00:00:00 | |
| DO2SHX-10 | 2026-09-04 00:11:12 | 52.40888 | 11.33795 | 101° | 4km/h | 27055m | 4.8m/s | -46.6°C | 2.7% | 19.6hPa | 2.6V | 03:35:00 | 02:16:27 | 00:00:00 | |
| DB0DAN | 2026-09-04 00:11:10 | 52.40888 | 11.33792 | 337° | 2km/h | 27043m | 5.9m/s | -46.6°C | 0.4% | 19.65hPa | 2.5V | 00:00:00 | 00:00:00 | 00:00:00 | |
| DL1XH-west | 2026-09-04 00:11:09 | 52.40888 | 11.33793 | 322° | 2km/h | 27037m | 4.7m/s | -46.6°C | 0% | 19.7hPa | 2.5V | 03:36:25 | 02:16:24 | 00:00:00 | |
| DL1NUX | 2026-09-04 00:11:09 | 52.40886 | 11.33789 | 68° | 9km/h | 27020m | 5.8m/s | -46.6°C | 2.6% | 19.7hPa | 2.6V | 03:36:04 | 02:16:21 | 00:00:00 | |
| DO2SHX-10 | 2026-09-04 00:11:09 | 52.40888 | 11.33793 | 322° | 4km/h | 27038m | 4.7m/s | -46.6°C | 2.7% | 19.6hPa | 2.6V | 00:00:00 | 02:16:24 | 00:00:00 | |
| DM0DOS-11 | 2026-09-04 00:11:08 | 52.40886 | 11.33785 | 91° | 13km/h | 27015m | 4.7m/s | -46.6°C | 2.6% | 19.8hPa | 2.6V | 03:36:05 | 02:16:20 | 00:00:00 | |
| DL1XH1-15 | 2026-09-04 00:11:07 | 52.40887 | 11.33775 | 118° | 13km/h | 27004m | 6.2m/s | -46.7°C | 2.6% | 19.8hPa | 2.5V | 03:36:07 | 02:16:18 | 00:00:00 | |
| AA1-15 | 2026-09-04 00:11:07 | 52.40886 | 11.33792 | 62° | 4km/h | 27026m | 6.2m/s | -46.6°C | 0% | 19.7hPa | 2.6V | 03:36:25 | 02:16:22 | 00:00:00 | |
| DF8AY | 2026-09-04 00:11:06 | 52.40886 | 11.33789 | 68° | 9km/h | 27020m | 5.8m/s | -46.6°C | 0% | 19.7hPa | 2.6V | 03:36:25 | 02:16:21 | 00:00:00 | |
| DD8BA-10 | 2026-09-04 00:11:06 | 52.40886 | 11.33789 | 69° | 9km/h | 27021m | 5.7m/s | -46.5°C | 2.6% | 19.7hPa | 2.6V | 00:00:00 | 00:00:00 | 00:00:00 | |
| DL1XH-15 | 2026-09-04 00:11:05 | 52.40891 | 11.33768 | 137° | 11km/h | 26993m | 4.7m/s | -46.7°C | 2.7% | 19.8hPa | 2.6V | 03:36:09 | 02:16:16 | 00:00:00 | |
| HSKMA3-T | 2026-09-04 00:11:02 | 52.40889 | 11.33771 | 135° | 11km/h | 26998m | 5.9m/s | -46.7°C | 0% | 19.8hPa | 2.5V | 03:36:25 | 02:16:17 | 00:00:00 | |
| DF2AP-13 | 2026-09-04 00:11:01 | 52.40891 | 11.33767 | 138° | 7km/h | 26993m | 4.6m/s | -46.7°C | 2.7% | 19.8hPa | 2.6V | 00:00:00 | 02:16:16 | 00:00:00 | |
| DO2SHX-10 | 2026-09-04 00:11:00 | 52.40892 | 11.33764 | 125° | 7km/h | 26988m | 5.2m/s | -46.7°C | 2.7% | 19.8hPa | 2.6V | 03:36:00 | 02:16:15 | 00:00:00 | |
| DL1NUX | 2026-09-04 00:10:59 | 52.40890 | 11.33759 | 332° | 9km/h | 26965m | 6.5m/s | -46.8°C | 2.7% | 19.9hPa | 2.6V | 03:36:14 | 02:16:11 | 00:00:00 | |
| DM0DOS-11 | 2026-09-04 00:10:59 | 52.40887 | 11.33762 | 316° | 13km/h | 26959m | 5.8m/s | -46.8°C | 2.7% | 19.9hPa | 2.5V | 03:36:15 | 02:16:10 | 00:00:00 | |
| DL1XH-west | 2026-09-04 00:10:59 | 52.40893 | 11.33759 | 53° | 5km/h | 26976m | 5m/s | -46.8°C | 0% | 19.9hPa | 2.5V | 03:36:25 | 02:16:13 | 00:00:00 | |
| DL1XH1-15 | 2026-09-04 00:10:58 | 52.40884 | 11.33768 | 316° | 9km/h | 26950m | 3.7m/s | -46.7°C | 2.7% | 19.9hPa | 2.5V | 03:36:17 | 02:16:08 | 00:00:00 | |
| AA1-15 | 2026-09-04 00:10:57 | 52.40892 | 11.33758 | 1° | 7km/h | 26971m | 5.5m/s | -46.8°C | 0% | 19.9hPa | 2.6V | 03:36:25 | 02:16:12 | 00:00:00 | |
| DF8AY | 2026-09-04 00:10:55 | 52.40887 | 11.33762 | 316° | 13km/h | 26959m | 5.8m/s | -46.8°C | 0% | 19.9hPa | 2.5V | 03:36:25 | 02:16:10 | 00:00:00 | |
| DL1XH-15 | 2026-09-04 00:10:55 | 52.40880 | 11.33769 | 33° | 7km/h | 26939m | 6.3m/s | -46.7°C | 2.7% | 20hPa | 2.6V | 03:36:19 | 02:16:06 | 00:00:00 | |
| HSKMA3-T | 2026-09-04 00:10:52 | 52.40882 | 11.33770 | 344° | 7km/h | 26945m | 5.6m/s | -46.7°C | 0% | 20hPa | 2.6V | 03:36:25 | 02:16:07 | 00:00:00 | |
| DL1XH-west | 2026-09-04 00:10:48 | 52.40877 | 11.33757 | 88° | 11km/h | 26923m | 4.3m/s | -46.6°C | 0% | 20.1hPa | 2.5V | 03:36:25 | 02:16:03 | 00:00:00 | |
| DM0DOS-11 | 2026-09-04 00:10:48 | 52.40879 | 11.33752 | 241° | 5km/h | 26906m | 5m/s | -46.6°C | 2.6% | 20.1hPa | 2.6V | 03:36:25 | 02:16:00 | 00:00:00 | |
| AA1-15 | 2026-09-04 00:10:46 | 52.40878 | 11.33751 | 168° | 4km/h | 26912m | 5.9m/s | -46.6°C | 0% | 20.1hPa | 2.6V | 03:36:25 | 02:16:01 | 00:00:00 | |
| DF8AY | 2026-09-04 00:10:45 | 52.40879 | 11.33755 | 256° | 7km/h | 26901m | 5m/s | -46.6°C | 0% | 20.1hPa | 2.5V | 03:38:07 | 02:15:59 | 00:00:00 | |
| DL1XH-15 | 2026-09-04 00:10:45 | 52.40878 | 11.33760 | 353° | 4km/h | 26885m | 5.3m/s | -46.6°C | 2.7% | 20.2hPa | 2.6V | 03:36:29 | 02:15:56 | 00:00:00 | |
| S3001 | 2026-09-04 00:10:44 | 52.40879 | 11.33755 | 255° | 5km/h | 26901m | 5.0m/s | -46.6°C | 0.4% | 20.1hPa | 2.6V | 00:00:00 | 00:00:00 | 00:00:00 | |
| HSKMA3-T | 2026-09-04 00:10:41 | 52.40878 | 11.33760 | 354° | 4km/h | 26885m | 5.4m/s | -46.6°C | 0% | 20.2hPa | 2.6V | 03:37:16 | 02:15:56 | 00:00:00 | |
| DB0DAN | 2026-09-04 00:10:40 | 52.40878 | 11.33760 | 44° | 4km/h | 26880m | 4.7m/s | -46.6°C | 0.4% | 20.15hPa | 2.5V | 00:00:00 | 00:00:00 | 00:00:00 | |
| DL1XH-west | 2026-09-04 00:10:38 | 52.40878 | 11.33758 | 151° | 4km/h | 26869m | 6.4m/s | -46.8°C | 0% | 20.2hPa | 2.5V | 03:37:16 | 02:15:53 | 00:00:00 | |
| AA1-15 | 2026-09-04 00:10:36 | 52.40880 | 11.33758 | 178° | 4km/h | 26857m | 5m/s | -46.8°C | 0% | 20.2hPa | 2.6V | 03:37:16 | 02:15:51 | 00:00:00 | |
| DF8AY | 2026-09-04 00:10:35 | 52.40880 | 11.33757 | 6° | 5km/h | 26846m | 6.3m/s | -46.8°C | 0% | 20.2hPa | 2.5V | 03:38:07 | 02:15:49 | 00:00:00 | |
| DL1XH1-15 | 2026-09-04 00:10:34 | 52.40878 | 11.33757 | 355° | 7km/h | 26840m | 5.1m/s | -46.8°C | 2.7% | 20.3hPa | 2.5V | 03:36:37 | 02:15:48 | 00:00:00 | |
| HSKMA3-T | 2026-09-04 00:10:30 | 52.40873 | 11.33763 | 284° | 11km/h | 26825m | 6.7m/s | -46.8°C | 0% | 20.3hPa | 2.6V | 03:37:16 | 02:15:45 | 00:00:00 | |
| DO2SHX-10 | 2026-09-04 00:10:30 | 52.40873 | 11.33763 | 284° | 13km/h | 26825m | 6.7m/s | -46.7°C | 2.6% | 20.3hPa | 2.6V | 00:00:00 | 02:15:45 | 00:00:00 | |
| DB0UT-7 | 2026-09-04 00:10:29 | 52.40873 | 11.33768 | 264° | 11km/h | 26818m | 5.8m/s | -46.7°C | 2.7% | 20.3hPa | 2.6V | 00:00:00 | 02:15:44 | 00:00:00 | |
| DL1NUX | 2026-09-04 00:10:28 | 52.40876 | 11.33782 | 229° | 7km/h | 26801m | 6.2m/s | -46.8°C | 2.7% | 20.4hPa | 2.6V | 03:36:44 | 02:15:41 | 00:00:00 | |
| DL1XH1-15 | 2026-09-04 00:10:28 | 52.40882 | 11.33782 | 157° | 13km/h | 26784m | 6.4m/s | -46.9°C | 2.6% | 20.4hPa | 2.5V | 03:36:47 | 02:15:38 | 00:00:00 | |
| DL1XH-west | 2026-09-04 00:10:28 | 52.40875 | 11.33779 | 244° | 11km/h | 26807m | 5.8m/s | -46.8°C | 0% | 20.4hPa | 2.6V | 03:37:16 | 02:15:42 | 00:00:00 | |
| AA1-15 | 2026-09-04 00:10:26 | 52.40876 | 11.33782 | 229° | 7km/h | 26801m | 6.2m/s | -46.8°C | 0% | 20.4hPa | 2.6V | 03:37:16 | 02:15:41 | 00:00:00 | |
| DB0DAN | 2026-09-04 00:10:25 | 52.40877 | 11.33783 | 190° | 5km/h | 26795m | 5.2m/s | -46.8°C | 0.4% | 20.41hPa | 2.5V | 00:00:00 | 00:00:00 | 00:00:00 | |
| DF8AY | 2026-09-04 00:10:24 | 52.40891 | 11.33776 | 167° | 2km/h | 26761m | 6.4m/s | -46.9°C | 0% | 20.5hPa | 2.5V | 03:38:07 | 02:15:34 | 00:00:00 | |
| HSKMA3-T | 2026-09-04 00:10:20 | 52.40890 | 11.33777 | 157° | 7km/h | 26768m | 5.4m/s | -46.9°C | 0% | 20.5hPa | 2.6V | 03:37:16 | 02:15:35 | 00:00:00 | |
| GOEST3-10 | 2026-09-04 00:10:20 | 52.40890 | 11.33777 | 157° | 7km/h | 26768m | 5.3m/s | -46.9°C | 2.7% | 20.4hPa | 2.5V | 00:00:00 | 02:15:35 | 00:00:00 | |
| DF8AY-15 | 2026-09-04 00:10:19 | 52.40891 | 11.33776 | 167° | 11km/h | 26762m | 6.3m/s | -46.9°C | 2.7% | 20.5hPa | 2.5V | 03:36:00 | 02:15:34 | 00:00:00 | |
| DL1NUX | 2026-09-04 00:10:18 | 52.40890 | 11.33782 | 267° | 11km/h | 26744m | 5.6m/s | -47°C | 2.7% | 20.6hPa | 2.6V | 03:36:54 | 02:15:31 | 00:00:00 | |
| DL1XH1-15 | 2026-09-04 00:10:18 | 52.40896 | 11.33799 | 218° | 18km/h | 26729m | 4.1m/s | -47°C | 2.7% | 20.6hPa | 2.5V | 03:36:57 | 02:15:28 | 00:00:00 | |
| DL1XH-west | 2026-09-04 00:10:17 | 52.40890 | 11.33782 | 267° | 11km/h | 26744m | 5.6m/s | -47°C | 0% | 20.6hPa | 2.6V | 03:37:16 | 02:15:31 | 00:00:00 | |
| DB0NH | 2026-09-04 00:10:16 | 52.40890 | 11.33782 | 268° | 13km/h | 26745m | 5.5m/s | -46.9°C | 2.7% | 20.5hPa | 2.6V | 00:00:00 | 02:15:31 | 00:00:00 | |
| DL1XH-15 | 2026-09-04 00:10:15 | 52.40903 | 11.33804 | 189° | 15km/h | 26718m | 6.2m/s | -47.1°C | 2.7% | 20.6hPa | 2.6V | 03:36:59 | 02:15:26 | 00:00:00 | |
| AA1-15 | 2026-09-04 00:10:15 | 52.40891 | 11.33788 | 250° | 15km/h | 26738m | 5.8m/s | -47°C | 0% | 20.6hPa | 2.6V | 03:37:16 | 02:15:30 | 00:00:00 | |
| DD8BA-10 | 2026-09-04 00:10:15 | 52.40891 | 11.33788 | 251° | 13km/h | 26739m | 5.8m/s | -47.0°C | 2.7% | 20.6hPa | 2.6V | 03:36:00 | 00:00:00 | 00:00:00 | |
| S3001 | 2026-09-04 00:10:14 | 52.40896 | 11.33799 | 218° | 16km/h | 26729m | 4.1m/s | -47.0°C | 0.4% | 20.6hPa | 2.6V | 00:00:00 | 00:00:00 | 00:00:00 | |
| AM1SDL-15 | 2026-09-04 00:10:12 | 52.40903 | 11.33804 | 190° | 11km/h | 26718m | 6.2m/s | -47.0°C | 2.7% | 20.6hPa | 2.6V | 03:36:00 | 02:15:26 | 00:00:00 | |
| DL1NUX | 2026-09-04 00:10:11 | 52.40916 | 11.33806 | 224° | 11km/h | 26689m | 5.7m/s | -47.2°C | 2.7% | 20.7hPa | 2.6V | 03:37:04 | 02:15:21 | 00:00:00 | |
| DB0DAN | 2026-09-04 00:10:10 | 52.40907 | 11.33804 | 167° | 11km/h | 26712m | 5.7m/s | -47.1°C | 0.4% | 20.68hPa | 2.5V | 00:00:00 | 00:00:00 | 00:00:00 | |
| HSKMA3-T | 2026-09-04 00:10:09 | 52.40909 | 11.33803 | 166° | 9km/h | 26707m | 4.9m/s | -47.1°C | 0% | 20.7hPa | 2.5V | 03:37:16 | 02:15:24 | 00:00:00 | |
| DL1XH1-15 | 2026-09-04 00:10:09 | 52.40921 | 11.33817 | 224° | 9km/h | 26672m | 6.2m/s | -47.2°C | 2.7% | 20.8hPa | 2.5V | 03:37:07 | 02:15:18 | 00:00:00 | |
| DM0DOS-11 | 2026-09-04 00:10:09 | 52.40918 | 11.33810 | 233° | 13km/h | 26684m | 5.2m/s | -47.2°C | 2.7% | 20.8hPa | 2.6V | 03:37:05 | 02:15:20 | 00:00:00 | |
| EDDB2-11 | 2026-09-04 00:10:07 | 52.40914 | 11.33804 | 204° | 7km/h | 26695m | 6.4m/s | -47.2°C | 0.4% | 20.7hPa | 2.6V | 00:00:00 | 00:00:00 | 00:00:00 | |
| DL1XH-15 | 2026-09-04 00:10:06 | 52.40925 | 11.33822 | 208° | 11km/h | 26661m | 5.1m/s | -47.3°C | 2.7% | 20.8hPa | 2.6V | 03:37:09 | 02:15:16 | 00:00:00 | |
| AA1-15 | 2026-09-04 00:10:05 | 52.40918 | 11.33810 | 233° | 13km/h | 26684m | 5.2m/s | -47.2°C | 0% | 20.8hPa | 2.6V | 03:37:16 | 02:15:20 | 00:00:00 | |
| DF8AY | 2026-09-04 00:09:59 | 52.40931 | 11.33826 | 198° | 16km/h | 26650m | 5.7m/s | -47.3°C | 0% | 20.9hPa | 2.5V | 03:38:07 | 02:15:14 | 00:00:00 | |
| DL1NUX | 2026-09-04 00:09:59 | 52.40945 | 11.33825 | 156° | 20km/h | 26633m | 6.7m/s | -47.4°C | 2.7% | 20.9hPa | 2.6V | 03:37:14 | 02:15:11 | 00:00:00 | |
| DF8AY-15 | 2026-09-04 00:09:59 | 52.40931 | 11.33826 | 198° | 15km/h | 26650m | 5.6m/s | -47.3°C | 2.7% | 20.8hPa | 2.5V | 00:00:00 | 02:15:14 | 00:00:00 | |
| DM0DOS-11 | 2026-09-04 00:09:58 | 52.40950 | 11.33820 | 144° | 22km/h | 26626m | 5.9m/s | -47.5°C | 2.7% | 20.9hPa | 2.5V | 03:37:15 | 02:15:10 | 00:00:00 | |
| HSKMA3-T | 2026-09-04 00:09:58 | 52.40936 | 11.33827 | 185° | 20km/h | 26644m | 5.2m/s | -47.4°C | 0% | 20.9hPa | 2.5V | 03:37:16 | 02:15:13 | 00:00:00 | |
| DO2SHX-10 | 2026-09-04 00:09:57 | 52.40941 | 11.33827 | 173° | 22km/h | 26639m | 5.4m/s | -47.4°C | 2.7% | 20.9hPa | 2.6V | 00:00:00 | 02:15:12 | 00:00:00 | |
| DL1XH-15 | 2026-09-04 00:09:56 | 52.40965 | 11.33806 | 192° | 11km/h | 26604m | 5.8m/s | -47.5°C | 2.7% | 21hPa | 2.6V | 03:37:19 | 02:15:06 | 00:00:00 | |
| DB0DAN | 2026-09-04 00:09:55 | 52.40950 | 11.33820 | 144° | 22km/h | 26627m | 5.9m/s | -47.5°C | 0.4% | 20.96hPa | 2.5V | 00:00:00 | 00:00:00 | 00:00:00 | |
| AA1-15 | 2026-09-04 00:09:54 | 52.40955 | 11.33815 | 141° | 22km/h | 26621m | 4.4m/s | -47.5°C | 0% | 21hPa | 2.5V | 03:37:16 | 02:15:09 | 00:00:00 | |
| BUE01 | 2026-09-04 00:09:54 | 52.40959 | 11.33810 | 143° | 16km/h | 26616m | 4.5m/s | -47.5°C | 0.4% | 21.0hPa | 2.6V | 00:00:00 | 00:00:00 | 00:00:00 | |
| TFSTFS | 2026-09-04 00:09:52 | 52.40959 | 11.33810 | 144° | 16km/h | 26617m | 4.5m/s | -47.5°C | 0.4% | 21.0hPa | 2.6V | 03:38:00 | 00:00:00 | 00:00:00 | |
| DO2SHX-10 | 2026-09-04 00:09:51 | 52.40964 | 11.33806 | 193° | 9km/h | 26605m | 5.7m/s | -47.5°C | 2.7% | 21.0hPa | 2.6V | 00:00:00 | 02:15:06 | 00:00:00 | |
| DO3MHA-11 | 2026-09-04 00:09:50 | 52.40966 | 11.33808 | 223° | 9km/h | 26599m | 5.3m/s | -47.5°C | 2.7% | 21.0hPa | 2.6V | 00:00:00 | 02:15:05 | 00:00:00 | |
| DL1NUX | 2026-09-04 00:09:49 | 52.40970 | 11.33814 | 140° | 5km/h | 26576m | 4.7m/s | -47.8°C | 2.8% | 21.1hPa | 2.6V | 03:37:24 | 02:15:01 | 00:00:00 | |
| DM0DOS-11 | 2026-09-04 00:09:48 | 52.40971 | 11.33812 | 142° | 11km/h | 26572m | 4.3m/s | -47.8°C | 2.8% | 21.1hPa | 2.6V | 03:37:25 | 02:15:00 | 00:00:00 | |
| HSKMA3-T | 2026-09-04 00:09:48 | 52.40969 | 11.33813 | 243° | 5km/h | 26587m | 6.1m/s | -47.7°C | 0% | 21.1hPa | 2.5V | 03:40:40 | 02:15:03 | 00:00:00 | |
| DO2SHX-10 | 2026-09-04 00:09:48 | 52.40969 | 11.33813 | 244° | 5km/h | 26588m | 6.1m/s | -47.6°C | 2.8% | 21.0hPa | 2.5V | 03:37:00 | 02:15:03 | 00:00:00 | |
| DL1XH1-15 | 2026-09-04 00:09:46 | 52.40977 | 11.33806 | 154° | 18km/h | 26561m | 6.4m/s | -47.8°C | 2.8% | 21.1hPa | 2.5V | 03:37:27 | 02:14:58 | 00:00:00 | |
| DB0NH | 2026-09-04 00:09:46 | 52.40970 | 11.33814 | 141° | 13km/h | 26577m | 4.6m/s | -47.7°C | 2.8% | 21.1hPa | 2.6V | 00:00:00 | 02:15:01 | 00:00:00 | |
| DL1XH-15 | 2026-09-04 00:09:45 | 52.40986 | 11.33799 | 148° | 20km/h | 26550m | 4.7m/s | -47.8°C | 2.7% | 21.2hPa | 2.6V | 03:37:29 | 02:14:56 | 00:00:00 | |
| AA1-15 | 2026-09-04 00:09:44 | 52.40974 | 11.33809 | 148° | 15km/h | 26567m | 6m/s | -47.8°C | 0% | 21.1hPa | 2.5V | 03:38:07 | 02:14:59 | 00:00:00 | |
| DL1XH-west | 2026-09-04 00:09:43 | 52.40977 | 11.33806 | 155° | 18km/h | 26561m | 6.4m/s | -47.8°C | 0% | 21.2hPa | 2.5V | 03:38:07 | 02:14:58 | 00:00:00 | |
| S3001 | 2026-09-04 00:09:43 | 52.40982 | 11.33803 | 153° | 20km/h | 26555m | 5.3m/s | -47.8°C | 0.4% | 21.2hPa | 2.6V | 00:00:00 | 00:00:00 | 00:00:00 | |
| DO2SHX-10 | 2026-09-04 00:09:42 | 52.40982 | 11.33803 | 154° | 20km/h | 26555m | 5.3m/s | -47.7°C | 2.8% | 21.2hPa | 2.6V | 00:00:00 | 02:14:57 | 00:00:00 | |
| DL1NUX | 2026-09-04 00:09:41 | 52.40998 | 11.33773 | 116° | 9km/h | 26521m | 6.4m/s | -47.9°C | 2.8% | 21.3hPa | 2.6V | 03:37:34 | 02:14:51 | 00:00:00 | |
| DB0DAN | 2026-09-04 00:09:40 | 52.40990 | 11.33794 | 139° | 18km/h | 26544m | 6.3m/s | -47.8°C | 0.5% | 21.21hPa | 2.5V | 00:00:00 | 00:00:00 | 00:00:00 | |
| SO1NDE-10 | 2026-09-04 00:09:40 | 52.40990 | 11.33794 | 139° | 15km/h | 26545m | 6.3m/s | -47.7°C | 2.8% | 21.2hPa | 2.6V | 03:37:00 | 02:14:55 | 00:00:00 | |
| DM0DOS-11 | 2026-09-04 00:09:39 | 52.40999 | 11.33771 | 140° | 7km/h | 26515m | 6.2m/s | -47.9°C | 2.8% | 21.3hPa | 2.6V | 03:37:35 | 02:14:50 | 00:00:00 | |
| DF8AY | 2026-09-04 00:09:38 | 52.40995 | 11.33782 | 111° | 15km/h | 26533m | 5m/s | -47.8°C | 0% | 21.2hPa | 2.5V | 03:38:07 | 02:14:53 | 00:00:00 | |
| HSKMA3-T | 2026-09-04 00:09:37 | 52.40997 | 11.33777 | 109° | 13km/h | 26527m | 5m/s | -47.9°C | 0% | 21.3hPa | 2.6V | 03:40:40 | 02:14:52 | 00:00:00 | |
| DL1XH1-15 | 2026-09-04 00:09:36 | 52.41001 | 11.33768 | 139° | 5km/h | 26505m | 4.8m/s | -48°C | 2.8% | 21.3hPa | 2.5V | 03:37:37 | 02:14:48 | 00:00:00 | |
| AA1-15 | 2026-09-04 00:09:33 | 52.41001 | 11.33768 | 139° | 5km/h | 26505m | 4.8m/s | -48°C | 0% | 21.3hPa | 2.5V | 03:38:07 | 02:14:48 | 00:00:00 | |
| DL1XH-west | 2026-09-04 00:09:32 | 52.41002 | 11.33766 | 127° | 7km/h | 26500m | 6.3m/s | -48°C | 0% | 21.4hPa | 2.5V | 03:38:07 | 02:14:47 | 00:00:00 | |
| DL1NUX | 2026-09-04 00:09:31 | 52.41017 | 11.33735 | 132° | 20km/h | 26465m | 4.5m/s | -48°C | 2.8% | 21.4hPa | 2.6V | 03:37:44 | 02:14:41 | 00:00:00 | |
| DF2AP-13 | 2026-09-04 00:09:31 | 52.41003 | 11.33763 | 115° | 16km/h | 26494m | 5.8m/s | -47.9°C | 2.8% | 21.3hPa | 2.5V | 03:37:00 | 02:14:46 | 00:00:00 | |
| DJ2DS-15 | 2026-09-04 00:09:30 | 52.41007 | 11.33752 | 125° | 16km/h | 26482m | 5.3m/s | -48.0°C | 0.4% | 21.4hPa | 2.5V | 00:00:00 | 00:00:00 | 00:00:00 | |
| DB0UT-7 | 2026-09-04 00:09:29 | 52.41007 | 11.33752 | 126° | 16km/h | 26482m | 5.2m/s | -47.9°C | 2.8% | 21.4hPa | 2.5V | 03:37:00 | 02:14:44 | 00:00:00 | |
| DM0DOS-11 | 2026-09-04 00:09:28 | 52.41020 | 11.33729 | 123° | 20km/h | 26460m | 6.1m/s | -48°C | 2.8% | 21.5hPa | 2.5V | 03:37:45 | 02:14:40 | 00:00:00 | |
| DF8AY | 2026-09-04 00:09:28 | 52.41010 | 11.33746 | 135° | 20km/h | 26476m | 6.4m/s | -48°C | 0% | 21.5hPa | 2.5V | 03:38:07 | 02:14:43 | 00:00:00 | |
| HSKMA3-T | 2026-09-04 00:09:26 | 52.41017 | 11.33735 | 132° | 20km/h | 26466m | 4.5m/s | -48°C | 0% | 21.5hPa | 2.6V | 03:40:40 | 02:14:41 | 00:00:00 | |
| DB0DAN | 2026-09-04 00:09:25 | 52.41020 | 11.33729 | 124° | 18km/h | 26460m | 6.1m/s | -48°C | 0.5% | 21.5hPa | 2.5V | 00:00:00 | 00:00:00 | 00:00:00 | |
| DL1XH1-15 | 2026-09-04 00:09:25 | 52.41023 | 11.33715 | 100° | 16km/h | 26448m | 4.8m/s | -48°C | 2.8% | 21.5hPa | 2.5V | 03:37:47 | 02:14:38 | 00:00:00 | |
| AA1-15 | 2026-09-04 00:09:23 | 52.41023 | 11.33715 | 100° | 16km/h | 26448m | 4.8m/s | -48.1°C | 0% | 21.5hPa | 2.5V | 03:38:07 | 02:14:38 | 00:00:00 | |
| DL1XH-west | 2026-09-04 00:09:22 | 52.41024 | 11.33709 | 98° | 13km/h | 26443m | 5.1m/s | -48.1°C | 0% | 21.5hPa | 2.6V | 03:38:07 | 02:14:37 | 00:00:00 | |
| DO2SHX-10 | 2026-09-04 00:09:21 | 52.41024 | 11.33705 | 107° | 7km/h | 26438m | 6.6m/s | -48.0°C | 2.8% | 21.5hPa | 2.6V | 00:00:00 | 02:14:36 | 00:00:00 | |
| DL1NUX | 2026-09-04 00:09:19 | 52.41031 | 11.33689 | 110° | 16km/h | 26411m | 5.5m/s | -48.4°C | 2.8% | 21.6hPa | 2.6V | 03:37:54 | 02:14:31 | 00:00:00 | |
| DF8AY-15 | 2026-09-04 00:09:19 | 52.41026 | 11.33700 | 142° | 16km/h | 26427m | 4.2m/s | -48.2°C | 2.8% | 21.5hPa | 2.5V | 00:00:00 | 02:14:34 | 00:00:00 | |
| DL1XH1-15 | 2026-09-04 00:09:18 | 52.41036 | 11.33667 | 117° | 18km/h | 26394m | 5.9m/s | -48.5°C | 2.9% | 21.7hPa | 2.5V | 03:37:57 | 02:14:28 | 00:00:00 | |
| DM0DOS-11 | 2026-09-04 00:09:18 | 52.41033 | 11.33682 | 109° | 20km/h | 26405m | 4.8m/s | -48.5°C | 2.9% | 21.6hPa | 2.6V | 03:37:55 | 02:14:30 | 00:00:00 | |
| DF8AY | 2026-09-04 00:09:18 | 52.41034 | 11.33674 | 111° | 18km/h | 26400m | 5.1m/s | -48.5°C | 0% | 21.7hPa | 2.5V | 03:38:07 | 02:14:29 | 00:00:00 | |
| TFSTFS | 2026-09-04 00:09:17 | 52.41030 | 11.33694 | 122° | 13km/h | 26417m | 6.2m/s | -48.4°C | 0.5% | 21.6hPa | 2.6V | 03:38:00 | 00:00:00 | 00:00:00 | |
| DB0NH | 2026-09-04 00:09:16 | 52.41031 | 11.33689 | 111° | 18km/h | 26411m | 5.5m/s | -48.4°C | 2.8% | 21.6hPa | 2.6V | 00:00:00 | 02:14:31 | 00:00:00 | |
| DL1XH-15 | 2026-09-04 00:09:15 | 52.41042 | 11.33654 | 128° | 20km/h | 26383m | 4.5m/s | -48.5°C | 2.8% | 21.7hPa | 2.6V | 03:37:59 | 02:14:26 | 00:00:00 | |
| HSKMA3-T | 2026-09-04 00:09:15 | 52.41033 | 11.33682 | 109° | 20km/h | 26405m | 4.8m/s | -48.5°C | 0% | 21.6hPa | 2.6V | 03:40:40 | 02:14:30 | 00:00:00 | |
| AA1-15 | 2026-09-04 00:09:13 | 52.41036 | 11.33667 | 117° | 18km/h | 26394m | 5.9m/s | -48.5°C | 0% | 21.7hPa | 2.5V | 03:38:07 | 02:14:28 | 00:00:00 | |
| DL1XH-west | 2026-09-04 00:09:12 | 52.41042 | 11.33654 | 129° | 20km/h | 26383m | 4.5m/s | -48.5°C | 0% | 21.7hPa | 2.6V | 03:38:07 | 02:14:26 | 00:00:00 | |
| DL1NUX | 2026-09-04 00:09:11 | 52.41055 | 11.33603 | 98° | 18km/h | 26353m | 5.4m/s | -48.6°C | 2.8% | 21.8hPa | 2.6V | 03:38:05 | 02:14:20 | 00:00:00 | |
| DB0DAN | 2026-09-04 00:09:10 | 52.41045 | 11.33647 | 124° | 20km/h | 26379m | 4.3m/s | -48.5°C | 0.4% | 21.75hPa | 2.5V | 00:00:00 | 00:00:00 | 00:00:00 | |
| SP3BTT-10 | 2026-09-04 00:09:10 | 52.41045 | 11.33647 | 124° | 11km/h | 26380m | 4.2m/s | -48.4°C | 2.8% | 21.7hPa | 2.6V | 03:38:00 | 00:00:00 | 00:00:00 | |
| DO2SHX-10 | 2026-09-04 00:09:09 | 52.41048 | 11.33639 | 121° | 26km/h | 26375m | 5.5m/s | -48.4°C | 2.8% | 21.7hPa | 2.6V | 00:00:00 | 02:14:24 | 00:00:00 | |
| DM0DOS-11 | 2026-09-04 00:09:08 | 52.41055 | 11.33603 | 98° | 18km/h | 26353m | 5.4m/s | -48.6°C | 2.8% | 21.8hPa | 2.6V | 03:38:05 | 02:14:20 | 00:00:00 | |
| DF8AY | 2026-09-04 00:09:05 | 52.41055 | 11.33603 | 99° | 18km/h | 26353m | 5.4m/s | -48.6°C | 0% | 21.8hPa | 2.6V | 03:38:07 | 02:14:20 | 00:00:00 | |
| DL1XH1-15 | 2026-09-04 00:09:05 | 52.41056 | 11.33594 | 109° | 5km/h | 26342m | 5.4m/s | -48.8°C | 2.9% | 21.9hPa | 2.5V | 03:38:07 | 02:14:18 | 00:00:00 | |
| HSKMA3-T | 2026-09-04 00:09:04 | 52.41055 | 11.33597 | 93° | 11km/h | 26347m | 5.9m/s | -48.7°C | 0% | 21.9hPa | 2.5V | 03:40:40 | 02:14:19 | 00:00:00 | |
| AA1-15 | 2026-09-04 00:09:02 | 52.41056 | 11.33592 | 135° | 5km/h | 26337m | 4.6m/s | -48.8°C | 0% | 21.9hPa | 2.5V | 03:38:58 | 02:14:17 | 00:00:00 | |
| DL1XH-west | 2026-09-04 00:09:01 | 52.41058 | 11.33590 | 130° | 7km/h | 26332m | 4.8m/s | -48.8°C | 0% | 21.9hPa | 2.6V | 03:38:58 | 02:14:16 | 00:00:00 | |
| DF2AP-13 | 2026-09-04 00:09:01 | 52.41058 | 11.33590 | 130° | 15km/h | 26332m | 4.7m/s | -48.8°C | 2.9% | 21.9hPa | 2.6V | 00:00:00 | 02:14:16 | 00:00:00 | |
| DO2SHX-10 | 2026-09-04 00:09:00 | 52.41059 | 11.33586 | 114° | 18km/h | 26327m | 5.7m/s | -48.8°C | 2.9% | 21.9hPa | 2.5V | 03:38:00 | 02:14:15 | 00:00:00 | |
| DL1NUX | 2026-09-04 00:08:59 | 52.41059 | 11.33537 | 74° | 26km/h | 26300m | 5.2m/s | -49°C | 2.9% | 22hPa | 2.5V | 03:38:15 | 02:14:10 | 00:00:00 | |
| HTAHTA | 2026-09-04 00:08:57 | 52.41060 | 11.33548 | 81° | 27km/h | 26305m | 4.6m/s | 0°C | -1.0% | -1.0hPa | 2.5V | 00:00:00 | 00:00:00 | 00:00:00 | |
| DB0DAN | 2026-09-04 00:08:55 | 52.41059 | 11.33537 | 75° | 24km/h | 26300m | 5.2m/s | -49°C | 0.5% | 22hPa | 2.5V | 00:00:00 | 00:00:00 | 00:00:00 | |
| DL1XH-15 | 2026-09-04 00:08:55 | 52.41053 | 11.33512 | 76° | 11km/h | 26279m | 5m/s | -49.3°C | 3% | 22.1hPa | 2.6V | 03:38:19 | 02:14:06 | 00:00:00 | |
| DL1XH1-15 | 2026-09-04 00:08:55 | 52.41056 | 11.33521 | 67° | 15km/h | 26289m | 5m/s | -49.2°C | 2.9% | 22.1hPa | 2.5V | 03:38:17 | 02:14:08 | 00:00:00 | |
| DF8AY | 2026-09-04 00:08:55 | 52.41057 | 11.33528 | 73° | 20km/h | 26295m | 5.6m/s | -49.1°C | 0% | 22hPa | 2.5V | 03:39:49 | 02:14:09 | 00:00:00 | |
| DL1XH-west | 2026-09-04 00:08:51 | 52.41053 | 11.33512 | 76° | 11km/h | 26280m | 5m/s | -49.3°C | 0% | 22.1hPa | 2.6V | 03:38:58 | 02:14:06 | 00:00:00 | |
| DO2SHX-10 | 2026-09-04 00:08:51 | 52.41053 | 11.33512 | 77° | 13km/h | 26280m | 5.0m/s | -49.2°C | 3.0% | 22.1hPa | 2.6V | 00:00:00 | 02:14:06 | 00:00:00 | |
| DF7ER-10 | 2026-09-04 00:08:50 | 52.41053 | 11.33512 | 77° | 11km/h | 26280m | 5.0m/s | -49.3°C | 0.5% | 22.1hPa | 2.6V | 03:38:00 | 00:00:00 | 00:00:00 | |
| GOEST3-10 | 2026-09-04 00:08:49 | 52.41053 | 11.33502 | 83° | 16km/h | 26269m | 5.5m/s | -49.4°C | 3.0% | 22.1hPa | 2.6V | 00:00:00 | 02:14:04 | 00:00:00 | |
| DM0DOS-11 | 2026-09-04 00:08:48 | 52.41046 | 11.33478 | 39° | 16km/h | 26248m | 5.8m/s | -49.5°C | 3% | 22.2hPa | 2.6V | 03:38:25 | 02:14:00 | 00:00:00 | |
| DL1XH1-15 | 2026-09-04 00:08:48 | 52.41039 | 11.33473 | 6° | 13km/h | 26237m | 5m/s | -49.5°C | 3% | 22.2hPa | 2.5V | 03:38:27 | 02:13:58 | 00:00:00 | |
| DO2SHX-10 | 2026-09-04 00:08:48 | 52.41052 | 11.33495 | 79° | 16km/h | 26263m | 4.6m/s | -49.4°C | 3.0% | 22.1hPa | 2.5V | 03:38:00 | 02:14:03 | 00:00:00 | |
| TFSTFS | 2026-09-04 00:08:47 | 52.41052 | 11.33495 | 80° | 16km/h | 26263m | 4.6m/s | -49.5°C | 0.5% | 22.2hPa | 2.6V | 03:38:00 | 00:00:00 | 00:00:00 | |
| DB0NH | 2026-09-04 00:08:46 | 52.41049 | 11.33482 | 58° | 9km/h | 26254m | 4.5m/s | -49.5°C | 3.1% | 22.1hPa | 2.6V | 03:38:00 | 02:14:01 | 00:00:00 | |
| DL1XH-15 | 2026-09-04 00:08:45 | 52.41034 | 11.33472 | 22° | 7km/h | 26227m | 5.5m/s | -49.5°C | 3% | 22.2hPa | 2.6V | 03:38:29 | 02:13:56 | 00:00:00 | |
| HSKMA3-T | 2026-09-04 00:08:45 | 52.41046 | 11.33478 | 39° | 16km/h | 26249m | 5.8m/s | -49.5°C | 0% | 22.2hPa | 2.6V | 03:40:40 | 02:14:00 | 00:00:00 | |
| DF8AY | 2026-09-04 00:08:43 | 52.41039 | 11.33473 | 7° | 13km/h | 26237m | 5m/s | -49.5°C | 0% | 22.2hPa | 2.5V | 03:39:49 | 02:13:58 | 00:00:00 | |
| AA1-15 | 2026-09-04 00:08:41 | 52.41034 | 11.33472 | 22° | 7km/h | 26227m | 5.5m/s | -49.5°C | 0% | 22.2hPa | 2.6V | 03:38:58 | 02:13:56 | 00:00:00 | |
| DL1XH-west | 2026-09-04 00:08:40 | 52.41033 | 11.33470 | 78° | 7km/h | 26222m | 5.8m/s | -49.5°C | 0% | 22.3hPa | 2.5V | 03:38:58 | 02:13:55 | 00:00:00 | |
| DB0DAN | 2026-09-04 00:08:40 | 52.41033 | 11.33470 | 78° | 7km/h | 26222m | 5.8m/s | -49.5°C | 0.5% | 22.28hPa | 2.5V | 00:00:00 | 00:00:00 | 00:00:00 | |
| SO1NDE-10 | 2026-09-04 00:08:40 | 52.41033 | 11.33470 | 78° | 7km/h | 26222m | 5.7m/s | -49.5°C | 3.0% | 22.2hPa | 2.5V | 00:00:00 | 02:13:55 | 00:00:00 | |
| DO2SHX-10 | 2026-09-04 00:08:39 | 52.41033 | 11.33466 | 93° | 15km/h | 26217m | 4.9m/s | -49.5°C | 3.0% | 22.2hPa | 2.5V | 00:00:00 | 02:13:54 | 00:00:00 | |
| DL1XH1-15 | 2026-09-04 00:08:38 | 52.41027 | 11.33431 | 50° | 9km/h | 26185m | 4.5m/s | -49.6°C | 3% | 22.4hPa | 2.5V | 03:38:37 | 02:13:48 | 00:00:00 | |
| DO2SHX-10 | 2026-09-04 00:08:36 | 52.41032 | 11.33446 | 74° | 16km/h | 26201m | 6.0m/s | -49.5°C | 3.1% | 22.3hPa | 2.6V | 03:38:00 | 02:13:51 | 00:00:00 | |
| DL1XH-15 | 2026-09-04 00:08:35 | 52.41025 | 11.33427 | 103° | 4km/h | 26174m | 6.1m/s | -49.6°C | 3.1% | 22.4hPa | 2.6V | 03:38:39 | 02:13:46 | 00:00:00 | |
| HSKMA3-T | 2026-09-04 00:08:34 | 52.41028 | 11.33435 | 51° | 13km/h | 26190m | 4.8m/s | -49.6°C | 0% | 22.4hPa | 2.5V | 03:40:40 | 02:13:49 | 00:00:00 | |
| DF8AY | 2026-09-04 00:08:32 | 52.41025 | 11.33429 | 65° | 5km/h | 26180m | 5.9m/s | -49.6°C | 0% | 22.4hPa | 2.5V | 03:39:49 | 02:13:47 | 00:00:00 | |
| AA1-15 | 2026-09-04 00:08:31 | 52.41025 | 11.33427 | 103° | 4km/h | 26175m | 6.1m/s | -49.6°C | 0% | 22.5hPa | 2.6V | 03:38:58 | 02:13:46 | 00:00:00 | |
| DL1XH-west | 2026-09-04 00:08:30 | 52.41026 | 11.33425 | 139° | 4km/h | 26169m | 4.9m/s | -49.6°C | 0% | 22.5hPa | 2.6V | 03:38:58 | 02:13:45 | 00:00:00 | |
| DO2SHX-10 | 2026-09-04 00:08:30 | 52.41025 | 11.33425 | 140° | 2km/h | 26169m | 4.9m/s | -49.5°C | 3.1% | 22.4hPa | 2.6V | 00:00:00 | 02:13:45 | 00:00:00 | |
| DB0UT-7 | 2026-09-04 00:08:29 | 52.41026 | 11.33425 | 124° | 5km/h | 26164m | 4.2m/s | -49.5°C | 3.0% | 22.4hPa | 2.5V | 00:00:00 | 02:13:44 | 00:00:00 | |
| DL1XH1-15 | 2026-09-04 00:08:28 | 52.41022 | 11.33419 | 98° | 4km/h | 26133m | 5.2m/s | -49.6°C | 3.1% | 22.6hPa | 2.5V | 03:38:47 | 02:13:38 | 00:00:00 | |
| DO2SHX-10 | 2026-09-04 00:08:27 | 52.41025 | 11.33424 | 11° | 5km/h | 26153m | 5.8m/s | -49.6°C | 3.1% | 22.5hPa | 2.5V | 00:00:00 | 02:13:42 | 00:00:00 | |
| DB0DAN | 2026-09-04 00:08:25 | 52.41023 | 11.33422 | 36° | 5km/h | 26143m | 4.7m/s | -49.6°C | 0.5% | 22.55hPa | 2.5V | 00:00:00 | 00:00:00 | 00:00:00 | |
| DL1XH-15 | 2026-09-04 00:08:25 | 52.41022 | 11.33417 | 44° | 2km/h | 26123m | 6m/s | -49.6°C | 3.1% | 22.6hPa | 2.6V | 03:38:49 | 02:13:36 | 00:00:00 | |
| DF8AY | 2026-09-04 00:08:22 | 52.41021 | 11.33417 | 0° | 4km/h | 26116m | 6.4m/s | -49.6°C | 0% | 22.7hPa | 2.6V | 03:39:49 | 02:13:35 | 00:00:00 | |
| AA1-15 | 2026-09-04 00:08:21 | 52.41022 | 11.33417 | 45° | 2km/h | 26123m | 6m/s | -49.7°C | 0% | 22.6hPa | 2.6V | 03:38:58 | 02:13:36 | 00:00:00 | |
| DL1XH-west | 2026-09-04 00:08:19 | 52.41020 | 11.33418 | 332° | 7km/h | 26111m | 5.1m/s | -49.6°C | 0% | 22.6hPa | 2.5V | 03:38:58 | 02:13:34 | 00:00:00 | |
| DF8AY-15 | 2026-09-04 00:08:19 | 52.41020 | 11.33418 | 333° | 7km/h | 26111m | 5.1m/s | -49.6°C | 3.1% | 22.6hPa | 2.5V | 00:00:00 | 02:13:34 | 00:00:00 | |
| DL1XH1-15 | 2026-09-04 00:08:18 | 52.41018 | 11.33431 | 316° | 4km/h | 26079m | 6.4m/s | -49.6°C | 3.1% | 22.8hPa | 2.5V | 03:38:57 | 02:13:28 | 00:00:00 | |
| DJ2DS-15 | 2026-09-04 00:08:18 | 52.41018 | 11.33422 | 286° | 5km/h | 26101m | 6.4m/s | -49.6°C | 0.5% | 22.7hPa | 2.6V | 00:00:00 | 00:00:00 | 00:00:00 | |
| DL1NUX | 2026-09-04 00:08:17 | 52.41018 | 11.33427 | 259° | 5km/h | 26089m | 4.5m/s | -49.6°C | 3.1% | 22.7hPa | 2.6V | 03:38:55 | 02:13:30 | 00:00:00 | |
| DB0NH | 2026-09-04 00:08:16 | 52.41018 | 11.33424 | 259° | 7km/h | 26095m | 6.1m/s | -49.5°C | 3.1% | 22.7hPa | 2.6V | 00:00:00 | 02:13:31 | 00:00:00 | |
| DL1XH-15 | 2026-09-04 00:08:15 | 52.41016 | 11.33430 | 34° | 7km/h | 26067m | 4.6m/s | -49.5°C | 3% | 22.8hPa | 2.6V | 03:38:59 | 02:13:26 | 00:00:00 | |
| AA1-15 | 2026-09-04 00:08:11 | 52.41015 | 11.33430 | 34° | 7km/h | 26067m | 4.6m/s | -49.6°C | 0% | 22.8hPa | 2.6V | 03:39:49 | 02:13:26 | 00:00:00 | |
| DB0DAN | 2026-09-04 00:08:10 | 52.41014 | 11.33428 | 55° | 7km/h | 26062m | 5.7m/s | -49.5°C | 0.5% | 22.83hPa | 2.5V | 00:00:00 | 00:00:00 | 00:00:00 | |
| DF8AY | 2026-09-04 00:08:09 | 52.41013 | 11.33425 | 78° | 9km/h | 26056m | 5.9m/s | -49.5°C | 0% | 22.9hPa | 2.5V | 03:39:49 | 02:13:24 | 00:00:00 | |
| DL1XH-west | 2026-09-04 00:08:09 | 52.41013 | 11.33422 | 88° | 7km/h | 26051m | 5.1m/s | -49.5°C | 0% | 22.9hPa | 2.5V | 03:39:49 | 02:13:23 | 00:00:00 | |
| DM0DOS-11 | 2026-09-04 00:08:09 | 52.41011 | 11.33417 | 349° | 7km/h | 26035m | 6.3m/s | -49.5°C | 3% | 22.9hPa | 2.6V | 03:39:05 | 02:13:20 | 00:00:00 | |
| DF7ER-10 | 2026-09-04 00:08:07 | 52.41013 | 11.33421 | 89° | 7km/h | 26051m | 5.1m/s | -49.5°C | 0.5% | 22.9hPa | 2.6V | 03:39:00 | 00:00:00 | 00:00:00 | |
| DO2SHX-10 | 2026-09-04 00:08:06 | 52.41012 | 11.33417 | 32° | 7km/h | 26041m | 5.6m/s | -49.4°C | 3.0% | 22.9hPa | 2.6V | 00:00:00 | 02:13:21 | 00:00:00 | |
| DL1XH-15 | 2026-09-04 00:08:05 | 52.41005 | 11.33430 | 269° | 11km/h | 26013m | 6.2m/s | -49.5°C | 3% | 23hPa | 2.6V | 03:39:09 | 02:13:16 | 00:00:00 | |
| HSKMA3-T | 2026-09-04 00:08:01 | 52.41004 | 11.33430 | 269° | 11km/h | 26013m | 6.2m/s | -49.5°C | 0% | 23hPa | 2.6V | 03:40:40 | 02:13:16 | 00:00:00 | |
| AA1-15 | 2026-09-04 00:08:00 | 52.41005 | 11.33435 | 249° | 13km/h | 26008m | 5m/s | -49.5°C | 0% | 23hPa | 2.6V | 03:39:49 | 02:13:15 | 00:00:00 | |
| DL1ZP-14 | 2026-09-04 00:08:00 | 52.41006 | 11.33439 | 246° | 11km/h | 26003m | 4.3m/s | -49.5°C | 0.5% | 23.0hPa | 2.5V | 00:00:00 | 00:00:00 | 00:00:00 | |
| DM0DOS-11 | 2026-09-04 00:07:59 | 52.41005 | 11.33452 | 344° | 11km/h | 25982m | 4.9m/s | -49.5°C | 3.1% | 23.1hPa | 2.5V | 03:39:15 | 02:13:10 | 00:00:00 | |
| DL1XH-west | 2026-09-04 00:07:58 | 52.41007 | 11.33443 | 253° | 9km/h | 25999m | 4.6m/s | -49.5°C | 0% | 23.1hPa | 2.5V | 03:39:49 | 02:13:13 | 00:00:00 | |
| DF8AY | 2026-09-04 00:07:57 | 52.40998 | 11.33449 | 51° | 7km/h | 25968m | 6.1m/s | -49.5°C | 0% | 23.2hPa | 2.6V | 03:39:49 | 02:13:07 | 00:00:00 | |
| DO2SHX-10 | 2026-09-04 00:07:57 | 52.41007 | 11.33447 | 277° | 9km/h | 25994m | 5.5m/s | -49.5°C | 3.1% | 23.0hPa | 2.5V | 00:00:00 | 02:13:12 | 00:00:00 | |
| DF7ER-10 | 2026-09-04 00:07:56 | 52.41007 | 11.33447 | 277° | 7km/h | 25994m | 5.5m/s | -49.6°C | 0.6% | 23.1hPa | 2.5V | 03:39:00 | 00:00:00 | 00:00:00 | |
| DB0DAN | 2026-09-04 00:07:55 | 52.41004 | 11.33452 | 345° | 9km/h | 25982m | 4.9m/s | -49.5°C | 0.5% | 23.11hPa | 2.5V | 00:00:00 | 00:00:00 | 00:00:00 | |
| DL1XH-15 | 2026-09-04 00:07:55 | 52.40998 | 11.33447 | 98° | 5km/h | 25962m | 5.3m/s | -49.5°C | 3% | 23.2hPa | 2.6V | 03:39:19 | 02:13:06 | 00:00:00 | |
| HSKMA3-T | 2026-09-04 00:07:51 | 52.40998 | 11.33447 | 99° | 5km/h | 25962m | 5.3m/s | -49.5°C | 0% | 23.2hPa | 2.6V | 03:40:40 | 02:13:06 | 00:00:00 | |
| AA1-15 | 2026-09-04 00:07:50 | 52.40998 | 11.33445 | 122° | 4km/h | 25957m | 4.3m/s | -49.5°C | 0% | 23.2hPa | 2.6V | 03:39:49 | 02:13:05 | 00:00:00 | |
| BUE01 | 2026-09-04 00:07:50 | 52.40999 | 11.33444 | 163° | 2km/h | 25953m | 5.5m/s | -49.5°C | 0.5% | 23.2hPa | 2.5V | 00:00:00 | 00:00:00 | 00:00:00 | |
| GOEST3-10 | 2026-09-04 00:07:49 | 52.40999 | 11.33444 | 164° | 5km/h | 25953m | 5.4m/s | -49.4°C | 3.0% | 23.2hPa | 2.5V | 00:00:00 | 02:13:04 | 00:00:00 | |
| DL1XH1-15 | 2026-09-04 00:07:48 | 52.40991 | 11.33448 | 35° | 9km/h | 25920m | 5.3m/s | -49.5°C | 3.1% | 23.3hPa | 2.5V | 03:39:27 | 02:12:58 | 00:00:00 | |
| DL1XH-west | 2026-09-04 00:07:47 | 52.40998 | 11.33446 | 306° | 5km/h | 25941m | 5.2m/s | -49.5°C | 0% | 23.2hPa | 2.5V | 03:39:49 | 02:13:02 | 00:00:00 | |
| DB0NH | 2026-09-04 00:07:46 | 52.40997 | 11.33448 | 325° | 9km/h | 25936m | 4.6m/s | -49.5°C | 3.0% | 23.2hPa | 2.6V | 00:00:00 | 02:13:01 | 00:00:00 | |
| DL1XH-15 | 2026-09-04 00:07:45 | 52.40987 | 11.33443 | 29° | 11km/h | 25909m | 5.6m/s | -49.6°C | 3.1% | 23.4hPa | 2.6V | 03:39:29 | 02:12:56 | 00:00:00 | |
| DO2SHX-10 | 2026-09-04 00:07:45 | 52.40995 | 11.33450 | 344° | 9km/h | 25931m | 5.1m/s | -49.5°C | 3.1% | 23.2hPa | 2.6V | 00:00:00 | 02:13:00 | 00:00:00 | |
| GOEST3-10 | 2026-09-04 00:07:44 | 52.40993 | 11.33450 | 14° | 9km/h | 25926m | 5.9m/s | -49.5°C | 3.0% | 23.3hPa | 2.5V | 03:39:00 | 00:00:00 | 00:00:00 | |
| DO2SHX-10 | 2026-09-04 00:07:42 | 52.40989 | 11.33446 | 39° | 11km/h | 25914m | 5.4m/s | -49.5°C | 3.1% | 23.3hPa | 2.5V | 00:00:00 | 02:12:57 | 00:00:00 | |
| DB0DAN | 2026-09-04 00:07:40 | 52.40985 | 11.33442 | 12° | 9km/h | 25903m | 5.7m/s | -49.7°C | 0.5% | 23.42hPa | 2.5V | 00:00:00 | 00:00:00 | 00:00:00 | |
| AA1-15 | 2026-09-04 00:07:40 | 52.40985 | 11.33442 | 12° | 9km/h | 25903m | 5.7m/s | -49.7°C | 0% | 23.4hPa | 2.5V | 03:39:49 | 02:12:55 | 00:00:00 | |
| DF8AY-15 | 2026-09-04 00:07:39 | 52.40983 | 11.33442 | 345° | 9km/h | 25898m | 4.4m/s | -49.6°C | 3.1% | 23.4hPa | 2.5V | 03:39:00 | 02:12:54 | 00:00:00 | |
| DL1XH1-15 | 2026-09-04 00:07:38 | 52.40986 | 11.33450 | 271° | 5km/h | 25866m | 5.9m/s | -49.7°C | 3.1% | 23.5hPa | 2.5V | 03:39:37 | 02:12:48 | 00:00:00 | |
| DF8AY | 2026-09-04 00:07:37 | 52.40982 | 11.33444 | 246° | 4km/h | 25888m | 5.9m/s | -49.7°C | 0% | 23.5hPa | 2.6V | 03:39:49 | 02:12:52 | 00:00:00 | |
| DL1XH-west | 2026-09-04 00:07:36 | 52.40982 | 11.33445 | 203° | 5km/h | 25882m | 6.1m/s | -49.7°C | 0% | 23.5hPa | 2.6V | 03:39:49 | 02:12:51 | 00:00:00 | |
| HSKMA3-T | 2026-09-04 00:07:30 | 52.40979 | 11.33456 | 353° | 15km/h | 25850m | 4.8m/s | -49.8°C | 0% | 23.6hPa | 2.6V | 03:40:40 | 02:12:45 | 00:00:00 | |
| AA1-15 | 2026-09-04 00:07:29 | 52.40976 | 11.33455 | 12° | 15km/h | 25845m | 5.9m/s | -49.8°C | 0% | 23.6hPa | 2.5V | 03:39:49 | 02:12:44 | 00:00:00 | |
| DL1XH-west | 2026-09-04 00:07:26 | 52.40965 | 11.33448 | 25° | 16km/h | 25830m | 4.7m/s | -49.8°C | 0% | 23.6hPa | 2.6V | 03:39:49 | 02:12:41 | 00:00:00 | |
| DB0DAN | 2026-09-04 00:07:25 | 52.40962 | 11.33445 | 16° | 15km/h | 25825m | 5.7m/s | -49.8°C | 0.5% | 23.7hPa | 2.5V | 00:00:00 | 00:00:00 | 00:00:00 | |
| AA1-15 | 2026-09-04 00:07:19 | 52.40952 | 11.33447 | 185° | 7km/h | 25794m | 6.1m/s | -49.9°C | 0% | 23.8hPa | 2.5V | 03:40:40 | 02:12:34 | 00:00:00 | |
| DL1CLM-18 | 2026-09-04 00:07:19 | 52.40951 | 11.33447 | 186° | 7km/h | 25794m | 6.1m/s | -49.9°C | 0.5% | 23.8hPa | 2.5V | 00:00:00 | 00:00:00 | 00:00:00 | |
| DL1XH1-15 | 2026-09-04 00:07:18 | 52.40951 | 11.33452 | 358° | 16km/h | 25762m | 5.9m/s | -50°C | 3% | 23.9hPa | 2.5V | 03:39:57 | 02:12:28 | 00:00:00 | |
| DF8AY | 2026-09-04 00:07:16 | 52.40957 | 11.33449 | 215° | 4km/h | 25780m | 5.4m/s | -49.9°C | 0% | 23.9hPa | 2.6V | 03:40:40 | 02:12:31 | 00:00:00 | |
| DL1XH-west | 2026-09-04 00:07:15 | 52.40957 | 11.33450 | 328° | 5km/h | 25774m | 5.9m/s | -49.9°C | 0% | 23.9hPa | 2.6V | 03:40:40 | 02:12:30 | 00:00:00 | |
| DL1XH-15 | 2026-09-04 00:07:15 | 52.40941 | 11.33450 | 13° | 20km/h | 25750m | 5.2m/s | -50°C | 3.1% | 23.9hPa | 2.6V | 03:39:59 | 02:12:26 | 00:00:00 | |
| AA1-15 | 2026-09-04 00:07:09 | 52.40933 | 11.33447 | 8° | 13km/h | 25742m | 4.4m/s | -50°C | 0% | 24hPa | 2.5V | 03:40:40 | 02:12:24 | 00:00:00 | |
| DM0DOS-11 | 2026-09-04 00:07:09 | 52.40928 | 11.33449 | 176° | 4km/h | 25721m | 5.7m/s | -50°C | 3.1% | 24hPa | 2.6V | 03:40:05 | 02:12:20 | 00:00:00 | |
| HSKMA3-T | 2026-09-04 00:07:09 | 52.40928 | 11.33447 | 333° | 5km/h | 25731m | 5m/s | -50°C | 0% | 24hPa | 2.6V | 03:40:40 | 02:12:22 | 00:00:00 | |
| DF8AY | 2026-09-04 00:07:06 | 52.40927 | 11.33448 | 292° | 2km/h | 25726m | 4.7m/s | -50°C | 0% | 24.1hPa | 2.6V | 03:40:40 | 02:12:21 | 00:00:00 | |
| DL1XH-west | 2026-09-04 00:07:05 | 52.40928 | 11.33449 | 177° | 4km/h | 25721m | 5.7m/s | -50°C | 0% | 24hPa | 2.6V | 03:40:40 | 02:12:20 | 00:00:00 | |
| AA1-15 | 2026-09-04 00:06:59 | 52.40929 | 11.33438 | 11° | 11km/h | 25689m | 4.8m/s | -50.2°C | 0% | 24.2hPa | 2.5V | 03:40:40 | 02:12:14 | 00:00:00 | |
| DM0DOS-11 | 2026-09-04 00:06:58 | 52.40915 | 11.33431 | 11° | 13km/h | 25668m | 4.2m/s | -50.2°C | 3.1% | 24.3hPa | 2.6V | 03:40:15 | 02:12:10 | 00:00:00 | |
| HSKMA3-T | 2026-09-04 00:06:58 | 52.40926 | 11.33437 | 14° | 15km/h | 25683m | 5.6m/s | -50.2°C | 0% | 24.2hPa | 2.5V | 03:40:40 | 02:12:13 | 00:00:00 | |
| DF8AY | 2026-09-04 00:06:56 | 52.40918 | 11.33433 | 19° | 15km/h | 25672m | 4.4m/s | -50.2°C | 0% | 24.2hPa | 2.6V | 03:40:40 | 02:12:11 | 00:00:00 | |
| DL1XH-15 | 2026-09-04 00:06:55 | 52.40910 | 11.33437 | 234° | 5km/h | 25648m | 4.6m/s | -50.4°C | 3.1% | 24.3hPa | 2.5V | 03:40:19 | 02:12:06 | 00:00:00 | |
| DL1XH1-15 | 2026-09-04 00:06:55 | 52.40911 | 11.33432 | 308° | 5km/h | 25657m | 5.2m/s | -50.3°C | 3.1% | 24.3hPa | 2.5V | 03:40:17 | 02:12:08 | 00:00:00 | |
| DL1XH-west | 2026-09-04 00:06:54 | 52.40912 | 11.33431 | 354° | 9km/h | 25663m | 5.8m/s | -50.3°C | 0% | 24.3hPa | 2.6V | 03:40:40 | 02:12:09 | 00:00:00 | |
| AA1-15 | 2026-09-04 00:06:48 | 52.40914 | 11.33435 | 128° | 9km/h | 25632m | 5.1m/s | -50.5°C | 0% | 24.4hPa | 2.6V | 03:40:40 | 02:12:03 | 00:00:00 | |
| HSKMA3-T | 2026-09-04 00:06:47 | 52.40916 | 11.33432 | 123° | 9km/h | 25627m | 4.6m/s | -50.6°C | 0% | 24.4hPa | 2.5V | 03:40:40 | 02:12:02 | 00:00:00 | |
| DM0DOS-11 | 2026-09-04 00:06:47 | 52.40917 | 11.33428 | 319° | 0km/h | 25616m | 5.9m/s | -50.6°C | 3.2% | 24.4hPa | 2.5V | 03:40:25 | 02:12:00 | 00:00:00 | |
| DF8AY | 2026-09-04 00:06:45 | 52.40917 | 11.33428 | 319° | 0km/h | 25616m | 5.9m/s | -50.7°C | 0% | 24.4hPa | 2.5V | 03:40:40 | 02:12:00 | 00:00:00 | |
| SMARD9-15 | 2026-09-04 00:06:44 | 52.40916 | 11.33429 | 301° | 5km/h | 25611m | 4.8m/s | -50.6°C | 0.5% | 24.4hPa | 2.6V | 00:00:00 | 00:00:00 | 00:00:00 | |
| DL1XH-west | 2026-09-04 00:06:43 | 52.40915 | 11.33432 | 307° | 9km/h | 25606m | 4.2m/s | -50.7°C | 0% | 24.5hPa | 2.6V | 03:40:40 | 02:11:58 | 00:00:00 | |
| DF7ER-10 | 2026-09-04 00:06:43 | 52.40915 | 11.33432 | 308° | 9km/h | 25607m | 4.2m/s | -50.7°C | 0.6% | 24.5hPa | 2.6V | 03:40:00 | 00:00:00 | 00:00:00 | |
| DO2SHX-10 | 2026-09-04 00:06:42 | 52.40914 | 11.33435 | 315° | 7km/h | 25602m | 5.1m/s | -50.6°C | 3.2% | 24.4hPa | 2.6V | 00:00:00 | 02:11:57 | 00:00:00 | |
| DB0DAN | 2026-09-04 00:06:40 | 52.40911 | 11.33438 | 344° | 4km/h | 25591m | 4.7m/s | -50.8°C | 0.6% | 24.54hPa | 2.5V | 00:00:00 | 00:00:00 | 00:00:00 | |
| SO1NDE-10 | 2026-09-04 00:06:40 | 52.40911 | 11.33438 | 344° | 11km/h | 25591m | 4.6m/s | -50.7°C | 3.2% | 24.5hPa | 2.6V | 00:00:00 | 02:11:55 | 00:00:00 | |
| DO2SHX-10 | 2026-09-04 00:06:39 | 52.40910 | 11.33439 | 320° | 4km/h | 25587m | 4.0m/s | -50.8°C | 3.2% | 24.5hPa | 2.6V | 00:00:00 | 02:11:54 | 00:00:00 | |
| DM0DOS-11 | 2026-09-04 00:06:38 | 52.40913 | 11.33447 | 247° | 7km/h | 25565m | 5.2m/s | -50.8°C | 3.2% | 24.7hPa | 2.6V | 03:40:35 | 02:11:50 | 00:00:00 | |
| AA1-15 | 2026-09-04 00:06:38 | 52.40910 | 11.33440 | 232° | 2km/h | 25582m | 5.2m/s | -50.8°C | 0% | 24.6hPa | 2.5V | 03:40:40 | 02:11:53 | 00:00:00 | |
| HSKMA3-T | 2026-09-04 00:06:36 | 52.40912 | 11.33444 | 238° | 9km/h | 25570m | 5.6m/s | -50.8°C | 0% | 24.6hPa | 2.6V | 03:40:40 | 02:11:51 | 00:00:00 | |
| DF8AY | 2026-09-04 00:06:35 | 52.40909 | 11.33469 | 278° | 15km/h | 25526m | 4.9m/s | -50.9°C | 0% | 24.8hPa | 2.5V | 03:41:31 | 02:11:43 | 00:00:00 | |
| DL1XH-15 | 2026-09-04 00:06:35 | 52.40912 | 11.33455 | 301° | 7km/h | 25544m | 5m/s | -50.9°C | 3.2% | 24.7hPa | 2.6V | 03:40:39 | 02:11:46 | 00:00:00 | |
| DL1XH-west | 2026-09-04 00:06:33 | 52.40913 | 11.33453 | 308° | 5km/h | 25549m | 4.6m/s | -50.9°C | 0% | 24.7hPa | 2.5V | 03:40:40 | 02:11:47 | 00:00:00 | |
| AA1-15 | 2026-09-04 00:06:27 | 52.40909 | 11.33474 | 268° | 11km/h | 25522m | 5.4m/s | -50.9°C | 0% | 24.8hPa | 2.5V | 03:41:31 | 02:11:42 | 00:00:00 | |
| DM0DOS-11 | 2026-09-04 00:06:27 | 52.40910 | 11.33481 | 237° | 7km/h | 25510m | 4.8m/s | -50.9°C | 3.2% | 24.8hPa | 2.6V | 03:40:45 | 02:11:40 | 00:00:00 | |
| HSKMA3-T | 2026-09-04 00:06:25 | 52.40910 | 11.33481 | 238° | 7km/h | 25510m | 4.8m/s | -50.9°C | 0% | 24.8hPa | 2.6V | 03:41:31 | 02:11:40 | 00:00:00 | |
| DL1XH-15 | 2026-09-04 00:06:25 | 52.40917 | 11.33495 | 243° | 16km/h | 25489m | 5.1m/s | -50.9°C | 3.2% | 24.9hPa | 2.5V | 03:40:49 | 02:11:36 | 00:00:00 | |
| DL1XH-west | 2026-09-04 00:06:22 | 52.40915 | 11.33490 | 236° | 15km/h | 25495m | 6.1m/s | -50.9°C | 0% | 24.9hPa | 2.5V | 03:41:31 | 02:11:37 | 00:00:00 | |
| DO2SHX-10 | 2026-09-04 00:06:21 | 52.40917 | 11.33495 | 244° | 16km/h | 25489m | 5.1m/s | -50.9°C | 3.2% | 24.9hPa | 2.6V | 00:00:00 | 02:11:36 | 00:00:00 | |
| TFSTFS | 2026-09-04 00:06:20 | 52.40917 | 11.33495 | 245° | 16km/h | 25489m | 5.1m/s | -50.9°C | 0.6% | 24.9hPa | 2.6V | 03:41:00 | 00:00:00 | 00:00:00 | |
| DL1NUX | 2026-09-04 00:06:19 | 52.40916 | 11.33531 | 276° | 16km/h | 25458m | 5.9m/s | -51.1°C | 3.3% | 25.1hPa | 2.6V | 03:40:55 | 02:11:30 | 00:00:00 | |
| AA1-15 | 2026-09-04 00:06:18 | 52.40918 | 11.33519 | 295° | 15km/h | 25468m | 4.4m/s | -51.1°C | 0% | 25hPa | 2.5V | 03:41:31 | 02:11:32 | 00:00:00 | |
| BUE01 | 2026-09-04 00:06:17 | 52.40916 | 11.33524 | 289° | 15km/h | 25463m | 4.7m/s | -51.2°C | 0.6% | 25.1hPa | 2.6V | 00:00:00 | 00:00:00 | 00:00:00 | |
| DB0NH | 2026-09-04 00:06:16 | 52.40916 | 11.33524 | 290° | 18km/h | 25463m | 4.6m/s | -51.1°C | 3.3% | 25.0hPa | 2.6V | 00:00:00 | 02:11:31 | 00:00:00 | |
| DL1XH-15 | 2026-09-04 00:06:15 | 52.40924 | 11.33556 | 209° | 20km/h | 25435m | 6.1m/s | -51.2°C | 3.3% | 25.1hPa | 2.6V | 03:40:59 | 02:11:26 | 00:00:00 | |
| HSKMA3-T | 2026-09-04 00:06:12 | 52.40920 | 11.33551 | 222° | 20km/h | 25442m | 6.3m/s | -51.2°C | 0% | 25.1hPa | 2.5V | 03:41:31 | 02:11:27 | 00:00:00 | |
| DL1XH-west | 2026-09-04 00:06:12 | 52.40924 | 11.33556 | 209° | 20km/h | 25435m | 6.1m/s | -51.2°C | 0% | 25.1hPa | 2.6V | 03:41:31 | 02:11:26 | 00:00:00 | |
| DF7ER-10 | 2026-09-04 00:06:11 | 52.40920 | 11.33551 | 223° | 20km/h | 25442m | 6.3m/s | -51.2°C | 0.6% | 25.1hPa | 2.6V | 03:41:00 | 00:00:00 | 00:00:00 | |
| DB0DAN | 2026-09-04 00:06:10 | 52.40929 | 11.33559 | 199° | 22km/h | 25430m | 4.9m/s | -51.3°C | 0.6% | 25.16hPa | 2.6V | 00:00:00 | 00:00:00 | 00:00:00 | |
| SO1NDE-10 | 2026-09-04 00:06:10 | 52.40929 | 11.33559 | 200° | 16km/h | 25430m | 4.9m/s | -51.2°C | 3.3% | 25.1hPa | 2.5V | 00:00:00 | 02:11:25 | 00:00:00 | |
| DO2SHX-10 | 2026-09-04 00:06:09 | 52.40935 | 11.33562 | 200° | 26km/h | 25426m | 4.8m/s | -51.3°C | 3.3% | 25.2hPa | 2.5V | 00:00:00 | 02:11:24 | 00:00:00 | |
| DL1XH1-15 | 2026-09-04 00:06:08 | 52.40956 | 11.33596 | 261° | 13km/h | 25393m | 5.3m/s | -51.4°C | 3.4% | 25.3hPa | 2.5V | 03:41:07 | 02:11:18 | 00:00:00 | |
| AA1-15 | 2026-09-04 00:06:07 | 52.40946 | 11.33572 | 216° | 26km/h | 25415m | 5.1m/s | -51.4°C | 0% | 25.2hPa | 2.5V | 03:41:31 | 02:11:22 | 00:00:00 | |
| DO2SHX-10 | 2026-09-04 00:06:06 | 52.40950 | 11.33578 | 228° | 18km/h | 25410m | 4.3m/s | -51.4°C | 3.4% | 25.2hPa | 2.5V | 00:00:00 | 02:11:21 | 00:00:00 | |
| DL1XH-15 | 2026-09-04 00:06:05 | 52.40957 | 11.33607 | 259° | 15km/h | 25383m | 6.1m/s | -51.4°C | 3.4% | 25.4hPa | 2.6V | 03:41:09 | 02:11:16 | 00:00:00 | |
| HSKMA3-T | 2026-09-04 00:06:01 | 52.40957 | 11.33607 | 260° | 15km/h | 25383m | 6.1m/s | -51.4°C | 0% | 25.4hPa | 2.6V | 03:41:31 | 02:11:16 | 00:00:00 | |
| DL1XH-west | 2026-09-04 00:06:01 | 52.40958 | 11.33613 | 250° | 16km/h | 25377m | 5.1m/s | -51.4°C | 0% | 25.4hPa | 2.6V | 03:41:31 | 02:11:15 | 00:00:00 | |
| DF7ER-10 | 2026-09-04 00:06:01 | 52.40957 | 11.33607 | 261° | 15km/h | 25383m | 6.1m/s | -51.4°C | 0.6% | 25.4hPa | 2.6V | 03:41:00 | 00:00:00 | 00:00:00 | |
| DO2SHX-10 | 2026-09-04 00:06:00 | 52.40958 | 11.33613 | 250° | 16km/h | 25377m | 5.1m/s | -51.4°C | 3.4% | 25.3hPa | 2.6V | 03:41:00 | 02:11:15 | 00:00:00 | |
| DM0DOS-11 | 2026-09-04 00:05:59 | 52.40973 | 11.33633 | 198° | 16km/h | 25351m | 4.8m/s | -51.3°C | 3.4% | 25.4hPa | 2.6V | 03:41:15 | 02:11:10 | 00:00:00 | |
| AA1-15 | 2026-09-04 00:05:57 | 52.40966 | 11.33628 | 211° | 15km/h | 25362m | 6.1m/s | -51.4°C | 0% | 25.4hPa | 2.5V | 03:41:31 | 02:11:12 | 00:00:00 | |
| DL1ZP-14 | 2026-09-04 00:05:56 | 52.40973 | 11.33633 | 198° | 15km/h | 25351m | 4.8m/s | -51.3°C | 0.6% | 25.4hPa | 2.6V | 00:00:00 | 00:00:00 | 00:00:00 | |
| DB0DAN | 2026-09-04 00:05:55 | 52.40973 | 11.33633 | 199° | 15km/h | 25351m | 4.8m/s | -51.3°C | 0.6% | 25.45hPa | 2.6V | 00:00:00 | 00:00:00 | 00:00:00 | |
| DD8BA-10 | 2026-09-04 00:05:55 | 52.40973 | 11.33633 | 199° | 16km/h | 25351m | 4.8m/s | -51.3°C | 3.4% | 25.4hPa | 2.6V | 00:00:00 | 00:00:00 | 00:00:00 | |
| DL1XH1-15 | 2026-09-04 00:05:54 | 52.40981 | 11.33639 | 213° | 20km/h | 25340m | 5.9m/s | -51.3°C | 3.4% | 25.5hPa | 2.5V | 03:41:17 | 02:11:08 | 00:00:00 | |
| DL1XH-west | 2026-09-04 00:05:49 | 52.40997 | 11.33664 | 231° | 13km/h | 25314m | 4m/s | -51.2°C | 0% | 25.6hPa | 2.5V | 03:41:31 | 02:11:03 | 00:00:00 | |
| HSKMA3-T | 2026-09-04 00:05:49 | 52.40995 | 11.33660 | 228° | 13km/h | 25319m | 4.7m/s | -51.2°C | 0% | 25.6hPa | 2.6V | 03:41:31 | 02:11:04 | 00:00:00 | |
| DM0DOS-11 | 2026-09-04 00:05:49 | 52.41004 | 11.33677 | 221° | 16km/h | 25298m | 4.7m/s | -51.1°C | 3.3% | 25.7hPa | 2.6V | 03:41:25 | 02:11:00 | 00:00:00 | |
| AA1-15 | 2026-09-04 00:05:46 | 52.41001 | 11.33673 | 228° | 15km/h | 25303m | 5.9m/s | -51.1°C | 0% | 25.6hPa | 2.6V | 03:41:31 | 02:11:01 | 00:00:00 | |
| DB0NH | 2026-09-04 00:05:46 | 52.41001 | 11.33673 | 228° | 15km/h | 25303m | 5.8m/s | -51.1°C | 3.3% | 25.6hPa | 2.6V | 00:00:00 | 02:11:01 | 00:00:00 | |
| DO3MHA-11 | 2026-09-04 00:05:45 | 52.41004 | 11.33677 | 222° | 18km/h | 25298m | 4.6m/s | -51.0°C | 3.3% | 25.6hPa | 2.6V | 00:00:00 | 02:11:00 | 00:00:00 | |
| GOEST3-10 | 2026-09-04 00:05:43 | 52.41010 | 11.33683 | 199° | 15km/h | 25289m | 6.0m/s | -51.0°C | 3.3% | 25.7hPa | 2.6V | 03:41:00 | 00:00:00 | 00:00:00 | |
| DO2SHX-10 | 2026-09-04 00:05:42 | 52.41014 | 11.33684 | 180° | 15km/h | 25283m | 5.6m/s | -51.0°C | 3.3% | 25.7hPa | 2.6V | 00:00:00 | 02:10:57 | 00:00:00 | |
| DB0DAN | 2026-09-04 00:05:40 | 52.41020 | 11.33683 | 178° | 15km/h | 25272m | 4.4m/s | -51°C | 0.6% | 25.8hPa | 2.6V | 00:00:00 | 00:00:00 | 00:00:00 | |
| SO1NDE-10 | 2026-09-04 00:05:40 | 52.41020 | 11.33683 | 178° | 16km/h | 25273m | 4.3m/s | -50.9°C | 3.3% | 25.8hPa | 2.6V | 03:41:00 | 02:10:55 | 00:00:00 | |
| DF8AY-15 | 2026-09-04 00:05:39 | 52.41025 | 11.33684 | 190° | 16km/h | 25268m | 5.8m/s | -50.9°C | 3.3% | 25.8hPa | 2.6V | 00:00:00 | 02:10:54 | 00:00:00 | |
| DM0DOS-11 | 2026-09-04 00:05:38 | 52.41041 | 11.33700 | 223° | 16km/h | 25246m | 6m/s | -51°C | 3.3% | 25.9hPa | 2.6V | 03:41:35 | 02:10:50 | 00:00:00 | |
| DL1XH-west | 2026-09-04 00:05:38 | 52.41029 | 11.33686 | 204° | 20km/h | 25262m | 5.9m/s | -51°C | 0% | 25.8hPa | 2.5V | 03:42:22 | 02:10:53 | 00:00:00 | |
| DF8AY | 2026-09-04 00:05:36 | 52.41037 | 11.33695 | 219° | 20km/h | 25251m | 4.6m/s | -51°C | 0% | 25.9hPa | 2.5V | 03:42:22 | 02:10:51 | 00:00:00 | |
| AA1-15 | 2026-09-04 00:05:35 | 52.41041 | 11.33700 | 223° | 16km/h | 25246m | 6m/s | -51°C | 0% | 25.9hPa | 2.6V | 03:42:22 | 02:10:50 | 00:00:00 | |
| DO3MHA-11 | 2026-09-04 00:05:35 | 52.41041 | 11.33700 | 224° | 13km/h | 25247m | 6.0m/s | -50.9°C | 3.3% | 25.8hPa | 2.5V | 03:41:00 | 02:10:50 | 00:00:00 | |
| DL1XH1-15 | 2026-09-04 00:05:34 | 52.41045 | 11.33707 | 234° | 9km/h | 25236m | 4.8m/s | -51°C | 3.3% | 25.9hPa | 2.5V | 03:41:37 | 02:10:48 | 00:00:00 | |
| DO2SHX-10 | 2026-09-04 00:05:33 | 52.41045 | 11.33707 | 235° | 9km/h | 25236m | 4.8m/s | -51.0°C | 3.3% | 25.9hPa | 2.6V | 00:00:00 | 02:10:48 | 00:00:00 | |
| DO2SHX-10 | 2026-09-04 00:05:30 | 52.41050 | 11.33715 | 208° | 13km/h | 25220m | 5.3m/s | -50.9°C | 3.3% | 26.0hPa | 2.6V | 00:00:00 | 02:10:45 | 00:00:00 | |
| DB0UT-7 | 2026-09-04 00:05:29 | 52.41053 | 11.33716 | 185° | 15km/h | 25215m | 4.3m/s | -50.9°C | 3.3% | 26.0hPa | 2.5V | 03:41:00 | 02:10:44 | 00:00:00 | |
| DL1XH1-15 | 2026-09-04 00:05:28 | 52.41077 | 11.33697 | 171° | 22km/h | 25183m | 5.9m/s | -50.9°C | 3.3% | 26.1hPa | 2.5V | 03:41:47 | 02:10:38 | 00:00:00 | |
| DM0DOS-11 | 2026-09-04 00:05:28 | 52.41068 | 11.33704 | 145° | 22km/h | 25193m | 4.2m/s | -50.9°C | 3.3% | 26.1hPa | 2.6V | 03:41:45 | 02:10:40 | 00:00:00 | |
| DL1XH-west | 2026-09-04 00:05:28 | 52.41060 | 11.33713 | 149° | 16km/h | 25204m | 6.4m/s | -51°C | 0% | 26.1hPa | 2.5V | 03:42:22 | 02:10:42 | 00:00:00 | |
| HSKMA3-T | 2026-09-04 00:05:25 | 52.41068 | 11.33704 | 146° | 22km/h | 25193m | 4.3m/s | -50.9°C | 0% | 26.1hPa | 2.6V | 03:45:46 | 02:10:40 | 00:00:00 | |
| DB0DAN | 2026-09-04 00:05:25 | 52.41068 | 11.33704 | 146° | 20km/h | 25193m | 4.3m/s | -50.9°C | 0.6% | 26.11hPa | 2.6V | 00:00:00 | 00:00:00 | 00:00:00 | |
| AA1-15 | 2026-09-04 00:05:24 | 52.41072 | 11.33700 | 156° | 22km/h | 25189m | 5.1m/s | -50.9°C | 0% | 26.1hPa | 2.6V | 03:42:22 | 02:10:39 | 00:00:00 | |
| DO2SHX-10 | 2026-09-04 00:05:24 | 52.41072 | 11.33700 | 157° | 22km/h | 25189m | 5.0m/s | -50.8°C | 3.3% | 26.1hPa | 2.5V | 03:41:00 | 02:10:39 | 00:00:00 | |
| GOEST3-10 | 2026-09-04 00:05:23 | 52.41077 | 11.33697 | 172° | 16km/h | 25183m | 5.8m/s | -50.8°C | 3.3% | 26.1hPa | 2.5V | 03:41:00 | 00:00:00 | 00:00:00 | |
| DO2SHX-10 | 2026-09-04 00:05:21 | 52.41088 | 11.33699 | 202° | 16km/h | 25173m | 4.7m/s | -50.8°C | 3.2% | 26.1hPa | 2.5V | 00:00:00 | 02:10:36 | 00:00:00 | |
| DF8AY-15 | 2026-09-04 00:05:19 | 52.41095 | 11.33705 | 208° | 13km/h | 25162m | 5.7m/s | -50.8°C | 3.3% | 26.2hPa | 2.6V | 00:00:00 | 02:10:34 | 00:00:00 | |
| DM0DOS-11 | 2026-09-04 00:05:18 | 52.41105 | 11.33706 | 173° | 15km/h | 25142m | 5.9m/s | -50.9°C | 3.2% | 26.3hPa | 2.6V | 03:41:55 | 02:10:30 | 00:00:00 | |
| BIOWL1-15 | 2026-09-04 00:05:16 | 52.41102 | 11.33707 | 176° | 11km/h | 25148m | 5.1m/s | 0°C | 0% | 0hPa | 2.5V | 03:42:22 | 02:10:31 | 00:00:00 | |
| HSKMA3-T | 2026-09-04 00:05:16 | 52.41105 | 11.33706 | 173° | 15km/h | 25142m | 5.9m/s | -50.9°C | 0% | 26.3hPa | 2.6V | 03:45:46 | 02:10:30 | 00:00:00 | |
| DD8BA-10 | 2026-09-04 00:05:15 | 52.41105 | 11.33706 | 174° | 16km/h | 25143m | 5.9m/s | -50.9°C | 3.2% | 26.3hPa | 2.6V | 00:00:00 | 00:00:00 | 00:00:00 | |
| DL1XH1-15 | 2026-09-04 00:05:14 | 52.41114 | 11.33704 | 166° | 20km/h | 25132m | 4.5m/s | -50.9°C | 3.3% | 26.4hPa | 2.6V | 03:41:57 | 02:10:28 | 00:00:00 | |
| AA1-15 | 2026-09-04 00:05:13 | 52.41114 | 11.33704 | 167° | 20km/h | 25132m | 4.5m/s | -50.9°C | 0% | 26.4hPa | 2.6V | 03:42:22 | 02:10:28 | 00:00:00 | |
| GOEST3-10 | 2026-09-04 00:05:13 | 52.41114 | 11.33704 | 167° | 18km/h | 25132m | 4.5m/s | -50.9°C | 3.3% | 26.3hPa | 2.5V | 00:00:00 | 00:00:00 | 00:00:00 | |
| DO2SHX-10 | 2026-09-04 00:05:12 | 52.41119 | 11.33701 | 161° | 18km/h | 25128m | 4.5m/s | -50.9°C | 3.3% | 26.3hPa | 2.5V | 03:41:00 | 02:10:27 | 00:00:00 | |
| DB0DAN | 2026-09-04 00:05:10 | 52.41127 | 11.33695 | 144° | 15km/h | 25116m | 4.9m/s | -50.9°C | 0.6% | 26.43hPa | 2.5V | 00:00:00 | 00:00:00 | 00:00:00 | |
| SO1NDE-10 | 2026-09-04 00:05:10 | 52.41127 | 11.33695 | 145° | 13km/h | 25116m | 4.9m/s | -50.9°C | 3.3% | 26.4hPa | 2.5V | 00:00:00 | 02:10:25 | 00:00:00 | |
| DO2SHX-10 | 2026-09-04 00:05:09 | 52.41130 | 11.33691 | 146° | 15km/h | 25112m | 4.0m/s | -50.9°C | 3.2% | 26.4hPa | 2.5V | 00:00:00 | 02:10:24 | 00:00:00 | |
| DM0DOS-11 | 2026-09-04 00:05:08 | 52.41145 | 11.33685 | 180° | 13km/h | 25090m | 5m/s | -51°C | 3.3% | 26.5hPa | 2.5V | 03:42:05 | 02:10:20 | 00:00:00 | |
| DL1XH1-15 | 2026-09-04 00:05:08 | 52.41150 | 11.33684 | 168° | 7km/h | 25079m | 5.7m/s | -51°C | 3.3% | 26.6hPa | 2.5V | 03:42:07 | 02:10:18 | 00:00:00 | |
| DL1XH-west | 2026-09-04 00:05:05 | 52.41144 | 11.33685 | 180° | 13km/h | 25090m | 5m/s | -51°C | 0% | 26.5hPa | 2.5V | 03:42:22 | 02:10:20 | 00:00:00 | |
| DL1XH-15 | 2026-09-04 00:05:05 | 52.41154 | 11.33683 | 166° | 11km/h | 25069m | 4.7m/s | -51°C | 3.2% | 26.6hPa | 2.6V | 03:42:09 | 02:10:16 | 00:00:00 | |
| AA1-15 | 2026-09-04 00:05:03 | 52.41150 | 11.33684 | 168° | 7km/h | 25079m | 5.7m/s | -51°C | 0% | 26.6hPa | 2.5V | 03:42:22 | 02:10:18 | 00:00:00 | |
| DO2SHX-10 | 2026-09-04 00:05:03 | 52.41149 | 11.33684 | 169° | 9km/h | 25079m | 5.6m/s | -51.0°C | 3.3% | 26.5hPa | 2.5V | 00:00:00 | 02:10:18 | 00:00:00 | |
| TFSTFS | 2026-09-04 00:05:02 | 52.41149 | 11.33684 | 169° | 7km/h | 25079m | 5.7m/s | -51.0°C | 0.6% | 26.6hPa | 2.5V | 03:42:00 | 00:00:00 | 00:00:00 | |
| DO2SHX-10 | 2026-09-04 00:05:00 | 52.41157 | 11.33681 | 169° | 20km/h | 25064m | 6.3m/s | -51.0°C | 3.3% | 26.6hPa | 2.5V | 03:42:00 | 02:10:15 | 00:00:00 | |
| DB0UT-7 | 2026-09-04 00:04:59 | 52.41161 | 11.33680 | 171° | 13km/h | 25059m | 5.5m/s | -51.0°C | 3.3% | 26.6hPa | 2.5V | 00:00:00 | 00:00:00 | 00:00:00 | |
| DL1XH1-15 | 2026-09-04 00:04:58 | 52.41201 | 11.33658 | 118° | 4km/h | 25000m | 6.2m/s | -51.2°C | 3.3% | 26.9hPa | 2.5V | 03:42:22 | 02:10:03 | 00:00:00 | |
| BIOWL1-15 | 2026-09-04 00:04:58 | 52.41219 | 11.33638 | 141° | 20km/h | 24959m | 6.1m/s | 0°C | 0% | 0hPa | 2.5V | 18:12:15 | 02:09:55 | 00:00:00 | |
| DO2SHX-10 | 2026-09-04 00:04:57 | 52.41173 | 11.33676 | 165° | 22km/h | 25048m | 4.7m/s | -51.1°C | 3.3% | 26.6hPa | 2.6V | 00:00:00 | 02:10:12 | 00:00:00 | |
| DB0DAN | 2026-09-04 00:04:55 | 52.41183 | 11.33669 | 150° | 18km/h | 25037m | 5.7m/s | -51.2°C | 0.6% | 26.72hPa | 2.6V | 00:00:00 | 00:00:00 | 00:00:00 | |
| HSKMA3-T | 2026-09-04 00:04:55 | 52.41183 | 11.33669 | 150° | 20km/h | 25037m | 5.7m/s | -51.2°C | 0% | 26.7hPa | 2.6V | 03:45:46 | 02:10:10 | 00:00:00 | |
| AA1-15 | 2026-09-04 00:04:54 | 52.41211 | 11.33646 | 160° | 18km/h | 24969m | 4.2m/s | -51.3°C | 0% | 27hPa | 2.5V | 03:43:13 | 02:09:57 | 00:00:00 | |
| DF8AY | 2026-09-04 00:04:54 | 52.41215 | 11.33643 | 152° | 20km/h | 24964m | 5.5m/s | -51.4°C | 0% | 27.1hPa | 2.5V | 03:43:13 | 02:09:56 | 00:00:00 | |
| DM0DOS-11 | 2026-09-04 00:04:53 | 52.41202 | 11.33651 | 132° | 7km/h | 24984m | 5.7m/s | -51.2°C | 3.3% | 26.9hPa | 2.6V | 03:42:25 | 02:10:00 | 00:00:00 | |
| DO2SHX-10 | 2026-09-04 00:04:51 | 52.41195 | 11.33660 | 176° | 9km/h | 25016m | 4.9m/s | -51.2°C | 3.3% | 26.8hPa | 2.6V | 00:00:00 | 02:10:06 | 00:00:00 | |
| DO2SHX-10 | 2026-09-04 00:04:48 | 52.41201 | 11.33658 | 119° | 5km/h | 25000m | 6.2m/s | -51.2°C | 3.3% | 26.9hPa | 2.6V | 03:42:00 | 02:10:03 | 00:00:00 | |
| DB0NH | 2026-09-04 00:04:46 | 52.41201 | 11.33654 | 110° | 11km/h | 24990m | 4.1m/s | -51.2°C | 3.3% | 26.9hPa | 2.6V | 03:42:00 | 02:10:01 | 00:00:00 | |
| DD8BA-10 | 2026-09-04 00:04:45 | 52.41202 | 11.33651 | 133° | 15km/h | 24985m | 5.7m/s | -51.2°C | 3.3% | 26.9hPa | 2.6V | 00:00:00 | 00:00:00 | 00:00:00 | |
| DO3MHA-11 | 2026-09-04 00:04:44 | 52.41204 | 11.33649 | 157° | 16km/h | 24979m | 5.7m/s | -51.2°C | 3.3% | 26.9hPa | 2.6V | 00:00:00 | 02:09:59 | 00:00:00 | |
| DM0DOS-11 | 2026-09-04 00:04:43 | 52.41233 | 11.33620 | 244° | 9km/h | 24926m | 4.5m/s | -51.5°C | 3.3% | 27.1hPa | 2.6V | 03:42:36 | 02:09:49 | 00:00:00 | |
| BIOWL1-15 | 2026-09-04 00:04:41 | 52.41223 | 11.33633 | 132° | 22km/h | 24953m | 5.6m/s | 0°C | 0% | 0hPa | 2.6V | 18:12:15 | 02:09:54 | 00:00:00 | |
| AA1-15 | 2026-09-04 00:04:37 | 52.41230 | 11.33618 | 143° | 7km/h | 24938m | 6.2m/s | -51.4°C | 0% | 27.1hPa | 2.5V | 03:43:13 | 02:09:51 | 00:00:00 | |
| DL1NUX | 2026-09-04 00:04:36 | 52.41235 | 11.33627 | 226° | 9km/h | 24916m | 5.6m/s | -51.5°C | 3.4% | 27.2hPa | 2.5V | 03:42:38 | 02:09:47 | 00:00:00 | |
| DF7ER-10 | 2026-09-04 00:04:36 | 52.41230 | 11.33618 | 144° | 7km/h | 24938m | 6.2m/s | -51.4°C | 0.6% | 27.2hPa | 2.6V | 03:43:00 | 00:00:00 | 00:00:00 | |
| DD8BA-10 | 2026-09-04 00:04:35 | 52.41232 | 11.33618 | 217° | 9km/h | 24932m | 5.9m/s | -51.4°C | 3.3% | 27.1hPa | 2.6V | 00:00:00 | 00:00:00 | 00:00:00 | |
| DL1XH-west | 2026-09-04 00:04:35 | 52.41232 | 11.33618 | 217° | 5km/h | 24932m | 6m/s | -51.5°C | 0% | 27.2hPa | 2.6V | 03:43:13 | 02:09:50 | 00:00:00 | |
| DL1XH1-15 | 2026-09-04 00:04:34 | 52.41243 | 11.33626 | 154° | 11km/h | 24895m | 6.3m/s | -51.5°C | 3.4% | 27.4hPa | 2.6V | 03:42:42 | 02:09:43 | 00:00:00 | |
| GOEST3-10 | 2026-09-04 00:04:34 | 52.41234 | 11.33624 | 245° | 9km/h | 24922m | 4.6m/s | -51.5°C | 3.3% | 27.2hPa | 2.5V | 00:00:00 | 00:00:00 | 00:00:00 | |
| DO2SHX-10 | 2026-09-04 00:04:33 | 52.41234 | 11.33624 | 245° | 9km/h | 24922m | 4.6m/s | -51.5°C | 3.3% | 27.2hPa | 2.5V | 00:00:00 | 02:09:48 | 00:00:00 | |
| S3001 | 2026-09-04 00:04:32 | 52.41235 | 11.33627 | 226° | 7km/h | 24916m | 5.6m/s | -51.5°C | 0.6% | 27.2hPa | 2.5V | 00:00:00 | 00:00:00 | 00:00:00 | |
| DO2SHX-10 | 2026-09-04 00:04:31 | 52.41238 | 11.33629 | 169° | 9km/h | 24906m | 4.9m/s | -51.5°C | 3.4% | 27.2hPa | 2.5V | 00:00:00 | 02:09:45 | 00:00:00 | |
| DM0DOS-11 | 2026-09-04 00:04:29 | 52.41250 | 11.33618 | 120° | 11km/h | 24879m | 5.3m/s | -51.5°C | 3.4% | 27.4hPa | 2.5V | 03:42:45 | 02:09:40 | 00:00:00 | |
| DF8AY | 2026-09-04 00:04:26 | 52.41252 | 11.33608 | 97° | 13km/h | 24867m | 5.4m/s | -51.6°C | 0% | 27.4hPa | 2.6V | 03:43:13 | 02:09:38 | 00:00:00 | |
| DL1XH-west | 2026-09-04 00:04:25 | 52.41250 | 11.33618 | 120° | 11km/h | 24879m | 5.3m/s | -51.5°C | 0% | 27.4hPa | 2.5V | 03:43:13 | 02:09:40 | 00:00:00 | |
| DB0DAN | 2026-09-04 00:04:25 | 52.41250 | 11.33618 | 120° | 11km/h | 24879m | 5.3m/s | -51.5°C | 0.6% | 27.41hPa | 2.5V | 00:00:00 | 00:00:00 | 00:00:00 | |
| DO2SHX-10 | 2026-09-04 00:04:25 | 52.41251 | 11.33613 | 108° | 11km/h | 24874m | 6.4m/s | -51.5°C | 3.4% | 27.4hPa | 2.5V | 03:42:00 | 02:09:39 | 00:00:00 | |
| DL1NUX | 2026-09-04 00:04:24 | 52.41252 | 11.33603 | 95° | 9km/h | 24862m | 4.8m/s | -51.6°C | 3.4% | 27.5hPa | 2.5V | 03:42:48 | 02:09:37 | 00:00:00 | |
| DL1XH-15 | 2026-09-04 00:04:24 | 52.41252 | 11.33601 | 100° | 4km/h | 24856m | 6.2m/s | -51.6°C | 3.4% | 27.5hPa | 2.5V | 03:42:49 | 02:09:36 | 00:00:00 | |
| AM1SDL-15 | 2026-09-04 00:04:23 | 52.41252 | 11.33603 | 96° | 7km/h | 24863m | 4.7m/s | -51.5°C | 3.4% | 27.4hPa | 2.5V | 00:00:00 | 02:09:37 | 00:00:00 | |
| DL1ZP-14 | 2026-09-04 00:04:22 | 52.41252 | 11.33603 | 95° | 9km/h | 24862m | 4.8m/s | -51.6°C | 0.6% | 27.5hPa | 2.5V | 00:00:00 | 00:00:00 | 00:00:00 | |
| DO2SHX-10 | 2026-09-04 00:04:21 | 52.41252 | 11.33601 | 101° | 4km/h | 24857m | 6.1m/s | -51.5°C | 3.4% | 27.5hPa | 2.5V | 00:00:00 | 02:09:36 | 00:00:00 | |
| GOEST3-10 | 2026-09-04 00:04:19 | 52.41254 | 11.33604 | 228° | 9km/h | 24841m | 4.7m/s | -51.6°C | 3.4% | 27.5hPa | 2.5V | 00:00:00 | 02:09:33 | 00:00:00 | |
| DO2SHX-10 | 2026-09-04 00:04:18 | 52.41254 | 11.33604 | 228° | 7km/h | 24841m | 4.7m/s | -51.6°C | 3.4% | 27.5hPa | 2.5V | 00:00:00 | 02:09:33 | 00:00:00 | |
| DM0DOS-11 | 2026-09-04 00:04:17 | 52.41259 | 11.33603 | 145° | 11km/h | 24824m | 4.8m/s | -51.6°C | 3.5% | 27.6hPa | 2.6V | 03:42:55 | 02:09:30 | 00:00:00 | |
| AA1-15 | 2026-09-04 00:04:15 | 52.41259 | 11.33603 | 146° | 11km/h | 24824m | 4.8m/s | -51.7°C | 0% | 27.6hPa | 2.6V | 03:43:13 | 02:09:30 | 00:00:00 | |
| DL1XH-west | 2026-09-04 00:04:14 | 52.41261 | 11.33601 | 145° | 15km/h | 24819m | 5m/s | -51.7°C | 0% | 27.6hPa | 2.6V | 03:43:13 | 02:09:29 | 00:00:00 | |
| DL1XH-15 | 2026-09-04 00:04:13 | 52.41270 | 11.33593 | 157° | 13km/h | 24803m | 4.9m/s | -51.6°C | 3.4% | 27.7hPa | 2.5V | 03:42:59 | 02:09:26 | 00:00:00 | |
| DL1NUX | 2026-09-04 00:04:13 | 52.41267 | 11.33595 | 154° | 13km/h | 24808m | 5.5m/s | -51.6°C | 3.4% | 27.7hPa | 2.5V | 03:42:58 | 02:09:27 | 00:00:00 | |
| GOEST3-10 | 2026-09-04 00:04:13 | 52.41264 | 11.33597 | 149° | 13km/h | 24814m | 5.9m/s | -51.6°C | 3.4% | 27.6hPa | 2.6V | 00:00:00 | 00:00:00 | 00:00:00 | |
| DO2SHX-10 | 2026-09-04 00:04:12 | 52.41267 | 11.33595 | 155° | 13km/h | 24809m | 5.5m/s | -51.6°C | 3.4% | 27.7hPa | 2.6V | 03:42:00 | 02:09:27 | 00:00:00 | |
| DM0DOS-11 | 2026-09-04 00:04:11 | 52.41282 | 11.33577 | 206° | 5km/h | 24765m | 4.8m/s | -51.6°C | 3.4% | 27.9hPa | 2.6V | 03:43:06 | 02:09:19 | 00:00:00 | |
| SMARD9-15 | 2026-09-04 00:04:11 | 52.41275 | 11.33587 | 133° | 11km/h | 24793m | 6.5m/s | -51.6°C | 0.6% | 27.8hPa | 2.6V | 00:00:00 | 00:00:00 | 00:00:00 | |
| TFSTFS | 2026-09-04 00:04:10 | 52.41275 | 11.33587 | 134° | 11km/h | 24793m | 6.5m/s | -51.6°C | 0.6% | 27.8hPa | 2.6V | 00:00:00 | 00:00:00 | 00:00:00 | |
| GOEST3-10 | 2026-09-04 00:04:09 | 52.41277 | 11.33583 | 122° | 7km/h | 24787m | 5.8m/s | -51.5°C | 3.4% | 27.7hPa | 2.6V | 00:00:00 | 02:09:23 | 00:00:00 | |
| DL1NUX | 2026-09-04 00:04:08 | 52.41286 | 11.33577 | 150° | 9km/h | 24749m | 5.6m/s | -51.6°C | 3.4% | 27.9hPa | 2.5V | 03:43:09 | 02:09:16 | 00:00:00 | |
| AA1-15 | 2026-09-04 00:04:05 | 52.41282 | 11.33577 | 207° | 5km/h | 24765m | 4.8m/s | -51.6°C | 0% | 27.9hPa | 2.6V | 03:43:13 | 02:09:19 | 00:00:00 | |
| DF8AY | 2026-09-04 00:04:03 | 52.41285 | 11.33578 | 174° | 7km/h | 24755m | 6.3m/s | -51.6°C | 0% | 27.9hPa | 2.5V | 03:43:13 | 02:09:17 | 00:00:00 | |
| DL1XH-west | 2026-09-04 00:04:03 | 52.41283 | 11.33578 | 198° | 7km/h | 24760m | 4.6m/s | -51.6°C | 0% | 27.9hPa | 2.5V | 03:43:13 | 02:09:18 | 00:00:00 | |
| DO2SHX-10 | 2026-09-04 00:04:03 | 52.41283 | 11.33577 | 199° | 7km/h | 24760m | 4.6m/s | -51.5°C | 3.4% | 27.8hPa | 2.6V | 00:00:00 | 02:09:18 | 00:00:00 | |
| DF7PN | 2026-09-04 00:04:02 | 52.41341 | 11.33521 | 147° | 16km/h | 24666m | 5.6m/s | 0°C | -1.0% | -1.0hPa | 2.6V | 00:00:00 | 00:00:00 | 00:00:00 | |
| GOEST3-10 | 2026-09-04 00:04:01 | 52.41286 | 11.33577 | 151° | 15km/h | 24749m | 5.5m/s | -51.6°C | 3.4% | 27.9hPa | 2.6V | 03:43:00 | 00:00:00 | 00:00:00 | |
| DL1XH1-15 | 2026-09-04 00:04:00 | 52.41292 | 11.33570 | 145° | 15km/h | 24738m | 4m/s | -51.6°C | 3.4% | 28hPa | 2.6V | 03:43:11 | 02:09:14 | 00:00:00 | |
| DO2SHX-10 | 2026-09-04 00:04:00 | 52.41289 | 11.33574 | 141° | 15km/h | 24744m | 4.6m/s | -51.5°C | 3.4% | 27.9hPa | 2.6V | 03:43:00 | 02:09:15 | 00:00:00 | |
| DM0DOS-11 | 2026-09-04 00:03:59 | 52.41306 | 11.33562 | 170° | 15km/h | 24718m | 4.4m/s | -51.6°C | 3.4% | 28.1hPa | 2.5V | 03:43:15 | 02:09:10 | 00:00:00 | |
| AA1-15 | 2026-09-04 00:03:55 | 52.41310 | 11.33560 | 162° | 15km/h | 24713m | 4.4m/s | -51.6°C | 0% | 28.1hPa | 2.6V | 03:44:04 | 02:09:09 | 00:00:00 | |
| DL1XH-15 | 2026-09-04 00:03:54 | 52.41318 | 11.33548 | 125° | 18km/h | 24697m | 4.9m/s | -51.6°C | 3.4% | 28.2hPa | 2.5V | 03:43:19 | 02:09:06 | 00:00:00 | |
| DL1NUX | 2026-09-04 00:03:53 | 52.41315 | 11.33554 | 127° | 16km/h | 24702m | 5.9m/s | -51.6°C | 3.4% | 28.2hPa | 2.5V | 03:43:18 | 02:09:07 | 00:00:00 | |
| DL1XH-west | 2026-09-04 00:03:53 | 52.41313 | 11.33558 | 144° | 15km/h | 24708m | 6.2m/s | -51.6°C | 0% | 28.1hPa | 2.6V | 03:44:04 | 02:09:08 | 00:00:00 | |
| DF8AY | 2026-09-04 00:03:52 | 52.41315 | 11.33554 | 128° | 16km/h | 24703m | 5.9m/s | -51.6°C | 0% | 28.2hPa | 2.5V | 03:44:04 | 02:09:07 | 00:00:00 | |
| DL1ZP-14 | 2026-09-04 00:03:52 | 52.41318 | 11.33548 | 125° | 18km/h | 24697m | 4.9m/s | -51.6°C | 0.6% | 28.2hPa | 2.5V | 00:00:00 | 00:00:00 | 00:00:00 | |
| GOEST3-10 | 2026-09-04 00:03:51 | 52.41318 | 11.33548 | 126° | 20km/h | 24697m | 4.8m/s | -51.5°C | 3.4% | 28.1hPa | 2.5V | 00:00:00 | 00:00:00 | 00:00:00 | |
| TFSTFS | 2026-09-04 00:03:50 | 52.41321 | 11.33542 | 130° | 20km/h | 24692m | 5.1m/s | -51.6°C | 0.6% | 28.2hPa | 2.6V | 00:00:00 | 00:00:00 | 00:00:00 | |
| BIOWL1-15 | 2026-09-04 00:03:50 | 52.41341 | 11.33521 | 148° | 18km/h | 24666m | 5.6m/s | 0°C | 0% | 0hPa | 2.5V | 18:12:15 | 02:09:00 | 00:00:00 | |
| DL1NUX | 2026-09-04 00:03:47 | 52.41351 | 11.33502 | 133° | 15km/h | 24644m | 6.3m/s | -51.6°C | 3.4% | 28.4hPa | 2.6V | 03:43:29 | 02:08:56 | 00:00:00 | |
| AA1-15 | 2026-09-04 00:03:44 | 52.41344 | 11.33516 | 134° | 15km/h | 24660m | 5.6m/s | -51.6°C | 0% | 28.3hPa | 2.5V | 03:44:04 | 02:08:59 | 00:00:00 | |
| DO2SHX-10 | 2026-09-04 00:03:44 | 52.41344 | 11.33516 | 134° | 15km/h | 24661m | 5.5m/s | -51.5°C | 3.4% | 28.3hPa | 2.6V | 00:00:00 | 02:08:59 | 00:00:00 | |
| DL1XH-15 | 2026-09-04 00:03:43 | 52.41351 | 11.33502 | 133° | 15km/h | 24644m | 6.3m/s | -51.6°C | 3.4% | 28.4hPa | 2.6V | 03:43:29 | 02:08:56 | 00:00:00 | |
| DL1XH-west | 2026-09-04 00:03:43 | 52.41351 | 11.33502 | 134° | 15km/h | 24645m | 6.3m/s | -51.6°C | 0% | 28.5hPa | 2.6V | 03:44:04 | 02:08:56 | 00:00:00 | |
| DF8AY | 2026-09-04 00:03:42 | 52.41354 | 11.33498 | 140° | 15km/h | 24639m | 5.7m/s | -51.6°C | 0% | 28.4hPa | 2.5V | 03:44:04 | 02:08:55 | 00:00:00 | |
| DL1XH1-15 | 2026-09-04 00:03:42 | 52.41357 | 11.33494 | 137° | 16km/h | 24633m | 5.2m/s | -51.6°C | 3.4% | 28.5hPa | 2.5V | 03:43:31 | 02:08:54 | 00:00:00 | |
| DM0DOS-11 | 2026-09-04 00:03:42 | 52.41372 | 11.33457 | 125° | 24km/h | 24607m | 5m/s | -51.7°C | 3.4% | 28.6hPa | 2.6V | 03:43:36 | 02:08:49 | 00:00:00 | |
| BUE01 | 2026-09-04 00:03:42 | 52.41351 | 11.33502 | 133° | 13km/h | 24645m | 6.3m/s | -51.6°C | 0.6% | 28.5hPa | 2.6V | 00:00:00 | 00:00:00 | 00:00:00 | |
| SO1NDE-10 | 2026-09-04 00:03:41 | 52.41354 | 11.33498 | 140° | 18km/h | 24639m | 5.6m/s | -51.6°C | 3.4% | 28.4hPa | 2.6V | 03:43:00 | 02:08:55 | 00:00:00 | |
| DF8AY-15 | 2026-09-04 00:03:40 | 52.41357 | 11.33494 | 138° | 18km/h | 24634m | 5.1m/s | -51.6°C | 3.4% | 28.4hPa | 2.6V | 03:43:00 | 02:08:54 | 00:00:00 | |
| SMARD9-15 | 2026-09-04 00:03:39 | 52.41360 | 11.33489 | 130° | 18km/h | 24628m | 5.4m/s | -51.6°C | 0.6% | 28.5hPa | 2.6V | 00:00:00 | 00:00:00 | 00:00:00 | |
| DO2SHX-10 | 2026-09-04 00:03:38 | 52.41360 | 11.33489 | 131° | 22km/h | 24628m | 5.3m/s | -51.6°C | 3.4% | 28.5hPa | 2.6V | 00:00:00 | 02:08:53 | 00:00:00 | |
| GOEST3-10 | 2026-09-04 00:03:36 | 52.41366 | 11.33474 | 117° | 24km/h | 24617m | 5.2m/s | -51.6°C | 3.4% | 28.5hPa | 2.6V | 00:00:00 | 02:08:51 | 00:00:00 | |
| DL1XH1-15 | 2026-09-04 00:03:35 | 52.41397 | 11.33425 | 133° | 18km/h | 24574m | 5.1m/s | -51.7°C | 3.4% | 28.7hPa | 2.6V | 03:43:42 | 02:08:43 | 00:00:00 | |
| AA1-15 | 2026-09-04 00:03:34 | 52.41376 | 11.33449 | 136° | 24km/h | 24601m | 6.2m/s | -51.7°C | 0% | 28.6hPa | 2.5V | 03:44:04 | 02:08:48 | 00:00:00 | |
| DL1XH-15 | 2026-09-04 00:03:34 | 52.41385 | 11.33439 | 150° | 20km/h | 24590m | 4.5m/s | -51.7°C | 3.4% | 28.6hPa | 2.5V | 03:43:39 | 02:08:46 | 00:00:00 | |
| DL1XH-west | 2026-09-04 00:03:32 | 52.41385 | 11.33439 | 151° | 20km/h | 24590m | 4.5m/s | -51.7°C | 0% | 28.7hPa | 2.5V | 03:44:04 | 02:08:46 | 00:00:00 | |
| DF7PN | 2026-09-04 00:03:32 | 52.41389 | 11.33434 | 148° | 20km/h | 24585m | 5.0m/s | 0°C | -1.0% | -1.0hPa | 2.5V | 00:00:00 | 00:00:00 | 00:00:00 | |
| S3001 | 2026-09-04 00:03:31 | 52.41389 | 11.33434 | 148° | 20km/h | 24585m | 5.0m/s | -51.7°C | 0.6% | 28.7hPa | 2.5V | 00:00:00 | 00:00:00 | 00:00:00 | |
| DF8AY | 2026-09-04 00:03:31 | 52.41393 | 11.33430 | 142° | 20km/h | 24580m | 5.8m/s | -51.7°C | 0% | 28.7hPa | 2.6V | 03:44:04 | 02:08:44 | 00:00:00 | |
| DB0UT-7 | 2026-09-04 00:03:30 | 52.41393 | 11.33430 | 142° | 16km/h | 24580m | 5.8m/s | -51.6°C | 3.4% | 28.6hPa | 2.5V | 03:43:00 | 02:08:44 | 00:00:00 | |
| DM0DOS-11 | 2026-09-04 00:03:29 | 52.41406 | 11.33407 | 135° | 18km/h | 24561m | 5.3m/s | -51.6°C | 3.4% | 28.8hPa | 2.5V | 03:43:45 | 02:08:40 | 00:00:00 | |
| DO2SHX-10 | 2026-09-04 00:03:29 | 52.41393 | 11.33430 | 142° | 18km/h | 24580m | 5.8m/s | -51.6°C | 3.4% | 28.6hPa | 2.5V | 00:00:00 | 02:08:44 | 00:00:00 | |
| DF2AP-13 | 2026-09-04 00:03:28 | 52.41397 | 11.33425 | 134° | 16km/h | 24575m | 5.0m/s | -51.6°C | 3.4% | 28.7hPa | 2.5V | 03:43:00 | 02:08:43 | 00:00:00 | |
| DB0DAN | 2026-09-04 00:03:25 | 52.41406 | 11.33407 | 135° | 16km/h | 24561m | 5.3m/s | -51.7°C | 0.6% | 28.78hPa | 2.5V | 00:00:00 | 00:00:00 | 00:00:00 | |
| DD8BA-10 | 2026-09-04 00:03:25 | 52.41406 | 11.33407 | 136° | 15km/h | 24561m | 5.3m/s | -51.6°C | 3.4% | 28.7hPa | 2.5V | 00:00:00 | 00:00:00 | 00:00:00 | |
| DL1NUX | 2026-09-04 00:03:24 | 52.41415 | 11.33396 | 142° | 13km/h | 24546m | 5m/s | -51.6°C | 3.4% | 28.9hPa | 2.5V | 03:43:48 | 02:08:37 | 00:00:00 | |
| AA1-15 | 2026-09-04 00:03:23 | 52.41415 | 11.33396 | 143° | 13km/h | 24546m | 5m/s | -51.6°C | 0% | 28.9hPa | 2.5V | 03:44:04 | 02:08:37 | 00:00:00 | |
| DL1XH-west | 2026-09-04 00:03:22 | 52.41417 | 11.33393 | 129° | 13km/h | 24540m | 6.4m/s | -51.6°C | 0% | 28.9hPa | 2.5V | 03:44:04 | 02:08:36 | 00:00:00 | |
| DL1XH1-15 | 2026-09-04 00:03:21 | 52.41420 | 11.33384 | 122° | 15km/h | 24529m | 4.1m/s | -51.6°C | 3.4% | 28.9hPa | 2.6V | 03:43:51 | 02:08:34 | 00:00:00 | |
| DF8AY | 2026-09-04 00:03:18 | 52.41429 | 11.33370 | 148° | 20km/h | 24513m | 4.8m/s | -51.7°C | 0% | 29hPa | 2.5V | 03:44:04 | 02:08:31 | 00:00:00 | |
| DL1NUX | 2026-09-04 00:03:18 | 52.41445 | 11.33350 | 137° | 16km/h | 24491m | 4.7m/s | -51.7°C | 3.4% | 29.1hPa | 2.6V | 03:43:58 | 02:08:27 | 00:00:00 | |
| DM0DOS-11 | 2026-09-04 00:03:17 | 52.41434 | 11.33366 | 145° | 22km/h | 24508m | 4.8m/s | -51.7°C | 3.3% | 29hPa | 2.5V | 03:43:55 | 02:08:30 | 00:00:00 | |
| DO2SHX-10 | 2026-09-04 00:03:17 | 52.41425 | 11.33375 | 144° | 20km/h | 24518m | 5.8m/s | -51.6°C | 3.4% | 28.9hPa | 2.6V | 00:00:00 | 02:08:32 | 00:00:00 | |
| TFSTFS | 2026-09-04 00:03:16 | 52.41430 | 11.33370 | 149° | 20km/h | 24513m | 4.8m/s | -51.7°C | 0.6% | 29.0hPa | 2.6V | 00:00:00 | 00:00:00 | 00:00:00 | |
| DL1XH1-15 | 2026-09-04 00:03:15 | 52.41455 | 11.33342 | 177° | 13km/h | 24475m | 5m/s | -51.7°C | 3.4% | 29.2hPa | 2.6V | 03:44:01 | 02:08:24 | 00:00:00 | |
| DO2SHX-10 | 2026-09-04 00:03:14 | 52.41438 | 11.33360 | 141° | 20km/h | 24503m | 6.1m/s | -51.6°C | 3.4% | 29.0hPa | 2.5V | 00:00:00 | 02:08:29 | 00:00:00 | |
| DL1XH-15 | 2026-09-04 00:03:13 | 52.41448 | 11.33346 | 148° | 15km/h | 24486m | 5.4m/s | -51.7°C | 3.4% | 29.1hPa | 2.5V | 03:43:59 | 02:08:26 | 00:00:00 | |
| DL1XH-west | 2026-09-04 00:03:11 | 52.41452 | 11.33343 | 165° | 13km/h | 24481m | 5.9m/s | -51.7°C | 0% | 29.2hPa | 2.5V | 03:44:04 | 02:08:25 | 00:00:00 | |
| AA1-15 | 2026-09-04 00:03:11 | 52.41448 | 11.33346 | 149° | 15km/h | 24486m | 5.4m/s | -51.7°C | 0% | 29.1hPa | 2.5V | 03:44:04 | 02:08:26 | 00:00:00 | |
| DM0DOS-11 | 2026-09-04 00:03:11 | 52.41465 | 11.33336 | 139° | 11km/h | 24449m | 5.3m/s | -51.7°C | 3.4% | 29.3hPa | 2.6V | 03:44:06 | 02:08:19 | 00:00:00 | |
| SO1NDE-10 | 2026-09-04 00:03:11 | 52.41451 | 11.33343 | 165° | 16km/h | 24481m | 5.9m/s | -51.6°C | 3.4% | 29.1hPa | 2.6V | 00:00:00 | 02:08:25 | 00:00:00 | |
| SMARD9-15 | 2026-09-04 00:03:08 | 52.41460 | 11.33342 | 170° | 7km/h | 24465m | 6.3m/s | -51.7°C | 0.6% | 29.2hPa | 2.6V | 00:00:00 | 00:00:00 | 00:00:00 | |
| DO9LL-15 | 2026-09-04 00:03:07 | 52.41461 | 11.33341 | 145° | 24km/h | 24460m | 5.6m/s | -51.6°C | 3.3% | 29.2hPa | 2.6V | 00:00:00 | 02:08:21 | 00:00:00 | |
| DL1NUX | 2026-09-04 00:03:06 | 52.41471 | 11.33329 | 150° | 20km/h | 24437m | 5.3m/s | -51.8°C | 3.4% | 29.3hPa | 2.6V | 03:44:08 | 02:08:17 | 00:00:00 | |
| DF8AY | 2026-09-04 00:03:06 | 52.41463 | 11.33339 | 134° | 9km/h | 24454m | 4.3m/s | -51.7°C | 0% | 29.3hPa | 2.5V | 03:44:55 | 02:08:20 | 00:00:00 | |
| DD8BA-10 | 2026-09-04 00:03:06 | 52.41463 | 11.33339 | 135° | 20km/h | 24454m | 4.3m/s | -51.7°C | 3.3% | 29.2hPa | 2.5V | 00:00:00 | 00:00:00 | 00:00:00 | |
| AM1SDL-15 | 2026-09-04 00:03:05 | 52.41465 | 11.33336 | 140° | 22km/h | 24449m | 5.2m/s | -51.7°C | 3.4% | 29.2hPa | 2.5V | 00:00:00 | 02:08:19 | 00:00:00 | |
| DL1XH-15 | 2026-09-04 00:03:03 | 52.41476 | 11.33325 | 146° | 24km/h | 24432m | 4.7m/s | -51.8°C | 3.4% | 29.4hPa | 2.5V | 03:44:09 | 02:08:16 | 00:00:00 | |
| DL1XH-west | 2026-09-04 00:03:02 | 52.41476 | 11.33325 | 146° | 24km/h | 24432m | 4.7m/s | -51.8°C | 0% | 29.4hPa | 2.5V | 03:44:55 | 02:08:16 | 00:00:00 | |
| DL1XH1-15 | 2026-09-04 00:03:02 | 52.41486 | 11.33312 | 138° | 27km/h | 24421m | 5.2m/s | -51.8°C | 3.4% | 29.4hPa | 2.5V | 03:44:11 | 02:08:14 | 00:00:00 | |
| AA1-15 | 2026-09-04 00:03:00 | 52.41481 | 11.33319 | 143° | 26km/h | 24426m | 6.2m/s | -51.8°C | 0% | 29.4hPa | 2.5V | 03:44:55 | 02:08:15 | 00:00:00 | |
| DM0DOS-11 | 2026-09-04 00:02:59 | 52.41520 | 11.33287 | 165° | 20km/h | 24390m | 5.9m/s | -51.8°C | 3.4% | 29.6hPa | 2.6V | 03:44:17 | 02:08:08 | 00:00:00 | |
| DL1NUX | 2026-09-04 00:02:57 | 52.41524 | 11.33285 | 157° | 15km/h | 24384m | 5.9m/s | -51.8°C | 3.4% | 29.6hPa | 2.5V | 03:44:18 | 02:08:07 | 00:00:00 | |
| DF8AY | 2026-09-04 00:02:56 | 52.41515 | 11.33289 | 171° | 24km/h | 24396m | 5.2m/s | -51.9°C | 0% | 29.5hPa | 2.6V | 03:44:55 | 02:08:09 | 00:00:00 | |
| DL1XH-15 | 2026-09-04 00:02:55 | 52.41527 | 11.33283 | 149° | 11km/h | 24379m | 4.6m/s | -51.8°C | 3.4% | 29.6hPa | 2.5V | 03:44:19 | 02:08:06 | 00:00:00 | |
| DL1XH1-15 | 2026-09-04 00:02:55 | 52.41531 | 11.33279 | 163° | 9km/h | 24369m | 5.6m/s | -51.9°C | 3.4% | 29.6hPa | 2.6V | 03:44:21 | 02:08:04 | 00:00:00 | |
| DL1XH-west | 2026-09-04 00:02:51 | 52.41527 | 11.33283 | 149° | 11km/h | 24379m | 4.6m/s | -51.8°C | 0% | 29.6hPa | 2.5V | 03:44:55 | 02:08:06 | 00:00:00 | |
| AA1-15 | 2026-09-04 00:02:50 | 52.41529 | 11.33280 | 149° | 9km/h | 24374m | 3.9m/s | -51.9°C | 0% | 29.6hPa | 2.5V | 03:44:55 | 02:08:05 | 00:00:00 | |
| DM0DOS-11 | 2026-09-04 00:02:47 | 52.41547 | 11.33272 | 145° | 18km/h | 24343m | 5.6m/s | -51.9°C | 3.5% | 29.8hPa | 2.5V | 03:44:26 | 02:07:59 | 00:00:00 | |
| DL1NUX | 2026-09-04 00:02:46 | 52.41556 | 11.33261 | 143° | 24km/h | 24333m | 4.1m/s | -51.8°C | 3.5% | 29.8hPa | 2.6V | 03:44:28 | 02:07:57 | 00:00:00 | |
| DL1XH1-15 | 2026-09-04 00:02:44 | 52.41574 | 11.33248 | 169° | 27km/h | 24318m | 5.3m/s | -51.8°C | 3.5% | 29.9hPa | 2.6V | 03:44:31 | 02:07:54 | 00:00:00 | |
| DL1XH-15 | 2026-09-04 00:02:43 | 52.41562 | 11.33255 | 151° | 26km/h | 24329m | 4.7m/s | -51.8°C | 3.5% | 29.8hPa | 2.5V | 03:44:29 | 02:07:56 | 00:00:00 | |
| DL1XH-west | 2026-09-04 00:02:41 | 52.41568 | 11.33251 | 161° | 27km/h | 24323m | 6.3m/s | -51.8°C | 0% | 29.9hPa | 2.5V | 03:44:55 | 02:07:55 | 00:00:00 | |
| AA1-15 | 2026-09-04 00:02:39 | 52.41574 | 11.33248 | 170° | 27km/h | 24318m | 5.3m/s | -51.8°C | 0% | 29.9hPa | 2.6V | 03:44:55 | 02:07:54 | 00:00:00 | |
| DL1XH-15 | 2026-09-04 00:02:37 | 52.41618 | 11.33219 | 146° | 26km/h | 24275m | 5m/s | -51.6°C | 3.4% | 30.1hPa | 2.5V | 03:44:39 | 02:07:46 | 00:00:00 | |
| DF8AY | 2026-09-04 00:02:34 | 52.41605 | 11.33236 | 142° | 20km/h | 24291m | 5m/s | -51.7°C | 0% | 30hPa | 2.6V | 03:44:55 | 02:07:49 | 00:00:00 | |
| SONCRA | 2026-09-04 00:02:31 | 52.41736 | 11.33053 | 130° | 29km/h | 24170m | 4.3m/s | -51.8°C | 0.6% | 30.6hPa | 2.5V | 00:00:00 | 00:00:00 | 00:00:00 | |
| DL1XH-west | 2026-09-04 00:02:30 | 52.41624 | 11.33213 | 148° | 29km/h | 24271m | 4.5m/s | -51.6°C | 0% | 30.1hPa | 2.5V | 03:44:55 | 02:07:45 | 00:00:00 | |
| EDDB2-12 | 2026-09-04 00:02:30 | 52.41740 | 11.33044 | 132° | 26km/h | 24165m | 4.7m/s | -51.9°C | 0.6% | 30.6hPa | 2.5V | 00:00:00 | 00:00:00 | 00:00:00 | |
| AA1-15 | 2026-09-04 00:02:29 | 52.41630 | 11.33206 | 146° | 33km/h | 24266m | 5.1m/s | -51.6°C | 0% | 30.1hPa | 2.5V | 03:44:55 | 02:07:44 | 00:00:00 | |
| DO2SHX-10 | 2026-09-04 00:02:28 | 52.41745 | 11.33036 | 134° | 22km/h | 24160m | 5.1m/s | -51.8°C | 3.4% | 30.6hPa | 2.5V | 00:00:00 | 02:07:23 | 00:00:00 | |
| DL1NUX | 2026-09-04 00:02:27 | 52.41682 | 11.33147 | 156° | 27km/h | 24231m | 3.9m/s | -51.6°C | 3.4% | 30.3hPa | 2.5V | 03:44:48 | 02:07:37 | 00:00:00 | |
| DM0DOS-11 | 2026-09-04 00:02:26 | 52.41668 | 11.33160 | 148° | 37km/h | 24241m | 5.4m/s | -51.6°C | 3.4% | 30.2hPa | 2.6V | 03:44:46 | 02:07:39 | 00:00:00 | |
| DB0DAN | 2026-09-04 00:02:25 | 52.41660 | 11.33168 | 144° | 37km/h | 24246m | 4.1m/s | -51.6°C | 0.6% | 30.21hPa | 2.5V | 00:00:00 | 00:00:00 | 00:00:00 | |
| DL1XH1-15 | 2026-09-04 00:02:25 | 52.41699 | 11.33125 | 116° | 22km/h | 24211m | 5.4m/s | -51.6°C | 3.4% | 30.4hPa | 2.6V | 03:44:52 | 02:07:33 | 00:00:00 | |
| SMARD9-10 | 2026-09-04 00:02:25 | 52.41754 | 11.33015 | 111° | 22km/h | 24145m | 6.2m/s | -51.9°C | 0.6% | 30.7hPa | 2.5V | 00:00:00 | 00:00:00 | 00:00:00 | |
| DF8AY | 2026-09-04 00:02:25 | 52.41668 | 11.33160 | 148° | 37km/h | 24241m | 5.4m/s | -51.6°C | 0% | 30.2hPa | 2.6V | 03:44:55 | 02:07:39 | 00:00:00 | |
| AM1SDL-15 | 2026-09-04 00:02:24 | 52.41755 | 11.33006 | 103° | 20km/h | 24140m | 5.2m/s | -51.9°C | 3.4% | 30.7hPa | 2.5V | 00:00:00 | 02:07:19 | 00:00:00 | |
| DJ8HS-15 | 2026-09-04 00:02:23 | 52.41755 | 11.33006 | 103° | 20km/h | 24140m | 5.2m/s | -51.9°C | 3.4% | 30.7hPa | 2.6V | 03:45:00 | 02:07:19 | 00:00:00 | |
| DO2SHX-10 | 2026-09-04 00:02:21 | 52.41757 | 11.32987 | 102° | 22km/h | 24129m | 5.8m/s | -51.9°C | 3.5% | 30.7hPa | 2.6V | 00:00:00 | 02:07:17 | 00:00:00 | |
| DL1XH-west | 2026-09-04 00:02:20 | 52.41693 | 11.33138 | 142° | 20km/h | 24222m | 5.1m/s | -51.6°C | 0% | 30.3hPa | 2.5V | 03:44:55 | 02:07:35 | 00:00:00 | |
| DM0DOS-11 | 2026-09-04 00:02:20 | 52.41725 | 11.33072 | 134° | 33km/h | 24180m | 6m/s | -51.8°C | 3.4% | 30.5hPa | 2.6V | 03:44:58 | 02:07:27 | 00:00:00 | |
| DL1LOL-11 | 2026-09-04 00:02:19 | 52.41759 | 11.32978 | 107° | 20km/h | 24124m | 5.3m/s | -52.0°C | 0.6% | 30.8hPa | 2.6V | 03:45:00 | 00:00:00 | 00:00:00 | |
| AA1-15 | 2026-09-04 00:02:18 | 52.41699 | 11.33125 | 116° | 22km/h | 24211m | 5.4m/s | -51.6°C | 0% | 30.4hPa | 2.6V | 03:44:55 | 02:07:33 | 00:00:00 | |
| DB0UT-7 | 2026-09-04 00:02:18 | 52.41761 | 11.32962 | 102° | 16km/h | 24114m | 4.8m/s | -51.9°C | 3.4% | 30.8hPa | 2.5V | 00:00:00 | 00:00:00 | 00:00:00 | |
| AP2371 | 2026-09-04 00:02:17 | 52.41761 | 11.32962 | 103° | 20km/h | 24114m | 4.8m/s | -52.0°C | 0% | 0hPa | 2.5V | 00:00:00 | 00:00:00 | 00:00:00 | |
| DL1XH-15 | 2026-09-04 00:02:16 | 52.41730 | 11.33062 | 130° | 33km/h | 24175m | 4.9m/s | -51.8°C | 3.4% | 30.5hPa | 2.5V | 03:44:59 | 02:07:26 | 00:00:00 | |
| DF7ER-10 | 2026-09-04 00:02:16 | 52.41761 | 11.32962 | 103° | 20km/h | 24114m | 4.8m/s | -52.0°C | 0.7% | 30.8hPa | 2.6V | 03:45:00 | 00:00:00 | 00:00:00 | |
| HSKMA3-T | 2026-09-04 00:02:16 | 52.41705 | 11.33108 | 122° | 26km/h | 24201m | 5.8m/s | -51.7°C | 0% | 30.4hPa | 2.5V | 03:45:46 | 02:07:31 | 00:00:00 | |
| DL1NUX | 2026-09-04 00:02:15 | 52.41725 | 11.33072 | 134° | 33km/h | 24180m | 6m/s | -51.8°C | 3.4% | 30.5hPa | 2.6V | 03:44:58 | 02:07:27 | 00:00:00 | |
| DF8AY | 2026-09-04 00:02:14 | 52.41719 | 11.33082 | 135° | 33km/h | 24186m | 4.7m/s | -51.8°C | 0% | 30.5hPa | 2.6V | 03:45:46 | 02:07:28 | 00:00:00 | |
| DL1XH1-15 | 2026-09-04 00:02:13 | 52.41740 | 11.33044 | 132° | 27km/h | 24165m | 4.7m/s | -51.9°C | 3.4% | 30.6hPa | 2.5V | 03:45:01 | 02:07:24 | 00:00:00 | |
| DD8BA-10 | 2026-09-04 00:02:11 | 52.41764 | 11.32931 | 107° | 18km/h | 24094m | 5.6m/s | -51.9°C | 3.5% | 30.9hPa | 2.5V | 00:00:00 | 00:00:00 | 00:00:00 | |
| AM1SDL-15 | 2026-09-04 00:02:10 | 52.41768 | 11.32914 | 101° | 18km/h | 24079m | 4.3m/s | -51.9°C | 3.5% | 31.0hPa | 2.5V | 03:45:00 | 02:07:07 | 00:00:00 | |
| DL1XH-west | 2026-09-04 00:02:09 | 52.41740 | 11.33044 | 132° | 27km/h | 24165m | 4.7m/s | -51.9°C | 0% | 30.6hPa | 2.5V | 03:45:46 | 02:07:24 | 00:00:00 | |
| DF2AP-13 | 2026-09-04 00:02:09 | 52.41768 | 11.32914 | 101° | 15km/h | 24079m | 4.3m/s | -51.9°C | 3.5% | 31.0hPa | 2.6V | 00:00:00 | 02:07:07 | 00:00:00 | |
| GOEST3-10 | 2026-09-04 00:02:08 | 52.41768 | 11.32908 | 88° | 22km/h | 24074m | 6.3m/s | -51.9°C | 3.5% | 31.0hPa | 2.6V | 00:00:00 | 00:00:00 | 00:00:00 | |
| AA1-15 | 2026-09-04 00:02:07 | 52.41748 | 11.33029 | 131° | 20km/h | 24155m | 4.6m/s | -51.9°C | 0% | 30.6hPa | 2.6V | 03:45:46 | 02:07:22 | 00:00:00 | |
| DM0DOS-11 | 2026-09-04 00:02:07 | 52.41756 | 11.32996 | 100° | 24km/h | 24134m | 4.3m/s | -52°C | 3.5% | 30.7hPa | 2.5V | 03:45:07 | 02:07:18 | 00:00:00 | |
| DO2SHX-10 | 2026-09-04 00:02:07 | 52.41767 | 11.32900 | 75° | 22km/h | 24068m | 5.1m/s | -51.9°C | 3.5% | 31.0hPa | 2.5V | 00:00:00 | 02:07:05 | 00:00:00 | |
| HSKMA3-T | 2026-09-04 00:02:05 | 52.41754 | 11.33015 | 110° | 22km/h | 24145m | 6.2m/s | -51.9°C | 0% | 30.7hPa | 2.5V | 03:45:46 | 02:07:20 | 00:00:00 | |
| DF8AY | 2026-09-04 00:02:04 | 52.41757 | 11.32987 | 102° | 24km/h | 24129m | 5.9m/s | -52°C | 0% | 30.8hPa | 2.6V | 03:45:46 | 02:07:17 | 00:00:00 | |
| DL1NUX | 2026-09-04 00:02:04 | 52.41758 | 11.32987 | 101° | 24km/h | 24129m | 5.9m/s | -52°C | 3.5% | 30.8hPa | 2.6V | 03:45:08 | 02:07:17 | 00:00:00 | |
| DF7ER-10 | 2026-09-04 00:02:02 | 52.41764 | 11.32883 | 73° | 24km/h | 24059m | 5.2m/s | -51.9°C | 0.7% | 31.1hPa | 2.6V | 03:45:00 | 00:00:00 | 00:00:00 | |
| DO2SHX-10 | 2026-09-04 00:02:01 | 52.41762 | 11.32874 | 77° | 20km/h | 24054m | 5.3m/s | -51.8°C | 3.5% | 31.1hPa | 2.6V | 03:45:00 | 02:07:02 | 00:00:00 | |
| DL1ZP-14 | 2026-09-04 00:02:00 | 52.41761 | 11.32865 | 78° | 18km/h | 24048m | 5.2m/s | -51.9°C | 0.7% | 31.1hPa | 2.6V | 00:00:00 | 00:00:00 | 00:00:00 | |
| DL1XH-west | 2026-09-04 00:01:59 | 52.41761 | 11.32962 | 102° | 20km/h | 24114m | 4.8m/s | -52°C | 0% | 30.8hPa | 2.5V | 03:45:46 | 02:07:14 | 00:00:00 | |
| DB0NH | 2026-09-04 00:01:59 | 52.41761 | 11.32865 | 79° | 13km/h | 24048m | 5.1m/s | -51.9°C | 3.5% | 31.1hPa | 2.6V | 00:00:00 | 02:07:01 | 00:00:00 | |
| DL1NUX | 2026-09-04 00:01:58 | 52.41768 | 11.32908 | 87° | 16km/h | 24073m | 6.3m/s | -51.9°C | 3.5% | 31.1hPa | 2.6V | 03:45:19 | 02:07:06 | 00:00:00 | |
| AA1-15 | 2026-09-04 00:01:57 | 52.41763 | 11.32946 | 95° | 20km/h | 24103m | 4.9m/s | -52°C | 0% | 30.9hPa | 2.6V | 03:45:46 | 02:07:12 | 00:00:00 | |
| DO2SHX-10 | 2026-09-04 00:01:57 | 52.41759 | 11.32851 | 76° | 16km/h | 24039m | 4.5m/s | -51.8°C | 3.5% | 31.1hPa | 2.5V | 00:00:00 | 02:06:59 | 00:00:00 | |
| DB0DAN | 2026-09-04 00:01:55 | 52.41764 | 11.32931 | 106° | 15km/h | 24093m | 5.7m/s | -51.9°C | 0.6% | 30.93hPa | 2.5V | 00:00:00 | 00:00:00 | 00:00:00 | |
| DM0DOS-11 | 2026-09-04 00:01:55 | 52.41767 | 11.32920 | 113° | 15km/h | 24083m | 4.2m/s | -51.9°C | 3.5% | 30.9hPa | 2.6V | 03:45:17 | 02:07:08 | 00:00:00 | |
| HSKMA3-T | 2026-09-04 00:01:54 | 52.41765 | 11.32925 | 114° | 15km/h | 24088m | 5.4m/s | -51.9°C | 0% | 30.9hPa | 2.5V | 03:45:46 | 02:07:09 | 00:00:00 | |
| DO2SHX-10 | 2026-09-04 00:01:54 | 52.41754 | 11.32831 | 59° | 15km/h | 24023m | 4.6m/s | -51.8°C | 3.5% | 31.2hPa | 2.6V | 00:00:00 | 02:06:56 | 00:00:00 | |
| SO1NDE-10 | 2026-09-04 00:01:53 | 52.41752 | 11.32825 | 61° | 11km/h | 24019m | 3.8m/s | -51.7°C | 3.5% | 31.3hPa | 2.6V | 03:45:00 | 02:06:55 | 00:00:00 | |
| DF8AY | 2026-09-04 00:01:52 | 52.41768 | 11.32914 | 101° | 15km/h | 24079m | 4.3m/s | -51.9°C | 0% | 31hPa | 2.6V | 03:45:46 | 02:07:07 | 00:00:00 | |
| SONCRA | 2026-09-04 00:01:51 | 52.41750 | 11.32820 | 70° | 13km/h | 24014m | 6.0m/s | -51.8°C | 0.6% | 31.3hPa | 2.5V | 00:00:00 | 00:00:00 | 00:00:00 | |
| EDDB2-12 | 2026-09-04 00:01:50 | 52.41750 | 11.32815 | 81° | 11km/h | 24008m | 5.4m/s | -51.7°C | 0.6% | 31.3hPa | 2.5V | 00:00:00 | 00:00:00 | 00:00:00 | |
| DL1XH-west | 2026-09-04 00:01:49 | 52.41764 | 11.32883 | 72° | 24km/h | 24058m | 5.2m/s | -51.9°C | 0% | 31.1hPa | 2.5V | 03:45:46 | 02:07:03 | 00:00:00 | |
| DO2SHX-10 | 2026-09-04 00:01:49 | 52.41749 | 11.32815 | 82° | 13km/h | 24008m | 5.4m/s | -51.7°C | 3.4% | 31.3hPa | 2.5V | 00:00:00 | 02:06:53 | 00:00:00 | |
| BUE01 | 2026-09-04 00:01:48 | 52.41749 | 11.32810 | 83° | 11km/h | 24003m | 4.3m/s | -51.7°C | 0.7% | 31.4hPa | 2.5V | 00:00:00 | 00:00:00 | 00:00:00 | |
| AA1-15 | 2026-09-04 00:01:47 | 52.41760 | 11.32858 | 81° | 18km/h | 24044m | 4.6m/s | -51.9°C | 0% | 31.2hPa | 2.5V | 03:45:46 | 02:07:00 | 00:00:00 | |
| GOEST3-10 | 2026-09-04 00:01:46 | 52.41749 | 11.32805 | 79° | 16km/h | 23998m | 4.8m/s | -51.7°C | 3.5% | 31.3hPa | 2.6V | 00:00:00 | 02:06:51 | 00:00:00 | |
| DL1XH1-15 | 2026-09-04 00:01:45 | 52.41750 | 11.32815 | 81° | 11km/h | 24008m | 5.4m/s | -51.7°C | 3.4% | 31.3hPa | 2.5V | 03:45:32 | 02:06:53 | 00:00:00 | |
| DL1XH-15 | 2026-09-04 00:01:44 | 52.41754 | 11.32831 | 58° | 18km/h | 24023m | 4.6m/s | -51.8°C | 3.5% | 31.3hPa | 2.6V | 03:45:29 | 02:06:56 | 00:00:00 | |
| HSKMA3-T | 2026-09-04 00:01:44 | 52.41758 | 11.32844 | 71° | 16km/h | 24034m | 5.4m/s | -51.9°C | 0% | 31.2hPa | 2.5V | 03:45:46 | 02:06:58 | 00:00:00 | |
| DO2SHX-10 | 2026-09-04 00:01:43 | 52.41748 | 11.32800 | 71° | 16km/h | 23993m | 5.9m/s | -51.7°C | 3.5% | 31.4hPa | 2.6V | 03:45:00 | 02:06:50 | 00:00:00 | |
| DF8AY | 2026-09-04 00:01:42 | 52.41752 | 11.32825 | 60° | 16km/h | 24019m | 3.8m/s | -51.8°C | 0% | 31.3hPa | 2.6V | 03:45:46 | 02:06:55 | 00:00:00 | |
| DB0DAN | 2026-09-04 00:01:40 | 52.41752 | 11.32825 | 60° | 15km/h | 24019m | 3.8m/s | -51.8°C | 0.7% | 31.32hPa | 2.6V | 00:00:00 | 00:00:00 | 00:00:00 | |
| DO2SHX-10 | 2026-09-04 00:01:39 | 52.41741 | 11.32782 | 52° | 13km/h | 23978m | 5.4m/s | -51.6°C | 3.4% | 31.5hPa | 2.6V | 00:00:00 | 02:06:47 | 00:00:00 | |
| DL1XH-west | 2026-09-04 00:01:38 | 52.41748 | 11.32800 | 71° | 15km/h | 23993m | 6m/s | -51.7°C | 0% | 31.4hPa | 2.6V | 03:45:46 | 02:06:50 | 00:00:00 | |
| TFSTFS | 2026-09-04 00:01:38 | 52.41739 | 11.32777 | 59° | 11km/h | 23972m | 5.2m/s | -51.6°C | 0.6% | 31.5hPa | 2.5V | 00:00:00 | 00:00:00 | 00:00:00 | |
| DL1XH-15 | 2026-09-04 00:01:36 | 52.41739 | 11.32777 | 57° | 11km/h | 23972m | 5.2m/s | -51.6°C | 3.4% | 31.5hPa | 2.5V | 03:45:39 | 02:06:46 | 00:00:00 | |
| AM1SDL-15 | 2026-09-04 00:01:36 | 52.41735 | 11.32767 | 54° | 11km/h | 23958m | 5.6m/s | -51.5°C | 3.4% | 31.5hPa | 2.6V | 00:00:00 | 02:06:43 | 00:00:00 | |
| DL1NUX | 2026-09-04 00:01:35 | 52.41738 | 11.32773 | 59° | 9km/h | 23967m | 4.4m/s | -51.6°C | 3.4% | 31.5hPa | 2.5V | 03:45:40 | 02:06:45 | 00:00:00 | |
| HSKMA3-T | 2026-09-04 00:01:34 | 52.41743 | 11.32788 | 58° | 18km/h | 23982m | 4.9m/s | -51.7°C | 0% | 31.5hPa | 2.5V | 03:45:46 | 02:06:48 | 00:00:00 | |
| DF7ER-10 | 2026-09-04 00:01:32 | 52.41733 | 11.32763 | 54° | 13km/h | 23952m | 5.5m/s | -51.5°C | 0.7% | 31.6hPa | 2.5V | 03:45:00 | 00:00:00 | 00:00:00 | |
| DF8AY | 2026-09-04 00:01:31 | 52.41738 | 11.32773 | 60° | 9km/h | 23967m | 4.4m/s | -51.6°C | 0% | 31.5hPa | 2.5V | 03:45:46 | 02:06:45 | 00:00:00 | |
| S3001 | 2026-09-04 00:01:30 | 52.41730 | 11.32755 | 57° | 9km/h | 23942m | 4.9m/s | -51.4°C | 0.6% | 31.7hPa | 2.5V | 00:00:00 | 00:00:00 | 00:00:00 | |
| DD8BA-10 | 2026-09-04 00:01:29 | 52.41730 | 11.32755 | 58° | 11km/h | 23942m | 4.8m/s | -51.4°C | 3.4% | 31.6hPa | 2.5V | 00:00:00 | 00:00:00 | 00:00:00 | |
| TFSTFS | 2026-09-04 00:01:28 | 52.41729 | 11.32752 | 65° | 7km/h | 23937m | 5.6m/s | -51.4°C | 0.6% | 31.7hPa | 2.6V | 03:45:00 | 00:00:00 | 00:00:00 | |
| DL1XH-west | 2026-09-04 00:01:27 | 52.41733 | 11.32763 | 53° | 13km/h | 23952m | 5.5m/s | -51.5°C | 0% | 31.6hPa | 2.6V | 03:45:46 | 02:06:42 | 00:00:00 | |
| DM0DOS-11 | 2026-09-04 00:01:27 | 52.41727 | 11.32747 | 48° | 7km/h | 23927m | 4.7m/s | -51.4°C | 3.4% | 31.8hPa | 2.6V | 03:45:48 | 02:06:37 | 00:00:00 | |
| DF2AP-13 | 2026-09-04 00:01:27 | 52.41727 | 11.32747 | 49° | 20km/h | 23927m | 4.7m/s | -51.3°C | 3.4% | 31.7hPa | 2.6V | 03:45:00 | 02:06:37 | 00:00:00 | |
| DB0DAN | 2026-09-04 00:01:25 | 52.41730 | 11.32755 | 57° | 9km/h | 23942m | 4.9m/s | -51.4°C | 0.6% | 31.68hPa | 2.5V | 00:00:00 | 00:00:00 | 00:00:00 | |
| DL1XH1-15 | 2026-09-04 00:01:25 | 52.41719 | 11.32741 | 20° | 16km/h | 23911m | 4.6m/s | -51.3°C | 3.3% | 31.8hPa | 2.5V | 03:45:51 | 02:06:34 | 00:00:00 | |
| DL1XH-15 | 2026-09-04 00:01:24 | 52.41726 | 11.32745 | 37° | 9km/h | 23922m | 5.2m/s | -51.4°C | 3.4% | 31.8hPa | 2.6V | 03:45:49 | 02:06:36 | 00:00:00 | |
| DL1NUX | 2026-09-04 00:01:24 | 52.41723 | 11.32743 | 26° | 13km/h | 23916m | 6m/s | -51.3°C | 3.4% | 31.8hPa | 2.5V | 03:45:50 | 02:06:35 | 00:00:00 | |
| DO2SHX-10 | 2026-09-04 00:01:23 | 52.41723 | 11.32743 | 27° | 16km/h | 23917m | 5.9m/s | -51.3°C | 3.4% | 31.8hPa | 2.6V | 00:00:00 | 02:06:35 | 00:00:00 | |
| HSKMA3-T | 2026-09-04 00:01:22 | 52.41727 | 11.32747 | 48° | 7km/h | 23927m | 4.7m/s | -51.4°C | 0% | 31.8hPa | 2.6V | 03:46:37 | 02:06:37 | 00:00:00 | |
| EDDB2-11 | 2026-09-04 00:01:22 | 52.41719 | 11.32741 | 20° | 16km/h | 23911m | 4.6m/s | -51.3°C | 0.6% | 31.9hPa | 2.6V | 00:00:00 | 00:00:00 | 00:00:00 | |
| DO2SHX-10 | 2026-09-04 00:01:21 | 52.41712 | 11.32738 | 6° | 9km/h | 23903m | 3.5m/s | -51.3°C | 3.3% | 31.8hPa | 2.6V | 00:00:00 | 02:06:32 | 00:00:00 | |
| AM1SDL-15 | 2026-09-04 00:01:20 | 52.41709 | 11.32738 | 349° | 7km/h | 23899m | 5.5m/s | -51.3°C | 3.3% | 31.8hPa | 2.6V | 00:00:00 | 02:06:31 | 00:00:00 | |
| DF8AY | 2026-09-04 00:01:20 | 52.41723 | 11.32743 | 26° | 13km/h | 23916m | 6m/s | -51.3°C | 0% | 31.8hPa | 2.5V | 03:46:37 | 02:06:35 | 00:00:00 | |
| DF7ER-10 | 2026-09-04 00:01:19 | 52.41709 | 11.32738 | 350° | 9km/h | 23899m | 5.5m/s | -51.3°C | 0.6% | 31.9hPa | 2.6V | 03:46:00 | 00:00:00 | 00:00:00 | |
| DD8BA-10 | 2026-09-04 00:01:18 | 52.41707 | 11.32739 | 299° | 5km/h | 23893m | 5.9m/s | -51.3°C | 3.4% | 31.9hPa | 2.6V | 00:00:00 | 00:00:00 | 00:00:00 | |
| DL1XH-west | 2026-09-04 00:01:17 | 52.41709 | 11.32738 | 349° | 9km/h | 23899m | 5.5m/s | -51.3°C | 0% | 31.9hPa | 2.6V | 03:46:37 | 02:06:31 | 00:00:00 | |
| DO2SHX-10 | 2026-09-04 00:01:17 | 52.41708 | 11.32740 | 226° | 7km/h | 23888m | 4.3m/s | -51.3°C | 3.3% | 31.9hPa | 2.6V | 00:00:00 | 02:06:29 | 00:00:00 | |
| DM0DOS-11 | 2026-09-04 00:01:16 | 52.41711 | 11.32742 | 165° | 7km/h | 23878m | 5.2m/s | -51.3°C | 3.3% | 32hPa | 2.6V | 03:45:58 | 02:06:27 | 00:00:00 | |
| DL1XH-15 | 2026-09-04 00:01:13 | 52.41712 | 11.32740 | 125° | 7km/h | 23873m | 4.7m/s | -51.3°C | 3.4% | 32hPa | 2.6V | 03:45:59 | 02:06:26 | 00:00:00 | |
| AA1-15 | 2026-09-04 00:01:13 | 52.41709 | 11.32742 | 192° | 7km/h | 23883m | 4.4m/s | -51.3°C | 0% | 31.9hPa | 2.5V | 03:46:37 | 02:06:28 | 00:00:00 | |
| DO2SHX-10 | 2026-09-04 00:01:13 | 52.41712 | 11.32740 | 126° | 7km/h | 23874m | 4.7m/s | -51.3°C | 3.4% | 32.0hPa | 2.6V | 03:45:00 | 02:06:26 | 00:00:00 | |
| HSKMA3-T | 2026-09-04 00:01:12 | 52.41711 | 11.32742 | 165° | 7km/h | 23879m | 5.2m/s | -51.3°C | 0% | 32hPa | 2.6V | 03:46:37 | 02:06:27 | 00:00:00 | |
| DO2SHX-10 | 2026-09-04 00:01:11 | 52.41712 | 11.32732 | 41° | 5km/h | 23860m | 5.4m/s | -51.3°C | 3.3% | 32.0hPa | 2.5V | 00:00:00 | 02:06:23 | 00:00:00 | |
| DL1XH1-15 | 2026-09-04 00:01:10 | 52.41713 | 11.32734 | 67° | 7km/h | 23865m | 4.3m/s | -51.4°C | 3.3% | 32hPa | 2.5V | 03:46:01 | 02:06:24 | 00:00:00 | |
| DF8AY | 2026-09-04 00:01:10 | 52.41712 | 11.32734 | 67° | 7km/h | 23865m | 4.3m/s | -51.4°C | 0% | 32hPa | 2.5V | 03:46:37 | 02:06:24 | 00:00:00 | |
| DB0DAN | 2026-09-04 00:01:10 | 52.41713 | 11.32737 | 98° | 7km/h | 23869m | 4.3m/s | -51.4°C | 0.6% | 32.03hPa | 2.6V | 00:00:00 | 00:00:00 | 00:00:00 | |
| BUE01 | 2026-09-04 00:01:09 | 52.41709 | 11.32732 | 343° | 5km/h | 23850m | 3.9m/s | -51.4°C | 0.6% | 32.1hPa | 2.6V | 00:00:00 | 00:00:00 | 00:00:00 | |
| GOEST3-10 | 2026-09-04 00:01:08 | 52.41708 | 11.32732 | 344° | 4km/h | 23850m | 3.8m/s | -51.4°C | 3.4% | 32.1hPa | 2.6V | 00:00:00 | 02:06:21 | 00:00:00 | |
| DL1XH-west | 2026-09-04 00:01:07 | 52.41706 | 11.32730 | 108° | 5km/h | 23832m | 3.9m/s | -51.5°C | 0% | 32.2hPa | 2.6V | 03:46:37 | 02:06:17 | 00:00:00 | |
| DF7ER-10 | 2026-09-04 00:01:07 | 52.41709 | 11.32732 | 345° | 5km/h | 23850m | 3.9m/s | -51.4°C | 0.7% | 32.1hPa | 2.6V | 03:46:00 | 00:00:00 | 00:00:00 | |
| DO2SHX-10 | 2026-09-04 00:01:06 | 52.41707 | 11.32732 | 343° | 4km/h | 23846m | 4.1m/s | -51.4°C | 3.3% | 32.1hPa | 2.6V | 00:00:00 | 02:06:20 | 00:00:00 | |
| DL1NUX | 2026-09-04 00:01:06 | 52.41708 | 11.32726 | 158° | 4km/h | 23816m | 4.6m/s | -51.5°C | 3.4% | 32.3hPa | 2.5V | 03:46:11 | 02:06:14 | 00:00:00 | |
| DJ2DS-15 | 2026-09-04 00:01:05 | 52.41707 | 11.32732 | 23° | 2km/h | 23841m | 5.2m/s | -51.5°C | 0.6% | 32.2hPa | 2.6V | 00:00:00 | 00:00:00 | 00:00:00 | |
| DM0DOS-11 | 2026-09-04 00:01:04 | 52.41706 | 11.32730 | 107° | 5km/h | 23832m | 3.9m/s | -51.5°C | 3.4% | 32.2hPa | 2.6V | 03:46:08 | 02:06:17 | 00:00:00 | |
| DL1XH-15 | 2026-09-04 00:01:04 | 52.41706 | 11.32728 | 111° | 4km/h | 23827m | 5.2m/s | -51.5°C | 3.4% | 32.2hPa | 2.6V | 03:46:09 | 02:06:16 | 00:00:00 | |
| HSKMA3-T | 2026-09-04 00:01:03 | 52.41707 | 11.32728 | 112° | 4km/h | 23827m | 5.2m/s | -51.5°C | 0% | 32.2hPa | 2.6V | 03:46:37 | 02:06:16 | 00:00:00 | |
| DJ8HS-15 | 2026-09-04 00:01:00 | 52.41709 | 11.32725 | 154° | 15km/h | 23812m | 4.5m/s | -51.5°C | 3.4% | 32.3hPa | 2.6V | 00:00:00 | 02:06:13 | 00:00:00 | |
| DF8AY | 2026-09-04 00:00:59 | 52.41708 | 11.32726 | 159° | 4km/h | 23816m | 4.6m/s | -51.5°C | 0% | 32.3hPa | 2.5V | 03:46:37 | 02:06:14 | 00:00:00 | |
| DM0DOS-11 | 2026-09-04 00:00:58 | 52.41728 | 11.32704 | 167° | 11km/h | 23776m | 4.6m/s | -51.6°C | 3.4% | 32.5hPa | 2.6V | 03:46:19 | 02:06:06 | 00:00:00 | |
| DD8BA-10 | 2026-09-04 00:00:56 | 52.41716 | 11.32717 | 137° | 15km/h | 23795m | 4.8m/s | -51.5°C | 3.4% | 32.3hPa | 2.6V | 03:46:00 | 00:00:00 | 00:00:00 | |
| DL1XH-west | 2026-09-04 00:00:55 | 52.41719 | 11.32712 | 139° | 16km/h | 23791m | 3.4m/s | -51.6°C | 0% | 32.4hPa | 2.5V | 03:46:37 | 02:06:09 | 00:00:00 | |
| S3001 | 2026-09-04 00:00:55 | 52.41719 | 11.32712 | 139° | 16km/h | 23791m | 3.4m/s | -51.6°C | 0.6% | 32.4hPa | 2.6V | 00:00:00 | 00:00:00 | 00:00:00 | |
| DF7ER-10 | 2026-09-04 00:00:54 | 52.41716 | 11.32717 | 138° | 16km/h | 23795m | 4.8m/s | -51.6°C | 0.7% | 32.4hPa | 2.6V | 03:46:00 | 00:00:00 | 00:00:00 | |
| DL1XH-15 | 2026-09-04 00:00:53 | 52.41728 | 11.32704 | 167° | 11km/h | 23776m | 4.6m/s | -51.6°C | 3.4% | 32.5hPa | 2.6V | 03:46:19 | 02:06:06 | 00:00:00 | |
| DO2SHX-10 | 2026-09-04 00:00:53 | 52.41722 | 11.32708 | 146° | 13km/h | 23787m | 5.1m/s | -51.6°C | 3.4% | 32.4hPa | 2.6V | 00:00:00 | 02:06:08 | 00:00:00 | |
| DL1NUX | 2026-09-04 00:00:52 | 52.41731 | 11.32703 | 170° | 11km/h | 23772m | 4m/s | -51.6°C | 3.4% | 32.5hPa | 2.6V | 03:46:20 | 02:06:05 | 00:00:00 | |
| SP3BTT-10 | 2026-09-04 00:00:52 | 52.41725 | 11.32705 | 157° | 15km/h | 23781m | 5.2m/s | -51.6°C | 3.4% | 32.4hPa | 2.5V | 03:46:00 | 00:00:00 | 00:00:00 | |
| DL1XH1-15 | 2026-09-04 00:00:51 | 52.41734 | 11.32702 | 165° | 13km/h | 23766m | 5.7m/s | -51.7°C | 3.4% | 32.5hPa | 2.5V | 03:46:21 | 02:06:04 | 00:00:00 | |
| HSKMA3-T | 2026-09-04 00:00:51 | 52.41728 | 11.32704 | 167° | 11km/h | 23776m | 4.6m/s | -51.6°C | 0% | 32.5hPa | 2.6V | 03:46:37 | 02:06:06 | 00:00:00 | |
| GOEST3-10 | 2026-09-04 00:00:51 | 52.41728 | 11.32704 | 168° | 13km/h | 23777m | 4.6m/s | -51.6°C | 3.4% | 32.4hPa | 2.6V | 00:00:00 | 00:00:00 | 00:00:00 | |
| AA1-15 | 2026-09-04 00:00:50 | 52.41731 | 11.32703 | 170° | 11km/h | 23772m | 4m/s | -51.7°C | 0% | 32.5hPa | 2.6V | 03:46:37 | 02:06:05 | 00:00:00 | |
| DO2SHX-10 | 2026-09-04 00:00:50 | 52.41731 | 11.32703 | 171° | 13km/h | 23772m | 4.0m/s | -51.6°C | 3.4% | 32.4hPa | 2.6V | 00:00:00 | 02:06:05 | 00:00:00 | |
| DF8AY | 2026-09-04 00:00:49 | 52.41737 | 11.32700 | 164° | 15km/h | 23761m | 4.9m/s | -51.7°C | 0% | 32.5hPa | 2.5V | 03:46:37 | 02:06:03 | 00:00:00 | |
| GOEST3-10 | 2026-09-04 00:00:47 | 52.41744 | 11.32697 | 164° | 15km/h | 23752m | 5.4m/s | -51.7°C | 3.4% | 32.6hPa | 2.5V | 00:00:00 | 02:06:01 | 00:00:00 | |
| DL1XH-west | 2026-09-04 00:00:45 | 52.41753 | 11.32691 | 149° | 15km/h | 23737m | 3.7m/s | -51.7°C | 0% | 32.7hPa | 2.5V | 03:46:37 | 02:05:58 | 00:00:00 | |
| DL1XH-15 | 2026-09-04 00:00:44 | 52.41760 | 11.32682 | 131° | 24km/h | 23727m | 5.8m/s | -51.7°C | 3.5% | 32.7hPa | 2.6V | 03:46:29 | 02:05:56 | 00:00:00 | |
| GOEST3-10 | 2026-09-04 00:00:42 | 52.41760 | 11.32682 | 132° | 24km/h | 23727m | 5.7m/s | -51.7°C | 3.5% | 32.7hPa | 2.6V | 03:46:00 | 00:00:00 | 00:00:00 | |
| SO1NDE-10 | 2026-09-04 00:00:41 | 52.41764 | 11.32674 | 128° | 22km/h | 23722m | 4.3m/s | -51.7°C | 3.4% | 32.7hPa | 2.6V | 00:00:00 | 02:05:55 | 00:00:00 | |
| HSKMA3-T | 2026-09-04 00:00:40 | 52.41764 | 11.32674 | 128° | 26km/h | 23722m | 4.3m/s | -51.7°C | 0% | 32.8hPa | 2.6V | 03:46:37 | 02:05:55 | 00:00:00 | |
| AA1-15 | 2026-09-04 00:00:40 | 52.41768 | 11.32665 | 126° | 26km/h | 23717m | 4.6m/s | -51.7°C | 0% | 32.8hPa | 2.5V | 03:46:37 | 02:05:54 | 00:00:00 | |
| DF8AY-15 | 2026-09-04 00:00:39 | 52.41768 | 11.32665 | 126° | 24km/h | 23718m | 4.6m/s | -51.7°C | 3.4% | 32.7hPa | 2.6V | 00:00:00 | 02:05:54 | 00:00:00 | |
| GOEST3-10 | 2026-09-04 00:00:38 | 52.41779 | 11.32643 | 133° | 22km/h | 23703m | 4.2m/s | -51.7°C | 3.5% | 32.8hPa | 2.6V | 00:00:00 | 02:05:51 | 00:00:00 | |
| DF8AY | 2026-09-04 00:00:37 | 52.41775 | 11.32650 | 129° | 22km/h | 23707m | 4.6m/s | -51.8°C | 0% | 32.9hPa | 2.5V | 03:46:37 | 02:05:52 | 00:00:00 | |
| TFSTFS | 2026-09-04 00:00:37 | 52.41783 | 11.32636 | 138° | 22km/h | 23698m | 5.7m/s | -51.8°C | 0.7% | 32.9hPa | 2.6V | 03:46:00 | 00:00:00 | 00:00:00 | |
| GOEST3-10 | 2026-09-04 00:00:36 | 52.41800 | 11.32615 | 147° | 16km/h | 23677m | 5.8m/s | -51.8°C | 3.5% | 32.9hPa | 2.6V | 00:00:00 | 00:00:00 | 00:00:00 | |
| DJ2DS-15 | 2026-09-04 00:00:35 | 52.41808 | 11.32601 | 120° | 18km/h | 23663m | 5.0m/s | -51.8°C | 0.6% | 33.1hPa | 2.6V | 00:00:00 | 00:00:00 | 00:00:00 | |
| DL1XH-15 | 2026-09-04 00:00:34 | 52.41800 | 11.32615 | 146° | 16km/h | 23677m | 5.8m/s | -51.8°C | 3.5% | 33hPa | 2.6V | 03:46:39 | 02:05:46 | 00:00:00 | |
| DL1XH-west | 2026-09-04 00:00:34 | 52.41803 | 11.32611 | 140° | 13km/h | 23672m | 4.1m/s | -51.8°C | 0% | 33hPa | 2.5V | 03:47:28 | 02:05:45 | 00:00:00 | |
| DL4XJ-10 | 2026-09-04 00:00:33 | 52.41810 | 11.32593 | 118° | 24km/h | 23658m | 5.5m/s | -51.4°C | 0% | 0hPa | 2.5V | 00:00:00 | 00:00:00 | 00:00:00 | |
| DL1XH1-15 | 2026-09-04 00:00:32 | 52.41805 | 11.32607 | 125° | 15km/h | 23667m | 3.7m/s | -51.8°C | 3.4% | 33hPa | 2.5V | 03:46:41 | 02:05:44 | 00:00:00 | |
| GOEST3-10 | 2026-09-04 00:00:30 | 52.41813 | 11.32584 | 118° | 27km/h | 23653m | 4.3m/s | -51.7°C | 3.4% | 33.1hPa | 2.5V | 00:00:00 | 02:05:41 | 00:00:00 | |
| HSKMA3-T | 2026-09-04 00:00:29 | 52.41805 | 11.32607 | 125° | 15km/h | 23667m | 3.7m/s | -51.8°C | 0% | 33hPa | 2.5V | 03:47:28 | 02:05:44 | 00:00:00 | |
| DO2SHX-10 | 2026-09-04 00:00:29 | 52.41813 | 11.32584 | 118° | 29km/h | 23653m | 4.3m/s | -51.7°C | 3.4% | 33.1hPa | 2.6V | 00:00:00 | 02:05:41 | 00:00:00 | |
| DD8BA-10 | 2026-09-04 00:00:28 | 52.41817 | 11.32574 | 120° | 24km/h | 23649m | 4.2m/s | -51.7°C | 3.4% | 33.1hPa | 2.6V | 00:00:00 | 00:00:00 | 00:00:00 | |
| AA1-15 | 2026-09-04 00:00:28 | 52.41808 | 11.32601 | 120° | 18km/h | 23663m | 5m/s | -51.8°C | 0% | 33.1hPa | 2.5V | 03:47:28 | 02:05:43 | 00:00:00 | |
| DF8AY | 2026-09-04 00:00:27 | 52.41820 | 11.32563 | 121° | 29km/h | 23644m | 5.4m/s | -51.7°C | 0% | 33.2hPa | 2.5V | 03:47:28 | 02:05:39 | 00:00:00 | |
| DF7PN | 2026-09-04 00:00:27 | 52.41820 | 11.32563 | 121° | 27km/h | 23644m | 5.4m/s | 0°C | -1.0% | -1.0hPa | 2.5V | 00:00:00 | 00:00:00 | 00:00:00 | |
| DL1XH1-15 | 2026-09-04 00:00:26 | 52.41840 | 11.32518 | 127° | 26km/h | 23618m | 4.6m/s | -51.9°C | 3.4% | 33.3hPa | 2.5V | 03:46:51 | 02:05:34 | 00:00:00 | |
| DF7ER-10 | 2026-09-04 00:00:26 | 52.41824 | 11.32554 | 122° | 26km/h | 23639m | 4.8m/s | -51.7°C | 0.7% | 33.2hPa | 2.6V | 03:47:00 | 00:00:00 | 00:00:00 | |
| DB0DAN | 2026-09-04 00:00:25 | 52.41817 | 11.32574 | 119° | 27km/h | 23648m | 4.2m/s | -51.7°C | 0.6% | 33.14hPa | 2.6V | 00:00:00 | 00:00:00 | 00:00:00 | |
| DL1XH-15 | 2026-09-04 00:00:25 | 52.41831 | 11.32536 | 126° | 26km/h | 23629m | 5.2m/s | -51.8°C | 3.4% | 33.2hPa | 2.6V | 03:46:49 | 02:05:36 | 00:00:00 | |
| DL1XH-west | 2026-09-04 00:00:23 | 52.41824 | 11.32554 | 121° | 26km/h | 23638m | 4.8m/s | -51.7°C | 0% | 33.2hPa | 2.5V | 03:47:28 | 02:05:38 | 00:00:00 | |
| DL1NUX | 2026-09-04 00:00:23 | 52.41835 | 11.32527 | 128° | 27km/h | 23623m | 6.1m/s | -51.8°C | 3.4% | 33.3hPa | 2.6V | 03:46:50 | 02:05:35 | 00:00:00 | |
| GOEST3-10 | 2026-09-04 00:00:21 | 52.41831 | 11.32536 | 127° | 24km/h | 23629m | 5.1m/s | -51.7°C | 3.4% | 33.2hPa | 2.6V | 03:46:00 | 00:00:00 | 00:00:00 | |
| EDDB2-11 | 2026-09-04 00:00:20 | 52.41846 | 11.32502 | 120° | 18km/h | 23609m | 6.1m/s | -51.9°C | 0.7% | 33.3hPa | 2.5V | 00:00:00 | 00:00:00 | 00:00:00 | |
| HSKMA3-T | 2026-09-04 00:00:19 | 52.41843 | 11.32510 | 125° | 22km/h | 23613m | 4.3m/s | -51.9°C | 0% | 33.3hPa | 2.5V | 03:47:28 | 02:05:33 | 00:00:00 | |
| AA1-15 | 2026-09-04 00:00:18 | 52.41848 | 11.32496 | 113° | 16km/h | 23602m | 5m/s | -51.9°C | 0% | 33.4hPa | 2.6V | 03:47:28 | 02:05:31 | 00:00:00 | |
| DB0NH | 2026-09-04 00:00:18 | 52.41848 | 11.32496 | 113° | 20km/h | 23603m | 5.0m/s | -51.9°C | 3.4% | 33.3hPa | 2.6V | 00:00:00 | 02:05:31 | 00:00:00 | |
| DL1NUX | 2026-09-04 00:00:17 | 52.41857 | 11.32436 | 99° | 22km/h | 23568m | 5m/s | -52.1°C | 3.4% | 33.5hPa | 2.6V | 03:47:01 | 02:05:24 | 00:00:00 | |
| DF8AY | 2026-09-04 00:00:14 | 52.41851 | 11.32481 | 103° | 20km/h | 23593m | 5.5m/s | -51.9°C | 0% | 33.5hPa | 2.6V | 03:47:28 | 02:05:29 | 00:00:00 | |
| DL1XH1-15 | 2026-09-04 00:00:14 | 52.41858 | 11.32427 | 100° | 22km/h | 23564m | 3.8m/s | -52.1°C | 3.5% | 33.6hPa | 2.5V | 03:47:02 | 02:05:23 | 00:00:00 | |
| TFSTFS | 2026-09-04 00:00:14 | 52.41851 | 11.32481 | 104° | 20km/h | 23593m | 5.5m/s | -51.9°C | 0.6% | 33.5hPa | 2.5V | 03:47:00 | 00:00:00 | 00:00:00 | |
| TFSTFS | 2026-09-04 00:00:13 | 52.41852 | 11.32473 | 104° | 22km/h | 23588m | 4.9m/s | -52.0°C | 0.6% | 33.4hPa | 2.5V | 00:00:00 | 00:00:00 | 00:00:00 | |
| DL1XH-west | 2026-09-04 00:00:12 | 52.41854 | 11.32464 | 102° | 24km/h | 23583m | 3.8m/s | -52°C | 0% | 33.5hPa | 2.5V | 03:47:28 | 02:05:27 | 00:00:00 | |
| DF7ER-10 | 2026-09-04 00:00:12 | 52.41852 | 11.32473 | 104° | 22km/h | 23588m | 4.9m/s | -52.0°C | 0.7% | 33.4hPa | 2.6V | 03:47:00 | 00:00:00 | 00:00:00 | |
| DO2SHX-10 | 2026-09-04 00:00:11 | 52.41855 | 11.32454 | 102° | 22km/h | 23579m | 4.7m/s | -52.0°C | 3.4% | 33.4hPa | 2.6V | 03:46:00 | 02:05:26 | 00:00:00 | |
| DB0DAN | 2026-09-04 00:00:10 | 52.41856 | 11.32445 | 100° | 22km/h | 23574m | 5.3m/s | -52.1°C | 0.7% | 33.54hPa | 2.6V | 00:00:00 | 00:00:00 | 00:00:00 | |
| DO2SHX-10 | 2026-09-04 00:00:09 | 52.41858 | 11.32427 | 101° | 26km/h | 23564m | 3.8m/s | -52.0°C | 3.5% | 33.5hPa | 2.5V | 00:00:00 | 02:05:23 | 00:00:00 | |
| HSKMA3-T | 2026-09-04 00:00:08 | 52.41859 | 11.32417 | 104° | 26km/h | 23560m | 5m/s | -52.1°C | 0% | 33.6hPa | 2.5V | 03:47:28 | 02:05:22 | 00:00:00 | |
| AA1-15 | 2026-09-04 00:00:07 | 52.41861 | 11.32407 | 108° | 29km/h | 23554m | 6m/s | -52.1°C | 0% | 33.6hPa | 2.6V | 03:47:28 | 02:05:21 | 00:00:00 | |
| DL1XH-15 | 2026-09-04 00:00:06 | 52.41871 | 11.32360 | 96° | 13km/h | 23528m | 4.3m/s | -52.2°C | 3.5% | 33.8hPa | 2.6V | 03:47:09 | 02:05:16 | 00:00:00 | |
| EDDB2-12 | 2026-09-04 00:00:06 | 52.41864 | 11.32395 | 110° | 29km/h | 23549m | 4.9m/s | -52.1°C | 0.7% | 33.6hPa | 2.6V | 00:00:00 | 00:00:00 | 00:00:00 | |
| DD8BA-10 | 2026-09-04 00:00:05 | 52.41864 | 11.32395 | 111° | 18km/h | 23549m | 4.8m/s | -52.1°C | 3.5% | 33.6hPa | 2.6V | 00:00:00 | 00:00:00 | 00:00:00 | |
| BUE01 | 2026-09-04 00:00:04 | 52.41870 | 11.32350 | 67° | 11km/h | 23519m | 5.8m/s | -52.2°C | 0.7% | 33.8hPa | 2.6V | 00:00:00 | 00:00:00 | 00:00:00 | |
| DF8AY | 2026-09-04 00:00:04 | 52.41870 | 11.32366 | 108° | 18km/h | 23533m | 5.6m/s | -52.2°C | 0% | 33.7hPa | 2.5V | 03:47:28 | 02:05:17 | 00:00:00 | |
| DL1XH1-15 | 2026-09-04 00:00:03 | 52.41870 | 11.32350 | 67° | 13km/h | 23519m | 5.8m/s | -52.2°C | 3.5% | 33.8hPa | 2.6V | 03:47:11 | 02:05:14 | 00:00:00 | |
| DL1XH-west | 2026-09-04 00:00:01 | 52.41871 | 11.32360 | 97° | 13km/h | 23528m | 4.4m/s | -52.2°C | 0% | 33.8hPa | 2.6V | 03:47:28 | 02:05:16 | 00:00:00 | |
| SMARD9-15 | 2026-09-04 00:00:01 | 52.41871 | 11.32355 | 79° | 11km/h | 23524m | 4.1m/s | -52.2°C | 0.7% | 33.8hPa | 2.5V | 00:00:00 | 00:00:00 | 00:00:00 | |
| DF8AY-15 | 2026-09-03 23:59:59 | 52.41870 | 11.32350 | 68° | 15km/h | 23519m | 5.8m/s | -52.2°C | 3.5% | 33.7hPa | 2.5V | 00:00:00 | 02:05:14 | 00:00:00 | |
| DJ8HS-15 | 2026-09-03 23:59:58 | 52.41868 | 11.32345 | 66° | 15km/h | 23514m | 5.1m/s | -52.2°C | 0% | 33.8hPa | 2.5V | 00:00:00 | 02:05:13 | 00:00:00 | |
| HSKMA3-T | 2026-09-03 23:59:57 | 52.41867 | 11.32339 | 66° | 16km/h | 23509m | 4.4m/s | -52.3°C | 0% | 33.8hPa | 2.5V | 03:47:28 | 02:05:12 | 00:00:00 | |
| DO2SHX-10 | 2026-09-03 23:59:56 | 52.41865 | 11.32333 | 65° | 16km/h | 23505m | 4.8m/s | -52.3°C | 3.5% | 33.9hPa | 2.6V | 03:47:00 | 02:05:11 | 00:00:00 | |
| AA1-15 | 2026-09-03 23:59:55 | 52.41863 | 11.32327 | 69° | 15km/h | 23499m | 6m/s | -52.3°C | 0% | 33.9hPa | 2.6V | 03:47:28 | 02:05:10 | 00:00:00 | |
| DB0DAN | 2026-09-03 23:59:55 | 52.41863 | 11.32327 | 69° | 15km/h | 23499m | 6m/s | -52.3°C | 0.7% | 33.9hPa | 2.6V | 00:00:00 | 00:00:00 | 00:00:00 | |
| DD8BA-10 | 2026-09-03 23:59:55 | 52.41863 | 11.32327 | 69° | 16km/h | 23499m | 6.0m/s | -52.3°C | 3.5% | 33.9hPa | 2.6V | 00:00:00 | 00:00:00 | 00:00:00 | |
| DL1XH-15 | 2026-09-03 23:59:53 | 52.41861 | 11.32298 | 88° | 24km/h | 23478m | 4.9m/s | -52.4°C | 3.5% | 34hPa | 2.6V | 03:47:19 | 02:05:06 | 00:00:00 | |
| DJ2DS-15 | 2026-09-03 23:59:53 | 52.41861 | 11.32307 | 86° | 20km/h | 23483m | 6.1m/s | -52.4°C | 0.7% | 34.0hPa | 2.5V | 00:00:00 | 00:00:00 | 00:00:00 | |
| DL1XH1-15 | 2026-09-03 23:59:52 | 52.41861 | 11.32279 | 91° | 20km/h | 23469m | 4.8m/s | -52.4°C | 3.5% | 34.1hPa | 2.5V | 03:47:21 | 02:05:04 | 00:00:00 | |
| DL1XH-west | 2026-09-03 23:59:51 | 52.41861 | 11.32298 | 89° | 24km/h | 23478m | 4.9m/s | -52.4°C | 0% | 34hPa | 2.6V | 03:47:28 | 02:05:06 | 00:00:00 | |
| SP3BTT-10 | 2026-09-03 23:59:51 | 52.41861 | 11.32297 | 89° | 11km/h | 23478m | 4.9m/s | -52.3°C | 3.5% | 34.0hPa | 2.5V | 00:00:00 | 00:00:00 | 00:00:00 | |
| AP2371 | 2026-09-03 23:59:50 | 52.41860 | 11.32297 | 90° | 24km/h | 23478m | 4.9m/s | -52.4°C | 0% | 0hPa | 2.5V | 00:00:00 | 00:00:00 | 00:00:00 | |
| DF2AP-13 | 2026-09-03 23:59:49 | 52.41861 | 11.32279 | 92° | 9km/h | 23469m | 4.8m/s | -52.3°C | 3.5% | 34.0hPa | 2.5V | 00:00:00 | 02:05:04 | 00:00:00 | |
| SONDE2-11 | 2026-09-03 23:59:48 | 52.41861 | 11.32267 | 85° | 9km/h | 23458m | 5.0m/s | -52.4°C | 0.7% | 34.2hPa | 2.5V | 00:00:00 | 00:00:00 | 00:00:00 | |
| HSKMA3-T | 2026-09-03 23:59:47 | 52.41861 | 11.32267 | 85° | 9km/h | 23458m | 5m/s | -52.4°C | 0% | 34.2hPa | 2.5V | 03:47:28 | 02:05:02 | 00:00:00 | |
| GOEST3-10 | 2026-09-03 23:59:47 | 52.41860 | 11.32264 | 75° | 11km/h | 23453m | 4.9m/s | -52.3°C | 3.6% | 34.1hPa | 2.6V | 00:00:00 | 02:05:01 | 00:00:00 | |
| DB0NH | 2026-09-03 23:59:46 | 52.41860 | 11.32264 | 75° | 7km/h | 23453m | 4.9m/s | -52.3°C | 3.6% | 34.1hPa | 2.6V | 00:00:00 | 02:05:01 | 00:00:00 | |
| DD8BA-10 | 2026-09-03 23:59:45 | 52.41860 | 11.32261 | 66° | 11km/h | 23448m | 5.9m/s | -52.3°C | 3.6% | 34.2hPa | 2.6V | 00:00:00 | 00:00:00 | 00:00:00 | |
| AA1-15 | 2026-09-03 23:59:44 | 52.41858 | 11.32257 | 55° | 11km/h | 23442m | 5.2m/s | -52.4°C | 0% | 34.2hPa | 2.6V | 03:47:28 | 02:04:59 | 00:00:00 | |
| DO2SHX-10 | 2026-09-03 23:59:44 | 52.41858 | 11.32257 | 56° | 13km/h | 23442m | 5.2m/s | -52.3°C | 3.6% | 34.2hPa | 2.6V | 03:47:00 | 02:04:59 | 00:00:00 | |
| DL1ZP-14 | 2026-09-03 23:59:43 | 52.41854 | 11.32250 | 44° | 13km/h | 23434m | 3.3m/s | -52.4°C | 0.7% | 34.3hPa | 2.5V | 00:00:00 | 00:00:00 | 00:00:00 | |
| DL1CLM-18 | 2026-09-03 23:59:42 | 52.41856 | 11.32253 | 52° | 13km/h | 23438m | 3.8m/s | -52.4°C | 0.7% | 34.2hPa | 2.5V | 03:47:00 | 00:00:00 | 00:00:00 | |
| DF8AY | 2026-09-03 23:59:41 | 52.41852 | 11.32246 | 37° | 13km/h | 23430m | 5.4m/s | -52.3°C | 0% | 34.2hPa | 2.5V | 03:48:19 | 02:04:56 | 00:00:00 | |
| DO2SHX-10 | 2026-09-03 23:59:41 | 52.41852 | 11.32246 | 37° | 13km/h | 23430m | 5.3m/s | -52.3°C | 3.6% | 34.2hPa | 2.6V | 00:00:00 | 02:04:56 | 00:00:00 | |
| DL1XH-west | 2026-09-03 23:59:40 | 52.41849 | 11.32243 | 34° | 13km/h | 23424m | 5.7m/s | -52.3°C | 0% | 34.3hPa | 2.6V | 03:48:19 | 02:04:55 | 00:00:00 | |
| DB0DAN | 2026-09-03 23:59:40 | 52.41849 | 11.32243 | 34° | 13km/h | 23424m | 5.7m/s | -52.3°C | 0.7% | 34.33hPa | 2.6V | 00:00:00 | 00:00:00 | 00:00:00 | |
| SO1NDE-10 | 2026-09-03 23:59:40 | 52.41849 | 11.32243 | 35° | 7km/h | 23425m | 5.7m/s | -52.3°C | 3.5% | 34.3hPa | 2.6V | 03:47:00 | 02:04:55 | 00:00:00 | |
| DF8AY-15 | 2026-09-03 23:59:39 | 52.41847 | 11.32240 | 41° | 7km/h | 23420m | 4.6m/s | -52.2°C | 3.5% | 34.3hPa | 2.6V | 03:47:00 | 02:04:54 | 00:00:00 | |
| DJ8HS-15 | 2026-09-03 23:59:38 | 52.41845 | 11.32236 | 57° | 7km/h | 23415m | 4.9m/s | 0°C | 0% | 0hPa | 2.6V | 00:00:00 | 02:04:53 | 00:00:00 | |
| HSKMA3-T | 2026-09-03 23:59:36 | 52.41843 | 11.32226 | 88° | 13km/h | 23404m | 4.2m/s | -52.2°C | 0% | 34.4hPa | 2.6V | 03:48:19 | 02:04:51 | 00:00:00 | |
| SONCRA | 2026-09-03 23:59:35 | 52.41845 | 11.32218 | 132° | 7km/h | 23396m | 6.1m/s | -52.2°C | 0.7% | 34.5hPa | 2.5V | 00:00:00 | 00:00:00 | 00:00:00 | |
| AA1-15 | 2026-09-03 23:59:34 | 52.41845 | 11.32218 | 132° | 9km/h | 23396m | 6.1m/s | -52.2°C | 0% | 34.5hPa | 2.5V | 03:48:19 | 02:04:49 | 00:00:00 | |
| BUE01 | 2026-09-03 23:59:33 | 52.41852 | 11.32218 | 181° | 5km/h | 23375m | 5.4m/s | -52.3°C | 0.7% | 34.6hPa | 2.6V | 00:00:00 | 00:00:00 | 00:00:00 | |
| DL1XH1-15 | 2026-09-03 23:59:32 | 52.41853 | 11.32217 | 128° | 4km/h | 23370m | 4.9m/s | -52.3°C | 3.6% | 34.6hPa | 2.6V | 03:47:41 | 02:04:44 | 00:00:00 | |
| GOEST3-10 | 2026-09-03 23:59:31 | 52.41850 | 11.32217 | 198° | 5km/h | 23380m | 4.1m/s | -52.3°C | 3.5% | 34.5hPa | 2.6V | 00:00:00 | 00:00:00 | 00:00:00 | |
| DF8AY | 2026-09-03 23:59:30 | 52.41852 | 11.32218 | 182° | 5km/h | 23375m | 5.4m/s | -52.3°C | 0% | 34.6hPa | 2.6V | 03:48:19 | 02:04:45 | 00:00:00 | |
| SMARD9-15 | 2026-09-03 23:59:30 | 52.41853 | 11.32217 | 128° | 4km/h | 23370m | 4.9m/s | -52.3°C | 0.7% | 34.6hPa | 2.6V | 00:00:00 | 00:00:00 | 00:00:00 | |
| DL1XH-west | 2026-09-03 23:59:29 | 52.41853 | 11.32217 | 128° | 4km/h | 23370m | 4.9m/s | -52.3°C | 0% | 34.6hPa | 2.6V | 03:48:19 | 02:04:44 | 00:00:00 | |
| DB0UT-7 | 2026-09-03 23:59:29 | 52.41853 | 11.32217 | 129° | 5km/h | 23370m | 4.9m/s | -52.3°C | 3.6% | 34.6hPa | 2.6V | 03:47:00 | 02:04:44 | 00:00:00 | |
| AM1SDL-15 | 2026-09-03 23:59:28 | 52.41853 | 11.32216 | 67° | 5km/h | 23366m | 4.3m/s | -52.3°C | 3.6% | 34.6hPa | 2.5V | 00:00:00 | 02:04:43 | 00:00:00 | |
| DL4XJ-10 | 2026-09-03 23:59:27 | 52.41853 | 11.32213 | 65° | 5km/h | 23361m | 4.3m/s | -52.0°C | 0% | 0hPa | 2.5V | 00:00:00 | 00:00:00 | 00:00:00 | |
| DO2SHX-10 | 2026-09-03 23:59:26 | 52.41852 | 11.32212 | 44° | 5km/h | 23357m | 5.1m/s | -52.3°C | 3.5% | 34.6hPa | 2.5V | 00:00:00 | 02:04:41 | 00:00:00 | |
| HSKMA3-T | 2026-09-03 23:59:25 | 52.41851 | 11.32211 | 10° | 5km/h | 23351m | 5.6m/s | -52.3°C | 0% | 34.7hPa | 2.6V | 03:48:19 | 02:04:40 | 00:00:00 | |
| DD8BA-10 | 2026-09-03 23:59:25 | 52.41851 | 11.32211 | 11° | 5km/h | 23351m | 5.5m/s | -52.3°C | 3.6% | 34.7hPa | 2.6V | 00:00:00 | 00:00:00 | 00:00:00 | |
| DL1XH1-15 | 2026-09-03 23:59:24 | 52.41845 | 11.32208 | 334° | 2km/h | 23321m | 5m/s | -52.3°C | 3.5% | 34.8hPa | 2.5V | 03:47:51 | 02:04:34 | 00:00:00 | |
| AA1-15 | 2026-09-03 23:59:23 | 52.41849 | 11.32211 | 5° | 4km/h | 23341m | 4.8m/s | -52.3°C | 0% | 34.8hPa | 2.5V | 03:48:19 | 02:04:38 | 00:00:00 | |
| DL1XH-15 | 2026-09-03 23:59:23 | 52.41847 | 11.32209 | 38° | 4km/h | 23330m | 4.7m/s | -52.3°C | 3.5% | 34.8hPa | 2.6V | 03:47:49 | 02:04:36 | 00:00:00 | |
| DO2SHX-10 | 2026-09-03 23:59:23 | 52.41849 | 11.32211 | 5° | 4km/h | 23341m | 4.8m/s | -52.2°C | 3.5% | 34.7hPa | 2.6V | 00:00:00 | 02:04:38 | 00:00:00 | |
| S3001 | 2026-09-03 23:59:22 | 52.41847 | 11.32209 | 38° | 4km/h | 23330m | 4.7m/s | -52.3°C | 0.7% | 34.8hPa | 2.6V | 00:00:00 | 00:00:00 | 00:00:00 | |
| DF8AY | 2026-09-03 23:59:21 | 52.41846 | 11.32208 | 33° | 4km/h | 23326m | 3.8m/s | -52.3°C | 0% | 34.9hPa | 2.6V | 03:48:19 | 02:04:35 | 00:00:00 | |
| DO2SHX-10 | 2026-09-03 23:59:20 | 52.41846 | 11.32208 | 33° | 4km/h | 23326m | 3.7m/s | -52.3°C | 3.5% | 34.8hPa | 2.5V | 03:47:00 | 02:04:35 | 00:00:00 | |
| DL1XH-west | 2026-09-03 23:59:19 | 52.41845 | 11.32208 | 335° | 2km/h | 23321m | 5m/s | -52.3°C | 0% | 34.9hPa | 2.5V | 03:48:19 | 02:04:34 | 00:00:00 | |
| DF8AY-15 | 2026-09-03 23:59:19 | 52.41845 | 11.32208 | 335° | 7km/h | 23322m | 5.0m/s | -52.3°C | 3.5% | 34.8hPa | 2.5V | 00:00:00 | 02:04:34 | 00:00:00 | |
| DJ8HS-15 | 2026-09-03 23:59:18 | 52.41845 | 11.32209 | 297° | 5km/h | 23317m | 5.5m/s | 0°C | 0% | 0hPa | 2.6V | 03:47:00 | 02:04:33 | 00:00:00 | |
| DJ2DS-15 | 2026-09-03 23:59:17 | 52.41843 | 11.32214 | 308° | 7km/h | 23307m | 4.5m/s | -52.4°C | 0.7% | 34.9hPa | 2.6V | 00:00:00 | 00:00:00 | 00:00:00 | |
| EDDB2-11 | 2026-09-03 23:59:16 | 52.41842 | 11.32216 | 331° | 7km/h | 23302m | 6.0m/s | -52.4°C | 0.7% | 35.0hPa | 2.6V | 00:00:00 | 00:00:00 | 00:00:00 | |
| HSKMA3-T | 2026-09-03 23:59:15 | 52.41842 | 11.32216 | 331° | 7km/h | 23301m | 6m/s | -52.4°C | 0% | 35hPa | 2.6V | 03:48:19 | 02:04:30 | 00:00:00 | |
| DD8BA-10 | 2026-09-03 23:59:15 | 52.41842 | 11.32216 | 332° | 5km/h | 23302m | 5.9m/s | -52.3°C | 3.5% | 34.9hPa | 2.6V | 00:00:00 | 00:00:00 | 00:00:00 | |
| DL1NUX | 2026-09-03 23:59:14 | 52.41835 | 11.32212 | 76° | 4km/h | 23271m | 4.3m/s | -52.4°C | 3.6% | 35.1hPa | 2.6V | 03:48:01 | 02:04:24 | 00:00:00 | |
| AA1-15 | 2026-09-03 23:59:12 | 52.41837 | 11.32214 | 23° | 7km/h | 23286m | 5.1m/s | -52.4°C | 0% | 35.1hPa | 2.5V | 03:48:19 | 02:04:27 | 00:00:00 | |
| DO2SHX-10 | 2026-09-03 23:59:11 | 52.41836 | 11.32214 | 22° | 4km/h | 23281m | 5.2m/s | -52.4°C | 3.6% | 35.0hPa | 2.6V | 00:00:00 | 02:04:26 | 00:00:00 | |
| DB0DAN | 2026-09-03 23:59:10 | 52.41835 | 11.32213 | 44° | 2km/h | 23276m | 4m/s | -52.4°C | 0.7% | 35.09hPa | 2.6V | 00:00:00 | 00:00:00 | 00:00:00 | |
| SO1NDE-10 | 2026-09-03 23:59:10 | 52.41835 | 11.32213 | 45° | 7km/h | 23276m | 4.0m/s | -52.4°C | 3.6% | 35.0hPa | 2.6V | 00:00:00 | 02:04:25 | 00:00:00 | |
| DL1XH-west | 2026-09-03 23:59:09 | 52.41835 | 11.32212 | 77° | 4km/h | 23271m | 4.3m/s | -52.4°C | 0% | 35.1hPa | 2.6V | 03:48:19 | 02:04:24 | 00:00:00 | |
| DO2SHX-10 | 2026-09-03 23:59:08 | 52.41834 | 11.32210 | 94° | 7km/h | 23267m | 5.9m/s | -52.4°C | 3.5% | 35.1hPa | 2.5V | 03:48:00 | 02:04:23 | 00:00:00 | |
| DL4XJ-10 | 2026-09-03 23:59:07 | 52.41835 | 11.32207 | 102° | 5km/h | 23261m | 4.8m/s | -52.1°C | 0% | 0hPa | 2.6V | 00:00:00 | 00:00:00 | 00:00:00 | |
| GOEST3-10 | 2026-09-03 23:59:06 | 52.41836 | 11.32204 | 124° | 7km/h | 23257m | 4.1m/s | -52.4°C | 3.6% | 35.2hPa | 2.6V | 00:00:00 | 02:04:21 | 00:00:00 | |
| DO2SHX-10 | 2026-09-03 23:59:05 | 52.41837 | 11.32202 | 154° | 7km/h | 23252m | 5.6m/s | -52.3°C | 3.6% | 35.2hPa | 2.5V | 00:00:00 | 02:04:20 | 00:00:00 | |
| HSKMA3-T | 2026-09-03 23:59:04 | 52.41839 | 11.32202 | 189° | 7km/h | 23246m | 5.7m/s | -52.4°C | 0% | 35.3hPa | 2.5V | 03:48:19 | 02:04:19 | 00:00:00 | |
| DL1NUX | 2026-09-03 23:59:04 | 52.41848 | 11.32207 | 195° | 5km/h | 23221m | 4.8m/s | -52.5°C | 3.6% | 35.4hPa | 2.6V | 03:48:11 | 02:04:14 | 00:00:00 | |
| SONCRA | 2026-09-03 23:59:04 | 52.41841 | 11.32203 | 201° | 9km/h | 23241m | 4.4m/s | -52.4°C | 0.7% | 35.3hPa | 2.6V | 00:00:00 | 00:00:00 | 00:00:00 | |
| DL1XH-15 | 2026-09-03 23:59:03 | 52.41845 | 11.32205 | 194° | 7km/h | 23231m | 5.6m/s | -52.4°C | 3.6% | 35.4hPa | 2.6V | 03:48:09 | 02:04:16 | 00:00:00 | |
| DO2SHX-10 | 2026-09-03 23:59:02 | 52.41843 | 11.32204 | 202° | 7km/h | 23237m | 5.0m/s | -52.3°C | 3.6% | 35.2hPa | 2.6V | 00:00:00 | 02:04:17 | 00:00:00 | |
| AA1-15 | 2026-09-03 23:59:01 | 52.41845 | 11.32205 | 195° | 7km/h | 23231m | 5.6m/s | -52.4°C | 0% | 35.4hPa | 2.6V | 03:48:19 | 02:04:16 | 00:00:00 | |
| DF8AY | 2026-09-03 23:58:59 | 52.41852 | 11.32207 | 107° | 5km/h | 23201m | 5.9m/s | -52.5°C | 0% | 35.5hPa | 2.6V | 03:48:19 | 02:04:10 | 00:00:00 | |
| DB0UT-7 | 2026-09-03 23:58:59 | 52.41848 | 11.32206 | 196° | 7km/h | 23221m | 4.8m/s | -52.4°C | 3.6% | 35.4hPa | 2.6V | 00:00:00 | 00:00:00 | 00:00:00 | |
| DL1XH-west | 2026-09-03 23:58:59 | 52.41848 | 11.32207 | 196° | 5km/h | 23221m | 4.8m/s | -52.5°C | 0% | 35.4hPa | 2.6V | 03:48:19 | 02:04:14 | 00:00:00 | |
| DJ8HS-15 | 2026-09-03 23:58:58 | 52.41849 | 11.32207 | 203° | 7km/h | 23216m | 5.8m/s | 0°C | 0% | 0hPa | 2.6V | 00:00:00 | 02:04:13 | 00:00:00 | |
| DF7ER-10 | 2026-09-03 23:58:56 | 52.41850 | 11.32208 | 205° | 4km/h | 23211m | 4.3m/s | -52.5°C | 0.7% | 35.5hPa | 2.6V | 03:48:00 | 00:00:00 | 00:00:00 | |
| DB0DAN | 2026-09-03 23:58:55 | 52.41852 | 11.32207 | 107° | 4km/h | 23201m | 5.9m/s | -52.5°C | 0.7% | 35.54hPa | 2.6V | 00:00:00 | 00:00:00 | 00:00:00 | |
| HSKMA3-T | 2026-09-03 23:58:54 | 52.41852 | 11.32205 | 88° | 7km/h | 23196m | 5.2m/s | -52.5°C | 0% | 35.5hPa | 2.6V | 03:48:19 | 02:04:09 | 00:00:00 | |
| DL1XH-15 | 2026-09-03 23:58:53 | 52.41853 | 11.32197 | 134° | 5km/h | 23180m | 5.3m/s | -52.5°C | 3.6% | 35.6hPa | 2.6V | 03:48:19 | 02:04:06 | 00:00:00 | |
| AA1-15 | 2026-09-03 23:58:50 | 52.41854 | 11.32196 | 156° | 5km/h | 23175m | 4.3m/s | -52.5°C | 0% | 35.6hPa | 2.6V | 03:49:10 | 02:04:05 | 00:00:00 | |
| DF8AY | 2026-09-03 23:58:49 | 52.41855 | 11.32195 | 152° | 5km/h | 23171m | 5.5m/s | -52.5°C | 0% | 35.7hPa | 2.5V | 03:49:10 | 02:04:04 | 00:00:00 | |
| DL1XH-west | 2026-09-03 23:58:48 | 52.41857 | 11.32193 | 140° | 7km/h | 23165m | 5.3m/s | -52.5°C | 0% | 35.7hPa | 2.5V | 03:49:10 | 02:04:03 | 00:00:00 | |
| HSKMA3-T | 2026-09-03 23:58:45 | 52.41864 | 11.32184 | 163° | 9km/h | 23145m | 6m/s | -52.5°C | 0% | 35.8hPa | 2.6V | 03:49:10 | 02:03:59 | 00:00:00 | |
| EDDB2-11 | 2026-09-03 23:58:45 | 52.41864 | 11.32184 | 163° | 7km/h | 23146m | 6.0m/s | -52.5°C | 0.7% | 35.8hPa | 2.6V | 00:00:00 | 00:00:00 | 00:00:00 | |
| DL1XH1-15 | 2026-09-03 23:58:44 | 52.41867 | 11.32175 | 72° | 9km/h | 23120m | 4.2m/s | -52.6°C | 3.6% | 36hPa | 2.6V | 03:48:31 | 02:03:54 | 00:00:00 | |
| DO2SHX-10 | 2026-09-03 23:58:44 | 52.41864 | 11.32184 | 164° | 7km/h | 23146m | 6.0m/s | -52.5°C | 3.6% | 35.8hPa | 2.5V | 03:48:00 | 02:03:59 | 00:00:00 | |
| DL1XH-15 | 2026-09-03 23:58:43 | 52.41868 | 11.32181 | 107° | 5km/h | 23130m | 5.9m/s | -52.6°C | 3.6% | 35.9hPa | 2.5V | 03:48:29 | 02:03:56 | 00:00:00 | |
| DO3MHA-11 | 2026-09-03 23:58:43 | 52.41866 | 11.32183 | 172° | 7km/h | 23140m | 4.8m/s | -52.5°C | 3.6% | 35.8hPa | 2.6V | 03:48:00 | 02:03:58 | 00:00:00 | |
| DB0DAN | 2026-09-03 23:58:40 | 52.41868 | 11.32178 | 78° | 7km/h | 23125m | 5.1m/s | -52.6°C | 0.7% | 35.94hPa | 2.6V | 00:00:00 | 00:00:00 | 00:00:00 | |
| AA1-15 | 2026-09-03 23:58:39 | 52.41868 | 11.32175 | 72° | 9km/h | 23120m | 4.2m/s | -52.6°C | 0% | 36hPa | 2.6V | 03:49:10 | 02:03:54 | 00:00:00 | |
| DF8AY | 2026-09-03 23:58:38 | 52.41867 | 11.32172 | 73° | 7km/h | 23115m | 5.3m/s | -52.6°C | 0% | 36hPa | 2.5V | 03:49:10 | 02:03:53 | 00:00:00 | |
| DL1XH-west | 2026-09-03 23:58:37 | 52.41867 | 11.32169 | 84° | 5km/h | 23110m | 5.5m/s | -52.5°C | 0% | 36hPa | 2.5V | 03:49:10 | 02:03:52 | 00:00:00 | |
| MECKS9 | 2026-09-03 23:58:36 | 52.41867 | 11.32169 | 85° | 5km/h | 23110m | 5.5m/s | -52.5°C | 0.7% | 36.0hPa | 2.6V | 03:49:00 | 00:00:00 | 00:00:00 | |
| DD8BA-10 | 2026-09-03 23:58:35 | 52.41867 | 11.32164 | 103° | 9km/h | 23100m | 4.6m/s | -52.4°C | 3.6% | 36.0hPa | 2.6V | 00:00:00 | 00:00:00 | 00:00:00 | |
| DL1NUX | 2026-09-03 23:58:34 | 52.41872 | 11.32143 | 137° | 5km/h | 23071m | 4m/s | -52.4°C | 3.5% | 36.2hPa | 2.6V | 03:48:41 | 02:03:44 | 00:00:00 | |
| HSKMA3-T | 2026-09-03 23:58:33 | 52.41868 | 11.32156 | 99° | 11km/h | 23091m | 4.3m/s | -52.4°C | 0% | 36.1hPa | 2.5V | 03:49:10 | 02:03:48 | 00:00:00 | |
| DL1XH-15 | 2026-09-03 23:58:33 | 52.41869 | 11.32148 | 114° | 7km/h | 23081m | 5.7m/s | -52.4°C | 3.5% | 36.2hPa | 2.6V | 03:48:39 | 02:03:46 | 00:00:00 | |
| DF8AY | 2026-09-03 23:58:28 | 52.41872 | 11.32141 | 121° | 7km/h | 23067m | 4.7m/s | -52.4°C | 0% | 36.2hPa | 2.5V | 03:49:10 | 02:03:43 | 00:00:00 | |
| DL1XH-west | 2026-09-03 23:58:27 | 52.41873 | 11.32139 | 101° | 9km/h | 23061m | 5.4m/s | -52.4°C | 0% | 36.3hPa | 2.5V | 03:49:10 | 02:03:42 | 00:00:00 | |
| DL4XJ-10 | 2026-09-03 23:58:27 | 52.41873 | 11.32138 | 102° | 15km/h | 23061m | 5.4m/s | -52.0°C | 0% | 0hPa | 2.6V | 00:00:00 | 00:00:00 | 00:00:00 | |
| DB0DAN | 2026-09-03 23:58:25 | 52.41874 | 11.32129 | 100° | 13km/h | 23052m | 4.1m/s | -52.4°C | 0.7% | 36.34hPa | 2.6V | 00:00:00 | 00:00:00 | 00:00:00 | |
| DL1NUX | 2026-09-03 23:58:24 | 52.41877 | 11.32102 | 83° | 15km/h | 23023m | 5.7m/s | -52.5°C | 3.5% | 36.5hPa | 2.5V | 03:48:51 | 02:03:34 | 00:00:00 | |
| HSKMA3-T | 2026-09-03 23:58:22 | 52.41876 | 11.32116 | 111° | 9km/h | 23037m | 4.8m/s | -52.5°C | 0% | 36.5hPa | 2.5V | 03:49:10 | 02:03:37 | 00:00:00 | |
| DF8AY | 2026-09-03 23:58:17 | 52.41875 | 11.32088 | 78° | 18km/h | 23014m | 4m/s | -52.5°C | 0% | 36.6hPa | 2.6V | 03:49:10 | 02:03:32 | 00:00:00 | |
| DL1XH-west | 2026-09-03 23:58:16 | 52.41874 | 11.32081 | 78° | 16km/h | 23009m | 5.4m/s | -52.5°C | 0% | 36.6hPa | 2.6V | 03:49:10 | 02:03:31 | 00:00:00 | |
| DB0NH | 2026-09-03 23:58:16 | 52.41874 | 11.32080 | 78° | 15km/h | 23009m | 5.4m/s | -52.4°C | 3.5% | 36.5hPa | 2.6V | 00:00:00 | 02:03:31 | 00:00:00 | |
| SONDE2-11 | 2026-09-03 23:58:15 | 52.41874 | 11.32069 | 94° | 13km/h | 22999m | 4.0m/s | -52.5°C | 0.7% | 36.6hPa | 2.6V | 00:00:00 | 00:00:00 | 00:00:00 | |
| DL1NUX | 2026-09-03 23:58:14 | 52.41878 | 11.32037 | 100° | 15km/h | 22976m | 4.3m/s | -52.6°C | 3.5% | 36.8hPa | 2.6V | 03:49:01 | 02:03:24 | 00:00:00 | |
| HSKMA3-T | 2026-09-03 23:58:12 | 52.41875 | 11.32057 | 107° | 16km/h | 22990m | 5.4m/s | -52.5°C | 0% | 36.7hPa | 2.5V | 03:49:10 | 02:03:27 | 00:00:00 | |
| DB0DAN | 2026-09-03 23:58:10 | 52.41877 | 11.32043 | 102° | 16km/h | 22980m | 4.2m/s | -52.6°C | 0.7% | 36.8hPa | 2.6V | 00:00:00 | 00:00:00 | 00:00:00 | |
| DF8AY | 2026-09-03 23:58:07 | 52.41880 | 11.32027 | 109° | 9km/h | 22966m | 4.7m/s | -52.7°C | 0% | 36.8hPa | 2.5V | 03:49:10 | 02:03:22 | 00:00:00 | |
| AA1-15 | 2026-09-03 23:58:06 | 52.41881 | 11.32024 | 123° | 9km/h | 22962m | 4.5m/s | -52.9°C | 0% | 36.9hPa | 2.6V | 03:49:10 | 02:03:21 | 00:00:00 | |
| DL1XH-west | 2026-09-03 23:58:05 | 52.41882 | 11.32021 | 128° | 11km/h | 22957m | 5.8m/s | -53°C | 0% | 36.9hPa | 2.6V | 03:49:10 | 02:03:20 | 00:00:00 | |
| GOEST3-10 | 2026-09-03 23:58:04 | 52.41884 | 11.32017 | 129° | 13km/h | 22952m | 4.8m/s | -53.0°C | 3.6% | 36.9hPa | 2.6V | 00:00:00 | 00:00:00 | 00:00:00 | |
| DL1XH-15 | 2026-09-03 23:58:03 | 52.41890 | 11.32003 | 108° | 11km/h | 22937m | 5.3m/s | -53.2°C | 3.7% | 37hPa | 2.6V | 03:49:09 | 02:03:16 | 00:00:00 | |
| HSKMA3-T | 2026-09-03 23:58:01 | 52.41889 | 11.32003 | 109° | 11km/h | 22938m | 5.3m/s | -53.2°C | 0% | 37hPa | 2.6V | 03:49:10 | 02:03:16 | 00:00:00 | |
| DF8AY | 2026-09-03 23:57:57 | 52.41888 | 11.31979 | 76° | 22km/h | 22917m | 5.4m/s | -53.4°C | 0% | 37.1hPa | 2.5V | 03:50:01 | 02:03:12 | 00:00:00 | |
| SMARD9-15 | 2026-09-03 23:57:56 | 52.41886 | 11.31971 | 74° | 22km/h | 22913m | 4.0m/s | -53.4°C | 0.8% | 37.2hPa | 2.6V | 00:00:00 | 00:00:00 | 00:00:00 | |
| DB0DAN | 2026-09-03 23:57:55 | 52.41884 | 11.31962 | 70° | 22km/h | 22908m | 4.9m/s | -53.4°C | 0.7% | 37.18hPa | 2.6V | 00:00:00 | 00:00:00 | 00:00:00 | |
| AA1-15 | 2026-09-03 23:57:55 | 52.41884 | 11.31962 | 70° | 24km/h | 22908m | 4.9m/s | -53.4°C | 0% | 37.2hPa | 2.6V | 03:50:01 | 02:03:10 | 00:00:00 | |
| DL1XH-west | 2026-09-03 23:57:54 | 52.41882 | 11.31953 | 65° | 20km/h | 22903m | 5.7m/s | -53.3°C | 0% | 37.2hPa | 2.6V | 03:50:01 | 02:03:09 | 00:00:00 | |
| DJ8HS-15 | 2026-09-03 23:57:54 | 52.41882 | 11.31953 | 65° | 15km/h | 22903m | 5.6m/s | 0°C | 0% | 0hPa | 2.6V | 00:00:00 | 02:03:09 | 00:00:00 | |
| DL1XH-15 | 2026-09-03 23:57:53 | 52.41877 | 11.31933 | 82° | 15km/h | 22888m | 5.8m/s | -53.2°C | 3.8% | 37.3hPa | 2.6V | 03:49:19 | 02:03:06 | 00:00:00 | |
| HSKMA3-T | 2026-09-03 23:57:51 | 52.41877 | 11.31933 | 83° | 15km/h | 22888m | 5.8m/s | -53.3°C | 0% | 37.3hPa | 2.6V | 03:50:01 | 02:03:06 | 00:00:00 | |
| S3001 | 2026-09-03 23:57:48 | 52.41877 | 11.31918 | 87° | 9km/h | 22873m | 5.6m/s | -53.2°C | 0.7% | 37.4hPa | 2.5V | 00:00:00 | 00:00:00 | 00:00:00 | |
| BIOWL9-15 | 2026-09-03 23:57:47 | 52.41873 | 11.31905 | 55° | 11km/h | 22854m | 5.6m/s | -53.1°C | 0.7% | -1.0hPa | 2.5V | 00:00:00 | 00:00:00 | 00:00:00 | |
| DF8AY | 2026-09-03 23:57:46 | 52.41869 | 11.31896 | 53° | 15km/h | 22844m | 4.5m/s | -53.1°C | 0% | 37.5hPa | 2.5V | 03:50:01 | 02:02:57 | 00:00:00 | |
| AA1-15 | 2026-09-03 23:57:44 | 52.41873 | 11.31905 | 56° | 13km/h | 22853m | 5.6m/s | -53.1°C | 0% | 37.5hPa | 2.6V | 03:50:01 | 02:02:59 | 00:00:00 | |
| DL1XH-west | 2026-09-03 23:57:43 | 52.41871 | 11.31901 | 57° | 15km/h | 22848m | 4.6m/s | -53.1°C | 0% | 37.5hPa | 2.5V | 03:50:01 | 02:02:58 | 00:00:00 | |
| DL1XH1-15 | 2026-09-03 23:57:42 | 52.41861 | 11.31882 | 54° | 15km/h | 22829m | 4m/s | -53.1°C | 3.7% | 37.6hPa | 2.6V | 03:49:31 | 02:02:54 | 00:00:00 | |
| HSKMA3-T | 2026-09-03 23:57:40 | 52.41864 | 11.31886 | 45° | 15km/h | 22833m | 4.8m/s | -53.1°C | 0% | 37.6hPa | 2.6V | 03:50:01 | 02:02:55 | 00:00:00 | |
| DB0DAN | 2026-09-03 23:57:40 | 52.41864 | 11.31886 | 45° | 15km/h | 22833m | 4.8m/s | -53.1°C | 0.8% | 37.59hPa | 2.6V | 00:00:00 | 00:00:00 | 00:00:00 | |
| DF8AY | 2026-09-03 23:57:36 | 52.41857 | 11.31863 | 77° | 16km/h | 22814m | 4m/s | -53.1°C | 0% | 37.7hPa | 2.6V | 03:50:01 | 02:02:51 | 00:00:00 | |
| DL1XH-west | 2026-09-03 23:57:33 | 52.41853 | 11.31848 | 38° | 13km/h | 22799m | 4.7m/s | -53.1°C | 0% | 37.8hPa | 2.5V | 03:50:01 | 02:02:48 | 00:00:00 | |
| NBG1-10 | 2026-09-03 23:57:33 | 52.41853 | 11.31848 | 39° | 11km/h | 22799m | 4.6m/s | -53.0°C | 3.7% | 37.7hPa | 2.6V | 00:00:00 | 02:02:48 | 00:00:00 | |
| DL1XH1-15 | 2026-09-03 23:57:32 | 52.41842 | 11.31836 | 35° | 13km/h | 22780m | 4.1m/s | -53°C | 3.7% | 37.9hPa | 2.6V | 03:49:41 | 02:02:44 | 00:00:00 | |
| HSKMA3-T | 2026-09-03 23:57:29 | 52.41842 | 11.31836 | 35° | 13km/h | 22780m | 4.1m/s | -53°C | 0% | 37.9hPa | 2.6V | 03:50:01 | 02:02:44 | 00:00:00 | |
| DB0UT-7 | 2026-09-03 23:57:29 | 52.41842 | 11.31836 | 36° | 9km/h | 22780m | 4.0m/s | -53.0°C | 3.7% | 37.9hPa | 2.5V | 03:49:00 | 02:02:44 | 00:00:00 | |
| AM1SDL-15 | 2026-09-03 23:57:28 | 52.41840 | 11.31833 | 27° | 13km/h | 22775m | 5.4m/s | -53.0°C | 3.6% | 37.9hPa | 2.5V | 03:49:00 | 02:02:43 | 00:00:00 | |
| DL4XJ-10 | 2026-09-03 23:57:27 | 52.41837 | 11.31831 | 17° | 9km/h | 22770m | 5.3m/s | -52.8°C | 0% | 0hPa | 2.6V | 00:00:00 | 00:00:00 | 00:00:00 | |
| TFSTFS | 2026-09-03 23:57:26 | 52.41837 | 11.31831 | 17° | 13km/h | 22770m | 5.3m/s | -53.1°C | 0.7% | 38.0hPa | 2.6V | 03:50:00 | 00:00:00 | 00:00:00 | |
| DB0DAN | 2026-09-03 23:57:25 | 52.41831 | 11.31828 | 30° | 13km/h | 22760m | 4.6m/s | -53.1°C | 0.8% | 38.03hPa | 2.6V | 00:00:00 | 00:00:00 | 00:00:00 | |
| DF8AY | 2026-09-03 23:57:25 | 52.41831 | 11.31828 | 30° | 13km/h | 22760m | 4.6m/s | -53.1°C | 0% | 38hPa | 2.6V | 03:50:01 | 02:02:40 | 00:00:00 | |
| DL1XH-west | 2026-09-03 23:57:23 | 52.41823 | 11.31813 | 58° | 16km/h | 22745m | 3.9m/s | -53.1°C | 0% | 38.1hPa | 2.6V | 03:50:01 | 02:02:37 | 00:00:00 | |
| DL1XH1-15 | 2026-09-03 23:57:22 | 52.41817 | 11.31802 | 19° | 7km/h | 22730m | 4.8m/s | -53.1°C | 3.7% | 38.2hPa | 2.5V | 03:49:51 | 02:02:34 | 00:00:00 | |
| HSKMA3-T | 2026-09-03 23:57:19 | 52.41817 | 11.31802 | 20° | 7km/h | 22730m | 4.8m/s | -53.1°C | 0% | 38.2hPa | 2.5V | 03:50:01 | 02:02:34 | 00:00:00 | |
| DF8AY | 2026-09-03 23:57:15 | 52.41814 | 11.31802 | 226° | 0km/h | 22710m | 4.7m/s | -53.2°C | 0% | 38.3hPa | 2.6V | 03:50:01 | 02:02:30 | 00:00:00 | |
| DD8BA-10 | 2026-09-03 23:57:15 | 52.41814 | 11.31802 | 227° | 5km/h | 22711m | 4.7m/s | -53.1°C | 3.8% | 38.3hPa | 2.6V | 00:00:00 | 00:00:00 | 00:00:00 | |
| DO2SHX-10 | 2026-09-03 23:57:14 | 52.41814 | 11.31803 | 281° | 4km/h | 22705m | 5.5m/s | -53.1°C | 3.8% | 38.3hPa | 2.6V | 00:00:00 | 02:02:29 | 00:00:00 | |
| DM0DOS-11 | 2026-09-03 23:57:12 | 52.41812 | 11.31804 | 26° | 4km/h | 22691m | 4.3m/s | -53.2°C | 3.7% | 38.4hPa | 2.6V | 03:49:59 | 02:02:26 | 00:00:00 | |
| DL1XH1-15 | 2026-09-03 23:57:12 | 52.41810 | 11.31800 | 67° | 9km/h | 22681m | 5.1m/s | -53.1°C | 3.7% | 38.5hPa | 2.6V | 03:50:01 | 02:02:24 | 00:00:00 | |
| DL1XH-west | 2026-09-03 23:57:11 | 52.41812 | 11.31804 | 27° | 4km/h | 22691m | 4.3m/s | -53.2°C | 0% | 38.5hPa | 2.6V | 03:50:01 | 02:02:26 | 00:00:00 | |
| DB0DAN | 2026-09-03 23:57:10 | 52.41811 | 11.31803 | 62° | 5km/h | 22686m | 5.8m/s | -53.2°C | 0.8% | 38.49hPa | 2.6V | 00:00:00 | 00:00:00 | 00:00:00 | |
| HSKMA3-T | 2026-09-03 23:57:08 | 52.41809 | 11.31797 | 58° | 9km/h | 22676m | 4.1m/s | -53.1°C | 0% | 38.5hPa | 2.5V | 03:50:52 | 02:02:23 | 00:00:00 | |
| DO2SHX-10 | 2026-09-03 23:57:08 | 52.41809 | 11.31797 | 59° | 9km/h | 22677m | 4.1m/s | -53.1°C | 3.7% | 38.5hPa | 2.7V | 03:50:00 | 02:02:23 | 00:00:00 | |
| DL4XJ-10 | 2026-09-03 23:57:07 | 52.41808 | 11.31794 | 44° | 9km/h | 22671m | 5.7m/s | -52.8°C | 0% | 0hPa | 2.7V | 00:00:00 | 00:00:00 | 00:00:00 | |
| DL1LOL-11 | 2026-09-03 23:57:06 | 52.41808 | 11.31794 | 44° | 9km/h | 22672m | 5.8m/s | -53.1°C | 0.7% | 38.6hPa | 2.7V | 00:00:00 | 00:00:00 | 00:00:00 | |
| DD8BA-10 | 2026-09-03 23:57:05 | 52.41803 | 11.31790 | 5° | 9km/h | 22661m | 4.4m/s | -53.0°C | 3.7% | 38.6hPa | 2.7V | 00:00:00 | 00:00:00 | 00:00:00 | |
| DF8AY | 2026-09-03 23:57:05 | 52.41803 | 11.31791 | 5° | 11km/h | 22661m | 4.4m/s | -53°C | 0% | 38.6hPa | 2.6V | 03:50:52 | 02:02:20 | 00:00:00 | |
| GOEST3-10 | 2026-09-03 23:57:04 | 52.41801 | 11.31790 | 360° | 9km/h | 22657m | 5.2m/s | -53.0°C | 3.7% | 38.6hPa | 2.7V | 00:00:00 | 00:00:00 | 00:00:00 | |
| DL1XH-15 | 2026-09-03 23:57:03 | 52.41795 | 11.31793 | 330° | 7km/h | 22641m | 5.1m/s | -53°C | 3.7% | 38.7hPa | 2.7V | 03:50:09 | 02:02:16 | 00:00:00 | |
| DL1XH1-15 | 2026-09-03 23:57:02 | 52.41790 | 11.31797 | 335° | 13km/h | 22630m | 4.7m/s | -52.9°C | 3.7% | 38.8hPa | 2.6V | 03:50:11 | 02:02:14 | 00:00:00 | |
| DL1XH-west | 2026-09-03 23:57:00 | 52.41793 | 11.31795 | 329° | 11km/h | 22635m | 5.9m/s | -53°C | 0% | 38.8hPa | 2.6V | 03:50:52 | 02:02:15 | 00:00:00 | |
| HSKMA3-T | 2026-09-03 23:56:58 | 52.41788 | 11.31798 | 346° | 11km/h | 22626m | 3.9m/s | -52.9°C | 0% | 38.8hPa | 2.5V | 03:50:52 | 02:02:13 | 00:00:00 | |
| BUE01 | 2026-09-03 23:56:57 | 52.41785 | 11.31799 | 359° | 9km/h | 22621m | 6.0m/s | -52.9°C | 0.7% | 38.9hPa | 2.6V | 00:00:00 | 00:00:00 | 00:00:00 | |
| DB0DAN | 2026-09-03 23:56:55 | 52.41780 | 11.31797 | 30° | 9km/h | 22610m | 4.2m/s | -52.8°C | 0.7% | 38.93hPa | 2.6V | 00:00:00 | 00:00:00 | 00:00:00 | |
| DF8AY | 2026-09-03 23:56:54 | 52.41778 | 11.31795 | 25° | 11km/h | 22605m | 5.6m/s | -52.8°C | 0% | 39hPa | 2.6V | 03:50:52 | 02:02:09 | 00:00:00 | |
| DM0DOS-11 | 2026-09-03 23:56:53 | 52.41771 | 11.31793 | 353° | 5km/h | 22590m | 5.5m/s | -52.8°C | 3.7% | 39hPa | 2.6V | 03:50:19 | 02:02:06 | 00:00:00 | |
| DL1XH-west | 2026-09-03 23:56:49 | 52.41770 | 11.31794 | 304° | 4km/h | 22579m | 4.6m/s | -52.8°C | 0% | 39.1hPa | 2.5V | 03:50:52 | 02:02:04 | 00:00:00 | |
| HSKMA3-T | 2026-09-03 23:56:47 | 52.41768 | 11.31799 | 299° | 9km/h | 22569m | 6m/s | -52.8°C | 0% | 39.2hPa | 2.6V | 03:50:52 | 02:02:02 | 00:00:00 | |
| DO2SHX-10 | 2026-09-03 23:56:47 | 52.41768 | 11.31799 | 300° | 11km/h | 22569m | 6.0m/s | -52.8°C | 3.6% | 39.2hPa | 2.5V | 00:00:00 | 02:02:02 | 00:00:00 | |
| DL1XH-15 | 2026-09-03 23:56:46 | 52.41760 | 11.31814 | 43° | 4km/h | 22540m | 3.6m/s | -52.7°C | 3.7% | 39.4hPa | 2.5V | 03:50:29 | 02:01:56 | 00:00:00 | |
| DF8AY | 2026-09-03 23:56:44 | 52.41763 | 11.31811 | 308° | 9km/h | 22554m | 5.1m/s | -52.8°C | 0% | 39.3hPa | 2.6V | 03:50:52 | 02:01:59 | 00:00:00 | |
| DO2SHX-10 | 2026-09-03 23:56:44 | 52.41763 | 11.31810 | 308° | 5km/h | 22555m | 5.1m/s | -52.7°C | 3.7% | 39.3hPa | 2.6V | 03:50:00 | 02:01:59 | 00:00:00 | |
| DL1XH1-15 | 2026-09-03 23:56:42 | 52.41758 | 11.31813 | 355° | 5km/h | 22531m | 5.4m/s | -52.7°C | 3.6% | 39.4hPa | 2.6V | 03:50:31 | 02:01:54 | 00:00:00 | |
| DB0DAN | 2026-09-03 23:56:40 | 52.41760 | 11.31813 | 25° | 4km/h | 22536m | 5.2m/s | -52.7°C | 0.7% | 39.38hPa | 2.6V | 00:00:00 | 00:00:00 | 00:00:00 | |
| AA1-15 | 2026-09-03 23:56:39 | 52.41759 | 11.31813 | 356° | 5km/h | 22531m | 5.4m/s | -52.7°C | 0% | 39.4hPa | 2.6V | 03:50:52 | 02:01:54 | 00:00:00 | |
| DL1XH-west | 2026-09-03 23:56:38 | 52.41757 | 11.31813 | 332° | 7km/h | 22526m | 4.6m/s | -52.6°C | 0% | 39.5hPa | 2.5V | 03:50:52 | 02:01:53 | 00:00:00 | |
| HSKMA3-T | 2026-09-03 23:56:36 | 52.41755 | 11.31818 | 279° | 7km/h | 22516m | 5.2m/s | -52.6°C | 0% | 39.5hPa | 2.6V | 03:50:52 | 02:01:51 | 00:00:00 | |
| DL1ZP-14 | 2026-09-03 23:56:36 | 52.41755 | 11.31818 | 278° | 5km/h | 22516m | 5.2m/s | -52.6°C | 0.7% | 39.5hPa | 2.6V | 00:00:00 | 00:00:00 | 00:00:00 | |
| DD8BA-10 | 2026-09-03 23:56:35 | 52.41755 | 11.31821 | 249° | 9km/h | 22511m | 6.0m/s | -52.6°C | 3.6% | 39.5hPa | 2.6V | 00:00:00 | 00:00:00 | 00:00:00 | |
| DL1XH1-15 | 2026-09-03 23:56:34 | 52.41761 | 11.31846 | 277° | 7km/h | 22482m | 3.4m/s | -52.5°C | 3.6% | 39.7hPa | 2.6V | 03:50:41 | 02:01:44 | 00:00:00 | |
| DF8AY | 2026-09-03 23:56:33 | 52.41758 | 11.31828 | 234° | 13km/h | 22501m | 4.4m/s | -52.6°C | 0% | 39.6hPa | 2.5V | 03:50:52 | 02:01:48 | 00:00:00 | |
| AA1-15 | 2026-09-03 23:56:28 | 52.41761 | 11.31848 | 269° | 5km/h | 22478m | 4.9m/s | -52.5°C | 0% | 39.7hPa | 2.5V | 03:50:52 | 02:01:43 | 00:00:00 | |
| HSKMA3-T | 2026-09-03 23:56:26 | 52.41762 | 11.31850 | 167° | 4km/h | 22467m | 5.4m/s | -52.5°C | 0% | 39.8hPa | 2.6V | 03:50:52 | 02:01:41 | 00:00:00 | |
| DB0DAN | 2026-09-03 23:56:25 | 52.41763 | 11.31850 | 162° | 4km/h | 22463m | 4.3m/s | -52.5°C | 0.7% | 39.84hPa | 2.6V | 00:00:00 | 00:00:00 | 00:00:00 | |
| DD8BA-10 | 2026-09-03 23:56:25 | 52.41763 | 11.31849 | 162° | 11km/h | 22463m | 4.2m/s | -52.4°C | 3.6% | 39.8hPa | 2.6V | 00:00:00 | 00:00:00 | 00:00:00 | |
| DL1NUX | 2026-09-03 23:56:24 | 52.41766 | 11.31865 | 230° | 13km/h | 22435m | 5.3m/s | -52.5°C | 3.6% | 40hPa | 2.5V | 03:50:51 | 02:01:34 | 00:00:00 | |
| DF8AY | 2026-09-03 23:56:22 | 52.41764 | 11.31853 | 272° | 7km/h | 22448m | 4.7m/s | -52.5°C | 0% | 39.9hPa | 2.5V | 03:50:52 | 02:01:37 | 00:00:00 | |
| AA1-15 | 2026-09-03 23:56:18 | 52.41769 | 11.31869 | 210° | 16km/h | 22430m | 5.6m/s | -52.5°C | 0% | 40.1hPa | 2.6V | 03:50:52 | 02:01:33 | 00:00:00 | |
| HSKMA3-T | 2026-09-03 23:56:15 | 52.41783 | 11.31877 | 198° | 18km/h | 22414m | 5.9m/s | -52.4°C | 0% | 40.1hPa | 2.6V | 03:51:43 | 02:01:30 | 00:00:00 | |
| DD8BA-10 | 2026-09-03 23:56:15 | 52.41783 | 11.31877 | 198° | 11km/h | 22414m | 5.9m/s | -52.4°C | 3.6% | 40.1hPa | 2.6V | 03:50:00 | 00:00:00 | 00:00:00 | |
| DO2SHX-10 | 2026-09-03 23:56:14 | 52.41787 | 11.31880 | 199° | 15km/h | 22409m | 4.7m/s | -52.4°C | 3.6% | 40.1hPa | 2.6V | 00:00:00 | 02:01:29 | 00:00:00 | |
| DM0DOS-11 | 2026-09-03 23:56:13 | 52.41796 | 11.31883 | 180° | 13km/h | 22395m | 5.6m/s | -52.4°C | 3.6% | 40.3hPa | 2.6V | 03:50:59 | 02:01:26 | 00:00:00 | |
| DF8AY | 2026-09-03 23:56:12 | 52.41793 | 11.31883 | 191° | 13km/h | 22399m | 4.5m/s | -52.4°C | 0% | 40.2hPa | 2.5V | 03:51:43 | 02:01:27 | 00:00:00 | |
| AA1-15 | 2026-09-03 23:56:07 | 52.41805 | 11.31882 | 197° | 5km/h | 22374m | 5m/s | -52.3°C | 0% | 40.4hPa | 2.5V | 03:51:43 | 02:01:22 | 00:00:00 | |
| HSKMA3-T | 2026-09-03 23:56:05 | 52.41810 | 11.31885 | 204° | 15km/h | 22365m | 5.2m/s | -52.3°C | 0% | 40.4hPa | 2.6V | 03:51:43 | 02:01:20 | 00:00:00 | |
| DL1XH-west | 2026-09-03 23:56:05 | 52.41813 | 11.31887 | 201° | 20km/h | 22360m | 5.3m/s | -52.3°C | 0% | 40.5hPa | 2.5V | 03:51:43 | 02:01:19 | 00:00:00 | |
| DD8BA-10 | 2026-09-03 23:56:05 | 52.41810 | 11.31885 | 205° | 22km/h | 22365m | 5.1m/s | -52.2°C | 3.6% | 40.4hPa | 2.6V | 00:00:00 | 00:00:00 | 00:00:00 | |
| DL1XH1-15 | 2026-09-03 23:56:04 | 52.41843 | 11.31906 | 191° | 20km/h | 22337m | 4.3m/s | -52.3°C | 3.6% | 40.6hPa | 2.6V | 03:51:11 | 02:01:14 | 00:00:00 | |
| DL1XH-15 | 2026-09-03 23:56:04 | 52.41832 | 11.31899 | 203° | 26km/h | 22346m | 5m/s | -52.3°C | 3.6% | 40.6hPa | 2.7V | 03:51:09 | 02:01:16 | 00:00:00 | |
| DF8AY | 2026-09-03 23:56:02 | 52.41825 | 11.31895 | 200° | 29km/h | 22350m | 4m/s | -52.3°C | 0% | 40.5hPa | 2.6V | 03:51:43 | 02:01:17 | 00:00:00 | |
| AA1-15 | 2026-09-03 23:55:56 | 52.41858 | 11.31903 | 161° | 22km/h | 22323m | 4.9m/s | -52.2°C | 0% | 40.7hPa | 2.6V | 03:51:43 | 02:01:11 | 00:00:00 | |
| DB0DAN | 2026-09-03 23:55:55 | 52.41864 | 11.31900 | 160° | 20km/h | 22318m | 4.4m/s | -52.2°C | 0.7% | 40.75hPa | 2.6V | 00:00:00 | 00:00:00 | 00:00:00 | |
| HSKMA3-T | 2026-09-03 23:55:54 | 52.41868 | 11.31897 | 165° | 18km/h | 22313m | 4.8m/s | -52.2°C | 0% | 40.8hPa | 2.6V | 03:51:43 | 02:01:09 | 00:00:00 | |
| DL1XH-west | 2026-09-03 23:55:53 | 52.41872 | 11.31896 | 175° | 15km/h | 22308m | 5.4m/s | -52.1°C | 0% | 40.8hPa | 2.5V | 03:51:43 | 02:01:08 | 00:00:00 | |
| DF8AY | 2026-09-03 23:55:51 | 52.41879 | 11.31898 | 201° | 15km/h | 22298m | 4.5m/s | -52.1°C | 0% | 40.9hPa | 2.6V | 03:51:43 | 02:01:06 | 00:00:00 | |
| AA1-15 | 2026-09-03 23:55:49 | 52.41905 | 11.31906 | 180° | 24km/h | 22274m | 4.9m/s | -52.1°C | 0% | 41hPa | 2.7V | 03:51:43 | 02:01:01 | 00:00:00 | |
| HSKMA3-T | 2026-09-03 23:55:44 | 52.41916 | 11.31904 | 169° | 24km/h | 22263m | 4.9m/s | -52.2°C | 0% | 41.1hPa | 2.6V | 03:51:43 | 02:00:59 | 00:00:00 | |
| DO2SHX-10 | 2026-09-03 23:55:44 | 52.41916 | 11.31904 | 170° | 24km/h | 22264m | 4.9m/s | -52.1°C | 3.5% | 41.0hPa | 2.5V | 03:51:00 | 02:00:59 | 00:00:00 | |
| GOEST3-10 | 2026-09-03 23:55:43 | 52.41922 | 11.31902 | 166° | 24km/h | 22258m | 5.8m/s | -52.1°C | 3.5% | 41.1hPa | 2.5V | 00:00:00 | 00:00:00 | 00:00:00 | |
| DL1XH1-15 | 2026-09-03 23:55:42 | 52.41946 | 11.31891 | 164° | 20km/h | 22239m | 5.8m/s | -52.3°C | 3.5% | 41.2hPa | 2.6V | 03:51:31 | 02:00:54 | 00:00:00 | |
| BIOWL1-15 | 2026-09-03 23:55:42 | 52.41928 | 11.31899 | 165° | 26km/h | 22252m | 5.5m/s | -52.2°C | 0% | 41.1hPa | 2.5V | 03:51:43 | 02:00:57 | 00:00:00 | |
| AP2371 | 2026-09-03 23:55:41 | 52.41928 | 11.31899 | 166° | 26km/h | 22253m | 5.5m/s | -52.2°C | 0% | 0hPa | 2.6V | 00:00:00 | 00:00:00 | 00:00:00 | |
| DB0DAN | 2026-09-03 23:55:40 | 52.41940 | 11.31894 | 164° | 22km/h | 22243m | 3.5m/s | -52.3°C | 0.7% | 41.23hPa | 2.6V | 00:00:00 | 00:00:00 | 00:00:00 | |
| DF8AY | 2026-09-03 23:55:40 | 52.41940 | 11.31894 | 164° | 24km/h | 22243m | 3.5m/s | -52.3°C | 0% | 41.2hPa | 2.6V | 03:51:43 | 02:00:55 | 00:00:00 | |
| AA1-15 | 2026-09-03 23:55:35 | 52.41964 | 11.31886 | 176° | 22km/h | 22219m | 5.2m/s | -52.3°C | 0% | 41.4hPa | 2.7V | 03:51:43 | 02:00:50 | 00:00:00 | |
| HSKMA3-T | 2026-09-03 23:55:34 | 52.41977 | 11.31884 | 168° | 29km/h | 22209m | 4.1m/s | -52.4°C | 0% | 41.4hPa | 2.6V | 03:51:43 | 02:00:48 | 00:00:00 | |
| GOEST3-10 | 2026-09-03 23:55:33 | 52.41977 | 11.31884 | 168° | 31km/h | 22210m | 4.0m/s | -52.3°C | 3.6% | 41.4hPa | 2.7V | 03:51:00 | 00:00:00 | 00:00:00 | |
| DL1XH1-15 | 2026-09-03 23:55:32 | 52.42006 | 11.31866 | 154° | 33km/h | 22190m | 5.7m/s | -52.4°C | 3.6% | 41.5hPa | 2.7V | 03:51:41 | 02:00:44 | 00:00:00 | |
| DL1XH-west | 2026-09-03 23:55:32 | 52.41991 | 11.31876 | 157° | 29km/h | 22199m | 4.6m/s | -52.4°C | 0% | 41.5hPa | 2.5V | 03:51:43 | 02:00:46 | 00:00:00 | |
| BIOWL1-15 | 2026-09-03 23:55:27 | 52.42020 | 11.31854 | 152° | 31km/h | 22180m | 4.6m/s | -52.4°C | 0% | 41.6hPa | 2.6V | 03:51:43 | 02:00:42 | 00:00:00 | |
| AA1-15 | 2026-09-03 23:55:25 | 52.42032 | 11.31841 | 138° | 26km/h | 22170m | 5.5m/s | -52.4°C | 0% | 41.7hPa | 2.6V | 03:52:34 | 02:00:40 | 00:00:00 | |
| HSKMA3-T | 2026-09-03 23:55:22 | 52.42046 | 11.31821 | 146° | 26km/h | 22156m | 5.7m/s | -52.5°C | 0% | 41.8hPa | 2.7V | 03:52:34 | 02:00:37 | 00:00:00 | |
| DL1XH1-15 | 2026-09-03 23:55:22 | 52.42065 | 11.31803 | 149° | 31km/h | 22141m | 4.8m/s | -52.6°C | 3.6% | 41.9hPa | 2.5V | 03:51:51 | 02:00:34 | 00:00:00 | |
| DL1XH-west | 2026-09-03 23:55:21 | 52.42052 | 11.31815 | 151° | 27km/h | 22150m | 5m/s | -52.5°C | 0% | 41.8hPa | 2.7V | 03:52:34 | 02:00:36 | 00:00:00 | |
| DF8AY | 2026-09-03 23:55:16 | 52.42084 | 11.31779 | 135° | 31km/h | 22126m | 4.1m/s | -52.7°C | 0% | 41.9hPa | 2.7V | 03:52:34 | 02:00:31 | 00:00:00 | |
| AA1-15 | 2026-09-03 23:55:15 | 52.42089 | 11.31770 | 138° | 27km/h | 22121m | 5.3m/s | -52.7°C | 0% | 42hPa | 2.7V | 03:52:34 | 02:00:30 | 00:00:00 | |
| DD8BA-10 | 2026-09-03 23:55:15 | 52.42089 | 11.31770 | 138° | 26km/h | 22121m | 5.2m/s | -52.6°C | 3.7% | 41.9hPa | 2.6V | 00:00:00 | 00:00:00 | 00:00:00 | |
| DO2SHX-10 | 2026-09-03 23:55:14 | 52.42094 | 11.31763 | 142° | 22km/h | 22116m | 5.9m/s | -52.7°C | 3.6% | 42.0hPa | 2.6V | 00:00:00 | 02:00:29 | 00:00:00 | |
| GOEST3-10 | 2026-09-03 23:55:13 | 52.42098 | 11.31758 | 142° | 22km/h | 22110m | 4.6m/s | -52.7°C | 3.6% | 42.0hPa | 2.6V | 03:51:00 | 00:00:00 | 00:00:00 | |
| DL1XH1-15 | 2026-09-03 23:55:12 | 52.42114 | 11.31732 | 133° | 26km/h | 22090m | 4.4m/s | -52.7°C | 3.7% | 42.2hPa | 2.6V | 03:52:01 | 02:00:24 | 00:00:00 | |
| DL1XH-west | 2026-09-03 23:55:11 | 52.42106 | 11.31746 | 133° | 22km/h | 22100m | 5.7m/s | -52.7°C | 0% | 42.1hPa | 2.5V | 03:52:34 | 02:00:26 | 00:00:00 | |
| DF8AY | 2026-09-03 23:55:05 | 52.42135 | 11.31701 | 136° | 29km/h | 22070m | 5.8m/s | -52.6°C | 0% | 42.3hPa | 2.7V | 03:52:34 | 02:00:20 | 00:00:00 | |
| AA1-15 | 2026-09-03 23:55:04 | 52.42140 | 11.31693 | 132° | 27km/h | 22064m | 5m/s | -52.6°C | 0% | 42.4hPa | 2.7V | 03:52:34 | 02:00:19 | 00:00:00 | |
| MECKS9 | 2026-09-03 23:55:04 | 52.42140 | 11.31693 | 133° | 27km/h | 22065m | 5.0m/s | -52.6°C | 0.7% | 42.3hPa | 2.6V | 03:52:00 | 00:00:00 | 00:00:00 | |
| DM0DOS-11 | 2026-09-03 23:55:03 | 52.42154 | 11.31671 | 140° | 22km/h | 22050m | 5.5m/s | -52.5°C | 3.6% | 42.5hPa | 2.6V | 03:52:09 | 02:00:16 | 00:00:00 | |
| HSKMA3-T | 2026-09-03 23:55:01 | 52.42154 | 11.31671 | 140° | 22km/h | 22050m | 5.5m/s | -52.5°C | 0% | 42.5hPa | 2.6V | 03:52:34 | 02:00:16 | 00:00:00 | |
| DL1XH-west | 2026-09-03 23:55:00 | 52.42158 | 11.31665 | 141° | 18km/h | 22044m | 5m/s | -52.5°C | 0% | 42.5hPa | 2.6V | 03:52:34 | 02:00:15 | 00:00:00 | |
| DF8AY | 2026-09-03 23:54:55 | 52.42173 | 11.31641 | 146° | 18km/h | 22019m | 5.6m/s | -52.5°C | 0% | 42.6hPa | 2.5V | 03:52:34 | 02:00:10 | 00:00:00 | |
| DB0DAN | 2026-09-03 23:54:55 | 52.42173 | 11.31641 | 146° | 18km/h | 22019m | 5.6m/s | -52.5°C | 0.7% | 42.65hPa | 2.5V | 00:00:00 | 00:00:00 | 00:00:00 | |
| AA1-15 | 2026-09-03 23:54:54 | 52.42177 | 11.31637 | 151° | 18km/h | 22014m | 5m/s | -52.5°C | 0% | 42.7hPa | 2.6V | 03:52:34 | 02:00:09 | 00:00:00 | |
| DL1XH-15 | 2026-09-03 23:54:53 | 52.42189 | 11.31623 | 136° | 20km/h | 21998m | 5.1m/s | -52.5°C | 3.7% | 42.8hPa | 2.7V | 03:52:19 | 02:00:06 | 00:00:00 | |
| HSKMA3-T | 2026-09-03 23:54:51 | 52.42189 | 11.31623 | 137° | 20km/h | 21998m | 5.1m/s | -52.5°C | 0% | 42.8hPa | 2.7V | 03:52:34 | 02:00:06 | 00:00:00 | |
| DL1XH-west | 2026-09-03 23:54:50 | 52.42197 | 11.31611 | 139° | 22km/h | 21988m | 5.9m/s | -52.4°C | 0% | 42.9hPa | 2.5V | 03:52:34 | 02:00:04 | 00:00:00 | |
| DF8AY | 2026-09-03 23:54:44 | 52.42216 | 11.31581 | 124° | 16km/h | 21964m | 5m/s | -52.4°C | 0% | 43hPa | 2.6V | 03:52:34 | 01:59:59 | 00:00:00 | |
| AA1-15 | 2026-09-03 23:54:43 | 52.42218 | 11.31576 | 128° | 16km/h | 21960m | 3.9m/s | -52.4°C | 0% | 43hPa | 2.6V | 03:52:34 | 01:59:58 | 00:00:00 | |
| DM0DOS-11 | 2026-09-03 23:54:43 | 52.42225 | 11.31568 | 153° | 16km/h | 21950m | 5.8m/s | -52.4°C | 3.6% | 43.1hPa | 2.6V | 03:52:29 | 01:59:56 | 00:00:00 | |
| GOEST3-10 | 2026-09-03 23:54:43 | 52.42218 | 11.31576 | 129° | 16km/h | 21960m | 3.8m/s | -52.3°C | 3.6% | 43.0hPa | 2.6V | 00:00:00 | 00:00:00 | 00:00:00 | |
| S3001 | 2026-09-03 23:54:42 | 52.42221 | 11.31571 | 139° | 15km/h | 21955m | 4.9m/s | -52.4°C | 0.8% | 43.1hPa | 2.6V | 00:00:00 | 00:00:00 | 00:00:00 | |
| DL1XH1-15 | 2026-09-03 23:54:41 | 52.42233 | 11.31563 | 166° | 16km/h | 21940m | 4m/s | -52.3°C | 3.7% | 43.2hPa | 2.6V | 03:52:31 | 01:59:54 | 00:00:00 | |
| DB0DAN | 2026-09-03 23:54:40 | 52.42228 | 11.31565 | 164° | 16km/h | 21944m | 4.8m/s | -52.3°C | 0.8% | 43.13hPa | 2.7V | 00:00:00 | 00:00:00 | 00:00:00 | |
| HSKMA3-T | 2026-09-03 23:54:40 | 52.42228 | 11.31565 | 164° | 18km/h | 21944m | 4.8m/s | -52.3°C | 0% | 43.1hPa | 2.7V | 03:52:34 | 01:59:55 | 00:00:00 | |
| DL1XH-west | 2026-09-03 23:54:38 | 52.42236 | 11.31562 | 164° | 15km/h | 21935m | 5.2m/s | -52.3°C | 0% | 43.2hPa | 2.6V | 03:52:34 | 01:59:53 | 00:00:00 | |
| GOEST3-10 | 2026-09-03 23:54:38 | 52.42236 | 11.31562 | 165° | 13km/h | 21936m | 5.2m/s | -52.3°C | 3.6% | 43.2hPa | 2.6V | 00:00:00 | 01:59:53 | 00:00:00 | |
| SONDE2-11 | 2026-09-03 23:54:37 | 52.42240 | 11.31560 | 160° | 13km/h | 21930m | 5.1m/s | -52.3°C | 0.7% | 43.3hPa | 2.6V | 00:00:00 | 00:00:00 | 00:00:00 | |
| EDDB2-11 | 2026-09-03 23:54:36 | 52.42243 | 11.31558 | 157° | 11km/h | 21925m | 4.8m/s | -52.3°C | 0.8% | 43.3hPa | 2.6V | 00:00:00 | 00:00:00 | 00:00:00 | |
| DD8BA-10 | 2026-09-03 23:54:35 | 52.42246 | 11.31556 | 161° | 11km/h | 21921m | 5.0m/s | -52.3°C | 3.6% | 43.3hPa | 2.6V | 00:00:00 | 00:00:00 | 00:00:00 | |
| DL1XH1-15 | 2026-09-03 23:54:34 | 52.42262 | 11.31548 | 153° | 7km/h | 21891m | 4.9m/s | -52.2°C | 3.6% | 43.5hPa | 2.6V | 03:52:41 | 01:59:44 | 00:00:00 | |
| DL1XH-15 | 2026-09-03 23:54:33 | 52.42258 | 11.31551 | 157° | 9km/h | 21901m | 5.7m/s | -52.2°C | 3.6% | 43.5hPa | 2.7V | 03:52:39 | 01:59:46 | 00:00:00 | |
| AA1-15 | 2026-09-03 23:54:33 | 52.42252 | 11.31553 | 168° | 13km/h | 21910m | 4.6m/s | -52.3°C | 0% | 43.4hPa | 2.6V | 03:53:25 | 01:59:48 | 00:00:00 | |
| DF8AY | 2026-09-03 23:54:31 | 52.42258 | 11.31551 | 158° | 9km/h | 21901m | 5.7m/s | -52.2°C | 0% | 43.5hPa | 2.7V | 03:53:25 | 01:59:46 | 00:00:00 | |
| HSKMA3-T | 2026-09-03 23:54:30 | 52.42260 | 11.31549 | 148° | 7km/h | 21896m | 5.4m/s | -52.2°C | 0% | 43.5hPa | 2.7V | 03:53:25 | 01:59:45 | 00:00:00 | |
| DL1XH-west | 2026-09-03 23:54:27 | 52.42266 | 11.31547 | 179° | 13km/h | 21880m | 6.1m/s | -52.2°C | 0% | 43.6hPa | 2.6V | 03:53:25 | 01:59:42 | 00:00:00 | |
| DL4XJ-10 | 2026-09-03 23:54:27 | 52.42266 | 11.31547 | 180° | 20km/h | 21881m | 6.0m/s | -51.8°C | 0% | 0hPa | 2.7V | 00:00:00 | 00:00:00 | 00:00:00 | |
| TFSTFS | 2026-09-03 23:54:26 | 52.42266 | 11.31546 | 180° | 13km/h | 21880m | 6.1m/s | -52.2°C | 0.7% | 43.6hPa | 2.7V | 03:53:00 | 00:00:00 | 00:00:00 | |
| DB0DAN | 2026-09-03 23:54:25 | 52.42274 | 11.31547 | 181° | 18km/h | 21870m | 4.1m/s | -52.1°C | 0.7% | 43.62hPa | 2.7V | 00:00:00 | 00:00:00 | 00:00:00 | |
| AA1-15 | 2026-09-03 23:54:22 | 52.42289 | 11.31546 | 176° | 20km/h | 21855m | 4.2m/s | -52.1°C | 0% | 43.8hPa | 2.6V | 03:53:25 | 01:59:37 | 00:00:00 | |
| DL1CLM-18 | 2026-09-03 23:54:21 | 52.42289 | 11.31545 | 177° | 20km/h | 21856m | 4.2m/s | -52.1°C | 0% | 43.8hPa | 2.6V | 00:00:00 | 00:00:00 | 00:00:00 | |
| DL1XH1-15 | 2026-09-03 23:54:20 | 52.42303 | 11.31546 | 182° | 15km/h | 21840m | 4.1m/s | -52°C | 3.5% | 43.9hPa | 2.6V | 03:52:51 | 01:59:34 | 00:00:00 | |
| HSKMA3-T | 2026-09-03 23:54:20 | 52.42299 | 11.31546 | 185° | 18km/h | 21845m | 5.1m/s | -52°C | 0% | 43.8hPa | 2.6V | 03:53:25 | 01:59:35 | 00:00:00 | |
| DL1XH-west | 2026-09-03 23:54:16 | 52.42311 | 11.31542 | 143° | 11km/h | 21825m | 4.2m/s | -52°C | 0% | 44hPa | 2.7V | 03:53:25 | 01:59:31 | 00:00:00 | |
| DB0NH | 2026-09-03 23:54:15 | 52.42314 | 11.31540 | 149° | 24km/h | 21821m | 5.1m/s | -51.9°C | 3.5% | 43.9hPa | 2.6V | 00:00:00 | 01:59:30 | 00:00:00 | |
| DL1XH1-15 | 2026-09-03 23:54:14 | 52.42348 | 11.31517 | 161° | 31km/h | 21789m | 4.9m/s | -52°C | 3.4% | 44.2hPa | 2.6V | 03:53:01 | 01:59:24 | 00:00:00 | |
| AA1-15 | 2026-09-03 23:54:11 | 52.42334 | 11.31526 | 158° | 27km/h | 21799m | 5.7m/s | -51.9°C | 0% | 44.1hPa | 2.6V | 03:53:25 | 01:59:26 | 00:00:00 | |
| DB0DAN | 2026-09-03 23:54:10 | 52.42341 | 11.31522 | 158° | 27km/h | 21794m | 4.7m/s | -51.9°C | 0.7% | 44.17hPa | 2.7V | 00:00:00 | 00:00:00 | 00:00:00 | |
| DF8AY | 2026-09-03 23:54:09 | 52.42373 | 11.31507 | 161° | 18km/h | 21768m | 6.1m/s | -52.2°C | 0% | 44.3hPa | 2.7V | 03:53:25 | 01:59:20 | 00:00:00 | |
| HSKMA3-T | 2026-09-03 23:54:09 | 52.42348 | 11.31517 | 162° | 31km/h | 21789m | 4.9m/s | -52°C | 0% | 44.2hPa | 2.6V | 03:53:25 | 01:59:24 | 00:00:00 | |
| BIOWL1-15 | 2026-09-03 23:54:07 | 52.42362 | 11.31512 | 170° | 27km/h | 21778m | 4.4m/s | -52.1°C | 0% | 44.3hPa | 2.6V | 03:53:25 | 01:59:22 | 00:00:00 | |
| DL1XH-west | 2026-09-03 23:54:06 | 52.42368 | 11.31509 | 167° | 24km/h | 21773m | 5.1m/s | -52.1°C | 0% | 44.3hPa | 2.7V | 03:53:25 | 01:59:21 | 00:00:00 | |
| SP3BTT-10 | 2026-09-03 23:54:06 | 52.42368 | 11.31509 | 167° | 22km/h | 21774m | 5.1m/s | -52.1°C | 3.4% | 44.2hPa | 2.7V | 00:00:00 | 00:00:00 | 00:00:00 | |
| DD8BA-10 | 2026-09-03 23:54:05 | 52.42373 | 11.31507 | 162° | 18km/h | 21768m | 6.0m/s | -52.1°C | 3.4% | 44.3hPa | 2.7V | 00:00:00 | 00:00:00 | 00:00:00 | |
| MECKS9 | 2026-09-03 23:54:04 | 52.42373 | 11.31507 | 162° | 18km/h | 21768m | 6.1m/s | -52.2°C | 0.7% | 44.3hPa | 2.7V | 03:53:00 | 00:00:00 | 00:00:00 | |
| DM0DOS-11 | 2026-09-03 23:54:03 | 52.42383 | 11.31499 | 160° | 9km/h | 21747m | 4.7m/s | -52.4°C | 3.4% | 44.5hPa | 2.7V | 03:53:09 | 01:59:16 | 00:00:00 | |
| AA1-15 | 2026-09-03 23:54:01 | 52.42383 | 11.31499 | 161° | 9km/h | 21747m | 4.7m/s | -52.4°C | 0% | 44.5hPa | 2.7V | 03:53:25 | 01:59:16 | 00:00:00 | |
| DL1ZP-14 | 2026-09-03 23:54:01 | 52.42386 | 11.31497 | 161° | 13km/h | 21743m | 3.4m/s | -52.5°C | 0.7% | 44.5hPa | 2.7V | 00:00:00 | 00:00:00 | 00:00:00 | |
| DL1XH1-15 | 2026-09-03 23:54:00 | 52.42390 | 11.31495 | 156° | 18km/h | 21739m | 4.1m/s | -52.5°C | 3.5% | 44.5hPa | 2.6V | 03:53:11 | 01:59:14 | 00:00:00 | |
| HSKMA3-T | 2026-09-03 23:53:59 | 52.42390 | 11.31495 | 157° | 18km/h | 21739m | 4.1m/s | -52.5°C | 0% | 44.5hPa | 2.6V | 03:53:25 | 01:59:14 | 00:00:00 | |
| DF8AY | 2026-09-03 23:53:57 | 52.42400 | 11.31486 | 148° | 27km/h | 21729m | 5.3m/s | -52.6°C | 0% | 44.6hPa | 2.6V | 03:53:25 | 01:59:12 | 00:00:00 | |
| DL1XH-west | 2026-09-03 23:53:55 | 52.42413 | 11.31472 | 151° | 33km/h | 21719m | 5.5m/s | -52.8°C | 0% | 44.7hPa | 2.7V | 03:53:25 | 01:59:10 | 00:00:00 | |
| DB0DAN | 2026-09-03 23:53:55 | 52.42413 | 11.31472 | 151° | 31km/h | 21719m | 5.5m/s | -52.8°C | 0.7% | 44.7hPa | 2.7V | 00:00:00 | 00:00:00 | 00:00:00 | |
| DD8BA-10 | 2026-09-03 23:53:55 | 52.42413 | 11.31472 | 151° | 27km/h | 21719m | 5.5m/s | -52.7°C | 3.5% | 44.6hPa | 2.7V | 00:00:00 | 00:00:00 | 00:00:00 | |
| DL1NUX | 2026-09-03 23:53:54 | 52.42447 | 11.31427 | 121° | 26km/h | 21690m | 4.5m/s | -53.2°C | 3.8% | 44.9hPa | 2.6V | 03:53:21 | 01:59:04 | 00:00:00 | |
| DL1XH-15 | 2026-09-03 23:53:53 | 52.42439 | 11.31445 | 133° | 29km/h | 21699m | 5.7m/s | -53.1°C | 3.7% | 44.8hPa | 2.7V | 03:53:19 | 01:59:06 | 00:00:00 | |
| BIOWL1-15 | 2026-09-03 23:53:52 | 52.42433 | 11.31453 | 143° | 29km/h | 21705m | 5m/s | -53°C | 0% | 44.8hPa | 2.6V | 03:53:25 | 01:59:07 | 00:00:00 | |
| AA1-15 | 2026-09-03 23:53:51 | 52.42439 | 11.31445 | 134° | 29km/h | 21699m | 5.7m/s | -53.1°C | 0% | 44.8hPa | 2.7V | 03:53:25 | 01:59:06 | 00:00:00 | |
| HSKMA3-T | 2026-09-03 23:53:48 | 52.42450 | 11.31419 | 123° | 24km/h | 21685m | 5.7m/s | -53.2°C | 0% | 44.9hPa | 2.6V | 03:53:25 | 01:59:03 | 00:00:00 | |
| BIOWL1-15 | 2026-09-03 23:53:48 | 52.42485 | 11.31337 | 127° | 33km/h | 21640m | 3.9m/s | -53.4°C | 0% | 45.3hPa | 2.7V | 03:59:22 | 01:58:54 | 00:00:00 | |
| DF8AY | 2026-09-03 23:53:47 | 52.42454 | 11.31411 | 126° | 22km/h | 21680m | 5m/s | -53.3°C | 0% | 44.9hPa | 2.6V | 03:53:25 | 01:59:02 | 00:00:00 | |
| DL1XH-west | 2026-09-03 23:53:45 | 52.42464 | 11.31388 | 122° | 26km/h | 21665m | 5.7m/s | -53.3°C | 0% | 45hPa | 2.7V | 03:54:16 | 01:58:59 | 00:00:00 | |
| DB0NH | 2026-09-03 23:53:45 | 52.42460 | 11.31396 | 125° | 26km/h | 21671m | 4.4m/s | -53.3°C | 3.7% | 45.0hPa | 2.7V | 00:00:00 | 01:59:00 | 00:00:00 | |
| DO2SHX-10 | 2026-09-03 23:53:44 | 52.42464 | 11.31388 | 122° | 27km/h | 21666m | 5.6m/s | -53.3°C | 3.8% | 45.0hPa | 2.7V | 03:53:00 | 01:58:59 | 00:00:00 | |
| GOEST3-10 | 2026-09-03 23:53:43 | 52.42467 | 11.31378 | 121° | 31km/h | 21660m | 5.3m/s | -53.3°C | 3.8% | 45.0hPa | 2.5V | 00:00:00 | 00:00:00 | 00:00:00 | |
| DM0DOS-11 | 2026-09-03 23:53:42 | 52.42476 | 11.31358 | 125° | 31km/h | 21650m | 5.7m/s | -53.4°C | 3.8% | 45.1hPa | 2.6V | 03:53:29 | 01:58:56 | 00:00:00 | |
| AA1-15 | 2026-09-03 23:53:40 | 52.42480 | 11.31347 | 128° | 31km/h | 21645m | 4.5m/s | -53.4°C | 0% | 45.2hPa | 2.7V | 03:54:16 | 01:58:55 | 00:00:00 | |
| DB0DAN | 2026-09-03 23:53:40 | 52.42480 | 11.31347 | 128° | 29km/h | 21644m | 4.5m/s | -53.4°C | 0.8% | 45.24hPa | 2.7V | 00:00:00 | 00:00:00 | 00:00:00 | |
| DL1XH1-15 | 2026-09-03 23:53:40 | 52.42485 | 11.31337 | 126° | 33km/h | 21640m | 3.9m/s | -53.4°C | 3.8% | 45.2hPa | 2.7V | 03:53:31 | 01:58:54 | 00:00:00 | |
| HSKMA3-T | 2026-09-03 23:53:37 | 52.42494 | 11.31313 | 119° | 35km/h | 21631m | 4.6m/s | -53.4°C | 0% | 45.3hPa | 2.6V | 03:54:16 | 01:58:52 | 00:00:00 | |
| DF8AY | 2026-09-03 23:53:36 | 52.42498 | 11.31301 | 116° | 33km/h | 21626m | 4.7m/s | -53.4°C | 0% | 45.4hPa | 2.7V | 03:54:16 | 01:58:51 | 00:00:00 | |
| DL1XH-west | 2026-09-03 23:53:34 | 52.42504 | 11.31280 | 114° | 24km/h | 21616m | 5.8m/s | -53.4°C | 0% | 45.4hPa | 2.6V | 03:54:16 | 01:58:49 | 00:00:00 | |
| AA1-15 | 2026-09-03 23:53:30 | 52.42510 | 11.31249 | 101° | 22km/h | 21596m | 5.4m/s | -53.3°C | 0% | 45.5hPa | 2.7V | 03:54:16 | 01:58:45 | 00:00:00 | |
| DF8AY | 2026-09-03 23:53:26 | 52.42519 | 11.31209 | 119° | 26km/h | 21577m | 5.1m/s | -53.3°C | 0% | 45.7hPa | 2.6V | 03:54:16 | 01:58:41 | 00:00:00 | |
| DB0DAN | 2026-09-03 23:53:25 | 52.42522 | 11.31200 | 121° | 24km/h | 21572m | 4.7m/s | -53.3°C | 0.8% | 45.72hPa | 2.7V | 00:00:00 | 00:00:00 | 00:00:00 | |
| DL1XH-west | 2026-09-03 23:53:24 | 52.42525 | 11.31192 | 118° | 24km/h | 21567m | 4.6m/s | -53.3°C | 0% | 45.7hPa | 2.7V | 03:54:16 | 01:58:39 | 00:00:00 | |
| BIOWL1-15 | 2026-09-03 23:53:22 | 52.42532 | 11.31155 | 102° | 20km/h | 21549m | 5.5m/s | -53.3°C | 0% | 45.9hPa | 2.7V | 03:59:22 | 01:58:35 | 00:00:00 | |
| AA1-15 | 2026-09-03 23:53:19 | 52.42533 | 11.31148 | 104° | 16km/h | 21544m | 5.1m/s | -53.3°C | 0% | 45.9hPa | 2.6V | 03:54:16 | 01:58:34 | 00:00:00 | |
| DF8AY | 2026-09-03 23:53:15 | 52.42537 | 11.31119 | 104° | 22km/h | 21525m | 4.4m/s | -53.2°C | 0% | 46hPa | 2.7V | 03:54:16 | 01:58:30 | 00:00:00 | |
| DL1XH-west | 2026-09-03 23:53:14 | 52.42541 | 11.31102 | 119° | 20km/h | 21515m | 5.9m/s | -53.2°C | 0% | 46.1hPa | 2.6V | 03:54:16 | 01:58:28 | 00:00:00 | |
| GOEST3-10 | 2026-09-03 23:53:13 | 52.42541 | 11.31102 | 120° | 18km/h | 21516m | 5.9m/s | -53.2°C | 3.7% | 46.1hPa | 2.6V | 03:53:00 | 00:00:00 | 00:00:00 | |
| DB0DAN | 2026-09-03 23:53:10 | 52.42550 | 11.31082 | 123° | 18km/h | 21500m | 5.6m/s | -53.3°C | 0.8% | 46.23hPa | 2.7V | 00:00:00 | 00:00:00 | 00:00:00 | |
| AA1-15 | 2026-09-03 23:53:09 | 52.42552 | 11.31076 | 117° | 18km/h | 21495m | 5m/s | -53.4°C | 0% | 46.3hPa | 2.7V | 03:54:16 | 01:58:24 | 00:00:00 | |
| BIOWL1-15 | 2026-09-03 23:53:06 | 52.42556 | 11.31060 | 120° | 11km/h | 21481m | 4.9m/s | -53.6°C | 0% | 46.4hPa | 2.6V | 03:59:22 | 01:58:21 | 00:00:00 | |
| HSKMA3-T | 2026-09-03 23:53:05 | 52.42558 | 11.31056 | 131° | 11km/h | 21477m | 4.1m/s | -53.6°C | 0% | 46.4hPa | 2.6V | 03:54:16 | 01:58:20 | 00:00:00 | |
| DL1XH-west | 2026-09-03 23:53:03 | 52.42562 | 11.31048 | 126° | 15km/h | 21467m | 4.9m/s | -53.6°C | 0% | 46.5hPa | 2.7V | 03:54:16 | 01:58:18 | 00:00:00 | |
| DL1XH-15 | 2026-09-03 23:53:03 | 52.42566 | 11.31036 | 108° | 16km/h | 21458m | 4.7m/s | -53.6°C | 3.8% | 46.5hPa | 2.7V | 03:54:09 | 01:58:16 | 00:00:00 | |
| AA1-15 | 2026-09-03 23:52:59 | 52.42568 | 11.31025 | 115° | 13km/h | 21449m | 4.5m/s | -53.6°C | 0% | 46.6hPa | 2.6V | 03:54:16 | 01:58:14 | 00:00:00 | |
| BIOWL1-15 | 2026-09-03 23:52:55 | 52.42579 | 11.31015 | 163° | 15km/h | 21430m | 4.6m/s | -53.5°C | 0% | 46.8hPa | 2.7V | 03:59:22 | 01:58:10 | 00:00:00 | |
| DB0DAN | 2026-09-03 23:52:55 | 52.42579 | 11.31015 | 162° | 15km/h | 21430m | 4.6m/s | -53.5°C | 0.8% | 46.75hPa | 2.7V | 00:00:00 | 00:00:00 | 00:00:00 | |
| DF8AY | 2026-09-03 23:52:54 | 52.42582 | 11.31013 | 154° | 15km/h | 21425m | 4.5m/s | -53.5°C | 0% | 46.8hPa | 2.6V | 03:54:16 | 01:58:09 | 00:00:00 | |
| DL1XH-west | 2026-09-03 23:52:53 | 52.42585 | 11.31010 | 143° | 11km/h | 21421m | 4.1m/s | -53.6°C | 0% | 46.8hPa | 2.6V | 03:55:07 | 01:58:08 | 00:00:00 | |
| DL1NUX | 2026-09-03 23:52:53 | 52.42589 | 11.31004 | 178° | 2km/h | 21402m | 4.5m/s | -53.6°C | 3.8% | 46.9hPa | 2.6V | 03:54:21 | 01:58:04 | 00:00:00 | |
| DO2SHX-10 | 2026-09-03 23:52:53 | 52.42585 | 11.31010 | 143° | 9km/h | 21421m | 4.0m/s | -53.5°C | 3.8% | 46.8hPa | 2.7V | 00:00:00 | 01:58:08 | 00:00:00 | |
| DM0DOS-11 | 2026-09-03 23:52:52 | 52.42588 | 11.31005 | 119° | 5km/h | 21412m | 4.8m/s | -53.6°C | 3.8% | 46.9hPa | 2.7V | 03:54:19 | 01:58:06 | 00:00:00 | |
| AA1-15 | 2026-09-03 23:52:48 | 52.42590 | 11.31003 | 165° | 5km/h | 21398m | 4.2m/s | -53.6°C | 0% | 47hPa | 2.6V | 03:55:07 | 01:58:03 | 00:00:00 | |
| SMARD9-15 | 2026-09-03 23:52:46 | 52.42593 | 11.30999 | 131° | 11km/h | 21389m | 5.4m/s | -53.5°C | 0.8% | 47.0hPa | 2.7V | 00:00:00 | 00:00:00 | 00:00:00 | |
| BIOWL1-15 | 2026-09-03 23:52:44 | 52.42609 | 11.30972 | 141° | 20km/h | 21363m | 4m/s | -53.5°C | 0% | 47.2hPa | 2.7V | 03:59:22 | 01:57:56 | 00:00:00 | |
| DF8AY | 2026-09-03 23:52:44 | 52.42598 | 11.30989 | 130° | 18km/h | 21379m | 4.5m/s | -53.5°C | 0% | 47.1hPa | 2.6V | 03:55:07 | 01:57:59 | 00:00:00 | |
| HSKMA3-T | 2026-09-03 23:52:43 | 52.42601 | 11.30983 | 135° | 20km/h | 21373m | 5.6m/s | -53.5°C | 0% | 47.1hPa | 2.6V | 03:55:07 | 01:57:58 | 00:00:00 | |
| DL1XH-15 | 2026-09-03 23:52:43 | 52.42609 | 11.30972 | 141° | 20km/h | 21363m | 4m/s | -53.5°C | 3.8% | 47.2hPa | 2.7V | 03:54:29 | 01:57:56 | 00:00:00 | |
| DL1XH-west | 2026-09-03 23:52:43 | 52.42605 | 11.30978 | 140° | 20km/h | 21368m | 5.1m/s | -53.5°C | 0% | 47.2hPa | 2.7V | 03:55:07 | 01:57:57 | 00:00:00 | |
| GOEST3-10 | 2026-09-03 23:52:43 | 52.42601 | 11.30983 | 135° | 20km/h | 21373m | 5.5m/s | -53.5°C | 3.8% | 47.1hPa | 2.6V | 00:00:00 | 00:00:00 | 00:00:00 | |
| TFSTFS | 2026-09-03 23:52:42 | 52.42605 | 11.30977 | 141° | 20km/h | 21368m | 5.1m/s | -53.5°C | 0.8% | 47.2hPa | 2.7V | 00:00:00 | 00:00:00 | 00:00:00 | |
| DL1XH1-15 | 2026-09-03 23:52:42 | 52.42616 | 11.30961 | 130° | 20km/h | 21354m | 5.3m/s | -53.5°C | 3.8% | 47.3hPa | 2.6V | 03:54:31 | 01:57:54 | 00:00:00 | |
| DB0DAN | 2026-09-03 23:52:40 | 52.42613 | 11.30967 | 137° | 20km/h | 21359m | 5m/s | -53.5°C | 0.8% | 47.25hPa | 2.7V | 00:00:00 | 00:00:00 | 00:00:00 | |
| AA1-15 | 2026-09-03 23:52:37 | 52.42622 | 11.30948 | 127° | 18km/h | 21344m | 4.6m/s | -53.5°C | 0% | 47.3hPa | 2.6V | 03:55:07 | 01:57:52 | 00:00:00 | |
| BIOWL9-15 | 2026-09-03 23:52:36 | 52.42625 | 11.30943 | 130° | 13km/h | 21339m | 5.5m/s | -53.6°C | 0.8% | -1.0hPa | 2.7V | 00:00:00 | 00:00:00 | 00:00:00 | |
| DD8BA-10 | 2026-09-03 23:52:35 | 52.42627 | 11.30939 | 137° | 22km/h | 21334m | 4.4m/s | -53.6°C | 3.8% | 47.4hPa | 2.7V | 00:00:00 | 00:00:00 | 00:00:00 | |
| DL1XH-15 | 2026-09-03 23:52:33 | 52.42638 | 11.30916 | 122° | 24km/h | 21316m | 4.7m/s | -53.9°C | 3.9% | 47.6hPa | 2.7V | 03:54:39 | 01:57:46 | 00:00:00 | |
| DL1NUX | 2026-09-03 23:52:33 | 52.42645 | 11.30900 | 130° | 24km/h | 21305m | 5.6m/s | -53.9°C | 3.9% | 47.6hPa | 2.6V | 03:54:41 | 01:57:44 | 00:00:00 | |
| DL1XH-west | 2026-09-03 23:52:32 | 52.42634 | 11.30923 | 122° | 20km/h | 21320m | 5.2m/s | -53.9°C | 0% | 47.5hPa | 2.7V | 03:55:07 | 01:57:47 | 00:00:00 | |
| DF8AY | 2026-09-03 23:52:32 | 52.42637 | 11.30916 | 123° | 24km/h | 21316m | 4.7m/s | -53.9°C | 0% | 47.6hPa | 2.7V | 03:55:07 | 01:57:46 | 00:00:00 | |
| AA1-15 | 2026-09-03 23:52:27 | 52.42654 | 11.30884 | 132° | 27km/h | 21296m | 3.6m/s | -53.8°C | 0% | 47.7hPa | 2.7V | 03:55:07 | 01:57:42 | 00:00:00 | |
| DO2SHX-10 | 2026-09-03 23:52:26 | 52.42658 | 11.30875 | 130° | 31km/h | 21292m | 5.1m/s | -53.7°C | 3.9% | 47.7hPa | 2.7V | 00:00:00 | 01:57:41 | 00:00:00 | |
| DD8BA-10 | 2026-09-03 23:52:25 | 52.42663 | 11.30865 | 124° | 29km/h | 21286m | 5.4m/s | -53.7°C | 3.8% | 47.7hPa | 2.7V | 00:00:00 | 00:00:00 | 00:00:00 | |
| DO2SHX-10 | 2026-09-03 23:52:23 | 52.42671 | 11.30842 | 115° | 26km/h | 21277m | 4.4m/s | -53.7°C | 3.8% | 47.8hPa | 2.6V | 00:00:00 | 01:57:38 | 00:00:00 | |
| DL1NUX | 2026-09-03 23:52:22 | 52.42681 | 11.30804 | 115° | 27km/h | 21258m | 4.9m/s | -53.7°C | 3.8% | 48hPa | 2.6V | 03:54:51 | 01:57:34 | 00:00:00 | |
| HSKMA3-T | 2026-09-03 23:52:21 | 52.42676 | 11.30823 | 114° | 24km/h | 21267m | 4.7m/s | -53.7°C | 0% | 47.9hPa | 2.7V | 03:55:07 | 01:57:36 | 00:00:00 | |
| DF8AY | 2026-09-03 23:52:20 | 52.42678 | 11.30814 | 116° | 26km/h | 21263m | 3.5m/s | -53.7°C | 0% | 48hPa | 2.7V | 03:55:07 | 01:57:35 | 00:00:00 | |
| AA1-15 | 2026-09-03 23:52:16 | 52.42691 | 11.30769 | 115° | 35km/h | 21243m | 5m/s | -53.7°C | 0% | 48.1hPa | 2.7V | 03:55:07 | 01:57:31 | 00:00:00 | |
| DB0NH | 2026-09-03 23:52:15 | 52.42695 | 11.30756 | 117° | 33km/h | 21238m | 5.6m/s | -53.7°C | 3.8% | 48.1hPa | 2.6V | 00:00:00 | 01:57:30 | 00:00:00 | |
| DL4BBY-15 | 2026-09-03 23:52:14 | 52.42699 | 11.30744 | 117° | 33km/h | 21232m | 4.4m/s | -53.4°C | 0% | 0hPa | 2.6V | 00:00:00 | 00:00:00 | 00:00:00 | |
| GOEST3-10 | 2026-09-03 23:52:13 | 52.42702 | 11.30732 | 116° | 33km/h | 21228m | 4.3m/s | -53.7°C | 3.8% | 48.2hPa | 2.6V | 03:54:00 | 00:00:00 | 00:00:00 | |
| DL1NUX | 2026-09-03 23:52:12 | 52.42717 | 11.30682 | 114° | 31km/h | 21207m | 5.8m/s | -53.8°C | 3.9% | 48.4hPa | 2.6V | 03:55:01 | 01:57:24 | 00:00:00 | |
| DL1XH-west | 2026-09-03 23:52:11 | 52.42710 | 11.30707 | 115° | 35km/h | 21217m | 4.8m/s | -53.7°C | 0.1% | 48.3hPa | 2.7V | 03:55:07 | 01:57:26 | 00:00:00 | |
| HSKMA3-T | 2026-09-03 23:52:11 | 52.42713 | 11.30694 | 115° | 33km/h | 21213m | 4.8m/s | -53.7°C | 0% | 48.4hPa | 2.7V | 03:55:07 | 01:57:25 | 00:00:00 | |
| DB0DAN | 2026-09-03 23:52:10 | 52.42713 | 11.30694 | 114° | 33km/h | 21213m | 4.8m/s | -53.7°C | 0.8% | 48.35hPa | 2.7V | 00:00:00 | 00:00:00 | 00:00:00 | |
| BIOWL1-15 | 2026-09-03 23:52:08 | 52.42720 | 11.30671 | 116° | 27km/h | 21202m | 5.3m/s | -53.8°C | 0.1% | 48.4hPa | 2.6V | 03:59:22 | 01:57:23 | 00:00:00 | |
| AA1-15 | 2026-09-03 23:52:05 | 52.42730 | 11.30638 | 113° | 35km/h | 21188m | 5.4m/s | -53.9°C | 0.1% | 48.5hPa | 2.7V | 03:55:07 | 01:57:20 | 00:00:00 | |
| DD8BA-10 | 2026-09-03 23:52:05 | 52.42730 | 11.30638 | 113° | 37km/h | 21188m | 5.3m/s | -53.9°C | 4.0% | 48.5hPa | 2.6V | 00:00:00 | 00:00:00 | 00:00:00 | |
| DJ2DS-15 | 2026-09-03 23:52:04 | 52.42737 | 11.30609 | 112° | 38km/h | 21179m | 4.0m/s | -53.9°C | 0.9% | 48.6hPa | 2.6V | 00:00:00 | 00:00:00 | 00:00:00 | |
| DL1NUX | 2026-09-03 23:52:03 | 52.42750 | 11.30552 | 106° | 35km/h | 21159m | 4.3m/s | -53.9°C | 3.9% | 48.7hPa | 2.6V | 03:55:11 | 01:57:14 | 00:00:00 | |
| HSKMA3-T | 2026-09-03 23:52:00 | 52.42747 | 11.30566 | 110° | 35km/h | 21164m | 4.6m/s | -53.9°C | 0.1% | 48.7hPa | 2.6V | 03:55:58 | 01:57:15 | 00:00:00 | |
| BIOWL1-15 | 2026-09-03 23:51:57 | 52.42754 | 11.30523 | 102° | 37km/h | 21149m | 4.8m/s | -53.9°C | 0% | 48.9hPa | 2.7V | 03:59:22 | 01:57:12 | 00:00:00 | |
| DL1ZP-14 | 2026-09-03 23:51:56 | 52.42756 | 11.30508 | 98° | 35km/h | 21145m | 4.1m/s | -53.8°C | 0.9% | 48.8hPa | 2.7V | 00:00:00 | 00:00:00 | 00:00:00 | |
| DB0DAN | 2026-09-03 23:51:55 | 52.42757 | 11.30494 | 96° | 31km/h | 21139m | 5.6m/s | -53.8°C | 0.9% | 48.91hPa | 2.7V | 00:00:00 | 00:00:00 | 00:00:00 | |
| AA1-15 | 2026-09-03 23:51:55 | 52.42757 | 11.30494 | 96° | 33km/h | 21139m | 5.6m/s | -53.8°C | 0.1% | 48.9hPa | 2.7V | 03:55:58 | 01:57:10 | 00:00:00 | |
| DD8BA-10 | 2026-09-03 23:51:55 | 52.42757 | 11.30494 | 96° | 31km/h | 21140m | 5.5m/s | -53.7°C | 3.9% | 48.9hPa | 2.7V | 00:00:00 | 00:00:00 | 00:00:00 | |
| DL1XH1-15 | 2026-09-03 23:51:54 | 52.42760 | 11.30419 | 97° | 33km/h | 21109m | 4.5m/s | -53.5°C | 3.8% | 49.1hPa | 2.7V | 03:55:21 | 01:57:04 | 00:00:00 | |
| HSKMA3-T | 2026-09-03 23:51:50 | 52.42760 | 11.30432 | 96° | 33km/h | 21114m | 4.9m/s | -53.6°C | 0% | 49.1hPa | 2.7V | 03:55:58 | 01:57:05 | 00:00:00 | |
| DL1XH-west | 2026-09-03 23:51:49 | 52.42761 | 11.30419 | 98° | 33km/h | 21109m | 4.5m/s | -53.6°C | 0% | 49.1hPa | 2.7V | 03:55:58 | 01:57:04 | 00:00:00 | |
| DF8AY | 2026-09-03 23:51:47 | 52.42763 | 11.30393 | 103° | 31km/h | 21099m | 4.8m/s | -53.5°C | 0% | 49.2hPa | 2.6V | 03:55:58 | 01:57:02 | 00:00:00 | |
| AA1-15 | 2026-09-03 23:51:45 | 52.42767 | 11.30367 | 102° | 33km/h | 21089m | 5.5m/s | -53.5°C | 0% | 49.3hPa | 2.6V | 03:55:58 | 01:57:00 | 00:00:00 | |
| DD8BA-10 | 2026-09-03 23:51:45 | 52.42767 | 11.30367 | 102° | 29km/h | 21090m | 5.4m/s | -53.4°C | 3.8% | 49.2hPa | 2.6V | 00:00:00 | 00:00:00 | 00:00:00 | |
| DL1NUX | 2026-09-03 23:51:44 | 52.42771 | 11.30295 | 90° | 24km/h | 21060m | 4m/s | -53.5°C | 3.8% | 49.5hPa | 2.6V | 03:55:31 | 01:56:54 | 00:00:00 | |
| DO2SHX-10 | 2026-09-03 23:51:44 | 52.42768 | 11.30353 | 100° | 33km/h | 21084m | 4.8m/s | -53.4°C | 3.7% | 49.3hPa | 2.7V | 03:55:00 | 01:56:59 | 00:00:00 | |
| GOEST3-10 | 2026-09-03 23:51:43 | 52.42769 | 11.30340 | 97° | 27km/h | 21079m | 4.6m/s | -53.5°C | 3.8% | 49.3hPa | 2.7V | 00:00:00 | 00:00:00 | 00:00:00 | |
| AM1SDL-15 | 2026-09-03 23:51:42 | 52.42770 | 11.30327 | 94° | 29km/h | 21074m | 5.7m/s | -53.5°C | 3.8% | 49.4hPa | 2.6V | 00:00:00 | 01:56:57 | 00:00:00 | |
| MECKS9 | 2026-09-03 23:51:41 | 52.42770 | 11.30327 | 95° | 31km/h | 21074m | 5.7m/s | -53.5°C | 0.9% | 49.4hPa | 2.6V | 03:55:00 | 00:00:00 | 00:00:00 | |
| DB0DAN | 2026-09-03 23:51:40 | 52.42771 | 11.30305 | 90° | 22km/h | 21064m | 3.8m/s | -53.5°C | 0.8% | 49.46hPa | 2.6V | 00:00:00 | 00:00:00 | 00:00:00 | |
| DL1XH-west | 2026-09-03 23:51:40 | 52.42771 | 11.30295 | 90° | 24km/h | 21060m | 4m/s | -53.5°C | 0% | 49.5hPa | 2.6V | 03:55:58 | 01:56:54 | 00:00:00 | |
| DF8AY | 2026-09-03 23:51:36 | 52.42773 | 11.30263 | 104° | 29km/h | 21046m | 4.6m/s | -53.5°C | 0% | 49.6hPa | 2.7V | 03:55:58 | 01:56:51 | 00:00:00 | |
| AA1-15 | 2026-09-03 23:51:35 | 52.42776 | 11.30251 | 110° | 29km/h | 21041m | 5.7m/s | -53.5°C | 0% | 49.7hPa | 2.6V | 03:55:58 | 01:56:50 | 00:00:00 | |
| DO2SHX-10 | 2026-09-03 23:51:35 | 52.42775 | 11.30251 | 110° | 31km/h | 21041m | 5.7m/s | -53.4°C | 3.7% | 49.6hPa | 2.7V | 00:00:00 | 01:56:50 | 00:00:00 | |
| DL1XH-15 | 2026-09-03 23:51:33 | 52.42787 | 11.30202 | 104° | 35km/h | 21021m | 4.7m/s | -53.7°C | 3.8% | 49.8hPa | 2.7V | 03:55:39 | 01:56:46 | 00:00:00 | |
| DL1XH-west | 2026-09-03 23:51:29 | 52.42790 | 11.30175 | 93° | 29km/h | 21012m | 4.7m/s | -53.8°C | 0% | 49.9hPa | 2.6V | 03:55:58 | 01:56:44 | 00:00:00 | |
| HSKMA3-T | 2026-09-03 23:51:28 | 52.42790 | 11.30164 | 87° | 26km/h | 21007m | 5.9m/s | -53.9°C | 0% | 49.9hPa | 2.7V | 03:55:58 | 01:56:43 | 00:00:00 | |
| DF8AY | 2026-09-03 23:51:25 | 52.42787 | 11.30139 | 75° | 20km/h | 20993m | 4.5m/s | -54°C | 0% | 50hPa | 2.6V | 03:55:58 | 01:56:40 | 00:00:00 | |
| DB0DAN | 2026-09-03 23:51:25 | 52.42787 | 11.30139 | 75° | 18km/h | 20993m | 4.5m/s | -54°C | 0.9% | 50.04hPa | 2.6V | 00:00:00 | 00:00:00 | 00:00:00 | |
| AA1-15 | 2026-09-03 23:51:24 | 52.42786 | 11.30130 | 80° | 22km/h | 20989m | 4.7m/s | -54.1°C | 0% | 50.1hPa | 2.6V | 03:55:58 | 01:56:39 | 00:00:00 | |
| DL1XH-15 | 2026-09-03 23:51:23 | 52.42788 | 11.30098 | 106° | 31km/h | 20975m | 5.6m/s | -54.1°C | 3.9% | 50.2hPa | 2.7V | 03:55:49 | 01:56:36 | 00:00:00 | |
| DL1XH1-15 | 2026-09-03 23:51:23 | 52.42793 | 11.30073 | 110° | 35km/h | 20965m | 3.6m/s | -54°C | 3.9% | 50.2hPa | 2.6V | 03:55:51 | 01:56:34 | 00:00:00 | |
| DL1XH-west | 2026-09-03 23:51:19 | 52.42793 | 11.30073 | 110° | 35km/h | 20965m | 3.6m/s | -54.1°C | 0.1% | 50.2hPa | 2.6V | 03:55:58 | 01:56:34 | 00:00:00 | |
| BIOWL1-15 | 2026-09-03 23:51:18 | 52.42796 | 11.30059 | 106° | 35km/h | 20961m | 5.2m/s | -54°C | 0% | 50.3hPa | 2.6V | 03:59:22 | 01:56:33 | 00:00:00 | |
| HSKMA3-T | 2026-09-03 23:51:17 | 52.42798 | 11.30045 | 99° | 37km/h | 20955m | 5.3m/s | -54°C | 0% | 50.3hPa | 2.7V | 03:55:58 | 01:56:32 | 00:00:00 | |
| DF8AY | 2026-09-03 23:51:14 | 52.42798 | 11.30004 | 86° | 31km/h | 20941m | 5.6m/s | -53.9°C | 0% | 50.4hPa | 2.6V | 03:55:58 | 01:56:29 | 00:00:00 | |
| AA1-15 | 2026-09-03 23:51:13 | 52.42798 | 11.29992 | 86° | 29km/h | 20936m | 4.6m/s | -53.9°C | 0% | 50.5hPa | 2.7V | 03:55:58 | 01:56:28 | 00:00:00 | |
| SMARD9-15 | 2026-09-03 23:51:13 | 52.42797 | 11.29980 | 85° | 27km/h | 20932m | 4.5m/s | -54.0°C | 0.8% | 50.5hPa | 2.6V | 00:00:00 | 00:00:00 | 00:00:00 | |
| AP2371 | 2026-09-03 23:51:11 | 52.42797 | 11.29980 | 87° | 29km/h | 20932m | 4.5m/s | 0°C | 0% | 0hPa | 2.6V | 03:55:00 | 00:00:00 | 00:00:00 | |
| DB0DAN | 2026-09-03 23:51:10 | 52.42796 | 11.29954 | 89° | 31km/h | 20922m | 4.2m/s | -54°C | 0.9% | 50.56hPa | 2.6V | 00:00:00 | 00:00:00 | 00:00:00 | |
| DL1XH-west | 2026-09-03 23:51:08 | 52.42797 | 11.29927 | 94° | 33km/h | 20914m | 4.8m/s | -54.1°C | 0.1% | 50.6hPa | 2.7V | 03:56:49 | 01:56:23 | 00:00:00 | |
| HSKMA3-T | 2026-09-03 23:51:06 | 52.42799 | 11.29900 | 97° | 33km/h | 20905m | 3.7m/s | -54.1°C | 0.1% | 50.7hPa | 2.7V | 03:56:49 | 01:56:21 | 00:00:00 | |
| DF8AY | 2026-09-03 23:51:04 | 52.42801 | 11.29871 | 95° | 38km/h | 20895m | 5.4m/s | -54.1°C | 0.1% | 50.8hPa | 2.6V | 03:56:49 | 01:56:19 | 00:00:00 | |
| DL1NUX | 2026-09-03 23:51:04 | 52.42805 | 11.29798 | 98° | 31km/h | 20871m | 4.9m/s | -54.1°C | 3.9% | 51hPa | 2.5V | 03:56:11 | 01:56:14 | 00:00:00 | |
| DL1XH-15 | 2026-09-03 23:51:03 | 52.42803 | 11.29824 | 96° | 35km/h | 20882m | 5.3m/s | -54.1°C | 3.9% | 50.9hPa | 2.7V | 03:56:09 | 01:56:16 | 00:00:00 | |
| AA1-15 | 2026-09-03 23:51:02 | 52.42802 | 11.29840 | 96° | 38km/h | 20886m | 3.7m/s | -54.1°C | 0.1% | 50.9hPa | 2.7V | 03:56:49 | 01:56:17 | 00:00:00 | |
| BIOWL1-15 | 2026-09-03 23:51:01 | 52.42803 | 11.29824 | 96° | 35km/h | 20882m | 5.4m/s | -54.1°C | 0.1% | 50.9hPa | 2.7V | 03:59:22 | 01:56:16 | 00:00:00 | |
| DL1XH-west | 2026-09-03 23:50:57 | 52.42807 | 11.29772 | 96° | 33km/h | 20861m | 4.8m/s | -54.2°C | 0.1% | 51.1hPa | 2.6V | 03:56:49 | 01:56:12 | 00:00:00 | |
| HSKMA3-T | 2026-09-03 23:50:55 | 52.42808 | 11.29745 | 93° | 33km/h | 20852m | 4.8m/s | -54.2°C | 0.1% | 51.1hPa | 2.7V | 03:56:49 | 01:56:10 | 00:00:00 | |
| DB0DAN | 2026-09-03 23:50:55 | 52.42808 | 11.29745 | 93° | 31km/h | 20852m | 4.8m/s | -54.2°C | 0.9% | 51.14hPa | 2.7V | 00:00:00 | 00:00:00 | 00:00:00 | |
| DD8BA-10 | 2026-09-03 23:50:55 | 52.42808 | 11.29745 | 94° | 35km/h | 20852m | 4.7m/s | -54.2°C | 4.0% | 51.1hPa | 2.7V | 03:56:00 | 00:00:00 | 00:00:00 | |
| DL1NUX | 2026-09-03 23:50:54 | 52.42811 | 11.29658 | 96° | 38km/h | 20824m | 3.6m/s | -54.1°C | 3.9% | 51.4hPa | 2.7V | 03:56:21 | 01:56:04 | 00:00:00 | |
| DF8AY | 2026-09-03 23:50:53 | 52.42809 | 11.29719 | 91° | 33km/h | 20842m | 4.4m/s | -54.2°C | 0.1% | 51.2hPa | 2.6V | 03:56:49 | 01:56:08 | 00:00:00 | |
| AA1-15 | 2026-09-03 23:50:51 | 52.42810 | 11.29690 | 94° | 38km/h | 20832m | 5.7m/s | -54.2°C | 0.1% | 51.3hPa | 2.7V | 03:56:49 | 01:56:06 | 00:00:00 | |
| DL1XH-west | 2026-09-03 23:50:46 | 52.42815 | 11.29618 | 102° | 27km/h | 20810m | 4m/s | -54°C | 0% | 51.5hPa | 2.6V | 03:56:49 | 01:56:01 | 00:00:00 | |
| BIOWL1-15 | 2026-09-03 23:50:45 | 52.42834 | 11.29525 | 110° | 31km/h | 20773m | 3.7m/s | -53.9°C | 0% | 51.8hPa | 2.7V | 03:59:22 | 01:55:53 | 00:00:00 | |
| HSKMA3-T | 2026-09-03 23:50:44 | 52.42818 | 11.29597 | 104° | 27km/h | 20802m | 5m/s | -54°C | 0% | 51.5hPa | 2.7V | 03:56:49 | 01:55:59 | 00:00:00 | |
| DF8AY | 2026-09-03 23:50:42 | 52.42836 | 11.29513 | 106° | 31km/h | 20769m | 5.4m/s | -54°C | 0% | 51.8hPa | 2.6V | 03:56:49 | 01:55:52 | 00:00:00 | |
| SMARD9-15 | 2026-09-03 23:50:42 | 52.42825 | 11.29560 | 110° | 31km/h | 20788m | 4.4m/s | -53.9°C | 0.9% | 51.6hPa | 2.7V | 00:00:00 | 00:00:00 | 00:00:00 | |
| DL1NUX | 2026-09-03 23:50:41 | 52.42831 | 11.29536 | 111° | 29km/h | 20777m | 5m/s | -53.9°C | 3.8% | 51.7hPa | 2.7V | 03:56:31 | 01:55:54 | 00:00:00 | |
| AA1-15 | 2026-09-03 23:50:40 | 52.42828 | 11.29548 | 112° | 31km/h | 20783m | 5.7m/s | -53.9°C | 0% | 51.7hPa | 2.6V | 03:56:49 | 01:55:55 | 00:00:00 | |
| DB0DAN | 2026-09-03 23:50:40 | 52.42828 | 11.29548 | 112° | 29km/h | 20783m | 5.7m/s | -53.9°C | 0.9% | 51.7hPa | 2.6V | 00:00:00 | 00:00:00 | 00:00:00 | |
| DL1XH-west | 2026-09-03 23:50:35 | 52.42839 | 11.29486 | 96° | 33km/h | 20759m | 3.6m/s | -54°C | 0.1% | 51.9hPa | 2.6V | 03:56:49 | 01:55:50 | 00:00:00 | |
| HSKMA3-T | 2026-09-03 23:50:34 | 52.42840 | 11.29473 | 93° | 29km/h | 20755m | 4.8m/s | -54°C | 0% | 51.9hPa | 2.7V | 03:56:49 | 01:55:49 | 00:00:00 | |
| DF8AY | 2026-09-03 23:50:31 | 52.42840 | 11.29441 | 86° | 24km/h | 20740m | 4.5m/s | -54.2°C | 0.1% | 52hPa | 2.6V | 03:56:49 | 01:55:46 | 00:00:00 | |
| AA1-15 | 2026-09-03 23:50:29 | 52.42839 | 11.29420 | 88° | 27km/h | 20730m | 4.5m/s | -54.4°C | 0.1% | 52.1hPa | 2.6V | 03:56:49 | 01:55:44 | 00:00:00 | |
| BIOWL1-15 | 2026-09-03 23:50:27 | 52.42842 | 11.29376 | 104° | 29km/h | 20711m | 3.7m/s | -54.4°C | 0.1% | 52.2hPa | 2.6V | 03:59:22 | 01:55:40 | 00:00:00 | |
| Es werden nur die letzten 3500 von 6359 Frames angezeigt. GPX/KML und Diagramme bleiben verfügbar. | |||||||||||||||